<?xml version='1.0' encoding='UTF-8'?><gpx version="1.1" creator="JPX - https://github.com/jenetics/jpx" xmlns="http://www.topografix.com/GPX/1/1"><trk><trkseg><trkpt lat="45.5353905124077" lon="11.291728611001913"><ele>154.0</ele><time>2026-04-07T12:23:49Z</time></trkpt><trkpt lat="45.53545386250712" lon="11.291722169312893"><ele>154.0</ele><time>2026-04-07T12:23:53Z</time></trkpt><trkpt lat="45.53555150563435" lon="11.29164795153363"><ele>154.0</ele><time>2026-04-07T12:24:04Z</time></trkpt><trkpt lat="45.53559302585843" lon="11.291561160784504"><ele>154.0</ele><time>2026-04-07T12:24:05Z</time></trkpt><trkpt lat="45.53565104581223" lon="11.291469457175262"><ele>154.0</ele><time>2026-04-07T12:24:06Z</time></trkpt><trkpt lat="45.53573472200121" lon="11.291397352166307"><ele>154.0</ele><time>2026-04-07T12:24:07Z</time></trkpt><trkpt lat="45.53580806659596" lon="11.291295820399249"><ele>154.4</ele><time>2026-04-07T12:24:08Z</time></trkpt><trkpt lat="45.53588212517828" lon="11.2911906583761"><ele>154.8</ele><time>2026-04-07T12:24:09Z</time></trkpt><trkpt lat="45.53595575794841" lon="11.291086530032956"><ele>155.2</ele><time>2026-04-07T12:24:10Z</time></trkpt><trkpt lat="45.53602232862421" lon="11.290997461388624"><ele>155.6</ele><time>2026-04-07T12:24:11Z</time></trkpt><trkpt lat="45.53609017832831" lon="11.290923306724114"><ele>156.0</ele><time>2026-04-07T12:24:12Z</time></trkpt><trkpt lat="45.53613608530112" lon="11.290812027815642"><ele>156.0</ele><time>2026-04-07T12:24:13Z</time></trkpt><trkpt lat="45.5362137719949" lon="11.290767346774425"><ele>156.0</ele><time>2026-04-07T12:24:14Z</time></trkpt><trkpt lat="45.536290511598125" lon="11.290722780547798"><ele>156.0</ele><time>2026-04-07T12:24:15Z</time></trkpt><trkpt lat="45.536366520118655" lon="11.290674472245705"><ele>156.0</ele><time>2026-04-07T12:24:16Z</time></trkpt><trkpt lat="45.53644341975872" lon="11.290621947988154"><ele>156.0</ele><time>2026-04-07T12:24:17Z</time></trkpt><trkpt lat="45.53653084698127" lon="11.290620688024436"><ele>156.0</ele><time>2026-04-07T12:24:18Z</time></trkpt><trkpt lat="45.53661505269125" lon="11.290597592871508"><ele>156.0</ele><time>2026-04-07T12:24:19Z</time></trkpt><trkpt lat="45.53669329596401" lon="11.290605085364676"><ele>156.0</ele><time>2026-04-07T12:24:20Z</time></trkpt><trkpt lat="45.536775854649754" lon="11.290615262749853"><ele>156.0</ele><time>2026-04-07T12:24:21Z</time></trkpt><trkpt lat="45.53685195691332" lon="11.290636312083608"><ele>156.0</ele><time>2026-04-07T12:24:22Z</time></trkpt><trkpt lat="45.536931206258075" lon="11.29065851556245"><ele>156.0</ele><time>2026-04-07T12:24:23Z</time></trkpt><trkpt lat="45.536999884741235" lon="11.290677757341385"><ele>156.0</ele><time>2026-04-07T12:24:24Z</time></trkpt><trkpt lat="45.537093964435385" lon="11.290688920295734"><ele>156.0</ele><time>2026-04-07T12:24:26Z</time></trkpt><trkpt lat="45.53710692095802" lon="11.290871511503344"><ele>156.0</ele><time>2026-04-07T12:24:28.999Z</time></trkpt><trkpt lat="45.53708481867487" lon="11.290996686492743"><ele>156.0</ele><time>2026-04-07T12:24:29.999Z</time></trkpt><trkpt lat="45.537075122770666" lon="11.291136981844069"><ele>156.0</ele><time>2026-04-07T12:24:30.999Z</time></trkpt><trkpt lat="45.537047879592635" lon="11.291252416851002"><ele>156.0</ele><time>2026-04-07T12:24:31.999Z</time></trkpt><trkpt lat="45.537023594630405" lon="11.291353965202788"><ele>155.66666666666666</ele><time>2026-04-07T12:24:32.999Z</time></trkpt><trkpt lat="45.53699937364233" lon="11.291461095393725"><ele>155.33333333333334</ele><time>2026-04-07T12:24:33.999Z</time></trkpt><trkpt lat="45.53698166259192" lon="11.291581289470107"><ele>155.0</ele><time>2026-04-07T12:24:34.999Z</time></trkpt><trkpt lat="45.536955367614695" lon="11.291708958193777"><ele>154.66666666666669</ele><time>2026-04-07T12:24:35.999Z</time></trkpt><trkpt lat="45.53691268136288" lon="11.29184912086757"><ele>154.33333333333334</ele><time>2026-04-07T12:24:36.999Z</time></trkpt><trkpt lat="45.53689480340814" lon="11.291961937877792"><ele>154.0</ele><time>2026-04-07T12:24:37.999Z</time></trkpt><trkpt lat="45.53689799303225" lon="11.292127376923563"><ele>154.0</ele><time>2026-04-07T12:24:39.999Z</time></trkpt><trkpt lat="45.536903100154426" lon="11.29222924972082"><ele>154.0</ele><time>2026-04-07T12:24:40.999Z</time></trkpt><trkpt lat="45.53685748031168" lon="11.292324999034339"><ele>154.0</ele><time>2026-04-07T12:24:41.999Z</time></trkpt><trkpt lat="45.536957245649035" lon="11.292426709685317"><ele>154.0</ele><time>2026-04-07T12:24:43.999Z</time></trkpt><trkpt lat="45.53703600749636" lon="11.292426319683159"><ele>154.0</ele><time>2026-04-07T12:24:44.999Z</time></trkpt><trkpt lat="45.53711604174432" lon="11.292393871156365"><ele>154.0</ele><time>2026-04-07T12:24:45.999Z</time></trkpt><trkpt lat="45.537198099125035" lon="11.292362112448066"><ele>154.33333333333334</ele><time>2026-04-07T12:24:46.999Z</time></trkpt><trkpt lat="45.53728049996643" lon="11.292356792489993"><ele>154.66666666666669</ele><time>2026-04-07T12:24:47.999Z</time></trkpt><trkpt lat="45.53735794050033" lon="11.292351324399128"><ele>155.0</ele><time>2026-04-07T12:24:48.999Z</time></trkpt><trkpt lat="45.53743473117425" lon="11.292453945979863"><ele>155.33333333333334</ele><time>2026-04-07T12:24:49.999Z</time></trkpt><trkpt lat="45.53750111447656" lon="11.29251762485879"><ele>155.66666666666666</ele><time>2026-04-07T12:24:50.999Z</time></trkpt><trkpt lat="45.53756931581582" lon="11.2925774340619"><ele>156.0</ele><time>2026-04-07T12:24:51.999Z</time></trkpt><trkpt lat="45.53763991428831" lon="11.292644176119108"><ele>156.0</ele><time>2026-04-07T12:24:52.999Z</time></trkpt><trkpt lat="45.53770193457462" lon="11.2927125506274"><ele>156.0</ele><time>2026-04-07T12:24:53.999Z</time></trkpt><trkpt lat="45.53776736501851" lon="11.292780511914453"><ele>156.0</ele><time>2026-04-07T12:24:54.999Z</time></trkpt><trkpt lat="45.53782599406711" lon="11.292842757996706"><ele>156.0</ele><time>2026-04-07T12:24:55.999Z</time></trkpt><trkpt lat="45.537886106068306" lon="11.292906676124034"><ele>156.0</ele><time>2026-04-07T12:24:56.999Z</time></trkpt><trkpt lat="45.537936811856014" lon="11.29296004328611"><ele>156.0</ele><time>2026-04-07T12:24:57.999Z</time></trkpt><trkpt lat="45.53801887995896" lon="11.293039160081333"><ele>156.2</ele><time>2026-04-07T12:24:59.999Z</time></trkpt><trkpt lat="45.53810145704759" lon="11.293112175274814"><ele>156.39999999999998</ele><time>2026-04-07T12:25:06.999Z</time></trkpt><trkpt lat="45.5381999876059" lon="11.29297189329254"><ele>156.6</ele><time>2026-04-07T12:25:07.999Z</time></trkpt><trkpt lat="45.538254418895356" lon="11.292860539840296"><ele>156.79999999999998</ele><time>2026-04-07T12:25:08.999Z</time></trkpt><trkpt lat="45.53831229033574" lon="11.292730025319067"><ele>157.0</ele><time>2026-04-07T12:25:09.999Z</time></trkpt><trkpt lat="45.53838080976304" lon="11.292580481973314"><ele>157.0</ele><time>2026-04-07T12:25:10.999Z</time></trkpt><trkpt lat="45.53845688531783" lon="11.292418656046149"><ele>157.0</ele><time>2026-04-07T12:25:11.999Z</time></trkpt><trkpt lat="45.53854377412319" lon="11.292250393964183"><ele>157.0</ele><time>2026-04-07T12:25:12.999Z</time></trkpt><trkpt lat="45.53863590659694" lon="11.292074257549103"><ele>157.0</ele><time>2026-04-07T12:25:13.999Z</time></trkpt><trkpt lat="45.53873274139586" lon="11.29189285118506"><ele>157.33333333333334</ele><time>2026-04-07T12:25:14.999Z</time></trkpt><trkpt lat="45.538832087399655" lon="11.291709655534516"><ele>157.66666666666666</ele><time>2026-04-07T12:25:15.998Z</time></trkpt><trkpt lat="45.53892946251764" lon="11.29153052553952"><ele>158.0</ele><time>2026-04-07T12:25:16.998Z</time></trkpt><trkpt lat="45.53901689256552" lon="11.291338435536174"><ele>158.33333333333331</ele><time>2026-04-07T12:25:17.998Z</time></trkpt><trkpt lat="45.53911942596227" lon="11.291156707769305"><ele>158.66666666666666</ele><time>2026-04-07T12:25:18.998Z</time></trkpt><trkpt lat="45.53922035017385" lon="11.290982280810757"><ele>159.0</ele><time>2026-04-07T12:25:19.998Z</time></trkpt><trkpt lat="45.5393156120728" lon="11.290802054323262"><ele>159.0</ele><time>2026-04-07T12:25:20.998Z</time></trkpt><trkpt lat="45.53941140312173" lon="11.29062451506587"><ele>159.0</ele><time>2026-04-07T12:25:21.998Z</time></trkpt><trkpt lat="45.539505140376995" lon="11.290450498118318"><ele>159.0</ele><time>2026-04-07T12:25:22.998Z</time></trkpt><trkpt lat="45.53960461502007" lon="11.29027096346138"><ele>159.66666666666666</ele><time>2026-04-07T12:25:23.998Z</time></trkpt><trkpt lat="45.53970040342888" lon="11.290094369387468"><ele>160.33333333333331</ele><time>2026-04-07T12:25:24.998Z</time></trkpt><trkpt lat="45.53980226394285" lon="11.289905609808896"><ele>161.0</ele><time>2026-04-07T12:25:25.998Z</time></trkpt><trkpt lat="45.53990154560301" lon="11.289720774709549"><ele>161.0</ele><time>2026-04-07T12:25:26.998Z</time></trkpt><trkpt lat="45.539997703798804" lon="11.289543309897908"><ele>161.0</ele><time>2026-04-07T12:25:27.998Z</time></trkpt><trkpt lat="45.54008905379759" lon="11.289368258470414"><ele>161.0</ele><time>2026-04-07T12:25:28.998Z</time></trkpt><trkpt lat="45.54018108815271" lon="11.289191485125356"><ele>161.0</ele><time>2026-04-07T12:25:29.998Z</time></trkpt><trkpt lat="45.54026563851888" lon="11.289036869906678"><ele>161.0</ele><time>2026-04-07T12:25:30.998Z</time></trkpt><trkpt lat="45.54034345181971" lon="11.28890707010044"><ele>161.0</ele><time>2026-04-07T12:25:31.998Z</time></trkpt><trkpt lat="45.54041369391826" lon="11.288788025982086"><ele>161.0</ele><time>2026-04-07T12:25:32.998Z</time></trkpt><trkpt lat="45.54048709870526" lon="11.288661643744682"><ele>161.25</ele><time>2026-04-07T12:25:33.998Z</time></trkpt><trkpt lat="45.54056729636546" lon="11.288515268168549"><ele>161.5</ele><time>2026-04-07T12:25:34.998Z</time></trkpt><trkpt lat="45.5406480929801" lon="11.288349735227506"><ele>161.75</ele><time>2026-04-07T12:25:35.998Z</time></trkpt><trkpt lat="45.540724829929545" lon="11.288186334765841"><ele>162.0</ele><time>2026-04-07T12:25:36.998Z</time></trkpt><trkpt lat="45.540816239765235" lon="11.288048514709871"><ele>162.0</ele><time>2026-04-07T12:25:37.998Z</time></trkpt><trkpt lat="45.54089448893097" lon="11.287901777199217"><ele>162.0</ele><time>2026-04-07T12:25:38.998Z</time></trkpt><trkpt lat="45.540969911476324" lon="11.28776034040279"><ele>162.0</ele><time>2026-04-07T12:25:39.998Z</time></trkpt><trkpt lat="45.54104150619404" lon="11.287626081674988"><ele>162.0</ele><time>2026-04-07T12:25:40.998Z</time></trkpt><trkpt lat="45.54110841462285" lon="11.287500611112852"><ele>162.0</ele><time>2026-04-07T12:25:41.998Z</time></trkpt><trkpt lat="45.54116913087487" lon="11.287386059063865"><ele>162.0</ele><time>2026-04-07T12:25:42.998Z</time></trkpt><trkpt lat="45.54122154644333" lon="11.2872862916159"><ele>162.0</ele><time>2026-04-07T12:25:43.998Z</time></trkpt><trkpt lat="45.54125511395286" lon="11.287199964503829"><ele>162.0</ele><time>2026-04-07T12:25:44.998Z</time></trkpt><trkpt lat="45.54131082971523" lon="11.287088485330894"><ele>162.0</ele><time>2026-04-07T12:25:46.998Z</time></trkpt><trkpt lat="45.541353868610024" lon="11.287012163975092"><ele>162.0</ele><time>2026-04-07T12:25:47.998Z</time></trkpt><trkpt lat="45.54140214300268" lon="11.286931632845764"><ele>162.33333333333334</ele><time>2026-04-07T12:25:48.998Z</time></trkpt><trkpt lat="45.54146898535338" lon="11.286829585443474"><ele>162.66666666666666</ele><time>2026-04-07T12:25:50.998Z</time></trkpt><trkpt lat="45.54151479292488" lon="11.2867587352967"><ele>163.0</ele><time>2026-04-07T12:25:54Z</time></trkpt><trkpt lat="45.541556912803024" lon="11.286690887483857"><ele>163.33333333333331</ele><time>2026-04-07T12:25:56Z</time></trkpt><trkpt lat="45.541624776400475" lon="11.286593983185835"><ele>163.66666666666666</ele><time>2026-04-07T12:25:58Z</time></trkpt><trkpt lat="45.541689140567215" lon="11.286540289694202"><ele>164.0</ele><time>2026-04-07T12:25:59Z</time></trkpt><trkpt lat="45.54177801696139" lon="11.286425807332632"><ele>164.0</ele><time>2026-04-07T12:26:01Z</time></trkpt><trkpt lat="45.54182625970925" lon="11.286339474743292"><ele>164.0</ele><time>2026-04-07T12:26:03Z</time></trkpt><trkpt lat="45.541876585445706" lon="11.286277709772564"><ele>164.0</ele><time>2026-04-07T12:26:05Z</time></trkpt><trkpt lat="45.54193921002015" lon="11.286194114419613"><ele>164.0</ele><time>2026-04-07T12:26:07Z</time></trkpt><trkpt lat="45.54203468404734" lon="11.286085612541383"><ele>164.0</ele><time>2026-04-07T12:26:09Z</time></trkpt><trkpt lat="45.54208233308411" lon="11.286026233196186"><ele>164.0</ele><time>2026-04-07T12:26:10Z</time></trkpt><trkpt lat="45.542129369571036" lon="11.285966255441618"><ele>164.0</ele><time>2026-04-07T12:26:11Z</time></trkpt><trkpt lat="45.542179099262185" lon="11.285906146864338"><ele>164.0</ele><time>2026-04-07T12:26:12Z</time></trkpt><trkpt lat="45.542226278662945" lon="11.285844835566722"><ele>164.0</ele><time>2026-04-07T12:26:13Z</time></trkpt><trkpt lat="45.54232062858821" lon="11.2857250337578"><ele>164.0</ele><time>2026-04-07T12:26:15Z</time></trkpt><trkpt lat="45.54236718384169" lon="11.285659186260293"><ele>164.0</ele><time>2026-04-07T12:26:16Z</time></trkpt><trkpt lat="45.54245708951613" lon="11.285531789040505"><ele>164.0</ele><time>2026-04-07T12:26:18Z</time></trkpt><trkpt lat="45.54250459742094" lon="11.285466046931502"><ele>164.16666666666666</ele><time>2026-04-07T12:26:19Z</time></trkpt><trkpt lat="45.54255219733685" lon="11.285400614197439"><ele>164.33333333333331</ele><time>2026-04-07T12:26:20Z</time></trkpt><trkpt lat="45.54259990113682" lon="11.285338309478682"><ele>164.5</ele><time>2026-04-07T12:26:21Z</time></trkpt><trkpt lat="45.542672636548865" lon="11.285240113625473"><ele>164.66666666666666</ele><time>2026-04-07T12:26:23Z</time></trkpt><trkpt lat="45.5427406356081" lon="11.285188766320728"><ele>164.83333333333334</ele><time>2026-04-07T12:26:25.999Z</time></trkpt><trkpt lat="45.542814969127825" lon="11.28514599505545"><ele>165.0</ele><time>2026-04-07T12:26:28.999Z</time></trkpt><trkpt lat="45.54284083133322" lon="11.285060281480968"><ele>165.0</ele><time>2026-04-07T12:26:39.999Z</time></trkpt><trkpt lat="45.5428941716558" lon="11.284974424328363"><ele>165.0</ele><time>2026-04-07T12:26:40.999Z</time></trkpt><trkpt lat="45.542978937316626" lon="11.284858919437623"><ele>165.0</ele><time>2026-04-07T12:26:41.999Z</time></trkpt><trkpt lat="45.54308297097769" lon="11.284713118616162"><ele>165.0</ele><time>2026-04-07T12:26:42.999Z</time></trkpt><trkpt lat="45.543197602964035" lon="11.284562765682983"><ele>165.0</ele><time>2026-04-07T12:26:43.999Z</time></trkpt><trkpt lat="45.543320774008805" lon="11.28439810975069"><ele>165.0</ele><time>2026-04-07T12:26:44.999Z</time></trkpt><trkpt lat="45.54345261982048" lon="11.284216916452538"><ele>165.0</ele><time>2026-04-07T12:26:45.999Z</time></trkpt><trkpt lat="45.54358597581366" lon="11.28402420788733"><ele>165.33333333333334</ele><time>2026-04-07T12:26:46.999Z</time></trkpt><trkpt lat="45.54372279289834" lon="11.283843710242506"><ele>165.66666666666669</ele><time>2026-04-07T12:26:47.999Z</time></trkpt><trkpt lat="45.543868957538145" lon="11.283651635985905"><ele>166.0</ele><time>2026-04-07T12:26:48.999Z</time></trkpt><trkpt lat="45.54401601031065" lon="11.283459626426792"><ele>166.0</ele><time>2026-04-07T12:26:49.999Z</time></trkpt><trkpt lat="45.54416197036415" lon="11.28326640817409"><ele>166.0</ele><time>2026-04-07T12:26:50.999Z</time></trkpt><trkpt lat="45.544306237080896" lon="11.283077329175038"><ele>166.0</ele><time>2026-04-07T12:26:51.999Z</time></trkpt><trkpt lat="45.54445169588688" lon="11.282887153957057"><ele>167.0</ele><time>2026-04-07T12:26:52.999Z</time></trkpt><trkpt lat="45.54459556258049" lon="11.28270555626635"><ele>168.0</ele><time>2026-04-07T12:26:53.999Z</time></trkpt><trkpt lat="45.544734767232775" lon="11.282521228065425"><ele>169.0</ele><time>2026-04-07T12:26:54.999Z</time></trkpt><trkpt lat="45.54487398592194" lon="11.282330811775749"><ele>169.66666666666669</ele><time>2026-04-07T12:26:55.999Z</time></trkpt><trkpt lat="45.5450045801907" lon="11.282154402828942"><ele>170.33333333333334</ele><time>2026-04-07T12:26:56.999Z</time></trkpt><trkpt lat="45.54513716212168" lon="11.281968161722864"><ele>171.0</ele><time>2026-04-07T12:26:57.999Z</time></trkpt><trkpt lat="45.54526677715571" lon="11.281788876034488"><ele>171.0</ele><time>2026-04-07T12:26:58.999Z</time></trkpt><trkpt lat="45.54539845480112" lon="11.281612048842474"><ele>171.0</ele><time>2026-04-07T12:26:59.999Z</time></trkpt><trkpt lat="45.545534191969224" lon="11.281443551208893"><ele>171.0</ele><time>2026-04-07T12:27:00.999Z</time></trkpt><trkpt lat="45.5456721564303" lon="11.281281243885193"><ele>171.0</ele><time>2026-04-07T12:27:01.999Z</time></trkpt><trkpt lat="45.54580258215985" lon="11.281096358468213"><ele>171.0</ele><time>2026-04-07T12:27:02.999Z</time></trkpt><trkpt lat="45.54592539402862" lon="11.280910235987276"><ele>171.0</ele><time>2026-04-07T12:27:03.999Z</time></trkpt><trkpt lat="45.546057234913256" lon="11.28072480833311"><ele>171.66666666666666</ele><time>2026-04-07T12:27:04.999Z</time></trkpt><trkpt lat="45.54619236612781" lon="11.280529722948435"><ele>172.33333333333331</ele><time>2026-04-07T12:27:05.999Z</time></trkpt><trkpt lat="45.54632222981553" lon="11.28034731015946"><ele>173.0</ele><time>2026-04-07T12:27:06.999Z</time></trkpt><trkpt lat="45.54646200216648" lon="11.280163746285728"><ele>173.0</ele><time>2026-04-07T12:27:07.999Z</time></trkpt><trkpt lat="45.54660488355301" lon="11.279990720420953"><ele>173.0</ele><time>2026-04-07T12:27:08.999Z</time></trkpt><trkpt lat="45.54675968526352" lon="11.279842382703544"><ele>173.0</ele><time>2026-04-07T12:27:09.999Z</time></trkpt><trkpt lat="45.5469159586794" lon="11.279680907968876"><ele>173.66666666666666</ele><time>2026-04-07T12:27:10.999Z</time></trkpt><trkpt lat="45.54707184267413" lon="11.279513603900076"><ele>174.33333333333334</ele><time>2026-04-07T12:27:11.999Z</time></trkpt><trkpt lat="45.54722116066264" lon="11.27933708124951"><ele>175.0</ele><time>2026-04-07T12:27:12.999Z</time></trkpt><trkpt lat="45.547367968840355" lon="11.279157191067876"><ele>175.0</ele><time>2026-04-07T12:27:13.999Z</time></trkpt><trkpt lat="45.547519582016825" lon="11.278987503216456"><ele>175.0</ele><time>2026-04-07T12:27:14.999Z</time></trkpt><trkpt lat="45.54768474937776" lon="11.278813510771037"><ele>175.0</ele><time>2026-04-07T12:27:15.999Z</time></trkpt><trkpt lat="45.5478443004067" lon="11.278640949058582"><ele>175.0</ele><time>2026-04-07T12:27:16.999Z</time></trkpt><trkpt lat="45.548003098562916" lon="11.278463002991607"><ele>175.0</ele><time>2026-04-07T12:27:17.999Z</time></trkpt><trkpt lat="45.548165108280884" lon="11.278280693621724"><ele>175.0</ele><time>2026-04-07T12:27:18.999Z</time></trkpt><trkpt lat="45.54832040954083" lon="11.278120291462276"><ele>175.0</ele><time>2026-04-07T12:27:19.998Z</time></trkpt><trkpt lat="45.54847297534204" lon="11.277962307760866"><ele>175.0</ele><time>2026-04-07T12:27:20.998Z</time></trkpt><trkpt lat="45.54861955315018" lon="11.277808661138252"><ele>175.0</ele><time>2026-04-07T12:27:21.998Z</time></trkpt><trkpt lat="45.54876741336939" lon="11.277656308770426"><ele>175.0</ele><time>2026-04-07T12:27:22.998Z</time></trkpt><trkpt lat="45.548922677538805" lon="11.277517276226149"><ele>175.0</ele><time>2026-04-07T12:27:23.998Z</time></trkpt><trkpt lat="45.54907165603871" lon="11.277384123021506"><ele>175.0</ele><time>2026-04-07T12:27:24.998Z</time></trkpt><trkpt lat="45.549214824419664" lon="11.277259046155857"><ele>175.75</ele><time>2026-04-07T12:27:25.998Z</time></trkpt><trkpt lat="45.54934739894466" lon="11.277148914858872"><ele>176.5</ele><time>2026-04-07T12:27:26.998Z</time></trkpt><trkpt lat="45.54947269185696" lon="11.277051705424677"><ele>177.25</ele><time>2026-04-07T12:27:27.998Z</time></trkpt><trkpt lat="45.54958155589398" lon="11.276955518768515"><ele>178.0</ele><time>2026-04-07T12:27:28.998Z</time></trkpt><trkpt lat="45.54967696042633" lon="11.276872174023632"><ele>178.0</ele><time>2026-04-07T12:27:29.998Z</time></trkpt><trkpt lat="45.54975911529999" lon="11.276815743482105"><ele>178.0</ele><time>2026-04-07T12:27:30.998Z</time></trkpt><trkpt lat="45.54982223800886" lon="11.276769197224159"><ele>178.0</ele><time>2026-04-07T12:27:31.998Z</time></trkpt><trkpt lat="45.549893883417056" lon="11.276719062546057"><ele>178.0</ele><time>2026-04-07T12:27:32.998Z</time></trkpt><trkpt lat="45.54998826410478" lon="11.276639528768834"><ele>178.0</ele><time>2026-04-07T12:27:34.998Z</time></trkpt><trkpt lat="45.550045920141" lon="11.276576037395781"><ele>178.0</ele><time>2026-04-07T12:27:37.998Z</time></trkpt><trkpt lat="45.55014222752897" lon="11.276501437646543"><ele>178.25</ele><time>2026-04-07T12:27:38.998Z</time></trkpt><trkpt lat="45.55024903813543" lon="11.276406928403002"><ele>178.5</ele><time>2026-04-07T12:27:39.998Z</time></trkpt><trkpt lat="45.55037742713801" lon="11.276282449943137"><ele>178.75</ele><time>2026-04-07T12:27:40.998Z</time></trkpt><trkpt lat="45.550516019783295" lon="11.276152437370769"><ele>179.0</ele><time>2026-04-07T12:27:41.998Z</time></trkpt><trkpt lat="45.550678753474614" lon="11.275994964878715"><ele>180.0</ele><time>2026-04-07T12:27:42.998Z</time></trkpt><trkpt lat="45.55086129157784" lon="11.275819838414042"><ele>181.0</ele><time>2026-04-07T12:27:43.998Z</time></trkpt><trkpt lat="45.551054193576825" lon="11.275651381907867"><ele>182.0</ele><time>2026-04-07T12:27:44.998Z</time></trkpt><trkpt lat="45.55125304500147" lon="11.275481064094038"><ele>182.0</ele><time>2026-04-07T12:27:45.998Z</time></trkpt><trkpt lat="45.551461412921086" lon="11.275298573355116"><ele>182.0</ele><time>2026-04-07T12:27:46.998Z</time></trkpt><trkpt lat="45.55168041690827" lon="11.27510554018624"><ele>182.0</ele><time>2026-04-07T12:27:47.998Z</time></trkpt><trkpt lat="45.551884597625794" lon="11.274924563366051"><ele>182.0</ele><time>2026-04-07T12:27:48.998Z</time></trkpt><trkpt lat="45.55209192120795" lon="11.27474196787281"><ele>182.5</ele><time>2026-04-07T12:27:49.998Z</time></trkpt><trkpt lat="45.55230051346236" lon="11.274556228130981"><ele>183.0</ele><time>2026-04-07T12:27:50.998Z</time></trkpt><trkpt lat="45.55250723021587" lon="11.27437735247529"><ele>183.0</ele><time>2026-04-07T12:27:51.998Z</time></trkpt><trkpt lat="45.55271933157301" lon="11.274195390765742"><ele>183.0</ele><time>2026-04-07T12:27:52.998Z</time></trkpt><trkpt lat="45.55291649815344" lon="11.274021538192178"><ele>183.0</ele><time>2026-04-07T12:27:53.998Z</time></trkpt><trkpt lat="45.553125927242796" lon="11.273835871955507"><ele>183.0</ele><time>2026-04-07T12:27:54.998Z</time></trkpt><trkpt lat="45.5533279185548" lon="11.27366263287287"><ele>183.0</ele><time>2026-04-07T12:27:55.998Z</time></trkpt><trkpt lat="45.55353215736811" lon="11.273490658552095"><ele>183.0</ele><time>2026-04-07T12:27:56.998Z</time></trkpt><trkpt lat="45.55373684055923" lon="11.273328888248814"><ele>184.0</ele><time>2026-04-07T12:27:57.998Z</time></trkpt><trkpt lat="45.5539389216484" lon="11.273164703765163"><ele>185.0</ele><time>2026-04-07T12:27:58.998Z</time></trkpt><trkpt lat="45.55414052807079" lon="11.273004312467434"><ele>185.0</ele><time>2026-04-07T12:28:00Z</time></trkpt><trkpt lat="45.554333060810784" lon="11.272853968125238"><ele>185.0</ele><time>2026-04-07T12:28:01Z</time></trkpt><trkpt lat="45.55451448538431" lon="11.272707204307999"><ele>185.0</ele><time>2026-04-07T12:28:02Z</time></trkpt><trkpt lat="45.55468274037686" lon="11.272567763864444"><ele>185.66666666666666</ele><time>2026-04-07T12:28:03Z</time></trkpt><trkpt lat="45.55484052499796" lon="11.272441212993893"><ele>186.33333333333334</ele><time>2026-04-07T12:28:04Z</time></trkpt><trkpt lat="45.55499220119234" lon="11.27228806220722"><ele>187.0</ele><time>2026-04-07T12:28:05Z</time></trkpt><trkpt lat="45.55513838981195" lon="11.272097790972852"><ele>187.0</ele><time>2026-04-07T12:28:06Z</time></trkpt><trkpt lat="45.555270330612196" lon="11.271881286283842"><ele>187.0</ele><time>2026-04-07T12:28:07Z</time></trkpt><trkpt lat="45.55539843271378" lon="11.271678800840593"><ele>187.0</ele><time>2026-04-07T12:28:08Z</time></trkpt><trkpt lat="45.55553934270214" lon="11.271493586752781"><ele>188.33333333333334</ele><time>2026-04-07T12:28:09Z</time></trkpt><trkpt lat="45.55569964328341" lon="11.271340152934654"><ele>189.66666666666666</ele><time>2026-04-07T12:28:10Z</time></trkpt><trkpt lat="45.55586451708083" lon="11.271228899832433"><ele>191.0</ele><time>2026-04-07T12:28:11Z</time></trkpt><trkpt lat="45.556046375120815" lon="11.271189571851261"><ele>191.0</ele><time>2026-04-07T12:28:12Z</time></trkpt><trkpt lat="45.55623898568858" lon="11.27115045674117"><ele>191.0</ele><time>2026-04-07T12:28:13Z</time></trkpt><trkpt lat="45.55643975563624" lon="11.271108023873705"><ele>191.0</ele><time>2026-04-07T12:28:14Z</time></trkpt><trkpt lat="45.55665006448709" lon="11.271117732313096"><ele>191.0</ele><time>2026-04-07T12:28:15Z</time></trkpt><trkpt lat="45.55686933658835" lon="11.271132865002311"><ele>191.0</ele><time>2026-04-07T12:28:16Z</time></trkpt><trkpt lat="45.5570843042842" lon="11.271143732192124"><ele>191.0</ele><time>2026-04-07T12:28:17Z</time></trkpt><trkpt lat="45.557287474726536" lon="11.271152582339145"><ele>191.33333333333331</ele><time>2026-04-07T12:28:18Z</time></trkpt><trkpt lat="45.557493774430064" lon="11.271139829275533"><ele>191.66666666666666</ele><time>2026-04-07T12:28:19Z</time></trkpt><trkpt lat="45.55769773741422" lon="11.271094567933774"><ele>192.0</ele><time>2026-04-07T12:28:20Z</time></trkpt><trkpt lat="45.55788953356593" lon="11.27099503205041"><ele>192.0</ele><time>2026-04-07T12:28:21Z</time></trkpt><trkpt lat="45.55807723686103" lon="11.270840433900242"><ele>192.0</ele><time>2026-04-07T12:28:22Z</time></trkpt><trkpt lat="45.55825237424637" lon="11.27067341842641"><ele>192.0</ele><time>2026-04-07T12:28:23Z</time></trkpt><trkpt lat="45.55843917127745" lon="11.270519290327313"><ele>194.33333333333331</ele><time>2026-04-07T12:28:24Z</time></trkpt><trkpt lat="45.5586265575672" lon="11.270377546350515"><ele>196.66666666666666</ele><time>2026-04-07T12:28:25Z</time></trkpt><trkpt lat="45.55881996068047" lon="11.27022558368663"><ele>199.0</ele><time>2026-04-07T12:28:26Z</time></trkpt><trkpt lat="45.55900681851763" lon="11.2700712459196"><ele>199.0</ele><time>2026-04-07T12:28:27Z</time></trkpt><trkpt lat="45.55920642108179" lon="11.269929191529148"><ele>199.0</ele><time>2026-04-07T12:28:28Z</time></trkpt><trkpt lat="45.55939946808814" lon="11.269775327520959"><ele>199.0</ele><time>2026-04-07T12:28:28.999Z</time></trkpt><trkpt lat="45.55959046875145" lon="11.269625477811537"><ele>200.33333333333331</ele><time>2026-04-07T12:28:29.999Z</time></trkpt><trkpt lat="45.55977581179854" lon="11.269485751278891"><ele>201.66666666666669</ele><time>2026-04-07T12:28:30.999Z</time></trkpt><trkpt lat="45.559954248563535" lon="11.269381362659562"><ele>203.0</ele><time>2026-04-07T12:28:31.999Z</time></trkpt><trkpt lat="45.56012215760258" lon="11.269297395435606"><ele>203.0</ele><time>2026-04-07T12:28:32.999Z</time></trkpt><trkpt lat="45.560269276492136" lon="11.269223892525197"><ele>203.0</ele><time>2026-04-07T12:28:33.999Z</time></trkpt><trkpt lat="45.56038983169465" lon="11.26914172421332"><ele>203.0</ele><time>2026-04-07T12:28:34.999Z</time></trkpt><trkpt lat="45.56050615201786" lon="11.269092973981248"><ele>203.0</ele><time>2026-04-07T12:28:35.999Z</time></trkpt><trkpt lat="45.560609359729035" lon="11.269037706403829"><ele>203.0</ele><time>2026-04-07T12:28:36.999Z</time></trkpt><trkpt lat="45.5607158806243" lon="11.268986234336898"><ele>203.0</ele><time>2026-04-07T12:28:37.999Z</time></trkpt><trkpt lat="45.56082868568931" lon="11.268923732388494"><ele>203.0</ele><time>2026-04-07T12:28:38.999Z</time></trkpt><trkpt lat="45.560946005634506" lon="11.268841122193905"><ele>203.0</ele><time>2026-04-07T12:28:39.999Z</time></trkpt><trkpt lat="45.56106105585057" lon="11.268746483777585"><ele>202.5</ele><time>2026-04-07T12:28:40.999Z</time></trkpt><trkpt lat="45.56117434175242" lon="11.268651336639682"><ele>202.0</ele><time>2026-04-07T12:28:41.999Z</time></trkpt><trkpt lat="45.56127973948986" lon="11.268539026949728"><ele>201.5</ele><time>2026-04-07T12:28:42.999Z</time></trkpt><trkpt lat="45.56137528712394" lon="11.268413281050693"><ele>201.0</ele><time>2026-04-07T12:28:43.999Z</time></trkpt><trkpt lat="45.561465694846554" lon="11.26827963412585"><ele>201.0</ele><time>2026-04-07T12:28:44.999Z</time></trkpt><trkpt lat="45.56155727855334" lon="11.268145668475775"><ele>201.0</ele><time>2026-04-07T12:28:45.999Z</time></trkpt><trkpt lat="45.56164968110217" lon="11.26801224749427"><ele>201.0</ele><time>2026-04-07T12:28:46.999Z</time></trkpt><trkpt lat="45.56174165770652" lon="11.267883021014132"><ele>201.0</ele><time>2026-04-07T12:28:47.999Z</time></trkpt><trkpt lat="45.56182329429016" lon="11.267768272653827"><ele>201.0</ele><time>2026-04-07T12:28:48.999Z</time></trkpt><trkpt lat="45.56189583442643" lon="11.26766764391329"><ele>201.0</ele><time>2026-04-07T12:28:49.999Z</time></trkpt><trkpt lat="45.561970554439824" lon="11.267565819529871"><ele>201.0</ele><time>2026-04-07T12:28:50.999Z</time></trkpt><trkpt lat="45.562050227346504" lon="11.267464132517713"><ele>201.0</ele><time>2026-04-07T12:28:51.999Z</time></trkpt><trkpt lat="45.562140753639326" lon="11.267369819266131"><ele>201.0</ele><time>2026-04-07T12:28:52.999Z</time></trkpt><trkpt lat="45.56224465814112" lon="11.26729377845851"><ele>201.75</ele><time>2026-04-07T12:28:53.999Z</time></trkpt><trkpt lat="45.56235421824112" lon="11.267242402250302"><ele>202.5</ele><time>2026-04-07T12:28:54.999Z</time></trkpt><trkpt lat="45.56246610957844" lon="11.267205865375704"><ele>203.25</ele><time>2026-04-07T12:28:55.999Z</time></trkpt><trkpt lat="45.562591500795016" lon="11.267192898555539"><ele>204.0</ele><time>2026-04-07T12:28:56.999Z</time></trkpt><trkpt lat="45.56270996762068" lon="11.267183897714025"><ele>204.0</ele><time>2026-04-07T12:28:57.999Z</time></trkpt><trkpt lat="45.56281523357661" lon="11.267170089702576"><ele>204.0</ele><time>2026-04-07T12:28:58.999Z</time></trkpt><trkpt lat="45.562924079621084" lon="11.267153653664815"><ele>204.0</ele><time>2026-04-07T12:28:59.999Z</time></trkpt><trkpt lat="45.56304301808509" lon="11.267135211938491"><ele>204.0</ele><time>2026-04-07T12:29:00.999Z</time></trkpt><trkpt lat="45.563159793849316" lon="11.267119781521437"><ele>204.0</ele><time>2026-04-07T12:29:01.999Z</time></trkpt><trkpt lat="45.56327885497976" lon="11.267107498602115"><ele>204.0</ele><time>2026-04-07T12:29:02.999Z</time></trkpt><trkpt lat="45.56339399695631" lon="11.26709122473819"><ele>204.0</ele><time>2026-04-07T12:29:03.999Z</time></trkpt><trkpt lat="45.56351129983818" lon="11.267067695195967"><ele>204.0</ele><time>2026-04-07T12:29:04.999Z</time></trkpt><trkpt lat="45.56363548906957" lon="11.26703804981947"><ele>204.33333333333331</ele><time>2026-04-07T12:29:05.999Z</time></trkpt><trkpt lat="45.56377019164502" lon="11.266984329188837"><ele>204.66666666666666</ele><time>2026-04-07T12:29:06.999Z</time></trkpt><trkpt lat="45.56392809960667" lon="11.266900190091262"><ele>205.0</ele><time>2026-04-07T12:29:07.999Z</time></trkpt><trkpt lat="45.56410707006378" lon="11.266803654013346"><ele>205.0</ele><time>2026-04-07T12:29:08.999Z</time></trkpt><trkpt lat="45.56427351984853" lon="11.266715841454413"><ele>205.0</ele><time>2026-04-07T12:29:09.999Z</time></trkpt><trkpt lat="45.56442780590701" lon="11.266631226663334"><ele>205.0</ele><time>2026-04-07T12:29:10.999Z</time></trkpt><trkpt lat="45.56457117322586" lon="11.266544672287864"><ele>205.33333333333331</ele><time>2026-04-07T12:29:11.999Z</time></trkpt><trkpt lat="45.564703413676654" lon="11.266470549641085"><ele>205.66666666666669</ele><time>2026-04-07T12:29:12.999Z</time></trkpt><trkpt lat="45.564836540575214" lon="11.266403515926145"><ele>206.0</ele><time>2026-04-07T12:29:13.999Z</time></trkpt><trkpt lat="45.56500114637446" lon="11.266317733318932"><ele>206.0</ele><time>2026-04-07T12:29:14.999Z</time></trkpt><trkpt lat="45.56519865253341" lon="11.26621771042849"><ele>206.0</ele><time>2026-04-07T12:29:15.999Z</time></trkpt><trkpt lat="45.56541557298061" lon="11.266132958850966"><ele>206.0</ele><time>2026-04-07T12:29:16.999Z</time></trkpt><trkpt lat="45.56565796979438" lon="11.266042884887712"><ele>206.0</ele><time>2026-04-07T12:29:17.999Z</time></trkpt><trkpt lat="45.56589000250241" lon="11.265932983839889"><ele>206.0</ele><time>2026-04-07T12:29:18.999Z</time></trkpt><trkpt lat="45.56610763222053" lon="11.265822948448452"><ele>206.0</ele><time>2026-04-07T12:29:19.999Z</time></trkpt><trkpt lat="45.56630297239875" lon="11.26571999614396"><ele>206.0</ele><time>2026-04-07T12:29:20.999Z</time></trkpt><trkpt lat="45.56648919391439" lon="11.265624377429702"><ele>206.0</ele><time>2026-04-07T12:29:21.999Z</time></trkpt><trkpt lat="45.5666655732052" lon="11.265530767336756"><ele>207.33333333333334</ele><time>2026-04-07T12:29:22.999Z</time></trkpt><trkpt lat="45.56682814490189" lon="11.26544161285073"><ele>208.66666666666669</ele><time>2026-04-07T12:29:23.999Z</time></trkpt><trkpt lat="45.566979261974105" lon="11.265359847980116"><ele>210.0</ele><time>2026-04-07T12:29:24.999Z</time></trkpt><trkpt lat="45.56711721407496" lon="11.265288612954386"><ele>210.25</ele><time>2026-04-07T12:29:25.999Z</time></trkpt><trkpt lat="45.56724613939837" lon="11.265215342882376"><ele>210.5</ele><time>2026-04-07T12:29:26.999Z</time></trkpt><trkpt lat="45.56736978928704" lon="11.265149070473038"><ele>210.75</ele><time>2026-04-07T12:29:27.998Z</time></trkpt><trkpt lat="45.567500534249014" lon="11.265068065778847"><ele>211.0</ele><time>2026-04-07T12:29:28.998Z</time></trkpt><trkpt lat="45.56764534024164" lon="11.264964516190782"><ele>211.0</ele><time>2026-04-07T12:29:29.998Z</time></trkpt><trkpt lat="45.56778748456407" lon="11.264859027199526"><ele>211.0</ele><time>2026-04-07T12:29:30.998Z</time></trkpt><trkpt lat="45.56791780905288" lon="11.264754954708689"><ele>211.0</ele><time>2026-04-07T12:29:31.998Z</time></trkpt><trkpt lat="45.56802881250134" lon="11.26465180477256"><ele>211.0</ele><time>2026-04-07T12:29:32.998Z</time></trkpt><trkpt lat="45.56813329325212" lon="11.26455442914479"><ele>211.75</ele><time>2026-04-07T12:29:33.998Z</time></trkpt><trkpt lat="45.56823568562352" lon="11.264459163688956"><ele>212.5</ele><time>2026-04-07T12:29:34.998Z</time></trkpt><trkpt lat="45.56834838885673" lon="11.264355005908639"><ele>213.25</ele><time>2026-04-07T12:29:35.998Z</time></trkpt><trkpt lat="45.56846412101229" lon="11.264253653126092"><ele>214.0</ele><time>2026-04-07T12:29:36.998Z</time></trkpt><trkpt lat="45.568583037825604" lon="11.26413717403455"><ele>214.25</ele><time>2026-04-07T12:29:37.998Z</time></trkpt><trkpt lat="45.56870211780877" lon="11.264042082930276"><ele>214.5</ele><time>2026-04-07T12:29:38.998Z</time></trkpt><trkpt lat="45.56881966773181" lon="11.263943082548485"><ele>214.75</ele><time>2026-04-07T12:29:39.998Z</time></trkpt><trkpt lat="45.56893596316743" lon="11.263850995796691"><ele>215.0</ele><time>2026-04-07T12:29:40.998Z</time></trkpt><trkpt lat="45.5690493536681" lon="11.263759703554221"><ele>216.0</ele><time>2026-04-07T12:29:41.998Z</time></trkpt><trkpt lat="45.56918225752284" lon="11.263656059618695"><ele>217.0</ele><time>2026-04-07T12:29:42.998Z</time></trkpt><trkpt lat="45.56935498397655" lon="11.263502355982427"><ele>218.0</ele><time>2026-04-07T12:29:43.998Z</time></trkpt><trkpt lat="45.569584662661875" lon="11.263376998062444"><ele>218.0</ele><time>2026-04-07T12:29:44.998Z</time></trkpt><trkpt lat="45.56981588080989" lon="11.26320474323538"><ele>218.0</ele><time>2026-04-07T12:29:45.998Z</time></trkpt><trkpt lat="45.57006805588264" lon="11.263027680517393"><ele>221.5</ele><time>2026-04-07T12:29:46.998Z</time></trkpt><trkpt lat="45.570343182073636" lon="11.262877657968774"><ele>225.0</ele><time>2026-04-07T12:29:47.998Z</time></trkpt><trkpt lat="45.57061819564425" lon="11.26273070972263"><ele>225.0</ele><time>2026-04-07T12:29:48.998Z</time></trkpt><trkpt lat="45.570859664352774" lon="11.262602740228836"><ele>225.0</ele><time>2026-04-07T12:29:49.998Z</time></trkpt><trkpt lat="45.57107953965184" lon="11.262484493757063"><ele>223.66666666666669</ele><time>2026-04-07T12:29:50.998Z</time></trkpt><trkpt lat="45.57128700225815" lon="11.262371732441853"><ele>222.33333333333334</ele><time>2026-04-07T12:29:51.998Z</time></trkpt><trkpt lat="45.57147682517651" lon="11.26227051853256"><ele>221.0</ele><time>2026-04-07T12:29:52.998Z</time></trkpt><trkpt lat="45.57166077471316" lon="11.262188871225662"><ele>225.0</ele><time>2026-04-07T12:29:53.998Z</time></trkpt><trkpt lat="45.57184146236186" lon="11.262141845196995"><ele>229.0</ele><time>2026-04-07T12:29:54.998Z</time></trkpt><trkpt lat="45.57201480983579" lon="11.262141550948552"><ele>233.0</ele><time>2026-04-07T12:29:55.998Z</time></trkpt><trkpt lat="45.57219116992639" lon="11.262187480264338"><ele>233.0</ele><time>2026-04-07T12:29:56.998Z</time></trkpt><trkpt lat="45.57236418508995" lon="11.262278561434558"><ele>233.0</ele><time>2026-04-07T12:29:57.998Z</time></trkpt><trkpt lat="45.57253201412272" lon="11.262406525334482"><ele>233.0</ele><time>2026-04-07T12:29:58.998Z</time></trkpt><trkpt lat="45.57267655630356" lon="11.262573490222783"><ele>228.33333333333334</ele><time>2026-04-07T12:29:59.998Z</time></trkpt><trkpt lat="45.5727793128534" lon="11.262785991667117"><ele>223.66666666666669</ele><time>2026-04-07T12:30:00.998Z</time></trkpt><trkpt lat="45.57286862761671" lon="11.262960852833906"><ele>219.0</ele><time>2026-04-07T12:30:01.998Z</time></trkpt><trkpt lat="45.57293036297887" lon="11.263140482350106"><ele>218.79999999999998</ele><time>2026-04-07T12:30:02.998Z</time></trkpt><trkpt lat="45.57298154391721" lon="11.263308537250934"><ele>218.59999999999997</ele><time>2026-04-07T12:30:03.998Z</time></trkpt><trkpt lat="45.57302783533715" lon="11.263448886580564"><ele>218.4</ele><time>2026-04-07T12:30:04.998Z</time></trkpt><trkpt lat="45.5730717963342" lon="11.263569727737561"><ele>218.2</ele><time>2026-04-07T12:30:06Z</time></trkpt><trkpt lat="45.57310748737682" lon="11.263671443287286"><ele>218.0</ele><time>2026-04-07T12:30:07Z</time></trkpt><trkpt lat="45.57314375651435" lon="11.263763803107814"><ele>218.0</ele><time>2026-04-07T12:30:08Z</time></trkpt><trkpt lat="45.57319275524409" lon="11.263862217360447"><ele>218.0</ele><time>2026-04-07T12:30:09Z</time></trkpt><trkpt lat="45.573257683297115" lon="11.263951005529613"><ele>218.0</ele><time>2026-04-07T12:30:10Z</time></trkpt><trkpt lat="45.57334858539162" lon="11.264010874025777"><ele>218.0</ele><time>2026-04-07T12:30:11Z</time></trkpt><trkpt lat="45.573448651484384" lon="11.264034730449266"><ele>218.0</ele><time>2026-04-07T12:30:12Z</time></trkpt><trkpt lat="45.573566819221064" lon="11.264003295579334"><ele>219.0</ele><time>2026-04-07T12:30:13Z</time></trkpt><trkpt lat="45.5736924754092" lon="11.263914959563591"><ele>220.0</ele><time>2026-04-07T12:30:14Z</time></trkpt><trkpt lat="45.57383434862764" lon="11.26381737673965"><ele>221.0</ele><time>2026-04-07T12:30:15Z</time></trkpt><trkpt lat="45.57396536164531" lon="11.263715354453165"><ele>222.0</ele><time>2026-04-07T12:30:16Z</time></trkpt><trkpt lat="45.57407201718889" lon="11.263612579525402"><ele>222.0</ele><time>2026-04-07T12:30:17Z</time></trkpt><trkpt lat="45.57417201408439" lon="11.263537259779229"><ele>222.0</ele><time>2026-04-07T12:30:18Z</time></trkpt><trkpt lat="45.57426139946408" lon="11.263468649358185"><ele>222.0</ele><time>2026-04-07T12:30:19Z</time></trkpt><trkpt lat="45.57434009940552" lon="11.263406391018927"><ele>222.0</ele><time>2026-04-07T12:30:20Z</time></trkpt><trkpt lat="45.57441486351013" lon="11.263348078426832"><ele>222.0</ele><time>2026-04-07T12:30:21Z</time></trkpt><trkpt lat="45.57449257932372" lon="11.263297349685454"><ele>223.0</ele><time>2026-04-07T12:30:22Z</time></trkpt><trkpt lat="45.57455563845261" lon="11.263246762652065"><ele>224.0</ele><time>2026-04-07T12:30:23Z</time></trkpt><trkpt lat="45.57461266188229" lon="11.263202547641402"><ele>225.0</ele><time>2026-04-07T12:30:24Z</time></trkpt><trkpt lat="45.574708385416386" lon="11.263128576148313"><ele>226.0</ele><time>2026-04-07T12:30:26Z</time></trkpt><trkpt lat="45.574768298076116" lon="11.263078721625101"><ele>227.0</ele><time>2026-04-07T12:30:27Z</time></trkpt><trkpt lat="45.57484264914013" lon="11.263024922905435"><ele>228.0</ele><time>2026-04-07T12:30:28Z</time></trkpt><trkpt lat="45.57492320075645" lon="11.262971269628657"><ele>228.0</ele><time>2026-04-07T12:30:29Z</time></trkpt><trkpt lat="45.57500295570748" lon="11.262921551049295"><ele>228.0</ele><time>2026-04-07T12:30:30Z</time></trkpt><trkpt lat="45.57506988070332" lon="11.262884734838263"><ele>228.0</ele><time>2026-04-07T12:30:31Z</time></trkpt><trkpt lat="45.57513150146681" lon="11.262845593483311"><ele>228.0</ele><time>2026-04-07T12:30:32Z</time></trkpt><trkpt lat="45.57520010127035" lon="11.262811121885326"><ele>228.0</ele><time>2026-04-07T12:30:33Z</time></trkpt><trkpt lat="45.57527449262171" lon="11.262763390377447"><ele>228.0</ele><time>2026-04-07T12:30:34Z</time></trkpt><trkpt lat="45.57535197770371" lon="11.262717868025788"><ele>228.8</ele><time>2026-04-07T12:30:35Z</time></trkpt><trkpt lat="45.575441436475266" lon="11.262666313477107"><ele>229.60000000000002</ele><time>2026-04-07T12:30:36Z</time></trkpt><trkpt lat="45.575528001891044" lon="11.262610938436122"><ele>230.39999999999998</ele><time>2026-04-07T12:30:37Z</time></trkpt><trkpt lat="45.575623681246924" lon="11.262560303224058"><ele>231.2</ele><time>2026-04-07T12:30:38Z</time></trkpt><trkpt lat="45.57571466653953" lon="11.26250363702842"><ele>232.0</ele><time>2026-04-07T12:30:38.999Z</time></trkpt><trkpt lat="45.57581124079618" lon="11.26245262416823"><ele>232.0</ele><time>2026-04-07T12:30:39.999Z</time></trkpt><trkpt lat="45.575906150039344" lon="11.26240740429385"><ele>232.0</ele><time>2026-04-07T12:30:40.999Z</time></trkpt><trkpt lat="45.575995992342044" lon="11.262373410808367"><ele>232.0</ele><time>2026-04-07T12:30:41.999Z</time></trkpt><trkpt lat="45.57609358103383" lon="11.262355377941391"><ele>232.0</ele><time>2026-04-07T12:30:42.999Z</time></trkpt><trkpt lat="45.57620523930346" lon="11.262340809625087"><ele>232.0</ele><time>2026-04-07T12:30:43.999Z</time></trkpt><trkpt lat="45.57633335525527" lon="11.262336578763874"><ele>232.25</ele><time>2026-04-07T12:30:44.999Z</time></trkpt><trkpt lat="45.57645730337567" lon="11.262343528292627"><ele>232.5</ele><time>2026-04-07T12:30:45.999Z</time></trkpt><trkpt lat="45.57658044753636" lon="11.262346340724966"><ele>232.75</ele><time>2026-04-07T12:30:46.999Z</time></trkpt><trkpt lat="45.57670341933748" lon="11.262354284961722"><ele>233.0</ele><time>2026-04-07T12:30:47.999Z</time></trkpt><trkpt lat="45.576825471619024" lon="11.2623608079182"><ele>233.0</ele><time>2026-04-07T12:30:48.999Z</time></trkpt><trkpt lat="45.57693842496113" lon="11.262364865672255"><ele>233.0</ele><time>2026-04-07T12:30:49.999Z</time></trkpt><trkpt lat="45.577055231647144" lon="11.262372477112185"><ele>233.0</ele><time>2026-04-07T12:30:50.999Z</time></trkpt><trkpt lat="45.57716947326266" lon="11.2623749033546"><ele>233.0</ele><time>2026-04-07T12:30:51.999Z</time></trkpt><trkpt lat="45.57729197482483" lon="11.26237943099785"><ele>233.25</ele><time>2026-04-07T12:30:52.999Z</time></trkpt><trkpt lat="45.57740814232856" lon="11.262381524036508"><ele>233.5</ele><time>2026-04-07T12:30:53.999Z</time></trkpt><trkpt lat="45.577530205754925" lon="11.262383132470681"><ele>233.75</ele><time>2026-04-07T12:30:54.999Z</time></trkpt><trkpt lat="45.57763623087234" lon="11.262385773210996"><ele>234.0</ele><time>2026-04-07T12:30:55.999Z</time></trkpt><trkpt lat="45.577742239959946" lon="11.262384670448707"><ele>234.0</ele><time>2026-04-07T12:30:56.999Z</time></trkpt><trkpt lat="45.57784317397163" lon="11.262377899149168"><ele>233.99999999999997</ele><time>2026-04-07T12:30:57.999Z</time></trkpt><trkpt lat="45.577943320113015" lon="11.262366539652923"><ele>233.99999999999997</ele><time>2026-04-07T12:30:58.999Z</time></trkpt><trkpt lat="45.578044401668" lon="11.262328145399275"><ele>234.0</ele><time>2026-04-07T12:30:59.999Z</time></trkpt><trkpt lat="45.57813866386298" lon="11.262281205160964"><ele>234.0</ele><time>2026-04-07T12:31:00.999Z</time></trkpt><trkpt lat="45.57823928235842" lon="11.262228181637497"><ele>233.75</ele><time>2026-04-07T12:31:01.999Z</time></trkpt><trkpt lat="45.57834733416144" lon="11.262169680511043"><ele>233.5</ele><time>2026-04-07T12:31:02.999Z</time></trkpt><trkpt lat="45.578473318345246" lon="11.262084401430542"><ele>233.25</ele><time>2026-04-07T12:31:03.999Z</time></trkpt><trkpt lat="45.57863365879021" lon="11.26201368957062"><ele>233.0</ele><time>2026-04-07T12:31:04.999Z</time></trkpt><trkpt lat="45.57878889041704" lon="11.261884976889153"><ele>233.0</ele><time>2026-04-07T12:31:05.999Z</time></trkpt><trkpt lat="45.578953915734935" lon="11.261802046956289"><ele>233.0</ele><time>2026-04-07T12:31:06.999Z</time></trkpt><trkpt lat="45.57911236133312" lon="11.26173263249496"><ele>233.0</ele><time>2026-04-07T12:31:07.999Z</time></trkpt><trkpt lat="45.57925529181146" lon="11.26166317116469"><ele>233.0</ele><time>2026-04-07T12:31:08.999Z</time></trkpt><trkpt lat="45.57938474588053" lon="11.261588922766014"><ele>233.0</ele><time>2026-04-07T12:31:09.999Z</time></trkpt><trkpt lat="45.57951249566615" lon="11.26151846832776"><ele>233.0</ele><time>2026-04-07T12:31:10.999Z</time></trkpt><trkpt lat="45.57963038140382" lon="11.261449724979041"><ele>233.0</ele><time>2026-04-07T12:31:11.999Z</time></trkpt><trkpt lat="45.57975783400183" lon="11.261357328509645"><ele>233.33333333333334</ele><time>2026-04-07T12:31:12.999Z</time></trkpt><trkpt lat="45.57990691329632" lon="11.261212788669262"><ele>233.66666666666669</ele><time>2026-04-07T12:31:13.999Z</time></trkpt><trkpt lat="45.58008836903709" lon="11.261065912164222"><ele>234.0</ele><time>2026-04-07T12:31:14.999Z</time></trkpt><trkpt lat="45.58026703822181" lon="11.260868411881095"><ele>234.0</ele><time>2026-04-07T12:31:15.999Z</time></trkpt><trkpt lat="45.58044762475017" lon="11.260644638548555"><ele>234.0</ele><time>2026-04-07T12:31:16.999Z</time></trkpt><trkpt lat="45.58064950944635" lon="11.260426527794088"><ele>234.5</ele><time>2026-04-07T12:31:17.999Z</time></trkpt><trkpt lat="45.580854214376856" lon="11.260207458194584"><ele>235.0</ele><time>2026-04-07T12:31:18.999Z</time></trkpt><trkpt lat="45.581052060028114" lon="11.259987870273234"><ele>235.0</ele><time>2026-04-07T12:31:19.999Z</time></trkpt><trkpt lat="45.58125710764678" lon="11.25975693195287"><ele>235.0</ele><time>2026-04-07T12:31:20.999Z</time></trkpt><trkpt lat="45.581467407022956" lon="11.259521523825343"><ele>235.0</ele><time>2026-04-07T12:31:21.999Z</time></trkpt><trkpt lat="45.58167259655302" lon="11.259291481932198"><ele>235.0</ele><time>2026-04-07T12:31:22.999Z</time></trkpt><trkpt lat="45.581875257870976" lon="11.25906811713306"><ele>236.5</ele><time>2026-04-07T12:31:23.999Z</time></trkpt><trkpt lat="45.582071575950124" lon="11.258845655019844"><ele>238.0</ele><time>2026-04-07T12:31:24.999Z</time></trkpt><trkpt lat="45.58226474702003" lon="11.258634126429722"><ele>238.0</ele><time>2026-04-07T12:31:25.999Z</time></trkpt><trkpt lat="45.582455779213056" lon="11.258415790636246"><ele>238.0</ele><time>2026-04-07T12:31:26.999Z</time></trkpt><trkpt lat="45.582644467325565" lon="11.258211209528838"><ele>238.5</ele><time>2026-04-07T12:31:27.999Z</time></trkpt><trkpt lat="45.58282516394984" lon="11.258028420090419"><ele>239.0</ele><time>2026-04-07T12:31:28.999Z</time></trkpt><trkpt lat="45.58302364060199" lon="11.257857470478593"><ele>241.0</ele><time>2026-04-07T12:31:29.999Z</time></trkpt><trkpt lat="45.58323465215513" lon="11.257712430559911"><ele>243.0</ele><time>2026-04-07T12:31:30.999Z</time></trkpt><trkpt lat="45.583445610268" lon="11.25758975915589"><ele>243.0</ele><time>2026-04-07T12:31:31.999Z</time></trkpt><trkpt lat="45.58365714698284" lon="11.257473325074983"><ele>243.0</ele><time>2026-04-07T12:31:32.999Z</time></trkpt><trkpt lat="45.58386964050249" lon="11.257354476166459"><ele>245.0</ele><time>2026-04-07T12:31:33.999Z</time></trkpt><trkpt lat="45.5840744604546" lon="11.257229252750323"><ele>247.0</ele><time>2026-04-07T12:31:34.999Z</time></trkpt><trkpt lat="45.58428359457417" lon="11.257099089334234"><ele>247.0</ele><time>2026-04-07T12:31:35.999Z</time></trkpt><trkpt lat="45.584492247107214" lon="11.256983722452112"><ele>247.0</ele><time>2026-04-07T12:31:36.999Z</time></trkpt><trkpt lat="45.584701929317696" lon="11.256864212704777"><ele>247.0</ele><time>2026-04-07T12:31:37.999Z</time></trkpt><trkpt lat="45.584915716829904" lon="11.256739832623634"><ele>250.5</ele><time>2026-04-07T12:31:38.999Z</time></trkpt><trkpt lat="45.585128381587076" lon="11.256612151832984"><ele>254.0</ele><time>2026-04-07T12:31:39.998Z</time></trkpt><trkpt lat="45.58534113585447" lon="11.256480221873296"><ele>253.5</ele><time>2026-04-07T12:31:40.998Z</time></trkpt><trkpt lat="45.585561677262014" lon="11.256352213401648"><ele>253.0</ele><time>2026-04-07T12:31:41.998Z</time></trkpt><trkpt lat="45.5857815408294" lon="11.25622520838347"><ele>253.0</ele><time>2026-04-07T12:31:42.998Z</time></trkpt><trkpt lat="45.585991544957295" lon="11.25609956711649"><ele>253.0</ele><time>2026-04-07T12:31:43.998Z</time></trkpt><trkpt lat="45.58621155289871" lon="11.255978594490147"><ele>255.0</ele><time>2026-04-07T12:31:44.998Z</time></trkpt><trkpt lat="45.5864250908903" lon="11.255850575409113"><ele>257.0</ele><time>2026-04-07T12:31:45.998Z</time></trkpt><trkpt lat="45.58664459787337" lon="11.255722899334934"><ele>255.5</ele><time>2026-04-07T12:31:46.998Z</time></trkpt><trkpt lat="45.586866133026234" lon="11.255597085191138"><ele>254.0</ele><time>2026-04-07T12:31:47.998Z</time></trkpt><trkpt lat="45.58709382128022" lon="11.255456032757646"><ele>254.0</ele><time>2026-04-07T12:31:48.998Z</time></trkpt><trkpt lat="45.58730765805661" lon="11.255280864962865"><ele>254.0</ele><time>2026-04-07T12:31:49.998Z</time></trkpt><trkpt lat="45.58752957471643" lon="11.25506176690445"><ele>254.0</ele><time>2026-04-07T12:31:50.998Z</time></trkpt><trkpt lat="45.58774163074956" lon="11.254804831628023"><ele>254.0</ele><time>2026-04-07T12:31:51.998Z</time></trkpt><trkpt lat="45.587970822061074" lon="11.254535816382258"><ele>253.5</ele><time>2026-04-07T12:31:52.998Z</time></trkpt><trkpt lat="45.58821474617482" lon="11.254297934293112"><ele>253.0</ele><time>2026-04-07T12:31:53.998Z</time></trkpt><trkpt lat="45.58844253712925" lon="11.254020989311629"><ele>253.0</ele><time>2026-04-07T12:31:54.998Z</time></trkpt><trkpt lat="45.58868009084612" lon="11.253764262141848"><ele>253.0</ele><time>2026-04-07T12:31:55.998Z</time></trkpt><trkpt lat="45.588923808755396" lon="11.253505254008125"><ele>253.0</ele><time>2026-04-07T12:31:56.998Z</time></trkpt><trkpt lat="45.589166641551564" lon="11.253242700539888"><ele>253.0</ele><time>2026-04-07T12:31:57.998Z</time></trkpt><trkpt lat="45.58940347075962" lon="11.252982595539487"><ele>253.0</ele><time>2026-04-07T12:31:58.998Z</time></trkpt><trkpt lat="45.589640969590214" lon="11.252720937621245"><ele>253.0</ele><time>2026-04-07T12:31:59.998Z</time></trkpt><trkpt lat="45.58987852750274" lon="11.252464519506157"><ele>252.5</ele><time>2026-04-07T12:32:00.998Z</time></trkpt><trkpt lat="45.59011586803088" lon="11.252210011193638"><ele>252.0</ele><time>2026-04-07T12:32:01.998Z</time></trkpt><trkpt lat="45.59034976902495" lon="11.251962444006207"><ele>253.5</ele><time>2026-04-07T12:32:02.998Z</time></trkpt><trkpt lat="45.59057026440644" lon="11.251727896837691"><ele>255.0</ele><time>2026-04-07T12:32:03.998Z</time></trkpt><trkpt lat="45.5907799039074" lon="11.251496065242465"><ele>255.0</ele><time>2026-04-07T12:32:04.998Z</time></trkpt><trkpt lat="45.590987272444394" lon="11.25125742830649"><ele>255.0</ele><time>2026-04-07T12:32:05.998Z</time></trkpt><trkpt lat="45.591180993737524" lon="11.250996161521806"><ele>255.5</ele><time>2026-04-07T12:32:06.998Z</time></trkpt><trkpt lat="45.591363268593916" lon="11.250705626205884"><ele>256.0</ele><time>2026-04-07T12:32:07.998Z</time></trkpt><trkpt lat="45.59153812885892" lon="11.250409019786028"><ele>256.0</ele><time>2026-04-07T12:32:08.998Z</time></trkpt><trkpt lat="45.59172584692485" lon="11.250101133519152"><ele>256.0</ele><time>2026-04-07T12:32:09.998Z</time></trkpt><trkpt lat="45.59191547406982" lon="11.24980271633245"><ele>258.5</ele><time>2026-04-07T12:32:10.998Z</time></trkpt><trkpt lat="45.59210752875118" lon="11.249502553655446"><ele>261.0</ele><time>2026-04-07T12:32:12Z</time></trkpt><trkpt lat="45.59228873180144" lon="11.249213765552927"><ele>261.0</ele><time>2026-04-07T12:32:13Z</time></trkpt><trkpt lat="45.59246046414531" lon="11.248942861857866"><ele>261.0</ele><time>2026-04-07T12:32:14Z</time></trkpt><trkpt lat="45.592630294676745" lon="11.248682343679134"><ele>261.0</ele><time>2026-04-07T12:32:15Z</time></trkpt><trkpt lat="45.59279125133922" lon="11.248426737721017"><ele>261.0</ele><time>2026-04-07T12:32:16Z</time></trkpt><trkpt lat="45.592943153705626" lon="11.248183958215607"><ele>260.6666666666667</ele><time>2026-04-07T12:32:17Z</time></trkpt><trkpt lat="45.593093349750404" lon="11.247950877683316"><ele>260.33333333333337</ele><time>2026-04-07T12:32:18Z</time></trkpt><trkpt lat="45.59323695029325" lon="11.24771507589174"><ele>260.0</ele><time>2026-04-07T12:32:19Z</time></trkpt><trkpt lat="45.593371201183594" lon="11.247505324514934"><ele>260.0</ele><time>2026-04-07T12:32:20Z</time></trkpt><trkpt lat="45.593494629111575" lon="11.247314990429023"><ele>260.0</ele><time>2026-04-07T12:32:21Z</time></trkpt><trkpt lat="45.59362848261869" lon="11.247128429411157"><ele>260.0</ele><time>2026-04-07T12:32:22Z</time></trkpt><trkpt lat="45.59378589057652" lon="11.246973717743554"><ele>261.0</ele><time>2026-04-07T12:32:23Z</time></trkpt><trkpt lat="45.59397163716373" lon="11.246852885477452"><ele>262.0</ele><time>2026-04-07T12:32:24Z</time></trkpt><trkpt lat="45.59418428725243" lon="11.24676307441788"><ele>263.0</ele><time>2026-04-07T12:32:25Z</time></trkpt><trkpt lat="45.59441226540609" lon="11.246720783844074"><ele>264.0</ele><time>2026-04-07T12:32:26Z</time></trkpt><trkpt lat="45.59464893067461" lon="11.246729957247982"><ele>265.0</ele><time>2026-04-07T12:32:27Z</time></trkpt><trkpt lat="45.594896301020114" lon="11.24677087421254"><ele>265.0</ele><time>2026-04-07T12:32:28Z</time></trkpt><trkpt lat="45.59514467761061" lon="11.246822244692657"><ele>265.0</ele><time>2026-04-07T12:32:29Z</time></trkpt><trkpt lat="45.59539818085527" lon="11.246848273188128"><ele>268.5</ele><time>2026-04-07T12:32:30Z</time></trkpt><trkpt lat="45.59565644097166" lon="11.24685061038412"><ele>272.0</ele><time>2026-04-07T12:32:31Z</time></trkpt><trkpt lat="45.595915147555836" lon="11.246810969754208"><ele>275.5</ele><time>2026-04-07T12:32:32Z</time></trkpt><trkpt lat="45.5961788263194" lon="11.246746282135911"><ele>279.0</ele><time>2026-04-07T12:32:33Z</time></trkpt><trkpt lat="45.5964358011107" lon="11.246666452678081"><ele>279.0</ele><time>2026-04-07T12:32:34Z</time></trkpt><trkpt lat="45.59669794074894" lon="11.24658209218909"><ele>279.0</ele><time>2026-04-07T12:32:35Z</time></trkpt><trkpt lat="45.5969637016907" lon="11.246490008421784"><ele>275.5</ele><time>2026-04-07T12:32:36Z</time></trkpt><trkpt lat="45.59722980075076" lon="11.246381569622823"><ele>272.0</ele><time>2026-04-07T12:32:37Z</time></trkpt><trkpt lat="45.597494606747574" lon="11.246262181280157"><ele>272.0</ele><time>2026-04-07T12:32:38Z</time></trkpt><trkpt lat="45.59776980936059" lon="11.2461699440651"><ele>272.0</ele><time>2026-04-07T12:32:39Z</time></trkpt><trkpt lat="45.59804972560741" lon="11.246103105521627"><ele>277.0</ele><time>2026-04-07T12:32:40Z</time></trkpt><trkpt lat="45.5983318150825" lon="11.246007192399466"><ele>282.0</ele><time>2026-04-07T12:32:41Z</time></trkpt><trkpt lat="45.598605008068816" lon="11.245866401496022"><ele>278.0</ele><time>2026-04-07T12:32:41.999Z</time></trkpt><trkpt lat="45.598875466986335" lon="11.245705193986534"><ele>274.0</ele><time>2026-04-07T12:32:42.999Z</time></trkpt><trkpt lat="45.59913090289061" lon="11.245527646561744"><ele>274.0</ele><time>2026-04-07T12:32:43.999Z</time></trkpt><trkpt lat="45.599375183064694" lon="11.245321287157026"><ele>274.0</ele><time>2026-04-07T12:32:44.999Z</time></trkpt><trkpt lat="45.599608310421814" lon="11.245081472129845"><ele>276.0</ele><time>2026-04-07T12:32:45.999Z</time></trkpt><trkpt lat="45.59982167936981" lon="11.244821017789569"><ele>278.0</ele><time>2026-04-07T12:32:46.999Z</time></trkpt><trkpt lat="45.60001977951835" lon="11.244570321713"><ele>278.0</ele><time>2026-04-07T12:32:47.999Z</time></trkpt><trkpt lat="45.60019674124532" lon="11.244325046955819"><ele>278.0</ele><time>2026-04-07T12:32:48.999Z</time></trkpt><trkpt lat="45.60035161276742" lon="11.244082100646168"><ele>279.33333333333337</ele><time>2026-04-07T12:32:49.999Z</time></trkpt><trkpt lat="45.600484054966174" lon="11.243858646870581"><ele>280.6666666666667</ele><time>2026-04-07T12:32:50.999Z</time></trkpt><trkpt lat="45.600605469354875" lon="11.243669621945017"><ele>282.0</ele><time>2026-04-07T12:32:51.999Z</time></trkpt><trkpt lat="45.60070503968103" lon="11.243483234128437"><ele>282.0</ele><time>2026-04-07T12:32:52.999Z</time></trkpt><trkpt lat="45.60080939889583" lon="11.243338334343443"><ele>282.0</ele><time>2026-04-07T12:32:53.999Z</time></trkpt><trkpt lat="45.60093542543488" lon="11.243254015323883"><ele>282.0</ele><time>2026-04-07T12:32:54.999Z</time></trkpt><trkpt lat="45.601078466547506" lon="11.243213717553813"><ele>282.0</ele><time>2026-04-07T12:32:55.999Z</time></trkpt><trkpt lat="45.60126279609592" lon="11.243215688665764"><ele>283.6666666666667</ele><time>2026-04-07T12:32:56.999Z</time></trkpt><trkpt lat="45.60145316157176" lon="11.2431919649849"><ele>285.33333333333337</ele><time>2026-04-07T12:32:57.999Z</time></trkpt><trkpt lat="45.601637954368755" lon="11.243137584827357"><ele>287.0</ele><time>2026-04-07T12:32:58.999Z</time></trkpt><trkpt lat="45.60181711919449" lon="11.243043597231562"><ele>287.33333333333337</ele><time>2026-04-07T12:32:59.999Z</time></trkpt><trkpt lat="45.6019760602945" lon="11.242882616096"><ele>287.6666666666667</ele><time>2026-04-07T12:33:00.999Z</time></trkpt><trkpt lat="45.602111345895864" lon="11.242663710403905"><ele>288.0</ele><time>2026-04-07T12:33:01.999Z</time></trkpt><trkpt lat="45.60221096189069" lon="11.242421946572584"><ele>291.3333333333333</ele><time>2026-04-07T12:33:02.999Z</time></trkpt><trkpt lat="45.60228194055688" lon="11.242170192197387"><ele>294.66666666666663</ele><time>2026-04-07T12:33:03.999Z</time></trkpt><trkpt lat="45.60236224322143" lon="11.241953609515365"><ele>298.0</ele><time>2026-04-07T12:33:04.999Z</time></trkpt><trkpt lat="45.60248361244364" lon="11.241783542225678"><ele>298.0</ele><time>2026-04-07T12:33:05.999Z</time></trkpt><trkpt lat="45.6026151583694" lon="11.24164867045986"><ele>298.0</ele><time>2026-04-07T12:33:06.999Z</time></trkpt><trkpt lat="45.60274794426201" lon="11.241550753166525"><ele>298.0</ele><time>2026-04-07T12:33:07.999Z</time></trkpt><trkpt lat="45.602905926301375" lon="11.241502871781147"><ele>301.66666666666663</ele><time>2026-04-07T12:33:08.999Z</time></trkpt><trkpt lat="45.603084481448526" lon="11.241474045469225"><ele>305.3333333333333</ele><time>2026-04-07T12:33:09.999Z</time></trkpt><trkpt lat="45.603253135744666" lon="11.24140798070233"><ele>309.0</ele><time>2026-04-07T12:33:10.999Z</time></trkpt><trkpt lat="45.60341115920036" lon="11.241311954301679"><ele>309.0</ele><time>2026-04-07T12:33:11.999Z</time></trkpt><trkpt lat="45.60354179407905" lon="11.241203581206603"><ele>309.0</ele><time>2026-04-07T12:33:12.999Z</time></trkpt><trkpt lat="45.60365821502985" lon="11.24108565539607"><ele>309.0</ele><time>2026-04-07T12:33:13.999Z</time></trkpt><trkpt lat="45.60376932521821" lon="11.240980724656593"><ele>309.0</ele><time>2026-04-07T12:33:14.999Z</time></trkpt><trkpt lat="45.6038800772317" lon="11.240882365913762"><ele>307.25</ele><time>2026-04-07T12:33:15.999Z</time></trkpt><trkpt lat="45.60400083099507" lon="11.240793002751083"><ele>305.5</ele><time>2026-04-07T12:33:16.999Z</time></trkpt><trkpt lat="45.60413422690747" lon="11.240778676456777"><ele>303.75</ele><time>2026-04-07T12:33:17.999Z</time></trkpt><trkpt lat="45.60427605725819" lon="11.240737674081801"><ele>302.0</ele><time>2026-04-07T12:33:18.999Z</time></trkpt><trkpt lat="45.60442163247431" lon="11.240733495084406"><ele>302.25</ele><time>2026-04-07T12:33:19.999Z</time></trkpt><trkpt lat="45.604549289486876" lon="11.240720180270188"><ele>302.5</ele><time>2026-04-07T12:33:20.999Z</time></trkpt><trkpt lat="45.604666837965446" lon="11.240711172381243"><ele>302.75</ele><time>2026-04-07T12:33:21.999Z</time></trkpt><trkpt lat="45.60478952094132" lon="11.24069006826239"><ele>303.0</ele><time>2026-04-07T12:33:22.999Z</time></trkpt><trkpt lat="45.60493088805462" lon="11.240647147962996"><ele>302.0</ele><time>2026-04-07T12:33:23.999Z</time></trkpt><trkpt lat="45.60510331211032" lon="11.240577051681107"><ele>301.0</ele><time>2026-04-07T12:33:24.999Z</time></trkpt><trkpt lat="45.605289532207685" lon="11.240478314110932"><ele>300.0</ele><time>2026-04-07T12:33:25.999Z</time></trkpt><trkpt lat="45.60546014309103" lon="11.24036834356336"><ele>299.6666666666667</ele><time>2026-04-07T12:33:26.999Z</time></trkpt><trkpt lat="45.605623708403215" lon="11.240263773459702"><ele>299.33333333333337</ele><time>2026-04-07T12:33:27.999Z</time></trkpt><trkpt lat="45.605759000914" lon="11.240183344782109"><ele>299.0</ele><time>2026-04-07T12:33:28.999Z</time></trkpt><trkpt lat="45.6058871881051" lon="11.240111808783682"><ele>299.0</ele><time>2026-04-07T12:33:29.999Z</time></trkpt><trkpt lat="45.60600668738021" lon="11.240055497578822"><ele>299.0</ele><time>2026-04-07T12:33:30.999Z</time></trkpt><trkpt lat="45.60612956969047" lon="11.239973087423456"><ele>299.0</ele><time>2026-04-07T12:33:31.999Z</time></trkpt><trkpt lat="45.60626468663962" lon="11.239923110281293"><ele>299.0</ele><time>2026-04-07T12:33:32.999Z</time></trkpt><trkpt lat="45.60639623974175" lon="11.23991857332849"><ele>299.75</ele><time>2026-04-07T12:33:33.999Z</time></trkpt><trkpt lat="45.606518040276676" lon="11.239901391746189"><ele>300.5</ele><time>2026-04-07T12:33:34.999Z</time></trkpt><trkpt lat="45.60663515716315" lon="11.239975737864473"><ele>301.25</ele><time>2026-04-07T12:33:35.999Z</time></trkpt><trkpt lat="45.6067662044311" lon="11.24001704982882"><ele>302.0</ele><time>2026-04-07T12:33:36.999Z</time></trkpt><trkpt lat="45.606904016481934" lon="11.240084909085663"><ele>301.0</ele><time>2026-04-07T12:33:37.999Z</time></trkpt><trkpt lat="45.60704607833364" lon="11.24014608523328"><ele>300.0</ele><time>2026-04-07T12:33:38.999Z</time></trkpt><trkpt lat="45.607189600630775" lon="11.240215125137311"><ele>299.0</ele><time>2026-04-07T12:33:39.999Z</time></trkpt><trkpt lat="45.607327201783235" lon="11.24029303834178"><ele>298.0</ele><time>2026-04-07T12:33:40.999Z</time></trkpt><trkpt lat="45.6074526025404" lon="11.240373945608983"><ele>298.0</ele><time>2026-04-07T12:33:41.999Z</time></trkpt><trkpt lat="45.60756161484472" lon="11.240462386490842"><ele>298.0</ele><time>2026-04-07T12:33:42.999Z</time></trkpt><trkpt lat="45.607672457956575" lon="11.240562939944551"><ele>298.0</ele><time>2026-04-07T12:33:43.999Z</time></trkpt><trkpt lat="45.607790949056366" lon="11.240658784865145"><ele>298.0</ele><time>2026-04-07T12:33:44.999Z</time></trkpt><trkpt lat="45.60791911675036" lon="11.240707801528687"><ele>298.0</ele><time>2026-04-07T12:33:45.999Z</time></trkpt><trkpt lat="45.60805540234444" lon="11.240709837418157"><ele>298.0</ele><time>2026-04-07T12:33:46.999Z</time></trkpt><trkpt lat="45.60819590545347" lon="11.240677077574214"><ele>298.0</ele><time>2026-04-07T12:33:47.998Z</time></trkpt><trkpt lat="45.60832285155067" lon="11.24060693671665"><ele>298.0</ele><time>2026-04-07T12:33:48.998Z</time></trkpt><trkpt lat="45.60844630414586" lon="11.240549519307448"><ele>298.0</ele><time>2026-04-07T12:33:49.998Z</time></trkpt><trkpt lat="45.6085677476094" lon="11.240502907854692"><ele>298.0</ele><time>2026-04-07T12:33:50.998Z</time></trkpt><trkpt lat="45.60869236572285" lon="11.24044790776316"><ele>298.0</ele><time>2026-04-07T12:33:51.998Z</time></trkpt><trkpt lat="45.60882633829977" lon="11.240395188989831"><ele>298.0</ele><time>2026-04-07T12:33:52.998Z</time></trkpt><trkpt lat="45.60896877443959" lon="11.240337645921464"><ele>298.5</ele><time>2026-04-07T12:33:53.998Z</time></trkpt><trkpt lat="45.60911102868541" lon="11.240276440686351"><ele>299.0</ele><time>2026-04-07T12:33:54.998Z</time></trkpt><trkpt lat="45.609244117551775" lon="11.240195908254627"><ele>299.5</ele><time>2026-04-07T12:33:55.998Z</time></trkpt><trkpt lat="45.60936770011633" lon="11.240087896664106"><ele>300.0</ele><time>2026-04-07T12:33:56.998Z</time></trkpt><trkpt lat="45.60948678764406" lon="11.239958216209942"><ele>300.75</ele><time>2026-04-07T12:33:57.998Z</time></trkpt><trkpt lat="45.60959913681031" lon="11.239803478296723"><ele>301.5</ele><time>2026-04-07T12:33:58.998Z</time></trkpt><trkpt lat="45.60969747993689" lon="11.239642769003284"><ele>302.25</ele><time>2026-04-07T12:33:59.998Z</time></trkpt><trkpt lat="45.609767569307564" lon="11.23952473724438"><ele>303.0</ele><time>2026-04-07T12:34:00.998Z</time></trkpt><trkpt lat="45.609850949023624" lon="11.239369922204503"><ele>303.0</ele><time>2026-04-07T12:34:01.998Z</time></trkpt><trkpt lat="45.60997616919281" lon="11.239139592676501"><ele>303.0</ele><time>2026-04-07T12:34:02.998Z</time></trkpt><trkpt lat="45.61006071150846" lon="11.238983024803604"><ele>303.0</ele><time>2026-04-07T12:34:03.998Z</time></trkpt><trkpt lat="45.61013415616573" lon="11.238827768565136"><ele>304.0</ele><time>2026-04-07T12:34:04.998Z</time></trkpt><trkpt lat="45.610220811248894" lon="11.238677646390416"><ele>305.0</ele><time>2026-04-07T12:34:05.998Z</time></trkpt><trkpt lat="45.61029879107976" lon="11.238515239360297"><ele>306.0</ele><time>2026-04-07T12:34:06.998Z</time></trkpt><trkpt lat="45.61038370637671" lon="11.238355181093505"><ele>307.0</ele><time>2026-04-07T12:34:07.998Z</time></trkpt><trkpt lat="45.61046523848487" lon="11.238194767449437"><ele>307.25</ele><time>2026-04-07T12:34:08.998Z</time></trkpt><trkpt lat="45.61054286181774" lon="11.238035923969838"><ele>307.5</ele><time>2026-04-07T12:34:09.998Z</time></trkpt><trkpt lat="45.61061090942627" lon="11.237873785394338"><ele>307.75</ele><time>2026-04-07T12:34:10.998Z</time></trkpt><trkpt lat="45.61067345384158" lon="11.23770846580983"><ele>308.0</ele><time>2026-04-07T12:34:11.998Z</time></trkpt><trkpt lat="45.61073517571614" lon="11.237534879311996"><ele>308.0</ele><time>2026-04-07T12:34:12.998Z</time></trkpt><trkpt lat="45.610801843001774" lon="11.237348196144335"><ele>308.0</ele><time>2026-04-07T12:34:13.998Z</time></trkpt><trkpt lat="45.61086662415426" lon="11.237159306366243"><ele>308.0</ele><time>2026-04-07T12:34:14.998Z</time></trkpt><trkpt lat="45.61099660472524" lon="11.237035332423904"><ele>308.25</ele><time>2026-04-07T12:34:15.998Z</time></trkpt><trkpt lat="45.61105940015006" lon="11.236861013142319"><ele>308.5</ele><time>2026-04-07T12:34:16.998Z</time></trkpt><trkpt lat="45.61105138481921" lon="11.236637329830932"><ele>308.75</ele><time>2026-04-07T12:34:18Z</time></trkpt><trkpt lat="45.611124470311395" lon="11.23648838939481"><ele>309.0</ele><time>2026-04-07T12:34:19Z</time></trkpt><trkpt lat="45.61118112137264" lon="11.236334237296273"><ele>310.25</ele><time>2026-04-07T12:34:20Z</time></trkpt><trkpt lat="45.611237071056884" lon="11.23618199373189"><ele>311.5</ele><time>2026-04-07T12:34:21Z</time></trkpt><trkpt lat="45.61129324745261" lon="11.236029310848224"><ele>312.75</ele><time>2026-04-07T12:34:22Z</time></trkpt><trkpt lat="45.611350304371605" lon="11.23587435064902"><ele>314.0</ele><time>2026-04-07T12:34:23Z</time></trkpt><trkpt lat="45.61140931523959" lon="11.235714083739698"><ele>313.0</ele><time>2026-04-07T12:34:24Z</time></trkpt><trkpt lat="45.611471693003125" lon="11.235548183066216"><ele>312.0</ele><time>2026-04-07T12:34:25Z</time></trkpt><trkpt lat="45.61154618535455" lon="11.235389598758221"><ele>311.0</ele><time>2026-04-07T12:34:26Z</time></trkpt><trkpt lat="45.6116359655128" lon="11.235234325570746"><ele>310.0</ele><time>2026-04-07T12:34:27Z</time></trkpt><trkpt lat="45.611758928217924" lon="11.235099493830543"><ele>310.0</ele><time>2026-04-07T12:34:28Z</time></trkpt><trkpt lat="45.61189658128286" lon="11.234971920865862"><ele>310.0</ele><time>2026-04-07T12:34:29Z</time></trkpt><trkpt lat="45.61201770528259" lon="11.234856018940485"><ele>310.0</ele><time>2026-04-07T12:34:30Z</time></trkpt><trkpt lat="45.61214799276225" lon="11.234737027639225"><ele>311.3333333333333</ele><time>2026-04-07T12:34:31Z</time></trkpt><trkpt lat="45.61227863129522" lon="11.234604511317773"><ele>312.6666666666667</ele><time>2026-04-07T12:34:32Z</time></trkpt><trkpt lat="45.61241566017059" lon="11.234455606568272"><ele>314.0</ele><time>2026-04-07T12:34:33Z</time></trkpt><trkpt lat="45.61254916046501" lon="11.234284305256223"><ele>314.0</ele><time>2026-04-07T12:34:34Z</time></trkpt><trkpt lat="45.61268258355574" lon="11.23413599189868"><ele>314.0</ele><time>2026-04-07T12:34:35Z</time></trkpt><trkpt lat="45.612780717155815" lon="11.233963199731402"><ele>314.0</ele><time>2026-04-07T12:34:36Z</time></trkpt><trkpt lat="45.6128832330318" lon="11.23379681389956"><ele>315.6666666666667</ele><time>2026-04-07T12:34:37Z</time></trkpt><trkpt lat="45.61299382977215" lon="11.233640518506352"><ele>317.3333333333333</ele><time>2026-04-07T12:34:38Z</time></trkpt><trkpt lat="45.613103157428064" lon="11.233460912591505"><ele>319.0</ele><time>2026-04-07T12:34:39Z</time></trkpt><trkpt lat="45.61321077680686" lon="11.233284420031946"><ele>317.3333333333333</ele><time>2026-04-07T12:34:40Z</time></trkpt><trkpt lat="45.61332301143621" lon="11.23310297117082"><ele>315.6666666666667</ele><time>2026-04-07T12:34:41Z</time></trkpt><trkpt lat="45.6134271856803" lon="11.232936010813342"><ele>314.0</ele><time>2026-04-07T12:34:42Z</time></trkpt><trkpt lat="45.613517284616385" lon="11.232757113175284"><ele>314.0</ele><time>2026-04-07T12:34:43Z</time></trkpt><trkpt lat="45.61363420860233" lon="11.23261282373076"><ele>314.0</ele><time>2026-04-07T12:34:44Z</time></trkpt><trkpt lat="45.61374719696319" lon="11.232463815799484"><ele>314.0</ele><time>2026-04-07T12:34:45Z</time></trkpt><trkpt lat="45.6138771506225" lon="11.232324974650576"><ele>315.6666666666667</ele><time>2026-04-07T12:34:46Z</time></trkpt><trkpt lat="45.614026014301714" lon="11.232193497982669"><ele>317.3333333333333</ele><time>2026-04-07T12:34:47Z</time></trkpt><trkpt lat="45.614203704392345" lon="11.232048653876191"><ele>319.0</ele><time>2026-04-07T12:34:48Z</time></trkpt><trkpt lat="45.61442000895318" lon="11.231876142887357"><ele>325.0</ele><time>2026-04-07T12:34:49Z</time></trkpt><trkpt lat="45.614651410059686" lon="11.231691769025412"><ele>331.0</ele><time>2026-04-07T12:34:50Z</time></trkpt><trkpt lat="45.61488118040235" lon="11.231486316066363"><ele>334.0</ele><time>2026-04-07T12:34:51Z</time></trkpt><trkpt lat="45.61512082194925" lon="11.231310125957682"><ele>337.0</ele><time>2026-04-07T12:34:52Z</time></trkpt><trkpt lat="45.61534375570395" lon="11.231130500904872"><ele>337.0</ele><time>2026-04-07T12:34:53Z</time></trkpt><trkpt lat="45.61555868229573" lon="11.230962921661526"><ele>337.0</ele><time>2026-04-07T12:34:54Z</time></trkpt><trkpt lat="45.615761715374276" lon="11.230806891272167"><ele>330.5</ele><time>2026-04-07T12:34:54.999Z</time></trkpt><trkpt lat="45.61595929552883" lon="11.230629043036059"><ele>324.0</ele><time>2026-04-07T12:34:55.999Z</time></trkpt><trkpt lat="45.61612960558809" lon="11.230432821926653"><ele>325.0</ele><time>2026-04-07T12:34:56.999Z</time></trkpt><trkpt lat="45.616279744817994" lon="11.230203629951033"><ele>326.0</ele><time>2026-04-07T12:34:57.999Z</time></trkpt><trkpt lat="45.61640949183238" lon="11.22994836236606"><ele>327.0</ele><time>2026-04-07T12:34:58.999Z</time></trkpt><trkpt lat="45.616558016582196" lon="11.229714508724454"><ele>327.0</ele><time>2026-04-07T12:34:59.999Z</time></trkpt><trkpt lat="45.61670501609243" lon="11.22945958194278"><ele>327.0</ele><time>2026-04-07T12:35:00.999Z</time></trkpt><trkpt lat="45.616837052453896" lon="11.229198366867017"><ele>326.3333333333333</ele><time>2026-04-07T12:35:01.999Z</time></trkpt><trkpt lat="45.61696894433209" lon="11.22897403294649"><ele>325.66666666666663</ele><time>2026-04-07T12:35:02.999Z</time></trkpt><trkpt lat="45.617088928266426" lon="11.228760478777513"><ele>325.0</ele><time>2026-04-07T12:35:03.999Z</time></trkpt><trkpt lat="45.617220497623386" lon="11.22860573322579"><ele>326.75</ele><time>2026-04-07T12:35:04.999Z</time></trkpt><trkpt lat="45.617346773700824" lon="11.22847104517634"><ele>328.5</ele><time>2026-04-07T12:35:05.999Z</time></trkpt><trkpt lat="45.61747064559773" lon="11.228359900547222"><ele>330.25</ele><time>2026-04-07T12:35:06.999Z</time></trkpt><trkpt lat="45.61757480314772" lon="11.22825162257627"><ele>332.0</ele><time>2026-04-07T12:35:07.999Z</time></trkpt><trkpt lat="45.617671316636745" lon="11.228175661379096"><ele>331.40000000000003</ele><time>2026-04-07T12:35:08.999Z</time></trkpt><trkpt lat="45.61774811804587" lon="11.228105619127579"><ele>330.8</ele><time>2026-04-07T12:35:09.999Z</time></trkpt><trkpt lat="45.617816774897754" lon="11.228066623692023"><ele>330.2</ele><time>2026-04-07T12:35:10.999Z</time></trkpt><trkpt lat="45.617826722151825" lon="11.227895289031569"><ele>329.6</ele><time>2026-04-07T12:35:11.999Z</time></trkpt><trkpt lat="45.617850702111895" lon="11.227725404889382"><ele>329.0</ele><time>2026-04-07T12:35:12.999Z</time></trkpt><trkpt lat="45.61788390532204" lon="11.22754317235149"><ele>331.25</ele><time>2026-04-07T12:35:13.999Z</time></trkpt><trkpt lat="45.617919944315204" lon="11.227354092635855"><ele>333.5</ele><time>2026-04-07T12:35:14.999Z</time></trkpt><trkpt lat="45.61799570274439" lon="11.22717327049078"><ele>335.75</ele><time>2026-04-07T12:35:15.999Z</time></trkpt><trkpt lat="45.61807524646453" lon="11.22699100720011"><ele>338.0</ele><time>2026-04-07T12:35:16.999Z</time></trkpt><trkpt lat="45.618163208689396" lon="11.226771974803615"><ele>339.33333333333337</ele><time>2026-04-07T12:35:17.999Z</time></trkpt><trkpt lat="45.61828165213437" lon="11.226556669415857"><ele>340.6666666666667</ele><time>2026-04-07T12:35:18.999Z</time></trkpt><trkpt lat="45.61838958712074" lon="11.226356074805496"><ele>342.0</ele><time>2026-04-07T12:35:19.999Z</time></trkpt><trkpt lat="45.618479189042745" lon="11.226165769852441"><ele>341.0</ele><time>2026-04-07T12:35:20.999Z</time></trkpt><trkpt lat="45.618576159275115" lon="11.226000218771265"><ele>340.0</ele><time>2026-04-07T12:35:21.999Z</time></trkpt><trkpt lat="45.618670867327864" lon="11.225854703848118"><ele>339.0</ele><time>2026-04-07T12:35:22.999Z</time></trkpt><trkpt lat="45.61879182217026" lon="11.225713444704702"><ele>338.0</ele><time>2026-04-07T12:35:23.999Z</time></trkpt><trkpt lat="45.61891628065102" lon="11.225558914166058"><ele>338.0</ele><time>2026-04-07T12:35:24.999Z</time></trkpt><trkpt lat="45.6190077603723" lon="11.225395967692348"><ele>338.0</ele><time>2026-04-07T12:35:25.999Z</time></trkpt><trkpt lat="45.619100063649995" lon="11.225279053364567"><ele>338.0</ele><time>2026-04-07T12:35:26.999Z</time></trkpt><trkpt lat="45.61916738670369" lon="11.225190120765811"><ele>338.0</ele><time>2026-04-07T12:35:27.999Z</time></trkpt><trkpt lat="45.61922139396948" lon="11.225132815528676"><ele>338.0</ele><time>2026-04-07T12:35:28.999Z</time></trkpt><trkpt lat="45.619275914795594" lon="11.225086633549262"><ele>338.0</ele><time>2026-04-07T12:35:29.999Z</time></trkpt><trkpt lat="45.61936092948604" lon="11.225037535743462"><ele>338.0</ele><time>2026-04-07T12:35:30.999Z</time></trkpt><trkpt lat="45.619476353651194" lon="11.224970030519078"><ele>338.0</ele><time>2026-04-07T12:35:31.999Z</time></trkpt><trkpt lat="45.61960025258803" lon="11.224864302438506"><ele>338.0</ele><time>2026-04-07T12:35:32.999Z</time></trkpt><trkpt lat="45.61973390816221" lon="11.224754876027049"><ele>339.5</ele><time>2026-04-07T12:35:33.999Z</time></trkpt><trkpt lat="45.61983700900415" lon="11.224599379340995"><ele>341.0</ele><time>2026-04-07T12:35:34.999Z</time></trkpt><trkpt lat="45.61991370191702" lon="11.224444415110652"><ele>342.5</ele><time>2026-04-07T12:35:35.999Z</time></trkpt><trkpt lat="45.61995649799236" lon="11.22427484346483"><ele>344.0</ele><time>2026-04-07T12:35:36.999Z</time></trkpt><trkpt lat="45.61997261455822" lon="11.22407990767685"><ele>342.75</ele><time>2026-04-07T12:35:37.999Z</time></trkpt><trkpt lat="45.61998731490842" lon="11.223901575915285"><ele>341.5</ele><time>2026-04-07T12:35:38.999Z</time></trkpt><trkpt lat="45.62002955005254" lon="11.223751668834673"><ele>340.25</ele><time>2026-04-07T12:35:39.999Z</time></trkpt><trkpt lat="45.62012610939179" lon="11.223659753616772"><ele>339.0</ele><time>2026-04-07T12:35:40.999Z</time></trkpt><trkpt lat="45.62021675446037" lon="11.223527964428742"><ele>342.3333333333333</ele><time>2026-04-07T12:35:41.999Z</time></trkpt><trkpt lat="45.620352000944834" lon="11.223435687682013"><ele>345.66666666666663</ele><time>2026-04-07T12:35:42.999Z</time></trkpt><trkpt lat="45.62051275739031" lon="11.223361127864868"><ele>349.0</ele><time>2026-04-07T12:35:43.999Z</time></trkpt><trkpt lat="45.62070698857106" lon="11.223312708047272"><ele>349.0</ele><time>2026-04-07T12:35:44.999Z</time></trkpt><trkpt lat="45.62090566727714" lon="11.223262274687922"><ele>349.0</ele><time>2026-04-07T12:35:45.999Z</time></trkpt><trkpt lat="45.62110704967593" lon="11.223210285018565"><ele>349.0</ele><time>2026-04-07T12:35:46.999Z</time></trkpt><trkpt lat="45.62130428635447" lon="11.223075189135558"><ele>347.5</ele><time>2026-04-07T12:35:47.999Z</time></trkpt><trkpt lat="45.62151072960884" lon="11.222917375050681"><ele>346.0</ele><time>2026-04-07T12:35:48.999Z</time></trkpt><trkpt lat="45.62170366951059" lon="11.222717655152904"><ele>346.0</ele><time>2026-04-07T12:35:49.999Z</time></trkpt><trkpt lat="45.621899487396334" lon="11.222498714631914"><ele>346.0</ele><time>2026-04-07T12:35:50.999Z</time></trkpt><trkpt lat="45.622087605229275" lon="11.222295217421907"><ele>345.66666666666663</ele><time>2026-04-07T12:35:51.999Z</time></trkpt><trkpt lat="45.622269057017306" lon="11.222107507479254"><ele>345.3333333333333</ele><time>2026-04-07T12:35:52.999Z</time></trkpt><trkpt lat="45.622442513689236" lon="11.221931593209622"><ele>345.0</ele><time>2026-04-07T12:35:53.999Z</time></trkpt><trkpt lat="45.62258985098007" lon="11.221744162959538"><ele>345.0</ele><time>2026-04-07T12:35:54.999Z</time></trkpt><trkpt lat="45.62272768929756" lon="11.221522514619242"><ele>345.0</ele><time>2026-04-07T12:35:55.999Z</time></trkpt><trkpt lat="45.62285247499203" lon="11.22125267574913"><ele>345.0</ele><time>2026-04-07T12:35:56.999Z</time></trkpt><trkpt lat="45.62296723216231" lon="11.220962178271677"><ele>344.0</ele><time>2026-04-07T12:35:57.999Z</time></trkpt><trkpt lat="45.62307512996769" lon="11.220662969427632"><ele>343.0</ele><time>2026-04-07T12:35:58.999Z</time></trkpt><trkpt lat="45.62318766617093" lon="11.220365143096963"><ele>343.0</ele><time>2026-04-07T12:35:59.999Z</time></trkpt><trkpt lat="45.62330875326553" lon="11.220084337269684"><ele>343.0</ele><time>2026-04-07T12:36:00.998Z</time></trkpt><trkpt lat="45.6234111263427" lon="11.219806483196349"><ele>343.66666666666663</ele><time>2026-04-07T12:36:01.998Z</time></trkpt><trkpt lat="45.623528334176605" lon="11.219579719241283"><ele>344.3333333333333</ele><time>2026-04-07T12:36:02.998Z</time></trkpt><trkpt lat="45.623636827179794" lon="11.219347451333928"><ele>345.0</ele><time>2026-04-07T12:36:03.998Z</time></trkpt><trkpt lat="45.62374203379567" lon="11.21911691443473"><ele>347.0</ele><time>2026-04-07T12:36:04.998Z</time></trkpt><trkpt lat="45.62382079578549" lon="11.218894243751015"><ele>349.0</ele><time>2026-04-07T12:36:05.998Z</time></trkpt><trkpt lat="45.62392529438401" lon="11.218710914613858"><ele>351.0</ele><time>2026-04-07T12:36:06.998Z</time></trkpt><trkpt lat="45.62401624428473" lon="11.218551871205"><ele>351.0</ele><time>2026-04-07T12:36:07.998Z</time></trkpt><trkpt lat="45.62411408757295" lon="11.218411219603961"><ele>351.0</ele><time>2026-04-07T12:36:08.998Z</time></trkpt><trkpt lat="45.62423183169246" lon="11.218270205431294"><ele>351.0</ele><time>2026-04-07T12:36:09.998Z</time></trkpt><trkpt lat="45.62436976542573" lon="11.218140423392635"><ele>355.3333333333333</ele><time>2026-04-07T12:36:10.998Z</time></trkpt><trkpt lat="45.624522531284605" lon="11.21800072135144"><ele>359.66666666666663</ele><time>2026-04-07T12:36:11.998Z</time></trkpt><trkpt lat="45.6246598046033" lon="11.217826191612033"><ele>364.0</ele><time>2026-04-07T12:36:12.998Z</time></trkpt><trkpt lat="45.624793257222734" lon="11.217616444712686"><ele>364.0</ele><time>2026-04-07T12:36:13.998Z</time></trkpt><trkpt lat="45.624915383919536" lon="11.217364974534668"><ele>364.0</ele><time>2026-04-07T12:36:14.998Z</time></trkpt><trkpt lat="45.62500763780483" lon="11.217085364558862"><ele>364.0</ele><time>2026-04-07T12:36:15.998Z</time></trkpt><trkpt lat="45.6250980698415" lon="11.216767320288003"><ele>359.5</ele><time>2026-04-07T12:36:16.998Z</time></trkpt><trkpt lat="45.62517361994495" lon="11.21644803666104"><ele>355.0</ele><time>2026-04-07T12:36:17.998Z</time></trkpt><trkpt lat="45.62523337994239" lon="11.216120287982365"><ele>355.0</ele><time>2026-04-07T12:36:18.998Z</time></trkpt><trkpt lat="45.62527304839941" lon="11.215802178446495"><ele>355.0</ele><time>2026-04-07T12:36:19.998Z</time></trkpt><trkpt lat="45.62532922633321" lon="11.215498674348193"><ele>355.0</ele><time>2026-04-07T12:36:20.998Z</time></trkpt><trkpt lat="45.62536765007982" lon="11.215213175916231"><ele>357.0</ele><time>2026-04-07T12:36:21.998Z</time></trkpt><trkpt lat="45.62541117901744" lon="11.214937915260226"><ele>359.0</ele><time>2026-04-07T12:36:22.998Z</time></trkpt><trkpt lat="45.62545705671994" lon="11.214668812040811"><ele>361.0</ele><time>2026-04-07T12:36:24Z</time></trkpt><trkpt lat="45.62549055974974" lon="11.214426486736667"><ele>361.0</ele><time>2026-04-07T12:36:25Z</time></trkpt><trkpt lat="45.62555881885493" lon="11.214214051160761"><ele>361.0</ele><time>2026-04-07T12:36:26Z</time></trkpt><trkpt lat="45.62566314860192" lon="11.214021630946013"><ele>361.0</ele><time>2026-04-07T12:36:27Z</time></trkpt><trkpt lat="45.625782901007014" lon="11.21381853268148"><ele>361.3333333333333</ele><time>2026-04-07T12:36:28Z</time></trkpt><trkpt lat="45.62588237353276" lon="11.21357083805713"><ele>361.6666666666667</ele><time>2026-04-07T12:36:29Z</time></trkpt><trkpt lat="45.62596257209925" lon="11.213316305564438"><ele>362.0</ele><time>2026-04-07T12:36:30Z</time></trkpt><trkpt lat="45.626029310857525" lon="11.213064945093361"><ele>362.75</ele><time>2026-04-07T12:36:31Z</time></trkpt><trkpt lat="45.62610854957115" lon="11.212876448604456"><ele>363.5</ele><time>2026-04-07T12:36:32Z</time></trkpt><trkpt lat="45.62619813971399" lon="11.212739082087007"><ele>364.25</ele><time>2026-04-07T12:36:33Z</time></trkpt><trkpt lat="45.62630365948044" lon="11.212584847974215"><ele>365.0</ele><time>2026-04-07T12:36:34Z</time></trkpt><trkpt lat="45.62638891682697" lon="11.212405334617605"><ele>370.5</ele><time>2026-04-07T12:36:35Z</time></trkpt><trkpt lat="45.626453521598506" lon="11.212230643706835"><ele>376.0</ele><time>2026-04-07T12:36:36Z</time></trkpt><trkpt lat="45.6264719071112" lon="11.212036087162616"><ele>381.5</ele><time>2026-04-07T12:36:37Z</time></trkpt><trkpt lat="45.626520351178236" lon="11.211841177352774"><ele>387.0</ele><time>2026-04-07T12:36:38Z</time></trkpt><trkpt lat="45.62655665557654" lon="11.211634908727234"><ele>390.5</ele><time>2026-04-07T12:36:39Z</time></trkpt><trkpt lat="45.626587157965176" lon="11.211389156726545"><ele>394.0</ele><time>2026-04-07T12:36:40Z</time></trkpt><trkpt lat="45.62632554794462" lon="11.21104449046277"><ele>394.0</ele><time>2026-04-07T12:36:41Z</time></trkpt><trkpt lat="45.626276079364" lon="11.21077758918554"><ele>394.0</ele><time>2026-04-07T12:36:42Z</time></trkpt><trkpt lat="45.626207202168516" lon="11.210521564147616"><ele>394.0</ele><time>2026-04-07T12:36:43Z</time></trkpt><trkpt lat="45.62613176121537" lon="11.210286881019233"><ele>388.5</ele><time>2026-04-07T12:36:44Z</time></trkpt><trkpt lat="45.62606365335073" lon="11.210078001114473"><ele>383.0</ele><time>2026-04-07T12:36:45Z</time></trkpt><trkpt lat="45.62600793968878" lon="11.209880697903237"><ele>377.5</ele><time>2026-04-07T12:36:46Z</time></trkpt><trkpt lat="45.62596269170474" lon="11.209692978542535"><ele>372.0</ele><time>2026-04-07T12:36:47Z</time></trkpt><trkpt lat="45.625932897691364" lon="11.209519470172228"><ele>372.0</ele><time>2026-04-07T12:36:48Z</time></trkpt><trkpt lat="45.62593604154391" lon="11.209352826247672"><ele>372.0</ele><time>2026-04-07T12:36:49Z</time></trkpt><trkpt lat="45.62596667262231" lon="11.209180102258017"><ele>372.0</ele><time>2026-04-07T12:36:50Z</time></trkpt><trkpt lat="45.62602372392502" lon="11.209009869305788"><ele>372.0</ele><time>2026-04-07T12:36:51Z</time></trkpt><trkpt lat="45.626111728953234" lon="11.208850595641117"><ele>374.25</ele><time>2026-04-07T12:36:52Z</time></trkpt><trkpt lat="45.62622316749086" lon="11.20870567279812"><ele>376.5</ele><time>2026-04-07T12:36:53Z</time></trkpt><trkpt lat="45.62634071856909" lon="11.208574490970484"><ele>378.75</ele><time>2026-04-07T12:36:54Z</time></trkpt><trkpt lat="45.62644098753406" lon="11.208467870999876"><ele>381.0</ele><time>2026-04-07T12:36:55Z</time></trkpt><trkpt lat="45.626524294345565" lon="11.208348486069513"><ele>381.0</ele><time>2026-04-07T12:36:56Z</time></trkpt><trkpt lat="45.62658209530133" lon="11.208237643210177"><ele>381.0</ele><time>2026-04-07T12:36:57Z</time></trkpt><trkpt lat="45.62660476181233" lon="11.208142493049186"><ele>381.0</ele><time>2026-04-07T12:36:58Z</time></trkpt><trkpt lat="45.62655741198646" lon="11.207940247499142"><ele>381.0</ele><time>2026-04-07T12:37:00Z</time></trkpt><trkpt lat="45.62650116462925" lon="11.207787506407566"><ele>381.0</ele><time>2026-04-07T12:37:01Z</time></trkpt><trkpt lat="45.626444529279645" lon="11.207590566055583"><ele>382.33333333333337</ele><time>2026-04-07T12:37:02Z</time></trkpt><trkpt lat="45.62639871380096" lon="11.207380869844515"><ele>383.6666666666667</ele><time>2026-04-07T12:37:03Z</time></trkpt><trkpt lat="45.626346078646776" lon="11.207162150208601"><ele>385.0</ele><time>2026-04-07T12:37:04Z</time></trkpt><trkpt lat="45.62630535985248" lon="11.206965553664004"><ele>385.0</ele><time>2026-04-07T12:37:05Z</time></trkpt><trkpt lat="45.62628482914061" lon="11.206755681735322"><ele>385.0</ele><time>2026-04-07T12:37:06Z</time></trkpt><trkpt lat="45.626294003823915" lon="11.206501196150644"><ele>385.0</ele><time>2026-04-07T12:37:07Z</time></trkpt><trkpt lat="45.62630503209112" lon="11.2062206909163"><ele>395.0</ele><time>2026-04-07T12:37:08Z</time></trkpt><trkpt lat="45.62628516957415" lon="11.205931402328245"><ele>405.0</ele><time>2026-04-07T12:37:09Z</time></trkpt><trkpt lat="45.62624989317154" lon="11.205630260327485"><ele>415.0</ele><time>2026-04-07T12:37:09.999Z</time></trkpt><trkpt lat="45.626195697986816" lon="11.205303322886678"><ele>410.5</ele><time>2026-04-07T12:37:10.999Z</time></trkpt><trkpt lat="45.62612884048494" lon="11.2049754415122"><ele>406.0</ele><time>2026-04-07T12:37:11.999Z</time></trkpt><trkpt lat="45.626090583310585" lon="11.204644394845568"><ele>406.0</ele><time>2026-04-07T12:37:12.999Z</time></trkpt><trkpt lat="45.62606406337963" lon="11.204325643195805"><ele>406.0</ele><time>2026-04-07T12:37:13.999Z</time></trkpt><trkpt lat="45.62601109998461" lon="11.204022039089972"><ele>406.0</ele><time>2026-04-07T12:37:14.999Z</time></trkpt><trkpt lat="45.62594965122372" lon="11.203762242212141"><ele>408.33333333333337</ele><time>2026-04-07T12:37:15.999Z</time></trkpt><trkpt lat="45.62591061885997" lon="11.203525797891235"><ele>410.66666666666663</ele><time>2026-04-07T12:37:16.999Z</time></trkpt><trkpt lat="45.62590084119999" lon="11.203315065997446"><ele>413.0</ele><time>2026-04-07T12:37:17.999Z</time></trkpt><trkpt lat="45.62591440693066" lon="11.203094614043735"><ele>413.75</ele><time>2026-04-07T12:37:18.999Z</time></trkpt><trkpt lat="45.62591993034923" lon="11.20286278319457"><ele>414.5</ele><time>2026-04-07T12:37:19.999Z</time></trkpt><trkpt lat="45.625894468929864" lon="11.202669080629006"><ele>415.25</ele><time>2026-04-07T12:37:20.999Z</time></trkpt><trkpt lat="45.62586575154068" lon="11.202512203805304"><ele>416.0</ele><time>2026-04-07T12:37:21.999Z</time></trkpt><trkpt lat="45.62582804535474" lon="11.202400652530478"><ele>423.75</ele><time>2026-04-07T12:37:22.999Z</time></trkpt><trkpt lat="45.62575388364799" lon="11.202324921052815"><ele>431.5</ele><time>2026-04-07T12:37:23.999Z</time></trkpt><trkpt lat="45.62562287452582" lon="11.202256830520957"><ele>439.25</ele><time>2026-04-07T12:37:24.999Z</time></trkpt><trkpt lat="45.62548974319497" lon="11.202134040351812"><ele>447.0</ele><time>2026-04-07T12:37:25.999Z</time></trkpt><trkpt lat="45.62534565246825" lon="11.20197242276426"><ele>438.0</ele><time>2026-04-07T12:37:26.999Z</time></trkpt><trkpt lat="45.62516580489855" lon="11.201853946806013"><ele>429.0</ele><time>2026-04-07T12:37:27.999Z</time></trkpt><trkpt lat="45.62502642570443" lon="11.201719060509681"><ele>420.0</ele><time>2026-04-07T12:37:28.999Z</time></trkpt><trkpt lat="45.624899256647424" lon="11.201628654326703"><ele>420.0</ele><time>2026-04-07T12:37:29.999Z</time></trkpt><trkpt lat="45.62478191517209" lon="11.201605596270475"><ele>420.0</ele><time>2026-04-07T12:37:30.999Z</time></trkpt><trkpt lat="45.62470617168014" lon="11.201542198537993"><ele>420.0</ele><time>2026-04-07T12:37:31.999Z</time></trkpt><trkpt lat="45.6246605100409" lon="11.201449667053033"><ele>420.0</ele><time>2026-04-07T12:37:32.999Z</time></trkpt><trkpt lat="45.62463579218878" lon="11.20131159552501"><ele>420.0</ele><time>2026-04-07T12:37:33.999Z</time></trkpt><trkpt lat="45.624652718764715" lon="11.201137742242052"><ele>419.75</ele><time>2026-04-07T12:37:34.999Z</time></trkpt><trkpt lat="45.62463277793281" lon="11.20098990947081"><ele>419.5</ele><time>2026-04-07T12:37:35.999Z</time></trkpt><trkpt lat="45.624512502942785" lon="11.200879139912225"><ele>419.25</ele><time>2026-04-07T12:37:36.999Z</time></trkpt><trkpt lat="45.624374675751994" lon="11.200723686278009"><ele>419.0</ele><time>2026-04-07T12:37:37.999Z</time></trkpt><trkpt lat="45.624243771339614" lon="11.200532111781191"><ele>429.66666666666663</ele><time>2026-04-07T12:37:38.999Z</time></trkpt><trkpt lat="45.624082353317704" lon="11.20036821529192"><ele>440.33333333333337</ele><time>2026-04-07T12:37:39.999Z</time></trkpt><trkpt lat="45.6239325344389" lon="11.200195237863493"><ele>451.0</ele><time>2026-04-07T12:37:40.999Z</time></trkpt><trkpt lat="45.62377850827287" lon="11.200049869188542"><ele>448.5</ele><time>2026-04-07T12:37:41.999Z</time></trkpt><trkpt lat="45.62363951730386" lon="11.199946801528405"><ele>446.0</ele><time>2026-04-07T12:37:42.999Z</time></trkpt><trkpt lat="45.62352161073752" lon="11.199854807320108"><ele>443.5</ele><time>2026-04-07T12:37:43.999Z</time></trkpt><trkpt lat="45.62343550540333" lon="11.199742730297459"><ele>441.0</ele><time>2026-04-07T12:37:44.999Z</time></trkpt><trkpt lat="45.6233580934554" lon="11.199579309202665"><ele>441.0</ele><time>2026-04-07T12:37:45.999Z</time></trkpt><trkpt lat="45.623264304498974" lon="11.199369342129353"><ele>441.0</ele><time>2026-04-07T12:37:46.999Z</time></trkpt><trkpt lat="45.62315238288365" lon="11.199167417020098"><ele>441.0</ele><time>2026-04-07T12:37:47.999Z</time></trkpt><trkpt lat="45.62308398492076" lon="11.198976300236652"><ele>447.25</ele><time>2026-04-07T12:37:48.999Z</time></trkpt><trkpt lat="45.62304877782581" lon="11.198825905424696"><ele>453.5</ele><time>2026-04-07T12:37:49.999Z</time></trkpt><trkpt lat="45.623044487932425" lon="11.198662056378307"><ele>459.75</ele><time>2026-04-07T12:37:50.999Z</time></trkpt><trkpt lat="45.62305749362854" lon="11.198445434332454"><ele>466.0</ele><time>2026-04-07T12:37:51.999Z</time></trkpt><trkpt lat="45.6230426885734" lon="11.198208574551012"><ele>474.0</ele><time>2026-04-07T12:37:52.999Z</time></trkpt><trkpt lat="45.623017609006084" lon="11.197974380693923"><ele>482.0</ele><time>2026-04-07T12:37:53.999Z</time></trkpt><trkpt lat="45.62294179691039" lon="11.197716100555336"><ele>490.0</ele><time>2026-04-07T12:37:54.999Z</time></trkpt><trkpt lat="45.62285261410077" lon="11.19748628019853"><ele>482.75</ele><time>2026-04-07T12:37:55.999Z</time></trkpt><trkpt lat="45.62274410244352" lon="11.197296673777386"><ele>475.5</ele><time>2026-04-07T12:37:56.999Z</time></trkpt><trkpt lat="45.622642423141066" lon="11.197147282110452"><ele>468.25</ele><time>2026-04-07T12:37:57.999Z</time></trkpt><trkpt lat="45.62257526999931" lon="11.197017951859214"><ele>461.0</ele><time>2026-04-07T12:37:58.999Z</time></trkpt><trkpt lat="45.62253391193156" lon="11.196905752568824"><ele>461.0</ele><time>2026-04-07T12:37:59.999Z</time></trkpt><trkpt lat="45.62254784391701" lon="11.196804264015245"><ele>461.0</ele><time>2026-04-07T12:38:00.999Z</time></trkpt><trkpt lat="45.622557971080234" lon="11.196685811207697"><ele>461.0</ele><time>2026-04-07T12:38:01.999Z</time></trkpt><trkpt lat="45.62252403466504" lon="11.196579519189363"><ele>461.0</ele><time>2026-04-07T12:38:02.999Z</time></trkpt><trkpt lat="45.62238294245452" lon="11.196567952252217"><ele>461.0</ele><time>2026-04-07T12:38:03.999Z</time></trkpt><trkpt lat="45.62225087467907" lon="11.196559432791595"><ele>461.75</ele><time>2026-04-07T12:38:04.999Z</time></trkpt><trkpt lat="45.62211427988525" lon="11.196487352079288"><ele>462.5</ele><time>2026-04-07T12:38:05.999Z</time></trkpt><trkpt lat="45.621972190637614" lon="11.196411271623333"><ele>463.25</ele><time>2026-04-07T12:38:06.999Z</time></trkpt><trkpt lat="45.6218475154998" lon="11.19631268568564"><ele>464.0</ele><time>2026-04-07T12:38:07.999Z</time></trkpt><trkpt lat="45.621731082098314" lon="11.19617658778152"><ele>464.0</ele><time>2026-04-07T12:38:08.999Z</time></trkpt><trkpt lat="45.62161814437679" lon="11.196036209679214"><ele>464.0</ele><time>2026-04-07T12:38:09.999Z</time></trkpt><trkpt lat="45.62153234251012" lon="11.19592956061044"><ele>464.0</ele><time>2026-04-07T12:38:10.999Z</time></trkpt><trkpt lat="45.621478120805904" lon="11.19580784834"><ele>464.0</ele><time>2026-04-07T12:38:11.999Z</time></trkpt><trkpt lat="45.62146758062387" lon="11.195613542859235"><ele>468.4</ele><time>2026-04-07T12:38:12.999Z</time></trkpt><trkpt lat="45.62145819855706" lon="11.19541946945486"><ele>472.79999999999995</ele><time>2026-04-07T12:38:13.999Z</time></trkpt><trkpt lat="45.62144222917363" lon="11.195263147283312"><ele>477.20000000000005</ele><time>2026-04-07T12:38:14.999Z</time></trkpt><trkpt lat="45.621425233218204" lon="11.195134993381764"><ele>481.6</ele><time>2026-04-07T12:38:15.999Z</time></trkpt><trkpt lat="45.62140199852568" lon="11.195000553470548"><ele>486.0</ele><time>2026-04-07T12:38:16.998Z</time></trkpt><trkpt lat="45.621348479976234" lon="11.194814912216192"><ele>491.33333333333337</ele><time>2026-04-07T12:38:17.998Z</time></trkpt><trkpt lat="45.62131331526804" lon="11.194568682940314"><ele>496.6666666666667</ele><time>2026-04-07T12:38:18.998Z</time></trkpt><trkpt lat="45.62125720282317" lon="11.194304387546525"><ele>502.0</ele><time>2026-04-07T12:38:19.998Z</time></trkpt><trkpt lat="45.62113965794392" lon="11.194038032652955"><ele>495.6666666666667</ele><time>2026-04-07T12:38:20.998Z</time></trkpt><trkpt lat="45.62100000244762" lon="11.193757591967321"><ele>489.33333333333337</ele><time>2026-04-07T12:38:21.998Z</time></trkpt><trkpt lat="45.62089754353911" lon="11.193516054916445"><ele>483.0</ele><time>2026-04-07T12:38:22.998Z</time></trkpt><trkpt lat="45.620793430544865" lon="11.193345724813057"><ele>483.0</ele><time>2026-04-07T12:38:23.998Z</time></trkpt><trkpt lat="45.620696961611365" lon="11.193208782664875"><ele>483.0</ele><time>2026-04-07T12:38:24.998Z</time></trkpt><trkpt lat="45.62057461127768" lon="11.193114691269653"><ele>483.0</ele><time>2026-04-07T12:38:25.998Z</time></trkpt><trkpt lat="45.62043628457971" lon="11.193032132507858"><ele>483.0</ele><time>2026-04-07T12:38:26.998Z</time></trkpt><trkpt lat="45.62032734294715" lon="11.19293806790165"><ele>483.25</ele><time>2026-04-07T12:38:27.998Z</time></trkpt><trkpt lat="45.620253339582376" lon="11.192798389454149"><ele>483.5</ele><time>2026-04-07T12:38:28.998Z</time></trkpt><trkpt lat="45.62020223799785" lon="11.192620308260725"><ele>483.75</ele><time>2026-04-07T12:38:30Z</time></trkpt><trkpt lat="45.62018194298241" lon="11.192404341252795"><ele>484.0</ele><time>2026-04-07T12:38:31Z</time></trkpt><trkpt lat="45.62020969174131" lon="11.192163299961798"><ele>484.0</ele><time>2026-04-07T12:38:32Z</time></trkpt><trkpt lat="45.62021184782875" lon="11.191894280242796"><ele>484.0</ele><time>2026-04-07T12:38:33Z</time></trkpt><trkpt lat="45.62023708135959" lon="11.19164260190061"><ele>484.0</ele><time>2026-04-07T12:38:34Z</time></trkpt><trkpt lat="45.62028722308015" lon="11.19142789058408"><ele>488.5</ele><time>2026-04-07T12:38:35Z</time></trkpt><trkpt lat="45.62034212595209" lon="11.191231135426902"><ele>493.0</ele><time>2026-04-07T12:38:36Z</time></trkpt><trkpt lat="45.6203922835812" lon="11.191052576200684"><ele>497.5</ele><time>2026-04-07T12:38:37Z</time></trkpt><trkpt lat="45.62050439090468" lon="11.190919044418195"><ele>502.0</ele><time>2026-04-07T12:38:38Z</time></trkpt><trkpt lat="45.620629207216524" lon="11.190724351600227"><ele>497.6666666666667</ele><time>2026-04-07T12:38:39Z</time></trkpt><trkpt lat="45.62078569713734" lon="11.190530062752515"><ele>493.33333333333337</ele><time>2026-04-07T12:38:40Z</time></trkpt><trkpt lat="45.62094563313302" lon="11.190307089743998"><ele>489.0</ele><time>2026-04-07T12:38:41Z</time></trkpt><trkpt lat="45.621087431844856" lon="11.190049104613413"><ele>497.5</ele><time>2026-04-07T12:38:42Z</time></trkpt><trkpt lat="45.62124535580699" lon="11.189789409124092"><ele>506.0</ele><time>2026-04-07T12:38:43Z</time></trkpt><trkpt lat="45.621447774612705" lon="11.189599513301575"><ele>506.0</ele><time>2026-04-07T12:38:44Z</time></trkpt><trkpt lat="45.621619011143565" lon="11.189366245416583"><ele>506.0</ele><time>2026-04-07T12:38:45Z</time></trkpt><trkpt lat="45.621769681504546" lon="11.189168581436615"><ele>506.0</ele><time>2026-04-07T12:38:46Z</time></trkpt><trkpt lat="45.62191284229047" lon="11.18900694590212"><ele>510.25</ele><time>2026-04-07T12:38:47Z</time></trkpt><trkpt lat="45.6220490859592" lon="11.18888166796245"><ele>514.5</ele><time>2026-04-07T12:38:48Z</time></trkpt><trkpt lat="45.62216268501364" lon="11.188758961784277"><ele>518.75</ele><time>2026-04-07T12:38:49Z</time></trkpt><trkpt lat="45.62223949614554" lon="11.188601778813902"><ele>523.0</ele><time>2026-04-07T12:38:50Z</time></trkpt><trkpt lat="45.62227621148667" lon="11.188402605441047"><ele>523.0</ele><time>2026-04-07T12:38:51Z</time></trkpt><trkpt lat="45.62228808717661" lon="11.188185921704742"><ele>523.0</ele><time>2026-04-07T12:38:52Z</time></trkpt><trkpt lat="45.622277574517966" lon="11.188020535740229"><ele>523.0</ele><time>2026-04-07T12:38:53Z</time></trkpt><trkpt lat="45.62229655172416" lon="11.187909379274759"><ele>523.0</ele><time>2026-04-07T12:38:54Z</time></trkpt><trkpt lat="45.62234922776884" lon="11.187796152319555"><ele>523.0</ele><time>2026-04-07T12:38:56Z</time></trkpt><trkpt lat="45.6224192000699" lon="11.187822985897025"><ele>523.0</ele><time>2026-04-07T12:38:57Z</time></trkpt><trkpt lat="45.62246316668733" lon="11.18791408982164"><ele>523.0</ele><time>2026-04-07T12:38:58Z</time></trkpt><trkpt lat="45.62241796309487" lon="11.188039681655574"><ele>523.0</ele><time>2026-04-07T12:38:59Z</time></trkpt><trkpt lat="45.62236985413711" lon="11.188201354443791"><ele>523.0</ele><time>2026-04-07T12:39:00Z</time></trkpt><trkpt lat="45.62234936784395" lon="11.188433124341355"><ele>523.0</ele><time>2026-04-07T12:39:01Z</time></trkpt><trkpt lat="45.622336182069176" lon="11.188669195177487"><ele>523.0</ele><time>2026-04-07T12:39:02Z</time></trkpt><trkpt lat="45.622259758506225" lon="11.188878498172267"><ele>523.0</ele><time>2026-04-07T12:39:03Z</time></trkpt><trkpt lat="45.622160629588656" lon="11.189069224430037"><ele>527.3333333333334</ele><time>2026-04-07T12:39:04Z</time></trkpt><trkpt lat="45.622029826481445" lon="11.189233126038394"><ele>531.6666666666666</ele><time>2026-04-07T12:39:05Z</time></trkpt><trkpt lat="45.621917005185715" lon="11.189444994689119"><ele>536.0</ele><time>2026-04-07T12:39:06Z</time></trkpt><trkpt lat="45.62181161668171" lon="11.189623782135017"><ele>531.8</ele><time>2026-04-07T12:39:07Z</time></trkpt><trkpt lat="45.62171506857032" lon="11.189759835118616"><ele>527.6</ele><time>2026-04-07T12:39:08Z</time></trkpt><trkpt lat="45.62164136408662" lon="11.189891090196314"><ele>523.4</ele><time>2026-04-07T12:39:09Z</time></trkpt><trkpt lat="45.62157858193968" lon="11.189960525155799"><ele>519.2</ele><time>2026-04-07T12:39:10Z</time></trkpt><trkpt lat="45.62160854940419" lon="11.190106614463767"><ele>515.0</ele><time>2026-04-07T12:39:12Z</time></trkpt><trkpt lat="45.62168207969961" lon="11.190140321528116"><ele>515.0</ele><time>2026-04-07T12:39:13Z</time></trkpt><trkpt lat="45.62175490682633" lon="11.19013980753176"><ele>515.0</ele><time>2026-04-07T12:39:14Z</time></trkpt><trkpt lat="45.62182289173812" lon="11.189975441729283"><ele>515.0</ele><time>2026-04-07T12:39:15Z</time></trkpt><trkpt lat="45.621880822631155" lon="11.189790129260993"><ele>515.0</ele><time>2026-04-07T12:39:16Z</time></trkpt><trkpt lat="45.62198477096855" lon="11.189592613418755"><ele>517.6666666666666</ele><time>2026-04-07T12:39:16.999Z</time></trkpt><trkpt lat="45.622117341883964" lon="11.189397750232171"><ele>520.3333333333334</ele><time>2026-04-07T12:39:17.999Z</time></trkpt><trkpt lat="45.62228700303053" lon="11.18921798807693"><ele>523.0</ele><time>2026-04-07T12:39:18.999Z</time></trkpt><trkpt lat="45.62243797364309" lon="11.188993291625446"><ele>523.0</ele><time>2026-04-07T12:39:19.999Z</time></trkpt><trkpt lat="45.62256098889433" lon="11.188751967307995"><ele>523.0</ele><time>2026-04-07T12:39:20.999Z</time></trkpt><trkpt lat="45.62265279602986" lon="11.188485931795839"><ele>523.0</ele><time>2026-04-07T12:39:21.999Z</time></trkpt><trkpt lat="45.62272782360983" lon="11.188274042958552"><ele>527.6666666666667</ele><time>2026-04-07T12:39:22.999Z</time></trkpt><trkpt lat="45.62282387704551" lon="11.188127753650672"><ele>532.3333333333334</ele><time>2026-04-07T12:39:23.999Z</time></trkpt><trkpt lat="45.62293541970343" lon="11.188013434184672"><ele>537.0</ele><time>2026-04-07T12:39:24.999Z</time></trkpt><trkpt lat="45.62307862494877" lon="11.187862742809157"><ele>537.0</ele><time>2026-04-07T12:39:25.999Z</time></trkpt><trkpt lat="45.62324949948941" lon="11.187724385491004"><ele>537.0</ele><time>2026-04-07T12:39:26.999Z</time></trkpt><trkpt lat="45.62341608468514" lon="11.187558137708669"><ele>537.0</ele><time>2026-04-07T12:39:27.999Z</time></trkpt><trkpt lat="45.6235675239099" lon="11.187414302826822"><ele>539.3333333333334</ele><time>2026-04-07T12:39:28.999Z</time></trkpt><trkpt lat="45.623746704330195" lon="11.187341329685333"><ele>541.6666666666667</ele><time>2026-04-07T12:39:29.999Z</time></trkpt><trkpt lat="45.62390942799023" lon="11.187239976400027"><ele>544.0</ele><time>2026-04-07T12:39:30.999Z</time></trkpt><trkpt lat="45.62405474452557" lon="11.187156017878443"><ele>544.0</ele><time>2026-04-07T12:39:31.999Z</time></trkpt><trkpt lat="45.624167605242576" lon="11.187038381064784"><ele>544.0</ele><time>2026-04-07T12:39:32.999Z</time></trkpt><trkpt lat="45.62426135733171" lon="11.18688496351035"><ele>544.0</ele><time>2026-04-07T12:39:33.999Z</time></trkpt><trkpt lat="45.62432405935259" lon="11.186702061039991"><ele>544.0</ele><time>2026-04-07T12:39:34.999Z</time></trkpt><trkpt lat="45.624423955060315" lon="11.186605766725217"><ele>546.3333333333334</ele><time>2026-04-07T12:39:35.999Z</time></trkpt><trkpt lat="45.62450256128393" lon="11.18643776896823"><ele>548.6666666666666</ele><time>2026-04-07T12:39:36.999Z</time></trkpt><trkpt lat="45.624674916786425" lon="11.186430697585637"><ele>551.0</ele><time>2026-04-07T12:39:37.999Z</time></trkpt><trkpt lat="45.624833532153495" lon="11.186404228608895"><ele>551.0</ele><time>2026-04-07T12:39:38.999Z</time></trkpt><trkpt lat="45.62499436684419" lon="11.186416510390615"><ele>551.0</ele><time>2026-04-07T12:39:39.999Z</time></trkpt><trkpt lat="45.625143841542055" lon="11.186457316014343"><ele>551.0</ele><time>2026-04-07T12:39:40.999Z</time></trkpt><trkpt lat="45.62527462449088" lon="11.186457078145178"><ele>551.0</ele><time>2026-04-07T12:39:41.999Z</time></trkpt><trkpt lat="45.62539062573576" lon="11.18642030394662"><ele>555.5</ele><time>2026-04-07T12:39:42.999Z</time></trkpt><trkpt lat="45.62549995342834" lon="11.18630193281026"><ele>560.0</ele><time>2026-04-07T12:39:43.999Z</time></trkpt><trkpt lat="45.625577903698805" lon="11.186112993840956"><ele>564.5</ele><time>2026-04-07T12:39:44.999Z</time></trkpt><trkpt lat="45.62566485044826" lon="11.185927499178625"><ele>569.0</ele><time>2026-04-07T12:39:45.999Z</time></trkpt><trkpt lat="45.6257634951872" lon="11.185773565459781"><ele>570.0</ele><time>2026-04-07T12:39:46.999Z</time></trkpt><trkpt lat="45.625872732781566" lon="11.185646807846133"><ele>571.0</ele><time>2026-04-07T12:39:47.999Z</time></trkpt><trkpt lat="45.62599880306395" lon="11.185530071647637"><ele>572.0</ele><time>2026-04-07T12:39:48.999Z</time></trkpt><trkpt lat="45.626140050183956" lon="11.18546039835893"><ele>573.0</ele><time>2026-04-07T12:39:49.999Z</time></trkpt><trkpt lat="45.62628277184352" lon="11.185416252040367"><ele>577.0</ele><time>2026-04-07T12:39:50.999Z</time></trkpt><trkpt lat="45.626398110239805" lon="11.185281287681445"><ele>581.0</ele><time>2026-04-07T12:39:51.999Z</time></trkpt><trkpt lat="45.62651974879175" lon="11.18508996078826"><ele>585.0</ele><time>2026-04-07T12:39:52.999Z</time></trkpt><trkpt lat="45.62665169858887" lon="11.18489803025539"><ele>582.6666666666666</ele><time>2026-04-07T12:39:53.999Z</time></trkpt><trkpt lat="45.62678140228357" lon="11.184685435898864"><ele>580.3333333333333</ele><time>2026-04-07T12:39:54.999Z</time></trkpt><trkpt lat="45.62692888374125" lon="11.184505706259728"><ele>578.0</ele><time>2026-04-07T12:39:55.999Z</time></trkpt><trkpt lat="45.627064847859785" lon="11.184338175631426"><ele>584.0</ele><time>2026-04-07T12:39:56.999Z</time></trkpt><trkpt lat="45.627159827987995" lon="11.184157542842565"><ele>590.0</ele><time>2026-04-07T12:39:57.999Z</time></trkpt><trkpt lat="45.62724288737641" lon="11.183976655256705"><ele>596.0</ele><time>2026-04-07T12:39:58.999Z</time></trkpt><trkpt lat="45.627301429810956" lon="11.183756907061994"><ele>596.0</ele><time>2026-04-07T12:39:59.999Z</time></trkpt><trkpt lat="45.62735479447875" lon="11.183525778002164"><ele>596.0</ele><time>2026-04-07T12:40:00.999Z</time></trkpt><trkpt lat="45.62739096750541" lon="11.183320855894975"><ele>596.0</ele><time>2026-04-07T12:40:01.999Z</time></trkpt><trkpt lat="45.62746307468665" lon="11.1831861677516"><ele>596.0</ele><time>2026-04-07T12:40:02.999Z</time></trkpt><trkpt lat="45.62755574011384" lon="11.183116217242672"><ele>598.25</ele><time>2026-04-07T12:40:03.999Z</time></trkpt><trkpt lat="45.62765902144598" lon="11.183062293626536"><ele>600.5</ele><time>2026-04-07T12:40:04.999Z</time></trkpt><trkpt lat="45.627789363736554" lon="11.183064558557847"><ele>602.75</ele><time>2026-04-07T12:40:05.999Z</time></trkpt><trkpt lat="45.627962043420766" lon="11.183039006756047"><ele>605.0</ele><time>2026-04-07T12:40:06.999Z</time></trkpt><trkpt lat="45.628118185904455" lon="11.182937225489324"><ele>607.0</ele><time>2026-04-07T12:40:07.999Z</time></trkpt><trkpt lat="45.6282772379905" lon="11.182839459960066"><ele>609.0</ele><time>2026-04-07T12:40:08.999Z</time></trkpt><trkpt lat="45.62842281215143" lon="11.182753566033039"><ele>611.0</ele><time>2026-04-07T12:40:09.999Z</time></trkpt><trkpt lat="45.62853625550801" lon="11.182664946008076"><ele>611.0</ele><time>2026-04-07T12:40:10.999Z</time></trkpt><trkpt lat="45.6286225704868" lon="11.182576258563529"><ele>611.0</ele><time>2026-04-07T12:40:11.999Z</time></trkpt><trkpt lat="45.628686680102774" lon="11.18253931289185"><ele>611.0</ele><time>2026-04-07T12:40:12.999Z</time></trkpt><trkpt lat="45.6287312463117" lon="11.182641836475394"><ele>611.0</ele><time>2026-04-07T12:40:15.999Z</time></trkpt><trkpt lat="45.62866420286827" lon="11.18272164312452"><ele>611.0</ele><time>2026-04-07T12:40:16.999Z</time></trkpt><trkpt lat="45.62854265102191" lon="11.182753062097804"><ele>611.0</ele><time>2026-04-07T12:40:17.999Z</time></trkpt><trkpt lat="45.62840825065675" lon="11.182856108661824"><ele>611.0</ele><time>2026-04-07T12:40:18.999Z</time></trkpt><trkpt lat="45.62824918671353" lon="11.1829345170382"><ele>611.0</ele><time>2026-04-07T12:40:19.999Z</time></trkpt><trkpt lat="45.6280815377875" lon="11.183047029038748"><ele>611.0</ele><time>2026-04-07T12:40:20.999Z</time></trkpt><trkpt lat="45.627949569436986" lon="11.183164157371513"><ele>611.0</ele><time>2026-04-07T12:40:21.998Z</time></trkpt><trkpt lat="45.627824964574636" lon="11.183202655532362"><ele>611.0</ele><time>2026-04-07T12:40:22.998Z</time></trkpt><trkpt lat="45.627708082027766" lon="11.183253115313365"><ele>611.0</ele><time>2026-04-07T12:40:23.998Z</time></trkpt><trkpt lat="45.62760802294352" lon="11.183300599958548"><ele>607.25</ele><time>2026-04-07T12:40:24.998Z</time></trkpt><trkpt lat="45.627532335892205" lon="11.183417640196625"><ele>603.5</ele><time>2026-04-07T12:40:25.998Z</time></trkpt><trkpt lat="45.62749741905016" lon="11.18357672468988"><ele>599.75</ele><time>2026-04-07T12:40:26.998Z</time></trkpt><trkpt lat="45.62749677877479" lon="11.183777031637307"><ele>596.0</ele><time>2026-04-07T12:40:27.998Z</time></trkpt><trkpt lat="45.6275185966833" lon="11.184004778206829"><ele>599.75</ele><time>2026-04-07T12:40:28.998Z</time></trkpt><trkpt lat="45.62753847921649" lon="11.18421455485745"><ele>603.5</ele><time>2026-04-07T12:40:29.998Z</time></trkpt><trkpt lat="45.627528182005214" lon="11.184398027567534"><ele>607.25</ele><time>2026-04-07T12:40:30.998Z</time></trkpt><trkpt lat="45.6274518712199" lon="11.184564074213286"><ele>611.0</ele><time>2026-04-07T12:40:31.998Z</time></trkpt><trkpt lat="45.62735293834611" lon="11.184753925133931"><ele>620.0</ele><time>2026-04-07T12:40:32.998Z</time></trkpt><trkpt lat="45.627244899431446" lon="11.18495089689852"><ele>629.0</ele><time>2026-04-07T12:40:33.998Z</time></trkpt><trkpt lat="45.62714397985251" lon="11.185114506145773"><ele>638.0</ele><time>2026-04-07T12:40:34.998Z</time></trkpt><trkpt lat="45.62705466202291" lon="11.185234863949054"><ele>638.0</ele><time>2026-04-07T12:40:36Z</time></trkpt><trkpt lat="45.627002598409845" lon="11.185390436974874"><ele>638.0</ele><time>2026-04-07T12:40:37Z</time></trkpt><trkpt lat="45.62697431839466" lon="11.185608163220282"><ele>638.0</ele><time>2026-04-07T12:40:38Z</time></trkpt><trkpt lat="45.62696341963856" lon="11.185853938860063"><ele>638.0</ele><time>2026-04-07T12:40:39Z</time></trkpt><trkpt lat="45.62696506072783" lon="11.186114195736447"><ele>632.0</ele><time>2026-04-07T12:40:40Z</time></trkpt><trkpt lat="45.62694708154802" lon="11.186347419539903"><ele>626.0</ele><time>2026-04-07T12:40:41Z</time></trkpt><trkpt lat="45.626888783570294" lon="11.186549694739043"><ele>620.0</ele><time>2026-04-07T12:40:42Z</time></trkpt><trkpt lat="45.6267750503083" lon="11.186699598361468"><ele>620.0</ele><time>2026-04-07T12:40:43Z</time></trkpt><trkpt lat="45.62666523921093" lon="11.186839068594589"><ele>620.0</ele><time>2026-04-07T12:40:44Z</time></trkpt><trkpt lat="45.62658619530926" lon="11.186957500059707"><ele>620.0</ele><time>2026-04-07T12:40:45Z</time></trkpt><trkpt lat="45.62652194007762" lon="11.1871041483471"><ele>620.0</ele><time>2026-04-07T12:40:46Z</time></trkpt><trkpt lat="45.62650246298197" lon="11.187318711779533"><ele>626.6666666666666</ele><time>2026-04-07T12:40:47Z</time></trkpt><trkpt lat="45.62644283144714" lon="11.187534000289123"><ele>633.3333333333334</ele><time>2026-04-07T12:40:48Z</time></trkpt><trkpt lat="45.62633027812548" lon="11.187753274133344"><ele>640.0</ele><time>2026-04-07T12:40:49Z</time></trkpt><trkpt lat="45.62625694565091" lon="11.188005565050426"><ele>633.6666666666667</ele><time>2026-04-07T12:40:50Z</time></trkpt><trkpt lat="45.62620258978054" lon="11.188269647383754"><ele>627.3333333333334</ele><time>2026-04-07T12:40:51Z</time></trkpt><trkpt lat="45.626154040564124" lon="11.188496063344903"><ele>621.0</ele><time>2026-04-07T12:40:52Z</time></trkpt><trkpt lat="45.62609110313973" lon="11.18867861464151"><ele>621.0</ele><time>2026-04-07T12:40:53Z</time></trkpt><trkpt lat="45.62599241672296" lon="11.188833642051994"><ele>621.0</ele><time>2026-04-07T12:40:54Z</time></trkpt><trkpt lat="45.62587926550335" lon="11.188987510597322"><ele>621.0</ele><time>2026-04-07T12:40:55Z</time></trkpt><trkpt lat="45.62576752603056" lon="11.189152253513491"><ele>628.3333333333334</ele><time>2026-04-07T12:40:56Z</time></trkpt><trkpt lat="45.62562961754224" lon="11.18930856857973"><ele>635.6666666666667</ele><time>2026-04-07T12:40:57Z</time></trkpt><trkpt lat="45.62551514866193" lon="11.189477326227996"><ele>643.0</ele><time>2026-04-07T12:40:58Z</time></trkpt><trkpt lat="45.62541731338347" lon="11.189660382205945"><ele>640.0</ele><time>2026-04-07T12:40:59Z</time></trkpt><trkpt lat="45.62534443584887" lon="11.189889722962599"><ele>637.0</ele><time>2026-04-07T12:41:00Z</time></trkpt><trkpt lat="45.62529600515583" lon="11.190133284325892"><ele>634.0</ele><time>2026-04-07T12:41:01Z</time></trkpt><trkpt lat="45.62521296136831" lon="11.190320591827078"><ele>634.0</ele><time>2026-04-07T12:41:02Z</time></trkpt><trkpt lat="45.625126688590214" lon="11.190463870919896"><ele>634.0</ele><time>2026-04-07T12:41:03Z</time></trkpt><trkpt lat="45.62505223470489" lon="11.190590292835541"><ele>634.0</ele><time>2026-04-07T12:41:04Z</time></trkpt><trkpt lat="45.624988747758984" lon="11.190705601321518"><ele>634.0</ele><time>2026-04-07T12:41:05Z</time></trkpt><trkpt lat="45.62495313711941" lon="11.190850502636161"><ele>636.4</ele><time>2026-04-07T12:41:06Z</time></trkpt><trkpt lat="45.62494123579417" lon="11.191032838874289"><ele>638.8</ele><time>2026-04-07T12:41:07Z</time></trkpt><trkpt lat="45.624951089375685" lon="11.191192927393066"><ele>641.1999999999999</ele><time>2026-04-07T12:41:08Z</time></trkpt><trkpt lat="45.62497334224157" lon="11.19134269945225"><ele>643.5999999999999</ele><time>2026-04-07T12:41:09Z</time></trkpt><trkpt lat="45.62499719925162" lon="11.19148380132598"><ele>646.0</ele><time>2026-04-07T12:41:10Z</time></trkpt><trkpt lat="45.6250489005011" lon="11.19160071012552"><ele>646.5</ele><time>2026-04-07T12:41:10.999Z</time></trkpt><trkpt lat="45.62512546447936" lon="11.19169110754143"><ele>647.0</ele><time>2026-04-07T12:41:11.999Z</time></trkpt><trkpt lat="45.625249862907836" lon="11.191774699692267"><ele>647.5</ele><time>2026-04-07T12:41:12.999Z</time></trkpt><trkpt lat="45.62539432901829" lon="11.19189196729798"><ele>648.0</ele><time>2026-04-07T12:41:13.999Z</time></trkpt><trkpt lat="45.625537674443166" lon="11.192059677204856"><ele>651.6666666666666</ele><time>2026-04-07T12:41:14.999Z</time></trkpt><trkpt lat="45.62568292765642" lon="11.192253208379613"><ele>655.3333333333333</ele><time>2026-04-07T12:41:15.999Z</time></trkpt><trkpt lat="45.625809756020914" lon="11.192465385142762"><ele>659.0</ele><time>2026-04-07T12:41:16.999Z</time></trkpt><trkpt lat="45.62592551798899" lon="11.192681346717267"><ele>659.0</ele><time>2026-04-07T12:41:17.999Z</time></trkpt><trkpt lat="45.626024979350056" lon="11.192936186340111"><ele>659.0</ele><time>2026-04-07T12:41:18.999Z</time></trkpt><trkpt lat="45.62612905109767" lon="11.19321600125074"><ele>659.0</ele><time>2026-04-07T12:41:19.999Z</time></trkpt><trkpt lat="45.626254604116774" lon="11.193480746581349"><ele>665.6666666666666</ele><time>2026-04-07T12:41:20.999Z</time></trkpt><trkpt lat="45.62636189098107" lon="11.193736722968122"><ele>672.3333333333334</ele><time>2026-04-07T12:41:21.999Z</time></trkpt><trkpt lat="45.6264736530016" lon="11.19396810211407"><ele>679.0</ele><time>2026-04-07T12:41:22.999Z</time></trkpt><trkpt lat="45.62657054001889" lon="11.194134765915418"><ele>679.0</ele><time>2026-04-07T12:41:23.999Z</time></trkpt><trkpt lat="45.62667701134562" lon="11.194271307735812"><ele>679.0</ele><time>2026-04-07T12:41:24.999Z</time></trkpt><trkpt lat="45.62681105357253" lon="11.19438706008568"><ele>679.0</ele><time>2026-04-07T12:41:25.999Z</time></trkpt><trkpt lat="45.62695591421704" lon="11.194469219479837"><ele>683.25</ele><time>2026-04-07T12:41:26.999Z</time></trkpt><trkpt lat="45.62709411103205" lon="11.19452221042876"><ele>687.5</ele><time>2026-04-07T12:41:27.999Z</time></trkpt><trkpt lat="45.62720700598693" lon="11.194555703335372"><ele>691.75</ele><time>2026-04-07T12:41:28.999Z</time></trkpt><trkpt lat="45.6272775078808" lon="11.194673474877503"><ele>696.0</ele><time>2026-04-07T12:41:29.999Z</time></trkpt><trkpt lat="45.62730386149877" lon="11.194817612261302"><ele>694.25</ele><time>2026-04-07T12:41:30.999Z</time></trkpt><trkpt lat="45.62734721843572" lon="11.194972326290952"><ele>692.5</ele><time>2026-04-07T12:41:31.999Z</time></trkpt><trkpt lat="45.62740981196283" lon="11.195132810719159"><ele>690.75</ele><time>2026-04-07T12:41:32.999Z</time></trkpt><trkpt lat="45.62752715510512" lon="11.195256663291453"><ele>689.0</ele><time>2026-04-07T12:41:33.999Z</time></trkpt><trkpt lat="45.627692118736945" lon="11.19533967494357"><ele>695.3333333333333</ele><time>2026-04-07T12:41:34.999Z</time></trkpt><trkpt lat="45.62787346275495" lon="11.195410724720682"><ele>701.6666666666666</ele><time>2026-04-07T12:41:35.999Z</time></trkpt><trkpt lat="45.6280702198053" lon="11.195481533158512"><ele>708.0</ele><time>2026-04-07T12:41:36.999Z</time></trkpt><trkpt lat="45.62826948828465" lon="11.195538082278532"><ele>708.0</ele><time>2026-04-07T12:41:37.999Z</time></trkpt><trkpt lat="45.628447073849685" lon="11.19562141251344"><ele>708.0</ele><time>2026-04-07T12:41:38.999Z</time></trkpt><trkpt lat="45.62859631812695" lon="11.195711585831143"><ele>708.0</ele><time>2026-04-07T12:41:39.999Z</time></trkpt><trkpt lat="45.628711550982075" lon="11.19582893087096"><ele>709.0</ele><time>2026-04-07T12:41:40.999Z</time></trkpt><trkpt lat="45.628836097172865" lon="11.195918529864633"><ele>710.0</ele><time>2026-04-07T12:41:41.999Z</time></trkpt><trkpt lat="45.62894563755971" lon="11.195999925062042"><ele>711.0</ele><time>2026-04-07T12:41:42.999Z</time></trkpt><trkpt lat="45.62906644535984" lon="11.196021786972725"><ele>712.0</ele><time>2026-04-07T12:41:43.999Z</time></trkpt><trkpt lat="45.629208203906245" lon="11.195998021202678"><ele>712.0</ele><time>2026-04-07T12:41:44.999Z</time></trkpt><trkpt lat="45.62935917426878" lon="11.19597486443403"><ele>712.0</ele><time>2026-04-07T12:41:45.999Z</time></trkpt><trkpt lat="45.629520583419826" lon="11.195936275678331"><ele>712.0</ele><time>2026-04-07T12:41:46.999Z</time></trkpt><trkpt lat="45.629681278230194" lon="11.195848944826688"><ele>713.0</ele><time>2026-04-07T12:41:47.999Z</time></trkpt><trkpt lat="45.62983557526673" lon="11.195789931860157"><ele>714.0</ele><time>2026-04-07T12:41:48.999Z</time></trkpt><trkpt lat="45.629977060689825" lon="11.195782513695342"><ele>715.0</ele><time>2026-04-07T12:41:49.999Z</time></trkpt><trkpt lat="45.630095039763496" lon="11.195838823073867"><ele>716.0</ele><time>2026-04-07T12:41:50.999Z</time></trkpt><trkpt lat="45.63017759335054" lon="11.195870940832842"><ele>716.0</ele><time>2026-04-07T12:41:51.999Z</time></trkpt><trkpt lat="45.630270453998754" lon="11.195811398743597"><ele>716.0</ele><time>2026-04-07T12:41:53.999Z</time></trkpt><trkpt lat="45.63026660568539" lon="11.195704306600755"><ele>716.0</ele><time>2026-04-07T12:41:54.999Z</time></trkpt><trkpt lat="45.630094893734245" lon="11.195543380601567"><ele>716.0</ele><time>2026-04-07T12:41:56.999Z</time></trkpt><trkpt lat="45.62995605427235" lon="11.195449610518958"><ele>727.0</ele><time>2026-04-07T12:41:57.999Z</time></trkpt><trkpt lat="45.62981559375495" lon="11.195308241971443"><ele>738.0</ele><time>2026-04-07T12:41:58.999Z</time></trkpt><trkpt lat="45.629670846430756" lon="11.195133178811393"><ele>749.0</ele><time>2026-04-07T12:41:59.999Z</time></trkpt><trkpt lat="45.62951254505149" lon="11.19496308253264"><ele>750.3333333333333</ele><time>2026-04-07T12:42:00.999Z</time></trkpt><trkpt lat="45.62935867623731" lon="11.194818118313197"><ele>751.6666666666666</ele><time>2026-04-07T12:42:01.999Z</time></trkpt><trkpt lat="45.629231376448026" lon="11.19467537808094"><ele>753.0</ele><time>2026-04-07T12:42:02.999Z</time></trkpt><trkpt lat="45.62914516518452" lon="11.19447715814787"><ele>753.0</ele><time>2026-04-07T12:42:03.999Z</time></trkpt><trkpt lat="45.62904462661086" lon="11.194246391146653"><ele>753.0</ele><time>2026-04-07T12:42:04.999Z</time></trkpt><trkpt lat="45.62893480007088" lon="11.194015786915001"><ele>753.0</ele><time>2026-04-07T12:42:05.999Z</time></trkpt><trkpt lat="45.6288082031727" lon="11.193812627224602"><ele>752.0</ele><time>2026-04-07T12:42:06.999Z</time></trkpt><trkpt lat="45.62866918279634" lon="11.193651733535196"><ele>751.0</ele><time>2026-04-07T12:42:07.999Z</time></trkpt><trkpt lat="45.62857368570046" lon="11.193488078387555"><ele>750.0</ele><time>2026-04-07T12:42:08.999Z</time></trkpt><trkpt lat="45.62849984050905" lon="11.193286657019279"><ele>755.6666666666666</ele><time>2026-04-07T12:42:09.999Z</time></trkpt><trkpt lat="45.62840950379832" lon="11.193046939214279"><ele>761.3333333333333</ele><time>2026-04-07T12:42:10.999Z</time></trkpt><trkpt lat="45.62832631777589" lon="11.192791904310711"><ele>767.0</ele><time>2026-04-07T12:42:11.999Z</time></trkpt><trkpt lat="45.62823129566811" lon="11.192549012963324"><ele>772.0</ele><time>2026-04-07T12:42:12.999Z</time></trkpt><trkpt lat="45.62815695912955" lon="11.192338446153132"><ele>777.0</ele><time>2026-04-07T12:42:13.999Z</time></trkpt><trkpt lat="45.62809737821229" lon="11.192126122731791"><ele>782.0</ele><time>2026-04-07T12:42:14.999Z</time></trkpt><trkpt lat="45.62806256085576" lon="11.191896593869293"><ele>782.0</ele><time>2026-04-07T12:42:15.999Z</time></trkpt><trkpt lat="45.628051927189716" lon="11.191677016171225"><ele>782.0</ele><time>2026-04-07T12:42:16.999Z</time></trkpt><trkpt lat="45.62800538343567" lon="11.19146923317015"><ele>782.0</ele><time>2026-04-07T12:42:17.999Z</time></trkpt><trkpt lat="45.62791100033697" lon="11.19127655908642"><ele>776.25</ele><time>2026-04-07T12:42:18.999Z</time></trkpt><trkpt lat="45.62780236525153" lon="11.191100598166202"><ele>770.5</ele><time>2026-04-07T12:42:19.999Z</time></trkpt><trkpt lat="45.62772024625581" lon="11.190941463035301"><ele>764.75</ele><time>2026-04-07T12:42:20.999Z</time></trkpt><trkpt lat="45.62766838393195" lon="11.190794845546575"><ele>759.0</ele><time>2026-04-07T12:42:21.999Z</time></trkpt><trkpt lat="45.627659998659745" lon="11.190644104255831"><ele>759.0</ele><time>2026-04-07T12:42:22.999Z</time></trkpt><trkpt lat="45.62769250529562" lon="11.190490819692139"><ele>759.0</ele><time>2026-04-07T12:42:23.998Z</time></trkpt><trkpt lat="45.62777749698502" lon="11.19034735471864"><ele>759.0</ele><time>2026-04-07T12:42:24.998Z</time></trkpt><trkpt lat="45.62786884812572" lon="11.19023563840585"><ele>759.0</ele><time>2026-04-07T12:42:25.998Z</time></trkpt><trkpt lat="45.627978690302946" lon="11.190124662580475"><ele>764.0</ele><time>2026-04-07T12:42:26.998Z</time></trkpt><trkpt lat="45.62811917303348" lon="11.190047996666113"><ele>769.0</ele><time>2026-04-07T12:42:27.998Z</time></trkpt><trkpt lat="45.62823277694687" lon="11.189971144221278"><ele>774.0</ele><time>2026-04-07T12:42:28.998Z</time></trkpt><trkpt lat="45.628305640283976" lon="11.18987910776365"><ele>779.0</ele><time>2026-04-07T12:42:29.998Z</time></trkpt><trkpt lat="45.62839351629335" lon="11.18981098410251"><ele>782.0</ele><time>2026-04-07T12:42:31.998Z</time></trkpt><trkpt lat="45.62841445016143" lon="11.18998707294011"><ele>785.0</ele><time>2026-04-07T12:42:33.998Z</time></trkpt><trkpt lat="45.628329434849675" lon="11.190074703791126"><ele>788.0</ele><time>2026-04-07T12:42:34.998Z</time></trkpt><trkpt lat="45.628290714022214" lon="11.190235291528126"><ele>791.0</ele><time>2026-04-07T12:42:35.998Z</time></trkpt><trkpt lat="45.62824849425518" lon="11.190442787325196"><ele>791.0</ele><time>2026-04-07T12:42:36.998Z</time></trkpt><trkpt lat="45.62822287457938" lon="11.190637883927845"><ele>791.0</ele><time>2026-04-07T12:42:37.998Z</time></trkpt><trkpt lat="45.62823629749247" lon="11.190779323992363"><ele>791.0</ele><time>2026-04-07T12:42:38.998Z</time></trkpt><trkpt lat="45.628289857933886" lon="11.190907408005376"><ele>791.0</ele><time>2026-04-07T12:42:39.998Z</time></trkpt><trkpt lat="45.62838169894255" lon="11.191044774816401"><ele>791.6666666666667</ele><time>2026-04-07T12:42:40.998Z</time></trkpt><trkpt lat="45.62849399217991" lon="11.19117787870201"><ele>792.3333333333333</ele><time>2026-04-07T12:42:42Z</time></trkpt><trkpt lat="45.62863786284193" lon="11.191311574767631"><ele>793.0</ele><time>2026-04-07T12:42:43Z</time></trkpt><trkpt lat="45.62877735119399" lon="11.19147833569321"><ele>799.25</ele><time>2026-04-07T12:42:44Z</time></trkpt><trkpt lat="45.62888873795025" lon="11.191645007456504"><ele>805.5</ele><time>2026-04-07T12:42:45Z</time></trkpt><trkpt lat="45.62899106509443" lon="11.19178545707084"><ele>811.75</ele><time>2026-04-07T12:42:46Z</time></trkpt><trkpt lat="45.629066487184716" lon="11.191912264120864"><ele>818.0</ele><time>2026-04-07T12:42:47Z</time></trkpt><trkpt lat="45.62917262950402" lon="11.192004200567062"><ele>818.0</ele><time>2026-04-07T12:42:48Z</time></trkpt><trkpt lat="45.62932543238355" lon="11.19204687725601"><ele>818.0</ele><time>2026-04-07T12:42:49Z</time></trkpt><trkpt lat="45.62948748555768" lon="11.192103702944417"><ele>818.0</ele><time>2026-04-07T12:42:50Z</time></trkpt><trkpt lat="45.62963340878586" lon="11.192209051572965"><ele>819.6666666666667</ele><time>2026-04-07T12:42:51Z</time></trkpt><trkpt lat="45.62976291867676" lon="11.192346073732077"><ele>821.3333333333333</ele><time>2026-04-07T12:42:52Z</time></trkpt><trkpt lat="45.62990721306358" lon="11.192446980384155"><ele>823.0</ele><time>2026-04-07T12:42:53Z</time></trkpt><trkpt lat="45.63006430929745" lon="11.192523680825621"><ele>823.0</ele><time>2026-04-07T12:42:54Z</time></trkpt><trkpt lat="45.630260351454375" lon="11.192572410358315"><ele>823.0</ele><time>2026-04-07T12:42:55Z</time></trkpt><trkpt lat="45.630464853910624" lon="11.192599651913735"><ele>823.0</ele><time>2026-04-07T12:42:56Z</time></trkpt><trkpt lat="45.63067482091354" lon="11.192671385166628"><ele>830.3333333333333</ele><time>2026-04-07T12:42:57Z</time></trkpt><trkpt lat="45.630876473433055" lon="11.192716019296235"><ele>837.6666666666667</ele><time>2026-04-07T12:42:58Z</time></trkpt><trkpt lat="45.63105267588178" lon="11.19278264142969"><ele>845.0</ele><time>2026-04-07T12:42:59Z</time></trkpt><trkpt lat="45.631216705909644" lon="11.192824745651698"><ele>846.0</ele><time>2026-04-07T12:43:00Z</time></trkpt><trkpt lat="45.631365444495216" lon="11.192860680879955"><ele>847.0</ele><time>2026-04-07T12:43:01Z</time></trkpt><trkpt lat="45.63151443589575" lon="11.19288192647642"><ele>848.0</ele><time>2026-04-07T12:43:02Z</time></trkpt><trkpt lat="45.63164573789139" lon="11.192870421018904"><ele>849.0</ele><time>2026-04-07T12:43:03Z</time></trkpt><trkpt lat="45.631763330229326" lon="11.192833569332993"><ele>849.0</ele><time>2026-04-07T12:43:04Z</time></trkpt><trkpt lat="45.631869990170415" lon="11.192767590438779"><ele>849.0</ele><time>2026-04-07T12:43:05Z</time></trkpt><trkpt lat="45.63197005736403" lon="11.192662881603646"><ele>849.0</ele><time>2026-04-07T12:43:06Z</time></trkpt><trkpt lat="45.63205920465368" lon="11.192535432512537"><ele>849.0</ele><time>2026-04-07T12:43:07Z</time></trkpt><trkpt lat="45.63214624457902" lon="11.192416883929866"><ele>849.2</ele><time>2026-04-07T12:43:08Z</time></trkpt><trkpt lat="45.632212558412014" lon="11.192280474695577"><ele>849.4000000000001</ele><time>2026-04-07T12:43:09Z</time></trkpt><trkpt lat="45.63225709257372" lon="11.192158255727195"><ele>849.6</ele><time>2026-04-07T12:43:10Z</time></trkpt><trkpt lat="45.63233272836757" lon="11.192100656179678"><ele>849.8</ele><time>2026-04-07T12:43:11Z</time></trkpt><trkpt lat="45.632399139347406" lon="11.192003701478882"><ele>850.0</ele><time>2026-04-07T12:43:12Z</time></trkpt><trkpt lat="45.63248548309417" lon="11.191894048459254"><ele>849.9999999999999</ele><time>2026-04-07T12:43:13Z</time></trkpt><trkpt lat="45.63255132668987" lon="11.19177219951711"><ele>850.0</ele><time>2026-04-07T12:43:14Z</time></trkpt><trkpt lat="45.63260811837131" lon="11.191674081123082"><ele>850.0</ele><time>2026-04-07T12:43:15Z</time></trkpt><trkpt lat="45.63265251559848" lon="11.191602812772343"><ele>850.0</ele><time>2026-04-07T12:43:16Z</time></trkpt><trkpt lat="45.63269402185623" lon="11.191501236649996"><ele>849.9999999999999</ele><time>2026-04-07T12:43:18Z</time></trkpt><trkpt lat="45.63267415345449" lon="11.191356414877692"><ele>850.0</ele><time>2026-04-07T12:44:37.999Z</time></trkpt><trkpt lat="45.63270071237107" lon="11.191223560946815"><ele>853.2</ele><time>2026-04-07T12:44:39.999Z</time></trkpt><trkpt lat="45.632682191535174" lon="11.19108180600322"><ele>856.4</ele><time>2026-04-07T12:44:40.999Z</time></trkpt><trkpt lat="45.632715629704016" lon="11.190942266720848"><ele>859.5999999999999</ele><time>2026-04-07T12:44:41.999Z</time></trkpt><trkpt lat="45.63274296575829" lon="11.190785797208266"><ele>862.8</ele><time>2026-04-07T12:44:42.998Z</time></trkpt><trkpt lat="45.63277000761416" lon="11.19064002075368"><ele>866.0</ele><time>2026-04-07T12:44:43.998Z</time></trkpt><trkpt lat="45.63279813441589" lon="11.190488420379186"><ele>857.75</ele><time>2026-04-07T12:44:44.998Z</time></trkpt><trkpt lat="45.632830036847345" lon="11.190331764532086"><ele>849.5</ele><time>2026-04-07T12:44:45.998Z</time></trkpt><trkpt lat="45.63286595097227" lon="11.190160418187206"><ele>841.25</ele><time>2026-04-07T12:44:46.998Z</time></trkpt><trkpt lat="45.63293999348508" lon="11.190006090940797"><ele>833.0</ele><time>2026-04-07T12:44:48Z</time></trkpt><trkpt lat="45.63298662106158" lon="11.189853734430185"><ele>834.5999999999999</ele><time>2026-04-07T12:44:49Z</time></trkpt><trkpt lat="45.633048246746235" lon="11.189710497469585"><ele>836.1999999999999</ele><time>2026-04-07T12:44:50Z</time></trkpt><trkpt lat="45.633111469350844" lon="11.189584857908041"><ele>837.8</ele><time>2026-04-07T12:44:51Z</time></trkpt><trkpt lat="45.63318016724637" lon="11.18945217357326"><ele>839.4</ele><time>2026-04-07T12:44:52Z</time></trkpt><trkpt lat="45.63324105203841" lon="11.189329632957099"><ele>841.0</ele><time>2026-04-07T12:44:53Z</time></trkpt><trkpt lat="45.63328719399882" lon="11.189214302640112"><ele>841.0</ele><time>2026-04-07T12:44:54Z</time></trkpt><trkpt lat="45.633312569880864" lon="11.189089310025556"><ele>841.0</ele><time>2026-04-07T12:44:55Z</time></trkpt><trkpt lat="45.63325962537185" lon="11.188929170402496"><ele>841.0</ele><time>2026-04-07T12:44:56Z</time></trkpt><trkpt lat="45.63319593157472" lon="11.188757836778656"><ele>841.0</ele><time>2026-04-07T12:44:57Z</time></trkpt><trkpt lat="45.63313446399406" lon="11.188549795139416"><ele>841.5</ele><time>2026-04-07T12:44:58Z</time></trkpt><trkpt lat="45.63308227333331" lon="11.18833217578665"><ele>842.0</ele><time>2026-04-07T12:44:59Z</time></trkpt><trkpt lat="45.63304154775034" lon="11.188134547969726"><ele>842.5</ele><time>2026-04-07T12:45:00Z</time></trkpt><trkpt lat="45.633002447754585" lon="11.187959875699319"><ele>843.0</ele><time>2026-04-07T12:45:01Z</time></trkpt><trkpt lat="45.63297367753888" lon="11.187814816903305"><ele>843.0</ele><time>2026-04-07T12:45:02Z</time></trkpt><trkpt lat="45.63295983244347" lon="11.18769997359568"><ele>843.0</ele><time>2026-04-07T12:45:03Z</time></trkpt><trkpt lat="45.632983250952606" lon="11.18759439747231"><ele>843.0</ele><time>2026-04-07T12:45:04Z</time></trkpt><trkpt lat="45.63305682872565" lon="11.18753172825727"><ele>843.0</ele><time>2026-04-07T12:45:05Z</time></trkpt><trkpt lat="45.63313358378851" lon="11.187512060061858"><ele>843.0</ele><time>2026-04-07T12:45:06Z</time></trkpt><trkpt lat="45.633229770891866" lon="11.187447859856372"><ele>843.0</ele><time>2026-04-07T12:45:07Z</time></trkpt><trkpt lat="45.63334413987828" lon="11.1873517709366"><ele>842.75</ele><time>2026-04-07T12:45:08Z</time></trkpt><trkpt lat="45.633468947281074" lon="11.18726834732064"><ele>842.5</ele><time>2026-04-07T12:45:09Z</time></trkpt><trkpt lat="45.633578393821786" lon="11.187185444699468"><ele>842.25</ele><time>2026-04-07T12:45:10Z</time></trkpt><trkpt lat="45.633676351978956" lon="11.187093093428084"><ele>842.0</ele><time>2026-04-07T12:45:11Z</time></trkpt><trkpt lat="45.633778458526855" lon="11.186952143000578"><ele>841.0</ele><time>2026-04-07T12:45:12Z</time></trkpt><trkpt lat="45.63387735044438" lon="11.186779584523194"><ele>840.0</ele><time>2026-04-07T12:45:13Z</time></trkpt><trkpt lat="45.63396426400271" lon="11.186603037621383"><ele>839.0</ele><time>2026-04-07T12:45:14Z</time></trkpt><trkpt lat="45.634057621523105" lon="11.18636897858211"><ele>839.0</ele><time>2026-04-07T12:45:15Z</time></trkpt><trkpt lat="45.63415234943049" lon="11.186150259535232"><ele>839.0</ele><time>2026-04-07T12:45:16Z</time></trkpt><trkpt lat="45.63426072779397" lon="11.185970139936101"><ele>839.0</ele><time>2026-04-07T12:45:17Z</time></trkpt><trkpt lat="45.63431768117976" lon="11.1857756338762"><ele>839.8000000000001</ele><time>2026-04-07T12:45:18Z</time></trkpt><trkpt lat="45.63435472515019" lon="11.185589450808644"><ele>840.6</ele><time>2026-04-07T12:45:19Z</time></trkpt><trkpt lat="45.63438649914871" lon="11.185418181794867"><ele>841.4</ele><time>2026-04-07T12:45:20Z</time></trkpt><trkpt lat="45.63445431078832" lon="11.185312743095604"><ele>842.2</ele><time>2026-04-07T12:45:21Z</time></trkpt><trkpt lat="45.63453624489624" lon="11.185265414704798"><ele>843.0</ele><time>2026-04-07T12:45:22Z</time></trkpt><trkpt lat="45.634631520580996" lon="11.185170410847718"><ele>843.0</ele><time>2026-04-07T12:45:23Z</time></trkpt><trkpt lat="45.63476040148775" lon="11.185095838361889"><ele>843.0</ele><time>2026-04-07T12:45:24Z</time></trkpt><trkpt lat="45.63490542172214" lon="11.184994927369848"><ele>843.0</ele><time>2026-04-07T12:45:25Z</time></trkpt><trkpt lat="45.6350423515658" lon="11.184923094495003"><ele>843.0</ele><time>2026-04-07T12:45:26Z</time></trkpt><trkpt lat="45.63518235039856" lon="11.184913762312163"><ele>844.0</ele><time>2026-04-07T12:45:27Z</time></trkpt><trkpt lat="45.6353285606592" lon="11.184920479815013"><ele>845.0</ele><time>2026-04-07T12:45:28Z</time></trkpt><trkpt lat="45.63546044573138" lon="11.184954793732583"><ele>846.0</ele><time>2026-04-07T12:45:29Z</time></trkpt><trkpt lat="45.63558111100385" lon="11.184982131589255"><ele>847.0</ele><time>2026-04-07T12:45:30Z</time></trkpt><trkpt lat="45.63568562952915" lon="11.18495097909087"><ele>847.0</ele><time>2026-04-07T12:45:31Z</time></trkpt><trkpt lat="45.63580672569837" lon="11.184871792630622"><ele>847.0</ele><time>2026-04-07T12:45:32Z</time></trkpt><trkpt lat="45.6359221986415" lon="11.18476622874126"><ele>847.0</ele><time>2026-04-07T12:45:33Z</time></trkpt><trkpt lat="45.63604403362382" lon="11.184690459663436"><ele>847.0</ele><time>2026-04-07T12:45:34Z</time></trkpt><trkpt lat="45.636178615041736" lon="11.184695295684854"><ele>846.75</ele><time>2026-04-07T12:45:35Z</time></trkpt><trkpt lat="45.636303958953015" lon="11.18466347773893"><ele>846.5</ele><time>2026-04-07T12:45:36Z</time></trkpt><trkpt lat="45.63641599389194" lon="11.184620354309235"><ele>846.25</ele><time>2026-04-07T12:45:37Z</time></trkpt><trkpt lat="45.63652604807969" lon="11.184546924933487"><ele>846.0</ele><time>2026-04-07T12:45:38Z</time></trkpt><trkpt lat="45.63663301101509" lon="11.18443925551363"><ele>846.0</ele><time>2026-04-07T12:45:39Z</time></trkpt><trkpt lat="45.63674658882418" lon="11.184347596838128"><ele>846.0</ele><time>2026-04-07T12:45:40Z</time></trkpt><trkpt lat="45.63685972013349" lon="11.184294247432623"><ele>846.0</ele><time>2026-04-07T12:45:41Z</time></trkpt><trkpt lat="45.63695290680351" lon="11.184281893270285"><ele>846.0</ele><time>2026-04-07T12:45:42Z</time></trkpt><trkpt lat="45.63705196893372" lon="11.184319551988196"><ele>846.0</ele><time>2026-04-07T12:45:43Z</time></trkpt><trkpt lat="45.63716064059439" lon="11.184392636278945"><ele>848.5</ele><time>2026-04-07T12:45:43.999Z</time></trkpt><trkpt lat="45.63728430950742" lon="11.184497827400705"><ele>851.0</ele><time>2026-04-07T12:45:44.999Z</time></trkpt><trkpt lat="45.637398979610026" lon="11.184597282564749"><ele>853.5</ele><time>2026-04-07T12:45:45.999Z</time></trkpt><trkpt lat="45.63750824164195" lon="11.184661376239012"><ele>856.0</ele><time>2026-04-07T12:45:46.999Z</time></trkpt><trkpt lat="45.6376221425023" lon="11.184654040595218"><ele>856.0</ele><time>2026-04-07T12:45:47.999Z</time></trkpt><trkpt lat="45.63773478335064" lon="11.184576989421124"><ele>856.0</ele><time>2026-04-07T12:45:48.999Z</time></trkpt><trkpt lat="45.63786004103213" lon="11.184457869117615"><ele>856.0</ele><time>2026-04-07T12:45:49.999Z</time></trkpt><trkpt lat="45.63802137796031" lon="11.184327008237426"><ele>857.0</ele><time>2026-04-07T12:45:50.999Z</time></trkpt><trkpt lat="45.63820117305554" lon="11.184230428728585"><ele>858.0</ele><time>2026-04-07T12:45:51.999Z</time></trkpt><trkpt lat="45.63839002734145" lon="11.184139654897773"><ele>859.0</ele><time>2026-04-07T12:45:52.999Z</time></trkpt><trkpt lat="45.638565235631255" lon="11.18400729097248"><ele>862.25</ele><time>2026-04-07T12:45:53.999Z</time></trkpt><trkpt lat="45.638702030105634" lon="11.183886515939738"><ele>865.5</ele><time>2026-04-07T12:45:54.999Z</time></trkpt><trkpt lat="45.638791368265395" lon="11.183800799420636"><ele>868.75</ele><time>2026-04-07T12:45:55.999Z</time></trkpt><trkpt lat="45.638838628160734" lon="11.18372892739175"><ele>872.0</ele><time>2026-04-07T12:45:56.999Z</time></trkpt><trkpt lat="45.638802496064095" lon="11.183560113441386"><ele>872.0</ele><time>2026-04-07T12:45:58.999Z</time></trkpt><trkpt lat="45.63873480077718" lon="11.183456330021494"><ele>872.0</ele><time>2026-04-07T12:45:59.999Z</time></trkpt><trkpt lat="45.638671343167" lon="11.183321889215403"><ele>872.0</ele><time>2026-04-07T12:46:00.999Z</time></trkpt><trkpt lat="45.63861429560511" lon="11.183222043734352"><ele>872.0</ele><time>2026-04-07T12:46:01.999Z</time></trkpt><trkpt lat="45.63864526591695" lon="11.183108024041326"><ele>872.0</ele><time>2026-04-07T12:46:02.999Z</time></trkpt><trkpt lat="45.6386786724195" lon="11.18296867799484"><ele>873.25</ele><time>2026-04-07T12:46:03.999Z</time></trkpt><trkpt lat="45.63874195036874" lon="11.182799804963528"><ele>874.5</ele><time>2026-04-07T12:46:04.999Z</time></trkpt><trkpt lat="45.638811051607505" lon="11.182664422058101"><ele>875.75</ele><time>2026-04-07T12:46:05.999Z</time></trkpt><trkpt lat="45.638903538778486" lon="11.182552084456407"><ele>877.0</ele><time>2026-04-07T12:46:06.999Z</time></trkpt><trkpt lat="45.63903519959201" lon="11.182434756871114"><ele>876.3333333333333</ele><time>2026-04-07T12:46:07.999Z</time></trkpt><trkpt lat="45.63919554036888" lon="11.182277872706864"><ele>875.6666666666667</ele><time>2026-04-07T12:46:08.999Z</time></trkpt><trkpt lat="45.63935610467957" lon="11.182145132362587"><ele>875.0</ele><time>2026-04-07T12:46:09.999Z</time></trkpt><trkpt lat="45.639481523811654" lon="11.182021360805026"><ele>878.75</ele><time>2026-04-07T12:46:10.999Z</time></trkpt><trkpt lat="45.639573617668084" lon="11.181897032605406"><ele>882.5</ele><time>2026-04-07T12:46:11.999Z</time></trkpt><trkpt lat="45.63962011312999" lon="11.181764662977718"><ele>886.25</ele><time>2026-04-07T12:46:12.999Z</time></trkpt><trkpt lat="45.63963914235212" lon="11.181584932530388"><ele>890.0</ele><time>2026-04-07T12:46:13.999Z</time></trkpt><trkpt lat="45.63964924628453" lon="11.181378002623587"><ele>890.75</ele><time>2026-04-07T12:46:14.999Z</time></trkpt><trkpt lat="45.63965980690123" lon="11.181168029138297"><ele>891.5</ele><time>2026-04-07T12:46:15.999Z</time></trkpt><trkpt lat="45.63967620424133" lon="11.180986471019622"><ele>892.25</ele><time>2026-04-07T12:46:16.999Z</time></trkpt><trkpt lat="45.639688277651366" lon="11.180819631441132"><ele>893.0</ele><time>2026-04-07T12:46:17.999Z</time></trkpt><trkpt lat="45.63971941120218" lon="11.180679609769905"><ele>891.2</ele><time>2026-04-07T12:46:18.999Z</time></trkpt><trkpt lat="45.639755775174876" lon="11.180568784757918"><ele>889.4</ele><time>2026-04-07T12:46:19.999Z</time></trkpt><trkpt lat="45.63982285286541" lon="11.180477444332935"><ele>887.6000000000001</ele><time>2026-04-07T12:46:20.999Z</time></trkpt><trkpt lat="45.639910639717584" lon="11.180382489111734"><ele>885.8000000000001</ele><time>2026-04-07T12:46:21.999Z</time></trkpt><trkpt lat="45.64000845271604" lon="11.180268245837613"><ele>884.0</ele><time>2026-04-07T12:46:22.999Z</time></trkpt><trkpt lat="45.64014064212548" lon="11.180188542969697"><ele>884.0</ele><time>2026-04-07T12:46:23.999Z</time></trkpt><trkpt lat="45.64026155615741" lon="11.18011374225684"><ele>884.0</ele><time>2026-04-07T12:46:24.999Z</time></trkpt><trkpt lat="45.64038441291289" lon="11.180061781860026"><ele>884.0</ele><time>2026-04-07T12:46:25.999Z</time></trkpt><trkpt lat="45.640466302550365" lon="11.179975913580394"><ele>884.0</ele><time>2026-04-07T12:46:26.999Z</time></trkpt><trkpt lat="45.64052345932779" lon="11.179846208453547"><ele>886.5</ele><time>2026-04-07T12:46:27.999Z</time></trkpt><trkpt lat="45.64056368859572" lon="11.179678001858134"><ele>889.0</ele><time>2026-04-07T12:46:28.999Z</time></trkpt><trkpt lat="45.64058352911817" lon="11.179495575253151"><ele>891.5</ele><time>2026-04-07T12:46:29.999Z</time></trkpt><trkpt lat="45.640566715194545" lon="11.179309532111846"><ele>894.0</ele><time>2026-04-07T12:46:30.999Z</time></trkpt><trkpt lat="45.64052097563074" lon="11.179129687273443"><ele>893.4000000000001</ele><time>2026-04-07T12:46:31.999Z</time></trkpt><trkpt lat="45.640493442808854" lon="11.178959487018465"><ele>892.8000000000001</ele><time>2026-04-07T12:46:32.999Z</time></trkpt><trkpt lat="45.64047445804208" lon="11.178831911654841"><ele>892.1999999999999</ele><time>2026-04-07T12:46:33.999Z</time></trkpt><trkpt lat="45.64048545010225" lon="11.17865914965886"><ele>891.5999999999999</ele><time>2026-04-07T12:46:35.999Z</time></trkpt><trkpt lat="45.640544611086426" lon="11.178572986882571"><ele>891.0</ele><time>2026-04-07T12:46:36.999Z</time></trkpt><trkpt lat="45.640601467266954" lon="11.17843762914951"><ele>891.0</ele><time>2026-04-07T12:46:37.999Z</time></trkpt><trkpt lat="45.64069360273582" lon="11.178287016817537"><ele>891.0</ele><time>2026-04-07T12:46:38.999Z</time></trkpt><trkpt lat="45.64077823162647" lon="11.178096136690593"><ele>891.0</ele><time>2026-04-07T12:46:39.999Z</time></trkpt><trkpt lat="45.64084239287231" lon="11.17790624433597"><ele>891.0</ele><time>2026-04-07T12:46:40.999Z</time></trkpt><trkpt lat="45.64089578261928" lon="11.177723469366805"><ele>891.0</ele><time>2026-04-07T12:46:41.999Z</time></trkpt><trkpt lat="45.64094822897241" lon="11.177552753620114"><ele>891.0</ele><time>2026-04-07T12:46:42.999Z</time></trkpt><trkpt lat="45.64099023942441" lon="11.177392973988141"><ele>891.0</ele><time>2026-04-07T12:46:43.999Z</time></trkpt><trkpt lat="45.64099665071565" lon="11.177239653823655"><ele>891.0</ele><time>2026-04-07T12:46:44.999Z</time></trkpt><trkpt lat="45.64097629829372" lon="11.177073184669005"><ele>894.0</ele><time>2026-04-07T12:46:45.999Z</time></trkpt><trkpt lat="45.64094401918662" lon="11.176894677122748"><ele>897.0</ele><time>2026-04-07T12:46:46.999Z</time></trkpt><trkpt lat="45.64090647650556" lon="11.17671535577042"><ele>900.0</ele><time>2026-04-07T12:46:47.999Z</time></trkpt><trkpt lat="45.64084886276977" lon="11.17652788428691"><ele>903.0</ele><time>2026-04-07T12:46:48.999Z</time></trkpt><trkpt lat="45.640792715224435" lon="11.176349551408103"><ele>905.25</ele><time>2026-04-07T12:46:49.998Z</time></trkpt><trkpt lat="45.64073863108365" lon="11.176184162677584"><ele>907.5</ele><time>2026-04-07T12:46:50.998Z</time></trkpt><trkpt lat="45.64073851091708" lon="11.176018010750797"><ele>909.75</ele><time>2026-04-07T12:46:51.998Z</time></trkpt><trkpt lat="45.64075053005297" lon="11.175838049157832"><ele>912.0</ele><time>2026-04-07T12:46:52.998Z</time></trkpt><trkpt lat="45.640770765606334" lon="11.175640748831857"><ele>912.0</ele><time>2026-04-07T12:46:54Z</time></trkpt><trkpt lat="45.640808111512115" lon="11.175452337841065"><ele>912.0</ele><time>2026-04-07T12:46:55Z</time></trkpt><trkpt lat="45.640853407046" lon="11.175283620371411"><ele>912.0</ele><time>2026-04-07T12:46:56Z</time></trkpt><trkpt lat="45.64089428599899" lon="11.175103424855699"><ele>912.0</ele><time>2026-04-07T12:46:57Z</time></trkpt><trkpt lat="45.64097008779555" lon="11.174935526696867"><ele>912.25</ele><time>2026-04-07T12:46:58Z</time></trkpt><trkpt lat="45.64105569525779" lon="11.174765812702748"><ele>912.5</ele><time>2026-04-07T12:46:59Z</time></trkpt><trkpt lat="45.641141341282385" lon="11.17462901205685"><ele>912.75</ele><time>2026-04-07T12:47:00Z</time></trkpt><trkpt lat="45.641207413704485" lon="11.1745167111845"><ele>913.0</ele><time>2026-04-07T12:47:01Z</time></trkpt><trkpt lat="45.64123683315318" lon="11.174407799618415"><ele>916.0</ele><time>2026-04-07T12:47:02Z</time></trkpt><trkpt lat="45.64122373956564" lon="11.174258916666748"><ele>919.0</ele><time>2026-04-07T12:47:03Z</time></trkpt><trkpt lat="45.64117520492591" lon="11.17410441688526"><ele>922.0</ele><time>2026-04-07T12:47:04Z</time></trkpt><trkpt lat="45.64110622083714" lon="11.173953113202511"><ele>925.0</ele><time>2026-04-07T12:47:05Z</time></trkpt><trkpt lat="45.641071314279216" lon="11.173791851371897"><ele>925.0</ele><time>2026-04-07T12:47:06Z</time></trkpt><trkpt lat="45.641062528460054" lon="11.173661381731094"><ele>925.0</ele><time>2026-04-07T12:47:07Z</time></trkpt><trkpt lat="45.6410795668986" lon="11.173566845042625"><ele>925.0</ele><time>2026-04-07T12:47:08Z</time></trkpt><trkpt lat="45.64108708214134" lon="11.173435909304033"><ele>925.0</ele><time>2026-04-07T12:47:11Z</time></trkpt><trkpt lat="45.641077944684966" lon="11.173256995032252"><ele>925.0</ele><time>2026-04-07T12:47:13Z</time></trkpt><trkpt lat="45.64105625037918" lon="11.173109922129798"><ele>929.5</ele><time>2026-04-07T12:47:14Z</time></trkpt><trkpt lat="45.64096973524208" lon="11.172983957101282"><ele>934.0</ele><time>2026-04-07T12:47:15Z</time></trkpt><trkpt lat="45.64086275556772" lon="11.172891773477016"><ele>938.5</ele><time>2026-04-07T12:47:16Z</time></trkpt><trkpt lat="45.64075171121957" lon="11.172799738487857"><ele>943.0</ele><time>2026-04-07T12:47:17Z</time></trkpt><trkpt lat="45.64067050026429" lon="11.17268526628858"><ele>943.0</ele><time>2026-04-07T12:47:18Z</time></trkpt><trkpt lat="45.64063522620585" lon="11.1725349911307"><ele>943.0</ele><time>2026-04-07T12:47:19Z</time></trkpt><trkpt lat="45.640584225567196" lon="11.172346036934444"><ele>943.0</ele><time>2026-04-07T12:47:20Z</time></trkpt><trkpt lat="45.64052401026438" lon="11.172126237778468"><ele>943.0</ele><time>2026-04-07T12:47:21Z</time></trkpt><trkpt lat="45.64048059024318" lon="11.171920199187996"><ele>948.0</ele><time>2026-04-07T12:47:22Z</time></trkpt><trkpt lat="45.64046424689063" lon="11.171696266802396"><ele>953.0</ele><time>2026-04-07T12:47:23Z</time></trkpt><trkpt lat="45.64045170831051" lon="11.171469898771132"><ele>958.0</ele><time>2026-04-07T12:47:24Z</time></trkpt><trkpt lat="45.64042979601887" lon="11.171290648152716"><ele>963.0</ele><time>2026-04-07T12:47:25Z</time></trkpt><trkpt lat="45.64043863658733" lon="11.171142723374384"><ele>960.4</ele><time>2026-04-07T12:47:26Z</time></trkpt><trkpt lat="45.64046252898182" lon="11.17102881148941"><ele>957.8</ele><time>2026-04-07T12:47:27Z</time></trkpt><trkpt lat="45.640484817665815" lon="11.17092733687047"><ele>955.2</ele><time>2026-04-07T12:47:28Z</time></trkpt><trkpt lat="45.64044838856177" lon="11.170828733104088"><ele>952.6</ele><time>2026-04-07T12:47:29Z</time></trkpt><trkpt lat="45.64036373707764" lon="11.170754529356364"><ele>950.0</ele><time>2026-04-07T12:47:30Z</time></trkpt><trkpt lat="45.640238004114025" lon="11.17071202109609"><ele>960.6666666666667</ele><time>2026-04-07T12:47:31Z</time></trkpt><trkpt lat="45.640103285393735" lon="11.170632926147974"><ele>971.3333333333333</ele><time>2026-04-07T12:47:32Z</time></trkpt><trkpt lat="45.639957588495704" lon="11.17053788855598"><ele>982.0</ele><time>2026-04-07T12:47:33Z</time></trkpt><trkpt lat="45.63980059083956" lon="11.170429853981316"><ele>982.0</ele><time>2026-04-07T12:47:34Z</time></trkpt><trkpt lat="45.639657636040965" lon="11.170329192290794"><ele>982.0</ele><time>2026-04-07T12:47:35Z</time></trkpt><trkpt lat="45.63954241560473" lon="11.170237250461499"><ele>982.0</ele><time>2026-04-07T12:47:36Z</time></trkpt><trkpt lat="45.63945471462343" lon="11.170152000903693"><ele>982.0</ele><time>2026-04-07T12:47:37Z</time></trkpt><trkpt lat="45.63938445066129" lon="11.170057374582056"><ele>983.2</ele><time>2026-04-07T12:47:38Z</time></trkpt><trkpt lat="45.63936765396132" lon="11.169928866446641"><ele>984.4000000000001</ele><time>2026-04-07T12:47:39Z</time></trkpt><trkpt lat="45.63933456307779" lon="11.169774012805515"><ele>985.5999999999999</ele><time>2026-04-07T12:47:40Z</time></trkpt><trkpt lat="45.639293124008915" lon="11.169619227393413"><ele>986.8</ele><time>2026-04-07T12:47:41Z</time></trkpt><trkpt lat="45.63926164236624" lon="11.169489630916862"><ele>988.0</ele><time>2026-04-07T12:47:42Z</time></trkpt><trkpt lat="45.63919892439557" lon="11.16937831529716"><ele>988.0</ele><time>2026-04-07T12:47:44Z</time></trkpt><trkpt lat="45.639129291148095" lon="11.169391582356493"><ele>988.0</ele><time>2026-04-07T12:47:45Z</time></trkpt><trkpt lat="45.63905445823455" lon="11.169486950584165"><ele>988.0</ele><time>2026-04-07T12:47:46Z</time></trkpt><trkpt lat="45.63903360507189" lon="11.16965359879048"><ele>988.0</ele><time>2026-04-07T12:47:47Z</time></trkpt><trkpt lat="45.63897285925234" lon="11.169769834204578"><ele>988.0</ele><time>2026-04-07T12:47:48Z</time></trkpt><trkpt lat="45.63888203801182" lon="11.169894023827231"><ele>990.3333333333333</ele><time>2026-04-07T12:47:49Z</time></trkpt><trkpt lat="45.63876406198795" lon="11.170013537589242"><ele>992.6666666666667</ele><time>2026-04-07T12:47:50Z</time></trkpt><trkpt lat="45.6386274033076" lon="11.17018567776349"><ele>995.0</ele><time>2026-04-07T12:47:50.999Z</time></trkpt><trkpt lat="45.63852273486549" lon="11.170398336680545"><ele>995.0</ele><time>2026-04-07T12:47:51.999Z</time></trkpt><trkpt lat="45.638418571874645" lon="11.170607128009221"><ele>995.0</ele><time>2026-04-07T12:47:52.999Z</time></trkpt><trkpt lat="45.63830430693438" lon="11.170804561197945"><ele>995.0</ele><time>2026-04-07T12:47:53.999Z</time></trkpt><trkpt lat="45.63822290705773" lon="11.17098131065716"><ele>991.6</ele><time>2026-04-07T12:47:54.999Z</time></trkpt><trkpt lat="45.6381550905829" lon="11.171116943794681"><ele>988.2</ele><time>2026-04-07T12:47:55.999Z</time></trkpt><trkpt lat="45.63809079473523" lon="11.17122319087686"><ele>984.8</ele><time>2026-04-07T12:47:56.999Z</time></trkpt><trkpt lat="45.63801406892591" lon="11.171304344326309"><ele>981.4</ele><time>2026-04-07T12:47:57.999Z</time></trkpt><trkpt lat="45.63790850859934" lon="11.171400924540285"><ele>978.0</ele><time>2026-04-07T12:47:58.999Z</time></trkpt><trkpt lat="45.637802145205924" lon="11.171487057370447"><ele>980.4</ele><time>2026-04-07T12:47:59.999Z</time></trkpt><trkpt lat="45.63771267117427" lon="11.171568833875112"><ele>982.8</ele><time>2026-04-07T12:48:00.999Z</time></trkpt><trkpt lat="45.637636513287205" lon="11.171646396962874"><ele>985.2</ele><time>2026-04-07T12:48:01.999Z</time></trkpt><trkpt lat="45.63757173960145" lon="11.171722000332398"><ele>987.6</ele><time>2026-04-07T12:48:02.999Z</time></trkpt><trkpt lat="45.637524655822" lon="11.171839410915393"><ele>990.0</ele><time>2026-04-07T12:48:03.999Z</time></trkpt><trkpt lat="45.637450958201725" lon="11.171936770752055"><ele>990.0</ele><time>2026-04-07T12:48:04.999Z</time></trkpt><trkpt lat="45.637373961159994" lon="11.172048392412536"><ele>990.0</ele><time>2026-04-07T12:48:05.999Z</time></trkpt><trkpt lat="45.637264620690985" lon="11.172135496157212"><ele>990.0</ele><time>2026-04-07T12:48:06.999Z</time></trkpt><trkpt lat="45.63713742949385" lon="11.172260047241581"><ele>990.0</ele><time>2026-04-07T12:48:07.999Z</time></trkpt><trkpt lat="45.63700227565948" lon="11.17240088715243"><ele>994.3333333333333</ele><time>2026-04-07T12:48:08.999Z</time></trkpt><trkpt lat="45.63684780090768" lon="11.172554272426195"><ele>998.6666666666666</ele><time>2026-04-07T12:48:09.999Z</time></trkpt><trkpt lat="45.63668850590879" lon="11.172686133460976"><ele>1003.0</ele><time>2026-04-07T12:48:10.999Z</time></trkpt><trkpt lat="45.636534694774745" lon="11.17279996200492"><ele>1003.0</ele><time>2026-04-07T12:48:11.999Z</time></trkpt><trkpt lat="45.63641079922238" lon="11.172895261459095"><ele>1003.0</ele><time>2026-04-07T12:48:12.999Z</time></trkpt><trkpt lat="45.636308365277216" lon="11.172963362368227"><ele>1003.0</ele><time>2026-04-07T12:48:13.999Z</time></trkpt><trkpt lat="45.6362271433688" lon="11.17300357618849"><ele>1003.0</ele><time>2026-04-07T12:48:14.999Z</time></trkpt><trkpt lat="45.63613976296932" lon="11.173014535921041"><ele>1003.0</ele><time>2026-04-07T12:48:15.999Z</time></trkpt><trkpt lat="45.636042059339275" lon="11.172975025080186"><ele>1008.5</ele><time>2026-04-07T12:48:16.999Z</time></trkpt><trkpt lat="45.63592750471662" lon="11.172907667681704"><ele>1014.0</ele><time>2026-04-07T12:48:17.999Z</time></trkpt><trkpt lat="45.6358042159417" lon="11.172859928003907"><ele>1019.5</ele><time>2026-04-07T12:48:18.999Z</time></trkpt><trkpt lat="45.63568486250722" lon="11.172764468962171"><ele>1025.0</ele><time>2026-04-07T12:48:19.999Z</time></trkpt><trkpt lat="45.63557113763261" lon="11.17270606102854"><ele>1025.0</ele><time>2026-04-07T12:48:20.999Z</time></trkpt><trkpt lat="45.63547074033161" lon="11.172671943879363"><ele>1025.0</ele><time>2026-04-07T12:48:21.999Z</time></trkpt><trkpt lat="45.63535682276003" lon="11.172670714705148"><ele>1025.0</ele><time>2026-04-07T12:48:22.999Z</time></trkpt><trkpt lat="45.635248501871125" lon="11.172723606182013"><ele>1025.0</ele><time>2026-04-07T12:48:23.999Z</time></trkpt><trkpt lat="45.63516862162893" lon="11.172760062386528"><ele>1025.0</ele><time>2026-04-07T12:48:24.999Z</time></trkpt><trkpt lat="45.63509451993676" lon="11.172802528453683"><ele>1025.3333333333335</ele><time>2026-04-07T12:48:25.999Z</time></trkpt><trkpt lat="45.635004571703426" lon="11.17285188843323"><ele>1025.6666666666667</ele><time>2026-04-07T12:48:27.999Z</time></trkpt><trkpt lat="45.63493654218325" lon="11.172886780045824"><ele>1026.0</ele><time>2026-04-07T12:48:29.999Z</time></trkpt><trkpt lat="45.63484012019201" lon="11.172922327367932"><ele>1026.3333333333333</ele><time>2026-04-07T12:48:31.999Z</time></trkpt><trkpt lat="45.63476734144023" lon="11.17291777696702"><ele>1026.6666666666665</ele><time>2026-04-07T12:48:32.999Z</time></trkpt><trkpt lat="45.634698357961895" lon="11.172872657867654"><ele>1027.0</ele><time>2026-04-07T12:48:33.999Z</time></trkpt><trkpt lat="45.63459689271027" lon="11.172796270155386"><ele>1027.0</ele><time>2026-04-07T12:48:34.999Z</time></trkpt><trkpt lat="45.634484213446214" lon="11.172712778368409"><ele>1027.0</ele><time>2026-04-07T12:48:35.999Z</time></trkpt><trkpt lat="45.63438727523754" lon="11.172641182691622"><ele>1027.0</ele><time>2026-04-07T12:48:36.999Z</time></trkpt><trkpt lat="45.63430701920927" lon="11.172577606712457"><ele>1027.0</ele><time>2026-04-07T12:48:37.999Z</time></trkpt><trkpt lat="45.634245282103265" lon="11.172509855586139"><ele>1027.0</ele><time>2026-04-07T12:48:38.999Z</time></trkpt><trkpt lat="45.63417368684713" lon="11.17233570789237"><ele>1034.0</ele><time>2026-04-07T12:48:40.999Z</time></trkpt><trkpt lat="45.63411103414151" lon="11.172190390200848"><ele>1041.0</ele><time>2026-04-07T12:48:41.999Z</time></trkpt><trkpt lat="45.63400585804776" lon="11.172025095823592"><ele>1048.0</ele><time>2026-04-07T12:48:42.999Z</time></trkpt><trkpt lat="45.63389109290712" lon="11.171887611380338"><ele>1055.0</ele><time>2026-04-07T12:48:43.999Z</time></trkpt><trkpt lat="45.63377960442806" lon="11.171767670377253"><ele>1055.0</ele><time>2026-04-07T12:48:44.999Z</time></trkpt><trkpt lat="45.63364819094137" lon="11.171700934954096"><ele>1055.0</ele><time>2026-04-07T12:48:45.999Z</time></trkpt><trkpt lat="45.63352950384254" lon="11.171629176628173"><ele>1055.0</ele><time>2026-04-07T12:48:46.999Z</time></trkpt><trkpt lat="45.633431918321804" lon="11.17155054661964"><ele>1055.0</ele><time>2026-04-07T12:48:47.999Z</time></trkpt><trkpt lat="45.63334013694161" lon="11.17148484942401"><ele>1052.4</ele><time>2026-04-07T12:48:48.999Z</time></trkpt><trkpt lat="45.63326269036022" lon="11.171444440755987"><ele>1049.8</ele><time>2026-04-07T12:48:49.999Z</time></trkpt><trkpt lat="45.63315253624138" lon="11.171512471537222"><ele>1047.2</ele><time>2026-04-07T12:48:50.999Z</time></trkpt><trkpt lat="45.63305213978944" lon="11.17156314387123"><ele>1044.6</ele><time>2026-04-07T12:48:51.999Z</time></trkpt><trkpt lat="45.632931919472206" lon="11.171640567741997"><ele>1042.0</ele><time>2026-04-07T12:48:52.998Z</time></trkpt><trkpt lat="45.63280256527103" lon="11.17170151116859"><ele>1042.0</ele><time>2026-04-07T12:48:53.998Z</time></trkpt><trkpt lat="45.63265289083297" lon="11.171731877336953"><ele>1042.0</ele><time>2026-04-07T12:48:54.998Z</time></trkpt><trkpt lat="45.63249621260954" lon="11.171749735585422"><ele>1042.0</ele><time>2026-04-07T12:48:55.998Z</time></trkpt><trkpt lat="45.63232250155722" lon="11.171783828289914"><ele>1042.0</ele><time>2026-04-07T12:48:56.998Z</time></trkpt><trkpt lat="45.63219463829302" lon="11.17185220265038"><ele>1042.0</ele><time>2026-04-07T12:48:57.998Z</time></trkpt><trkpt lat="45.63207463597817" lon="11.171901776994275"><ele>1042.0</ele><time>2026-04-07T12:48:58.998Z</time></trkpt><trkpt lat="45.631978201601044" lon="11.172005325992787"><ele>1042.0</ele><time>2026-04-07T12:49:00.001Z</time></trkpt><trkpt lat="45.63187884146437" lon="11.172110003773494"><ele>1036.0</ele><time>2026-04-07T12:49:01.001Z</time></trkpt><trkpt lat="45.63176579237517" lon="11.172237087224728"><ele>1030.0</ele><time>2026-04-07T12:49:02.001Z</time></trkpt><trkpt lat="45.63162693313297" lon="11.172340184765714"><ele>1024.0</ele><time>2026-04-07T12:49:03.001Z</time></trkpt><trkpt lat="45.63148089578363" lon="11.172428465100197"><ele>1024.0</ele><time>2026-04-07T12:49:04.001Z</time></trkpt><trkpt lat="45.63134250919135" lon="11.17252618168171"><ele>1024.0</ele><time>2026-04-07T12:49:05.001Z</time></trkpt><trkpt lat="45.631224559915026" lon="11.172637902083236"><ele>1024.0</ele><time>2026-04-07T12:49:06.001Z</time></trkpt><trkpt lat="45.63110007052473" lon="11.172672919933566"><ele>1024.0</ele><time>2026-04-07T12:49:07.001Z</time></trkpt><trkpt lat="45.630971273300766" lon="11.172700968495723"><ele>1027.5</ele><time>2026-04-07T12:49:08Z</time></trkpt><trkpt lat="45.63081875222139" lon="11.172724266176585"><ele>1031.0</ele><time>2026-04-07T12:49:09Z</time></trkpt><trkpt lat="45.63069699927363" lon="11.172731689363168"><ele>1034.5</ele><time>2026-04-07T12:49:10Z</time></trkpt><trkpt lat="45.6305886508365" lon="11.172714148724605"><ele>1038.0</ele><time>2026-04-07T12:49:11Z</time></trkpt><trkpt lat="45.63046258675765" lon="11.17268897588906"><ele>1038.3333333333333</ele><time>2026-04-07T12:49:12Z</time></trkpt><trkpt lat="45.63029920586537" lon="11.172698234715472"><ele>1038.6666666666665</ele><time>2026-04-07T12:49:13Z</time></trkpt><trkpt lat="45.63014211957583" lon="11.172663106380691"><ele>1039.0</ele><time>2026-04-07T12:49:14Z</time></trkpt><trkpt lat="45.629998027214356" lon="11.172633870156089"><ele>1039.0</ele><time>2026-04-07T12:49:15Z</time></trkpt><trkpt lat="45.62986622538521" lon="11.172574261544094"><ele>1039.0</ele><time>2026-04-07T12:49:16Z</time></trkpt><trkpt lat="45.62973096969544" lon="11.172508806552939"><ele>1039.0</ele><time>2026-04-07T12:49:17Z</time></trkpt><trkpt lat="45.62959358018101" lon="11.172439979048761"><ele>1039.0</ele><time>2026-04-07T12:49:18Z</time></trkpt><trkpt lat="45.62944300103001" lon="11.172362981469394"><ele>1042.25</ele><time>2026-04-07T12:49:19Z</time></trkpt><trkpt lat="45.62930709937159" lon="11.172296052140076"><ele>1045.5</ele><time>2026-04-07T12:49:20Z</time></trkpt><trkpt lat="45.62918312087377" lon="11.172232567417527"><ele>1048.75</ele><time>2026-04-07T12:49:21Z</time></trkpt><trkpt lat="45.62907681264672" lon="11.172149776665359"><ele>1052.0</ele><time>2026-04-07T12:49:22Z</time></trkpt><trkpt lat="45.628982632784684" lon="11.172049630730768"><ele>1052.0</ele><time>2026-04-07T12:49:23Z</time></trkpt><trkpt lat="45.628900889727326" lon="11.171905378108832"><ele>1052.0</ele><time>2026-04-07T12:49:24Z</time></trkpt><trkpt lat="45.62879764692018" lon="11.171726241755843"><ele>1052.0</ele><time>2026-04-07T12:49:25Z</time></trkpt><trkpt lat="45.628685535875185" lon="11.171536043398207"><ele>1049.0</ele><time>2026-04-07T12:49:26Z</time></trkpt><trkpt lat="45.62856219984361" lon="11.171377361248577"><ele>1046.0</ele><time>2026-04-07T12:49:27Z</time></trkpt><trkpt lat="45.62847386902663" lon="11.17122640418727"><ele>1043.0</ele><time>2026-04-07T12:49:28Z</time></trkpt><trkpt lat="45.62842259477515" lon="11.17107558125611"><ele>1040.0</ele><time>2026-04-07T12:49:29Z</time></trkpt><trkpt lat="45.62840508766894" lon="11.17091925233324"><ele>1040.0</ele><time>2026-04-07T12:49:30Z</time></trkpt><trkpt lat="45.62844639118649" lon="11.170755702624254"><ele>1040.0</ele><time>2026-04-07T12:49:31Z</time></trkpt><trkpt lat="45.62848708953474" lon="11.170610336280587"><ele>1040.0</ele><time>2026-04-07T12:49:32Z</time></trkpt><trkpt lat="45.628557918564844" lon="11.17046789021105"><ele>1040.0</ele><time>2026-04-07T12:49:33Z</time></trkpt><trkpt lat="45.62865371721482" lon="11.170358461457214"><ele>1047.3333333333335</ele><time>2026-04-07T12:49:34Z</time></trkpt><trkpt lat="45.62877067284892" lon="11.170241885993274"><ele>1054.6666666666667</ele><time>2026-04-07T12:49:35Z</time></trkpt><trkpt lat="45.62885281373817" lon="11.170062801288486"><ele>1062.0</ele><time>2026-04-07T12:49:36Z</time></trkpt><trkpt lat="45.62892807458026" lon="11.169862769544912"><ele>1061.0</ele><time>2026-04-07T12:49:37Z</time></trkpt><trkpt lat="45.629046803833035" lon="11.16971942188749"><ele>1060.0</ele><time>2026-04-07T12:49:38Z</time></trkpt><trkpt lat="45.629184502570176" lon="11.169581119810005"><ele>1059.0</ele><time>2026-04-07T12:49:39Z</time></trkpt><trkpt lat="45.62930223021612" lon="11.169454036213718"><ele>1059.0</ele><time>2026-04-07T12:49:40Z</time></trkpt><trkpt lat="45.62939385209307" lon="11.169343208503435"><ele>1059.0</ele><time>2026-04-07T12:49:41Z</time></trkpt><trkpt lat="45.629442104632986" lon="11.169231597911956"><ele>1059.0</ele><time>2026-04-07T12:49:42Z</time></trkpt><trkpt lat="45.629442842276504" lon="11.169106875291744"><ele>1059.0</ele><time>2026-04-07T12:49:43Z</time></trkpt><trkpt lat="45.62943476328912" lon="11.168984635826462"><ele>1059.0</ele><time>2026-04-07T12:49:44Z</time></trkpt><trkpt lat="45.62952032305169" lon="11.168886873503704"><ele>1064.0</ele><time>2026-04-07T12:49:46Z</time></trkpt><trkpt lat="45.62958154984047" lon="11.168938368934871"><ele>1069.0</ele><time>2026-04-07T12:49:47Z</time></trkpt><trkpt lat="45.62961520826766" lon="11.169046918017509"><ele>1074.0</ele><time>2026-04-07T12:49:48Z</time></trkpt><trkpt lat="45.629610193343346" lon="11.169187209253908"><ele>1079.0</ele><time>2026-04-07T12:49:49Z</time></trkpt><trkpt lat="45.62954133414654" lon="11.16933396432862"><ele>1084.0</ele><time>2026-04-07T12:49:50Z</time></trkpt><trkpt lat="45.62950242183177" lon="11.169520112898214"><ele>1076.6666666666665</ele><time>2026-04-07T12:49:51Z</time></trkpt><trkpt lat="45.62946334318806" lon="11.169749416069331"><ele>1069.3333333333333</ele><time>2026-04-07T12:49:52Z</time></trkpt><trkpt lat="45.629407262500855" lon="11.169983339373625"><ele>1062.0</ele><time>2026-04-07T12:49:53Z</time></trkpt><trkpt lat="45.62933862700493" lon="11.170182546980659"><ele>1062.0</ele><time>2026-04-07T12:49:54Z</time></trkpt><trkpt lat="45.629258884202045" lon="11.170344040476435"><ele>1062.0</ele><time>2026-04-07T12:49:54.999Z</time></trkpt><trkpt lat="45.62917977013775" lon="11.170487759288731"><ele>1062.0</ele><time>2026-04-07T12:49:55.999Z</time></trkpt><trkpt lat="45.629127794172646" lon="11.170618061365525"><ele>1062.0</ele><time>2026-04-07T12:49:56.999Z</time></trkpt><trkpt lat="45.629113363794445" lon="11.170726144170173"><ele>1062.0</ele><time>2026-04-07T12:49:57.999Z</time></trkpt><trkpt lat="45.629142705695884" lon="11.170843516609295"><ele>1063.2</ele><time>2026-04-07T12:49:58.999Z</time></trkpt><trkpt lat="45.62920857924917" lon="11.170938558348881"><ele>1064.4</ele><time>2026-04-07T12:49:59.999Z</time></trkpt><trkpt lat="45.629291508429226" lon="11.17097096348947"><ele>1065.6</ele><time>2026-04-07T12:50:00.999Z</time></trkpt><trkpt lat="45.629391063273566" lon="11.170958826469118"><ele>1066.8</ele><time>2026-04-07T12:50:01.999Z</time></trkpt><trkpt lat="45.6295110293728" lon="11.170909200550161"><ele>1068.0</ele><time>2026-04-07T12:50:02.999Z</time></trkpt><trkpt lat="45.62965666923575" lon="11.170867884291292"><ele>1072.3333333333333</ele><time>2026-04-07T12:50:03.999Z</time></trkpt><trkpt lat="45.62980946910709" lon="11.170844888600529"><ele>1076.6666666666665</ele><time>2026-04-07T12:50:04.999Z</time></trkpt><trkpt lat="45.62996875243467" lon="11.170844663189893"><ele>1081.0</ele><time>2026-04-07T12:50:05.999Z</time></trkpt><trkpt lat="45.63012623034498" lon="11.170920022551195"><ele>1081.0</ele><time>2026-04-07T12:50:06.999Z</time></trkpt><trkpt lat="45.6303072064605" lon="11.170938656798832"><ele>1081.0</ele><time>2026-04-07T12:50:07.999Z</time></trkpt><trkpt lat="45.63047364417273" lon="11.17094955692792"><ele>1081.0</ele><time>2026-04-07T12:50:08.999Z</time></trkpt><trkpt lat="45.63059604662398" lon="11.17100400580522"><ele>1082.6</ele><time>2026-04-07T12:50:09.999Z</time></trkpt><trkpt lat="45.63068121307567" lon="11.171035311962557"><ele>1084.1999999999998</ele><time>2026-04-07T12:50:10.999Z</time></trkpt><trkpt lat="45.63077029977172" lon="11.171020233096272"><ele>1085.8000000000002</ele><time>2026-04-07T12:50:12.999Z</time></trkpt><trkpt lat="45.63077401643911" lon="11.170829542779474"><ele>1087.4</ele><time>2026-04-07T12:50:14.999Z</time></trkpt><trkpt lat="45.63071584464564" lon="11.170743185158562"><ele>1089.0</ele><time>2026-04-07T12:50:15.999Z</time></trkpt><trkpt lat="45.63059632741713" lon="11.170763346266325"><ele>1089.0</ele><time>2026-04-07T12:50:16.999Z</time></trkpt><trkpt lat="45.63048179179092" lon="11.17077412655217"><ele>1089.0</ele><time>2026-04-07T12:50:17.999Z</time></trkpt><trkpt lat="45.630358571531275" lon="11.170762666884071"><ele>1089.0</ele><time>2026-04-07T12:50:18.999Z</time></trkpt><trkpt lat="45.630267934713174" lon="11.17068144142184"><ele>1089.0</ele><time>2026-04-07T12:50:19.999Z</time></trkpt><trkpt lat="45.63021387590891" lon="11.170597982436565"><ele>1089.0</ele><time>2026-04-07T12:50:20.999Z</time></trkpt><trkpt lat="45.630166951338175" lon="11.170520442288783"><ele>1088.4</ele><time>2026-04-07T12:50:21.999Z</time></trkpt><trkpt lat="45.63018855576989" lon="11.170389782050567"><ele>1087.8000000000002</ele><time>2026-04-07T12:50:22.999Z</time></trkpt><trkpt lat="45.63021898447408" lon="11.170268827304154"><ele>1087.1999999999998</ele><time>2026-04-07T12:50:23.999Z</time></trkpt><trkpt lat="45.630285169025" lon="11.170155731567444"><ele>1086.6</ele><time>2026-04-07T12:50:24.999Z</time></trkpt><trkpt lat="45.63036832616932" lon="11.170011986630039"><ele>1086.0</ele><time>2026-04-07T12:50:25.999Z</time></trkpt><trkpt lat="45.63045143397364" lon="11.169846942698776"><ele>1093.5</ele><time>2026-04-07T12:50:26.999Z</time></trkpt><trkpt lat="45.630520942558384" lon="11.169639847850055"><ele>1101.0</ele><time>2026-04-07T12:50:27.999Z</time></trkpt><trkpt lat="45.63057405105571" lon="11.169435640704231"><ele>1108.5</ele><time>2026-04-07T12:50:28.999Z</time></trkpt><trkpt lat="45.630616671639125" lon="11.169273517755764"><ele>1116.0</ele><time>2026-04-07T12:50:29.999Z</time></trkpt><trkpt lat="45.63069004509594" lon="11.169174888177599"><ele>1116.0</ele><time>2026-04-07T12:50:30.999Z</time></trkpt><trkpt lat="45.63076664866633" lon="11.169060936803803"><ele>1116.0</ele><time>2026-04-07T12:50:31.999Z</time></trkpt><trkpt lat="45.63083257000292" lon="11.168943499303158"><ele>1116.0</ele><time>2026-04-07T12:50:32.999Z</time></trkpt><trkpt lat="45.630879325578974" lon="11.168798285179946"><ele>1116.0</ele><time>2026-04-07T12:50:33.999Z</time></trkpt><trkpt lat="45.63089236318005" lon="11.168613378961052"><ele>1116.75</ele><time>2026-04-07T12:50:34.999Z</time></trkpt><trkpt lat="45.63088375509046" lon="11.168416267536376"><ele>1117.5</ele><time>2026-04-07T12:50:35.999Z</time></trkpt><trkpt lat="45.630866565274125" lon="11.168208968930676"><ele>1118.25</ele><time>2026-04-07T12:50:36.999Z</time></trkpt><trkpt lat="45.63083928226011" lon="11.168011048913131"><ele>1119.0</ele><time>2026-04-07T12:50:37.999Z</time></trkpt><trkpt lat="45.63079069657652" lon="11.167828397837116"><ele>1122.75</ele><time>2026-04-07T12:50:38.999Z</time></trkpt><trkpt lat="45.63072158215486" lon="11.167655993796002"><ele>1126.5</ele><time>2026-04-07T12:50:39.999Z</time></trkpt><trkpt lat="45.63064445932221" lon="11.167488609819225"><ele>1130.25</ele><time>2026-04-07T12:50:40.999Z</time></trkpt><trkpt lat="45.6305652063765" lon="11.167348650584348"><ele>1134.0</ele><time>2026-04-07T12:50:41.999Z</time></trkpt><trkpt lat="45.63046603175493" lon="11.167245126920525"><ele>1133.8</ele><time>2026-04-07T12:50:42.999Z</time></trkpt><trkpt lat="45.630352937150725" lon="11.167170325834059"><ele>1133.6000000000001</ele><time>2026-04-07T12:50:43.999Z</time></trkpt><trkpt lat="45.630257679101575" lon="11.167094076537134"><ele>1133.4</ele><time>2026-04-07T12:50:44.999Z</time></trkpt><trkpt lat="45.63018380640855" lon="11.167038996302864"><ele>1133.2</ele><time>2026-04-07T12:50:45.999Z</time></trkpt><trkpt lat="45.63010650765657" lon="11.166972451910842"><ele>1133.0</ele><time>2026-04-07T12:50:46.999Z</time></trkpt><trkpt lat="45.630039293886234" lon="11.166877165961285"><ele>1133.0</ele><time>2026-04-07T12:50:47.999Z</time></trkpt><trkpt lat="45.62998985103531" lon="11.16673387692076"><ele>1133.0</ele><time>2026-04-07T12:50:48.999Z</time></trkpt><trkpt lat="45.629967006113354" lon="11.16653981260876"><ele>1133.0</ele><time>2026-04-07T12:50:49.999Z</time></trkpt><trkpt lat="45.629942104886375" lon="11.16630489018207"><ele>1133.0</ele><time>2026-04-07T12:50:50.999Z</time></trkpt><trkpt lat="45.62990255028432" lon="11.166046998303685"><ele>1135.3333333333335</ele><time>2026-04-07T12:50:51.999Z</time></trkpt><trkpt lat="45.62988060783925" lon="11.165765197800386"><ele>1137.6666666666667</ele><time>2026-04-07T12:50:52.998Z</time></trkpt><trkpt lat="45.62987553806717" lon="11.165457151191864"><ele>1140.0</ele><time>2026-04-07T12:50:53.998Z</time></trkpt><trkpt lat="45.6298533963001" lon="11.165203785129691"><ele>1140.0</ele><time>2026-04-07T12:50:54.998Z</time></trkpt><trkpt lat="45.62984532809026" lon="11.165011462726348"><ele>1140.0</ele><time>2026-04-07T12:50:55.998Z</time></trkpt><trkpt lat="45.62985851740236" lon="11.164883403406272"><ele>1140.0</ele><time>2026-04-07T12:50:56.998Z</time></trkpt><trkpt lat="45.62989835768459" lon="11.164741437006004"><ele>1140.0</ele><time>2026-04-07T12:50:58.998Z</time></trkpt><trkpt lat="45.62996300181529" lon="11.164723336143144"><ele>1140.0</ele><time>2026-04-07T12:50:59.998Z</time></trkpt><trkpt lat="45.63004912782089" lon="11.164754133435082"><ele>1140.0</ele><time>2026-04-07T12:51:00.998Z</time></trkpt><trkpt lat="45.63016310370223" lon="11.164820851970617"><ele>1140.0</ele><time>2026-04-07T12:51:01.998Z</time></trkpt><trkpt lat="45.63030324651958" lon="11.164899319634209"><ele>1140.0</ele><time>2026-04-07T12:51:02.998Z</time></trkpt><trkpt lat="45.630457946452594" lon="11.164976602324653"><ele>1140.0</ele><time>2026-04-07T12:51:03.998Z</time></trkpt><trkpt lat="45.630612288930955" lon="11.165049184539285"><ele>1138.75</ele><time>2026-04-07T12:51:04.998Z</time></trkpt><trkpt lat="45.63075540748146" lon="11.165119168056158"><ele>1137.5</ele><time>2026-04-07T12:51:06.001Z</time></trkpt><trkpt lat="45.630887963099866" lon="11.165187942498159"><ele>1136.25</ele><time>2026-04-07T12:51:07.001Z</time></trkpt><trkpt lat="45.63101085197584" lon="11.165252059568841"><ele>1135.0</ele><time>2026-04-07T12:51:08.001Z</time></trkpt><trkpt lat="45.63112106727878" lon="11.165298890596317"><ele>1136.0</ele><time>2026-04-07T12:51:09.001Z</time></trkpt><trkpt lat="45.631227218817514" lon="11.165306055689536"><ele>1137.0</ele><time>2026-04-07T12:51:10.001Z</time></trkpt><trkpt lat="45.631332059442535" lon="11.165260777808381"><ele>1138.0</ele><time>2026-04-07T12:51:11.001Z</time></trkpt><trkpt lat="45.63143713916138" lon="11.165188799585872"><ele>1139.0</ele><time>2026-04-07T12:51:12.001Z</time></trkpt><trkpt lat="45.63153838705621" lon="11.165119801885256"><ele>1140.0</ele><time>2026-04-07T12:51:13.001Z</time></trkpt><trkpt lat="45.63162392673086" lon="11.165073364069073"><ele>1140.0</ele><time>2026-04-07T12:51:14.001Z</time></trkpt><trkpt lat="45.63168245584503" lon="11.165010298750582"><ele>1140.0</ele><time>2026-04-07T12:51:15.001Z</time></trkpt><trkpt lat="45.631704536305634" lon="11.164922382611676"><ele>1140.0</ele><time>2026-04-07T12:51:16.001Z</time></trkpt><trkpt lat="45.63167404268538" lon="11.164814948923834"><ele>1140.0</ele><time>2026-04-07T12:51:17Z</time></trkpt><trkpt lat="45.63158514697683" lon="11.164746958905564"><ele>1140.0</ele><time>2026-04-07T12:51:18Z</time></trkpt><trkpt lat="45.6314855489967" lon="11.16469098494422"><ele>1140.0</ele><time>2026-04-07T12:51:19Z</time></trkpt><trkpt lat="45.6313839077648" lon="11.164615075721352"><ele>1139.5</ele><time>2026-04-07T12:51:20Z</time></trkpt><trkpt lat="45.631303379193625" lon="11.164510062612162"><ele>1139.0</ele><time>2026-04-07T12:51:21Z</time></trkpt><trkpt lat="45.631242535800055" lon="11.164388371728933"><ele>1138.5</ele><time>2026-04-07T12:51:22Z</time></trkpt><trkpt lat="45.63120551843157" lon="11.164226231037063"><ele>1138.0</ele><time>2026-04-07T12:51:23Z</time></trkpt><trkpt lat="45.63117439601238" lon="11.164044674725432"><ele>1137.0</ele><time>2026-04-07T12:51:24Z</time></trkpt><trkpt lat="45.63114481354512" lon="11.163870695840261"><ele>1136.0</ele><time>2026-04-07T12:51:25Z</time></trkpt><trkpt lat="45.631116714521625" lon="11.163674127720007"><ele>1135.0</ele><time>2026-04-07T12:51:26Z</time></trkpt><trkpt lat="45.631113868872184" lon="11.163478374180645"><ele>1134.0</ele><time>2026-04-07T12:51:27Z</time></trkpt><trkpt lat="45.63111806652866" lon="11.163290322198783"><ele>1126.75</ele><time>2026-04-07T12:51:28Z</time></trkpt><trkpt lat="45.63110238856954" lon="11.163108732657479"><ele>1119.5</ele><time>2026-04-07T12:51:29Z</time></trkpt><trkpt lat="45.6310702767279" lon="11.162934607443102"><ele>1112.25</ele><time>2026-04-07T12:51:30Z</time></trkpt><trkpt lat="45.63105011878448" lon="11.162772813397906"><ele>1105.0</ele><time>2026-04-07T12:51:31Z</time></trkpt><trkpt lat="45.63105732462429" lon="11.162631764094986"><ele>1105.0</ele><time>2026-04-07T12:51:32Z</time></trkpt><trkpt lat="45.631087061742825" lon="11.16247912159646"><ele>1105.0</ele><time>2026-04-07T12:51:33Z</time></trkpt><trkpt lat="45.63113594722251" lon="11.162344056345864"><ele>1105.0</ele><time>2026-04-07T12:51:34Z</time></trkpt><trkpt lat="45.63116120477299" lon="11.162197460537659"><ele>1105.0</ele><time>2026-04-07T12:51:35Z</time></trkpt><trkpt lat="45.631179363922705" lon="11.162065180135514"><ele>1105.0</ele><time>2026-04-07T12:51:36Z</time></trkpt><trkpt lat="45.63116482449115" lon="11.161939314928595"><ele>1103.8333333333333</ele><time>2026-04-07T12:51:37Z</time></trkpt><trkpt lat="45.63112193869433" lon="11.161823988643855"><ele>1102.6666666666665</ele><time>2026-04-07T12:51:38Z</time></trkpt><trkpt lat="45.63105684061992" lon="11.161739721074106"><ele>1101.5</ele><time>2026-04-07T12:51:39Z</time></trkpt><trkpt lat="45.63100358342614" lon="11.161655218443826"><ele>1100.3333333333333</ele><time>2026-04-07T12:51:40Z</time></trkpt><trkpt lat="45.630972667749255" lon="11.161548653687408"><ele>1099.1666666666667</ele><time>2026-04-07T12:51:41Z</time></trkpt><trkpt lat="45.63096414459382" lon="11.161419406301032"><ele>1098.0</ele><time>2026-04-07T12:51:42Z</time></trkpt><trkpt lat="45.630967881919275" lon="11.161269146057217"><ele>1098.8</ele><time>2026-04-07T12:51:43Z</time></trkpt><trkpt lat="45.630999787375465" lon="11.161119707902781"><ele>1099.6</ele><time>2026-04-07T12:51:44Z</time></trkpt><trkpt lat="45.631081367934186" lon="11.161024058063251"><ele>1100.4</ele><time>2026-04-07T12:51:45Z</time></trkpt><trkpt lat="45.63116422605757" lon="11.16097539440351"><ele>1101.2</ele><time>2026-04-07T12:51:46Z</time></trkpt><trkpt lat="45.631248829140674" lon="11.160987474426129"><ele>1102.0</ele><time>2026-04-07T12:51:47Z</time></trkpt><trkpt lat="45.63132714614862" lon="11.160978704693457"><ele>1102.0</ele><time>2026-04-07T12:51:48Z</time></trkpt><trkpt lat="45.63139537442432" lon="11.16092031069654"><ele>1102.0</ele><time>2026-04-07T12:51:49Z</time></trkpt><trkpt lat="45.631455044667796" lon="11.160866820584074"><ele>1102.0</ele><time>2026-04-07T12:51:50Z</time></trkpt><trkpt lat="45.631499429345645" lon="11.160760721362657"><ele>1102.0</ele><time>2026-04-07T12:51:52Z</time></trkpt><trkpt lat="45.63146785363268" lon="11.160654147526277"><ele>1102.0</ele><time>2026-04-07T12:51:55Z</time></trkpt><trkpt lat="45.63136683819983" lon="11.16045115450536"><ele>1102.0</ele><time>2026-04-07T12:51:57Z</time></trkpt><trkpt lat="45.63130425964383" lon="11.160361138177601"><ele>1102.0</ele><time>2026-04-07T12:51:58Z</time></trkpt><trkpt lat="45.63122984556512" lon="11.160296844021866"><ele>1102.0</ele><time>2026-04-07T12:51:59Z</time></trkpt><trkpt lat="45.6311505296479" lon="11.160219609412692"><ele>1102.0</ele><time>2026-04-07T12:52:00Z</time></trkpt><trkpt lat="45.63107862881073" lon="11.160119201186284"><ele>1102.0</ele><time>2026-04-07T12:52:00.999Z</time></trkpt><trkpt lat="45.63100827208115" lon="11.160060261032003"><ele>1100.3333333333333</ele><time>2026-04-07T12:52:01.999Z</time></trkpt><trkpt lat="45.630946684784945" lon="11.159992050371324"><ele>1098.6666666666665</ele><time>2026-04-07T12:52:02.999Z</time></trkpt><trkpt lat="45.630885983261926" lon="11.159935600140596"><ele>1097.0</ele><time>2026-04-07T12:52:03.999Z</time></trkpt><trkpt lat="45.63081790973703" lon="11.159836512829207"><ele>1095.3333333333333</ele><time>2026-04-07T12:52:05.999Z</time></trkpt><trkpt lat="45.63088468887523" lon="11.159965777737442"><ele>1093.6666666666667</ele><time>2026-04-07T12:52:17.999Z</time></trkpt><trkpt lat="45.630948934849854" lon="11.160021465768656"><ele>1092.0</ele><time>2026-04-07T12:52:18.999Z</time></trkpt><trkpt lat="45.631020298077445" lon="11.160095042963263"><ele>1092.0</ele><time>2026-04-07T12:52:19.999Z</time></trkpt><trkpt lat="45.63108502786111" lon="11.160173081550498"><ele>1092.0</ele><time>2026-04-07T12:52:20.999Z</time></trkpt><trkpt lat="45.63109307279881" lon="11.160629511814287"><ele>1092.0</ele><time>2026-04-07T12:52:21.999Z</time></trkpt><trkpt lat="45.63115569279486" lon="11.160644892225838"><ele>1093.6666666666667</ele><time>2026-04-07T12:52:22.999Z</time></trkpt><trkpt lat="45.63121788945422" lon="11.160661466926964"><ele>1095.3333333333333</ele><time>2026-04-07T12:52:23.999Z</time></trkpt><trkpt lat="45.63128232241306" lon="11.16067863752661"><ele>1097.0</ele><time>2026-04-07T12:52:24.999Z</time></trkpt><trkpt lat="45.63138551694711" lon="11.160702547714449"><ele>1098.6666666666665</ele><time>2026-04-07T12:52:26.999Z</time></trkpt><trkpt lat="45.631416371317485" lon="11.160612906207984"><ele>1100.3333333333333</ele><time>2026-04-07T12:52:28.999Z</time></trkpt><trkpt lat="45.63144073002064" lon="11.1607000471052"><ele>1102.0</ele><time>2026-04-07T12:52:33.999Z</time></trkpt><trkpt lat="45.631399020422556" lon="11.160493862066517"><ele>1102.0</ele><time>2026-04-07T12:52:42.999Z</time></trkpt><trkpt lat="45.6313326187281" lon="11.16038442221846"><ele>1102.0</ele><time>2026-04-07T12:52:43.999Z</time></trkpt><trkpt lat="45.631235673421216" lon="11.160285248026744"><ele>1102.0</ele><time>2026-04-07T12:52:44.999Z</time></trkpt><trkpt lat="45.6311360585755" lon="11.160181883802682"><ele>1102.0</ele><time>2026-04-07T12:52:45.999Z</time></trkpt><trkpt lat="45.63103884778163" lon="11.160075781305816"><ele>1100.0</ele><time>2026-04-07T12:52:46.999Z</time></trkpt><trkpt lat="45.63094231263336" lon="11.159997534315373"><ele>1098.0</ele><time>2026-04-07T12:52:47.999Z</time></trkpt><trkpt lat="45.630862490467635" lon="11.159887237447968"><ele>1096.0</ele><time>2026-04-07T12:52:48.999Z</time></trkpt><trkpt lat="45.63078014688782" lon="11.15979991497152"><ele>1094.0</ele><time>2026-04-07T12:52:49.999Z</time></trkpt><trkpt lat="45.630699637531755" lon="11.159714536687476"><ele>1092.0</ele><time>2026-04-07T12:52:50.999Z</time></trkpt><trkpt lat="45.6306181247904" lon="11.15962818619196"><ele>1092.0</ele><time>2026-04-07T12:52:51.999Z</time></trkpt><trkpt lat="45.630536403818766" lon="11.159545597193013"><ele>1092.0</ele><time>2026-04-07T12:52:52.998Z</time></trkpt><trkpt lat="45.630458294267235" lon="11.159462967933258"><ele>1092.0</ele><time>2026-04-07T12:52:53.998Z</time></trkpt><trkpt lat="45.63037985999433" lon="11.159362609481242"><ele>1092.0</ele><time>2026-04-07T12:52:54.998Z</time></trkpt><trkpt lat="45.63030372285579" lon="11.159254503425444"><ele>1092.0</ele><time>2026-04-07T12:52:55.998Z</time></trkpt><trkpt lat="45.63022282530192" lon="11.15913744517294"><ele>1089.6</ele><time>2026-04-07T12:52:56.998Z</time></trkpt><trkpt lat="45.630140686886264" lon="11.159025133143457"><ele>1087.2</ele><time>2026-04-07T12:52:57.998Z</time></trkpt><trkpt lat="45.63005013449324" lon="11.158935697723567"><ele>1084.8</ele><time>2026-04-07T12:52:58.998Z</time></trkpt><trkpt lat="45.62997787114113" lon="11.158824745854211"><ele>1082.4</ele><time>2026-04-07T12:52:59.998Z</time></trkpt><trkpt lat="45.62992329942019" lon="11.158690162786831"><ele>1080.0</ele><time>2026-04-07T12:53:00.998Z</time></trkpt><trkpt lat="45.629862025139545" lon="11.158566228463469"><ele>1080.0</ele><time>2026-04-07T12:53:01.998Z</time></trkpt><trkpt lat="45.629797599742055" lon="11.158457473771461"><ele>1080.0</ele><time>2026-04-07T12:53:02.998Z</time></trkpt><trkpt lat="45.62974563236199" lon="11.158316878879667"><ele>1080.0</ele><time>2026-04-07T12:53:03.998Z</time></trkpt><trkpt lat="45.62969253440759" lon="11.158175159436137"><ele>1080.0</ele><time>2026-04-07T12:53:04.998Z</time></trkpt><trkpt lat="45.62962554213928" lon="11.158037079053111"><ele>1080.0</ele><time>2026-04-07T12:53:05.998Z</time></trkpt><trkpt lat="45.62955827255645" lon="11.15789184994747"><ele>1079.5</ele><time>2026-04-07T12:53:06.998Z</time></trkpt><trkpt lat="45.62948905785177" lon="11.157736002293776"><ele>1079.0</ele><time>2026-04-07T12:53:07.998Z</time></trkpt><trkpt lat="45.629414119124036" lon="11.15758005717945"><ele>1078.5</ele><time>2026-04-07T12:53:08.998Z</time></trkpt><trkpt lat="45.629344794051256" lon="11.157421191225268"><ele>1078.0</ele><time>2026-04-07T12:53:09.998Z</time></trkpt><trkpt lat="45.62928151337242" lon="11.157265579758656"><ele>1074.5</ele><time>2026-04-07T12:53:10.998Z</time></trkpt><trkpt lat="45.62922137964733" lon="11.157120192788474"><ele>1071.0</ele><time>2026-04-07T12:53:12Z</time></trkpt><trkpt lat="45.629159663193704" lon="11.156980267937458"><ele>1067.5</ele><time>2026-04-07T12:53:13Z</time></trkpt><trkpt lat="45.62910503368495" lon="11.156837160524876"><ele>1064.0</ele><time>2026-04-07T12:53:14Z</time></trkpt><trkpt lat="45.62905221568679" lon="11.156695958848742"><ele>1063.0</ele><time>2026-04-07T12:53:15Z</time></trkpt><trkpt lat="45.62900705119863" lon="11.1565323036691"><ele>1062.0</ele><time>2026-04-07T12:53:16Z</time></trkpt><trkpt lat="45.62896182380859" lon="11.156359702540767"><ele>1061.0</ele><time>2026-04-07T12:53:17Z</time></trkpt><trkpt lat="45.62891813474316" lon="11.156173708158141"><ele>1060.0</ele><time>2026-04-07T12:53:18Z</time></trkpt><trkpt lat="45.6288702959422" lon="11.155972540653154"><ele>1060.0</ele><time>2026-04-07T12:53:19Z</time></trkpt><trkpt lat="45.62882416153794" lon="11.155765884282152"><ele>1060.0</ele><time>2026-04-07T12:53:20Z</time></trkpt><trkpt lat="45.628779326526" lon="11.155579458067656"><ele>1060.0</ele><time>2026-04-07T12:53:21Z</time></trkpt><trkpt lat="45.62873329034213" lon="11.15539964721571"><ele>1060.0</ele><time>2026-04-07T12:53:22Z</time></trkpt><trkpt lat="45.62868784861532" lon="11.155228845586183"><ele>1059.75</ele><time>2026-04-07T12:53:23Z</time></trkpt><trkpt lat="45.62864567009916" lon="11.155060286481682"><ele>1059.5</ele><time>2026-04-07T12:53:24Z</time></trkpt><trkpt lat="45.62861100489633" lon="11.154895216050326"><ele>1059.25</ele><time>2026-04-07T12:53:25Z</time></trkpt><trkpt lat="45.62857842647581" lon="11.15474362044221"><ele>1059.0</ele><time>2026-04-07T12:53:26Z</time></trkpt><trkpt lat="45.62856135926072" lon="11.154592408134803"><ele>1058.0</ele><time>2026-04-07T12:53:27Z</time></trkpt><trkpt lat="45.62856996828172" lon="11.154441092911924"><ele>1057.0</ele><time>2026-04-07T12:53:28Z</time></trkpt><trkpt lat="45.62859478343272" lon="11.154291995669075"><ele>1056.0</ele><time>2026-04-07T12:53:29Z</time></trkpt><trkpt lat="45.628623003905204" lon="11.154169220626668"><ele>1055.0</ele><time>2026-04-07T12:53:30Z</time></trkpt><trkpt lat="45.628611593786914" lon="11.154039864278056"><ele>1054.0</ele><time>2026-04-07T12:53:31Z</time></trkpt><trkpt lat="45.62857738739243" lon="11.153928840262004"><ele>1053.25</ele><time>2026-04-07T12:53:32Z</time></trkpt><trkpt lat="45.62850267018636" lon="11.15379634252585"><ele>1052.5</ele><time>2026-04-07T12:53:33Z</time></trkpt><trkpt lat="45.62842547748639" lon="11.15365933717687"><ele>1051.75</ele><time>2026-04-07T12:53:34Z</time></trkpt><trkpt lat="45.62835788046458" lon="11.153500857537141"><ele>1051.0</ele><time>2026-04-07T12:53:35Z</time></trkpt><trkpt lat="45.62830669061343" lon="11.153354023927184"><ele>1051.0</ele><time>2026-04-07T12:53:36Z</time></trkpt><trkpt lat="45.62825712664762" lon="11.15322155160399"><ele>1051.0</ele><time>2026-04-07T12:53:37Z</time></trkpt><trkpt lat="45.62820602037408" lon="11.153099321216798"><ele>1051.0</ele><time>2026-04-07T12:53:38Z</time></trkpt><trkpt lat="45.628168968376045" lon="11.152963231722868"><ele>1051.0</ele><time>2026-04-07T12:53:39Z</time></trkpt><trkpt lat="45.62814871712391" lon="11.152791435860015"><ele>1051.0</ele><time>2026-04-07T12:53:40Z</time></trkpt><trkpt lat="45.62812310285167" lon="11.152622392636871"><ele>1050.8</ele><time>2026-04-07T12:53:41Z</time></trkpt><trkpt lat="45.62808929041173" lon="11.152470915218009"><ele>1050.6</ele><time>2026-04-07T12:53:42Z</time></trkpt><trkpt lat="45.628060912235156" lon="11.152317017358317"><ele>1050.4</ele><time>2026-04-07T12:53:43Z</time></trkpt><trkpt lat="45.62803159624242" lon="11.152155551661444"><ele>1050.2</ele><time>2026-04-07T12:53:44Z</time></trkpt><trkpt lat="45.628023791444164" lon="11.15201511505468"><ele>1050.0</ele><time>2026-04-07T12:53:45Z</time></trkpt><trkpt lat="45.62803225390359" lon="11.151885770669121"><ele>1048.0</ele><time>2026-04-07T12:53:46Z</time></trkpt><trkpt lat="45.62807408846385" lon="11.151732072063428"><ele>1046.0</ele><time>2026-04-07T12:53:47Z</time></trkpt><trkpt lat="45.62811539063691" lon="11.151540616661858"><ele>1044.0</ele><time>2026-04-07T12:53:48Z</time></trkpt><trkpt lat="45.62815173401596" lon="11.151315486605139"><ele>1042.0</ele><time>2026-04-07T12:53:49Z</time></trkpt><trkpt lat="45.62819036733132" lon="11.151092208238433"><ele>1040.5</ele><time>2026-04-07T12:53:50Z</time></trkpt><trkpt lat="45.62821682983803" lon="11.150890175420674"><ele>1039.0</ele><time>2026-04-07T12:53:51Z</time></trkpt><trkpt lat="45.6282450159698" lon="11.150713055068719"><ele>1037.5</ele><time>2026-04-07T12:53:52Z</time></trkpt><trkpt lat="45.62827538948989" lon="11.15057214554514"><ele>1036.0</ele><time>2026-04-07T12:53:53Z</time></trkpt><trkpt lat="45.628300959280644" lon="11.150462139280641"><ele>1036.0</ele><time>2026-04-07T12:53:54Z</time></trkpt><trkpt lat="45.62831423774502" lon="11.150354566239908"><ele>1036.0</ele><time>2026-04-07T12:53:55Z</time></trkpt><trkpt lat="45.628289550878925" lon="11.150266229887714"><ele>1036.0</ele><time>2026-04-07T12:53:56Z</time></trkpt><trkpt lat="45.62823299453452" lon="11.150125356242441"><ele>1036.0</ele><time>2026-04-07T12:53:57Z</time></trkpt><trkpt lat="45.62816341371948" lon="11.14996411728997"><ele>1036.0</ele><time>2026-04-07T12:53:58Z</time></trkpt><trkpt lat="45.628094159230535" lon="11.149766599174107"><ele>1035.0</ele><time>2026-04-07T12:53:58.999Z</time></trkpt><trkpt lat="45.62800163857945" lon="11.149587831127626"><ele>1034.0</ele><time>2026-04-07T12:53:59.999Z</time></trkpt><trkpt lat="45.62792770699141" lon="11.149412302514934"><ele>1033.0</ele><time>2026-04-07T12:54:00.999Z</time></trkpt><trkpt lat="45.627847881712086" lon="11.14925813627902"><ele>1032.0</ele><time>2026-04-07T12:54:01.999Z</time></trkpt><trkpt lat="45.627793866671574" lon="11.149097111534735"><ele>1030.8</ele><time>2026-04-07T12:54:02.999Z</time></trkpt><trkpt lat="45.62773988414989" lon="11.14894431395598"><ele>1029.6</ele><time>2026-04-07T12:54:03.999Z</time></trkpt><trkpt lat="45.627678643347366" lon="11.148816556008924"><ele>1028.3999999999999</ele><time>2026-04-07T12:54:04.999Z</time></trkpt><trkpt lat="45.627639079718776" lon="11.148696157992148"><ele>1027.2</ele><time>2026-04-07T12:54:05.999Z</time></trkpt><trkpt lat="45.62761613999509" lon="11.148581819578057"><ele>1026.0</ele><time>2026-04-07T12:54:06.999Z</time></trkpt><trkpt lat="45.62761165396807" lon="11.148456201140933"><ele>1026.0</ele><time>2026-04-07T12:54:07.999Z</time></trkpt><trkpt lat="45.62763429647357" lon="11.148332086023663"><ele>1026.0</ele><time>2026-04-07T12:54:08.999Z</time></trkpt><trkpt lat="45.62767094648298" lon="11.148205657732541"><ele>1026.0</ele><time>2026-04-07T12:54:09.999Z</time></trkpt><trkpt lat="45.627691924631634" lon="11.148047733532888"><ele>1026.0</ele><time>2026-04-07T12:54:10.999Z</time></trkpt><trkpt lat="45.62766394422867" lon="11.147907127074525"><ele>1026.0</ele><time>2026-04-07T12:54:11.999Z</time></trkpt><trkpt lat="45.62761752512565" lon="11.147761169996311"><ele>1024.75</ele><time>2026-04-07T12:54:12.999Z</time></trkpt><trkpt lat="45.62758535964982" lon="11.14759375751482"><ele>1023.5</ele><time>2026-04-07T12:54:13.999Z</time></trkpt><trkpt lat="45.62757661837198" lon="11.147411037954232"><ele>1022.25</ele><time>2026-04-07T12:54:14.999Z</time></trkpt><trkpt lat="45.627573769001444" lon="11.14725163907728"><ele>1021.0</ele><time>2026-04-07T12:54:15.999Z</time></trkpt><trkpt lat="45.62756678545881" lon="11.147110868574087"><ele>1017.25</ele><time>2026-04-07T12:54:16.999Z</time></trkpt><trkpt lat="45.627570496566285" lon="11.146978128452893"><ele>1013.5</ele><time>2026-04-07T12:54:17.999Z</time></trkpt><trkpt lat="45.62760114071793" lon="11.146848165398074"><ele>1009.75</ele><time>2026-04-07T12:54:18.999Z</time></trkpt><trkpt lat="45.62765342988082" lon="11.146698728320514"><ele>1006.0</ele><time>2026-04-07T12:54:19.999Z</time></trkpt><trkpt lat="45.627736165595195" lon="11.146530286172085"><ele>1012.75</ele><time>2026-04-07T12:54:20.999Z</time></trkpt><trkpt lat="45.62782003793151" lon="11.146348169361707"><ele>1019.5</ele><time>2026-04-07T12:54:21.999Z</time></trkpt><trkpt lat="45.62788579060336" lon="11.146184488382923"><ele>1026.25</ele><time>2026-04-07T12:54:22.999Z</time></trkpt><trkpt lat="45.627944355297544" lon="11.146024753967303"><ele>1033.0</ele><time>2026-04-07T12:54:23.999Z</time></trkpt><trkpt lat="45.62798727326337" lon="11.145890305037177"><ele>1033.0</ele><time>2026-04-07T12:54:24.999Z</time></trkpt><trkpt lat="45.62802092111504" lon="11.145793985826526"><ele>1033.0</ele><time>2026-04-07T12:54:25.999Z</time></trkpt><trkpt lat="45.62801734066128" lon="11.145662437047138"><ele>1033.0</ele><time>2026-04-07T12:54:27.999Z</time></trkpt><trkpt lat="45.62789457228158" lon="11.145618768665349"><ele>1033.0</ele><time>2026-04-07T12:54:29.999Z</time></trkpt><trkpt lat="45.62785007652989" lon="11.145757452103664"><ele>1033.0</ele><time>2026-04-07T12:54:30.999Z</time></trkpt><trkpt lat="45.62785243094826" lon="11.145905506750534"><ele>1018.5</ele><time>2026-04-07T12:54:31.999Z</time></trkpt><trkpt lat="45.62780264651185" lon="11.146038611166189"><ele>1004.0</ele><time>2026-04-07T12:54:32.999Z</time></trkpt><trkpt lat="45.62773740597109" lon="11.146183545665956"><ele>989.5</ele><time>2026-04-07T12:54:33.999Z</time></trkpt><trkpt lat="45.62766501776774" lon="11.146324082837658"><ele>975.0</ele><time>2026-04-07T12:54:34.999Z</time></trkpt><trkpt lat="45.62759156565204" lon="11.146435615303586"><ele>975.0</ele><time>2026-04-07T12:54:35.999Z</time></trkpt><trkpt lat="45.62752620232682" lon="11.146526158353167"><ele>975.0</ele><time>2026-04-07T12:54:36.999Z</time></trkpt><trkpt lat="45.62745608688026" lon="11.146630458552945"><ele>975.0</ele><time>2026-04-07T12:54:37.999Z</time></trkpt><trkpt lat="45.627412994027026" lon="11.14672593285536"><ele>975.0</ele><time>2026-04-07T12:54:38.999Z</time></trkpt><trkpt lat="45.627399346816325" lon="11.146831159566077"><ele>975.0</ele><time>2026-04-07T12:54:39.999Z</time></trkpt><trkpt lat="45.62733174667153" lon="11.146915110937282"><ele>975.0</ele><time>2026-04-07T12:54:41.999Z</time></trkpt><trkpt lat="45.62732287726351" lon="11.146712620367776"><ele>975.0</ele><time>2026-04-07T12:54:45.999Z</time></trkpt><trkpt lat="45.627394589267574" lon="11.146599767785508"><ele>975.0</ele><time>2026-04-07T12:54:46.999Z</time></trkpt><trkpt lat="45.6274795393715" lon="11.146480795704147"><ele>975.0</ele><time>2026-04-07T12:54:47.998Z</time></trkpt><trkpt lat="45.6275514925167" lon="11.146329263199641"><ele>975.0</ele><time>2026-04-07T12:54:48.998Z</time></trkpt><trkpt lat="45.62761530949746" lon="11.146192960365575"><ele>975.0</ele><time>2026-04-07T12:54:49.998Z</time></trkpt><trkpt lat="45.62766783468223" lon="11.14605514718316"><ele>975.0</ele><time>2026-04-07T12:54:50.998Z</time></trkpt><trkpt lat="45.62769904967789" lon="11.145887075404966"><ele>975.0</ele><time>2026-04-07T12:54:51.998Z</time></trkpt><trkpt lat="45.62772061787699" lon="11.145700417934425"><ele>975.0</ele><time>2026-04-07T12:54:52.998Z</time></trkpt><trkpt lat="45.627742537404515" lon="11.145513105166456"><ele>969.75</ele><time>2026-04-07T12:54:53.998Z</time></trkpt><trkpt lat="45.62779211644131" lon="11.145346667146237"><ele>964.5</ele><time>2026-04-07T12:54:54.998Z</time></trkpt><trkpt lat="45.62784885859151" lon="11.145197082262243"><ele>959.25</ele><time>2026-04-07T12:54:55.998Z</time></trkpt><trkpt lat="45.62790636071762" lon="11.145057837913503"><ele>954.0</ele><time>2026-04-07T12:54:56.998Z</time></trkpt><trkpt lat="45.62796365718733" lon="11.144937674792418"><ele>954.5714285714286</ele><time>2026-04-07T12:54:57.998Z</time></trkpt><trkpt lat="45.62798991729228" lon="11.144845036192484"><ele>955.1428571428571</ele><time>2026-04-07T12:54:58.998Z</time></trkpt><trkpt lat="45.62799212501322" lon="11.144740037913623"><ele>955.7142857142857</ele><time>2026-04-07T12:54:59.998Z</time></trkpt><trkpt lat="45.62796869966514" lon="11.144645336267702"><ele>956.2857142857142</ele><time>2026-04-07T12:55:00.998Z</time></trkpt><trkpt lat="45.62791887687662" lon="11.14456207140296"><ele>956.8571428571429</ele><time>2026-04-07T12:55:01.998Z</time></trkpt><trkpt lat="45.62785171759997" lon="11.144496910920815"><ele>957.4285714285713</ele><time>2026-04-07T12:55:02.998Z</time></trkpt><trkpt lat="45.62778951412334" lon="11.144439853626787"><ele>958.0</ele><time>2026-04-07T12:55:03.998Z</time></trkpt><trkpt lat="45.62773704782272" lon="11.144369430319015"><ele>958.0</ele><time>2026-04-07T12:55:04.998Z</time></trkpt><trkpt lat="45.62771358748502" lon="11.144265117456763"><ele>958.0</ele><time>2026-04-07T12:55:05.998Z</time></trkpt><trkpt lat="45.627682406340256" lon="11.144127394833188"><ele>958.0</ele><time>2026-04-07T12:55:06.998Z</time></trkpt><trkpt lat="45.627688065495995" lon="11.143951530681218"><ele>958.0</ele><time>2026-04-07T12:55:07.998Z</time></trkpt><trkpt lat="45.62770034459763" lon="11.14380401141156"><ele>958.0</ele><time>2026-04-07T12:55:08.998Z</time></trkpt><trkpt lat="45.62772591589899" lon="11.143688819422987"><ele>955.4</ele><time>2026-04-07T12:55:09.998Z</time></trkpt><trkpt lat="45.62776408462438" lon="11.143591444826763"><ele>952.8</ele><time>2026-04-07T12:55:10.998Z</time></trkpt><trkpt lat="45.62779650762131" lon="11.143467551435727"><ele>950.2</ele><time>2026-04-07T12:55:12.998Z</time></trkpt><trkpt lat="45.6277211884869" lon="11.143379841437797"><ele>947.6</ele><time>2026-04-07T12:55:14.998Z</time></trkpt><trkpt lat="45.6276250236771" lon="11.143587132302036"><ele>945.0</ele><time>2026-04-07T12:55:16.998Z</time></trkpt><trkpt lat="45.627604401544495" lon="11.143717483228588"><ele>945.0</ele><time>2026-04-07T12:55:18Z</time></trkpt><trkpt lat="45.627577320338645" lon="11.143884255243032"><ele>945.0</ele><time>2026-04-07T12:55:19Z</time></trkpt><trkpt lat="45.62757172956433" lon="11.144055044876414"><ele>945.0</ele><time>2026-04-07T12:55:20Z</time></trkpt><trkpt lat="45.62757496577753" lon="11.144211960826949"><ele>945.0</ele><time>2026-04-07T12:55:21Z</time></trkpt><trkpt lat="45.62758428782963" lon="11.144360745978291"><ele>946.8</ele><time>2026-04-07T12:55:22Z</time></trkpt><trkpt lat="45.62760095782301" lon="11.144485900890418"><ele>948.6</ele><time>2026-04-07T12:55:23Z</time></trkpt><trkpt lat="45.62763427324638" lon="11.144609001132498"><ele>950.4000000000001</ele><time>2026-04-07T12:55:24Z</time></trkpt><trkpt lat="45.62767508639443" lon="11.144718328263004"><ele>952.2</ele><time>2026-04-07T12:55:25Z</time></trkpt><trkpt lat="45.627703443993184" lon="11.144876405745155"><ele>954.0</ele><time>2026-04-07T12:55:27Z</time></trkpt><trkpt lat="45.627624570366194" lon="11.14491933438519"><ele>954.8000000000001</ele><time>2026-04-07T12:55:29Z</time></trkpt><trkpt lat="45.6275901309972" lon="11.144781063760725"><ele>955.6000000000001</ele><time>2026-04-07T12:55:31Z</time></trkpt><trkpt lat="45.62758518106964" lon="11.144655755640992"><ele>956.4</ele><time>2026-04-07T12:55:32Z</time></trkpt><trkpt lat="45.627552378192824" lon="11.144520611995235"><ele>957.2</ele><time>2026-04-07T12:55:33Z</time></trkpt><trkpt lat="45.627490664647446" lon="11.144345104696109"><ele>958.0</ele><time>2026-04-07T12:55:34Z</time></trkpt><trkpt lat="45.627447033326675" lon="11.144179898082754"><ele>955.4</ele><time>2026-04-07T12:55:35Z</time></trkpt><trkpt lat="45.62742285048712" lon="11.144039485118698"><ele>952.8</ele><time>2026-04-07T12:55:36Z</time></trkpt><trkpt lat="45.62740904856566" lon="11.143905002781048"><ele>950.2</ele><time>2026-04-07T12:55:37Z</time></trkpt><trkpt lat="45.62739227699731" lon="11.143788842279896"><ele>947.6</ele><time>2026-04-07T12:55:38Z</time></trkpt><trkpt lat="45.627397499765465" lon="11.143664609505667"><ele>945.0</ele><time>2026-04-07T12:55:39Z</time></trkpt><trkpt lat="45.627418635772315" lon="11.143537106758972"><ele>945.0</ele><time>2026-04-07T12:55:40Z</time></trkpt><trkpt lat="45.627447134721216" lon="11.143394469333721"><ele>945.0</ele><time>2026-04-07T12:55:41Z</time></trkpt><trkpt lat="45.627486758155705" lon="11.143264912244941"><ele>945.0</ele><time>2026-04-07T12:55:42Z</time></trkpt><trkpt lat="45.62753794731455" lon="11.14314345513993"><ele>945.0</ele><time>2026-04-07T12:55:43Z</time></trkpt><trkpt lat="45.62760384043336" lon="11.143044860253337"><ele>945.0</ele><time>2026-04-07T12:55:44Z</time></trkpt><trkpt lat="45.62764472212011" lon="11.142952623937115"><ele>941.0</ele><time>2026-04-07T12:55:45Z</time></trkpt><trkpt lat="45.627648784337566" lon="11.142822711146954"><ele>937.0</ele><time>2026-04-07T12:55:46Z</time></trkpt><trkpt lat="45.627639972877866" lon="11.142703524387207"><ele>933.0</ele><time>2026-04-07T12:55:47Z</time></trkpt><trkpt lat="45.62763932255949" lon="11.14258059061956"><ele>929.0</ele><time>2026-04-07T12:55:48Z</time></trkpt><trkpt lat="45.627673429528585" lon="11.142457385508562"><ele>925.0</ele><time>2026-04-07T12:55:49Z</time></trkpt><trkpt lat="45.62774449415189" lon="11.142340188189992"><ele>922.8</ele><time>2026-04-07T12:55:50Z</time></trkpt><trkpt lat="45.627801232834294" lon="11.142213005438768"><ele>920.6</ele><time>2026-04-07T12:55:51Z</time></trkpt><trkpt lat="45.62782750854636" lon="11.142088178396248"><ele>918.4000000000001</ele><time>2026-04-07T12:55:52Z</time></trkpt><trkpt lat="45.62782633728221" lon="11.141961495451342"><ele>916.2</ele><time>2026-04-07T12:55:53Z</time></trkpt><trkpt lat="45.627809276761944" lon="11.141831011214373"><ele>914.0</ele><time>2026-04-07T12:55:54Z</time></trkpt><trkpt lat="45.627762449657304" lon="11.141695968538194"><ele>914.0000000000001</ele><time>2026-04-07T12:55:55Z</time></trkpt><trkpt lat="45.62772424273244" lon="11.141571370876665"><ele>914.0</ele><time>2026-04-07T12:55:56Z</time></trkpt><trkpt lat="45.62770059449665" lon="11.14144985463143"><ele>914.0</ele><time>2026-04-07T12:55:57Z</time></trkpt><trkpt lat="45.6277106743197" lon="11.141359746667797"><ele>914.0</ele><time>2026-04-07T12:55:58Z</time></trkpt><trkpt lat="45.62773643172861" lon="11.141274618148945"><ele>914.0000000000001</ele><time>2026-04-07T12:55:59Z</time></trkpt><trkpt lat="45.627805987316236" lon="11.141190843896586"><ele>914.0</ele><time>2026-04-07T12:56:00Z</time></trkpt><trkpt lat="45.62787671048497" lon="11.14107198483893"><ele>917.8333333333334</ele><time>2026-04-07T12:56:00.999Z</time></trkpt><trkpt lat="45.62795680789458" lon="11.14097712554922"><ele>921.6666666666667</ele><time>2026-04-07T12:56:01.999Z</time></trkpt><trkpt lat="45.62800737677249" lon="11.140868354176044"><ele>925.5</ele><time>2026-04-07T12:56:02.999Z</time></trkpt><trkpt lat="45.628052314955106" lon="11.140782121440353"><ele>929.3333333333333</ele><time>2026-04-07T12:56:03.999Z</time></trkpt><trkpt lat="45.6281116987713" lon="11.14074339986367"><ele>933.1666666666666</ele><time>2026-04-07T12:56:04.999Z</time></trkpt><trkpt lat="45.62819571762135" lon="11.140800527254028"><ele>937.0</ele><time>2026-04-07T12:56:05.999Z</time></trkpt><trkpt lat="45.62828402561041" lon="11.140779120208677"><ele>937.0</ele><time>2026-04-07T12:56:07.999Z</time></trkpt><trkpt lat="45.62828550811734" lon="11.14067507773457"><ele>937.0</ele><time>2026-04-07T12:56:09.999Z</time></trkpt><trkpt lat="45.628172940300814" lon="11.140614114272855"><ele>937.0</ele><time>2026-04-07T12:56:11.999Z</time></trkpt><trkpt lat="45.62810805791046" lon="11.14060787861219"><ele>937.0</ele><time>2026-04-07T12:56:12.999Z</time></trkpt><trkpt lat="45.62803467195953" lon="11.140633233862841"><ele>937.0</ele><time>2026-04-07T12:56:13.999Z</time></trkpt><trkpt lat="45.62793489817688" lon="11.140726905398157"><ele>936.9999999999999</ele><time>2026-04-07T12:56:15.999Z</time></trkpt><trkpt lat="45.62784756236168" lon="11.140874658026464"><ele>937.0</ele><time>2026-04-07T12:56:17.999Z</time></trkpt><trkpt lat="45.62779594792334" lon="11.140959869252958"><ele>937.0</ele><time>2026-04-07T12:56:18.999Z</time></trkpt><trkpt lat="45.62773337385585" lon="11.141032888913603"><ele>937.0</ele><time>2026-04-07T12:56:19.999Z</time></trkpt><trkpt lat="45.627667249203064" lon="11.141098258136923"><ele>936.9999999999999</ele><time>2026-04-07T12:56:20.999Z</time></trkpt><trkpt lat="45.627599486681305" lon="11.14114105262801"><ele>937.0</ele><time>2026-04-07T12:56:21.999Z</time></trkpt><trkpt lat="45.62753099287011" lon="11.141057059422375"><ele>929.6</ele><time>2026-04-07T12:56:22.999Z</time></trkpt><trkpt lat="45.62744116667465" lon="11.141031266583987"><ele>922.2</ele><time>2026-04-07T12:56:23.999Z</time></trkpt><trkpt lat="45.62736040415008" lon="11.141019220367108"><ele>914.8</ele><time>2026-04-07T12:56:24.999Z</time></trkpt><trkpt lat="45.62727247251219" lon="11.141088859686384"><ele>907.4</ele><time>2026-04-07T12:56:26.999Z</time></trkpt><trkpt lat="45.62728468469989" lon="11.14124185138921"><ele>900.0</ele><time>2026-04-07T12:56:27.999Z</time></trkpt><trkpt lat="45.62737547297275" lon="11.14134247460075"><ele>900.0</ele><time>2026-04-07T12:56:28.999Z</time></trkpt><trkpt lat="45.62743932012292" lon="11.141452812107104"><ele>900.0</ele><time>2026-04-07T12:56:29.999Z</time></trkpt><trkpt lat="45.62750485153449" lon="11.14157498887236"><ele>900.0</ele><time>2026-04-07T12:56:30.999Z</time></trkpt><trkpt lat="45.62752325426942" lon="11.14170905341308"><ele>900.0</ele><time>2026-04-07T12:56:31.999Z</time></trkpt><trkpt lat="45.62752642278861" lon="11.1418124175516"><ele>900.0</ele><time>2026-04-07T12:56:32.999Z</time></trkpt><trkpt lat="45.627506486549684" lon="11.141917195291802"><ele>902.3333333333334</ele><time>2026-04-07T12:56:33.999Z</time></trkpt><trkpt lat="45.627475370899795" lon="11.142021748594573"><ele>904.6666666666667</ele><time>2026-04-07T12:56:34.999Z</time></trkpt><trkpt lat="45.62743249152862" lon="11.142121038736962"><ele>907.0</ele><time>2026-04-07T12:56:35.999Z</time></trkpt><trkpt lat="45.62735726003457" lon="11.142176043810913"><ele>909.3333333333334</ele><time>2026-04-07T12:56:36.999Z</time></trkpt><trkpt lat="45.62728286591801" lon="11.142253648254252"><ele>911.6666666666667</ele><time>2026-04-07T12:56:37.999Z</time></trkpt><trkpt lat="45.62719900262054" lon="11.142296429511806"><ele>914.0</ele><time>2026-04-07T12:56:38.999Z</time></trkpt><trkpt lat="45.62714406963076" lon="11.142371145458144"><ele>915.8333333333334</ele><time>2026-04-07T12:56:39.999Z</time></trkpt><trkpt lat="45.627118944749604" lon="11.142465335375901"><ele>917.6666666666667</ele><time>2026-04-07T12:56:40.999Z</time></trkpt><trkpt lat="45.627123625478916" lon="11.14257436092747"><ele>919.5</ele><time>2026-04-07T12:56:41.999Z</time></trkpt><trkpt lat="45.62714140155175" lon="11.142686327284245"><ele>921.3333333333333</ele><time>2026-04-07T12:56:42.999Z</time></trkpt><trkpt lat="45.627170514197815" lon="11.142785979116393"><ele>923.1666666666666</ele><time>2026-04-07T12:56:43.999Z</time></trkpt><trkpt lat="45.627126260526246" lon="11.142903357330727"><ele>925.0</ele><time>2026-04-07T12:56:45.999Z</time></trkpt><trkpt lat="45.627067495456856" lon="11.142810568706114"><ele>924.9999999999999</ele><time>2026-04-07T12:56:48.998Z</time></trkpt><trkpt lat="45.627066550370124" lon="11.142707842310655"><ele>925.0</ele><time>2026-04-07T12:56:49.998Z</time></trkpt><trkpt lat="45.62707014967953" lon="11.142582494610945"><ele>925.0</ele><time>2026-04-07T12:56:50.998Z</time></trkpt><trkpt lat="45.627057220056535" lon="11.142486566741818"><ele>925.0</ele><time>2026-04-07T12:56:51.998Z</time></trkpt><trkpt lat="45.62706137384913" lon="11.14237042477321"><ele>924.9999999999999</ele><time>2026-04-07T12:56:52.998Z</time></trkpt><trkpt lat="45.627081413058214" lon="11.142259989470483"><ele>925.0</ele><time>2026-04-07T12:56:53.998Z</time></trkpt><trkpt lat="45.62711959536759" lon="11.14216346376037"><ele>923.1666666666666</ele><time>2026-04-07T12:56:54.998Z</time></trkpt><trkpt lat="45.62715961691696" lon="11.142069100823022"><ele>921.3333333333333</ele><time>2026-04-07T12:56:55.998Z</time></trkpt><trkpt lat="45.62721637708786" lon="11.141983549593279"><ele>919.5</ele><time>2026-04-07T12:56:56.998Z</time></trkpt><trkpt lat="45.62725822287951" lon="11.141879825429822"><ele>917.6666666666667</ele><time>2026-04-07T12:56:57.998Z</time></trkpt><trkpt lat="45.62726670517267" lon="11.141781193342844"><ele>915.8333333333334</ele><time>2026-04-07T12:56:58.998Z</time></trkpt><trkpt lat="45.62726695684792" lon="11.141655648501544"><ele>914.0</ele><time>2026-04-07T12:56:59.998Z</time></trkpt><trkpt lat="45.62721424838318" lon="11.14154687073715"><ele>911.2</ele><time>2026-04-07T12:57:00.998Z</time></trkpt><trkpt lat="45.62713705644157" lon="11.14146172722339"><ele>908.4000000000001</ele><time>2026-04-07T12:57:01.998Z</time></trkpt><trkpt lat="45.62706469963725" lon="11.14135077789747"><ele>905.6</ele><time>2026-04-07T12:57:02.998Z</time></trkpt><trkpt lat="45.62698711997814" lon="11.141245156915746"><ele>902.8</ele><time>2026-04-07T12:57:03.998Z</time></trkpt><trkpt lat="45.62691864133202" lon="11.141163905207327"><ele>900.0</ele><time>2026-04-07T12:57:04.998Z</time></trkpt><trkpt lat="45.626871603960815" lon="11.141099395161667"><ele>892.2</ele><time>2026-04-07T12:57:05.998Z</time></trkpt><trkpt lat="45.62686364949078" lon="11.140926743387764"><ele>884.4</ele><time>2026-04-07T12:57:07.998Z</time></trkpt><trkpt lat="45.62690360121418" lon="11.140828677866784"><ele>876.5999999999999</ele><time>2026-04-07T12:57:08.998Z</time></trkpt><trkpt lat="45.62696355244798" lon="11.140741988141391"><ele>868.8</ele><time>2026-04-07T12:57:09.998Z</time></trkpt><trkpt lat="45.62704707271579" lon="11.140686324766708"><ele>861.0</ele><time>2026-04-07T12:57:10.998Z</time></trkpt><trkpt lat="45.62714396461401" lon="11.14064438731781"><ele>861.0</ele><time>2026-04-07T12:57:11.998Z</time></trkpt><trkpt lat="45.627247038065185" lon="11.14060668894466"><ele>860.9999999999999</ele><time>2026-04-07T12:57:12.998Z</time></trkpt><trkpt lat="45.62734109675884" lon="11.140582328135368"><ele>860.9999999999999</ele><time>2026-04-07T12:57:13.998Z</time></trkpt><trkpt lat="45.62742479038366" lon="11.14057510648313"><ele>861.0</ele><time>2026-04-07T12:57:14.998Z</time></trkpt><trkpt lat="45.62751443603056" lon="11.140519810374755"><ele>861.0</ele><time>2026-04-07T12:57:15.998Z</time></trkpt><trkpt lat="45.62758185017137" lon="11.140409097473002"><ele>861.0</ele><time>2026-04-07T12:57:16.998Z</time></trkpt><trkpt lat="45.62765887726459" lon="11.140302905742043"><ele>861.0</ele><time>2026-04-07T12:57:17.998Z</time></trkpt><trkpt lat="45.62775071301354" lon="11.140182793610311"><ele>861.0</ele><time>2026-04-07T12:57:18.998Z</time></trkpt><trkpt lat="45.62785320262332" lon="11.140066363609051"><ele>861.0</ele><time>2026-04-07T12:57:19.998Z</time></trkpt><trkpt lat="45.627957473261134" lon="11.139964493826797"><ele>861.25</ele><time>2026-04-07T12:57:20.998Z</time></trkpt><trkpt lat="45.62804818753927" lon="11.139863597833143"><ele>861.5</ele><time>2026-04-07T12:57:21.998Z</time></trkpt><trkpt lat="45.628138229954466" lon="11.139753691599001"><ele>861.75</ele><time>2026-04-07T12:57:22.998Z</time></trkpt><trkpt lat="45.62822557238499" lon="11.139653109287762"><ele>862.0</ele><time>2026-04-07T12:57:24Z</time></trkpt><trkpt lat="45.62830806615175" lon="11.139555612966426"><ele>862.0</ele><time>2026-04-07T12:57:25Z</time></trkpt><trkpt lat="45.628386046120575" lon="11.139450723449544"><ele>862.0</ele><time>2026-04-07T12:57:26Z</time></trkpt><trkpt lat="45.628467647913666" lon="11.13933827282672"><ele>862.0</ele><time>2026-04-07T12:57:27Z</time></trkpt><trkpt lat="45.628528129300555" lon="11.139205831386711"><ele>862.0</ele><time>2026-04-07T12:57:28Z</time></trkpt><trkpt lat="45.628602604580855" lon="11.139089961916163"><ele>862.0</ele><time>2026-04-07T12:57:29Z</time></trkpt><trkpt lat="45.62867016024119" lon="11.138956067056967"><ele>865.0</ele><time>2026-04-07T12:57:30Z</time></trkpt><trkpt lat="45.62874102652817" lon="11.138825289066995"><ele>868.0</ele><time>2026-04-07T12:57:31Z</time></trkpt><trkpt lat="45.62881113528753" lon="11.138713136334554"><ele>871.0</ele><time>2026-04-07T12:57:32Z</time></trkpt><trkpt lat="45.62887853269733" lon="11.138594609205525"><ele>874.0</ele><time>2026-04-07T12:57:33Z</time></trkpt><trkpt lat="45.62891998469984" lon="11.138494603269185"><ele>877.0</ele><time>2026-04-07T12:57:34Z</time></trkpt><trkpt lat="45.6289662260186" lon="11.13840352642659"><ele>876.9999999999999</ele><time>2026-04-07T12:57:35Z</time></trkpt><trkpt lat="45.62898393458428" lon="11.138316138178348"><ele>877.0</ele><time>2026-04-07T12:57:36Z</time></trkpt><trkpt lat="45.62898795184005" lon="11.138223598701648"><ele>877.0</ele><time>2026-04-07T12:57:37Z</time></trkpt><trkpt lat="45.62893277081368" lon="11.138125615856627"><ele>877.0</ele><time>2026-04-07T12:57:39Z</time></trkpt><trkpt lat="45.628875567671116" lon="11.13807916665351"><ele>876.9999999999999</ele><time>2026-04-07T12:57:40Z</time></trkpt><trkpt lat="45.62878736340221" lon="11.13808227836799"><ele>877.0</ele><time>2026-04-07T12:57:41Z</time></trkpt><trkpt lat="45.62869002805982" lon="11.138128474580105"><ele>874.4000000000001</ele><time>2026-04-07T12:57:42Z</time></trkpt><trkpt lat="45.62858753843823" lon="11.13816031449176"><ele>871.8000000000001</ele><time>2026-04-07T12:57:43Z</time></trkpt><trkpt lat="45.62848355755199" lon="11.138201098913997"><ele>869.2</ele><time>2026-04-07T12:57:44Z</time></trkpt><trkpt lat="45.62839920387568" lon="11.138270821801553"><ele>866.6</ele><time>2026-04-07T12:57:45Z</time></trkpt><trkpt lat="45.628317240599316" lon="11.13830045674034"><ele>864.0</ele><time>2026-04-07T12:57:46Z</time></trkpt><trkpt lat="45.62822829268218" lon="11.138319095339831"><ele>864.0</ele><time>2026-04-07T12:57:47Z</time></trkpt><trkpt lat="45.62812350018236" lon="11.138302944811233"><ele>864.0000000000001</ele><time>2026-04-07T12:57:48Z</time></trkpt><trkpt lat="45.628012769545485" lon="11.138303915030821"><ele>864.0000000000001</ele><time>2026-04-07T12:57:49Z</time></trkpt><trkpt lat="45.627909260525556" lon="11.138326820480838"><ele>864.0</ele><time>2026-04-07T12:57:50Z</time></trkpt><trkpt lat="45.62780978664191" lon="11.138310042718928"><ele>864.0</ele><time>2026-04-07T12:57:51Z</time></trkpt><trkpt lat="45.62771604868561" lon="11.138255621859559"><ele>859.0</ele><time>2026-04-07T12:57:52Z</time></trkpt><trkpt lat="45.62761348182303" lon="11.138270170301174"><ele>854.0</ele><time>2026-04-07T12:57:53Z</time></trkpt><trkpt lat="45.62751335706924" lon="11.138213063760755"><ele>849.0</ele><time>2026-04-07T12:57:54Z</time></trkpt><trkpt lat="45.627408741730555" lon="11.138151349212862"><ele>844.0</ele><time>2026-04-07T12:57:55Z</time></trkpt><trkpt lat="45.627290543057164" lon="11.138068062372632"><ele>848.75</ele><time>2026-04-07T12:57:56Z</time></trkpt><trkpt lat="45.627159857500686" lon="11.137993012213217"><ele>853.5</ele><time>2026-04-07T12:57:57Z</time></trkpt><trkpt lat="45.62702648557423" lon="11.137944599390346"><ele>858.25</ele><time>2026-04-07T12:57:58Z</time></trkpt><trkpt lat="45.62691632870606" lon="11.137881679515646"><ele>863.0</ele><time>2026-04-07T12:57:59Z</time></trkpt><trkpt lat="45.626820778486696" lon="11.137831355564908"><ele>863.0000000000001</ele><time>2026-04-07T12:58:00Z</time></trkpt><trkpt lat="45.62673720762785" lon="11.137790232476345"><ele>863.0</ele><time>2026-04-07T12:58:00.999Z</time></trkpt><trkpt lat="45.626668155936215" lon="11.137749922470567"><ele>863.0</ele><time>2026-04-07T12:58:01.999Z</time></trkpt><trkpt lat="45.626590278168806" lon="11.137767241590282"><ele>863.0</ele><time>2026-04-07T12:58:03.999Z</time></trkpt><trkpt lat="45.62656799746206" lon="11.137854840270052"><ele>863.0000000000001</ele><time>2026-04-07T12:58:05.999Z</time></trkpt><trkpt lat="45.626608457669754" lon="11.137927882152502"><ele>863.0</ele><time>2026-04-07T12:58:06.999Z</time></trkpt><trkpt lat="45.62671267051827" lon="11.137946764740507"><ele>863.0</ele><time>2026-04-07T12:58:07.999Z</time></trkpt><trkpt lat="45.62680707965469" lon="11.137973138624897"><ele>863.0</ele><time>2026-04-07T12:58:08.999Z</time></trkpt><trkpt lat="45.626930617040365" lon="11.138022102622001"><ele>863.0</ele><time>2026-04-07T12:58:09.999Z</time></trkpt><trkpt lat="45.627004442188294" lon="11.138158849287366"><ele>863.0</ele><time>2026-04-07T12:58:10.999Z</time></trkpt><trkpt lat="45.62710024965298" lon="11.138264141826056"><ele>859.2</ele><time>2026-04-07T12:58:11.999Z</time></trkpt><trkpt lat="45.62718957663783" lon="11.138363287182695"><ele>855.4</ele><time>2026-04-07T12:58:12.999Z</time></trkpt><trkpt lat="45.627286506223165" lon="11.138453227714226"><ele>851.6</ele><time>2026-04-07T12:58:13.999Z</time></trkpt><trkpt lat="45.62736370941593" lon="11.138535380980356"><ele>847.8000000000001</ele><time>2026-04-07T12:58:14.999Z</time></trkpt><trkpt lat="45.627442524737916" lon="11.138597799237212"><ele>844.0</ele><time>2026-04-07T12:58:15.999Z</time></trkpt><trkpt lat="45.62750828091305" lon="11.138617456131024"><ele>843.9999999999999</ele><time>2026-04-07T12:58:16.999Z</time></trkpt><trkpt lat="45.627587084850354" lon="11.13859148053898"><ele>844.0</ele><time>2026-04-07T12:58:17.999Z</time></trkpt><trkpt lat="45.627663396268275" lon="11.138582297293052"><ele>844.0</ele><time>2026-04-07T12:58:18.999Z</time></trkpt><trkpt lat="45.62775682462356" lon="11.138603736355384"><ele>844.0</ele><time>2026-04-07T12:58:20.999Z</time></trkpt><trkpt lat="45.627780526665276" lon="11.138705598452674"><ele>843.9999999999999</ele><time>2026-04-07T12:58:22.999Z</time></trkpt><trkpt lat="45.627704267412305" lon="11.138733033023941"><ele>844.0</ele><time>2026-04-07T12:58:24.999Z</time></trkpt><trkpt lat="45.6276173003261" lon="11.138683974582923"><ele>844.0</ele><time>2026-04-07T12:58:25.999Z</time></trkpt><trkpt lat="45.62750765886967" lon="11.138671506142456"><ele>844.0</ele><time>2026-04-07T12:58:26.999Z</time></trkpt><trkpt lat="45.62741019016796" lon="11.138637619058477"><ele>844.0</ele><time>2026-04-07T12:58:27.999Z</time></trkpt><trkpt lat="45.62731281070485" lon="11.138607329668593"><ele>844.0</ele><time>2026-04-07T12:58:28.999Z</time></trkpt><trkpt lat="45.62721525570386" lon="11.138573087225716"><ele>844.0</ele><time>2026-04-07T12:58:29.999Z</time></trkpt><trkpt lat="45.62710747364017" lon="11.138534457746088"><ele>844.0</ele><time>2026-04-07T12:58:30.999Z</time></trkpt><trkpt lat="45.62698170090523" lon="11.138481377458993"><ele>844.0</ele><time>2026-04-07T12:58:31.999Z</time></trkpt><trkpt lat="45.62686144175421" lon="11.138421696210003"><ele>844.0</ele><time>2026-04-07T12:58:32.999Z</time></trkpt><trkpt lat="45.62675118299077" lon="11.138371062176327"><ele>844.0</ele><time>2026-04-07T12:58:33.999Z</time></trkpt><trkpt lat="45.62664018968668" lon="11.138326329956906"><ele>841.75</ele><time>2026-04-07T12:58:34.999Z</time></trkpt><trkpt lat="45.62652340123849" lon="11.138247161008012"><ele>839.5</ele><time>2026-04-07T12:58:35.999Z</time></trkpt><trkpt lat="45.62638877893461" lon="11.138209788919127"><ele>837.25</ele><time>2026-04-07T12:58:36.999Z</time></trkpt><trkpt lat="45.62626271157543" lon="11.138189962614415"><ele>835.0</ele><time>2026-04-07T12:58:37.999Z</time></trkpt><trkpt lat="45.6261405629391" lon="11.138193833495313"><ele>834.9999999999999</ele><time>2026-04-07T12:58:38.999Z</time></trkpt><trkpt lat="45.62602332425442" lon="11.138172627192153"><ele>835.0</ele><time>2026-04-07T12:58:39.999Z</time></trkpt><trkpt lat="45.625923191540664" lon="11.138148716889551"><ele>835.0</ele><time>2026-04-07T12:58:40.999Z</time></trkpt><trkpt lat="45.625834033782034" lon="11.1381174111401"><ele>835.0</ele><time>2026-04-07T12:58:41.999Z</time></trkpt><trkpt lat="45.625766555233234" lon="11.138090147146054"><ele>834.9999999999999</ele><time>2026-04-07T12:58:42.999Z</time></trkpt><trkpt lat="45.62570846066844" lon="11.138052814434111"><ele>835.0</ele><time>2026-04-07T12:58:43.999Z</time></trkpt><trkpt lat="45.62565247439329" lon="11.138002633794029"><ele>835.0</ele><time>2026-04-07T12:58:44.999Z</time></trkpt><trkpt lat="45.62558516635793" lon="11.137922084515715"><ele>835.0</ele><time>2026-04-07T12:58:45.999Z</time></trkpt><trkpt lat="45.62552053467084" lon="11.137812611822138"><ele>835.0</ele><time>2026-04-07T12:58:46.999Z</time></trkpt><trkpt lat="45.62546993591048" lon="11.137692147726076"><ele>835.0</ele><time>2026-04-07T12:58:47.999Z</time></trkpt><trkpt lat="45.625423995629234" lon="11.137602137365487"><ele>835.0</ele><time>2026-04-07T12:58:48.998Z</time></trkpt><trkpt lat="45.625369488658684" lon="11.137487679147403"><ele>828.4</ele><time>2026-04-07T12:58:49.998Z</time></trkpt><trkpt lat="45.6252740136907" lon="11.137375280213641"><ele>821.8</ele><time>2026-04-07T12:58:51.998Z</time></trkpt><trkpt lat="45.62520162014726" lon="11.137360726699628"><ele>815.2</ele><time>2026-04-07T12:58:52.998Z</time></trkpt><trkpt lat="45.62513045237494" lon="11.13739231617783"><ele>808.6</ele><time>2026-04-07T12:58:53.998Z</time></trkpt><trkpt lat="45.62507248222894" lon="11.137542520288354"><ele>802.0</ele><time>2026-04-07T12:58:54.998Z</time></trkpt><trkpt lat="45.62512880982922" lon="11.137679949241251"><ele>799.8</ele><time>2026-04-07T12:58:55.998Z</time></trkpt><trkpt lat="45.62519165372345" lon="11.137774835142714"><ele>797.6</ele><time>2026-04-07T12:58:56.998Z</time></trkpt><trkpt lat="45.62529665646075" lon="11.137819451785294"><ele>795.4</ele><time>2026-04-07T12:58:57.998Z</time></trkpt><trkpt lat="45.62538787842924" lon="11.137947312772939"><ele>793.1999999999999</ele><time>2026-04-07T12:58:58.998Z</time></trkpt><trkpt lat="45.625459198775395" lon="11.138073913173407"><ele>791.0</ele><time>2026-04-07T12:58:59.998Z</time></trkpt><trkpt lat="45.625514509085725" lon="11.138188715052237"><ele>791.3333333333334</ele><time>2026-04-07T12:59:00.998Z</time></trkpt><trkpt lat="45.62556892738643" lon="11.138269242400098"><ele>791.6666666666667</ele><time>2026-04-07T12:59:01.998Z</time></trkpt><trkpt lat="45.6256240440147" lon="11.138357624599122"><ele>792.0</ele><time>2026-04-07T12:59:02.998Z</time></trkpt><trkpt lat="45.62568584657917" lon="11.138400335993044"><ele>792.3333333333333</ele><time>2026-04-07T12:59:03.998Z</time></trkpt><trkpt lat="45.62577541964578" lon="11.138454436045468"><ele>792.6666666666666</ele><time>2026-04-07T12:59:04.998Z</time></trkpt><trkpt lat="45.62588085000231" lon="11.13852911962709"><ele>793.0</ele><time>2026-04-07T12:59:05.998Z</time></trkpt><trkpt lat="45.62598310741294" lon="11.13860729368575"><ele>793.0</ele><time>2026-04-07T12:59:06.998Z</time></trkpt><trkpt lat="45.62607655601293" lon="11.138677860527414"><ele>793.0</ele><time>2026-04-07T12:59:07.998Z</time></trkpt><trkpt lat="45.6261623854439" lon="11.138732243059103"><ele>793.0</ele><time>2026-04-07T12:59:08.998Z</time></trkpt><trkpt lat="45.6262435430549" lon="11.138787681721878"><ele>793.0</ele><time>2026-04-07T12:59:09.998Z</time></trkpt><trkpt lat="45.626319914621064" lon="11.138831565113197"><ele>793.0</ele><time>2026-04-07T12:59:10.998Z</time></trkpt><trkpt lat="45.6264144932333" lon="11.138910631911472"><ele>793.0</ele><time>2026-04-07T12:59:12.998Z</time></trkpt><trkpt lat="45.62647107760414" lon="11.138985039069674"><ele>793.0</ele><time>2026-04-07T12:59:14.998Z</time></trkpt><trkpt lat="45.62637533677811" lon="11.13902378865893"><ele>793.0</ele><time>2026-04-07T12:59:17.998Z</time></trkpt><trkpt lat="45.626288609368274" lon="11.138954026679265"><ele>793.0</ele><time>2026-04-07T12:59:18.998Z</time></trkpt><trkpt lat="45.62619169540818" lon="11.138893280878884"><ele>793.0</ele><time>2026-04-07T12:59:19.998Z</time></trkpt><trkpt lat="45.62609061415829" lon="11.1388426303867"><ele>793.0</ele><time>2026-04-07T12:59:20.998Z</time></trkpt><trkpt lat="45.62597955766014" lon="11.13878659046475"><ele>793.0</ele><time>2026-04-07T12:59:21.998Z</time></trkpt><trkpt lat="45.6258617325391" lon="11.138732137416591"><ele>793.0</ele><time>2026-04-07T12:59:22.998Z</time></trkpt><trkpt lat="45.62574247970282" lon="11.138696757096488"><ele>793.0</ele><time>2026-04-07T12:59:23.998Z</time></trkpt><trkpt lat="45.62562837304097" lon="11.138671293970058"><ele>793.0</ele><time>2026-04-07T12:59:24.998Z</time></trkpt><trkpt lat="45.62551990879698" lon="11.138626232397687"><ele>793.0</ele><time>2026-04-07T12:59:25.998Z</time></trkpt><trkpt lat="45.62540762937102" lon="11.138538256845834"><ele>793.0</ele><time>2026-04-07T12:59:26.998Z</time></trkpt><trkpt lat="45.62529334868313" lon="11.13842875885175"><ele>793.0</ele><time>2026-04-07T12:59:27.998Z</time></trkpt><trkpt lat="45.625196301971606" lon="11.138329089586152"><ele>792.5</ele><time>2026-04-07T12:59:28.998Z</time></trkpt><trkpt lat="45.62509860987742" lon="11.138243999168516"><ele>792.0</ele><time>2026-04-07T12:59:30Z</time></trkpt><trkpt lat="45.6250148922174" lon="11.13812567653939"><ele>791.5</ele><time>2026-04-07T12:59:31Z</time></trkpt><trkpt lat="45.62491060477847" lon="11.138032220242167"><ele>791.0</ele><time>2026-04-07T12:59:32Z</time></trkpt><trkpt lat="45.62482011039691" lon="11.137903079526478"><ele>791.0</ele><time>2026-04-07T12:59:33Z</time></trkpt><trkpt lat="45.62471499137222" lon="11.137791781137352"><ele>791.0</ele><time>2026-04-07T12:59:34Z</time></trkpt><trkpt lat="45.6246160480088" lon="11.137682997499185"><ele>791.0</ele><time>2026-04-07T12:59:35Z</time></trkpt><trkpt lat="45.62451494981298" lon="11.137559932285008"><ele>791.0</ele><time>2026-04-07T12:59:36Z</time></trkpt><trkpt lat="45.62441609863438" lon="11.13743196526489"><ele>784.4</ele><time>2026-04-07T12:59:37Z</time></trkpt><trkpt lat="45.62432569428721" lon="11.137298485105331"><ele>777.8</ele><time>2026-04-07T12:59:38Z</time></trkpt><trkpt lat="45.62423590698648" lon="11.137186045800732"><ele>771.1999999999999</ele><time>2026-04-07T12:59:39Z</time></trkpt><trkpt lat="45.62414567789032" lon="11.137114079447167"><ele>764.5999999999999</ele><time>2026-04-07T12:59:40Z</time></trkpt><trkpt lat="45.624072335975576" lon="11.13705461514503"><ele>758.0</ele><time>2026-04-07T12:59:41Z</time></trkpt><trkpt lat="45.624013483437146" lon="11.136989109541446"><ele>758.0</ele><time>2026-04-07T12:59:42Z</time></trkpt><trkpt lat="45.62397216635172" lon="11.136899231748682"><ele>758.0</ele><time>2026-04-07T12:59:43Z</time></trkpt><trkpt lat="45.6239297297261" lon="11.136814481537293"><ele>758.0</ele><time>2026-04-07T12:59:44Z</time></trkpt><trkpt lat="45.62390943374894" lon="11.136693916512833"><ele>758.0</ele><time>2026-04-07T12:59:45Z</time></trkpt><trkpt lat="45.623958612903905" lon="11.136576008030492"><ele>758.0</ele><time>2026-04-07T12:59:46Z</time></trkpt><trkpt lat="45.62397187240383" lon="11.136453185994318"><ele>758.0</ele><time>2026-04-07T12:59:48Z</time></trkpt><trkpt lat="45.6238696574172" lon="11.13644835974385"><ele>758.0</ele><time>2026-04-07T12:59:50Z</time></trkpt><trkpt lat="45.623799156609245" lon="11.136522875856551"><ele>758.0</ele><time>2026-04-07T12:59:51Z</time></trkpt><trkpt lat="45.62379393344405" lon="11.136676042764346"><ele>758.0</ele><time>2026-04-07T12:59:52Z</time></trkpt><trkpt lat="45.623800742186305" lon="11.136785883103952"><ele>758.0</ele><time>2026-04-07T12:59:53Z</time></trkpt><trkpt lat="45.62382759194231" lon="11.136921369073228"><ele>758.0</ele><time>2026-04-07T12:59:54Z</time></trkpt><trkpt lat="45.62387057236739" lon="11.137084198090042"><ele>758.0</ele><time>2026-04-07T12:59:55Z</time></trkpt><trkpt lat="45.6239445480728" lon="11.13726329766655"><ele>758.0</ele><time>2026-04-07T12:59:56Z</time></trkpt><trkpt lat="45.62400141665673" lon="11.137420925490465"><ele>758.0</ele><time>2026-04-07T12:59:57Z</time></trkpt><trkpt lat="45.624053722315395" lon="11.137579288983003"><ele>758.0</ele><time>2026-04-07T12:59:58Z</time></trkpt><trkpt lat="45.624096451356905" lon="11.137720086521163"><ele>755.2</ele><time>2026-04-07T12:59:59Z</time></trkpt><trkpt lat="45.62413620065575" lon="11.137859891986295"><ele>752.4</ele><time>2026-04-07T13:00:00Z</time></trkpt><trkpt lat="45.624172370554945" lon="11.137984288153385"><ele>749.6</ele><time>2026-04-07T13:00:01Z</time></trkpt><trkpt lat="45.62420628338106" lon="11.138097385855753"><ele>746.8000000000001</ele><time>2026-04-07T13:00:02Z</time></trkpt><trkpt lat="45.62425439764648" lon="11.13820180908918"><ele>744.0</ele><time>2026-04-07T13:00:03Z</time></trkpt><trkpt lat="45.62434270342996" lon="11.138257810457535"><ele>746.3333333333334</ele><time>2026-04-07T13:00:04Z</time></trkpt><trkpt lat="45.62441339506649" lon="11.138346696746396"><ele>748.6666666666666</ele><time>2026-04-07T13:00:05Z</time></trkpt><trkpt lat="45.624477344855244" lon="11.138417565208702"><ele>751.0</ele><time>2026-04-07T13:00:05.999Z</time></trkpt><trkpt lat="45.62453982819654" lon="11.138493567017278"><ele>753.3333333333333</ele><time>2026-04-07T13:00:06.999Z</time></trkpt><trkpt lat="45.62461083125264" lon="11.138603259042473"><ele>755.6666666666666</ele><time>2026-04-07T13:00:08.999Z</time></trkpt><trkpt lat="45.62456868026824" lon="11.138678480069817"><ele>758.0</ele><time>2026-04-07T13:00:10.999Z</time></trkpt><trkpt lat="45.62447926480026" lon="11.13859177482126"><ele>755.2</ele><time>2026-04-07T13:00:12.999Z</time></trkpt><trkpt lat="45.62444292108752" lon="11.138474970217185"><ele>752.4</ele><time>2026-04-07T13:00:13.999Z</time></trkpt><trkpt lat="45.624357560325606" lon="11.138380712981899"><ele>749.6</ele><time>2026-04-07T13:00:14.999Z</time></trkpt><trkpt lat="45.624272056184786" lon="11.13830535657056"><ele>746.8000000000001</ele><time>2026-04-07T13:00:15.999Z</time></trkpt><trkpt lat="45.62417873925928" lon="11.138251953643403"><ele>744.0</ele><time>2026-04-07T13:00:16.999Z</time></trkpt><trkpt lat="45.62408216680443" lon="11.138212643063607"><ele>744.0</ele><time>2026-04-07T13:00:17.999Z</time></trkpt><trkpt lat="45.624000528486775" lon="11.138178730704174"><ele>744.0</ele><time>2026-04-07T13:00:18.999Z</time></trkpt><trkpt lat="45.62391749908934" lon="11.138142638720698"><ele>744.0</ele><time>2026-04-07T13:00:19.999Z</time></trkpt><trkpt lat="45.62383773774446" lon="11.138129959196629"><ele>744.0</ele><time>2026-04-07T13:00:20.999Z</time></trkpt><trkpt lat="45.62375367442669" lon="11.138099638081439"><ele>744.0</ele><time>2026-04-07T13:00:21.999Z</time></trkpt><trkpt lat="45.62367023430035" lon="11.13805269436668"><ele>744.0</ele><time>2026-04-07T13:00:22.999Z</time></trkpt><trkpt lat="45.62359020744018" lon="11.137995945893657"><ele>738.0000000000001</ele><time>2026-04-07T13:00:23.999Z</time></trkpt><trkpt lat="45.623531817732335" lon="11.137924898332948"><ele>732.0</ele><time>2026-04-07T13:00:24.999Z</time></trkpt><trkpt lat="45.62348876569026" lon="11.137846647404585"><ele>726.0</ele><time>2026-04-07T13:00:25.999Z</time></trkpt><trkpt lat="45.62346605500401" lon="11.13775039887042"><ele>720.0</ele><time>2026-04-07T13:00:26.999Z</time></trkpt><trkpt lat="45.62345699237733" lon="11.137655889493331"><ele>714.0</ele><time>2026-04-07T13:00:27.999Z</time></trkpt><trkpt lat="45.62346423362585" lon="11.137562352350692"><ele>708.0000000000001</ele><time>2026-04-07T13:00:28.999Z</time></trkpt><trkpt lat="45.62348719002572" lon="11.137471049468374"><ele>702.0</ele><time>2026-04-07T13:00:29.999Z</time></trkpt><trkpt lat="45.62348229265008" lon="11.13734271620309"><ele>702.0</ele><time>2026-04-07T13:00:31.999Z</time></trkpt><trkpt lat="45.62339073133227" lon="11.137316480768915"><ele>702.0</ele><time>2026-04-07T13:00:33.999Z</time></trkpt><trkpt lat="45.623340522056644" lon="11.137427678309491"><ele>702.0</ele><time>2026-04-07T13:00:34.999Z</time></trkpt><trkpt lat="45.62333353046935" lon="11.137544009560473"><ele>702.0</ele><time>2026-04-07T13:00:35.999Z</time></trkpt><trkpt lat="45.62334433264395" lon="11.137649782896158"><ele>702.0</ele><time>2026-04-07T13:00:36.999Z</time></trkpt><trkpt lat="45.62336120960361" lon="11.137753055316145"><ele>702.0</ele><time>2026-04-07T13:00:37.999Z</time></trkpt><trkpt lat="45.623375735565126" lon="11.137858790152006"><ele>701.1666666666666</ele><time>2026-04-07T13:00:38.999Z</time></trkpt><trkpt lat="45.623396707364485" lon="11.137968201675003"><ele>700.3333333333334</ele><time>2026-04-07T13:00:39.999Z</time></trkpt><trkpt lat="45.62342754905527" lon="11.138064645549763"><ele>699.5</ele><time>2026-04-07T13:00:40.999Z</time></trkpt><trkpt lat="45.62347323217972" lon="11.138172054213804"><ele>698.6666666666667</ele><time>2026-04-07T13:00:41.999Z</time></trkpt><trkpt lat="45.62355176912733" lon="11.138257332232833"><ele>697.8333333333334</ele><time>2026-04-07T13:00:42.999Z</time></trkpt><trkpt lat="45.62360684956689" lon="11.138336941230971"><ele>697.0</ele><time>2026-04-07T13:00:43.999Z</time></trkpt><trkpt lat="45.62364164189196" lon="11.138413736705203"><ele>696.8</ele><time>2026-04-07T13:00:44.999Z</time></trkpt><trkpt lat="45.62363042806801" lon="11.138544981631249"><ele>696.6</ele><time>2026-04-07T13:00:46.999Z</time></trkpt><trkpt lat="45.6235567196477" lon="11.138629883582514"><ele>696.4</ele><time>2026-04-07T13:00:48.999Z</time></trkpt><trkpt lat="45.623490589207016" lon="11.138653082905437"><ele>696.1999999999999</ele><time>2026-04-07T13:00:49.999Z</time></trkpt><trkpt lat="45.62339992828064" lon="11.138666936304318"><ele>696.0</ele><time>2026-04-07T13:00:50.999Z</time></trkpt><trkpt lat="45.62329723099056" lon="11.138645783384453"><ele>696.0</ele><time>2026-04-07T13:00:51.999Z</time></trkpt><trkpt lat="45.62317552443871" lon="11.138612299619417"><ele>696.0</ele><time>2026-04-07T13:00:52.999Z</time></trkpt><trkpt lat="45.623040332672076" lon="11.13859982615132"><ele>696.0</ele><time>2026-04-07T13:00:53.999Z</time></trkpt><trkpt lat="45.62290409240943" lon="11.138547299929073"><ele>696.0</ele><time>2026-04-07T13:00:54.999Z</time></trkpt><trkpt lat="45.62277916710879" lon="11.138490787923704"><ele>693.75</ele><time>2026-04-07T13:00:55.999Z</time></trkpt><trkpt lat="45.622662291962314" lon="11.13842296672082"><ele>691.5</ele><time>2026-04-07T13:00:56.998Z</time></trkpt><trkpt lat="45.62254447218499" lon="11.13831173957908"><ele>689.25</ele><time>2026-04-07T13:00:57.998Z</time></trkpt><trkpt lat="45.62242823748982" lon="11.138200319159674"><ele>687.0</ele><time>2026-04-07T13:00:58.998Z</time></trkpt><trkpt lat="45.62231983140076" lon="11.138106490627088"><ele>683.5</ele><time>2026-04-07T13:00:59.998Z</time></trkpt><trkpt lat="45.62220434351247" lon="11.138017325418575"><ele>680.0</ele><time>2026-04-07T13:01:00.998Z</time></trkpt><trkpt lat="45.622098833174775" lon="11.137938425227214"><ele>676.5</ele><time>2026-04-07T13:01:01.998Z</time></trkpt><trkpt lat="45.622006396462" lon="11.137848338673212"><ele>673.0</ele><time>2026-04-07T13:01:02.998Z</time></trkpt><trkpt lat="45.62192450636961" lon="11.13776712473582"><ele>673.0</ele><time>2026-04-07T13:01:03.998Z</time></trkpt><trkpt lat="45.62185470978009" lon="11.137662180757122"><ele>673.0</ele><time>2026-04-07T13:01:04.998Z</time></trkpt><trkpt lat="45.62179494498731" lon="11.13755169301929"><ele>673.0</ele><time>2026-04-07T13:01:05.998Z</time></trkpt><trkpt lat="45.6217446399133" lon="11.137441440361727"><ele>673.0</ele><time>2026-04-07T13:01:06.998Z</time></trkpt><trkpt lat="45.62169952633506" lon="11.13734219282603"><ele>673.0</ele><time>2026-04-07T13:01:07.998Z</time></trkpt><trkpt lat="45.62165262564818" lon="11.137241527183399"><ele>668.5999999999999</ele><time>2026-04-07T13:01:08.998Z</time></trkpt><trkpt lat="45.6215967314624" lon="11.137132897576883"><ele>664.1999999999999</ele><time>2026-04-07T13:01:09.998Z</time></trkpt><trkpt lat="45.621536435500595" lon="11.137023822190056"><ele>659.8</ele><time>2026-04-07T13:01:10.998Z</time></trkpt><trkpt lat="45.62146487669124" lon="11.136918904663363"><ele>655.4</ele><time>2026-04-07T13:01:11.998Z</time></trkpt><trkpt lat="45.62138921073849" lon="11.136832919602691"><ele>651.0</ele><time>2026-04-07T13:01:12.998Z</time></trkpt><trkpt lat="45.62132035077934" lon="11.136771994019693"><ele>651.0</ele><time>2026-04-07T13:01:13.998Z</time></trkpt><trkpt lat="45.621257531344874" lon="11.13674521201336"><ele>651.0</ele><time>2026-04-07T13:01:14.998Z</time></trkpt><trkpt lat="45.62118663331804" lon="11.136713679864723"><ele>651.0</ele><time>2026-04-07T13:01:15.998Z</time></trkpt><trkpt lat="45.6211087383454" lon="11.136777524078324"><ele>651.0</ele><time>2026-04-07T13:01:16.998Z</time></trkpt><trkpt lat="45.62105608149537" lon="11.136858262872408"><ele>651.0</ele><time>2026-04-07T13:01:17.998Z</time></trkpt><trkpt lat="45.62098491220542" lon="11.136917793778299"><ele>651.0</ele><time>2026-04-07T13:01:19.998Z</time></trkpt><trkpt lat="45.62095239355257" lon="11.136832535587708"><ele>650.7142857142857</ele><time>2026-04-07T13:01:21.998Z</time></trkpt><trkpt lat="45.62098095954298" lon="11.136751866641749"><ele>650.4285714285714</ele><time>2026-04-07T13:01:22.998Z</time></trkpt><trkpt lat="45.62100925959389" lon="11.136670204928977"><ele>650.1428571428571</ele><time>2026-04-07T13:01:23.998Z</time></trkpt><trkpt lat="45.62103474885413" lon="11.136580674835466"><ele>649.8571428571429</ele><time>2026-04-07T13:01:24.998Z</time></trkpt><trkpt lat="45.62106237183407" lon="11.136481177461908"><ele>649.5714285714286</ele><time>2026-04-07T13:01:25.998Z</time></trkpt><trkpt lat="45.62108789910803" lon="11.136389232183536"><ele>649.2857142857142</ele><time>2026-04-07T13:01:26.998Z</time></trkpt><trkpt lat="45.621126992599514" lon="11.136312726885688"><ele>649.0</ele><time>2026-04-07T13:01:27.998Z</time></trkpt><trkpt lat="45.621235406721524" lon="11.1362753322391"><ele>649.4000000000001</ele><time>2026-04-07T13:01:29.998Z</time></trkpt><trkpt lat="45.62130160600279" lon="11.136306020970856"><ele>649.8</ele><time>2026-04-07T13:01:30.998Z</time></trkpt><trkpt lat="45.62138019508003" lon="11.136382107319546"><ele>650.2</ele><time>2026-04-07T13:01:31.998Z</time></trkpt><trkpt lat="45.62147002384788" lon="11.136474348635529"><ele>650.5999999999999</ele><time>2026-04-07T13:01:32.998Z</time></trkpt><trkpt lat="45.62156811199033" lon="11.136565269375405"><ele>651.0</ele><time>2026-04-07T13:01:33.998Z</time></trkpt><trkpt lat="45.621654019207746" lon="11.136625781949858"><ele>651.0</ele><time>2026-04-07T13:01:34.998Z</time></trkpt><trkpt lat="45.621760015973" lon="11.13665191137335"><ele>651.0</ele><time>2026-04-07T13:01:36Z</time></trkpt><trkpt lat="45.62186321276757" lon="11.136690384133898"><ele>651.0</ele><time>2026-04-07T13:01:37Z</time></trkpt><trkpt lat="45.62195396305572" lon="11.136767855050943"><ele>651.0</ele><time>2026-04-07T13:01:38Z</time></trkpt><trkpt lat="45.6220347526738" lon="11.1368105089255"><ele>651.0</ele><time>2026-04-07T13:01:39Z</time></trkpt><trkpt lat="45.62213591700597" lon="11.136821552424365"><ele>652.0</ele><time>2026-04-07T13:01:41Z</time></trkpt><trkpt lat="45.622162405876956" lon="11.136735690149843"><ele>653.0</ele><time>2026-04-07T13:01:42Z</time></trkpt><trkpt lat="45.62211360155122" lon="11.136593069039106"><ele>654.0</ele><time>2026-04-07T13:01:44Z</time></trkpt><trkpt lat="45.62205945790786" lon="11.136538080157615"><ele>655.0</ele><time>2026-04-07T13:01:45Z</time></trkpt><trkpt lat="45.621998976283024" lon="11.136488215476863"><ele>656.0</ele><time>2026-04-07T13:01:46Z</time></trkpt><trkpt lat="45.62194775979776" lon="11.136432367813384"><ele>657.0</ele><time>2026-04-07T13:01:47Z</time></trkpt><trkpt lat="45.621882881549496" lon="11.136352999712502"><ele>653.2</ele><time>2026-04-07T13:01:48Z</time></trkpt><trkpt lat="45.62182367088958" lon="11.136217665423668"><ele>649.4000000000001</ele><time>2026-04-07T13:01:49Z</time></trkpt><trkpt lat="45.621780805093714" lon="11.136077391383939"><ele>645.5999999999999</ele><time>2026-04-07T13:01:50Z</time></trkpt><trkpt lat="45.621749060156766" lon="11.135960473103419"><ele>641.8</ele><time>2026-04-07T13:01:51Z</time></trkpt><trkpt lat="45.62171128680811" lon="11.135860503872477"><ele>638.0</ele><time>2026-04-07T13:01:52Z</time></trkpt><trkpt lat="45.621674603701166" lon="11.135772078831721"><ele>638.0</ele><time>2026-04-07T13:01:53Z</time></trkpt><trkpt lat="45.621575106761235" lon="11.13565937669761"><ele>638.0</ele><time>2026-04-07T13:01:55Z</time></trkpt><trkpt lat="45.62151177201555" lon="11.13564301032934"><ele>638.0</ele><time>2026-04-07T13:01:56Z</time></trkpt><trkpt lat="45.621384421524056" lon="11.135693658290803"><ele>638.0</ele><time>2026-04-07T13:01:58Z</time></trkpt><trkpt lat="45.621315129428744" lon="11.135708115075305"><ele>638.0</ele><time>2026-04-07T13:01:59Z</time></trkpt><trkpt lat="45.62122755437688" lon="11.135762131212363"><ele>634.1999999999999</ele><time>2026-04-07T13:02:01Z</time></trkpt><trkpt lat="45.621217450975365" lon="11.135639448972961"><ele>630.4</ele><time>2026-04-07T13:02:03Z</time></trkpt><trkpt lat="45.621324654188264" lon="11.135562453111353"><ele>626.5999999999999</ele><time>2026-04-07T13:02:05Z</time></trkpt><trkpt lat="45.621401904608256" lon="11.135552533894044"><ele>622.8</ele><time>2026-04-07T13:02:06Z</time></trkpt><trkpt lat="45.621489626768295" lon="11.135541850192398"><ele>619.0</ele><time>2026-04-07T13:02:07Z</time></trkpt><trkpt lat="45.62156983765446" lon="11.135533730484893"><ele>619.0</ele><time>2026-04-07T13:02:08Z</time></trkpt><trkpt lat="45.621633998261736" lon="11.13556931948556"><ele>619.0</ele><time>2026-04-07T13:02:09Z</time></trkpt><trkpt lat="45.6217439255159" lon="11.135564056022965"><ele>619.0</ele><time>2026-04-07T13:02:10.999Z</time></trkpt><trkpt lat="45.62178898186172" lon="11.135453657285328"><ele>619.0</ele><time>2026-04-07T13:02:12.999Z</time></trkpt><trkpt lat="45.621684138487986" lon="11.135354193151676"><ele>619.0</ele><time>2026-04-07T13:02:14.999Z</time></trkpt><trkpt lat="45.62159223462098" lon="11.13537824394866"><ele>619.0</ele><time>2026-04-07T13:02:15.999Z</time></trkpt><trkpt lat="45.62150260645177" lon="11.135364315670452"><ele>619.0</ele><time>2026-04-07T13:02:16.999Z</time></trkpt><trkpt lat="45.6214254081914" lon="11.135371450873464"><ele>619.0</ele><time>2026-04-07T13:02:17.999Z</time></trkpt><trkpt lat="45.62135741573419" lon="11.135384155728007"><ele>619.0</ele><time>2026-04-07T13:02:18.999Z</time></trkpt><trkpt lat="45.62129584306559" lon="11.135407330608741"><ele>619.0</ele><time>2026-04-07T13:02:19.999Z</time></trkpt><trkpt lat="45.62122451123988" lon="11.135412105395666"><ele>619.0</ele><time>2026-04-07T13:02:21.999Z</time></trkpt><trkpt lat="45.62125943355756" lon="11.135258149794913"><ele>619.0</ele><time>2026-04-07T13:02:23.999Z</time></trkpt><trkpt lat="45.62133003473708" lon="11.135165727715982"><ele>619.0</ele><time>2026-04-07T13:02:24.999Z</time></trkpt><trkpt lat="45.62141493540951" lon="11.135058594325661"><ele>619.0</ele><time>2026-04-07T13:02:25.999Z</time></trkpt><trkpt lat="45.62148614323543" lon="11.134952169535486"><ele>619.0</ele><time>2026-04-07T13:02:26.999Z</time></trkpt><trkpt lat="45.621558868925426" lon="11.134851751716074"><ele>619.0</ele><time>2026-04-07T13:02:27.999Z</time></trkpt><trkpt lat="45.6216395929484" lon="11.134803741546"><ele>616.6666666666667</ele><time>2026-04-07T13:02:28.999Z</time></trkpt><trkpt lat="45.62171467112916" lon="11.134803416308278"><ele>614.3333333333334</ele><time>2026-04-07T13:02:29.999Z</time></trkpt><trkpt lat="45.621771523322195" lon="11.134844931911838"><ele>612.0</ele><time>2026-04-07T13:02:30.999Z</time></trkpt><trkpt lat="45.6218324773337" lon="11.134874915664177"><ele>609.6666666666666</ele><time>2026-04-07T13:02:31.999Z</time></trkpt><trkpt lat="45.62189375013291" lon="11.13479775531996"><ele>607.3333333333333</ele><time>2026-04-07T13:02:33.999Z</time></trkpt><trkpt lat="45.62186480140417" lon="11.134716230109923"><ele>605.0</ele><time>2026-04-07T13:02:34.999Z</time></trkpt><trkpt lat="45.62171835869587" lon="11.134631453588257"><ele>605.0</ele><time>2026-04-07T13:02:36.999Z</time></trkpt><trkpt lat="45.621611134481064" lon="11.134663848930694"><ele>605.0</ele><time>2026-04-07T13:02:37.999Z</time></trkpt><trkpt lat="45.621516317886474" lon="11.134687562366388"><ele>605.0</ele><time>2026-04-07T13:02:38.999Z</time></trkpt><trkpt lat="45.62143630524529" lon="11.13473575855131"><ele>605.0</ele><time>2026-04-07T13:02:39.999Z</time></trkpt><trkpt lat="45.621356322275155" lon="11.134788464788848"><ele>605.0</ele><time>2026-04-07T13:02:40.999Z</time></trkpt><trkpt lat="45.62128160402588" lon="11.13485583217649"><ele>604.1428571428571</ele><time>2026-04-07T13:02:41.999Z</time></trkpt><trkpt lat="45.621213415634756" lon="11.134937475964321"><ele>603.2857142857143</ele><time>2026-04-07T13:02:42.999Z</time></trkpt><trkpt lat="45.62116413773626" lon="11.13502884486954"><ele>602.4285714285714</ele><time>2026-04-07T13:02:43.999Z</time></trkpt><trkpt lat="45.621128724743336" lon="11.135106526827862"><ele>601.5714285714286</ele><time>2026-04-07T13:02:44.999Z</time></trkpt><trkpt lat="45.62107302042801" lon="11.135165144214577"><ele>600.7142857142857</ele><time>2026-04-07T13:02:46.999Z</time></trkpt><trkpt lat="45.62103637024798" lon="11.135075454419438"><ele>599.8571428571429</ele><time>2026-04-07T13:02:48.999Z</time></trkpt><trkpt lat="45.621068499320074" lon="11.134988040427093"><ele>599.0</ele><time>2026-04-07T13:02:49.999Z</time></trkpt><trkpt lat="45.621132319794405" lon="11.134900459374906"><ele>600.2</ele><time>2026-04-07T13:02:50.999Z</time></trkpt><trkpt lat="45.621213904611146" lon="11.13480675390658"><ele>601.4</ele><time>2026-04-07T13:02:51.999Z</time></trkpt><trkpt lat="45.62129761062518" lon="11.134691495040835"><ele>602.6</ele><time>2026-04-07T13:02:52.999Z</time></trkpt><trkpt lat="45.62136694388017" lon="11.134589433557105"><ele>603.8</ele><time>2026-04-07T13:02:53.999Z</time></trkpt><trkpt lat="45.62143346544279" lon="11.134511884396064"><ele>605.0</ele><time>2026-04-07T13:02:54.999Z</time></trkpt><trkpt lat="45.62149035595082" lon="11.134462923534505"><ele>605.0</ele><time>2026-04-07T13:02:55.999Z</time></trkpt><trkpt lat="45.62156291162167" lon="11.134363539049634"><ele>605.0</ele><time>2026-04-07T13:02:57.999Z</time></trkpt><trkpt lat="45.621572286466346" lon="11.134248857097813"><ele>605.0</ele><time>2026-04-07T13:03:00.998Z</time></trkpt><trkpt lat="45.621654344124124" lon="11.134184672570406"><ele>605.0</ele><time>2026-04-07T13:03:01.998Z</time></trkpt><trkpt lat="45.6217545632658" lon="11.134122558134944"><ele>605.0</ele><time>2026-04-07T13:03:02.998Z</time></trkpt><trkpt lat="45.6218691139247" lon="11.134051849451227"><ele>605.3333333333333</ele><time>2026-04-07T13:03:03.998Z</time></trkpt><trkpt lat="45.622000198639256" lon="11.133971302548032"><ele>605.6666666666666</ele><time>2026-04-07T13:03:04.998Z</time></trkpt><trkpt lat="45.62214052523434" lon="11.133889385529285"><ele>606.0</ele><time>2026-04-07T13:03:05.998Z</time></trkpt><trkpt lat="45.62229201511602" lon="11.133798199500667"><ele>606.0</ele><time>2026-04-07T13:03:06.998Z</time></trkpt><trkpt lat="45.62243975325254" lon="11.13369515472667"><ele>606.0</ele><time>2026-04-07T13:03:07.998Z</time></trkpt><trkpt lat="45.622591449971615" lon="11.133565837096961"><ele>606.0</ele><time>2026-04-07T13:03:08.998Z</time></trkpt><trkpt lat="45.62272595629884" lon="11.133452206307002"><ele>607.5</ele><time>2026-04-07T13:03:09.998Z</time></trkpt><trkpt lat="45.622841703544054" lon="11.133345083172054"><ele>609.0</ele><time>2026-04-07T13:03:10.998Z</time></trkpt><trkpt lat="45.62294155467761" lon="11.133228142534167"><ele>610.5</ele><time>2026-04-07T13:03:11.998Z</time></trkpt><trkpt lat="45.62302686758756" lon="11.133094120858296"><ele>612.0</ele><time>2026-04-07T13:03:12.998Z</time></trkpt><trkpt lat="45.62310949816517" lon="11.132948361794263"><ele>612.0</ele><time>2026-04-07T13:03:13.998Z</time></trkpt><trkpt lat="45.62320626261175" lon="11.13280628118793"><ele>612.0</ele><time>2026-04-07T13:03:14.998Z</time></trkpt><trkpt lat="45.623325709422296" lon="11.132681902370283"><ele>612.0</ele><time>2026-04-07T13:03:15.998Z</time></trkpt><trkpt lat="45.6234607355669" lon="11.132587954061322"><ele>612.0</ele><time>2026-04-07T13:03:16.998Z</time></trkpt><trkpt lat="45.6236153417888" lon="11.132512625077277"><ele>613.0</ele><time>2026-04-07T13:03:17.998Z</time></trkpt><trkpt lat="45.623789650874805" lon="11.132463970383968"><ele>614.0</ele><time>2026-04-07T13:03:18.998Z</time></trkpt><trkpt lat="45.62397517112436" lon="11.13242612512461"><ele>615.0</ele><time>2026-04-07T13:03:19.998Z</time></trkpt><trkpt lat="45.62417879366266" lon="11.132378938341777"><ele>615.3333333333334</ele><time>2026-04-07T13:03:20.998Z</time></trkpt><trkpt lat="45.62439204972497" lon="11.132322094612945"><ele>615.6666666666667</ele><time>2026-04-07T13:03:21.998Z</time></trkpt><trkpt lat="45.62461738172926" lon="11.132257862522959"><ele>616.0</ele><time>2026-04-07T13:03:22.998Z</time></trkpt><trkpt lat="45.62482980134638" lon="11.13219630426443"><ele>616.0</ele><time>2026-04-07T13:03:23.998Z</time></trkpt><trkpt lat="45.625036344816934" lon="11.132140719840974"><ele>616.0</ele><time>2026-04-07T13:03:24.998Z</time></trkpt><trkpt lat="45.62522188382906" lon="11.132087998828059"><ele>616.0</ele><time>2026-04-07T13:03:25.998Z</time></trkpt><trkpt lat="45.62540376181682" lon="11.132030624089387"><ele>618.3333333333334</ele><time>2026-04-07T13:03:26.998Z</time></trkpt><trkpt lat="45.625567258995375" lon="11.131981516071072"><ele>620.6666666666666</ele><time>2026-04-07T13:03:27.998Z</time></trkpt><trkpt lat="45.625717901217016" lon="11.131943657775663"><ele>623.0</ele><time>2026-04-07T13:03:28.998Z</time></trkpt><trkpt lat="45.62584830820265" lon="11.13191034074449"><ele>623.0</ele><time>2026-04-07T13:03:29.998Z</time></trkpt><trkpt lat="45.625958394452994" lon="11.131885866307282"><ele>623.0</ele><time>2026-04-07T13:03:30.998Z</time></trkpt><trkpt lat="45.626052433056934" lon="11.131856756821664"><ele>623.0</ele><time>2026-04-07T13:03:31.998Z</time></trkpt><trkpt lat="45.6261359231264" lon="11.131806448674924"><ele>623.0</ele><time>2026-04-07T13:03:32.998Z</time></trkpt><trkpt lat="45.62623141586563" lon="11.131745864926957"><ele>623.0</ele><time>2026-04-07T13:03:33.998Z</time></trkpt><trkpt lat="45.62635478539617" lon="11.131723678538227"><ele>624.5</ele><time>2026-04-07T13:03:34.998Z</time></trkpt><trkpt lat="45.62649382269896" lon="11.131718744241736"><ele>626.0</ele><time>2026-04-07T13:03:35.998Z</time></trkpt><trkpt lat="45.62663035902118" lon="11.13170604936312"><ele>627.5</ele><time>2026-04-07T13:03:36.998Z</time></trkpt><trkpt lat="45.626760803472685" lon="11.131646951911504"><ele>629.0</ele><time>2026-04-07T13:03:37.998Z</time></trkpt><trkpt lat="45.6268847508262" lon="11.131537681254553"><ele>628.4</ele><time>2026-04-07T13:03:38.998Z</time></trkpt><trkpt lat="45.626987356093906" lon="11.131420630123559"><ele>627.8</ele><time>2026-04-07T13:03:39.998Z</time></trkpt><trkpt lat="45.62707448689661" lon="11.131329137904581"><ele>627.2</ele><time>2026-04-07T13:03:40.998Z</time></trkpt><trkpt lat="45.62713404663298" lon="11.13125019018249"><ele>626.6</ele><time>2026-04-07T13:03:42Z</time></trkpt><trkpt lat="45.62715298157796" lon="11.131145002102903"><ele>626.0</ele><time>2026-04-07T13:03:43Z</time></trkpt><trkpt lat="45.627120038323156" lon="11.131035008440705"><ele>626.0</ele><time>2026-04-07T13:03:44Z</time></trkpt><trkpt lat="45.62704252857259" lon="11.130939582685137"><ele>626.0</ele><time>2026-04-07T13:03:45Z</time></trkpt><trkpt lat="45.626936500715104" lon="11.130879868326767"><ele>626.0</ele><time>2026-04-07T13:03:46Z</time></trkpt><trkpt lat="45.626802084034416" lon="11.1308165970617"><ele>626.0</ele><time>2026-04-07T13:03:47Z</time></trkpt><trkpt lat="45.62668070199678" lon="11.130691981220627"><ele>634.25</ele><time>2026-04-07T13:03:48Z</time></trkpt><trkpt lat="45.62655130752648" lon="11.130609057170195"><ele>642.5</ele><time>2026-04-07T13:03:49Z</time></trkpt><trkpt lat="45.626435984786745" lon="11.130537978979907"><ele>650.75</ele><time>2026-04-07T13:03:50Z</time></trkpt><trkpt lat="45.626302670067226" lon="11.130516963630855"><ele>659.0</ele><time>2026-04-07T13:03:51Z</time></trkpt><trkpt lat="45.62615015805179" lon="11.13048486843123"><ele>659.0</ele><time>2026-04-07T13:03:52Z</time></trkpt><trkpt lat="45.62597053877297" lon="11.13045086150765"><ele>659.0</ele><time>2026-04-07T13:03:53Z</time></trkpt><trkpt lat="45.62577419263148" lon="11.130406666884978"><ele>659.0</ele><time>2026-04-07T13:03:54Z</time></trkpt><trkpt lat="45.62559950245552" lon="11.130358340914514"><ele>659.0</ele><time>2026-04-07T13:03:55Z</time></trkpt><trkpt lat="45.62545785799189" lon="11.130336249543992"><ele>659.0</ele><time>2026-04-07T13:03:56Z</time></trkpt><trkpt lat="45.625326310915206" lon="11.130339238824913"><ele>659.0</ele><time>2026-04-07T13:03:57Z</time></trkpt><trkpt lat="45.6251792901881" lon="11.130396320677564"><ele>659.0</ele><time>2026-04-07T13:03:58Z</time></trkpt><trkpt lat="45.624997509193484" lon="11.13042615745706"><ele>660.3333333333333</ele><time>2026-04-07T13:03:59Z</time></trkpt><trkpt lat="45.62481755792097" lon="11.130410001796188"><ele>661.6666666666666</ele><time>2026-04-07T13:04:00Z</time></trkpt><trkpt lat="45.62462549887362" lon="11.13044547158822"><ele>663.0</ele><time>2026-04-07T13:04:01Z</time></trkpt><trkpt lat="45.62445481517267" lon="11.130455839277198"><ele>665.0</ele><time>2026-04-07T13:04:02Z</time></trkpt><trkpt lat="45.62433180593084" lon="11.130476209538493"><ele>667.0</ele><time>2026-04-07T13:04:03Z</time></trkpt><trkpt lat="45.6242385301946" lon="11.1304536445688"><ele>669.0</ele><time>2026-04-07T13:04:04Z</time></trkpt><trkpt lat="45.624144865111575" lon="11.130387380884306"><ele>671.0</ele><time>2026-04-07T13:04:05Z</time></trkpt><trkpt lat="45.62403001208351" lon="11.130304880020994"><ele>671.0</ele><time>2026-04-07T13:04:06Z</time></trkpt><trkpt lat="45.623923637799976" lon="11.130243222181644"><ele>671.0</ele><time>2026-04-07T13:04:07Z</time></trkpt><trkpt lat="45.62382916155603" lon="11.130209741654367"><ele>671.0</ele><time>2026-04-07T13:04:08Z</time></trkpt><trkpt lat="45.62371988968696" lon="11.130239829354945"><ele>671.0</ele><time>2026-04-07T13:04:09Z</time></trkpt><trkpt lat="45.62360101093866" lon="11.130320693367189"><ele>674.3333333333333</ele><time>2026-04-07T13:04:10Z</time></trkpt><trkpt lat="45.623458836767696" lon="11.13042899868478"><ele>677.6666666666666</ele><time>2026-04-07T13:04:11Z</time></trkpt><trkpt lat="45.62330801998108" lon="11.13053070713591"><ele>681.0</ele><time>2026-04-07T13:04:12Z</time></trkpt><trkpt lat="45.6231452605032" lon="11.130618045560212"><ele>681.0</ele><time>2026-04-07T13:04:13Z</time></trkpt><trkpt lat="45.623017695718204" lon="11.13071152669938"><ele>681.0</ele><time>2026-04-07T13:04:14Z</time></trkpt><trkpt lat="45.62289514633422" lon="11.130781206944878"><ele>681.0</ele><time>2026-04-07T13:04:15Z</time></trkpt><trkpt lat="45.622740369408625" lon="11.13079420331202"><ele>681.0</ele><time>2026-04-07T13:04:15.999Z</time></trkpt><trkpt lat="45.62256833005039" lon="11.130812727235448"><ele>679.0</ele><time>2026-04-07T13:04:16.999Z</time></trkpt><trkpt lat="45.622387685142" lon="11.130879106015422"><ele>677.0</ele><time>2026-04-07T13:04:17.999Z</time></trkpt><trkpt lat="45.62220284918569" lon="11.130978157771166"><ele>675.0</ele><time>2026-04-07T13:04:18.999Z</time></trkpt><trkpt lat="45.62203466496006" lon="11.131102206501385"><ele>681.25</ele><time>2026-04-07T13:04:19.999Z</time></trkpt><trkpt lat="45.62188765206267" lon="11.131218742994275"><ele>687.5</ele><time>2026-04-07T13:04:20.999Z</time></trkpt><trkpt lat="45.6217707977279" lon="11.131312162860885"><ele>693.75</ele><time>2026-04-07T13:04:21.999Z</time></trkpt><trkpt lat="45.62166661528823" lon="11.131384298390719"><ele>700.0</ele><time>2026-04-07T13:04:22.999Z</time></trkpt><trkpt lat="45.621548365772654" lon="11.131400522297769"><ele>700.0</ele><time>2026-04-07T13:04:23.999Z</time></trkpt><trkpt lat="45.621415772156645" lon="11.131392077455622"><ele>700.0</ele><time>2026-04-07T13:04:24.999Z</time></trkpt><trkpt lat="45.621284797732066" lon="11.131420735690302"><ele>700.0</ele><time>2026-04-07T13:04:25.999Z</time></trkpt><trkpt lat="45.6211701105635" lon="11.131539361065137"><ele>700.0</ele><time>2026-04-07T13:04:26.999Z</time></trkpt><trkpt lat="45.621088766096676" lon="11.13166531136248"><ele>698.0</ele><time>2026-04-07T13:04:27.999Z</time></trkpt><trkpt lat="45.62101691628822" lon="11.13173024503934"><ele>696.0</ele><time>2026-04-07T13:04:28.999Z</time></trkpt><trkpt lat="45.620928074094685" lon="11.131703754713815"><ele>694.0</ele><time>2026-04-07T13:04:29.999Z</time></trkpt><trkpt lat="45.62079659681452" lon="11.131722314484175"><ele>692.0</ele><time>2026-04-07T13:04:30.999Z</time></trkpt><trkpt lat="45.62064425726223" lon="11.131779373237304"><ele>692.0</ele><time>2026-04-07T13:04:31.999Z</time></trkpt><trkpt lat="45.620483820001034" lon="11.13179741320275"><ele>692.0</ele><time>2026-04-07T13:04:32.999Z</time></trkpt><trkpt lat="45.62033911910902" lon="11.131821062945113"><ele>692.0</ele><time>2026-04-07T13:04:33.999Z</time></trkpt><trkpt lat="45.620207362574334" lon="11.131764087175709"><ele>692.0</ele><time>2026-04-07T13:04:34.999Z</time></trkpt><trkpt lat="45.62007099073921" lon="11.131773689960498"><ele>699.0</ele><time>2026-04-07T13:04:35.999Z</time></trkpt><trkpt lat="45.61992467121023" lon="11.131899759532887"><ele>706.0</ele><time>2026-04-07T13:04:36.999Z</time></trkpt><trkpt lat="45.61975264660466" lon="11.131980142040275"><ele>713.0</ele><time>2026-04-07T13:04:37.999Z</time></trkpt><trkpt lat="45.61958455521062" lon="11.13207570594362"><ele>721.3333333333333</ele><time>2026-04-07T13:04:38.999Z</time></trkpt><trkpt lat="45.61941306592088" lon="11.132161266779258"><ele>729.6666666666666</ele><time>2026-04-07T13:04:39.999Z</time></trkpt><trkpt lat="45.61925063848898" lon="11.132196561231854"><ele>738.0</ele><time>2026-04-07T13:04:40.999Z</time></trkpt><trkpt lat="45.619093325706004" lon="11.132225109545095"><ele>738.0</ele><time>2026-04-07T13:04:41.999Z</time></trkpt><trkpt lat="45.61895592189963" lon="11.13227725236455"><ele>738.0</ele><time>2026-04-07T13:04:42.999Z</time></trkpt><trkpt lat="45.618832630934584" lon="11.132288023640445"><ele>738.0</ele><time>2026-04-07T13:04:43.999Z</time></trkpt><trkpt lat="45.618713649331724" lon="11.132370250335436"><ele>738.0</ele><time>2026-04-07T13:04:44.999Z</time></trkpt><trkpt lat="45.6186418570173" lon="11.132532041056079"><ele>735.8</ele><time>2026-04-07T13:04:45.999Z</time></trkpt><trkpt lat="45.61858728126973" lon="11.132684584235884"><ele>733.5999999999999</ele><time>2026-04-07T13:04:46.999Z</time></trkpt><trkpt lat="45.61851246107098" lon="11.132749063917265"><ele>731.4000000000001</ele><time>2026-04-07T13:04:47.999Z</time></trkpt><trkpt lat="45.618432242583566" lon="11.132775886925092"><ele>729.2</ele><time>2026-04-07T13:04:48.999Z</time></trkpt><trkpt lat="45.61834381039777" lon="11.13268663672873"><ele>727.0</ele><time>2026-04-07T13:04:49.999Z</time></trkpt><trkpt lat="45.61823501351346" lon="11.13263949361853"><ele>727.0</ele><time>2026-04-07T13:04:50.999Z</time></trkpt><trkpt lat="45.61810307667575" lon="11.132661690096752"><ele>727.0</ele><time>2026-04-07T13:04:51.999Z</time></trkpt><trkpt lat="45.61796362579165" lon="11.132744251743011"><ele>727.0</ele><time>2026-04-07T13:04:52.999Z</time></trkpt><trkpt lat="45.61783742511323" lon="11.132913416568142"><ele>724.0</ele><time>2026-04-07T13:04:53.999Z</time></trkpt><trkpt lat="45.61770426251978" lon="11.133071230529993"><ele>721.0</ele><time>2026-04-07T13:04:54.999Z</time></trkpt><trkpt lat="45.617540350286056" lon="11.133182971564501"><ele>718.0</ele><time>2026-04-07T13:04:55.999Z</time></trkpt><trkpt lat="45.617413326289565" lon="11.13328438348858"><ele>718.0</ele><time>2026-04-07T13:04:56.999Z</time></trkpt><trkpt lat="45.6172960731618" lon="11.133375896191936"><ele>718.0</ele><time>2026-04-07T13:04:57.999Z</time></trkpt><trkpt lat="45.61720117510412" lon="11.13344511210079"><ele>718.0</ele><time>2026-04-07T13:04:58.999Z</time></trkpt><trkpt lat="45.61712615092513" lon="11.133495521198082"><ele>718.0</ele><time>2026-04-07T13:04:59.999Z</time></trkpt><trkpt lat="45.61706231144947" lon="11.133522338223276"><ele>718.0</ele><time>2026-04-07T13:05:00.999Z</time></trkpt><trkpt lat="45.616981608872244" lon="11.133542731235984"><ele>718.25</ele><time>2026-04-07T13:05:01.999Z</time></trkpt><trkpt lat="45.61688383224785" lon="11.133453897479107"><ele>718.5</ele><time>2026-04-07T13:05:02.999Z</time></trkpt><trkpt lat="45.616785776629875" lon="11.133360756250958"><ele>718.75</ele><time>2026-04-07T13:05:03.999Z</time></trkpt><trkpt lat="45.61668583640234" lon="11.13321553980482"><ele>719.0</ele><time>2026-04-07T13:05:04.999Z</time></trkpt><trkpt lat="45.61657528111858" lon="11.13302952748399"><ele>733.0</ele><time>2026-04-07T13:05:05.999Z</time></trkpt><trkpt lat="45.61642831690859" lon="11.132860079268317"><ele>747.0</ele><time>2026-04-07T13:05:06.999Z</time></trkpt><trkpt lat="45.61629208604783" lon="11.132687142768571"><ele>761.0</ele><time>2026-04-07T13:05:07.999Z</time></trkpt><trkpt lat="45.61617023687272" lon="11.132535121125784"><ele>766.0</ele><time>2026-04-07T13:05:08.999Z</time></trkpt><trkpt lat="45.61606535860861" lon="11.13240193334049"><ele>771.0</ele><time>2026-04-07T13:05:09.998Z</time></trkpt><trkpt lat="45.615964862285324" lon="11.132296313522662"><ele>776.0</ele><time>2026-04-07T13:05:10.998Z</time></trkpt><trkpt lat="45.615851274509865" lon="11.132242493811061"><ele>781.0</ele><time>2026-04-07T13:05:11.998Z</time></trkpt><trkpt lat="45.61572236288174" lon="11.132229727592232"><ele>781.0</ele><time>2026-04-07T13:05:12.998Z</time></trkpt><trkpt lat="45.6155973290436" lon="11.132251374793148"><ele>781.0</ele><time>2026-04-07T13:05:13.998Z</time></trkpt><trkpt lat="45.61547512015523" lon="11.132319885823629"><ele>781.0</ele><time>2026-04-07T13:05:14.998Z</time></trkpt><trkpt lat="45.61537359493457" lon="11.132424755751991"><ele>781.0</ele><time>2026-04-07T13:05:15.998Z</time></trkpt><trkpt lat="45.615276194488104" lon="11.13255835294338"><ele>778.3333333333333</ele><time>2026-04-07T13:05:16.998Z</time></trkpt><trkpt lat="45.61516963609348" lon="11.132717490845346"><ele>775.6666666666667</ele><time>2026-04-07T13:05:17.998Z</time></trkpt><trkpt lat="45.61507198344036" lon="11.132895072483098"><ele>773.0</ele><time>2026-04-07T13:05:18.998Z</time></trkpt><trkpt lat="45.61497219262192" lon="11.133035774232889"><ele>773.0</ele><time>2026-04-07T13:05:19.998Z</time></trkpt><trkpt lat="45.61490372695837" lon="11.133167154806456"><ele>773.0</ele><time>2026-04-07T13:05:20.998Z</time></trkpt><trkpt lat="45.61481066804657" lon="11.13324201140176"><ele>773.0</ele><time>2026-04-07T13:05:21.998Z</time></trkpt><trkpt lat="45.61473654174249" lon="11.133287848852927"><ele>773.0</ele><time>2026-04-07T13:05:22.998Z</time></trkpt><trkpt lat="45.61464771440628" lon="11.13330158422161"><ele>773.0</ele><time>2026-04-07T13:05:23.998Z</time></trkpt><trkpt lat="45.614532598594" lon="11.133283041265514"><ele>775.3333333333334</ele><time>2026-04-07T13:05:24.998Z</time></trkpt><trkpt lat="45.61440028918055" lon="11.13324955555309"><ele>777.6666666666667</ele><time>2026-04-07T13:05:25.998Z</time></trkpt><trkpt lat="45.61424315442759" lon="11.13321217292149"><ele>780.0</ele><time>2026-04-07T13:05:26.998Z</time></trkpt><trkpt lat="45.614087007009196" lon="11.13320530818699"><ele>780.0</ele><time>2026-04-07T13:05:27.998Z</time></trkpt><trkpt lat="45.6139592292275" lon="11.133177353651803"><ele>780.0</ele><time>2026-04-07T13:05:28.998Z</time></trkpt><trkpt lat="45.613859524822125" lon="11.133154048669523"><ele>780.0</ele><time>2026-04-07T13:05:29.998Z</time></trkpt><trkpt lat="45.61379336977549" lon="11.133120438605784"><ele>780.0</ele><time>2026-04-07T13:05:30.998Z</time></trkpt><trkpt lat="45.61374276910535" lon="11.133043941027283"><ele>780.0</ele><time>2026-04-07T13:05:31.998Z</time></trkpt><trkpt lat="45.61371245175416" lon="11.132923339289052"><ele>780.0</ele><time>2026-04-07T13:05:32.998Z</time></trkpt><trkpt lat="45.61370204652682" lon="11.13277578303037"><ele>780.0</ele><time>2026-04-07T13:05:33.998Z</time></trkpt><trkpt lat="45.613696270900455" lon="11.132584488262015"><ele>780.0</ele><time>2026-04-07T13:05:34.998Z</time></trkpt><trkpt lat="45.61369692845383" lon="11.132373241151937"><ele>780.0</ele><time>2026-04-07T13:05:35.998Z</time></trkpt><trkpt lat="45.613688039690466" lon="11.132149195590886"><ele>783.25</ele><time>2026-04-07T13:05:36.998Z</time></trkpt><trkpt lat="45.613661790138394" lon="11.131926370828214"><ele>786.5</ele><time>2026-04-07T13:05:37.998Z</time></trkpt><trkpt lat="45.61361956682079" lon="11.131757091611892"><ele>789.75</ele><time>2026-04-07T13:05:38.998Z</time></trkpt><trkpt lat="45.61360038495694" lon="11.131607235273988"><ele>793.0</ele><time>2026-04-07T13:05:39.998Z</time></trkpt><trkpt lat="45.61361981672479" lon="11.131459609364118"><ele>794.25</ele><time>2026-04-07T13:05:40.998Z</time></trkpt><trkpt lat="45.61366599326112" lon="11.13131087026189"><ele>795.5</ele><time>2026-04-07T13:05:41.998Z</time></trkpt><trkpt lat="45.6137446586699" lon="11.131155394429499"><ele>796.75</ele><time>2026-04-07T13:05:42.998Z</time></trkpt><trkpt lat="45.61380619762076" lon="11.130999545862325"><ele>798.0</ele><time>2026-04-07T13:05:43.998Z</time></trkpt><trkpt lat="45.61383780813777" lon="11.130852632001293"><ele>802.75</ele><time>2026-04-07T13:05:44.998Z</time></trkpt><trkpt lat="45.61383603120965" lon="11.130691760501728"><ele>807.5</ele><time>2026-04-07T13:05:45.998Z</time></trkpt><trkpt lat="45.61379829021872" lon="11.130534860968956"><ele>812.25</ele><time>2026-04-07T13:05:46.998Z</time></trkpt><trkpt lat="45.61372818667854" lon="11.130380017945711"><ele>817.0</ele><time>2026-04-07T13:05:48Z</time></trkpt><trkpt lat="45.61362650754136" lon="11.130238553139344"><ele>812.0</ele><time>2026-04-07T13:05:49Z</time></trkpt><trkpt lat="45.61350704748885" lon="11.130105715574672"><ele>807.0</ele><time>2026-04-07T13:05:50Z</time></trkpt><trkpt lat="45.613376372691164" lon="11.129989859192023"><ele>802.0</ele><time>2026-04-07T13:05:51Z</time></trkpt><trkpt lat="45.613261930368964" lon="11.129862807976433"><ele>802.0</ele><time>2026-04-07T13:05:52Z</time></trkpt><trkpt lat="45.61315749611316" lon="11.129725056404007"><ele>802.0</ele><time>2026-04-07T13:05:53Z</time></trkpt><trkpt lat="45.61310201844116" lon="11.129630831083277"><ele>802.0</ele><time>2026-04-07T13:05:54Z</time></trkpt><trkpt lat="45.61306742486765" lon="11.129459959113383"><ele>802.0</ele><time>2026-04-07T13:05:56Z</time></trkpt><trkpt lat="45.61312159415796" lon="11.129320624914776"><ele>802.0</ele><time>2026-04-07T13:05:57Z</time></trkpt><trkpt lat="45.613119535989576" lon="11.129151500911195"><ele>802.0</ele><time>2026-04-07T13:05:58Z</time></trkpt><trkpt lat="45.61308153064994" lon="11.128995979836143"><ele>802.0</ele><time>2026-04-07T13:05:59Z</time></trkpt><trkpt lat="45.61298983337809" lon="11.128865882150112"><ele>802.0</ele><time>2026-04-07T13:06:00Z</time></trkpt><trkpt lat="45.61292629242604" lon="11.128726926754887"><ele>801.6</ele><time>2026-04-07T13:06:01Z</time></trkpt><trkpt lat="45.61288033821417" lon="11.128620617646071"><ele>801.2</ele><time>2026-04-07T13:06:02Z</time></trkpt><trkpt lat="45.61287122792562" lon="11.128523634358741"><ele>800.8</ele><time>2026-04-07T13:06:03Z</time></trkpt><trkpt lat="45.61291236980765" lon="11.128404266911604"><ele>800.4</ele><time>2026-04-07T13:06:04Z</time></trkpt><trkpt lat="45.61300776380325" lon="11.128303734848615"><ele>800.0</ele><time>2026-04-07T13:06:05Z</time></trkpt><trkpt lat="45.61308020430006" lon="11.128132273674781"><ele>800.0</ele><time>2026-04-07T13:06:06Z</time></trkpt><trkpt lat="45.61318046277006" lon="11.12794366933406"><ele>800.0</ele><time>2026-04-07T13:06:07Z</time></trkpt><trkpt lat="45.61326330325793" lon="11.127764897169097"><ele>800.0</ele><time>2026-04-07T13:06:08Z</time></trkpt><trkpt lat="45.61333631870079" lon="11.127637464148055"><ele>800.0</ele><time>2026-04-07T13:06:09Z</time></trkpt><trkpt lat="45.61341179335069" lon="11.127489396326075"><ele>803.4</ele><time>2026-04-07T13:06:10Z</time></trkpt><trkpt lat="45.613469986872396" lon="11.127300306312783"><ele>806.8</ele><time>2026-04-07T13:06:11Z</time></trkpt><trkpt lat="45.61349761021489" lon="11.12717033328214"><ele>810.2</ele><time>2026-04-07T13:06:12Z</time></trkpt><trkpt lat="45.613488157055194" lon="11.12704227928922"><ele>813.6</ele><time>2026-04-07T13:06:13Z</time></trkpt><trkpt lat="45.61344620166216" lon="11.126930063569427"><ele>817.0</ele><time>2026-04-07T13:06:14Z</time></trkpt><trkpt lat="45.61341013305364" lon="11.126830922358844"><ele>817.0</ele><time>2026-04-07T13:06:15Z</time></trkpt><trkpt lat="45.61331741972608" lon="11.126778266531755"><ele>817.0</ele><time>2026-04-07T13:06:16Z</time></trkpt><trkpt lat="45.61319618852665" lon="11.126711585711023"><ele>817.0</ele><time>2026-04-07T13:06:17Z</time></trkpt><trkpt lat="45.61305297202276" lon="11.12665007361814"><ele>817.0</ele><time>2026-04-07T13:06:18Z</time></trkpt><trkpt lat="45.61292059689282" lon="11.12661444616423"><ele>813.9999999999999</ele><time>2026-04-07T13:06:19Z</time></trkpt><trkpt lat="45.61281356487213" lon="11.12654975218332"><ele>811.0</ele><time>2026-04-07T13:06:20Z</time></trkpt><trkpt lat="45.61273806946046" lon="11.12650448343102"><ele>808.0</ele><time>2026-04-07T13:06:21Z</time></trkpt><trkpt lat="45.6126779048431" lon="11.126469050648701"><ele>805.0</ele><time>2026-04-07T13:06:22Z</time></trkpt><trkpt lat="45.61265790215228" lon="11.126367855597517"><ele>801.9999999999999</ele><time>2026-04-07T13:06:23Z</time></trkpt><trkpt lat="45.61266857134007" lon="11.1262367248748"><ele>799.0</ele><time>2026-04-07T13:06:24Z</time></trkpt><trkpt lat="45.61269853086174" lon="11.126068042418208"><ele>799.0</ele><time>2026-04-07T13:06:25Z</time></trkpt><trkpt lat="45.61270769293058" lon="11.125840684895605"><ele>799.0</ele><time>2026-04-07T13:06:26Z</time></trkpt><trkpt lat="45.61269879459658" lon="11.125607814812126"><ele>799.0</ele><time>2026-04-07T13:06:26.999Z</time></trkpt><trkpt lat="45.612692520384456" lon="11.125394967395707"><ele>802.0</ele><time>2026-04-07T13:06:27.999Z</time></trkpt><trkpt lat="45.61270899023073" lon="11.125217397557867"><ele>805.0</ele><time>2026-04-07T13:06:28.999Z</time></trkpt><trkpt lat="45.61270881061047" lon="11.125068858047731"><ele>808.0</ele><time>2026-04-07T13:06:29.999Z</time></trkpt><trkpt lat="45.61266173999962" lon="11.12493621218784"><ele>811.0</ele><time>2026-04-07T13:06:30.999Z</time></trkpt><trkpt lat="45.612571915309076" lon="11.124788901512893"><ele>817.75</ele><time>2026-04-07T13:06:31.999Z</time></trkpt><trkpt lat="45.61245232257766" lon="11.124644000842506"><ele>824.5</ele><time>2026-04-07T13:06:32.999Z</time></trkpt><trkpt lat="45.612351972522426" lon="11.124515644644557"><ele>831.25</ele><time>2026-04-07T13:06:33.999Z</time></trkpt><trkpt lat="45.61228046209297" lon="11.124423094254816"><ele>838.0</ele><time>2026-04-07T13:06:34.999Z</time></trkpt><trkpt lat="45.612244183139644" lon="11.1243212512152"><ele>838.0</ele><time>2026-04-07T13:06:35.999Z</time></trkpt><trkpt lat="45.612237872585276" lon="11.124180833694611"><ele>838.0</ele><time>2026-04-07T13:06:36.999Z</time></trkpt><trkpt lat="45.61225549583309" lon="11.124003751951287"><ele>838.0</ele><time>2026-04-07T13:06:37.999Z</time></trkpt><trkpt lat="45.61226429898693" lon="11.123829970121205"><ele>838.0</ele><time>2026-04-07T13:06:38.999Z</time></trkpt><trkpt lat="45.612246644589426" lon="11.123680411584326"><ele>834.2</ele><time>2026-04-07T13:06:39.999Z</time></trkpt><trkpt lat="45.61222168234857" lon="11.123555825494435"><ele>830.4</ele><time>2026-04-07T13:06:40.999Z</time></trkpt><trkpt lat="45.61213178998494" lon="11.12346704369206"><ele>826.6</ele><time>2026-04-07T13:06:41.999Z</time></trkpt><trkpt lat="45.612018904957814" lon="11.123422314672274"><ele>822.8000000000001</ele><time>2026-04-07T13:06:42.999Z</time></trkpt><trkpt lat="45.61189845460683" lon="11.123415055915162"><ele>819.0</ele><time>2026-04-07T13:06:43.999Z</time></trkpt><trkpt lat="45.61180388705881" lon="11.12336482629786"><ele>819.0</ele><time>2026-04-07T13:06:44.999Z</time></trkpt><trkpt lat="45.61173401214461" lon="11.123308466515113"><ele>819.0</ele><time>2026-04-07T13:06:45.999Z</time></trkpt><trkpt lat="45.61167499822775" lon="11.123221357876107"><ele>819.0</ele><time>2026-04-07T13:06:46.999Z</time></trkpt><trkpt lat="45.611672222612796" lon="11.123051984612236"><ele>819.0</ele><time>2026-04-07T13:06:47.999Z</time></trkpt><trkpt lat="45.61162319287674" lon="11.122884573619203"><ele>819.0</ele><time>2026-04-07T13:06:48.999Z</time></trkpt><trkpt lat="45.61156634835038" lon="11.122732059062708"><ele>827.75</ele><time>2026-04-07T13:06:49.999Z</time></trkpt><trkpt lat="45.611462173795815" lon="11.122597428877475"><ele>836.5</ele><time>2026-04-07T13:06:50.999Z</time></trkpt><trkpt lat="45.61134073225384" lon="11.122488402664029"><ele>845.25</ele><time>2026-04-07T13:06:51.999Z</time></trkpt><trkpt lat="45.61121736287252" lon="11.122423520663501"><ele>854.0</ele><time>2026-04-07T13:06:52.999Z</time></trkpt><trkpt lat="45.61112280573751" lon="11.122363101308707"><ele>855.0</ele><time>2026-04-07T13:06:53.999Z</time></trkpt><trkpt lat="45.61104389286415" lon="11.12228695085249"><ele>856.0</ele><time>2026-04-07T13:06:54.999Z</time></trkpt><trkpt lat="45.61097379004944" lon="11.122164752319389"><ele>857.0</ele><time>2026-04-07T13:06:55.999Z</time></trkpt><trkpt lat="45.610870855898824" lon="11.121995742894306"><ele>858.0</ele><time>2026-04-07T13:06:56.999Z</time></trkpt><trkpt lat="45.61074549188109" lon="11.121824703275882"><ele>858.0</ele><time>2026-04-07T13:06:57.999Z</time></trkpt><trkpt lat="45.610600219495" lon="11.121715044312687"><ele>858.0</ele><time>2026-04-07T13:06:58.999Z</time></trkpt><trkpt lat="45.61047760611215" lon="11.121637341442767"><ele>858.0</ele><time>2026-04-07T13:06:59.999Z</time></trkpt><trkpt lat="45.61039421472257" lon="11.121552029193662"><ele>858.0</ele><time>2026-04-07T13:07:00.999Z</time></trkpt><trkpt lat="45.610339755369694" lon="11.121483208444095"><ele>853.25</ele><time>2026-04-07T13:07:01.999Z</time></trkpt><trkpt lat="45.61029267681254" lon="11.12140743193171"><ele>848.5</ele><time>2026-04-07T13:07:02.999Z</time></trkpt><trkpt lat="45.610280663358516" lon="11.121250197954884"><ele>843.75</ele><time>2026-04-07T13:07:03.999Z</time></trkpt><trkpt lat="45.61024672587704" lon="11.121060262786846"><ele>839.0</ele><time>2026-04-07T13:07:04.999Z</time></trkpt><trkpt lat="45.610212485421776" lon="11.12086123112031"><ele>845.5</ele><time>2026-04-07T13:07:05.999Z</time></trkpt><trkpt lat="45.61019796558115" lon="11.12065272682148"><ele>852.0</ele><time>2026-04-07T13:07:06.999Z</time></trkpt><trkpt lat="45.61015933457921" lon="11.120476980062039"><ele>858.5</ele><time>2026-04-07T13:07:07.999Z</time></trkpt><trkpt lat="45.61014180173308" lon="11.120326035866764"><ele>865.0</ele><time>2026-04-07T13:07:08.999Z</time></trkpt><trkpt lat="45.61011384215508" lon="11.120185020201195"><ele>865.0</ele><time>2026-04-07T13:07:09.999Z</time></trkpt><trkpt lat="45.61005219786326" lon="11.120054965575392"><ele>865.0</ele><time>2026-04-07T13:07:10.999Z</time></trkpt><trkpt lat="45.60994570550014" lon="11.119908730301388"><ele>865.0</ele><time>2026-04-07T13:07:11.999Z</time></trkpt><trkpt lat="45.60980590243666" lon="11.119807109778131"><ele>865.0</ele><time>2026-04-07T13:07:12.999Z</time></trkpt><trkpt lat="45.60966652645409" lon="11.119698371433165"><ele>864.0</ele><time>2026-04-07T13:07:13.999Z</time></trkpt><trkpt lat="45.60951686581399" lon="11.119594330115037"><ele>863.0</ele><time>2026-04-07T13:07:14.999Z</time></trkpt><trkpt lat="45.60937952668166" lon="11.119502857902805"><ele>862.0</ele><time>2026-04-07T13:07:15.999Z</time></trkpt><trkpt lat="45.609277264535976" lon="11.119425461530977"><ele>861.0</ele><time>2026-04-07T13:07:16.999Z</time></trkpt><trkpt lat="45.60920449431664" lon="11.119347462945907"><ele>861.0</ele><time>2026-04-07T13:07:17.999Z</time></trkpt><trkpt lat="45.60915353803505" lon="11.119245144718311"><ele>860.9999999999999</ele><time>2026-04-07T13:07:18.999Z</time></trkpt><trkpt lat="45.60912774256175" lon="11.11912589910555"><ele>860.9999999999999</ele><time>2026-04-07T13:07:19.998Z</time></trkpt><trkpt lat="45.60916943157738" lon="11.118982346584087"><ele>861.0</ele><time>2026-04-07T13:07:20.998Z</time></trkpt><trkpt lat="45.60919680838095" lon="11.118816284454383"><ele>861.0</ele><time>2026-04-07T13:07:21.998Z</time></trkpt><trkpt lat="45.609240796338476" lon="11.118640100699603"><ele>864.5</ele><time>2026-04-07T13:07:22.998Z</time></trkpt><trkpt lat="45.60927426987529" lon="11.118462352793332"><ele>868.0</ele><time>2026-04-07T13:07:23.998Z</time></trkpt><trkpt lat="45.60928686448056" lon="11.118275039949909"><ele>871.5</ele><time>2026-04-07T13:07:24.998Z</time></trkpt><trkpt lat="45.609275378206206" lon="11.118101739756469"><ele>875.0</ele><time>2026-04-07T13:07:25.998Z</time></trkpt><trkpt lat="45.60924750383397" lon="11.117971885925519"><ele>875.0</ele><time>2026-04-07T13:07:26.998Z</time></trkpt><trkpt lat="45.60927496986752" lon="11.117833248839538"><ele>875.0</ele><time>2026-04-07T13:07:28.998Z</time></trkpt><trkpt lat="45.60936536196136" lon="11.11790727492904"><ele>875.0</ele><time>2026-04-07T13:07:30.998Z</time></trkpt><trkpt lat="45.60934897666747" lon="11.118055803368625"><ele>875.0</ele><time>2026-04-07T13:07:31.998Z</time></trkpt><trkpt lat="45.609356207823105" lon="11.118212090020581"><ele>875.0</ele><time>2026-04-07T13:07:32.998Z</time></trkpt><trkpt lat="45.609348540917736" lon="11.118404857473713"><ele>875.0</ele><time>2026-04-07T13:07:33.998Z</time></trkpt><trkpt lat="45.60935361316579" lon="11.118609159276355"><ele>875.0</ele><time>2026-04-07T13:07:34.998Z</time></trkpt><trkpt lat="45.60932228753543" lon="11.118753508315185"><ele>875.0</ele><time>2026-04-07T13:07:35.998Z</time></trkpt><trkpt lat="45.60931990964949" lon="11.118876414733078"><ele>875.0</ele><time>2026-04-07T13:07:36.998Z</time></trkpt><trkpt lat="45.60933812864955" lon="11.118987200673672"><ele>875.0</ele><time>2026-04-07T13:07:38.998Z</time></trkpt><trkpt lat="45.60940423345219" lon="11.118974475991282"><ele>875.0</ele><time>2026-04-07T13:07:39.998Z</time></trkpt><trkpt lat="45.60946268872503" lon="11.118893143995008"><ele>875.0</ele><time>2026-04-07T13:07:40.998Z</time></trkpt><trkpt lat="45.609496361141034" lon="11.118733230013977"><ele>875.0</ele><time>2026-04-07T13:07:41.998Z</time></trkpt><trkpt lat="45.609489488483426" lon="11.118545082360843"><ele>875.0</ele><time>2026-04-07T13:07:42.998Z</time></trkpt><trkpt lat="45.609478160726354" lon="11.11833400378302"><ele>881.75</ele><time>2026-04-07T13:07:43.998Z</time></trkpt><trkpt lat="45.60948714520937" lon="11.118125479589093"><ele>888.5</ele><time>2026-04-07T13:07:44.998Z</time></trkpt><trkpt lat="45.60948733420865" lon="11.11795123719303"><ele>895.25</ele><time>2026-04-07T13:07:45.998Z</time></trkpt><trkpt lat="45.60951729947804" lon="11.117808507668931"><ele>902.0</ele><time>2026-04-07T13:07:46.998Z</time></trkpt><trkpt lat="45.60958031062503" lon="11.117684168105496"><ele>902.0</ele><time>2026-04-07T13:07:47.998Z</time></trkpt><trkpt lat="45.60966457162098" lon="11.117552354672451"><ele>902.0</ele><time>2026-04-07T13:07:48.998Z</time></trkpt><trkpt lat="45.609796684718894" lon="11.117476430921188"><ele>902.0</ele><time>2026-04-07T13:07:49.998Z</time></trkpt><trkpt lat="45.609940357794414" lon="11.117368391187254"><ele>902.0</ele><time>2026-04-07T13:07:50.998Z</time></trkpt><trkpt lat="45.6100918894472" lon="11.117273023425367"><ele>902.5</ele><time>2026-04-07T13:07:51.998Z</time></trkpt><trkpt lat="45.6102306703215" lon="11.117164440353806"><ele>903.0</ele><time>2026-04-07T13:07:52.998Z</time></trkpt><trkpt lat="45.61033899361339" lon="11.117047789121212"><ele>903.5</ele><time>2026-04-07T13:07:54Z</time></trkpt><trkpt lat="45.610414572876685" lon="11.116978762086855"><ele>904.0</ele><time>2026-04-07T13:07:55Z</time></trkpt><trkpt lat="45.61048981377704" lon="11.11689867329177"><ele>904.0</ele><time>2026-04-07T13:07:56Z</time></trkpt><trkpt lat="45.61058519258465" lon="11.116900426111512"><ele>904.0</ele><time>2026-04-07T13:07:57Z</time></trkpt><trkpt lat="45.61071846403973" lon="11.116918907889838"><ele>904.0</ele><time>2026-04-07T13:07:58Z</time></trkpt><trkpt lat="45.610880607347006" lon="11.116934690117692"><ele>904.0</ele><time>2026-04-07T13:07:59Z</time></trkpt><trkpt lat="45.61106657677767" lon="11.116942596193935"><ele>903.3333333333333</ele><time>2026-04-07T13:08:00Z</time></trkpt><trkpt lat="45.61127468519304" lon="11.116957195712759"><ele>902.6666666666667</ele><time>2026-04-07T13:08:01Z</time></trkpt><trkpt lat="45.611482253446056" lon="11.11695232551903"><ele>902.0</ele><time>2026-04-07T13:08:02Z</time></trkpt><trkpt lat="45.611685963458655" lon="11.116921299498106"><ele>902.0</ele><time>2026-04-07T13:08:03Z</time></trkpt><trkpt lat="45.61187759201688" lon="11.116836622524707"><ele>902.0</ele><time>2026-04-07T13:08:04Z</time></trkpt><trkpt lat="45.612048338736216" lon="11.116712530815901"><ele>902.0</ele><time>2026-04-07T13:08:05Z</time></trkpt><trkpt lat="45.6122175681674" lon="11.116577677165445"><ele>903.6666666666667</ele><time>2026-04-07T13:08:06Z</time></trkpt><trkpt lat="45.61238639497341" lon="11.116459871371427"><ele>905.3333333333333</ele><time>2026-04-07T13:08:07Z</time></trkpt><trkpt lat="45.612550304785174" lon="11.116338325363644"><ele>907.0</ele><time>2026-04-07T13:08:08Z</time></trkpt><trkpt lat="45.612701809991755" lon="11.116238237715695"><ele>907.5</ele><time>2026-04-07T13:08:09Z</time></trkpt><trkpt lat="45.612832369213145" lon="11.116147579095797"><ele>908.0</ele><time>2026-04-07T13:08:10Z</time></trkpt><trkpt lat="45.61296423170444" lon="11.116059213616074"><ele>908.5</ele><time>2026-04-07T13:08:11Z</time></trkpt><trkpt lat="45.61308915945834" lon="11.115970320989135"><ele>909.0</ele><time>2026-04-07T13:08:12Z</time></trkpt><trkpt lat="45.61320663261251" lon="11.115864438853398"><ele>912.3333333333333</ele><time>2026-04-07T13:08:13Z</time></trkpt><trkpt lat="45.613307813524806" lon="11.115705087979475"><ele>915.6666666666666</ele><time>2026-04-07T13:08:14Z</time></trkpt><trkpt lat="45.61340367622274" lon="11.115515018563633"><ele>919.0</ele><time>2026-04-07T13:08:15Z</time></trkpt><trkpt lat="45.613493757469" lon="11.115329260037473"><ele>919.0</ele><time>2026-04-07T13:08:16Z</time></trkpt><trkpt lat="45.613570847568496" lon="11.115177392021698"><ele>919.0</ele><time>2026-04-07T13:08:17Z</time></trkpt><trkpt lat="45.613677457356374" lon="11.115046921044595"><ele>919.0</ele><time>2026-04-07T13:08:18Z</time></trkpt><trkpt lat="45.61381507503381" lon="11.114922271462788"><ele>919.0</ele><time>2026-04-07T13:08:19Z</time></trkpt><trkpt lat="45.61398117124284" lon="11.114865565561688"><ele>920.3333333333333</ele><time>2026-04-07T13:08:20Z</time></trkpt><trkpt lat="45.614156268207054" lon="11.114788263424435"><ele>921.6666666666667</ele><time>2026-04-07T13:08:21Z</time></trkpt><trkpt lat="45.61432775892674" lon="11.114756672547664"><ele>923.0</ele><time>2026-04-07T13:08:22Z</time></trkpt><trkpt lat="45.61449560060009" lon="11.11472331903748"><ele>920.3333333333334</ele><time>2026-04-07T13:08:23Z</time></trkpt><trkpt lat="45.614649825557066" lon="11.114693128624413"><ele>917.6666666666667</ele><time>2026-04-07T13:08:24Z</time></trkpt><trkpt lat="45.61480316093697" lon="11.114650911357272"><ele>915.0</ele><time>2026-04-07T13:08:25Z</time></trkpt><trkpt lat="45.614942756329825" lon="11.114601204584005"><ele>915.0</ele><time>2026-04-07T13:08:26Z</time></trkpt><trkpt lat="45.61506014044058" lon="11.114526915162987"><ele>915.0</ele><time>2026-04-07T13:08:27Z</time></trkpt><trkpt lat="45.61517157258717" lon="11.114388255958668"><ele>915.0</ele><time>2026-04-07T13:08:28Z</time></trkpt><trkpt lat="45.61530145984005" lon="11.114187487406808"><ele>918.0</ele><time>2026-04-07T13:08:29Z</time></trkpt><trkpt lat="45.61546664496508" lon="11.113972709798567"><ele>921.0</ele><time>2026-04-07T13:08:30Z</time></trkpt><trkpt lat="45.61564277821859" lon="11.113747048201581"><ele>921.0</ele><time>2026-04-07T13:08:31Z</time></trkpt><trkpt lat="45.61581329319957" lon="11.113501108446501"><ele>921.0</ele><time>2026-04-07T13:08:32Z</time></trkpt><trkpt lat="45.615996183510894" lon="11.113302655972939"><ele>923.0</ele><time>2026-04-07T13:08:33Z</time></trkpt><trkpt lat="45.61616484529037" lon="11.113163974891872"><ele>925.0</ele><time>2026-04-07T13:08:34Z</time></trkpt><trkpt lat="45.616326023428904" lon="11.113076692032859"><ele>927.0</ele><time>2026-04-07T13:08:34.999Z</time></trkpt><trkpt lat="45.616478163079336" lon="11.113002585892227"><ele>927.0</ele><time>2026-04-07T13:08:35.999Z</time></trkpt><trkpt lat="45.616584619087895" lon="11.112931919128854"><ele>927.0</ele><time>2026-04-07T13:08:36.999Z</time></trkpt><trkpt lat="45.616653843613776" lon="11.112818759140097"><ele>927.0</ele><time>2026-04-07T13:08:37.999Z</time></trkpt><trkpt lat="45.616665258828334" lon="11.112661449187032"><ele>927.0</ele><time>2026-04-07T13:08:38.999Z</time></trkpt><trkpt lat="45.6166307497392" lon="11.112497120771977"><ele>929.0</ele><time>2026-04-07T13:08:39.999Z</time></trkpt><trkpt lat="45.61654932546276" lon="11.112356792615529"><ele>931.0</ele><time>2026-04-07T13:08:40.999Z</time></trkpt><trkpt lat="45.616419578882486" lon="11.112288083298186"><ele>933.0</ele><time>2026-04-07T13:08:41.999Z</time></trkpt><trkpt lat="45.61627370102932" lon="11.11225844753982"><ele>935.0</ele><time>2026-04-07T13:08:42.999Z</time></trkpt><trkpt lat="45.61612454104381" lon="11.112202148084037"><ele>935.4</ele><time>2026-04-07T13:08:43.999Z</time></trkpt><trkpt lat="45.61598930995291" lon="11.11215647419145"><ele>935.8</ele><time>2026-04-07T13:08:44.999Z</time></trkpt><trkpt lat="45.6158839811165" lon="11.112117820954657"><ele>936.2</ele><time>2026-04-07T13:08:45.999Z</time></trkpt><trkpt lat="45.61580669982425" lon="11.112070274011543"><ele>936.6</ele><time>2026-04-07T13:08:46.999Z</time></trkpt><trkpt lat="45.6157423757073" lon="11.111988490422592"><ele>937.0</ele><time>2026-04-07T13:08:47.999Z</time></trkpt><trkpt lat="45.615733854077625" lon="11.11183558648612"><ele>937.0</ele><time>2026-04-07T13:08:48.999Z</time></trkpt><trkpt lat="45.615773532749564" lon="11.111690471965572"><ele>937.0</ele><time>2026-04-07T13:08:49.999Z</time></trkpt><trkpt lat="45.61585579958341" lon="11.111581893228438"><ele>937.0</ele><time>2026-04-07T13:08:50.999Z</time></trkpt><trkpt lat="45.61598187980615" lon="11.111532521411077"><ele>937.0</ele><time>2026-04-07T13:08:51.999Z</time></trkpt><trkpt lat="45.61610985759243" lon="11.11144401066351"><ele>939.3333333333333</ele><time>2026-04-07T13:08:52.999Z</time></trkpt><trkpt lat="45.616250625162266" lon="11.111352523609337"><ele>941.6666666666667</ele><time>2026-04-07T13:08:53.999Z</time></trkpt><trkpt lat="45.61640741168467" lon="11.111252850088748"><ele>944.0</ele><time>2026-04-07T13:08:54.999Z</time></trkpt><trkpt lat="45.6165469303961" lon="11.111166522176745"><ele>944.0</ele><time>2026-04-07T13:08:55.999Z</time></trkpt><trkpt lat="45.616655504668685" lon="11.11108298581095"><ele>944.0000000000001</ele><time>2026-04-07T13:08:56.999Z</time></trkpt><trkpt lat="45.616742828030524" lon="11.11098739000065"><ele>944.0000000000001</ele><time>2026-04-07T13:08:57.999Z</time></trkpt><trkpt lat="45.616792796847356" lon="11.110867611928517"><ele>944.0</ele><time>2026-04-07T13:08:58.999Z</time></trkpt><trkpt lat="45.61681674248063" lon="11.110716984959215"><ele>944.0</ele><time>2026-04-07T13:08:59.999Z</time></trkpt><trkpt lat="45.61677326574398" lon="11.11055039023533"><ele>948.3333333333334</ele><time>2026-04-07T13:09:00.999Z</time></trkpt><trkpt lat="45.61665955613491" lon="11.110434716940912"><ele>952.6666666666667</ele><time>2026-04-07T13:09:01.999Z</time></trkpt><trkpt lat="45.61652362299401" lon="11.110320071485475"><ele>957.0</ele><time>2026-04-07T13:09:02.999Z</time></trkpt><trkpt lat="45.616366649048565" lon="11.110199909468554"><ele>957.0</ele><time>2026-04-07T13:09:03.999Z</time></trkpt><trkpt lat="45.61620986479402" lon="11.110052677792028"><ele>957.0</ele><time>2026-04-07T13:09:04.999Z</time></trkpt><trkpt lat="45.616039091926396" lon="11.109889495634079"><ele>957.0</ele><time>2026-04-07T13:09:05.999Z</time></trkpt><trkpt lat="45.615859747575165" lon="11.109723296620082"><ele>960.6666666666667</ele><time>2026-04-07T13:09:06.999Z</time></trkpt><trkpt lat="45.615675248817524" lon="11.109566238338536"><ele>964.3333333333334</ele><time>2026-04-07T13:09:07.999Z</time></trkpt><trkpt lat="45.61550680294508" lon="11.10942360059575"><ele>968.0</ele><time>2026-04-07T13:09:08.999Z</time></trkpt><trkpt lat="45.61537168220372" lon="11.109279653917724"><ele>968.0</ele><time>2026-04-07T13:09:09.999Z</time></trkpt><trkpt lat="45.61523975875752" lon="11.109160634979641"><ele>968.0</ele><time>2026-04-07T13:09:10.999Z</time></trkpt><trkpt lat="45.61510299932194" lon="11.10905424562718"><ele>968.0</ele><time>2026-04-07T13:09:11.999Z</time></trkpt><trkpt lat="45.61500196964228" lon="11.108890089985836"><ele>968.0</ele><time>2026-04-07T13:09:12.999Z</time></trkpt><trkpt lat="45.61489949891838" lon="11.108725328133565"><ele>968.0</ele><time>2026-04-07T13:09:13.999Z</time></trkpt><trkpt lat="45.614785664988126" lon="11.108560849462432"><ele>968.0</ele><time>2026-04-07T13:09:14.999Z</time></trkpt><trkpt lat="45.614696496943466" lon="11.108404656887485"><ele>968.0</ele><time>2026-04-07T13:09:15.999Z</time></trkpt><trkpt lat="45.61462006314448" lon="11.10827580852187"><ele>968.0</ele><time>2026-04-07T13:09:16.999Z</time></trkpt><trkpt lat="45.61455385241549" lon="11.10817356034266"><ele>968.0</ele><time>2026-04-07T13:09:17.999Z</time></trkpt><trkpt lat="45.61448586799008" lon="11.108098717812512"><ele>968.0</ele><time>2026-04-07T13:09:18.999Z</time></trkpt><trkpt lat="45.61438693709515" lon="11.10808140241496"><ele>968.0</ele><time>2026-04-07T13:09:19.999Z</time></trkpt><trkpt lat="45.61426366374624" lon="11.108179577876319"><ele>971.75</ele><time>2026-04-07T13:09:20.999Z</time></trkpt><trkpt lat="45.614138162329674" lon="11.108211063855402"><ele>975.5</ele><time>2026-04-07T13:09:21.999Z</time></trkpt><trkpt lat="45.61402742516937" lon="11.108239196445583"><ele>979.25</ele><time>2026-04-07T13:09:22.999Z</time></trkpt><trkpt lat="45.61391420420364" lon="11.108228818399956"><ele>983.0</ele><time>2026-04-07T13:09:23.999Z</time></trkpt><trkpt lat="45.61377826119861" lon="11.10818273645087"><ele>983.6666666666667</ele><time>2026-04-07T13:09:24.999Z</time></trkpt><trkpt lat="45.61362828309909" lon="11.108105451773374"><ele>984.3333333333333</ele><time>2026-04-07T13:09:25.999Z</time></trkpt><trkpt lat="45.613457657917" lon="11.108025475954511"><ele>985.0</ele><time>2026-04-07T13:09:26.998Z</time></trkpt><trkpt lat="45.613291884818885" lon="11.107949514685428"><ele>985.0</ele><time>2026-04-07T13:09:27.998Z</time></trkpt><trkpt lat="45.61313646795" lon="11.107878744938402"><ele>985.0</ele><time>2026-04-07T13:09:28.998Z</time></trkpt><trkpt lat="45.61299568720556" lon="11.107814004594815"><ele>985.0</ele><time>2026-04-07T13:09:29.998Z</time></trkpt><trkpt lat="45.612857614903625" lon="11.107748100923546"><ele>984.3333333333333</ele><time>2026-04-07T13:09:30.998Z</time></trkpt><trkpt lat="45.612715451748876" lon="11.107671434749838"><ele>983.6666666666667</ele><time>2026-04-07T13:09:31.998Z</time></trkpt><trkpt lat="45.6125630390618" lon="11.10753037250111"><ele>983.0</ele><time>2026-04-07T13:09:32.998Z</time></trkpt><trkpt lat="45.612379330517165" lon="11.107392244266562"><ele>991.6666666666667</ele><time>2026-04-07T13:09:33.998Z</time></trkpt><trkpt lat="45.61217460965343" lon="11.107293058194545"><ele>1000.3333333333333</ele><time>2026-04-07T13:09:34.998Z</time></trkpt><trkpt lat="45.61196292341751" lon="11.10727110145463"><ele>1009.0</ele><time>2026-04-07T13:09:35.998Z</time></trkpt><trkpt lat="45.61178418734054" lon="11.107215499710254"><ele>1009.0</ele><time>2026-04-07T13:09:36.998Z</time></trkpt><trkpt lat="45.61163102393532" lon="11.10718683618295"><ele>1009.0</ele><time>2026-04-07T13:09:37.998Z</time></trkpt><trkpt lat="45.611507378579965" lon="11.10718250881089"><ele>1009.0</ele><time>2026-04-07T13:09:38.998Z</time></trkpt><trkpt lat="45.6113795744944" lon="11.107230029220771"><ele>1009.0</ele><time>2026-04-07T13:09:39.998Z</time></trkpt><trkpt lat="45.61128175059585" lon="11.107408385390265"><ele>1007.5</ele><time>2026-04-07T13:09:40.998Z</time></trkpt><trkpt lat="45.61117625722156" lon="11.10752013449203"><ele>1006.0</ele><time>2026-04-07T13:09:41.998Z</time></trkpt><trkpt lat="45.6110664854764" lon="11.107579008509859"><ele>1004.5</ele><time>2026-04-07T13:09:42.998Z</time></trkpt><trkpt lat="45.61093471221174" lon="11.10760310618602"><ele>1003.0</ele><time>2026-04-07T13:09:43.998Z</time></trkpt><trkpt lat="45.610780848165334" lon="11.107608749711291"><ele>1003.0</ele><time>2026-04-07T13:09:44.998Z</time></trkpt><trkpt lat="45.61060552363131" lon="11.107636732037617"><ele>1003.0</ele><time>2026-04-07T13:09:45.998Z</time></trkpt><trkpt lat="45.610453763747984" lon="11.107755193360761"><ele>1003.0</ele><time>2026-04-07T13:09:46.998Z</time></trkpt><trkpt lat="45.61033910589133" lon="11.107889848320866"><ele>1005.2</ele><time>2026-04-07T13:09:47.998Z</time></trkpt><trkpt lat="45.61023514552519" lon="11.107987004878057"><ele>1007.4</ele><time>2026-04-07T13:09:48.998Z</time></trkpt><trkpt lat="45.61013869155081" lon="11.108024203406409"><ele>1009.6000000000001</ele><time>2026-04-07T13:09:49.998Z</time></trkpt><trkpt lat="45.61004108742925" lon="11.108019187308736"><ele>1011.8000000000001</ele><time>2026-04-07T13:09:50.998Z</time></trkpt><trkpt lat="45.60992668659373" lon="11.10793893286835"><ele>1014.0</ele><time>2026-04-07T13:09:51.998Z</time></trkpt><trkpt lat="45.609779084128235" lon="11.107857981062628"><ele>1014.0</ele><time>2026-04-07T13:09:52.998Z</time></trkpt><trkpt lat="45.60962431189951" lon="11.107778915515839"><ele>1014.0</ele><time>2026-04-07T13:09:53.998Z</time></trkpt><trkpt lat="45.60946950046331" lon="11.107702422166707"><ele>1014.0</ele><time>2026-04-07T13:09:54.998Z</time></trkpt><trkpt lat="45.60932540401566" lon="11.107636398158528"><ele>1013.75</ele><time>2026-04-07T13:09:55.998Z</time></trkpt><trkpt lat="45.609198350580606" lon="11.107577597164635"><ele>1013.5</ele><time>2026-04-07T13:09:56.998Z</time></trkpt><trkpt lat="45.609091246777155" lon="11.107525180564224"><ele>1013.25</ele><time>2026-04-07T13:09:57.998Z</time></trkpt><trkpt lat="45.60899644435265" lon="11.10745515123471"><ele>1013.0</ele><time>2026-04-07T13:09:58.998Z</time></trkpt><trkpt lat="45.60891659094034" lon="11.107326002560043"><ele>1014.8</ele><time>2026-04-07T13:10:00Z</time></trkpt><trkpt lat="45.60885041128365" lon="11.10718753511665"><ele>1016.5999999999999</ele><time>2026-04-07T13:10:01Z</time></trkpt><trkpt lat="45.60880158898166" lon="11.107065666732796"><ele>1018.4000000000001</ele><time>2026-04-07T13:10:02Z</time></trkpt><trkpt lat="45.60877452744395" lon="11.106941615928951"><ele>1020.2</ele><time>2026-04-07T13:10:03Z</time></trkpt><trkpt lat="45.60878189498366" lon="11.106795998725623"><ele>1022.0</ele><time>2026-04-07T13:10:04Z</time></trkpt><trkpt lat="45.60882729344879" lon="11.106650347818592"><ele>1022.25</ele><time>2026-04-07T13:10:05Z</time></trkpt><trkpt lat="45.60889196964823" lon="11.10652367327539"><ele>1022.5</ele><time>2026-04-07T13:10:06Z</time></trkpt><trkpt lat="45.60899147598188" lon="11.106429986732282"><ele>1022.75</ele><time>2026-04-07T13:10:07Z</time></trkpt><trkpt lat="45.60911114079496" lon="11.106348223523593"><ele>1023.0</ele><time>2026-04-07T13:10:08Z</time></trkpt><trkpt lat="45.609210391868295" lon="11.106238331282032"><ele>1023.0</ele><time>2026-04-07T13:10:09Z</time></trkpt><trkpt lat="45.60926509381479" lon="11.106112756219245"><ele>1023.0</ele><time>2026-04-07T13:10:10Z</time></trkpt><trkpt lat="45.609267515177685" lon="11.105968682097886"><ele>1023.0</ele><time>2026-04-07T13:10:11Z</time></trkpt><trkpt lat="45.60923750065271" lon="11.105830107407671"><ele>1023.0</ele><time>2026-04-07T13:10:12Z</time></trkpt><trkpt lat="45.60916152335062" lon="11.105722412824473"><ele>1023.0</ele><time>2026-04-07T13:10:13Z</time></trkpt><trkpt lat="45.60909377057159" lon="11.105642795289846"><ele>1023.0</ele><time>2026-04-07T13:10:14Z</time></trkpt><trkpt lat="45.60909884090607" lon="11.105521808756178"><ele>1023.0</ele><time>2026-04-07T13:10:16Z</time></trkpt><trkpt lat="45.609224189111856" lon="11.10556289091053"><ele>1023.0</ele><time>2026-04-07T13:10:18Z</time></trkpt><trkpt lat="45.60924990430809" lon="11.105704663365762"><ele>1023.0</ele><time>2026-04-07T13:10:19Z</time></trkpt><trkpt lat="45.609316685584034" lon="11.105841049747925"><ele>1023.0</ele><time>2026-04-07T13:10:20Z</time></trkpt><trkpt lat="45.60938962864247" lon="11.105982195936281"><ele>1023.0</ele><time>2026-04-07T13:10:21Z</time></trkpt><trkpt lat="45.60948038263006" lon="11.106126694239107"><ele>1023.0</ele><time>2026-04-07T13:10:22Z</time></trkpt><trkpt lat="45.6095340733547" lon="11.106251207934054"><ele>1023.0</ele><time>2026-04-07T13:10:23Z</time></trkpt><trkpt lat="45.60958554223802" lon="11.106322235498995"><ele>1023.0</ele><time>2026-04-07T13:10:24Z</time></trkpt><trkpt lat="45.60969094730887" lon="11.10631200390975"><ele>1023.0</ele><time>2026-04-07T13:10:26Z</time></trkpt><trkpt lat="45.60971010909383" lon="11.106203302967684"><ele>1025.25</ele><time>2026-04-07T13:10:27Z</time></trkpt><trkpt lat="45.60967634785277" lon="11.106098398649952"><ele>1027.5</ele><time>2026-04-07T13:10:28Z</time></trkpt><trkpt lat="45.609601071230784" lon="11.105994123422633"><ele>1029.75</ele><time>2026-04-07T13:10:29Z</time></trkpt><trkpt lat="45.60950195576123" lon="11.105880183967903"><ele>1032.0</ele><time>2026-04-07T13:10:30Z</time></trkpt><trkpt lat="45.6094431029677" lon="11.105695753602697"><ele>1032.0</ele><time>2026-04-07T13:10:31Z</time></trkpt><trkpt lat="45.60938059220823" lon="11.105472362298787"><ele>1032.0</ele><time>2026-04-07T13:10:32Z</time></trkpt><trkpt lat="45.609320651131114" lon="11.105228270898428"><ele>1032.0</ele><time>2026-04-07T13:10:33Z</time></trkpt><trkpt lat="45.60927956249988" lon="11.104971346921195"><ele>1035.75</ele><time>2026-04-07T13:10:34Z</time></trkpt><trkpt lat="45.609245012525236" lon="11.10471773765766"><ele>1039.5</ele><time>2026-04-07T13:10:35Z</time></trkpt><trkpt lat="45.60922208828932" lon="11.104518942576775"><ele>1043.25</ele><time>2026-04-07T13:10:36Z</time></trkpt><trkpt lat="45.60917895172964" lon="11.104367413788859"><ele>1047.0</ele><time>2026-04-07T13:10:37Z</time></trkpt><trkpt lat="45.609124651805445" lon="11.104240341586728"><ele>1047.0</ele><time>2026-04-07T13:10:38Z</time></trkpt><trkpt lat="45.60903469636" lon="11.104135863997545"><ele>1047.0</ele><time>2026-04-07T13:10:39Z</time></trkpt><trkpt lat="45.60893544619994" lon="11.104012395321979"><ele>1047.0</ele><time>2026-04-07T13:10:40Z</time></trkpt><trkpt lat="45.60885599902426" lon="11.103857026128862"><ele>1047.0</ele><time>2026-04-07T13:10:41Z</time></trkpt><trkpt lat="45.608781416167204" lon="11.10372493417912"><ele>1049.8</ele><time>2026-04-07T13:10:42Z</time></trkpt><trkpt lat="45.608758372303484" lon="11.103570518030573"><ele>1052.6</ele><time>2026-04-07T13:10:43Z</time></trkpt><trkpt lat="45.608746163512286" lon="11.10344479709361"><ele>1055.3999999999999</ele><time>2026-04-07T13:10:43.999Z</time></trkpt><trkpt lat="45.608770594539656" lon="11.103303402453562"><ele>1058.2</ele><time>2026-04-07T13:10:44.999Z</time></trkpt><trkpt lat="45.608811548874336" lon="11.10313680034528"><ele>1061.0</ele><time>2026-04-07T13:10:45.999Z</time></trkpt><trkpt lat="45.608862032815665" lon="11.102952997204225"><ele>1062.75</ele><time>2026-04-07T13:10:46.999Z</time></trkpt><trkpt lat="45.60890175131263" lon="11.102744417251264"><ele>1064.5</ele><time>2026-04-07T13:10:47.999Z</time></trkpt><trkpt lat="45.608908607802945" lon="11.102550760297422"><ele>1066.25</ele><time>2026-04-07T13:10:48.999Z</time></trkpt><trkpt lat="45.608883658501476" lon="11.102362282183348"><ele>1068.0</ele><time>2026-04-07T13:10:49.999Z</time></trkpt><trkpt lat="45.60883760476319" lon="11.102170808648562"><ele>1067.0</ele><time>2026-04-07T13:10:50.999Z</time></trkpt><trkpt lat="45.60877473339601" lon="11.101937629924157"><ele>1066.0</ele><time>2026-04-07T13:10:51.999Z</time></trkpt><trkpt lat="45.608710171575616" lon="11.101693023971363"><ele>1065.0</ele><time>2026-04-07T13:10:52.999Z</time></trkpt><trkpt lat="45.60863939787649" lon="11.101446525983517"><ele>1065.0</ele><time>2026-04-07T13:10:53.999Z</time></trkpt><trkpt lat="45.608560554627246" lon="11.101245854479323"><ele>1065.0</ele><time>2026-04-07T13:10:54.999Z</time></trkpt><trkpt lat="45.60846739683277" lon="11.101060316443414"><ele>1065.0</ele><time>2026-04-07T13:10:55.999Z</time></trkpt><trkpt lat="45.60837339167929" lon="11.100896379412088"><ele>1069.75</ele><time>2026-04-07T13:10:56.999Z</time></trkpt><trkpt lat="45.60826793360177" lon="11.100746208259425"><ele>1074.5</ele><time>2026-04-07T13:10:57.999Z</time></trkpt><trkpt lat="45.60818969906406" lon="11.100596980731295"><ele>1079.25</ele><time>2026-04-07T13:10:58.999Z</time></trkpt><trkpt lat="45.60811257302552" lon="11.100467064354516"><ele>1084.0</ele><time>2026-04-07T13:10:59.999Z</time></trkpt><trkpt lat="45.608060058571695" lon="11.100340616673142"><ele>1084.0</ele><time>2026-04-07T13:11:00.999Z</time></trkpt><trkpt lat="45.608012434747806" lon="11.100171271753869"><ele>1084.0</ele><time>2026-04-07T13:11:01.999Z</time></trkpt><trkpt lat="45.607949334886264" lon="11.099978387109038"><ele>1084.0</ele><time>2026-04-07T13:11:02.999Z</time></trkpt><trkpt lat="45.60789000169427" lon="11.099762836369052"><ele>1084.0</ele><time>2026-04-07T13:11:03.999Z</time></trkpt><trkpt lat="45.607834266083955" lon="11.09954981821841"><ele>1080.75</ele><time>2026-04-07T13:11:04.999Z</time></trkpt><trkpt lat="45.607809343562565" lon="11.09936279718788"><ele>1077.5</ele><time>2026-04-07T13:11:05.999Z</time></trkpt><trkpt lat="45.60780262028635" lon="11.099157095633133"><ele>1074.25</ele><time>2026-04-07T13:11:06.999Z</time></trkpt><trkpt lat="45.60780847036037" lon="11.098946083905735"><ele>1071.0</ele><time>2026-04-07T13:11:07.999Z</time></trkpt><trkpt lat="45.6078103763636" lon="11.098722857213104"><ele>1071.0</ele><time>2026-04-07T13:11:08.999Z</time></trkpt><trkpt lat="45.60779338274819" lon="11.098484643526538"><ele>1071.0</ele><time>2026-04-07T13:11:09.999Z</time></trkpt><trkpt lat="45.60775417512477" lon="11.098225315751751"><ele>1071.0</ele><time>2026-04-07T13:11:10.999Z</time></trkpt><trkpt lat="45.60770222616133" lon="11.097979495180981"><ele>1073.6666666666667</ele><time>2026-04-07T13:11:11.999Z</time></trkpt><trkpt lat="45.60763307530285" lon="11.097731443816922"><ele>1076.3333333333335</ele><time>2026-04-07T13:11:12.999Z</time></trkpt><trkpt lat="45.60755466386696" lon="11.097499961337686"><ele>1079.0</ele><time>2026-04-07T13:11:13.999Z</time></trkpt><trkpt lat="45.607474808263355" lon="11.097299754450393"><ele>1080.5</ele><time>2026-04-07T13:11:14.999Z</time></trkpt><trkpt lat="45.6073945481124" lon="11.097136898402344"><ele>1082.0</ele><time>2026-04-07T13:11:15.999Z</time></trkpt><trkpt lat="45.60729639841995" lon="11.097002538972204"><ele>1083.5</ele><time>2026-04-07T13:11:16.999Z</time></trkpt><trkpt lat="45.60717186786169" lon="11.096883038609889"><ele>1085.0</ele><time>2026-04-07T13:11:17.999Z</time></trkpt><trkpt lat="45.607049365573495" lon="11.09674719159009"><ele>1084.2</ele><time>2026-04-07T13:11:18.999Z</time></trkpt><trkpt lat="45.60693444216766" lon="11.096637124333876"><ele>1083.4</ele><time>2026-04-07T13:11:19.999Z</time></trkpt><trkpt lat="45.606840755442136" lon="11.09654583648798"><ele>1082.6</ele><time>2026-04-07T13:11:20.999Z</time></trkpt><trkpt lat="45.60676151196684" lon="11.096473119768488"><ele>1081.8</ele><time>2026-04-07T13:11:21.999Z</time></trkpt><trkpt lat="45.606701130623115" lon="11.0964474890527"><ele>1081.0</ele><time>2026-04-07T13:11:22.999Z</time></trkpt><trkpt lat="45.60665700857811" lon="11.096341131429524"><ele>1080.8</ele><time>2026-04-07T13:11:24.999Z</time></trkpt><trkpt lat="45.60667649079796" lon="11.096183999559797"><ele>1080.6</ele><time>2026-04-07T13:11:26.999Z</time></trkpt><trkpt lat="45.606693289959296" lon="11.096048476700993"><ele>1080.4</ele><time>2026-04-07T13:11:28.999Z</time></trkpt><trkpt lat="45.606786045810125" lon="11.095973781445245"><ele>1080.2</ele><time>2026-04-07T13:11:29.999Z</time></trkpt><trkpt lat="45.60687782100176" lon="11.095890231192804"><ele>1080.0</ele><time>2026-04-07T13:11:30.999Z</time></trkpt><trkpt lat="45.606982095717626" lon="11.095779593199781"><ele>1076.0</ele><time>2026-04-07T13:11:31.999Z</time></trkpt><trkpt lat="45.607072618521464" lon="11.095666412725617"><ele>1072.0</ele><time>2026-04-07T13:11:32.999Z</time></trkpt><trkpt lat="45.607163209182346" lon="11.09557762224348"><ele>1068.0</ele><time>2026-04-07T13:11:33.999Z</time></trkpt><trkpt lat="45.60727032985986" lon="11.095522461603556"><ele>1064.0</ele><time>2026-04-07T13:11:34.998Z</time></trkpt><trkpt lat="45.60739012733601" lon="11.095505321007277"><ele>1064.0</ele><time>2026-04-07T13:11:35.998Z</time></trkpt><trkpt lat="45.60752738911125" lon="11.095531460332817"><ele>1064.0</ele><time>2026-04-07T13:11:36.998Z</time></trkpt><trkpt lat="45.60767772034875" lon="11.095592533402664"><ele>1064.0</ele><time>2026-04-07T13:11:37.998Z</time></trkpt><trkpt lat="45.60781462135756" lon="11.095676470559596"><ele>1064.0</ele><time>2026-04-07T13:11:38.998Z</time></trkpt><trkpt lat="45.60793934767993" lon="11.095774148870342"><ele>1064.5</ele><time>2026-04-07T13:11:39.998Z</time></trkpt><trkpt lat="45.608063522522734" lon="11.095840197810555"><ele>1065.0</ele><time>2026-04-07T13:11:40.998Z</time></trkpt><trkpt lat="45.60818596218323" lon="11.095850627498326"><ele>1065.5</ele><time>2026-04-07T13:11:41.998Z</time></trkpt><trkpt lat="45.60831160343461" lon="11.09580002631262"><ele>1066.0</ele><time>2026-04-07T13:11:42.998Z</time></trkpt><trkpt lat="45.608440127531594" lon="11.095706325795467"><ele>1066.0</ele><time>2026-04-07T13:11:43.998Z</time></trkpt><trkpt lat="45.608551098388205" lon="11.09557428724234"><ele>1066.0</ele><time>2026-04-07T13:11:44.998Z</time></trkpt><trkpt lat="45.60865885938033" lon="11.09541633394401"><ele>1066.0</ele><time>2026-04-07T13:11:45.998Z</time></trkpt><trkpt lat="45.60876967977678" lon="11.095248492786876"><ele>1070.3333333333333</ele><time>2026-04-07T13:11:46.998Z</time></trkpt><trkpt lat="45.60889725434683" lon="11.095112726584224"><ele>1074.6666666666667</ele><time>2026-04-07T13:11:47.998Z</time></trkpt><trkpt lat="45.609043907344706" lon="11.095009063296171"><ele>1079.0</ele><time>2026-04-07T13:11:48.998Z</time></trkpt><trkpt lat="45.6092056099435" lon="11.094947630499462"><ele>1080.6666666666667</ele><time>2026-04-07T13:11:49.998Z</time></trkpt><trkpt lat="45.609392027514275" lon="11.09490732832375"><ele>1082.3333333333333</ele><time>2026-04-07T13:11:50.998Z</time></trkpt><trkpt lat="45.60958837713657" lon="11.09486829855902"><ele>1084.0</ele><time>2026-04-07T13:11:51.998Z</time></trkpt><trkpt lat="45.60977931493477" lon="11.09482890769011"><ele>1085.3333333333333</ele><time>2026-04-07T13:11:52.998Z</time></trkpt><trkpt lat="45.60997396001143" lon="11.094773254363714"><ele>1086.6666666666667</ele><time>2026-04-07T13:11:53.998Z</time></trkpt><trkpt lat="45.610146237600986" lon="11.094742553773454"><ele>1088.0</ele><time>2026-04-07T13:11:54.998Z</time></trkpt><trkpt lat="45.610303219297265" lon="11.094733031653035"><ele>1086.3333333333335</ele><time>2026-04-07T13:11:55.998Z</time></trkpt><trkpt lat="45.61045204492445" lon="11.094751934096015"><ele>1084.6666666666667</ele><time>2026-04-07T13:11:56.998Z</time></trkpt><trkpt lat="45.61059987987267" lon="11.094815474487037"><ele>1083.0</ele><time>2026-04-07T13:11:57.998Z</time></trkpt><trkpt lat="45.61074322454522" lon="11.094906658144845"><ele>1085.0</ele><time>2026-04-07T13:11:58.998Z</time></trkpt><trkpt lat="45.61086804731573" lon="11.094985434293228"><ele>1087.0</ele><time>2026-04-07T13:11:59.998Z</time></trkpt><trkpt lat="45.61097987240542" lon="11.09500658784719"><ele>1089.0</ele><time>2026-04-07T13:12:00.998Z</time></trkpt><trkpt lat="45.61109495838347" lon="11.094960935792589"><ele>1091.0</ele><time>2026-04-07T13:12:01.998Z</time></trkpt><trkpt lat="45.61120555424151" lon="11.094854571952261"><ele>1091.0</ele><time>2026-04-07T13:12:02.998Z</time></trkpt><trkpt lat="45.61130473642026" lon="11.094707074814568"><ele>1091.0</ele><time>2026-04-07T13:12:03.998Z</time></trkpt><trkpt lat="45.61138933005522" lon="11.094514413704367"><ele>1091.0</ele><time>2026-04-07T13:12:04.998Z</time></trkpt><trkpt lat="45.611467144171996" lon="11.094322923798023"><ele>1091.0</ele><time>2026-04-07T13:12:06Z</time></trkpt><trkpt lat="45.61154966553853" lon="11.094156895911102"><ele>1091.0</ele><time>2026-04-07T13:12:07Z</time></trkpt><trkpt lat="45.611636138272516" lon="11.0940509103809"><ele>1091.0</ele><time>2026-04-07T13:12:08Z</time></trkpt><trkpt lat="45.611737536523776" lon="11.094017805257838"><ele>1091.0</ele><time>2026-04-07T13:12:09Z</time></trkpt><trkpt lat="45.611843567963305" lon="11.09402584153058"><ele>1091.3999999999999</ele><time>2026-04-07T13:12:10Z</time></trkpt><trkpt lat="45.6119379662629" lon="11.094064110237225"><ele>1091.8</ele><time>2026-04-07T13:12:11Z</time></trkpt><trkpt lat="45.61201127648367" lon="11.09412073035293"><ele>1092.1999999999998</ele><time>2026-04-07T13:12:12Z</time></trkpt><trkpt lat="45.61207602603354" lon="11.094197525268749"><ele>1092.6</ele><time>2026-04-07T13:12:13Z</time></trkpt><trkpt lat="45.61214239744005" lon="11.09429806264943"><ele>1093.0</ele><time>2026-04-07T13:12:14Z</time></trkpt><trkpt lat="45.612197018764604" lon="11.09440617441376"><ele>1093.0</ele><time>2026-04-07T13:12:15Z</time></trkpt><trkpt lat="45.612255691540575" lon="11.094494783105729"><ele>1093.0</ele><time>2026-04-07T13:12:16Z</time></trkpt><trkpt lat="45.612330725333706" lon="11.094542440110954"><ele>1093.0</ele><time>2026-04-07T13:12:17Z</time></trkpt><trkpt lat="45.61243203406859" lon="11.09455916511123"><ele>1093.0</ele><time>2026-04-07T13:12:18Z</time></trkpt><trkpt lat="45.612533045941575" lon="11.094539159085198"><ele>1093.0</ele><time>2026-04-07T13:12:19Z</time></trkpt><trkpt lat="45.61262937689751" lon="11.09451661774221"><ele>1093.0</ele><time>2026-04-07T13:12:20Z</time></trkpt><trkpt lat="45.612713646324416" lon="11.0945148894345"><ele>1093.0</ele><time>2026-04-07T13:12:21Z</time></trkpt><trkpt lat="45.61280152342667" lon="11.09450231694213"><ele>1093.0</ele><time>2026-04-07T13:12:22Z</time></trkpt><trkpt lat="45.612893454294706" lon="11.094476188005286"><ele>1093.0</ele><time>2026-04-07T13:12:23Z</time></trkpt><trkpt lat="45.61298938621106" lon="11.09442809292423"><ele>1093.0</ele><time>2026-04-07T13:12:24Z</time></trkpt><trkpt lat="45.613075636958904" lon="11.094363731702689"><ele>1094.2</ele><time>2026-04-07T13:12:25Z</time></trkpt><trkpt lat="45.61315245718815" lon="11.094304352117422"><ele>1095.4</ele><time>2026-04-07T13:12:26Z</time></trkpt><trkpt lat="45.613240377122686" lon="11.094258280827594"><ele>1096.6000000000001</ele><time>2026-04-07T13:12:27Z</time></trkpt><trkpt lat="45.613338675810574" lon="11.094228163490463"><ele>1097.8</ele><time>2026-04-07T13:12:28Z</time></trkpt><trkpt lat="45.61343677518341" lon="11.094215660920892"><ele>1099.0</ele><time>2026-04-07T13:12:29Z</time></trkpt><trkpt lat="45.61353982914945" lon="11.094224698150638"><ele>1099.0</ele><time>2026-04-07T13:12:30Z</time></trkpt><trkpt lat="45.61365095086728" lon="11.09427403706622"><ele>1099.0</ele><time>2026-04-07T13:12:31Z</time></trkpt><trkpt lat="45.6137741264697" lon="11.094320722365806"><ele>1099.0</ele><time>2026-04-07T13:12:32Z</time></trkpt><trkpt lat="45.613904612953505" lon="11.09437036294959"><ele>1099.0</ele><time>2026-04-07T13:12:33Z</time></trkpt><trkpt lat="45.61407842133525" lon="11.094431563488877"><ele>1099.0</ele><time>2026-04-07T13:12:34Z</time></trkpt><trkpt lat="45.61423109544476" lon="11.094475683359727"><ele>1099.0</ele><time>2026-04-07T13:12:35Z</time></trkpt><trkpt lat="45.614384213433866" lon="11.094488872706266"><ele>1099.0</ele><time>2026-04-07T13:12:36Z</time></trkpt><trkpt lat="45.61455972198072" lon="11.094492656469997"><ele>1099.6666666666665</ele><time>2026-04-07T13:12:37Z</time></trkpt><trkpt lat="45.61475741717445" lon="11.094491007479736"><ele>1100.3333333333333</ele><time>2026-04-07T13:12:38Z</time></trkpt><trkpt lat="45.614972347095254" lon="11.094469349892817"><ele>1101.0</ele><time>2026-04-07T13:12:39Z</time></trkpt><trkpt lat="45.61522075675251" lon="11.09446024856421"><ele>1099.6666666666667</ele><time>2026-04-07T13:12:40Z</time></trkpt><trkpt lat="45.61544716913406" lon="11.09445170217097"><ele>1098.3333333333335</ele><time>2026-04-07T13:12:41Z</time></trkpt><trkpt lat="45.61566945129586" lon="11.094431810209395"><ele>1097.0</ele><time>2026-04-07T13:12:42Z</time></trkpt><trkpt lat="45.615895910774285" lon="11.094387942423975"><ele>1097.0</ele><time>2026-04-07T13:12:43Z</time></trkpt><trkpt lat="45.61611102121291" lon="11.094340427230698"><ele>1097.0</ele><time>2026-04-07T13:12:44Z</time></trkpt><trkpt lat="45.61632615501487" lon="11.09428484100238"><ele>1097.0</ele><time>2026-04-07T13:12:45Z</time></trkpt><trkpt lat="45.616515245150694" lon="11.094229090806653"><ele>1099.3333333333335</ele><time>2026-04-07T13:12:46Z</time></trkpt><trkpt lat="45.61668657092114" lon="11.094183865700183"><ele>1101.6666666666667</ele><time>2026-04-07T13:12:47Z</time></trkpt><trkpt lat="45.616836275534205" lon="11.09414619679126"><ele>1104.0</ele><time>2026-04-07T13:12:48Z</time></trkpt><trkpt lat="45.61696278946898" lon="11.094105504078499"><ele>1108.75</ele><time>2026-04-07T13:12:49Z</time></trkpt><trkpt lat="45.61707305610708" lon="11.094021327669186"><ele>1113.5</ele><time>2026-04-07T13:12:50Z</time></trkpt><trkpt lat="45.617167211393486" lon="11.093886348607985"><ele>1118.25</ele><time>2026-04-07T13:12:50.999Z</time></trkpt><trkpt lat="45.617233961049486" lon="11.093699927600772"><ele>1123.0</ele><time>2026-04-07T13:12:51.999Z</time></trkpt><trkpt lat="45.61727986894636" lon="11.093477278444093"><ele>1122.6666666666665</ele><time>2026-04-07T13:12:52.999Z</time></trkpt><trkpt lat="45.61731796437198" lon="11.093234485956764"><ele>1122.3333333333333</ele><time>2026-04-07T13:12:53.999Z</time></trkpt><trkpt lat="45.617369151683846" lon="11.093003137788337"><ele>1122.0</ele><time>2026-04-07T13:12:54.999Z</time></trkpt><trkpt lat="45.61742895237997" lon="11.092792900543591"><ele>1122.0</ele><time>2026-04-07T13:12:55.999Z</time></trkpt><trkpt lat="45.617521753004546" lon="11.092624603520752"><ele>1122.0</ele><time>2026-04-07T13:12:56.999Z</time></trkpt><trkpt lat="45.617644780349025" lon="11.092458983835021"><ele>1122.0</ele><time>2026-04-07T13:12:57.999Z</time></trkpt><trkpt lat="45.61777270567642" lon="11.092278713365221"><ele>1127.0</ele><time>2026-04-07T13:12:58.999Z</time></trkpt><trkpt lat="45.61790561880496" lon="11.092104319051309"><ele>1132.0</ele><time>2026-04-07T13:12:59.999Z</time></trkpt><trkpt lat="45.61801733721858" lon="11.091891488086913"><ele>1137.0</ele><time>2026-04-07T13:13:00.999Z</time></trkpt><trkpt lat="45.61813090332942" lon="11.091646432226325"><ele>1132.6666666666667</ele><time>2026-04-07T13:13:01.999Z</time></trkpt><trkpt lat="45.61823606896688" lon="11.091402746666471"><ele>1128.3333333333335</ele><time>2026-04-07T13:13:02.999Z</time></trkpt><trkpt lat="45.618341333924" lon="11.09118011810116"><ele>1124.0</ele><time>2026-04-07T13:13:03.999Z</time></trkpt><trkpt lat="45.618425379355855" lon="11.090997924694685"><ele>1124.0</ele><time>2026-04-07T13:13:04.999Z</time></trkpt><trkpt lat="45.61851328602735" lon="11.090849142584226"><ele>1124.0</ele><time>2026-04-07T13:13:05.999Z</time></trkpt><trkpt lat="45.61861069737881" lon="11.090736493713408"><ele>1124.0</ele><time>2026-04-07T13:13:06.999Z</time></trkpt><trkpt lat="45.61873430012518" lon="11.090645289399504"><ele>1124.0</ele><time>2026-04-07T13:13:07.999Z</time></trkpt><trkpt lat="45.61886579161437" lon="11.090584093498975"><ele>1128.0</ele><time>2026-04-07T13:13:08.999Z</time></trkpt><trkpt lat="45.61897183406327" lon="11.09049787103917"><ele>1132.0</ele><time>2026-04-07T13:13:09.999Z</time></trkpt><trkpt lat="45.619038568090296" lon="11.090381340560109"><ele>1136.0</ele><time>2026-04-07T13:13:10.999Z</time></trkpt><trkpt lat="45.6190788371452" lon="11.090232084903864"><ele>1140.0</ele><time>2026-04-07T13:13:11.999Z</time></trkpt><trkpt lat="45.61907732492938" lon="11.09009016155902"><ele>1144.0</ele><time>2026-04-07T13:13:12.999Z</time></trkpt><trkpt lat="45.61902534672273" lon="11.08994955894567"><ele>1143.4</ele><time>2026-04-07T13:13:13.999Z</time></trkpt><trkpt lat="45.618944436536246" lon="11.089797224971"><ele>1142.8000000000002</ele><time>2026-04-07T13:13:14.999Z</time></trkpt><trkpt lat="45.61887101583069" lon="11.089644321484716"><ele>1142.1999999999998</ele><time>2026-04-07T13:13:15.999Z</time></trkpt><trkpt lat="45.61883118732227" lon="11.089514886086821"><ele>1141.6</ele><time>2026-04-07T13:13:16.999Z</time></trkpt><trkpt lat="45.618838445233656" lon="11.089394448967997"><ele>1141.0</ele><time>2026-04-07T13:13:17.999Z</time></trkpt><trkpt lat="45.61888318449929" lon="11.089268670099724"><ele>1141.0</ele><time>2026-04-07T13:13:18.999Z</time></trkpt><trkpt lat="45.61896483916876" lon="11.089134628926947"><ele>1141.0</ele><time>2026-04-07T13:13:19.999Z</time></trkpt><trkpt lat="45.61908353794006" lon="11.089000583154208"><ele>1141.0</ele><time>2026-04-07T13:13:20.999Z</time></trkpt><trkpt lat="45.61922151475652" lon="11.088865789456973"><ele>1141.0</ele><time>2026-04-07T13:13:21.999Z</time></trkpt><trkpt lat="45.61937238791772" lon="11.088719482809632"><ele>1144.6666666666665</ele><time>2026-04-07T13:13:22.999Z</time></trkpt><trkpt lat="45.619508917152906" lon="11.08856217903395"><ele>1148.3333333333333</ele><time>2026-04-07T13:13:23.999Z</time></trkpt><trkpt lat="45.61963576642347" lon="11.088430879831922"><ele>1152.0</ele><time>2026-04-07T13:13:24.999Z</time></trkpt><trkpt lat="45.6197678604713" lon="11.0883564818077"><ele>1152.0</ele><time>2026-04-07T13:13:25.999Z</time></trkpt><trkpt lat="45.61990333124458" lon="11.088330785483302"><ele>1152.0</ele><time>2026-04-07T13:13:26.999Z</time></trkpt><trkpt lat="45.62004495349742" lon="11.08835976748847"><ele>1152.0</ele><time>2026-04-07T13:13:27.999Z</time></trkpt><trkpt lat="45.62017910180136" lon="11.088474822913488"><ele>1152.0</ele><time>2026-04-07T13:13:28.999Z</time></trkpt><trkpt lat="45.620344029952825" lon="11.088564098542072"><ele>1161.0</ele><time>2026-04-07T13:13:29.999Z</time></trkpt><trkpt lat="45.62050865106215" lon="11.08869435328358"><ele>1170.0</ele><time>2026-04-07T13:13:30.999Z</time></trkpt><trkpt lat="45.620689281226824" lon="11.08882311852546"><ele>1179.0</ele><time>2026-04-07T13:13:31.999Z</time></trkpt><trkpt lat="45.62087497132236" lon="11.088951639057028"><ele>1179.0</ele><time>2026-04-07T13:13:32.999Z</time></trkpt><trkpt lat="45.62105988111786" lon="11.089086306611902"><ele>1179.0</ele><time>2026-04-07T13:13:33.999Z</time></trkpt><trkpt lat="45.62124816948804" lon="11.089194986474661"><ele>1179.0</ele><time>2026-04-07T13:13:34.999Z</time></trkpt><trkpt lat="45.62143059175223" lon="11.089273941072758"><ele>1180.6666666666667</ele><time>2026-04-07T13:13:35.999Z</time></trkpt><trkpt lat="45.62161131346778" lon="11.089315593093191"><ele>1182.3333333333335</ele><time>2026-04-07T13:13:36.999Z</time></trkpt><trkpt lat="45.62177161369589" lon="11.089331456139982"><ele>1184.0</ele><time>2026-04-07T13:13:37.999Z</time></trkpt><trkpt lat="45.621931104168006" lon="11.089326237125892"><ele>1183.6666666666667</ele><time>2026-04-07T13:13:38.999Z</time></trkpt><trkpt lat="45.62209135133545" lon="11.089326899049428"><ele>1183.3333333333333</ele><time>2026-04-07T13:13:39.998Z</time></trkpt><trkpt lat="45.622275046337705" lon="11.089330570706522"><ele>1183.0</ele><time>2026-04-07T13:13:40.998Z</time></trkpt><trkpt lat="45.622480632865404" lon="11.089324928758042"><ele>1183.0</ele><time>2026-04-07T13:13:41.998Z</time></trkpt><trkpt lat="45.62268691203682" lon="11.089323631181548"><ele>1183.0</ele><time>2026-04-07T13:13:42.998Z</time></trkpt><trkpt lat="45.62289334172215" lon="11.08933610712619"><ele>1183.0</ele><time>2026-04-07T13:13:43.998Z</time></trkpt><trkpt lat="45.623097305925626" lon="11.089345727034397"><ele>1182.6666666666665</ele><time>2026-04-07T13:13:44.998Z</time></trkpt><trkpt lat="45.62330318776598" lon="11.089355423112895"><ele>1182.3333333333333</ele><time>2026-04-07T13:13:45.998Z</time></trkpt><trkpt lat="45.62350330445226" lon="11.089381284202673"><ele>1182.0</ele><time>2026-04-07T13:13:46.998Z</time></trkpt><trkpt lat="45.62368787219184" lon="11.089423084664281"><ele>1178.6666666666667</ele><time>2026-04-07T13:13:47.998Z</time></trkpt><trkpt lat="45.623862698862204" lon="11.08946808999518"><ele>1175.3333333333335</ele><time>2026-04-07T13:13:48.998Z</time></trkpt><trkpt lat="45.62403159741691" lon="11.089508988112938"><ele>1172.0</ele><time>2026-04-07T13:13:49.998Z</time></trkpt><trkpt lat="45.62421388415828" lon="11.089535483250375"><ele>1172.0</ele><time>2026-04-07T13:13:50.998Z</time></trkpt><trkpt lat="45.62441249529818" lon="11.089515166323825"><ele>1172.0</ele><time>2026-04-07T13:13:51.998Z</time></trkpt><trkpt lat="45.624609795110686" lon="11.089459784986177"><ele>1172.0</ele><time>2026-04-07T13:13:52.998Z</time></trkpt><trkpt lat="45.62480676305234" lon="11.089394387675256"><ele>1170.3333333333335</ele><time>2026-04-07T13:13:53.998Z</time></trkpt><trkpt lat="45.625000973665465" lon="11.089321653111488"><ele>1168.6666666666667</ele><time>2026-04-07T13:13:54.998Z</time></trkpt><trkpt lat="45.625188934381036" lon="11.08925577574942"><ele>1167.0</ele><time>2026-04-07T13:13:55.998Z</time></trkpt><trkpt lat="45.62537228581001" lon="11.08920049264001"><ele>1166.3333333333333</ele><time>2026-04-07T13:13:56.998Z</time></trkpt><trkpt lat="45.62555600889047" lon="11.089140806385211"><ele>1165.6666666666665</ele><time>2026-04-07T13:13:57.998Z</time></trkpt><trkpt lat="45.62573727680653" lon="11.089078210146686"><ele>1165.0</ele><time>2026-04-07T13:13:58.998Z</time></trkpt><trkpt lat="45.62591773673798" lon="11.089019600092605"><ele>1165.0</ele><time>2026-04-07T13:13:59.998Z</time></trkpt><trkpt lat="45.626091497699825" lon="11.08896722023502"><ele>1165.0</ele><time>2026-04-07T13:14:00.998Z</time></trkpt><trkpt lat="45.62625089193358" lon="11.088922378311382"><ele>1165.0</ele><time>2026-04-07T13:14:01.998Z</time></trkpt><trkpt lat="45.626392440017845" lon="11.088871877470721"><ele>1165.0</ele><time>2026-04-07T13:14:02.998Z</time></trkpt><trkpt lat="45.6265169312974" lon="11.088803601597947"><ele>1165.0</ele><time>2026-04-07T13:14:03.998Z</time></trkpt><trkpt lat="45.626617715701165" lon="11.08871444547781"><ele>1165.0</ele><time>2026-04-07T13:14:04.998Z</time></trkpt><trkpt lat="45.62671172335833" lon="11.088594047803713"><ele>1165.0</ele><time>2026-04-07T13:14:05.998Z</time></trkpt><trkpt lat="45.62678305907642" lon="11.088473483753647"><ele>1165.0</ele><time>2026-04-07T13:14:06.998Z</time></trkpt><trkpt lat="45.62685478774807" lon="11.08837422763873"><ele>1165.0</ele><time>2026-04-07T13:14:07.998Z</time></trkpt><trkpt lat="45.62692373293766" lon="11.088262991481386"><ele>1165.0</ele><time>2026-04-07T13:14:08.998Z</time></trkpt><trkpt lat="45.62698474202072" lon="11.088123140569435"><ele>1165.0</ele><time>2026-04-07T13:14:09.998Z</time></trkpt><trkpt lat="45.62701916879739" lon="11.087961977450759"><ele>1165.0</ele><time>2026-04-07T13:14:10.998Z</time></trkpt><trkpt lat="45.627030869591486" lon="11.087784521106899"><ele>1166.0</ele><time>2026-04-07T13:14:12Z</time></trkpt><trkpt lat="45.627015483280694" lon="11.087592240944405"><ele>1167.0</ele><time>2026-04-07T13:14:13Z</time></trkpt><trkpt lat="45.62697341828964" lon="11.087400904688161"><ele>1168.0</ele><time>2026-04-07T13:14:14Z</time></trkpt><trkpt lat="45.62690386959535" lon="11.087222729013982"><ele>1169.0</ele><time>2026-04-07T13:14:15Z</time></trkpt><trkpt lat="45.626833392128795" lon="11.087028709973493"><ele>1166.6666666666667</ele><time>2026-04-07T13:14:16Z</time></trkpt><trkpt lat="45.62673408687946" lon="11.08683536477221"><ele>1164.3333333333333</ele><time>2026-04-07T13:14:17Z</time></trkpt><trkpt lat="45.62662646219718" lon="11.086629292509974"><ele>1162.0</ele><time>2026-04-07T13:14:18Z</time></trkpt><trkpt lat="45.62652002353199" lon="11.086416395962676"><ele>1162.0</ele><time>2026-04-07T13:14:19Z</time></trkpt><trkpt lat="45.62642359920982" lon="11.08621184600312"><ele>1162.0</ele><time>2026-04-07T13:14:20Z</time></trkpt><trkpt lat="45.626333846720335" lon="11.08600823709532"><ele>1162.0</ele><time>2026-04-07T13:14:21Z</time></trkpt><trkpt lat="45.626264257153444" lon="11.0858017209108"><ele>1164.6666666666665</ele><time>2026-04-07T13:14:22Z</time></trkpt><trkpt lat="45.62624175923794" lon="11.08558008753836"><ele>1167.3333333333333</ele><time>2026-04-07T13:14:23Z</time></trkpt><trkpt lat="45.62622681029417" lon="11.085331681638399"><ele>1170.0</ele><time>2026-04-07T13:14:24Z</time></trkpt><trkpt lat="45.62619695630306" lon="11.085039806987803"><ele>1171.5</ele><time>2026-04-07T13:14:25Z</time></trkpt><trkpt lat="45.626190389693484" lon="11.084732622233412"><ele>1173.0</ele><time>2026-04-07T13:14:26Z</time></trkpt><trkpt lat="45.62617864540905" lon="11.084385210720473"><ele>1172.0</ele><time>2026-04-07T13:14:27Z</time></trkpt><trkpt lat="45.626155295309445" lon="11.084007024506043"><ele>1171.0</ele><time>2026-04-07T13:14:28Z</time></trkpt><trkpt lat="45.62612845464025" lon="11.083623310611655"><ele>1157.0</ele><time>2026-04-07T13:14:29Z</time></trkpt><trkpt lat="45.626096210183235" lon="11.083224825536998"><ele>1143.0</ele><time>2026-04-07T13:14:30Z</time></trkpt><trkpt lat="45.626058183897214" lon="11.082811290008866"><ele>1139.5</ele><time>2026-04-07T13:14:31Z</time></trkpt><trkpt lat="45.62601310580733" lon="11.082380235169273"><ele>1136.0</ele><time>2026-04-07T13:14:32Z</time></trkpt><trkpt lat="45.62596471704481" lon="11.08195249474128"><ele>1134.5</ele><time>2026-04-07T13:14:33Z</time></trkpt><trkpt lat="45.62592091110818" lon="11.081556155438218"><ele>1133.0</ele><time>2026-04-07T13:14:34Z</time></trkpt><trkpt lat="45.625882516570194" lon="11.081191440169093"><ele>1133.0</ele><time>2026-04-07T13:14:35Z</time></trkpt><trkpt lat="45.62584220833608" lon="11.080850546721742"><ele>1133.0</ele><time>2026-04-07T13:14:36Z</time></trkpt><trkpt lat="45.62581261401647" lon="11.08052373459575"><ele>1133.0</ele><time>2026-04-07T13:14:37Z</time></trkpt><trkpt lat="45.625782702561786" lon="11.080208336947234"><ele>1133.0</ele><time>2026-04-07T13:14:38Z</time></trkpt><trkpt lat="45.62575071056231" lon="11.079900678535026"><ele>1133.0</ele><time>2026-04-07T13:14:39Z</time></trkpt><trkpt lat="45.62571724589399" lon="11.079605373631678"><ele>1132.0</ele><time>2026-04-07T13:14:40Z</time></trkpt><trkpt lat="45.62569008460523" lon="11.07932952713808"><ele>1131.0</ele><time>2026-04-07T13:14:41Z</time></trkpt><trkpt lat="45.62566843788661" lon="11.079068195764025"><ele>1130.0</ele><time>2026-04-07T13:14:42Z</time></trkpt><trkpt lat="45.62564972010028" lon="11.078808880855114"><ele>1130.0</ele><time>2026-04-07T13:14:43Z</time></trkpt><trkpt lat="45.62564541938102" lon="11.078542265374725"><ele>1130.0</ele><time>2026-04-07T13:14:44Z</time></trkpt><trkpt lat="45.62564683056503" lon="11.078271915088772"><ele>1130.0</ele><time>2026-04-07T13:14:45Z</time></trkpt><trkpt lat="45.62564778356753" lon="11.078005488541242"><ele>1128.3333333333335</ele><time>2026-04-07T13:14:46Z</time></trkpt><trkpt lat="45.62564826175255" lon="11.077737062132782"><ele>1126.6666666666667</ele><time>2026-04-07T13:14:47Z</time></trkpt><trkpt lat="45.625646476360274" lon="11.07747758933611"><ele>1125.0</ele><time>2026-04-07T13:14:48Z</time></trkpt><trkpt lat="45.62564665579017" lon="11.07724016757502"><ele>1124.0</ele><time>2026-04-07T13:14:49Z</time></trkpt><trkpt lat="45.6256457638553" lon="11.077036568635688"><ele>1123.0</ele><time>2026-04-07T13:14:50Z</time></trkpt><trkpt lat="45.62565368436306" lon="11.076858936505642"><ele>1122.0</ele><time>2026-04-07T13:14:51Z</time></trkpt><trkpt lat="45.62569078579994" lon="11.076698353283593"><ele>1121.0</ele><time>2026-04-07T13:14:52Z</time></trkpt><trkpt lat="45.625783379604194" lon="11.076572764259556"><ele>1118.3333333333335</ele><time>2026-04-07T13:14:53Z</time></trkpt><trkpt lat="45.62589114080368" lon="11.076407498776259"><ele>1115.6666666666667</ele><time>2026-04-07T13:14:54Z</time></trkpt><trkpt lat="45.62601578269552" lon="11.076275191015576"><ele>1113.0</ele><time>2026-04-07T13:14:54.999Z</time></trkpt><trkpt lat="45.62610846974352" lon="11.076116307828537"><ele>1115.3333333333333</ele><time>2026-04-07T13:14:55.999Z</time></trkpt><trkpt lat="45.62616278947458" lon="11.075939806565131"><ele>1117.6666666666665</ele><time>2026-04-07T13:14:56.999Z</time></trkpt><trkpt lat="45.626175930069145" lon="11.075714479130019"><ele>1120.0</ele><time>2026-04-07T13:14:57.999Z</time></trkpt><trkpt lat="45.62616135738981" lon="11.075459956366945"><ele>1116.0</ele><time>2026-04-07T13:14:58.999Z</time></trkpt><trkpt lat="45.626132732170944" lon="11.075208802346408"><ele>1112.0</ele><time>2026-04-07T13:14:59.999Z</time></trkpt><trkpt lat="45.62611288072508" lon="11.07497708015598"><ele>1108.0</ele><time>2026-04-07T13:15:00.999Z</time></trkpt><trkpt lat="45.62611211923773" lon="11.07476990398745"><ele>1108.0</ele><time>2026-04-07T13:15:01.999Z</time></trkpt><trkpt lat="45.62613307767392" lon="11.07457585811662"><ele>1108.0</ele><time>2026-04-07T13:15:02.999Z</time></trkpt><trkpt lat="45.62617654313867" lon="11.074366564823334"><ele>1108.0</ele><time>2026-04-07T13:15:03.999Z</time></trkpt><trkpt lat="45.62623664080373" lon="11.074120840261621"><ele>1105.0</ele><time>2026-04-07T13:15:04.999Z</time></trkpt><trkpt lat="45.62631407594762" lon="11.07383293648863"><ele>1102.0</ele><time>2026-04-07T13:15:05.999Z</time></trkpt><trkpt lat="45.62639333093843" lon="11.073514785264685"><ele>1100.0</ele><time>2026-04-07T13:15:06.999Z</time></trkpt><trkpt lat="45.626474680430945" lon="11.073204135554946"><ele>1098.0</ele><time>2026-04-07T13:15:07.999Z</time></trkpt><trkpt lat="45.62654279107004" lon="11.072909064970355"><ele>1096.0</ele><time>2026-04-07T13:15:08.999Z</time></trkpt><trkpt lat="45.626606179088355" lon="11.072627250062055"><ele>1096.3333333333333</ele><time>2026-04-07T13:15:09.999Z</time></trkpt><trkpt lat="45.626670189865656" lon="11.072366709607172"><ele>1096.6666666666667</ele><time>2026-04-07T13:15:10.999Z</time></trkpt><trkpt lat="45.62672681783977" lon="11.072131987754815"><ele>1097.0</ele><time>2026-04-07T13:15:11.999Z</time></trkpt><trkpt lat="45.62677654697659" lon="11.071929494824447"><ele>1097.0</ele><time>2026-04-07T13:15:12.999Z</time></trkpt><trkpt lat="45.62683564115871" lon="11.07175296425141"><ele>1097.0</ele><time>2026-04-07T13:15:13.999Z</time></trkpt><trkpt lat="45.62690339876652" lon="11.071614141142353"><ele>1097.0</ele><time>2026-04-07T13:15:14.999Z</time></trkpt><trkpt lat="45.62698091676801" lon="11.071502950333603"><ele>1097.0</ele><time>2026-04-07T13:15:15.999Z</time></trkpt><trkpt lat="45.627085922182154" lon="11.07144832073304"><ele>1098.6666666666667</ele><time>2026-04-07T13:15:16.999Z</time></trkpt><trkpt lat="45.627214734931194" lon="11.071427853708894"><ele>1100.3333333333333</ele><time>2026-04-07T13:15:17.999Z</time></trkpt><trkpt lat="45.62737583599581" lon="11.071419407847008"><ele>1102.0</ele><time>2026-04-07T13:15:18.999Z</time></trkpt><trkpt lat="45.62755889560548" lon="11.071405757918761"><ele>1102.0</ele><time>2026-04-07T13:15:19.999Z</time></trkpt><trkpt lat="45.62774758301092" lon="11.071371376307804"><ele>1102.0</ele><time>2026-04-07T13:15:20.999Z</time></trkpt><trkpt lat="45.62792506887831" lon="11.071339493430807"><ele>1102.0</ele><time>2026-04-07T13:15:21.999Z</time></trkpt><trkpt lat="45.628100574755855" lon="11.07131734037942"><ele>1102.6666666666665</ele><time>2026-04-07T13:15:22.999Z</time></trkpt><trkpt lat="45.62828061333625" lon="11.07129727601101"><ele>1103.3333333333333</ele><time>2026-04-07T13:15:23.999Z</time></trkpt><trkpt lat="45.62845930738671" lon="11.071302705109396"><ele>1104.0</ele><time>2026-04-07T13:15:24.999Z</time></trkpt><trkpt lat="45.628628683595565" lon="11.071340504410296"><ele>1096.0</ele><time>2026-04-07T13:15:25.999Z</time></trkpt><trkpt lat="45.62879160091339" lon="11.071401421443431"><ele>1088.0</ele><time>2026-04-07T13:15:26.999Z</time></trkpt><trkpt lat="45.628952373965994" lon="11.07148257716576"><ele>1080.0</ele><time>2026-04-07T13:15:27.999Z</time></trkpt><trkpt lat="45.62910332923275" lon="11.071558759908445"><ele>1081.0</ele><time>2026-04-07T13:15:28.999Z</time></trkpt><trkpt lat="45.62924729908877" lon="11.071621614311528"><ele>1082.0</ele><time>2026-04-07T13:15:29.999Z</time></trkpt><trkpt lat="45.62938493363125" lon="11.071672605411974"><ele>1083.0</ele><time>2026-04-07T13:15:30.999Z</time></trkpt><trkpt lat="45.62951680325183" lon="11.07169029926407"><ele>1084.0</ele><time>2026-04-07T13:15:31.999Z</time></trkpt><trkpt lat="45.629637768331676" lon="11.071680063618974"><ele>1084.8</ele><time>2026-04-07T13:15:32.999Z</time></trkpt><trkpt lat="45.629744296032335" lon="11.071654962701906"><ele>1085.6000000000001</ele><time>2026-04-07T13:15:33.999Z</time></trkpt><trkpt lat="45.629836787129236" lon="11.071595686915256"><ele>1086.4</ele><time>2026-04-07T13:15:34.999Z</time></trkpt><trkpt lat="45.62992534368853" lon="11.071506597282001"><ele>1087.2</ele><time>2026-04-07T13:15:35.999Z</time></trkpt><trkpt lat="45.63000255013476" lon="11.071377758797704"><ele>1088.0</ele><time>2026-04-07T13:15:36.999Z</time></trkpt><trkpt lat="45.63007457802976" lon="11.071258383552575"><ele>1085.25</ele><time>2026-04-07T13:15:37.999Z</time></trkpt><trkpt lat="45.63016040026116" lon="11.071161575344904"><ele>1082.5</ele><time>2026-04-07T13:15:38.999Z</time></trkpt><trkpt lat="45.630272794888334" lon="11.071069648321975"><ele>1079.75</ele><time>2026-04-07T13:15:39.999Z</time></trkpt><trkpt lat="45.63040652034736" lon="11.070948952669813"><ele>1077.0</ele><time>2026-04-07T13:15:40.999Z</time></trkpt><trkpt lat="45.63056679984004" lon="11.070833331623799"><ele>1072.0</ele><time>2026-04-07T13:15:41.999Z</time></trkpt><trkpt lat="45.63075114412224" lon="11.070703038664702"><ele>1067.0</ele><time>2026-04-07T13:15:42.998Z</time></trkpt><trkpt lat="45.630947126021354" lon="11.070553061794698"><ele>1062.0</ele><time>2026-04-07T13:15:43.998Z</time></trkpt><trkpt lat="45.63116315278223" lon="11.0704066295327"><ele>1062.0</ele><time>2026-04-07T13:15:44.998Z</time></trkpt><trkpt lat="45.631395968291294" lon="11.070285396797972"><ele>1062.0</ele><time>2026-04-07T13:15:45.998Z</time></trkpt><trkpt lat="45.63163992947927" lon="11.070132197794774"><ele>1062.0</ele><time>2026-04-07T13:15:46.998Z</time></trkpt><trkpt lat="45.631891163259894" lon="11.06998647354514"><ele>1062.0</ele><time>2026-04-07T13:15:47.998Z</time></trkpt><trkpt lat="45.632151728435424" lon="11.06986031372857"><ele>1050.5</ele><time>2026-04-07T13:15:48.998Z</time></trkpt><trkpt lat="45.63239707512949" lon="11.069752358918182"><ele>1039.0</ele><time>2026-04-07T13:15:49.998Z</time></trkpt><trkpt lat="45.63262586263182" lon="11.069628346034278"><ele>1045.3333333333333</ele><time>2026-04-07T13:15:50.998Z</time></trkpt><trkpt lat="45.63283451503213" lon="11.069500090278039"><ele>1051.6666666666667</ele><time>2026-04-07T13:15:51.998Z</time></trkpt><trkpt lat="45.633029628687716" lon="11.069373425457682"><ele>1058.0</ele><time>2026-04-07T13:15:52.998Z</time></trkpt><trkpt lat="45.633221354106865" lon="11.069264660951681"><ele>1058.0</ele><time>2026-04-07T13:15:53.998Z</time></trkpt><trkpt lat="45.633396435259435" lon="11.069163685437676"><ele>1058.0</ele><time>2026-04-07T13:15:54.998Z</time></trkpt><trkpt lat="45.633559639865254" lon="11.069081718562192"><ele>1058.0</ele><time>2026-04-07T13:15:55.998Z</time></trkpt><trkpt lat="45.6337158149492" lon="11.069024696278298"><ele>1051.4</ele><time>2026-04-07T13:15:56.998Z</time></trkpt><trkpt lat="45.633840813611464" lon="11.068970400753663"><ele>1044.8</ele><time>2026-04-07T13:15:57.998Z</time></trkpt><trkpt lat="45.63394404576599" lon="11.068938406891025"><ele>1038.2</ele><time>2026-04-07T13:15:58.998Z</time></trkpt><trkpt lat="45.63404380715302" lon="11.068930319705647"><ele>1031.6</ele><time>2026-04-07T13:15:59.998Z</time></trkpt><trkpt lat="45.63415659809108" lon="11.068931392513706"><ele>1025.0</ele><time>2026-04-07T13:16:00.998Z</time></trkpt><trkpt lat="45.634283062560776" lon="11.068974456543783"><ele>1025.0</ele><time>2026-04-07T13:16:01.998Z</time></trkpt><trkpt lat="45.634408593650065" lon="11.069040914355313"><ele>1025.0</ele><time>2026-04-07T13:16:02.998Z</time></trkpt><trkpt lat="45.63451706088166" lon="11.069095305346297"><ele>1025.0</ele><time>2026-04-07T13:16:03.998Z</time></trkpt><trkpt lat="45.634615836132085" lon="11.069130094066905"><ele>1025.0</ele><time>2026-04-07T13:16:04.998Z</time></trkpt><trkpt lat="45.63470973476037" lon="11.069112278719457"><ele>1025.0</ele><time>2026-04-07T13:16:05.998Z</time></trkpt><trkpt lat="45.63481136963946" lon="11.069028827154249"><ele>1024.0</ele><time>2026-04-07T13:16:06.998Z</time></trkpt><trkpt lat="45.634900312148595" lon="11.068905843581614"><ele>1023.0</ele><time>2026-04-07T13:16:07.998Z</time></trkpt><trkpt lat="45.63497211277111" lon="11.068715795350442"><ele>1022.0</ele><time>2026-04-07T13:16:08.998Z</time></trkpt><trkpt lat="45.635039783615994" lon="11.068494043113938"><ele>1021.0</ele><time>2026-04-07T13:16:09.998Z</time></trkpt><trkpt lat="45.635100719107676" lon="11.068242472215514"><ele>1021.0</ele><time>2026-04-07T13:16:10.998Z</time></trkpt><trkpt lat="45.63516862623516" lon="11.067994758643273"><ele>1021.0</ele><time>2026-04-07T13:16:11.998Z</time></trkpt><trkpt lat="45.63523337690085" lon="11.067769637490466"><ele>1021.0</ele><time>2026-04-07T13:16:12.998Z</time></trkpt><trkpt lat="45.635285377238134" lon="11.067564945350924"><ele>1023.25</ele><time>2026-04-07T13:16:13.998Z</time></trkpt><trkpt lat="45.635339462741925" lon="11.067374988680626"><ele>1025.5</ele><time>2026-04-07T13:16:14.998Z</time></trkpt><trkpt lat="45.63538752757972" lon="11.06721898755515"><ele>1027.75</ele><time>2026-04-07T13:16:15.998Z</time></trkpt><trkpt lat="45.6354528092814" lon="11.067111640162262"><ele>1030.0</ele><time>2026-04-07T13:16:16.998Z</time></trkpt><trkpt lat="45.635552237842994" lon="11.067060340177246"><ele>1030.0</ele><time>2026-04-07T13:16:18Z</time></trkpt><trkpt lat="45.63565281545818" lon="11.067035010273212"><ele>1030.0</ele><time>2026-04-07T13:16:19Z</time></trkpt><trkpt lat="45.63577914245372" lon="11.067053035807678"><ele>1030.0</ele><time>2026-04-07T13:16:20Z</time></trkpt><trkpt lat="45.63591664873951" lon="11.067036771608223"><ele>1030.0</ele><time>2026-04-07T13:16:21Z</time></trkpt><trkpt lat="45.63603404230721" lon="11.067017319817584"><ele>1031.6666666666665</ele><time>2026-04-07T13:16:22Z</time></trkpt><trkpt lat="45.63615175664635" lon="11.066908718653014"><ele>1033.3333333333333</ele><time>2026-04-07T13:16:23Z</time></trkpt><trkpt lat="45.636255567985" lon="11.066755668459194"><ele>1035.0</ele><time>2026-04-07T13:16:24Z</time></trkpt><trkpt lat="45.63636051331672" lon="11.066578767777283"><ele>1035.0</ele><time>2026-04-07T13:16:25Z</time></trkpt><trkpt lat="45.63648536909188" lon="11.066469358891613"><ele>1035.0</ele><time>2026-04-07T13:16:26Z</time></trkpt><trkpt lat="45.63659821581188" lon="11.066376320973923"><ele>1035.0</ele><time>2026-04-07T13:16:27Z</time></trkpt><trkpt lat="45.63670475558633" lon="11.066309880197023"><ele>1035.0</ele><time>2026-04-07T13:16:28Z</time></trkpt><trkpt lat="45.63680029409759" lon="11.066248066909468"><ele>1035.0</ele><time>2026-04-07T13:16:29Z</time></trkpt><trkpt lat="45.636864266902215" lon="11.066153909842159"><ele>1035.0</ele><time>2026-04-07T13:16:30Z</time></trkpt><trkpt lat="45.63687984027845" lon="11.065976521905371"><ele>1035.0</ele><time>2026-04-07T13:16:31Z</time></trkpt><trkpt lat="45.63681977659338" lon="11.065802697353726"><ele>1035.0</ele><time>2026-04-07T13:16:32Z</time></trkpt><trkpt lat="45.636735413023494" lon="11.065633266231835"><ele>1034.6666666666667</ele><time>2026-04-07T13:16:33Z</time></trkpt><trkpt lat="45.63663284783554" lon="11.06545112613324"><ele>1034.3333333333335</ele><time>2026-04-07T13:16:34Z</time></trkpt><trkpt lat="45.63652972830601" lon="11.06525246774299"><ele>1034.0</ele><time>2026-04-07T13:16:35Z</time></trkpt><trkpt lat="45.63643910883097" lon="11.065073133180373"><ele>1033.0</ele><time>2026-04-07T13:16:36Z</time></trkpt><trkpt lat="45.63635927914956" lon="11.064921328535515"><ele>1032.0</ele><time>2026-04-07T13:16:37Z</time></trkpt><trkpt lat="45.636303134505184" lon="11.064782123872638"><ele>1031.0</ele><time>2026-04-07T13:16:38Z</time></trkpt><trkpt lat="45.63627806209217" lon="11.064626313336994"><ele>1030.0</ele><time>2026-04-07T13:16:39Z</time></trkpt><trkpt lat="45.63627521507082" lon="11.06446191768038"><ele>1030.0</ele><time>2026-04-07T13:16:40Z</time></trkpt><trkpt lat="45.636301575189925" lon="11.064292515338941"><ele>1030.0</ele><time>2026-04-07T13:16:41Z</time></trkpt><trkpt lat="45.63636250317859" lon="11.06411480103632"><ele>1030.0</ele><time>2026-04-07T13:16:42Z</time></trkpt><trkpt lat="45.63644246820891" lon="11.063910300372111"><ele>1030.0</ele><time>2026-04-07T13:16:43Z</time></trkpt><trkpt lat="45.636548448087886" lon="11.063682160363882"><ele>1025.0</ele><time>2026-04-07T13:16:44Z</time></trkpt><trkpt lat="45.63666724213916" lon="11.063435689201532"><ele>1020.0</ele><time>2026-04-07T13:16:45Z</time></trkpt><trkpt lat="45.636801587560264" lon="11.063174996500578"><ele>1015.0</ele><time>2026-04-07T13:16:46Z</time></trkpt><trkpt lat="45.63693435064762" lon="11.06291234603891"><ele>1012.6666666666666</ele><time>2026-04-07T13:16:47Z</time></trkpt><trkpt lat="45.63705002627139" lon="11.062686375704374"><ele>1010.3333333333333</ele><time>2026-04-07T13:16:48Z</time></trkpt><trkpt lat="45.63716248270802" lon="11.062449120330323"><ele>1008.0</ele><time>2026-04-07T13:16:49Z</time></trkpt><trkpt lat="45.63726343128153" lon="11.062213526281795"><ele>1008.0</ele><time>2026-04-07T13:16:50Z</time></trkpt><trkpt lat="45.63734970464156" lon="11.061975254926468"><ele>1008.0</ele><time>2026-04-07T13:16:51Z</time></trkpt><trkpt lat="45.637428448250645" lon="11.061762459104774"><ele>1008.0</ele><time>2026-04-07T13:16:52Z</time></trkpt><trkpt lat="45.63749913654038" lon="11.061569083042716"><ele>1008.25</ele><time>2026-04-07T13:16:53Z</time></trkpt><trkpt lat="45.63757295371581" lon="11.061381919875824"><ele>1008.5</ele><time>2026-04-07T13:16:54Z</time></trkpt><trkpt lat="45.63766112532643" lon="11.061214150694344"><ele>1008.75</ele><time>2026-04-07T13:16:54.999Z</time></trkpt><trkpt lat="45.637761911331516" lon="11.061063162207653"><ele>1009.0</ele><time>2026-04-07T13:16:55.999Z</time></trkpt><trkpt lat="45.63787227670637" lon="11.060933956424474"><ele>1009.0</ele><time>2026-04-07T13:16:56.999Z</time></trkpt><trkpt lat="45.637996393538046" lon="11.060828740439371"><ele>1009.0</ele><time>2026-04-07T13:16:57.999Z</time></trkpt><trkpt lat="45.63814172766784" lon="11.060738356072331"><ele>1009.0</ele><time>2026-04-07T13:16:58.999Z</time></trkpt><trkpt lat="45.63832378948194" lon="11.060668953694938"><ele>1004.3333333333333</ele><time>2026-04-07T13:16:59.999Z</time></trkpt><trkpt lat="45.63851849302856" lon="11.060597911240961"><ele>999.6666666666667</ele><time>2026-04-07T13:17:00.999Z</time></trkpt><trkpt lat="45.638710892925445" lon="11.060516776022325"><ele>995.0</ele><time>2026-04-07T13:17:01.999Z</time></trkpt><trkpt lat="45.63888634662778" lon="11.06043698315065"><ele>995.0</ele><time>2026-04-07T13:17:02.999Z</time></trkpt><trkpt lat="45.63904488163559" lon="11.060363424800535"><ele>995.0</ele><time>2026-04-07T13:17:03.999Z</time></trkpt><trkpt lat="45.63920121173745" lon="11.060292620034103"><ele>995.0</ele><time>2026-04-07T13:17:04.999Z</time></trkpt><trkpt lat="45.63936733510614" lon="11.060238779891867"><ele>998.6666666666667</ele><time>2026-04-07T13:17:05.999Z</time></trkpt><trkpt lat="45.63954167846704" lon="11.060189826361066"><ele>1002.3333333333333</ele><time>2026-04-07T13:17:06.999Z</time></trkpt><trkpt lat="45.63973280033724" lon="11.060151055010365"><ele>1006.0</ele><time>2026-04-07T13:17:07.999Z</time></trkpt><trkpt lat="45.63993616300238" lon="11.060134391815488"><ele>1006.0</ele><time>2026-04-07T13:17:08.999Z</time></trkpt><trkpt lat="45.640125607403306" lon="11.060130055384747"><ele>1006.0</ele><time>2026-04-07T13:17:09.999Z</time></trkpt><trkpt lat="45.640331144715006" lon="11.060105300513847"><ele>1006.0</ele><time>2026-04-07T13:17:10.999Z</time></trkpt><trkpt lat="45.6405162610624" lon="11.0600817635968"><ele>1005.75</ele><time>2026-04-07T13:17:11.999Z</time></trkpt><trkpt lat="45.64068790479146" lon="11.060052388200592"><ele>1005.5</ele><time>2026-04-07T13:17:12.999Z</time></trkpt><trkpt lat="45.640833579519324" lon="11.06003034590443"><ele>1005.25</ele><time>2026-04-07T13:17:13.999Z</time></trkpt><trkpt lat="45.64095247407269" lon="11.060015989718714"><ele>1005.0</ele><time>2026-04-07T13:17:14.999Z</time></trkpt><trkpt lat="45.641058716209415" lon="11.059996921758314"><ele>1006.5</ele><time>2026-04-07T13:17:15.999Z</time></trkpt><trkpt lat="45.64114751608006" lon="11.059961816745838"><ele>1008.0</ele><time>2026-04-07T13:17:16.999Z</time></trkpt><trkpt lat="45.64121367082133" lon="11.059900098653825"><ele>1009.5</ele><time>2026-04-07T13:17:17.999Z</time></trkpt><trkpt lat="45.64125024000243" lon="11.059795527429118"><ele>1011.0</ele><time>2026-04-07T13:17:18.999Z</time></trkpt><trkpt lat="45.64124007013322" lon="11.059667462856344"><ele>1012.5</ele><time>2026-04-07T13:17:19.999Z</time></trkpt><trkpt lat="45.641206274923874" lon="11.059554824129211"><ele>1014.0</ele><time>2026-04-07T13:17:20.999Z</time></trkpt><trkpt lat="45.64112200370111" lon="11.059466409673467"><ele>1017.0</ele><time>2026-04-07T13:17:21.999Z</time></trkpt><trkpt lat="45.641004083660214" lon="11.05940907855234"><ele>1020.0</ele><time>2026-04-07T13:17:22.999Z</time></trkpt><trkpt lat="45.64086572334702" lon="11.059337578096152"><ele>1023.0</ele><time>2026-04-07T13:17:23.999Z</time></trkpt><trkpt lat="45.64069484550832" lon="11.059283461774823"><ele>1026.0</ele><time>2026-04-07T13:17:24.999Z</time></trkpt><trkpt lat="45.64049808908232" lon="11.059273823538456"><ele>1019.5</ele><time>2026-04-07T13:17:25.999Z</time></trkpt><trkpt lat="45.64028003698745" lon="11.059233544167204"><ele>1013.0</ele><time>2026-04-07T13:17:26.999Z</time></trkpt><trkpt lat="45.64002777262637" lon="11.059199448426453"><ele>1013.0</ele><time>2026-04-07T13:17:27.999Z</time></trkpt><trkpt lat="45.639762051754104" lon="11.059143045092569"><ele>1013.0</ele><time>2026-04-07T13:17:28.999Z</time></trkpt><trkpt lat="45.639474653619864" lon="11.059103479168163"><ele>1035.5</ele><time>2026-04-07T13:17:29.999Z</time></trkpt><trkpt lat="45.63918991866429" lon="11.059105958463588"><ele>1058.0</ele><time>2026-04-07T13:17:30.999Z</time></trkpt><trkpt lat="45.638895701192844" lon="11.059097855883701"><ele>1055.0</ele><time>2026-04-07T13:17:31.999Z</time></trkpt><trkpt lat="45.638610400799045" lon="11.059061479071099"><ele>1052.0</ele><time>2026-04-07T13:17:32.999Z</time></trkpt><trkpt lat="45.638353212129196" lon="11.059035975166829"><ele>1052.0</ele><time>2026-04-07T13:17:33.999Z</time></trkpt><trkpt lat="45.63811052063297" lon="11.059042275711509"><ele>1052.0</ele><time>2026-04-07T13:17:34.999Z</time></trkpt><trkpt lat="45.63786970676102" lon="11.059047444780006"><ele>1054.3333333333335</ele><time>2026-04-07T13:17:35.999Z</time></trkpt><trkpt lat="45.63764395265057" lon="11.059076431633285"><ele>1056.6666666666667</ele><time>2026-04-07T13:17:36.999Z</time></trkpt><trkpt lat="45.63742717237251" lon="11.059112273279009"><ele>1059.0</ele><time>2026-04-07T13:17:37.999Z</time></trkpt><trkpt lat="45.63721117212719" lon="11.059195771498729"><ele>1042.0</ele><time>2026-04-07T13:17:38.999Z</time></trkpt><trkpt lat="45.63698361815144" lon="11.059312913592073"><ele>1025.0</ele><time>2026-04-07T13:17:39.998Z</time></trkpt><trkpt lat="45.63674521619664" lon="11.059435071721143"><ele>1025.0</ele><time>2026-04-07T13:17:40.998Z</time></trkpt><trkpt lat="45.636524702922046" lon="11.059553569785518"><ele>1025.0</ele><time>2026-04-07T13:17:41.998Z</time></trkpt><trkpt lat="45.636332459535076" lon="11.05965598329788"><ele>1025.0</ele><time>2026-04-07T13:17:42.998Z</time></trkpt><trkpt lat="45.63615533585954" lon="11.059741830062142"><ele>1038.3333333333335</ele><time>2026-04-07T13:17:43.998Z</time></trkpt><trkpt lat="45.6359769677606" lon="11.059822404217028"><ele>1051.6666666666667</ele><time>2026-04-07T13:17:44.998Z</time></trkpt><trkpt lat="45.635776057440026" lon="11.059869987234064"><ele>1065.0</ele><time>2026-04-07T13:17:45.998Z</time></trkpt><trkpt lat="45.63554758634395" lon="11.059933361157112"><ele>1054.6666666666667</ele><time>2026-04-07T13:17:46.998Z</time></trkpt><trkpt lat="45.63532185616831" lon="11.06001651004814"><ele>1044.3333333333335</ele><time>2026-04-07T13:17:47.998Z</time></trkpt><trkpt lat="45.63512212566858" lon="11.060112595714456"><ele>1034.0</ele><time>2026-04-07T13:17:48.998Z</time></trkpt><trkpt lat="45.6349541948811" lon="11.060151282890256"><ele>1034.0</ele><time>2026-04-07T13:17:49.998Z</time></trkpt><trkpt lat="45.63483585786035" lon="11.060250144920388"><ele>1034.0</ele><time>2026-04-07T13:17:50.998Z</time></trkpt><trkpt lat="45.63472736898023" lon="11.060377191797395"><ele>1034.0</ele><time>2026-04-07T13:17:51.998Z</time></trkpt><trkpt lat="45.634618982864566" lon="11.060568640225025"><ele>1034.0</ele><time>2026-04-07T13:17:52.998Z</time></trkpt><trkpt lat="45.634494152478105" lon="11.060738191730158"><ele>1030.6000000000001</ele><time>2026-04-07T13:17:53.998Z</time></trkpt><trkpt lat="45.634389596692074" lon="11.06085299924525"><ele>1027.2</ele><time>2026-04-07T13:17:54.998Z</time></trkpt><trkpt lat="45.6343140002881" lon="11.060916917672609"><ele>1023.8000000000001</ele><time>2026-04-07T13:17:55.998Z</time></trkpt><trkpt lat="45.634235882710364" lon="11.06095843347682"><ele>1020.4000000000001</ele><time>2026-04-07T13:17:56.998Z</time></trkpt><trkpt lat="45.634161187987026" lon="11.060880991041559"><ele>1017.0</ele><time>2026-04-07T13:17:57.998Z</time></trkpt><trkpt lat="45.63404481054324" lon="11.060885636283372"><ele>1017.0</ele><time>2026-04-07T13:17:58.998Z</time></trkpt><trkpt lat="45.6339336288101" lon="11.060974293007964"><ele>1017.0</ele><time>2026-04-07T13:17:59.998Z</time></trkpt><trkpt lat="45.633817040386255" lon="11.061030207431104"><ele>1017.0</ele><time>2026-04-07T13:18:00.998Z</time></trkpt><trkpt lat="45.633718840643695" lon="11.061044688612977"><ele>1017.0</ele><time>2026-04-07T13:18:01.998Z</time></trkpt><trkpt lat="45.63364819545273" lon="11.061080011557529"><ele>1017.0</ele><time>2026-04-07T13:18:02.998Z</time></trkpt><trkpt lat="45.63357877567537" lon="11.061145475677685"><ele>1032.25</ele><time>2026-04-07T13:18:03.998Z</time></trkpt><trkpt lat="45.63358480503493" lon="11.061360772935206"><ele>1047.5</ele><time>2026-04-07T13:18:04.998Z</time></trkpt><trkpt lat="45.633526558775074" lon="11.061480313338732"><ele>1062.75</ele><time>2026-04-07T13:18:05.998Z</time></trkpt><trkpt lat="45.63347276873629" lon="11.061584508435129"><ele>1078.0</ele><time>2026-04-07T13:18:06.998Z</time></trkpt><trkpt lat="45.633353096588486" lon="11.061611220635637"><ele>1066.75</ele><time>2026-04-07T13:18:07.998Z</time></trkpt><trkpt lat="45.633294495407064" lon="11.061783649081887"><ele>1055.5</ele><time>2026-04-07T13:18:08.998Z</time></trkpt><trkpt lat="45.63324364922239" lon="11.061963319810907"><ele>1044.25</ele><time>2026-04-07T13:18:09.998Z</time></trkpt><trkpt lat="45.63316129925372" lon="11.062106642614895"><ele>1033.0</ele><time>2026-04-07T13:18:10.998Z</time></trkpt><trkpt lat="45.63307525301508" lon="11.062218156816924"><ele>1033.0</ele><time>2026-04-07T13:18:11.998Z</time></trkpt><trkpt lat="45.63295339563474" lon="11.062352448779212"><ele>1033.0</ele><time>2026-04-07T13:18:12.998Z</time></trkpt><trkpt lat="45.63281431646654" lon="11.062482608428851"><ele>1033.0</ele><time>2026-04-07T13:18:13.998Z</time></trkpt><trkpt lat="45.63266758906472" lon="11.062590911663222"><ele>1033.0</ele><time>2026-04-07T13:18:14.998Z</time></trkpt><trkpt lat="45.632508163827254" lon="11.06267036550332"><ele>1033.0</ele><time>2026-04-07T13:18:15.998Z</time></trkpt><trkpt lat="45.632367383742626" lon="11.062721301500874"><ele>1033.0</ele><time>2026-04-07T13:18:16.998Z</time></trkpt><trkpt lat="45.632238583755154" lon="11.062754364494893"><ele>1033.0</ele><time>2026-04-07T13:18:17.998Z</time></trkpt><trkpt lat="45.63210163682541" lon="11.062762078009296"><ele>1033.3333333333333</ele><time>2026-04-07T13:18:18.998Z</time></trkpt><trkpt lat="45.63195550793377" lon="11.062733160527465"><ele>1033.6666666666667</ele><time>2026-04-07T13:18:19.998Z</time></trkpt><trkpt lat="45.631794852161825" lon="11.06266961167234"><ele>1034.0</ele><time>2026-04-07T13:18:20.998Z</time></trkpt><trkpt lat="45.6316042203916" lon="11.062571812827358"><ele>1034.0</ele><time>2026-04-07T13:18:21.998Z</time></trkpt><trkpt lat="45.63138594984999" lon="11.062459714469973"><ele>1034.0</ele><time>2026-04-07T13:18:22.998Z</time></trkpt><trkpt lat="45.631154734554464" lon="11.062344218652505"><ele>1041.0</ele><time>2026-04-07T13:18:24Z</time></trkpt><trkpt lat="45.63094272643335" lon="11.062239218800702"><ele>1048.0</ele><time>2026-04-07T13:18:25Z</time></trkpt><trkpt lat="45.630768793265915" lon="11.06215263922414"><ele>1055.0</ele><time>2026-04-07T13:18:26Z</time></trkpt><trkpt lat="45.630612105308046" lon="11.062079655793472"><ele>1055.0</ele><time>2026-04-07T13:18:27Z</time></trkpt><trkpt lat="45.63048009969432" lon="11.062017396171054"><ele>1055.0</ele><time>2026-04-07T13:18:28Z</time></trkpt><trkpt lat="45.63037066726044" lon="11.061957959488797"><ele>1055.0</ele><time>2026-04-07T13:18:29Z</time></trkpt><trkpt lat="45.63027477036669" lon="11.06187873149126"><ele>1055.0</ele><time>2026-04-07T13:18:30Z</time></trkpt><trkpt lat="45.63018906892793" lon="11.061735151618121"><ele>1055.25</ele><time>2026-04-07T13:18:31Z</time></trkpt><trkpt lat="45.63008170849987" lon="11.061570741511694"><ele>1055.5</ele><time>2026-04-07T13:18:32Z</time></trkpt><trkpt lat="45.629980978557484" lon="11.06141648432548"><ele>1055.75</ele><time>2026-04-07T13:18:33Z</time></trkpt><trkpt lat="45.62988885210545" lon="11.061277922287264"><ele>1056.0</ele><time>2026-04-07T13:18:34Z</time></trkpt><trkpt lat="45.62982175581365" lon="11.061153197402914"><ele>1056.0</ele><time>2026-04-07T13:18:35Z</time></trkpt><trkpt lat="45.629791336850985" lon="11.060996909201318"><ele>1056.0</ele><time>2026-04-07T13:18:36Z</time></trkpt><trkpt lat="45.62975186987896" lon="11.060813640868167"><ele>1056.0</ele><time>2026-04-07T13:18:37Z</time></trkpt><trkpt lat="45.62970982344389" lon="11.060670104548114"><ele>1056.0</ele><time>2026-04-07T13:18:38Z</time></trkpt><trkpt lat="45.62968277374014" lon="11.060558129405829"><ele>1056.0</ele><time>2026-04-07T13:18:39Z</time></trkpt><trkpt lat="45.62960929159211" lon="11.060482359053173"><ele>1058.75</ele><time>2026-04-07T13:18:40Z</time></trkpt><trkpt lat="45.62948986225978" lon="11.060500896683399"><ele>1061.5</ele><time>2026-04-07T13:18:41Z</time></trkpt><trkpt lat="45.62937547034396" lon="11.060616716488193"><ele>1064.25</ele><time>2026-04-07T13:18:42Z</time></trkpt><trkpt lat="45.62921099203728" lon="11.060689957937088"><ele>1067.0</ele><time>2026-04-07T13:18:43Z</time></trkpt><trkpt lat="45.629032450203205" lon="11.06078488208805"><ele>1062.0</ele><time>2026-04-07T13:18:44Z</time></trkpt><trkpt lat="45.62886081637488" lon="11.060875298865097"><ele>1057.0</ele><time>2026-04-07T13:18:45Z</time></trkpt><trkpt lat="45.62871227421742" lon="11.060947968375238"><ele>1052.0</ele><time>2026-04-07T13:18:46Z</time></trkpt><trkpt lat="45.62858371489157" lon="11.060991849317046"><ele>1052.0</ele><time>2026-04-07T13:18:47Z</time></trkpt><trkpt lat="45.62844966965203" lon="11.061010746927025"><ele>1052.0</ele><time>2026-04-07T13:18:48Z</time></trkpt><trkpt lat="45.62831505131406" lon="11.06099385945128"><ele>1052.0</ele><time>2026-04-07T13:18:49Z</time></trkpt><trkpt lat="45.628162213089325" lon="11.060949205511807"><ele>1052.0</ele><time>2026-04-07T13:18:50Z</time></trkpt><trkpt lat="45.627968203534756" lon="11.06088325857235"><ele>1050.6666666666667</ele><time>2026-04-07T13:18:51Z</time></trkpt><trkpt lat="45.62775343405134" lon="11.060806133357264"><ele>1049.3333333333333</ele><time>2026-04-07T13:18:52Z</time></trkpt><trkpt lat="45.62754451607611" lon="11.060729970684957"><ele>1048.0</ele><time>2026-04-07T13:18:53Z</time></trkpt><trkpt lat="45.62734691716099" lon="11.060661909359425"><ele>1052.6666666666665</ele><time>2026-04-07T13:18:54Z</time></trkpt><trkpt lat="45.62718033069819" lon="11.060600119344715"><ele>1057.3333333333333</ele><time>2026-04-07T13:18:55Z</time></trkpt><trkpt lat="45.6270214120488" lon="11.060538736834271"><ele>1062.0</ele><time>2026-04-07T13:18:56Z</time></trkpt><trkpt lat="45.62687833254966" lon="11.060486227026873"><ele>1062.0</ele><time>2026-04-07T13:18:57Z</time></trkpt><trkpt lat="45.626755736563155" lon="11.060439969274356"><ele>1062.0</ele><time>2026-04-07T13:18:58Z</time></trkpt><trkpt lat="45.626641853447204" lon="11.060375279942859"><ele>1062.0</ele><time>2026-04-07T13:18:59Z</time></trkpt><trkpt lat="45.62651658124981" lon="11.060270458117293"><ele>1062.0</ele><time>2026-04-07T13:19:00Z</time></trkpt><trkpt lat="45.62638868017238" lon="11.060155743627563"><ele>1062.0</ele><time>2026-04-07T13:19:01Z</time></trkpt><trkpt lat="45.62627373240299" lon="11.060055470232276"><ele>1062.0</ele><time>2026-04-07T13:19:01.999Z</time></trkpt><trkpt lat="45.62619483269301" lon="11.059980882293454"><ele>1062.0</ele><time>2026-04-07T13:19:02.999Z</time></trkpt><trkpt lat="45.626135613239505" lon="11.059808261989767"><ele>1062.0</ele><time>2026-04-07T13:19:04.999Z</time></trkpt><trkpt lat="45.62614418831823" lon="11.059657317131933"><ele>1058.0</ele><time>2026-04-07T13:19:05.999Z</time></trkpt><trkpt lat="45.62613297026041" lon="11.059432579712352"><ele>1054.0</ele><time>2026-04-07T13:19:06.999Z</time></trkpt><trkpt lat="45.62614303057447" lon="11.059177654099297"><ele>1050.0</ele><time>2026-04-07T13:19:07.999Z</time></trkpt><trkpt lat="45.626143999855564" lon="11.058899166912635"><ele>1047.3333333333333</ele><time>2026-04-07T13:19:08.999Z</time></trkpt><trkpt lat="45.62613443627434" lon="11.058598395116771"><ele>1044.6666666666665</ele><time>2026-04-07T13:19:09.999Z</time></trkpt><trkpt lat="45.62613046022381" lon="11.058336018318075"><ele>1042.0</ele><time>2026-04-07T13:19:10.999Z</time></trkpt><trkpt lat="45.62613114903165" lon="11.058123021149703"><ele>1046.25</ele><time>2026-04-07T13:19:11.999Z</time></trkpt><trkpt lat="45.626153398468595" lon="11.057944539216539"><ele>1050.5</ele><time>2026-04-07T13:19:12.999Z</time></trkpt><trkpt lat="45.62619132419021" lon="11.057754787218586"><ele>1054.75</ele><time>2026-04-07T13:19:13.999Z</time></trkpt><trkpt lat="45.626254909119744" lon="11.057554734848603"><ele>1059.0</ele><time>2026-04-07T13:19:14.999Z</time></trkpt><trkpt lat="45.626324935690675" lon="11.057347344198394"><ele>1059.0</ele><time>2026-04-07T13:19:15.999Z</time></trkpt><trkpt lat="45.62643495893997" lon="11.057128053635898"><ele>1059.0</ele><time>2026-04-07T13:19:16.999Z</time></trkpt><trkpt lat="45.6265512124764" lon="11.056892410608768"><ele>1059.0</ele><time>2026-04-07T13:19:17.999Z</time></trkpt><trkpt lat="45.626663538254235" lon="11.056644164425181"><ele>1056.0</ele><time>2026-04-07T13:19:18.999Z</time></trkpt><trkpt lat="45.62676955744756" lon="11.056425221319076"><ele>1053.0</ele><time>2026-04-07T13:19:19.999Z</time></trkpt><trkpt lat="45.626872858953575" lon="11.056244589814124"><ele>1050.0</ele><time>2026-04-07T13:19:20.999Z</time></trkpt><trkpt lat="45.62699525456621" lon="11.056069318776293"><ele>1056.0</ele><time>2026-04-07T13:19:21.999Z</time></trkpt><trkpt lat="45.62713125720073" lon="11.055885650051863"><ele>1062.0</ele><time>2026-04-07T13:19:22.999Z</time></trkpt><trkpt lat="45.62727038706253" lon="11.055716930953576"><ele>1068.0</ele><time>2026-04-07T13:19:23.999Z</time></trkpt><trkpt lat="45.627375287554244" lon="11.055556962586893"><ele>1068.0</ele><time>2026-04-07T13:19:24.999Z</time></trkpt><trkpt lat="45.62748165700065" lon="11.055419030303696"><ele>1068.0</ele><time>2026-04-07T13:19:25.999Z</time></trkpt><trkpt lat="45.627569841972935" lon="11.05531824334345"><ele>1068.0</ele><time>2026-04-07T13:19:26.999Z</time></trkpt><trkpt lat="45.62763776309412" lon="11.055228591910641"><ele>1068.0</ele><time>2026-04-07T13:19:27.999Z</time></trkpt><trkpt lat="45.62766761165179" lon="11.055128124450576"><ele>1068.0</ele><time>2026-04-07T13:19:28.999Z</time></trkpt><trkpt lat="45.62765188144014" lon="11.054979845546148"><ele>1072.5</ele><time>2026-04-07T13:19:29.999Z</time></trkpt><trkpt lat="45.627609373158776" lon="11.05484667539005"><ele>1077.0</ele><time>2026-04-07T13:19:30.999Z</time></trkpt><trkpt lat="45.62748265212066" lon="11.05481992310726"><ele>1081.5</ele><time>2026-04-07T13:19:31.999Z</time></trkpt><trkpt lat="45.62736979811033" lon="11.05482628934866"><ele>1086.0</ele><time>2026-04-07T13:19:32.999Z</time></trkpt><trkpt lat="45.62721340783482" lon="11.054868394294664"><ele>1086.0</ele><time>2026-04-07T13:19:33.999Z</time></trkpt><trkpt lat="45.627033479372244" lon="11.054864812057408"><ele>1086.0</ele><time>2026-04-07T13:19:34.999Z</time></trkpt><trkpt lat="45.62684753591173" lon="11.054872021604638"><ele>1086.0</ele><time>2026-04-07T13:19:35.999Z</time></trkpt><trkpt lat="45.62667112912944" lon="11.054849993523401"><ele>1085.0</ele><time>2026-04-07T13:19:36.999Z</time></trkpt><trkpt lat="45.62653034957514" lon="11.054838328835599"><ele>1084.0</ele><time>2026-04-07T13:19:37.999Z</time></trkpt><trkpt lat="45.62639790265861" lon="11.054831100365881"><ele>1083.0</ele><time>2026-04-07T13:19:38.999Z</time></trkpt><trkpt lat="45.62628058320577" lon="11.054811777105398"><ele>1082.0</ele><time>2026-04-07T13:19:39.999Z</time></trkpt><trkpt lat="45.62618486844925" lon="11.054764134674086"><ele>1082.75</ele><time>2026-04-07T13:19:40.999Z</time></trkpt><trkpt lat="45.626119701525276" lon="11.05463518321318"><ele>1083.5</ele><time>2026-04-07T13:19:41.999Z</time></trkpt><trkpt lat="45.62605927511036" lon="11.054483574401731"><ele>1084.25</ele><time>2026-04-07T13:19:42.999Z</time></trkpt><trkpt lat="45.62601729430189" lon="11.054293761163889"><ele>1085.0</ele><time>2026-04-07T13:19:43.999Z</time></trkpt><trkpt lat="45.62592808022876" lon="11.054121083617963"><ele>1085.0</ele><time>2026-04-07T13:19:44.999Z</time></trkpt><trkpt lat="45.62577630774618" lon="11.053973436620417"><ele>1085.0</ele><time>2026-04-07T13:19:45.999Z</time></trkpt><trkpt lat="45.62564113377605" lon="11.053836245321351"><ele>1085.0</ele><time>2026-04-07T13:19:46.999Z</time></trkpt><trkpt lat="45.62548784431095" lon="11.053712319940852"><ele>1085.0</ele><time>2026-04-07T13:19:47.999Z</time></trkpt><trkpt lat="45.62532530553278" lon="11.053622716816374"><ele>1085.0</ele><time>2026-04-07T13:19:48.998Z</time></trkpt><trkpt lat="45.62516010346672" lon="11.053553281813848"><ele>1085.0</ele><time>2026-04-07T13:19:49.998Z</time></trkpt><trkpt lat="45.62499693217729" lon="11.05349673307365"><ele>1083.75</ele><time>2026-04-07T13:19:50.998Z</time></trkpt><trkpt lat="45.62485597446291" lon="11.053440944447289"><ele>1082.5</ele><time>2026-04-07T13:19:51.998Z</time></trkpt><trkpt lat="45.62473701057026" lon="11.053378634023284"><ele>1081.25</ele><time>2026-04-07T13:19:52.998Z</time></trkpt><trkpt lat="45.62463612649822" lon="11.053296598916104"><ele>1080.0</ele><time>2026-04-07T13:19:53.998Z</time></trkpt><trkpt lat="45.62452895285419" lon="11.05318792718265"><ele>1075.5</ele><time>2026-04-07T13:19:54.998Z</time></trkpt><trkpt lat="45.62442803164901" lon="11.05308468458087"><ele>1071.0</ele><time>2026-04-07T13:19:55.998Z</time></trkpt><trkpt lat="45.624358309815335" lon="11.052941322960958"><ele>1066.5</ele><time>2026-04-07T13:19:56.998Z</time></trkpt><trkpt lat="45.62428953284839" lon="11.05277357314366"><ele>1062.0</ele><time>2026-04-07T13:19:57.998Z</time></trkpt><trkpt lat="45.62423165288818" lon="11.052580480770105"><ele>1063.0</ele><time>2026-04-07T13:19:58.998Z</time></trkpt><trkpt lat="45.62418844100895" lon="11.052357865232093"><ele>1064.0</ele><time>2026-04-07T13:19:59.998Z</time></trkpt><trkpt lat="45.624169354673256" lon="11.052125285648497"><ele>1065.0</ele><time>2026-04-07T13:20:00.998Z</time></trkpt><trkpt lat="45.62416692825808" lon="11.051910465435132"><ele>1065.0</ele><time>2026-04-07T13:20:01.998Z</time></trkpt><trkpt lat="45.62418291333419" lon="11.051710202804077"><ele>1065.0</ele><time>2026-04-07T13:20:02.998Z</time></trkpt><trkpt lat="45.624196574381536" lon="11.051535343083229"><ele>1065.0</ele><time>2026-04-07T13:20:03.998Z</time></trkpt><trkpt lat="45.62420879924196" lon="11.05140181746791"><ele>1065.0</ele><time>2026-04-07T13:20:04.998Z</time></trkpt><trkpt lat="45.624226542970874" lon="11.051314248619393"><ele>1065.0</ele><time>2026-04-07T13:20:05.998Z</time></trkpt><trkpt lat="45.62431857440381" lon="11.051200740313467"><ele>1064.8</ele><time>2026-04-07T13:20:07.998Z</time></trkpt><trkpt lat="45.624396697558495" lon="11.051170820947696"><ele>1064.6</ele><time>2026-04-07T13:20:08.998Z</time></trkpt><trkpt lat="45.62449833355715" lon="11.051190841166529"><ele>1064.4</ele><time>2026-04-07T13:20:09.998Z</time></trkpt><trkpt lat="45.62461946488976" lon="11.051191363096239"><ele>1064.2</ele><time>2026-04-07T13:20:10.998Z</time></trkpt><trkpt lat="45.624742357984125" lon="11.05120709626867"><ele>1064.0</ele><time>2026-04-07T13:20:11.998Z</time></trkpt><trkpt lat="45.624854511009936" lon="11.051193939792439"><ele>1064.0</ele><time>2026-04-07T13:20:12.998Z</time></trkpt><trkpt lat="45.624951013423235" lon="11.051171713590655"><ele>1064.0</ele><time>2026-04-07T13:20:13.998Z</time></trkpt><trkpt lat="45.62504604181354" lon="11.051144180882257"><ele>1064.0</ele><time>2026-04-07T13:20:14.998Z</time></trkpt><trkpt lat="45.62514047705514" lon="11.051111553074383"><ele>1064.0</ele><time>2026-04-07T13:20:15.998Z</time></trkpt><trkpt lat="45.62523266965146" lon="11.051081038928922"><ele>1064.0</ele><time>2026-04-07T13:20:16.998Z</time></trkpt><trkpt lat="45.62533220075876" lon="11.051047110188987"><ele>1066.0</ele><time>2026-04-07T13:20:17.998Z</time></trkpt><trkpt lat="45.625441815588104" lon="11.050996674033986"><ele>1068.0</ele><time>2026-04-07T13:20:18.998Z</time></trkpt><trkpt lat="45.625553676727414" lon="11.050945120813012"><ele>1070.0</ele><time>2026-04-07T13:20:19.998Z</time></trkpt><trkpt lat="45.62565634759943" lon="11.050898284605985"><ele>1072.0</ele><time>2026-04-07T13:20:20.998Z</time></trkpt><trkpt lat="45.62576089869144" lon="11.050863876508068"><ele>1074.0</ele><time>2026-04-07T13:20:21.998Z</time></trkpt><trkpt lat="45.62588566183713" lon="11.050852132877772"><ele>1074.0</ele><time>2026-04-07T13:20:22.998Z</time></trkpt><trkpt lat="45.62603087650071" lon="11.050847441017442"><ele>1074.0</ele><time>2026-04-07T13:20:23.998Z</time></trkpt><trkpt lat="45.62617393444684" lon="11.05084808320187"><ele>1074.0</ele><time>2026-04-07T13:20:24.998Z</time></trkpt><trkpt lat="45.62630028848441" lon="11.050848450556993"><ele>1074.0</ele><time>2026-04-07T13:20:25.998Z</time></trkpt><trkpt lat="45.626413820866134" lon="11.050848388766601"><ele>1073.8</ele><time>2026-04-07T13:20:26.998Z</time></trkpt><trkpt lat="45.62651404887489" lon="11.050848420795592"><ele>1073.6000000000001</ele><time>2026-04-07T13:20:27.998Z</time></trkpt><trkpt lat="45.626611842358" lon="11.05080832051878"><ele>1073.4</ele><time>2026-04-07T13:20:28.998Z</time></trkpt><trkpt lat="45.62668542391539" lon="11.050737526027985"><ele>1073.2</ele><time>2026-04-07T13:20:30Z</time></trkpt><trkpt lat="45.626742183063435" lon="11.05062042926231"><ele>1073.0</ele><time>2026-04-07T13:20:31Z</time></trkpt><trkpt lat="45.626766593438774" lon="11.050453217855852"><ele>1072.25</ele><time>2026-04-07T13:20:32Z</time></trkpt><trkpt lat="45.626749535713294" lon="11.050276103384247"><ele>1071.5</ele><time>2026-04-07T13:20:33Z</time></trkpt><trkpt lat="45.626674949834886" lon="11.05012733619118"><ele>1070.75</ele><time>2026-04-07T13:20:34Z</time></trkpt><trkpt lat="45.62656394005853" lon="11.050005273446581"><ele>1070.0</ele><time>2026-04-07T13:20:35Z</time></trkpt><trkpt lat="45.62643887750413" lon="11.049890031824498"><ele>1072.5</ele><time>2026-04-07T13:20:36Z</time></trkpt><trkpt lat="45.626326612455884" lon="11.049797734839846"><ele>1075.0</ele><time>2026-04-07T13:20:37Z</time></trkpt><trkpt lat="45.62624304589488" lon="11.049669406163432"><ele>1077.5</ele><time>2026-04-07T13:20:38Z</time></trkpt><trkpt lat="45.626162177195404" lon="11.049522847123843"><ele>1080.0</ele><time>2026-04-07T13:20:39Z</time></trkpt><trkpt lat="45.62608980818686" lon="11.04932891809686"><ele>1075.75</ele><time>2026-04-07T13:20:40Z</time></trkpt><trkpt lat="45.62601161337638" lon="11.049127698739403"><ele>1071.5</ele><time>2026-04-07T13:20:41Z</time></trkpt><trkpt lat="45.62595962571416" lon="11.048949168803011"><ele>1067.25</ele><time>2026-04-07T13:20:42Z</time></trkpt><trkpt lat="45.62591480531534" lon="11.048775208115835"><ele>1063.0</ele><time>2026-04-07T13:20:43Z</time></trkpt><trkpt lat="45.6258920491022" lon="11.048601832230318"><ele>1063.0</ele><time>2026-04-07T13:20:44Z</time></trkpt><trkpt lat="45.62589304616209" lon="11.048428755171798"><ele>1063.0</ele><time>2026-04-07T13:20:45Z</time></trkpt><trkpt lat="45.62591659520785" lon="11.048269423432934"><ele>1063.0</ele><time>2026-04-07T13:20:46Z</time></trkpt><trkpt lat="45.625956910085215" lon="11.048146822324007"><ele>1063.0</ele><time>2026-04-07T13:20:47Z</time></trkpt><trkpt lat="45.62601590418085" lon="11.04805116593383"><ele>1063.0</ele><time>2026-04-07T13:20:48Z</time></trkpt><trkpt lat="45.62610355415993" lon="11.04798442017665"><ele>1062.75</ele><time>2026-04-07T13:20:49Z</time></trkpt><trkpt lat="45.62620895771024" lon="11.047964500378287"><ele>1062.5</ele><time>2026-04-07T13:20:50Z</time></trkpt><trkpt lat="45.62633385169946" lon="11.047988703646949"><ele>1062.25</ele><time>2026-04-07T13:20:51Z</time></trkpt><trkpt lat="45.626477715769965" lon="11.04802567314935"><ele>1062.0</ele><time>2026-04-07T13:20:52Z</time></trkpt><trkpt lat="45.626638422036024" lon="11.048073044928934"><ele>1062.0</ele><time>2026-04-07T13:20:53Z</time></trkpt><trkpt lat="45.62677891092981" lon="11.048104941870013"><ele>1062.0</ele><time>2026-04-07T13:20:54Z</time></trkpt><trkpt lat="45.62690056975855" lon="11.04811483421537"><ele>1062.0</ele><time>2026-04-07T13:20:55Z</time></trkpt><trkpt lat="45.626995530468946" lon="11.04807556706749"><ele>1062.0</ele><time>2026-04-07T13:20:56Z</time></trkpt><trkpt lat="45.627065333285074" lon="11.048006332441604"><ele>1062.0</ele><time>2026-04-07T13:20:57Z</time></trkpt><trkpt lat="45.62709077422004" lon="11.047882448127787"><ele>1062.75</ele><time>2026-04-07T13:20:58Z</time></trkpt><trkpt lat="45.62706931930192" lon="11.047725374253131"><ele>1063.5</ele><time>2026-04-07T13:20:59Z</time></trkpt><trkpt lat="45.62704067004993" lon="11.047550968176363"><ele>1064.25</ele><time>2026-04-07T13:21:00Z</time></trkpt><trkpt lat="45.62694386335522" lon="11.047344897438926"><ele>1065.0</ele><time>2026-04-07T13:21:01Z</time></trkpt><trkpt lat="45.62686771258902" lon="11.047166966051684"><ele>1065.0</ele><time>2026-04-07T13:21:02Z</time></trkpt><trkpt lat="45.62676783404759" lon="11.046982770260016"><ele>1065.0</ele><time>2026-04-07T13:21:03Z</time></trkpt><trkpt lat="45.62669432386901" lon="11.04676551136816"><ele>1065.0</ele><time>2026-04-07T13:21:04Z</time></trkpt><trkpt lat="45.62662244581817" lon="11.046559556060634"><ele>1065.75</ele><time>2026-04-07T13:21:05Z</time></trkpt><trkpt lat="45.62656806708524" lon="11.046367059935845"><ele>1066.5</ele><time>2026-04-07T13:21:06Z</time></trkpt><trkpt lat="45.62652255051903" lon="11.04617720299369"><ele>1067.25</ele><time>2026-04-07T13:21:07Z</time></trkpt><trkpt lat="45.62647925969805" lon="11.045972864387902"><ele>1068.0</ele><time>2026-04-07T13:21:08Z</time></trkpt><trkpt lat="45.626462824119415" lon="11.045769395090685"><ele>1066.0</ele><time>2026-04-07T13:21:09Z</time></trkpt><trkpt lat="45.6264672995191" lon="11.045585037104031"><ele>1064.0</ele><time>2026-04-07T13:21:10Z</time></trkpt><trkpt lat="45.62646644447199" lon="11.04541602286477"><ele>1062.0</ele><time>2026-04-07T13:21:10.999Z</time></trkpt><trkpt lat="45.62648761076558" lon="11.045263855089578"><ele>1060.0</ele><time>2026-04-07T13:21:11.999Z</time></trkpt><trkpt lat="45.62651897447604" lon="11.045127663127962"><ele>1060.0</ele><time>2026-04-07T13:21:12.999Z</time></trkpt><trkpt lat="45.62659237714218" lon="11.045039667283007"><ele>1060.0</ele><time>2026-04-07T13:21:13.999Z</time></trkpt><trkpt lat="45.62669120677811" lon="11.044967549559852"><ele>1060.0</ele><time>2026-04-07T13:21:14.999Z</time></trkpt><trkpt lat="45.626819810474885" lon="11.044910704231564"><ele>1060.0</ele><time>2026-04-07T13:21:15.999Z</time></trkpt><trkpt lat="45.62695972223775" lon="11.044870059398914"><ele>1052.6666666666665</ele><time>2026-04-07T13:21:16.999Z</time></trkpt><trkpt lat="45.627115701364474" lon="11.044865716622846"><ele>1045.3333333333333</ele><time>2026-04-07T13:21:17.999Z</time></trkpt><trkpt lat="45.62727781526313" lon="11.044884123032855"><ele>1038.0</ele><time>2026-04-07T13:21:18.999Z</time></trkpt><trkpt lat="45.627422837781765" lon="11.044931360665364"><ele>1044.5</ele><time>2026-04-07T13:21:19.999Z</time></trkpt><trkpt lat="45.62755078572087" lon="11.044990484649942"><ele>1051.0</ele><time>2026-04-07T13:21:20.999Z</time></trkpt><trkpt lat="45.627669974298016" lon="11.045068544586027"><ele>1057.5</ele><time>2026-04-07T13:21:21.999Z</time></trkpt><trkpt lat="45.62779395729379" lon="11.045159161726717"><ele>1064.0</ele><time>2026-04-07T13:21:22.999Z</time></trkpt><trkpt lat="45.627920968877035" lon="11.045278234708242"><ele>1064.75</ele><time>2026-04-07T13:21:23.999Z</time></trkpt><trkpt lat="45.62804456658875" lon="11.045373481336357"><ele>1065.5</ele><time>2026-04-07T13:21:24.999Z</time></trkpt><trkpt lat="45.628163847643016" lon="11.045442228310083"><ele>1066.25</ele><time>2026-04-07T13:21:25.999Z</time></trkpt><trkpt lat="45.62826574635335" lon="11.045476817080129"><ele>1067.0</ele><time>2026-04-07T13:21:26.999Z</time></trkpt><trkpt lat="45.62835903454929" lon="11.045492489891164"><ele>1067.0</ele><time>2026-04-07T13:21:27.999Z</time></trkpt><trkpt lat="45.628436329345945" lon="11.045442828437237"><ele>1067.0</ele><time>2026-04-07T13:21:28.999Z</time></trkpt><trkpt lat="45.628481772392014" lon="11.045332305355274"><ele>1067.0</ele><time>2026-04-07T13:21:29.999Z</time></trkpt><trkpt lat="45.62849629953814" lon="11.045192610094949"><ele>1067.0</ele><time>2026-04-07T13:21:30.999Z</time></trkpt><trkpt lat="45.62846202333625" lon="11.045033435496421"><ele>1067.0</ele><time>2026-04-07T13:21:31.999Z</time></trkpt><trkpt lat="45.628406806294" lon="11.044854390870672"><ele>1063.25</ele><time>2026-04-07T13:21:32.999Z</time></trkpt><trkpt lat="45.62839609008011" lon="11.044654205872073"><ele>1059.5</ele><time>2026-04-07T13:21:33.999Z</time></trkpt><trkpt lat="45.62838628731726" lon="11.04446313579525"><ele>1055.75</ele><time>2026-04-07T13:21:34.999Z</time></trkpt><trkpt lat="45.62836494885173" lon="11.04429402295462"><ele>1052.0</ele><time>2026-04-07T13:21:35.999Z</time></trkpt><trkpt lat="45.628378879874795" lon="11.0441449296211"><ele>1051.8</ele><time>2026-04-07T13:21:36.999Z</time></trkpt><trkpt lat="45.62839943278629" lon="11.044019742511708"><ele>1051.6</ele><time>2026-04-07T13:21:37.999Z</time></trkpt><trkpt lat="45.6284551509004" lon="11.043940294490575"><ele>1051.3999999999999</ele><time>2026-04-07T13:21:38.999Z</time></trkpt><trkpt lat="45.62854095316177" lon="11.043901030148623"><ele>1051.2</ele><time>2026-04-07T13:21:39.999Z</time></trkpt><trkpt lat="45.62865728295623" lon="11.043871626268468"><ele>1051.0</ele><time>2026-04-07T13:21:40.999Z</time></trkpt><trkpt lat="45.62879961162029" lon="11.043841012776022"><ele>1051.0</ele><time>2026-04-07T13:21:41.999Z</time></trkpt><trkpt lat="45.628946011880714" lon="11.043845034657412"><ele>1051.0</ele><time>2026-04-07T13:21:42.999Z</time></trkpt><trkpt lat="45.629111405126956" lon="11.043873989511676"><ele>1051.0</ele><time>2026-04-07T13:21:43.999Z</time></trkpt><trkpt lat="45.629296292162124" lon="11.043932065013177"><ele>1057.6666666666665</ele><time>2026-04-07T13:21:44.999Z</time></trkpt><trkpt lat="45.62948525256406" lon="11.04398778393399"><ele>1064.3333333333333</ele><time>2026-04-07T13:21:45.999Z</time></trkpt><trkpt lat="45.62964744615171" lon="11.044041145611102"><ele>1071.0</ele><time>2026-04-07T13:21:46.999Z</time></trkpt><trkpt lat="45.62979224169563" lon="11.044094422104596"><ele>1071.0</ele><time>2026-04-07T13:21:47.999Z</time></trkpt><trkpt lat="45.62991310805496" lon="11.044149347616196"><ele>1071.0</ele><time>2026-04-07T13:21:48.999Z</time></trkpt><trkpt lat="45.63000659340105" lon="11.044203586915911"><ele>1071.0</ele><time>2026-04-07T13:21:49.999Z</time></trkpt><trkpt lat="45.63009540349146" lon="11.044207505126984"><ele>1071.0</ele><time>2026-04-07T13:21:50.999Z</time></trkpt><trkpt lat="45.630168953995366" lon="11.04414530695534"><ele>1071.0</ele><time>2026-04-07T13:21:51.999Z</time></trkpt><trkpt lat="45.63022112750862" lon="11.044018827989204"><ele>1071.0</ele><time>2026-04-07T13:21:52.999Z</time></trkpt><trkpt lat="45.6302474093191" lon="11.043880579313246"><ele>1071.0</ele><time>2026-04-07T13:21:53.999Z</time></trkpt><trkpt lat="45.63025536673914" lon="11.043743972209583"><ele>1071.0</ele><time>2026-04-07T13:21:54.999Z</time></trkpt><trkpt lat="45.63020917841079" lon="11.043619344572761"><ele>1071.0</ele><time>2026-04-07T13:21:55.998Z</time></trkpt><trkpt lat="45.63012584139732" lon="11.04351880024846"><ele>1071.0</ele><time>2026-04-07T13:21:56.998Z</time></trkpt><trkpt lat="45.630021312791925" lon="11.043417705435282"><ele>1071.0</ele><time>2026-04-07T13:21:57.998Z</time></trkpt><trkpt lat="45.629902556994075" lon="11.043309889931983"><ele>1071.0</ele><time>2026-04-07T13:21:58.998Z</time></trkpt><trkpt lat="45.62978751214081" lon="11.043176998034326"><ele>1071.0</ele><time>2026-04-07T13:21:59.998Z</time></trkpt><trkpt lat="45.62968610407614" lon="11.043001033476765"><ele>1071.0</ele><time>2026-04-07T13:22:00.998Z</time></trkpt><trkpt lat="45.629610461812575" lon="11.042827162305516"><ele>1072.5</ele><time>2026-04-07T13:22:01.998Z</time></trkpt><trkpt lat="45.62955270278031" lon="11.042694428637734"><ele>1074.0</ele><time>2026-04-07T13:22:02.998Z</time></trkpt><trkpt lat="45.6295081859266" lon="11.04259911533669"><ele>1075.5</ele><time>2026-04-07T13:22:03.998Z</time></trkpt><trkpt lat="45.629468481278096" lon="11.042525580559449"><ele>1077.0</ele><time>2026-04-07T13:22:04.998Z</time></trkpt><trkpt lat="45.62941752030181" lon="11.042431634340067"><ele>1078.5</ele><time>2026-04-07T13:22:06.998Z</time></trkpt><trkpt lat="45.62935171759806" lon="11.042317005059033"><ele>1080.0</ele><time>2026-04-07T13:23:33.999Z</time></trkpt><trkpt lat="45.62928814768621" lon="11.042213292779648"><ele>1080.0</ele><time>2026-04-07T13:23:34.999Z</time></trkpt><trkpt lat="45.629213509166064" lon="11.042092562556993"><ele>1080.0</ele><time>2026-04-07T13:23:35.999Z</time></trkpt><trkpt lat="45.629136797633606" lon="11.041967781010316"><ele>1080.0</ele><time>2026-04-07T13:23:36.999Z</time></trkpt><trkpt lat="45.62906476347808" lon="11.041843425884526"><ele>1080.0</ele><time>2026-04-07T13:23:37.999Z</time></trkpt><trkpt lat="45.62900010130967" lon="11.041719661056648"><ele>1084.0</ele><time>2026-04-07T13:23:38.999Z</time></trkpt><trkpt lat="45.628946158033195" lon="11.041590028366043"><ele>1088.0</ele><time>2026-04-07T13:23:39.999Z</time></trkpt><trkpt lat="45.62889871987887" lon="11.041445846909209"><ele>1092.0</ele><time>2026-04-07T13:23:40.999Z</time></trkpt><trkpt lat="45.62884803683715" lon="11.041312857404778"><ele>1096.0</ele><time>2026-04-07T13:23:41.999Z</time></trkpt><trkpt lat="45.62880557783814" lon="11.041195649228749"><ele>1100.0</ele><time>2026-04-07T13:23:42.999Z</time></trkpt><trkpt lat="45.62875832368517" lon="11.041088700394708"><ele>1100.0</ele><time>2026-04-07T13:23:43.999Z</time></trkpt><trkpt lat="45.62864901256648" lon="11.041039857375658"><ele>1100.0</ele><time>2026-04-07T13:23:44.999Z</time></trkpt><trkpt lat="45.62853201614662" lon="11.041106893758055"><ele>1100.0</ele><time>2026-04-07T13:23:45.999Z</time></trkpt><trkpt lat="45.62842391477309" lon="11.0411445326222"><ele>1100.0</ele><time>2026-04-07T13:23:46.999Z</time></trkpt><trkpt lat="45.628310154607036" lon="11.041188415528774"><ele>1094.0</ele><time>2026-04-07T13:23:47.999Z</time></trkpt><trkpt lat="45.62819414727228" lon="11.041177782046105"><ele>1088.0</ele><time>2026-04-07T13:23:48.999Z</time></trkpt><trkpt lat="45.62807571272555" lon="11.041170317177308"><ele>1082.0</ele><time>2026-04-07T13:23:49.999Z</time></trkpt><trkpt lat="45.62793560920261" lon="11.041173293413465"><ele>1076.0</ele><time>2026-04-07T13:23:50.999Z</time></trkpt><trkpt lat="45.62778422568886" lon="11.041117678646414"><ele>1072.6666666666667</ele><time>2026-04-07T13:23:51.999Z</time></trkpt><trkpt lat="45.62762576070085" lon="11.04107898302371"><ele>1069.3333333333333</ele><time>2026-04-07T13:23:52.999Z</time></trkpt><trkpt lat="45.627465387695175" lon="11.04102419303528"><ele>1066.0</ele><time>2026-04-07T13:23:53.999Z</time></trkpt><trkpt lat="45.62732155826628" lon="11.040950099086473"><ele>1066.0</ele><time>2026-04-07T13:23:54.999Z</time></trkpt><trkpt lat="45.627160488019754" lon="11.040825879555749"><ele>1066.0</ele><time>2026-04-07T13:23:55.999Z</time></trkpt><trkpt lat="45.626992337150966" lon="11.040672384187957"><ele>1066.0</ele><time>2026-04-07T13:23:56.999Z</time></trkpt><trkpt lat="45.62680771353821" lon="11.040526556704599"><ele>1071.0</ele><time>2026-04-07T13:23:57.999Z</time></trkpt><trkpt lat="45.62664143511538" lon="11.040351620256626"><ele>1076.0</ele><time>2026-04-07T13:23:58.999Z</time></trkpt><trkpt lat="45.62646495833774" lon="11.040229301208631"><ele>1081.0</ele><time>2026-04-07T13:23:59.998Z</time></trkpt><trkpt lat="45.62631927458395" lon="11.040089010531613"><ele>1081.0</ele><time>2026-04-07T13:24:00.998Z</time></trkpt><trkpt lat="45.62617505415747" lon="11.039948838220813"><ele>1081.0</ele><time>2026-04-07T13:24:01.998Z</time></trkpt><trkpt lat="45.62602761168365" lon="11.03983762431754"><ele>1081.0</ele><time>2026-04-07T13:24:02.998Z</time></trkpt><trkpt lat="45.625879123183076" lon="11.039764546460203"><ele>1081.0</ele><time>2026-04-07T13:24:03.998Z</time></trkpt><trkpt lat="45.625753770896004" lon="11.039685036866942"><ele>1081.0</ele><time>2026-04-07T13:24:04.998Z</time></trkpt><trkpt lat="45.625644563400435" lon="11.039591793155726"><ele>1081.0</ele><time>2026-04-07T13:24:05.998Z</time></trkpt><trkpt lat="45.625554405292036" lon="11.039463929254271"><ele>1081.0</ele><time>2026-04-07T13:24:06.998Z</time></trkpt><trkpt lat="45.625469459514164" lon="11.03930683239282"><ele>1082.75</ele><time>2026-04-07T13:24:07.998Z</time></trkpt><trkpt lat="45.625396858006525" lon="11.039130861674506"><ele>1084.5</ele><time>2026-04-07T13:24:08.998Z</time></trkpt><trkpt lat="45.62532498171066" lon="11.03898140902319"><ele>1086.25</ele><time>2026-04-07T13:24:09.998Z</time></trkpt><trkpt lat="45.625285522115156" lon="11.03882163550955"><ele>1088.0</ele><time>2026-04-07T13:24:10.998Z</time></trkpt><trkpt lat="45.62528390262389" lon="11.038661864942226"><ele>1087.5</ele><time>2026-04-07T13:24:11.998Z</time></trkpt><trkpt lat="45.62530141359388" lon="11.038489642787649"><ele>1087.0</ele><time>2026-04-07T13:24:12.998Z</time></trkpt><trkpt lat="45.625320842106454" lon="11.03828671834375"><ele>1086.5</ele><time>2026-04-07T13:24:13.998Z</time></trkpt><trkpt lat="45.625330889393325" lon="11.038058904544"><ele>1086.0</ele><time>2026-04-07T13:24:14.998Z</time></trkpt><trkpt lat="45.62535888471577" lon="11.03781672430038"><ele>1086.0</ele><time>2026-04-07T13:24:15.998Z</time></trkpt><trkpt lat="45.625401314269844" lon="11.037583258271603"><ele>1086.0</ele><time>2026-04-07T13:24:16.998Z</time></trkpt><trkpt lat="45.62544689412508" lon="11.037387666300475"><ele>1086.0</ele><time>2026-04-07T13:24:17.998Z</time></trkpt><trkpt lat="45.62549124124919" lon="11.037216081796789"><ele>1086.0</ele><time>2026-04-07T13:24:18.998Z</time></trkpt><trkpt lat="45.62551347150435" lon="11.03706950358765"><ele>1085.6</ele><time>2026-04-07T13:24:19.998Z</time></trkpt><trkpt lat="45.62549695753564" lon="11.036942703161328"><ele>1085.1999999999998</ele><time>2026-04-07T13:24:20.998Z</time></trkpt><trkpt lat="45.62543838197346" lon="11.036837910302943"><ele>1084.8000000000002</ele><time>2026-04-07T13:24:21.998Z</time></trkpt><trkpt lat="45.62535841895058" lon="11.036758918670484"><ele>1084.4</ele><time>2026-04-07T13:24:22.998Z</time></trkpt><trkpt lat="45.625244478946655" lon="11.03674940290628"><ele>1084.0</ele><time>2026-04-07T13:24:23.998Z</time></trkpt><trkpt lat="45.62510724682398" lon="11.03678649424082"><ele>1080.75</ele><time>2026-04-07T13:24:24.998Z</time></trkpt><trkpt lat="45.624969047222955" lon="11.036833620125158"><ele>1077.5</ele><time>2026-04-07T13:24:25.998Z</time></trkpt><trkpt lat="45.62486290130157" lon="11.036956726685222"><ele>1074.25</ele><time>2026-04-07T13:24:26.998Z</time></trkpt><trkpt lat="45.62477956205835" lon="11.037083231499825"><ele>1071.0</ele><time>2026-04-07T13:24:27.998Z</time></trkpt><trkpt lat="45.62468716093337" lon="11.03717639561066"><ele>1071.0</ele><time>2026-04-07T13:24:28.998Z</time></trkpt><trkpt lat="45.62459332067752" lon="11.037249906266286"><ele>1071.0</ele><time>2026-04-07T13:24:29.998Z</time></trkpt><trkpt lat="45.624498604711135" lon="11.037290809323832"><ele>1071.0</ele><time>2026-04-07T13:24:30.998Z</time></trkpt><trkpt lat="45.624408076572294" lon="11.037290742505094"><ele>1071.0</ele><time>2026-04-07T13:24:31.998Z</time></trkpt><trkpt lat="45.624313900853856" lon="11.037249625859543"><ele>1071.0</ele><time>2026-04-07T13:24:32.998Z</time></trkpt><trkpt lat="45.624230244333525" lon="11.037170624619842"><ele>1069.3999999999999</ele><time>2026-04-07T13:24:33.998Z</time></trkpt><trkpt lat="45.624159852366816" lon="11.037066900499877"><ele>1067.8</ele><time>2026-04-07T13:24:34.998Z</time></trkpt><trkpt lat="45.624097566855646" lon="11.036947353600198"><ele>1066.1999999999998</ele><time>2026-04-07T13:24:35.998Z</time></trkpt><trkpt lat="45.624095010285224" lon="11.036789199181555"><ele>1064.6</ele><time>2026-04-07T13:24:36.998Z</time></trkpt><trkpt lat="45.62405128380355" lon="11.036665769836768"><ele>1063.0</ele><time>2026-04-07T13:24:37.998Z</time></trkpt><trkpt lat="45.62400661359868" lon="11.036552374469736"><ele>1065.2</ele><time>2026-04-07T13:24:38.998Z</time></trkpt><trkpt lat="45.62392417062176" lon="11.036482807726049"><ele>1067.4</ele><time>2026-04-07T13:24:39.998Z</time></trkpt><trkpt lat="45.62381302673928" lon="11.03646146882698"><ele>1069.6000000000001</ele><time>2026-04-07T13:24:40.998Z</time></trkpt><trkpt lat="45.623691483899584" lon="11.036500111576643"><ele>1071.8</ele><time>2026-04-07T13:24:42Z</time></trkpt><trkpt lat="45.62358040038436" lon="11.036530356006686"><ele>1074.0</ele><time>2026-04-07T13:24:43Z</time></trkpt><trkpt lat="45.6234714865638" lon="11.036553695979135"><ele>1074.0</ele><time>2026-04-07T13:24:44Z</time></trkpt><trkpt lat="45.623386685079424" lon="11.036543202623037"><ele>1074.0</ele><time>2026-04-07T13:24:45Z</time></trkpt><trkpt lat="45.62331177786996" lon="11.036496902871416"><ele>1074.0</ele><time>2026-04-07T13:24:46Z</time></trkpt><trkpt lat="45.62326178395703" lon="11.036420829421134"><ele>1074.0</ele><time>2026-04-07T13:24:47Z</time></trkpt><trkpt lat="45.62323217341735" lon="11.03625544942871"><ele>1074.0</ele><time>2026-04-07T13:24:49Z</time></trkpt><trkpt lat="45.623205120821325" lon="11.036141405236515"><ele>1074.0</ele><time>2026-04-07T13:24:51Z</time></trkpt><trkpt lat="45.62341952223809" lon="11.036073093027534"><ele>1074.0</ele><time>2026-04-07T13:24:53Z</time></trkpt><trkpt lat="45.62353775415997" lon="11.036082892527629"><ele>1074.0</ele><time>2026-04-07T13:24:54Z</time></trkpt><trkpt lat="45.62368123987092" lon="11.036092869428845"><ele>1074.0</ele><time>2026-04-07T13:24:55Z</time></trkpt><trkpt lat="45.62384442891887" lon="11.036121159244052"><ele>1074.0</ele><time>2026-04-07T13:24:56Z</time></trkpt><trkpt lat="45.62402446982371" lon="11.03616431643778"><ele>1079.0</ele><time>2026-04-07T13:24:57Z</time></trkpt><trkpt lat="45.624204745472284" lon="11.036229271545325"><ele>1084.0</ele><time>2026-04-07T13:24:58Z</time></trkpt><trkpt lat="45.62439449741432" lon="11.0362844516287"><ele>1089.0</ele><time>2026-04-07T13:24:59Z</time></trkpt><trkpt lat="45.624583845295376" lon="11.036319984773003"><ele>1091.0</ele><time>2026-04-07T13:25:00Z</time></trkpt><trkpt lat="45.62478965154748" lon="11.036314271949577"><ele>1093.0</ele><time>2026-04-07T13:25:01Z</time></trkpt><trkpt lat="45.62500360339254" lon="11.036305041505221"><ele>1095.0</ele><time>2026-04-07T13:25:02Z</time></trkpt><trkpt lat="45.62521369154336" lon="11.036280973008825"><ele>1095.0</ele><time>2026-04-07T13:25:03Z</time></trkpt><trkpt lat="45.625426867153536" lon="11.036218150258094"><ele>1095.0</ele><time>2026-04-07T13:25:04Z</time></trkpt><trkpt lat="45.62561063334935" lon="11.036148208168795"><ele>1095.0</ele><time>2026-04-07T13:25:05Z</time></trkpt><trkpt lat="45.6257743166747" lon="11.036094947743972"><ele>1095.0</ele><time>2026-04-07T13:25:06Z</time></trkpt><trkpt lat="45.62591844911674" lon="11.03606178352822"><ele>1095.0</ele><time>2026-04-07T13:25:07Z</time></trkpt><trkpt lat="45.6260284080464" lon="11.036028882665853"><ele>1095.0</ele><time>2026-04-07T13:25:08Z</time></trkpt><trkpt lat="45.626112519331805" lon="11.035976358598182"><ele>1095.0</ele><time>2026-04-07T13:25:09Z</time></trkpt><trkpt lat="45.62616341336925" lon="11.035874213664975"><ele>1095.0</ele><time>2026-04-07T13:25:10Z</time></trkpt><trkpt lat="45.626164035514" lon="11.03573672124321"><ele>1099.25</ele><time>2026-04-07T13:25:11Z</time></trkpt><trkpt lat="45.626116851887566" lon="11.035605373525572"><ele>1103.5</ele><time>2026-04-07T13:25:12Z</time></trkpt><trkpt lat="45.62602646984758" lon="11.035502241646505"><ele>1107.75</ele><time>2026-04-07T13:25:13Z</time></trkpt><trkpt lat="45.62590393907229" lon="11.035470124703405"><ele>1112.0</ele><time>2026-04-07T13:25:14Z</time></trkpt><trkpt lat="45.62577082346089" lon="11.035516763564658"><ele>1112.0</ele><time>2026-04-07T13:25:15Z</time></trkpt><trkpt lat="45.62563957094654" lon="11.035620604776822"><ele>1112.0</ele><time>2026-04-07T13:25:16Z</time></trkpt><trkpt lat="45.62549275676071" lon="11.03573624812928"><ele>1112.0</ele><time>2026-04-07T13:25:17Z</time></trkpt><trkpt lat="45.625351566571716" lon="11.035814538867825"><ele>1114.0</ele><time>2026-04-07T13:25:18Z</time></trkpt><trkpt lat="45.62521676510349" lon="11.035845011472901"><ele>1116.0</ele><time>2026-04-07T13:25:19Z</time></trkpt><trkpt lat="45.625073877848116" lon="11.035823607114873"><ele>1118.0</ele><time>2026-04-07T13:25:20Z</time></trkpt><trkpt lat="45.62492502542982" lon="11.035717596782716"><ele>1120.0</ele><time>2026-04-07T13:25:20.999Z</time></trkpt><trkpt lat="45.62475183341019" lon="11.03562761894855"><ele>1120.0</ele><time>2026-04-07T13:25:21.999Z</time></trkpt><trkpt lat="45.62454048766445" lon="11.035533127630377"><ele>1120.0</ele><time>2026-04-07T13:25:22.999Z</time></trkpt><trkpt lat="45.62439130282132" lon="11.035467888817685"><ele>1120.0</ele><time>2026-04-07T13:25:23.999Z</time></trkpt><trkpt lat="45.624269090670964" lon="11.035384215287074"><ele>1119.2</ele><time>2026-04-07T13:25:24.999Z</time></trkpt><trkpt lat="45.6241601358497" lon="11.035330098891123"><ele>1118.4</ele><time>2026-04-07T13:25:25.999Z</time></trkpt><trkpt lat="45.62407575293832" lon="11.035282933164654"><ele>1117.6</ele><time>2026-04-07T13:25:26.999Z</time></trkpt><trkpt lat="45.62401059036433" lon="11.035232278687067"><ele>1116.8</ele><time>2026-04-07T13:25:27.999Z</time></trkpt><trkpt lat="45.62399312452069" lon="11.035116942659169"><ele>1116.0</ele><time>2026-04-07T13:25:28.999Z</time></trkpt><trkpt lat="45.62400988610993" lon="11.034989310740247"><ele>1122.75</ele><time>2026-04-07T13:25:29.999Z</time></trkpt><trkpt lat="45.62407827417105" lon="11.034884361475433"><ele>1129.5</ele><time>2026-04-07T13:25:30.999Z</time></trkpt><trkpt lat="45.62418453509914" lon="11.03484573246616"><ele>1136.25</ele><time>2026-04-07T13:25:31.999Z</time></trkpt><trkpt lat="45.62428677977244" lon="11.034917692238421"><ele>1143.0</ele><time>2026-04-07T13:25:32.999Z</time></trkpt><trkpt lat="45.62443049651658" lon="11.034961149178034"><ele>1135.3333333333333</ele><time>2026-04-07T13:25:33.999Z</time></trkpt><trkpt lat="45.62457987681754" lon="11.035050484710712"><ele>1127.6666666666665</ele><time>2026-04-07T13:25:34.999Z</time></trkpt><trkpt lat="45.62474625973994" lon="11.035114376677694"><ele>1120.0</ele><time>2026-04-07T13:25:35.999Z</time></trkpt><trkpt lat="45.62493859249469" lon="11.035153421139418"><ele>1120.0</ele><time>2026-04-07T13:25:36.999Z</time></trkpt><trkpt lat="45.6251333496103" lon="11.035131138613753"><ele>1120.0</ele><time>2026-04-07T13:25:37.999Z</time></trkpt><trkpt lat="45.625321905298705" lon="11.03505262479591"><ele>1120.0</ele><time>2026-04-07T13:25:38.999Z</time></trkpt><trkpt lat="45.62550324532071" lon="11.034899610811632"><ele>1123.3333333333333</ele><time>2026-04-07T13:25:39.999Z</time></trkpt><trkpt lat="45.62563661376476" lon="11.034714865285974"><ele>1126.6666666666667</ele><time>2026-04-07T13:25:40.999Z</time></trkpt><trkpt lat="45.62574517446514" lon="11.034533002315849"><ele>1130.0</ele><time>2026-04-07T13:25:41.999Z</time></trkpt><trkpt lat="45.62582879272499" lon="11.03437882130168"><ele>1130.0</ele><time>2026-04-07T13:25:42.999Z</time></trkpt><trkpt lat="45.62592942134324" lon="11.034304480329356"><ele>1130.0</ele><time>2026-04-07T13:25:43.999Z</time></trkpt><trkpt lat="45.626065841666865" lon="11.034299063914156"><ele>1130.0</ele><time>2026-04-07T13:25:44.999Z</time></trkpt><trkpt lat="45.626219832959535" lon="11.034270943666304"><ele>1130.0</ele><time>2026-04-07T13:25:45.999Z</time></trkpt><trkpt lat="45.62636369191189" lon="11.034303185182322"><ele>1130.8</ele><time>2026-04-07T13:25:46.999Z</time></trkpt><trkpt lat="45.626464382753994" lon="11.034314646956332"><ele>1131.6</ele><time>2026-04-07T13:25:47.999Z</time></trkpt><trkpt lat="45.62655907523827" lon="11.034363325885195"><ele>1132.4</ele><time>2026-04-07T13:25:49.999Z</time></trkpt><trkpt lat="45.62662628944296" lon="11.034262712758851"><ele>1133.2</ele><time>2026-04-07T13:25:51.999Z</time></trkpt><trkpt lat="45.626575322679" lon="11.034094829420553"><ele>1134.0</ele><time>2026-04-07T13:25:53.999Z</time></trkpt><trkpt lat="45.6265101192604" lon="11.034004378283568"><ele>1134.0</ele><time>2026-04-07T13:25:54.999Z</time></trkpt><trkpt lat="45.62644065720991" lon="11.033900775202245"><ele>1134.0</ele><time>2026-04-07T13:25:55.999Z</time></trkpt><trkpt lat="45.6263525629591" lon="11.033801009806705"><ele>1134.0</ele><time>2026-04-07T13:25:56.999Z</time></trkpt><trkpt lat="45.626272260549804" lon="11.033724721495052"><ele>1134.0</ele><time>2026-04-07T13:25:57.999Z</time></trkpt><trkpt lat="45.626209817174455" lon="11.033665879075864"><ele>1134.0</ele><time>2026-04-07T13:25:58.999Z</time></trkpt><trkpt lat="45.62615439396717" lon="11.033581387092548"><ele>1132.4</ele><time>2026-04-07T13:25:59.999Z</time></trkpt><trkpt lat="45.626033471993296" lon="11.033624792283407"><ele>1130.8000000000002</ele><time>2026-04-07T13:26:00.999Z</time></trkpt><trkpt lat="45.62592748684622" lon="11.033649788653358"><ele>1129.1999999999998</ele><time>2026-04-07T13:26:01.999Z</time></trkpt><trkpt lat="45.62583972875832" lon="11.033634864876944"><ele>1127.6</ele><time>2026-04-07T13:26:02.999Z</time></trkpt><trkpt lat="45.62576463918081" lon="11.0335574986393"><ele>1126.0</ele><time>2026-04-07T13:26:03.998Z</time></trkpt><trkpt lat="45.62569765688501" lon="11.033442950428308"><ele>1126.0</ele><time>2026-04-07T13:26:04.998Z</time></trkpt><trkpt lat="45.62564057885957" lon="11.033309283734889"><ele>1126.0</ele><time>2026-04-07T13:26:05.998Z</time></trkpt><trkpt lat="45.625588285931116" lon="11.033152020548318"><ele>1126.0</ele><time>2026-04-07T13:26:06.998Z</time></trkpt><trkpt lat="45.62554947083208" lon="11.033007812175116"><ele>1126.0</ele><time>2026-04-07T13:26:07.998Z</time></trkpt><trkpt lat="45.62551834865891" lon="11.032859955692013"><ele>1126.0</ele><time>2026-04-07T13:26:08.998Z</time></trkpt><trkpt lat="45.6254780700366" lon="11.032767361553239"><ele>1125.0</ele><time>2026-04-07T13:26:09.998Z</time></trkpt><trkpt lat="45.62540835125857" lon="11.032703980213403"><ele>1124.0</ele><time>2026-04-07T13:26:10.998Z</time></trkpt><trkpt lat="45.62530411429012" lon="11.032754220539273"><ele>1123.0</ele><time>2026-04-07T13:26:11.998Z</time></trkpt><trkpt lat="45.625206652243044" lon="11.032786318683792"><ele>1122.0</ele><time>2026-04-07T13:26:12.998Z</time></trkpt><trkpt lat="45.625127522955864" lon="11.03280526722262"><ele>1121.0</ele><time>2026-04-07T13:26:13.998Z</time></trkpt><trkpt lat="45.6250388918487" lon="11.032744345545455"><ele>1121.0</ele><time>2026-04-07T13:26:15.998Z</time></trkpt><trkpt lat="45.625193833700806" lon="11.032766099448953"><ele>1121.0</ele><time>2026-04-07T13:26:20.998Z</time></trkpt><trkpt lat="45.62532075380626" lon="11.032703137003734"><ele>1121.0</ele><time>2026-04-07T13:26:21.998Z</time></trkpt><trkpt lat="45.625412934701835" lon="11.032676546682726"><ele>1121.0</ele><time>2026-04-07T13:26:22.998Z</time></trkpt><trkpt lat="45.625492162452936" lon="11.032700699979895"><ele>1122.0</ele><time>2026-04-07T13:26:23.998Z</time></trkpt><trkpt lat="45.62556065564427" lon="11.032782369922483"><ele>1123.0</ele><time>2026-04-07T13:26:24.998Z</time></trkpt><trkpt lat="45.625596904728795" lon="11.032931999762456"><ele>1124.0</ele><time>2026-04-07T13:26:25.998Z</time></trkpt><trkpt lat="45.62566178812244" lon="11.033078055201562"><ele>1125.0</ele><time>2026-04-07T13:26:26.998Z</time></trkpt><trkpt lat="45.62572261132227" lon="11.033233875539946"><ele>1126.0</ele><time>2026-04-07T13:26:27.998Z</time></trkpt><trkpt lat="45.625799679487685" lon="11.033341105612132"><ele>1126.0</ele><time>2026-04-07T13:26:28.998Z</time></trkpt><trkpt lat="45.62590567684256" lon="11.033400320797707"><ele>1126.0</ele><time>2026-04-07T13:26:29.998Z</time></trkpt><trkpt lat="45.62605122447663" lon="11.033402526591676"><ele>1126.0</ele><time>2026-04-07T13:26:30.998Z</time></trkpt><trkpt lat="45.626198582792334" lon="11.033368074061032"><ele>1126.0</ele><time>2026-04-07T13:26:31.998Z</time></trkpt><trkpt lat="45.62635166074293" lon="11.033285716368601"><ele>1122.75</ele><time>2026-04-07T13:26:32.998Z</time></trkpt><trkpt lat="45.62647960808464" lon="11.033133361798622"><ele>1119.5</ele><time>2026-04-07T13:26:33.998Z</time></trkpt><trkpt lat="45.626590894094356" lon="11.0329810787852"><ele>1116.25</ele><time>2026-04-07T13:26:34.998Z</time></trkpt><trkpt lat="45.62671722806818" lon="11.032950044538204"><ele>1113.0</ele><time>2026-04-07T13:26:35.998Z</time></trkpt><trkpt lat="45.6268583874402" lon="11.032932468564525"><ele>1117.75</ele><time>2026-04-07T13:26:36.998Z</time></trkpt><trkpt lat="45.627003830708716" lon="11.032864830379628"><ele>1122.5</ele><time>2026-04-07T13:26:37.998Z</time></trkpt><trkpt lat="45.62713060748259" lon="11.032774167150201"><ele>1127.25</ele><time>2026-04-07T13:26:38.998Z</time></trkpt><trkpt lat="45.627239710303336" lon="11.032670589756142"><ele>1132.0</ele><time>2026-04-07T13:26:39.998Z</time></trkpt><trkpt lat="45.62733038190763" lon="11.032560444433862"><ele>1126.5</ele><time>2026-04-07T13:26:40.998Z</time></trkpt><trkpt lat="45.627401516102594" lon="11.03241287685404"><ele>1121.0</ele><time>2026-04-07T13:26:41.998Z</time></trkpt><trkpt lat="45.62745222245331" lon="11.032243283398335"><ele>1115.5</ele><time>2026-04-07T13:26:42.998Z</time></trkpt><trkpt lat="45.627484103634316" lon="11.03208189954343"><ele>1110.0</ele><time>2026-04-07T13:26:43.998Z</time></trkpt><trkpt lat="45.627532051999935" lon="11.03197025958135"><ele>1110.0</ele><time>2026-04-07T13:26:44.998Z</time></trkpt><trkpt lat="45.62758650069738" lon="11.03190204022512"><ele>1110.0</ele><time>2026-04-07T13:26:45.998Z</time></trkpt><trkpt lat="45.62766771649206" lon="11.0318909497261"><ele>1110.0</ele><time>2026-04-07T13:26:46.998Z</time></trkpt><trkpt lat="45.62775002772284" lon="11.03192336627357"><ele>1110.0</ele><time>2026-04-07T13:26:48Z</time></trkpt><trkpt lat="45.62782456189821" lon="11.031994734713944"><ele>1110.0</ele><time>2026-04-07T13:26:49Z</time></trkpt><trkpt lat="45.62786837664198" lon="11.032129639853304"><ele>1110.0</ele><time>2026-04-07T13:26:50Z</time></trkpt><trkpt lat="45.62792929957611" lon="11.03227376765227"><ele>1109.2</ele><time>2026-04-07T13:26:51Z</time></trkpt><trkpt lat="45.62797584269493" lon="11.032424782754472"><ele>1108.4</ele><time>2026-04-07T13:26:52Z</time></trkpt><trkpt lat="45.628027661501584" lon="11.032542797125123"><ele>1107.6</ele><time>2026-04-07T13:26:53Z</time></trkpt><trkpt lat="45.628087290933735" lon="11.03262800178263"><ele>1106.8</ele><time>2026-04-07T13:26:54Z</time></trkpt><trkpt lat="45.628184435986384" lon="11.032676579372815"><ele>1106.0</ele><time>2026-04-07T13:26:55Z</time></trkpt><trkpt lat="45.62829649838152" lon="11.032668114546626"><ele>1106.0</ele><time>2026-04-07T13:26:56Z</time></trkpt><trkpt lat="45.62838354543422" lon="11.032618893985697"><ele>1106.0</ele><time>2026-04-07T13:26:57Z</time></trkpt><trkpt lat="45.62846107862209" lon="11.032517609105167"><ele>1106.0</ele><time>2026-04-07T13:26:58Z</time></trkpt><trkpt lat="45.62852685283239" lon="11.032423450829432"><ele>1106.0</ele><time>2026-04-07T13:26:59Z</time></trkpt><trkpt lat="45.62861599341847" lon="11.032256973793203"><ele>1106.0</ele><time>2026-04-07T13:27:00Z</time></trkpt><trkpt lat="45.62869337701027" lon="11.032116166022394"><ele>1105.5</ele><time>2026-04-07T13:27:01Z</time></trkpt><trkpt lat="45.62879712321428" lon="11.032031173515549"><ele>1105.0</ele><time>2026-04-07T13:27:02Z</time></trkpt><trkpt lat="45.628902083058364" lon="11.031962811652674"><ele>1104.5</ele><time>2026-04-07T13:27:03Z</time></trkpt><trkpt lat="45.628999897481236" lon="11.031913124265131"><ele>1104.0</ele><time>2026-04-07T13:27:04Z</time></trkpt><trkpt lat="45.629102991164494" lon="11.031972773855347"><ele>1104.0</ele><time>2026-04-07T13:27:05Z</time></trkpt><trkpt lat="45.62921853299856" lon="11.03201075824787"><ele>1104.0</ele><time>2026-04-07T13:27:06Z</time></trkpt><trkpt lat="45.62933377551961" lon="11.032069203096249"><ele>1104.0</ele><time>2026-04-07T13:27:07Z</time></trkpt><trkpt lat="45.629459715237566" lon="11.03205985568618"><ele>1104.0</ele><time>2026-04-07T13:27:08Z</time></trkpt><trkpt lat="45.62958252474513" lon="11.031980306679307"><ele>1104.75</ele><time>2026-04-07T13:27:09Z</time></trkpt><trkpt lat="45.6296806735312" lon="11.03184857064985"><ele>1105.5</ele><time>2026-04-07T13:27:10Z</time></trkpt><trkpt lat="45.62975129769988" lon="11.031669791482303"><ele>1106.25</ele><time>2026-04-07T13:27:11Z</time></trkpt><trkpt lat="45.629786563994735" lon="11.031463512779878"><ele>1107.0</ele><time>2026-04-07T13:27:12Z</time></trkpt><trkpt lat="45.62980456316476" lon="11.031261644905337"><ele>1107.0</ele><time>2026-04-07T13:27:13Z</time></trkpt><trkpt lat="45.6298550772283" lon="11.031106453509786"><ele>1107.0</ele><time>2026-04-07T13:27:14Z</time></trkpt><trkpt lat="45.62993296126463" lon="11.031009715862629"><ele>1107.0</ele><time>2026-04-07T13:27:15Z</time></trkpt><trkpt lat="45.63004643371915" lon="11.031000314656973"><ele>1107.0</ele><time>2026-04-07T13:27:16Z</time></trkpt><trkpt lat="45.630179073938194" lon="11.030938338904004"><ele>1107.0</ele><time>2026-04-07T13:27:17Z</time></trkpt><trkpt lat="45.63034155254564" lon="11.030895298200694"><ele>1107.0</ele><time>2026-04-07T13:27:18Z</time></trkpt><trkpt lat="45.63051471609487" lon="11.030777660153847"><ele>1107.0</ele><time>2026-04-07T13:27:19Z</time></trkpt><trkpt lat="45.630688204742036" lon="11.03061869124225"><ele>1107.0</ele><time>2026-04-07T13:27:20Z</time></trkpt><trkpt lat="45.63081472927567" lon="11.030462651015558"><ele>1107.0</ele><time>2026-04-07T13:27:21Z</time></trkpt><trkpt lat="45.63090312643519" lon="11.030271963862246"><ele>1107.0</ele><time>2026-04-07T13:27:22Z</time></trkpt><trkpt lat="45.63095516958821" lon="11.03009908817848"><ele>1106.8</ele><time>2026-04-07T13:27:22.999Z</time></trkpt><trkpt lat="45.63101725357684" lon="11.029966804045229"><ele>1106.6</ele><time>2026-04-07T13:27:23.999Z</time></trkpt><trkpt lat="45.631091687364524" lon="11.029870041232972"><ele>1106.3999999999999</ele><time>2026-04-07T13:27:24.999Z</time></trkpt><trkpt lat="45.631190283135965" lon="11.029844691943381"><ele>1106.2</ele><time>2026-04-07T13:27:25.999Z</time></trkpt><trkpt lat="45.63128984089081" lon="11.029862914505056"><ele>1106.0</ele><time>2026-04-07T13:27:26.999Z</time></trkpt><trkpt lat="45.631405427347296" lon="11.029935973407916"><ele>1107.0</ele><time>2026-04-07T13:27:27.999Z</time></trkpt><trkpt lat="45.63154077734377" lon="11.030065217916164"><ele>1108.0</ele><time>2026-04-07T13:27:28.999Z</time></trkpt><trkpt lat="45.63167294074646" lon="11.030229999544101"><ele>1109.0</ele><time>2026-04-07T13:27:29.999Z</time></trkpt><trkpt lat="45.63181751124862" lon="11.03038400753914"><ele>1107.0</ele><time>2026-04-07T13:27:30.999Z</time></trkpt><trkpt lat="45.63201781878747" lon="11.03047456554931"><ele>1105.0</ele><time>2026-04-07T13:27:31.999Z</time></trkpt><trkpt lat="45.63223360742225" lon="11.030503417455975"><ele>1103.0</ele><time>2026-04-07T13:27:32.999Z</time></trkpt><trkpt lat="45.63245234196568" lon="11.030501244451353"><ele>1103.0</ele><time>2026-04-07T13:27:33.999Z</time></trkpt><trkpt lat="45.63265603979119" lon="11.03052918049734"><ele>1103.0</ele><time>2026-04-07T13:27:34.999Z</time></trkpt><trkpt lat="45.632847325289575" lon="11.030584652612617"><ele>1103.0</ele><time>2026-04-07T13:27:35.999Z</time></trkpt><trkpt lat="45.63300733837625" lon="11.030647261052355"><ele>1105.25</ele><time>2026-04-07T13:27:36.999Z</time></trkpt><trkpt lat="45.6331417196449" lon="11.030678003443553"><ele>1107.5</ele><time>2026-04-07T13:27:37.999Z</time></trkpt><trkpt lat="45.63324980153825" lon="11.030724086338951"><ele>1109.75</ele><time>2026-04-07T13:27:38.999Z</time></trkpt><trkpt lat="45.63333961849536" lon="11.030807332687388"><ele>1112.0</ele><time>2026-04-07T13:27:39.999Z</time></trkpt><trkpt lat="45.63337892870898" lon="11.030939756415508"><ele>1112.0</ele><time>2026-04-07T13:27:40.999Z</time></trkpt><trkpt lat="45.63341607430009" lon="11.0310728400309"><ele>1112.0</ele><time>2026-04-07T13:27:41.999Z</time></trkpt><trkpt lat="45.6333943270972" lon="11.031228390924733"><ele>1112.0</ele><time>2026-04-07T13:27:42.999Z</time></trkpt><trkpt lat="45.633363290546676" lon="11.031400524751378"><ele>1112.0</ele><time>2026-04-07T13:27:43.999Z</time></trkpt><trkpt lat="45.63331897339531" lon="11.03158734923683"><ele>1115.6666666666667</ele><time>2026-04-07T13:27:44.999Z</time></trkpt><trkpt lat="45.633267142395745" lon="11.031794005505363"><ele>1119.3333333333333</ele><time>2026-04-07T13:27:45.999Z</time></trkpt><trkpt lat="45.63321549828101" lon="11.032012272668245"><ele>1123.0</ele><time>2026-04-07T13:27:46.999Z</time></trkpt><trkpt lat="45.633172704192106" lon="11.032200284457664"><ele>1123.0</ele><time>2026-04-07T13:27:47.999Z</time></trkpt><trkpt lat="45.6331403210491" lon="11.032370826925082"><ele>1123.0</ele><time>2026-04-07T13:27:48.999Z</time></trkpt><trkpt lat="45.63311645218801" lon="11.03252969036301"><ele>1123.0</ele><time>2026-04-07T13:27:49.999Z</time></trkpt><trkpt lat="45.633129779136496" lon="11.032673270084686"><ele>1123.0</ele><time>2026-04-07T13:27:50.999Z</time></trkpt><trkpt lat="45.633176888836715" lon="11.0328086337567"><ele>1123.0</ele><time>2026-04-07T13:27:51.999Z</time></trkpt><trkpt lat="45.63326668728035" lon="11.032911422902751"><ele>1122.25</ele><time>2026-04-07T13:27:52.999Z</time></trkpt><trkpt lat="45.63339945461409" lon="11.032930722367094"><ele>1121.5</ele><time>2026-04-07T13:27:53.999Z</time></trkpt><trkpt lat="45.63353787259095" lon="11.032877746315744"><ele>1120.75</ele><time>2026-04-07T13:27:54.999Z</time></trkpt><trkpt lat="45.633676585843915" lon="11.03281972191574"><ele>1120.0</ele><time>2026-04-07T13:27:55.999Z</time></trkpt><trkpt lat="45.63381272102831" lon="11.032774561341967"><ele>1118.5</ele><time>2026-04-07T13:27:56.999Z</time></trkpt><trkpt lat="45.633929585658485" lon="11.032828693201814"><ele>1117.0</ele><time>2026-04-07T13:27:57.999Z</time></trkpt><trkpt lat="45.6340465420803" lon="11.032911838786507"><ele>1115.5</ele><time>2026-04-07T13:27:58.999Z</time></trkpt><trkpt lat="45.63417120570128" lon="11.033014791540863"><ele>1114.0</ele><time>2026-04-07T13:27:59.999Z</time></trkpt><trkpt lat="45.63429788249309" lon="11.03307592425459"><ele>1114.0</ele><time>2026-04-07T13:28:00.999Z</time></trkpt><trkpt lat="45.63442604868815" lon="11.033116502531776"><ele>1114.0</ele><time>2026-04-07T13:28:01.999Z</time></trkpt><trkpt lat="45.634563216367454" lon="11.03307825010819"><ele>1114.0</ele><time>2026-04-07T13:28:02.999Z</time></trkpt><trkpt lat="45.634706443503156" lon="11.033014224133101"><ele>1114.0</ele><time>2026-04-07T13:28:03.999Z</time></trkpt><trkpt lat="45.63485123312274" lon="11.033044072791865"><ele>1117.0</ele><time>2026-04-07T13:28:04.999Z</time></trkpt><trkpt lat="45.63500258513085" lon="11.033096729994321"><ele>1120.0</ele><time>2026-04-07T13:28:05.999Z</time></trkpt><trkpt lat="45.63518203494388" lon="11.033131877074869"><ele>1123.0</ele><time>2026-04-07T13:28:06.999Z</time></trkpt><trkpt lat="45.6353435053614" lon="11.033191364658121"><ele>1127.5</ele><time>2026-04-07T13:28:07.998Z</time></trkpt><trkpt lat="45.63547839861002" lon="11.033245882168124"><ele>1132.0</ele><time>2026-04-07T13:28:08.998Z</time></trkpt><trkpt lat="45.63560158480184" lon="11.0332961149893"><ele>1136.5</ele><time>2026-04-07T13:28:09.998Z</time></trkpt><trkpt lat="45.6357075956448" lon="11.033322880496192"><ele>1141.0</ele><time>2026-04-07T13:28:10.998Z</time></trkpt><trkpt lat="45.63578642842198" lon="11.03328871222782"><ele>1141.5</ele><time>2026-04-07T13:28:11.998Z</time></trkpt><trkpt lat="45.635847217503866" lon="11.033191606170597"><ele>1142.0</ele><time>2026-04-07T13:28:12.998Z</time></trkpt><trkpt lat="45.635873250460385" lon="11.033044308930894"><ele>1142.5</ele><time>2026-04-07T13:28:13.998Z</time></trkpt><trkpt lat="45.63587124394078" lon="11.032875693607537"><ele>1143.0</ele><time>2026-04-07T13:28:14.998Z</time></trkpt><trkpt lat="45.6358317476753" lon="11.032677014074348"><ele>1143.0</ele><time>2026-04-07T13:28:15.998Z</time></trkpt><trkpt lat="45.63575202407157" lon="11.032503174116076"><ele>1143.0</ele><time>2026-04-07T13:28:16.998Z</time></trkpt><trkpt lat="45.6356368684502" lon="11.032360854155781"><ele>1143.0</ele><time>2026-04-07T13:28:17.998Z</time></trkpt><trkpt lat="45.63549879633722" lon="11.032245744012734"><ele>1143.25</ele><time>2026-04-07T13:28:18.998Z</time></trkpt><trkpt lat="45.63537973570838" lon="11.03213086765807"><ele>1143.5</ele><time>2026-04-07T13:28:19.998Z</time></trkpt><trkpt lat="45.63529094038805" lon="11.032006793934771"><ele>1143.75</ele><time>2026-04-07T13:28:20.998Z</time></trkpt><trkpt lat="45.635236664613515" lon="11.031880881409364"><ele>1144.0</ele><time>2026-04-07T13:28:21.998Z</time></trkpt><trkpt lat="45.63522526079116" lon="11.031763662023634"><ele>1140.6000000000001</ele><time>2026-04-07T13:28:22.998Z</time></trkpt><trkpt lat="45.63525483580462" lon="11.031649917034173"><ele>1137.2</ele><time>2026-04-07T13:28:23.998Z</time></trkpt><trkpt lat="45.63532684418461" lon="11.031535245644495"><ele>1133.8000000000002</ele><time>2026-04-07T13:28:24.998Z</time></trkpt><trkpt lat="45.635422246593805" lon="11.031429470085545"><ele>1130.4</ele><time>2026-04-07T13:28:25.998Z</time></trkpt><trkpt lat="45.635533508072136" lon="11.031324679107998"><ele>1127.0</ele><time>2026-04-07T13:28:26.998Z</time></trkpt><trkpt lat="45.6356773316715" lon="11.031285810910543"><ele>1127.0</ele><time>2026-04-07T13:28:27.998Z</time></trkpt><trkpt lat="45.63582244053025" lon="11.031280911548581"><ele>1127.0</ele><time>2026-04-07T13:28:28.998Z</time></trkpt><trkpt lat="45.63598013661789" lon="11.03131064297231"><ele>1127.0</ele><time>2026-04-07T13:28:29.998Z</time></trkpt><trkpt lat="45.63614395486152" lon="11.03134642110904"><ele>1128.3333333333335</ele><time>2026-04-07T13:28:30.998Z</time></trkpt><trkpt lat="45.63631916299309" lon="11.031423507537752"><ele>1129.6666666666667</ele><time>2026-04-07T13:28:31.998Z</time></trkpt><trkpt lat="45.63650523948895" lon="11.031505988376365"><ele>1131.0</ele><time>2026-04-07T13:28:32.998Z</time></trkpt><trkpt lat="45.63670937013735" lon="11.031540391425914"><ele>1131.0</ele><time>2026-04-07T13:28:33.998Z</time></trkpt><trkpt lat="45.636927989541825" lon="11.031512052530275"><ele>1131.0</ele><time>2026-04-07T13:28:34.998Z</time></trkpt><trkpt lat="45.63714838751659" lon="11.031449217334231"><ele>1131.0</ele><time>2026-04-07T13:28:35.998Z</time></trkpt><trkpt lat="45.63737525597129" lon="11.031369019890057"><ele>1135.0</ele><time>2026-04-07T13:28:36.998Z</time></trkpt><trkpt lat="45.63758116131603" lon="11.031275260167591"><ele>1139.0</ele><time>2026-04-07T13:28:37.998Z</time></trkpt><trkpt lat="45.63777345942633" lon="11.031171872262645"><ele>1143.0</ele><time>2026-04-07T13:28:38.998Z</time></trkpt><trkpt lat="45.63794458130141" lon="11.03108391705666"><ele>1143.75</ele><time>2026-04-07T13:28:39.998Z</time></trkpt><trkpt lat="45.63808374237476" lon="11.030986265123152"><ele>1144.5</ele><time>2026-04-07T13:28:40.998Z</time></trkpt><trkpt lat="45.638201349143436" lon="11.030896163448157"><ele>1145.25</ele><time>2026-04-07T13:28:41.998Z</time></trkpt><trkpt lat="45.638311145965986" lon="11.030828284205755"><ele>1146.0</ele><time>2026-04-07T13:28:42.998Z</time></trkpt><trkpt lat="45.6384174790784" lon="11.030774106523483"><ele>1146.0</ele><time>2026-04-07T13:28:43.998Z</time></trkpt><trkpt lat="45.638514501348375" lon="11.030714168437006"><ele>1146.0</ele><time>2026-04-07T13:28:44.998Z</time></trkpt><trkpt lat="45.63860237381637" lon="11.030663159254907"><ele>1146.0</ele><time>2026-04-07T13:28:45.998Z</time></trkpt><trkpt lat="45.63867642004854" lon="11.030637339157611"><ele>1146.0</ele><time>2026-04-07T13:28:46.998Z</time></trkpt><trkpt lat="45.63874711069734" lon="11.030668731594323"><ele>1146.0</ele><time>2026-04-07T13:28:47.998Z</time></trkpt><trkpt lat="45.638813669558544" lon="11.030731176198787"><ele>1146.0</ele><time>2026-04-07T13:28:48.998Z</time></trkpt><trkpt lat="45.638845075864964" lon="11.030866260896515"><ele>1144.25</ele><time>2026-04-07T13:28:49.998Z</time></trkpt><trkpt lat="45.6389094273495" lon="11.03099540961199"><ele>1142.5</ele><time>2026-04-07T13:28:50.998Z</time></trkpt><trkpt lat="45.63899370413031" lon="11.031120813954242"><ele>1140.75</ele><time>2026-04-07T13:28:51.997Z</time></trkpt><trkpt lat="45.63907670099792" lon="11.031247777752805"><ele>1139.0</ele><time>2026-04-07T13:28:52.997Z</time></trkpt><trkpt lat="45.63917274456244" lon="11.03134182422438"><ele>1139.0</ele><time>2026-04-07T13:28:54Z</time></trkpt><trkpt lat="45.63928836364416" lon="11.031407507669087"><ele>1139.0</ele><time>2026-04-07T13:28:55Z</time></trkpt><trkpt lat="45.63941801899859" lon="11.03142777412636"><ele>1139.0</ele><time>2026-04-07T13:28:56Z</time></trkpt><trkpt lat="45.639556768499304" lon="11.03140886251148"><ele>1139.0</ele><time>2026-04-07T13:28:57Z</time></trkpt><trkpt lat="45.63970335555908" lon="11.031367718671381"><ele>1135.75</ele><time>2026-04-07T13:28:58Z</time></trkpt><trkpt lat="45.63984419568809" lon="11.031317258379117"><ele>1132.5</ele><time>2026-04-07T13:28:59Z</time></trkpt><trkpt lat="45.63997051038865" lon="11.031259110994164"><ele>1129.25</ele><time>2026-04-07T13:29:00Z</time></trkpt><trkpt lat="45.64008820955663" lon="11.031168901915464"><ele>1126.0</ele><time>2026-04-07T13:29:01Z</time></trkpt><trkpt lat="45.640187986688744" lon="11.031053526184706"><ele>1126.0</ele><time>2026-04-07T13:29:02Z</time></trkpt><trkpt lat="45.64027087214616" lon="11.030889671658764"><ele>1126.0</ele><time>2026-04-07T13:29:03Z</time></trkpt><trkpt lat="45.64033659082645" lon="11.030693574168865"><ele>1126.0</ele><time>2026-04-07T13:29:04Z</time></trkpt><trkpt lat="45.64037096550195" lon="11.030448356425714"><ele>1131.0</ele><time>2026-04-07T13:29:05Z</time></trkpt><trkpt lat="45.64038828080526" lon="11.03018539806912"><ele>1136.0</ele><time>2026-04-07T13:29:06Z</time></trkpt><trkpt lat="45.640401211886804" lon="11.029916259025299"><ele>1141.0</ele><time>2026-04-07T13:29:07Z</time></trkpt><trkpt lat="45.640417161775524" lon="11.02966841753481"><ele>1141.0</ele><time>2026-04-07T13:29:08Z</time></trkpt><trkpt lat="45.64043668501028" lon="11.029434176468156"><ele>1141.0</ele><time>2026-04-07T13:29:09Z</time></trkpt><trkpt lat="45.64046031246262" lon="11.029203861896095"><ele>1141.0</ele><time>2026-04-07T13:29:10Z</time></trkpt><trkpt lat="45.64050182802395" lon="11.028977421066122"><ele>1135.6666666666665</ele><time>2026-04-07T13:29:11Z</time></trkpt><trkpt lat="45.640567472621775" lon="11.028747329040542"><ele>1130.3333333333333</ele><time>2026-04-07T13:29:12Z</time></trkpt><trkpt lat="45.640651797616464" lon="11.02850746665196"><ele>1125.0</ele><time>2026-04-07T13:29:13Z</time></trkpt><trkpt lat="45.64074964677215" lon="11.028251998815856"><ele>1119.0</ele><time>2026-04-07T13:29:14Z</time></trkpt><trkpt lat="45.640844616783056" lon="11.02799825545887"><ele>1113.0</ele><time>2026-04-07T13:29:15Z</time></trkpt><trkpt lat="45.64094462335555" lon="11.027773773633838"><ele>1107.0</ele><time>2026-04-07T13:29:16Z</time></trkpt><trkpt lat="45.641034943710096" lon="11.027559893683671"><ele>1105.5</ele><time>2026-04-07T13:29:17Z</time></trkpt><trkpt lat="45.641118247707226" lon="11.027358748983387"><ele>1104.0</ele><time>2026-04-07T13:29:18Z</time></trkpt><trkpt lat="45.64119354438692" lon="11.027176911017095"><ele>1102.5</ele><time>2026-04-07T13:29:19Z</time></trkpt><trkpt lat="45.64127938638306" lon="11.027027568592176"><ele>1101.0</ele><time>2026-04-07T13:29:20Z</time></trkpt><trkpt lat="45.6413583035619" lon="11.026877902364069"><ele>1101.0</ele><time>2026-04-07T13:29:21Z</time></trkpt><trkpt lat="45.641490571339986" lon="11.026798020957507"><ele>1101.0</ele><time>2026-04-07T13:29:22Z</time></trkpt><trkpt lat="45.6416479330916" lon="11.026704651564915"><ele>1101.0</ele><time>2026-04-07T13:29:23Z</time></trkpt><trkpt lat="45.64181899106101" lon="11.026594440296213"><ele>1098.3333333333333</ele><time>2026-04-07T13:29:24Z</time></trkpt><trkpt lat="45.64200508984061" lon="11.026491427708208"><ele>1095.6666666666665</ele><time>2026-04-07T13:29:25Z</time></trkpt><trkpt lat="45.64220422648258" lon="11.026390885393631"><ele>1093.0</ele><time>2026-04-07T13:29:26Z</time></trkpt><trkpt lat="45.642405422115395" lon="11.026291959252967"><ele>1093.0</ele><time>2026-04-07T13:29:26.999Z</time></trkpt><trkpt lat="45.642602464884376" lon="11.026192049162225"><ele>1093.0</ele><time>2026-04-07T13:29:27.999Z</time></trkpt><trkpt lat="45.64276524380977" lon="11.026009111343884"><ele>1093.0</ele><time>2026-04-07T13:29:28.999Z</time></trkpt><trkpt lat="45.64290888829265" lon="11.025793190569793"><ele>1092.6666666666665</ele><time>2026-04-07T13:29:29.999Z</time></trkpt><trkpt lat="45.643063810620575" lon="11.025584286519477"><ele>1092.3333333333333</ele><time>2026-04-07T13:29:30.999Z</time></trkpt><trkpt lat="45.64323894505796" lon="11.025405764994133"><ele>1092.0</ele><time>2026-04-07T13:29:31.999Z</time></trkpt><trkpt lat="45.64341702919315" lon="11.025258064571384"><ele>1092.0</ele><time>2026-04-07T13:29:32.999Z</time></trkpt><trkpt lat="45.64358444357616" lon="11.025113039708495"><ele>1092.0</ele><time>2026-04-07T13:29:33.999Z</time></trkpt><trkpt lat="45.643738052403485" lon="11.024971844340287"><ele>1092.0</ele><time>2026-04-07T13:29:34.999Z</time></trkpt><trkpt lat="45.64388409979689" lon="11.02483436817888"><ele>1093.5</ele><time>2026-04-07T13:29:35.999Z</time></trkpt><trkpt lat="45.64401502881605" lon="11.024709695193199"><ele>1095.0</ele><time>2026-04-07T13:29:36.999Z</time></trkpt><trkpt lat="45.64413107770573" lon="11.024594590434413"><ele>1096.5</ele><time>2026-04-07T13:29:37.999Z</time></trkpt><trkpt lat="45.644227232885314" lon="11.024492068746953"><ele>1098.0</ele><time>2026-04-07T13:29:38.999Z</time></trkpt><trkpt lat="45.644319359407824" lon="11.02441816146113"><ele>1098.0</ele><time>2026-04-07T13:29:39.999Z</time></trkpt><trkpt lat="45.6444141544505" lon="11.024380236453265"><ele>1098.0</ele><time>2026-04-07T13:29:40.999Z</time></trkpt><trkpt lat="45.644520281292984" lon="11.02438744961237"><ele>1098.0</ele><time>2026-04-07T13:29:41.999Z</time></trkpt><trkpt lat="45.64465220303024" lon="11.024416908119541"><ele>1098.0</ele><time>2026-04-07T13:29:42.999Z</time></trkpt><trkpt lat="45.64478970341495" lon="11.024440871490047"><ele>1096.75</ele><time>2026-04-07T13:29:43.999Z</time></trkpt><trkpt lat="45.644918753590424" lon="11.024432236307137"><ele>1095.5</ele><time>2026-04-07T13:29:44.999Z</time></trkpt><trkpt lat="45.645033212505226" lon="11.024385722244624"><ele>1094.25</ele><time>2026-04-07T13:29:45.999Z</time></trkpt><trkpt lat="45.64515199557958" lon="11.024287898602642"><ele>1093.0</ele><time>2026-04-07T13:29:46.999Z</time></trkpt><trkpt lat="45.64527375113989" lon="11.024169687097793"><ele>1097.25</ele><time>2026-04-07T13:29:47.999Z</time></trkpt><trkpt lat="45.645394256155626" lon="11.02402824162294"><ele>1101.5</ele><time>2026-04-07T13:29:48.999Z</time></trkpt><trkpt lat="45.64549611078907" lon="11.023903149480818"><ele>1105.75</ele><time>2026-04-07T13:29:49.999Z</time></trkpt><trkpt lat="45.645583081346786" lon="11.02378585258004"><ele>1110.0</ele><time>2026-04-07T13:29:50.999Z</time></trkpt><trkpt lat="45.645643317449995" lon="11.02367007906931"><ele>1110.0</ele><time>2026-04-07T13:29:51.999Z</time></trkpt><trkpt lat="45.645652813377666" lon="11.023517921543206"><ele>1110.0</ele><time>2026-04-07T13:29:52.999Z</time></trkpt><trkpt lat="45.64561077788444" lon="11.023364100346072"><ele>1110.0</ele><time>2026-04-07T13:29:53.999Z</time></trkpt><trkpt lat="45.64552887132137" lon="11.023217927465542"><ele>1110.0</ele><time>2026-04-07T13:29:54.999Z</time></trkpt><trkpt lat="45.64541802518345" lon="11.023078036611091"><ele>1112.25</ele><time>2026-04-07T13:29:55.999Z</time></trkpt><trkpt lat="45.645319472959976" lon="11.022898130976122"><ele>1114.5</ele><time>2026-04-07T13:29:56.999Z</time></trkpt><trkpt lat="45.64520718450249" lon="11.022754943589645"><ele>1116.75</ele><time>2026-04-07T13:29:57.999Z</time></trkpt><trkpt lat="45.6451303661763" lon="11.022605010032326"><ele>1119.0</ele><time>2026-04-07T13:29:58.999Z</time></trkpt><trkpt lat="45.645091526604" lon="11.022424497805426"><ele>1109.5</ele><time>2026-04-07T13:29:59.999Z</time></trkpt><trkpt lat="45.64506213959892" lon="11.022236577151734"><ele>1100.0</ele><time>2026-04-07T13:30:00.999Z</time></trkpt><trkpt lat="45.64503809749646" lon="11.022048536737978"><ele>1090.5</ele><time>2026-04-07T13:30:01.999Z</time></trkpt><trkpt lat="45.645072890032864" lon="11.02188307802335"><ele>1081.0</ele><time>2026-04-07T13:30:02.999Z</time></trkpt><trkpt lat="45.64510749502537" lon="11.021709334476014"><ele>1079.5</ele><time>2026-04-07T13:30:03.999Z</time></trkpt><trkpt lat="45.6451772534572" lon="11.021507654937404"><ele>1078.0</ele><time>2026-04-07T13:30:04.999Z</time></trkpt><trkpt lat="45.645234875949235" lon="11.021303002319875"><ele>1076.5</ele><time>2026-04-07T13:30:05.999Z</time></trkpt><trkpt lat="45.645235632310616" lon="11.02111366662688"><ele>1075.0</ele><time>2026-04-07T13:30:06.999Z</time></trkpt><trkpt lat="45.6452373700617" lon="11.020943437107594"><ele>1072.5</ele><time>2026-04-07T13:30:07.999Z</time></trkpt><trkpt lat="45.64527827205032" lon="11.020804961289286"><ele>1070.0</ele><time>2026-04-07T13:30:08.999Z</time></trkpt><trkpt lat="45.64538838661204" lon="11.020706437736523"><ele>1067.5</ele><time>2026-04-07T13:30:09.999Z</time></trkpt><trkpt lat="45.64546111518641" lon="11.020537327438602"><ele>1065.0</ele><time>2026-04-07T13:30:10.999Z</time></trkpt><trkpt lat="45.64552263222439" lon="11.020319484699733"><ele>1069.5</ele><time>2026-04-07T13:30:11.998Z</time></trkpt><trkpt lat="45.64552338884359" lon="11.020109880364648"><ele>1074.0</ele><time>2026-04-07T13:30:12.998Z</time></trkpt><trkpt lat="45.645475987472814" lon="11.0199106791446"><ele>1078.5</ele><time>2026-04-07T13:30:13.998Z</time></trkpt><trkpt lat="45.64541099797795" lon="11.019746684435683"><ele>1083.0</ele><time>2026-04-07T13:30:14.998Z</time></trkpt><trkpt lat="45.6453884758438" lon="11.019594977711323"><ele>1083.0</ele><time>2026-04-07T13:30:15.998Z</time></trkpt><trkpt lat="45.64540380835151" lon="11.019445631367288"><ele>1083.0</ele><time>2026-04-07T13:30:16.998Z</time></trkpt><trkpt lat="45.645479790520945" lon="11.019338374655545"><ele>1083.0</ele><time>2026-04-07T13:30:17.998Z</time></trkpt><trkpt lat="45.64557579367348" lon="11.019243216512075"><ele>1083.0</ele><time>2026-04-07T13:30:18.998Z</time></trkpt><trkpt lat="45.64569224689717" lon="11.01910869531575"><ele>1078.75</ele><time>2026-04-07T13:30:19.998Z</time></trkpt><trkpt lat="45.64582591955268" lon="11.01897353189415"><ele>1074.5</ele><time>2026-04-07T13:30:20.998Z</time></trkpt><trkpt lat="45.64593643846843" lon="11.018833113737104"><ele>1070.25</ele><time>2026-04-07T13:30:21.998Z</time></trkpt><trkpt lat="45.64603839675462" lon="11.018716324265903"><ele>1066.0</ele><time>2026-04-07T13:30:22.998Z</time></trkpt><trkpt lat="45.64614147133301" lon="11.018648724115216"><ele>1066.0</ele><time>2026-04-07T13:30:23.998Z</time></trkpt><trkpt lat="45.64625588682326" lon="11.018626883873836"><ele>1066.0</ele><time>2026-04-07T13:30:24.998Z</time></trkpt><trkpt lat="45.646388757859754" lon="11.01867343038065"><ele>1066.0</ele><time>2026-04-07T13:30:25.998Z</time></trkpt><trkpt lat="45.64655352196824" lon="11.018713614806638"><ele>1066.0</ele><time>2026-04-07T13:30:26.998Z</time></trkpt><trkpt lat="45.646727573947004" lon="11.018795899609733"><ele>1066.0</ele><time>2026-04-07T13:30:27.998Z</time></trkpt><trkpt lat="45.6469148539592" lon="11.01886657042178"><ele>1066.0</ele><time>2026-04-07T13:30:28.998Z</time></trkpt><trkpt lat="45.64711935584984" lon="11.018943323455373"><ele>1066.0</ele><time>2026-04-07T13:30:29.998Z</time></trkpt><trkpt lat="45.64733553936273" lon="11.019026229407558"><ele>1066.0</ele><time>2026-04-07T13:30:30.998Z</time></trkpt><trkpt lat="45.64752497610415" lon="11.019093612434652"><ele>1066.0</ele><time>2026-04-07T13:30:31.998Z</time></trkpt><trkpt lat="45.64770422159077" lon="11.019117946202398"><ele>1066.0</ele><time>2026-04-07T13:30:32.998Z</time></trkpt><trkpt lat="45.647890861343264" lon="11.019109997661253"><ele>1066.6666666666665</ele><time>2026-04-07T13:30:33.998Z</time></trkpt><trkpt lat="45.64808295903075" lon="11.01906851909421"><ele>1067.3333333333333</ele><time>2026-04-07T13:30:34.998Z</time></trkpt><trkpt lat="45.64828548835955" lon="11.01899183961449"><ele>1068.0</ele><time>2026-04-07T13:30:35.998Z</time></trkpt><trkpt lat="45.648488138042794" lon="11.01887620840691"><ele>1071.0</ele><time>2026-04-07T13:30:36.998Z</time></trkpt><trkpt lat="45.64868520008498" lon="11.018788330952413"><ele>1074.0</ele><time>2026-04-07T13:30:37.998Z</time></trkpt><trkpt lat="45.648872006150235" lon="11.018722800511823"><ele>1077.0</ele><time>2026-04-07T13:30:38.998Z</time></trkpt><trkpt lat="45.64903675440959" lon="11.018657260998854"><ele>1077.0</ele><time>2026-04-07T13:30:39.998Z</time></trkpt><trkpt lat="45.64919368853971" lon="11.018637529977733"><ele>1077.0</ele><time>2026-04-07T13:30:40.998Z</time></trkpt><trkpt lat="45.649281671252766" lon="11.018442359740915"><ele>1077.0</ele><time>2026-04-07T13:30:41.998Z</time></trkpt><trkpt lat="45.649358005709075" lon="11.018278999208704"><ele>1076.5</ele><time>2026-04-07T13:30:42.998Z</time></trkpt><trkpt lat="45.6493929275053" lon="11.018063296300792"><ele>1076.0</ele><time>2026-04-07T13:30:43.998Z</time></trkpt><trkpt lat="45.64940598736369" lon="11.017851727093138"><ele>1075.5</ele><time>2026-04-07T13:30:44.998Z</time></trkpt><trkpt lat="45.64940366460448" lon="11.017660391897362"><ele>1075.0</ele><time>2026-04-07T13:30:45.998Z</time></trkpt><trkpt lat="45.64940323119468" lon="11.017500233329606"><ele>1076.0</ele><time>2026-04-07T13:30:46.998Z</time></trkpt><trkpt lat="45.64942188811251" lon="11.01734873338345"><ele>1077.0</ele><time>2026-04-07T13:30:47.998Z</time></trkpt><trkpt lat="45.64946813858657" lon="11.017213734654376"><ele>1078.0</ele><time>2026-04-07T13:30:48.998Z</time></trkpt><trkpt lat="45.64955965616049" lon="11.017104184747675"><ele>1079.0</ele><time>2026-04-07T13:30:49.998Z</time></trkpt><trkpt lat="45.6496744513872" lon="11.017036745766168"><ele>1076.25</ele><time>2026-04-07T13:30:50.998Z</time></trkpt><trkpt lat="45.649806510981335" lon="11.017023023539293"><ele>1073.5</ele><time>2026-04-07T13:30:51.998Z</time></trkpt><trkpt lat="45.649931713907165" lon="11.017015186248083"><ele>1070.75</ele><time>2026-04-07T13:30:52.998Z</time></trkpt><trkpt lat="45.650070991189345" lon="11.017037470354584"><ele>1068.0</ele><time>2026-04-07T13:30:53.998Z</time></trkpt><trkpt lat="45.65021619752856" lon="11.01710955735638"><ele>1061.75</ele><time>2026-04-07T13:30:54.998Z</time></trkpt><trkpt lat="45.650352516343276" lon="11.017144147573283"><ele>1055.5</ele><time>2026-04-07T13:30:55.997Z</time></trkpt><trkpt lat="45.65047367653744" lon="11.017215682210004"><ele>1049.25</ele><time>2026-04-07T13:30:56.997Z</time></trkpt><trkpt lat="45.65057485022846" lon="11.017347289953207"><ele>1043.0</ele><time>2026-04-07T13:30:57.997Z</time></trkpt><trkpt lat="45.65066467382195" lon="11.017474522283958"><ele>1048.0</ele><time>2026-04-07T13:30:58.997Z</time></trkpt><trkpt lat="45.65075205236086" lon="11.017590078903421"><ele>1053.0</ele><time>2026-04-07T13:31:00Z</time></trkpt><trkpt lat="45.650833941589845" lon="11.01769012091902"><ele>1058.0</ele><time>2026-04-07T13:31:01Z</time></trkpt><trkpt lat="45.65092421296572" lon="11.017754780092199"><ele>1063.0</ele><time>2026-04-07T13:31:02Z</time></trkpt><trkpt lat="45.65104422452146" lon="11.017747945373944"><ele>1068.0</ele><time>2026-04-07T13:31:03Z</time></trkpt><trkpt lat="45.65117281759168" lon="11.017691140826141"><ele>1068.0</ele><time>2026-04-07T13:31:04Z</time></trkpt><trkpt lat="45.65131053927337" lon="11.017605119343976"><ele>1068.0</ele><time>2026-04-07T13:31:05Z</time></trkpt><trkpt lat="45.651426071862346" lon="11.017511634855934"><ele>1068.0</ele><time>2026-04-07T13:31:06Z</time></trkpt><trkpt lat="45.65154275342434" lon="11.017480958765958"><ele>1068.0</ele><time>2026-04-07T13:31:07Z</time></trkpt><trkpt lat="45.6516436880001" lon="11.017467110327074"><ele>1068.0</ele><time>2026-04-07T13:31:08Z</time></trkpt><trkpt lat="45.651753561322934" lon="11.017477197090525"><ele>1068.0</ele><time>2026-04-07T13:31:09Z</time></trkpt><trkpt lat="45.651872271430015" lon="11.017522978834652"><ele>1068.0</ele><time>2026-04-07T13:31:10Z</time></trkpt><trkpt lat="45.65202719339417" lon="11.017590503324119"><ele>1068.0</ele><time>2026-04-07T13:31:11Z</time></trkpt><trkpt lat="45.65219422700676" lon="11.017660074874533"><ele>1062.75</ele><time>2026-04-07T13:31:12Z</time></trkpt><trkpt lat="45.652336751018396" lon="11.017719752785604"><ele>1057.5</ele><time>2026-04-07T13:31:13Z</time></trkpt><trkpt lat="45.65245116172156" lon="11.017779880677917"><ele>1052.25</ele><time>2026-04-07T13:31:14Z</time></trkpt><trkpt lat="45.652541934318684" lon="11.017859516712456"><ele>1047.0</ele><time>2026-04-07T13:31:15Z</time></trkpt><trkpt lat="45.65264548621034" lon="11.017949601331672"><ele>1047.0</ele><time>2026-04-07T13:31:16Z</time></trkpt><trkpt lat="45.652723284008474" lon="11.018103201055542"><ele>1047.0</ele><time>2026-04-07T13:31:17Z</time></trkpt><trkpt lat="45.652801967633785" lon="11.01829404452978"><ele>1047.0</ele><time>2026-04-07T13:31:18Z</time></trkpt><trkpt lat="45.65288892605662" lon="11.018483547854792"><ele>1047.0</ele><time>2026-04-07T13:31:19Z</time></trkpt><trkpt lat="45.652972446267235" lon="11.01866549859845"><ele>1043.75</ele><time>2026-04-07T13:31:20Z</time></trkpt><trkpt lat="45.65306502468934" lon="11.01883033297348"><ele>1040.5</ele><time>2026-04-07T13:31:21Z</time></trkpt><trkpt lat="45.653134495273285" lon="11.018990212536679"><ele>1037.25</ele><time>2026-04-07T13:31:22Z</time></trkpt><trkpt lat="45.653196689220735" lon="11.019136545551378"><ele>1034.0</ele><time>2026-04-07T13:31:23Z</time></trkpt><trkpt lat="45.65324559155123" lon="11.019278943052067"><ele>1039.6000000000001</ele><time>2026-04-07T13:31:24Z</time></trkpt><trkpt lat="45.65329304280353" lon="11.019404376628705"><ele>1045.2</ele><time>2026-04-07T13:31:25Z</time></trkpt><trkpt lat="45.65336674140795" lon="11.019504398437757"><ele>1050.8000000000002</ele><time>2026-04-07T13:31:26Z</time></trkpt><trkpt lat="45.653429980298775" lon="11.019616776160657"><ele>1056.4</ele><time>2026-04-07T13:31:27Z</time></trkpt><trkpt lat="45.65350279738033" lon="11.01971031897396"><ele>1062.0</ele><time>2026-04-07T13:31:28Z</time></trkpt><trkpt lat="45.65356609052499" lon="11.019760249516231"><ele>1063.4</ele><time>2026-04-07T13:31:28.999Z</time></trkpt><trkpt lat="45.6536411143683" lon="11.019799674925213"><ele>1064.8000000000002</ele><time>2026-04-07T13:31:29.999Z</time></trkpt><trkpt lat="45.653721528943706" lon="11.019758283101124"><ele>1066.2</ele><time>2026-04-07T13:31:30.999Z</time></trkpt><trkpt lat="45.653793106173126" lon="11.019680901475825"><ele>1067.6000000000001</ele><time>2026-04-07T13:31:31.999Z</time></trkpt><trkpt lat="45.65382000180802" lon="11.019523817465217"><ele>1069.0</ele><time>2026-04-07T13:31:32.999Z</time></trkpt><trkpt lat="45.65385888013855" lon="11.019390403287174"><ele>1069.0</ele><time>2026-04-07T13:31:33.999Z</time></trkpt><trkpt lat="45.65386058686462" lon="11.019231724940663"><ele>1069.0</ele><time>2026-04-07T13:31:34.999Z</time></trkpt><trkpt lat="45.65387722649133" lon="11.0190981725917"><ele>1069.0</ele><time>2026-04-07T13:31:35.999Z</time></trkpt><trkpt lat="45.65390124008679" lon="11.018964233251657"><ele>1069.0</ele><time>2026-04-07T13:31:36.999Z</time></trkpt><trkpt lat="45.65391446780611" lon="11.01884181226191"><ele>1069.0</ele><time>2026-04-07T13:31:37.999Z</time></trkpt><trkpt lat="45.653950766688446" lon="11.018727196877652"><ele>1064.0</ele><time>2026-04-07T13:31:38.999Z</time></trkpt><trkpt lat="45.65398965337666" lon="11.018595166184303"><ele>1059.0</ele><time>2026-04-07T13:31:39.999Z</time></trkpt><trkpt lat="45.65404003160369" lon="11.018468966574487"><ele>1054.0</ele><time>2026-04-07T13:31:40.999Z</time></trkpt><trkpt lat="45.65409458296346" lon="11.018368304894604"><ele>1049.0</ele><time>2026-04-07T13:31:41.999Z</time></trkpt><trkpt lat="45.65414173711044" lon="11.0182730432212"><ele>1044.0</ele><time>2026-04-07T13:31:42.999Z</time></trkpt><trkpt lat="45.65418619889793" lon="11.01818027813812"><ele>1037.8</ele><time>2026-04-07T13:31:43.999Z</time></trkpt><trkpt lat="45.65427464225802" lon="11.018088230514556"><ele>1031.6000000000001</ele><time>2026-04-07T13:31:45.999Z</time></trkpt><trkpt lat="45.65434571961138" lon="11.01808923515725"><ele>1025.4</ele><time>2026-04-07T13:31:46.999Z</time></trkpt><trkpt lat="45.65444144160166" lon="11.018126700819778"><ele>1019.2</ele><time>2026-04-07T13:31:47.999Z</time></trkpt><trkpt lat="45.65453286833446" lon="11.018168435869214"><ele>1013.0</ele><time>2026-04-07T13:31:48.999Z</time></trkpt><trkpt lat="45.654623520093615" lon="11.018192837237685"><ele>1013.0</ele><time>2026-04-07T13:31:49.999Z</time></trkpt><trkpt lat="45.654714406484295" lon="11.018202699065073"><ele>1013.0</ele><time>2026-04-07T13:31:50.999Z</time></trkpt><trkpt lat="45.65481948122254" lon="11.018164515340098"><ele>1013.0</ele><time>2026-04-07T13:31:51.999Z</time></trkpt><trkpt lat="45.65495158961156" lon="11.018094663547371"><ele>1013.0</ele><time>2026-04-07T13:31:52.999Z</time></trkpt><trkpt lat="45.65510610335206" lon="11.017986563586213"><ele>1013.0</ele><time>2026-04-07T13:31:53.999Z</time></trkpt><trkpt lat="45.65526363664531" lon="11.017856288119061"><ele>1013.0</ele><time>2026-04-07T13:31:54.999Z</time></trkpt><trkpt lat="45.65538476519711" lon="11.017732371819118"><ele>1013.0</ele><time>2026-04-07T13:31:55.999Z</time></trkpt><trkpt lat="45.655482251477174" lon="11.017614262781493"><ele>1012.6666666666667</ele><time>2026-04-07T13:31:56.999Z</time></trkpt><trkpt lat="45.65561021126521" lon="11.017514121967329"><ele>1012.3333333333333</ele><time>2026-04-07T13:31:57.999Z</time></trkpt><trkpt lat="45.655750862099204" lon="11.017459412241484"><ele>1012.0</ele><time>2026-04-07T13:31:58.999Z</time></trkpt><trkpt lat="45.6559226794019" lon="11.017423168573956"><ele>1012.0</ele><time>2026-04-07T13:31:59.999Z</time></trkpt><trkpt lat="45.65612620065311" lon="11.017377283719968"><ele>1012.0</ele><time>2026-04-07T13:32:00.999Z</time></trkpt><trkpt lat="45.65633640021219" lon="11.01733606031274"><ele>1012.0</ele><time>2026-04-07T13:32:01.999Z</time></trkpt><trkpt lat="45.65652827491704" lon="11.017276448395341"><ele>1012.0</ele><time>2026-04-07T13:32:02.999Z</time></trkpt><trkpt lat="45.656702262548585" lon="11.01722145597226"><ele>1012.0</ele><time>2026-04-07T13:32:03.999Z</time></trkpt><trkpt lat="45.65687166728232" lon="11.017152573901944"><ele>1012.0</ele><time>2026-04-07T13:32:04.999Z</time></trkpt><trkpt lat="45.657009931777665" lon="11.017114035985882"><ele>1015.0</ele><time>2026-04-07T13:32:05.999Z</time></trkpt><trkpt lat="45.65713984040985" lon="11.017080235734786"><ele>1018.0</ele><time>2026-04-07T13:32:06.999Z</time></trkpt><trkpt lat="45.65723360968717" lon="11.017056344298881"><ele>1021.0</ele><time>2026-04-07T13:32:07.999Z</time></trkpt><trkpt lat="45.65732204386346" lon="11.017030731878426"><ele>1024.0</ele><time>2026-04-07T13:32:08.999Z</time></trkpt><trkpt lat="45.657381628178655" lon="11.016949268551397"><ele>1027.0</ele><time>2026-04-07T13:32:09.999Z</time></trkpt><trkpt lat="45.65740162299581" lon="11.016826217603516"><ele>1027.0</ele><time>2026-04-07T13:32:10.999Z</time></trkpt><trkpt lat="45.65738548191515" lon="11.01666071810271"><ele>1027.0</ele><time>2026-04-07T13:32:11.999Z</time></trkpt><trkpt lat="45.65735181049899" lon="11.016504565725684"><ele>1027.0</ele><time>2026-04-07T13:32:12.999Z</time></trkpt><trkpt lat="45.657317635264995" lon="11.016366174870878"><ele>1027.0</ele><time>2026-04-07T13:32:13.999Z</time></trkpt><trkpt lat="45.657304611606754" lon="11.016237214332538"><ele>1027.0</ele><time>2026-04-07T13:32:14.999Z</time></trkpt><trkpt lat="45.65723885760215" lon="11.01612586326008"><ele>1032.25</ele><time>2026-04-07T13:32:15.999Z</time></trkpt><trkpt lat="45.65710485087598" lon="11.01609393085249"><ele>1037.5</ele><time>2026-04-07T13:32:16.999Z</time></trkpt><trkpt lat="45.65697170768399" lon="11.016057904537094"><ele>1042.75</ele><time>2026-04-07T13:32:17.998Z</time></trkpt><trkpt lat="45.65681509773021" lon="11.016044411516553"><ele>1048.0</ele><time>2026-04-07T13:32:18.998Z</time></trkpt><trkpt lat="45.656643084737645" lon="11.01604600032109"><ele>1048.0</ele><time>2026-04-07T13:32:19.998Z</time></trkpt><trkpt lat="45.65646563893155" lon="11.016103305795742"><ele>1048.0</ele><time>2026-04-07T13:32:20.998Z</time></trkpt><trkpt lat="45.65631023391187" lon="11.016145721810553"><ele>1048.0</ele><time>2026-04-07T13:32:21.998Z</time></trkpt><trkpt lat="45.65617911781108" lon="11.016162979483674"><ele>1050.3333333333333</ele><time>2026-04-07T13:32:22.998Z</time></trkpt><trkpt lat="45.65604158457234" lon="11.01616095829754"><ele>1052.6666666666667</ele><time>2026-04-07T13:32:23.998Z</time></trkpt><trkpt lat="45.655901620034065" lon="11.016109702188068"><ele>1055.0</ele><time>2026-04-07T13:32:24.998Z</time></trkpt><trkpt lat="45.655724962660834" lon="11.016047625587799"><ele>1055.0</ele><time>2026-04-07T13:32:25.998Z</time></trkpt><trkpt lat="45.65553538595355" lon="11.01599651687303"><ele>1055.0</ele><time>2026-04-07T13:32:26.998Z</time></trkpt><trkpt lat="45.655368211860846" lon="11.015967402752144"><ele>1055.0</ele><time>2026-04-07T13:32:27.998Z</time></trkpt><trkpt lat="45.65521723359506" lon="11.015990038715634"><ele>1057.25</ele><time>2026-04-07T13:32:28.998Z</time></trkpt><trkpt lat="45.65508072425118" lon="11.01609025426969"><ele>1059.5</ele><time>2026-04-07T13:32:29.998Z</time></trkpt><trkpt lat="45.65494540641165" lon="11.01613006314248"><ele>1061.75</ele><time>2026-04-07T13:32:30.998Z</time></trkpt><trkpt lat="45.654811678503215" lon="11.01617201121793"><ele>1064.0</ele><time>2026-04-07T13:32:31.998Z</time></trkpt><trkpt lat="45.654692431917056" lon="11.016193228972766"><ele>1064.0</ele><time>2026-04-07T13:32:32.998Z</time></trkpt><trkpt lat="45.65460973328733" lon="11.016152906039146"><ele>1064.0</ele><time>2026-04-07T13:32:33.998Z</time></trkpt><trkpt lat="45.65448960132282" lon="11.016108973172436"><ele>1064.0</ele><time>2026-04-07T13:32:34.998Z</time></trkpt><trkpt lat="45.65435716687082" lon="11.016062394641455"><ele>1064.0</ele><time>2026-04-07T13:32:35.998Z</time></trkpt><trkpt lat="45.654225983579146" lon="11.016013298959663"><ele>1056.6666666666667</ele><time>2026-04-07T13:32:36.998Z</time></trkpt><trkpt lat="45.65412254215827" lon="11.015916306283435"><ele>1049.3333333333333</ele><time>2026-04-07T13:32:37.998Z</time></trkpt><trkpt lat="45.653981295435806" lon="11.015780887186594"><ele>1042.0</ele><time>2026-04-07T13:32:38.998Z</time></trkpt><trkpt lat="45.65383768024499" lon="11.01568661201587"><ele>1049.3333333333333</ele><time>2026-04-07T13:32:39.998Z</time></trkpt><trkpt lat="45.653689747426135" lon="11.015562022097626"><ele>1056.6666666666667</ele><time>2026-04-07T13:32:40.998Z</time></trkpt><trkpt lat="45.65352933764806" lon="11.015340923664084"><ele>1064.0</ele><time>2026-04-07T13:32:41.998Z</time></trkpt><trkpt lat="45.65347243496094" lon="11.015263681297181"><ele>1064.0</ele><time>2026-04-07T13:32:42.998Z</time></trkpt><trkpt lat="45.65330879872087" lon="11.015093995484087"><ele>1064.0</ele><time>2026-04-07T13:32:43.998Z</time></trkpt><trkpt lat="45.653139649233005" lon="11.01497255339042"><ele>1064.0</ele><time>2026-04-07T13:32:44.998Z</time></trkpt><trkpt lat="45.652949015361976" lon="11.014897307822087"><ele>1068.6666666666667</ele><time>2026-04-07T13:32:45.998Z</time></trkpt><trkpt lat="45.65276041349948" lon="11.014824411421499"><ele>1073.3333333333333</ele><time>2026-04-07T13:32:46.998Z</time></trkpt><trkpt lat="45.65257686511879" lon="11.014734301059502"><ele>1078.0</ele><time>2026-04-07T13:32:47.998Z</time></trkpt><trkpt lat="45.65241823301784" lon="11.014637143738826"><ele>1078.0</ele><time>2026-04-07T13:32:48.998Z</time></trkpt><trkpt lat="45.65227961228426" lon="11.014549629265696"><ele>1078.0</ele><time>2026-04-07T13:32:49.998Z</time></trkpt><trkpt lat="45.65216022263901" lon="11.014472642791578"><ele>1078.0</ele><time>2026-04-07T13:32:50.998Z</time></trkpt><trkpt lat="45.65206686266332" lon="11.014416678402995"><ele>1078.0</ele><time>2026-04-07T13:32:51.998Z</time></trkpt><trkpt lat="45.65201172791165" lon="11.014335610620469"><ele>1078.0</ele><time>2026-04-07T13:32:52.998Z</time></trkpt><trkpt lat="45.651972056878066" lon="11.01419688033542"><ele>1078.0</ele><time>2026-04-07T13:32:53.998Z</time></trkpt><trkpt lat="45.65189588080519" lon="11.014034806887588"><ele>1078.0</ele><time>2026-04-07T13:32:54.998Z</time></trkpt><trkpt lat="45.651812449592555" lon="11.013857356859972"><ele>1078.0</ele><time>2026-04-07T13:32:55.998Z</time></trkpt><trkpt lat="45.65177932294986" lon="11.013693306914151"><ele>1070.5</ele><time>2026-04-07T13:32:56.998Z</time></trkpt><trkpt lat="45.65177748682175" lon="11.013528266394061"><ele>1063.0</ele><time>2026-04-07T13:32:57.998Z</time></trkpt><trkpt lat="45.6517747158722" lon="11.01331846333941"><ele>1055.5</ele><time>2026-04-07T13:32:58.998Z</time></trkpt><trkpt lat="45.651768444602396" lon="11.013085993697947"><ele>1048.0</ele><time>2026-04-07T13:32:59.998Z</time></trkpt><trkpt lat="45.65175452023258" lon="11.01284556613737"><ele>1048.0</ele><time>2026-04-07T13:33:00.998Z</time></trkpt><trkpt lat="45.65174115328979" lon="11.012632766241447"><ele>1048.0</ele><time>2026-04-07T13:33:01.998Z</time></trkpt><trkpt lat="45.65173217160868" lon="11.012450237234562"><ele>1048.0</ele><time>2026-04-07T13:33:02.998Z</time></trkpt><trkpt lat="45.65173721865541" lon="11.012280424664917"><ele>1048.0</ele><time>2026-04-07T13:33:03.997Z</time></trkpt><trkpt lat="45.651796193822655" lon="11.01212893177734"><ele>1053.25</ele><time>2026-04-07T13:33:04.997Z</time></trkpt><trkpt lat="45.65179958810893" lon="11.01196557851179"><ele>1058.5</ele><time>2026-04-07T13:33:06Z</time></trkpt><trkpt lat="45.65179116532105" lon="11.011797797088063"><ele>1063.75</ele><time>2026-04-07T13:33:07Z</time></trkpt><trkpt lat="45.65171011326085" lon="11.01166534892296"><ele>1069.0</ele><time>2026-04-07T13:33:08Z</time></trkpt><trkpt lat="45.651601957759205" lon="11.01156456312197"><ele>1078.25</ele><time>2026-04-07T13:33:09Z</time></trkpt><trkpt lat="45.651467198268286" lon="11.011478510206762"><ele>1087.5</ele><time>2026-04-07T13:33:10Z</time></trkpt><trkpt lat="45.65139341088242" lon="11.011359254060922"><ele>1096.75</ele><time>2026-04-07T13:33:11Z</time></trkpt><trkpt lat="45.6513379380012" lon="11.011211483162246"><ele>1106.0</ele><time>2026-04-07T13:33:12Z</time></trkpt><trkpt lat="45.651263702609626" lon="11.011026737827475"><ele>1114.3333333333335</ele><time>2026-04-07T13:33:13Z</time></trkpt><trkpt lat="45.65115099668355" lon="11.010814449395397"><ele>1122.6666666666667</ele><time>2026-04-07T13:33:14Z</time></trkpt><trkpt lat="45.65101447569792" lon="11.01065357217647"><ele>1131.0</ele><time>2026-04-07T13:33:15Z</time></trkpt><trkpt lat="45.65089899818216" lon="11.010518982744554"><ele>1120.0</ele><time>2026-04-07T13:33:16Z</time></trkpt><trkpt lat="45.65081394986459" lon="11.01040784003078"><ele>1109.0</ele><time>2026-04-07T13:33:17Z</time></trkpt><trkpt lat="45.65076898570893" lon="11.010305141677703"><ele>1098.0</ele><time>2026-04-07T13:33:18Z</time></trkpt><trkpt lat="45.650753193129525" lon="11.010186043046618"><ele>1087.0</ele><time>2026-04-07T13:33:19Z</time></trkpt><trkpt lat="45.65075333038721" lon="11.010024513534821"><ele>1076.0</ele><time>2026-04-07T13:33:20Z</time></trkpt><trkpt lat="45.65074375481824" lon="11.0098167021612"><ele>1076.0</ele><time>2026-04-07T13:33:21Z</time></trkpt><trkpt lat="45.650734507849855" lon="11.009590691071905"><ele>1076.0</ele><time>2026-04-07T13:33:22Z</time></trkpt><trkpt lat="45.65073197421974" lon="11.009398854178086"><ele>1076.0</ele><time>2026-04-07T13:33:23Z</time></trkpt><trkpt lat="45.650751493665496" lon="11.009220403212959"><ele>1076.0</ele><time>2026-04-07T13:33:24Z</time></trkpt><trkpt lat="45.65081429269231" lon="11.009043435519706"><ele>1075.5</ele><time>2026-04-07T13:33:25Z</time></trkpt><trkpt lat="45.650891881767464" lon="11.008844252638834"><ele>1075.0</ele><time>2026-04-07T13:33:26Z</time></trkpt><trkpt lat="45.650957179145884" lon="11.008646179128574"><ele>1074.5</ele><time>2026-04-07T13:33:27Z</time></trkpt><trkpt lat="45.65101940678789" lon="11.008483838828719"><ele>1074.0</ele><time>2026-04-07T13:33:28Z</time></trkpt><trkpt lat="45.65104536560485" lon="11.00833538053999"><ele>1076.0</ele><time>2026-04-07T13:33:29Z</time></trkpt><trkpt lat="45.65101539051698" lon="11.008193788836483"><ele>1078.0</ele><time>2026-04-07T13:33:30Z</time></trkpt><trkpt lat="45.650935407315195" lon="11.008077041512536"><ele>1080.0</ele><time>2026-04-07T13:33:31Z</time></trkpt><trkpt lat="45.65082362065827" lon="11.00800261922963"><ele>1082.0</ele><time>2026-04-07T13:33:32Z</time></trkpt><trkpt lat="45.65068530879211" lon="11.00795819932084"><ele>1082.0</ele><time>2026-04-07T13:33:33Z</time></trkpt><trkpt lat="45.65051522117415" lon="11.007946952846941"><ele>1082.0</ele><time>2026-04-07T13:33:34Z</time></trkpt><trkpt lat="45.65035205338639" lon="11.007879600969856"><ele>1082.0</ele><time>2026-04-07T13:33:35Z</time></trkpt><trkpt lat="45.650191476472244" lon="11.00776853427608"><ele>1083.0</ele><time>2026-04-07T13:33:36Z</time></trkpt><trkpt lat="45.65002299684494" lon="11.007634341779097"><ele>1084.0</ele><time>2026-04-07T13:33:37Z</time></trkpt><trkpt lat="45.64985235517764" lon="11.00751837901171"><ele>1085.0</ele><time>2026-04-07T13:33:38Z</time></trkpt><trkpt lat="45.64971214548349" lon="11.007415748879104"><ele>1085.2</ele><time>2026-04-07T13:33:39Z</time></trkpt><trkpt lat="45.649613943598126" lon="11.007309420543466"><ele>1085.4</ele><time>2026-04-07T13:33:39.999Z</time></trkpt><trkpt lat="45.649528292333" lon="11.007228563049596"><ele>1085.6</ele><time>2026-04-07T13:33:40.999Z</time></trkpt><trkpt lat="45.64947894635659" lon="11.007127700308468"><ele>1085.8</ele><time>2026-04-07T13:33:41.999Z</time></trkpt><trkpt lat="45.64947516421455" lon="11.007012592640898"><ele>1086.0</ele><time>2026-04-07T13:33:42.999Z</time></trkpt><trkpt lat="45.64953251960079" lon="11.00688935681883"><ele>1086.0</ele><time>2026-04-07T13:33:43.999Z</time></trkpt><trkpt lat="45.649604756762784" lon="11.006747887738184"><ele>1086.0</ele><time>2026-04-07T13:33:44.999Z</time></trkpt><trkpt lat="45.649677342491174" lon="11.006575886301803"><ele>1086.0</ele><time>2026-04-07T13:33:45.999Z</time></trkpt><trkpt lat="45.64978877341635" lon="11.006442710098161"><ele>1086.0</ele><time>2026-04-07T13:33:46.999Z</time></trkpt><trkpt lat="45.6499094414536" lon="11.006308778117468"><ele>1086.2</ele><time>2026-04-07T13:33:47.999Z</time></trkpt><trkpt lat="45.650026024594894" lon="11.006227696768457"><ele>1086.3999999999999</ele><time>2026-04-07T13:33:48.999Z</time></trkpt><trkpt lat="45.650104961389495" lon="11.006158861445794"><ele>1086.6</ele><time>2026-04-07T13:33:49.999Z</time></trkpt><trkpt lat="45.650144570167235" lon="11.00604742539416"><ele>1086.8</ele><time>2026-04-07T13:33:50.999Z</time></trkpt><trkpt lat="45.650123535998716" lon="11.005918150121822"><ele>1087.0</ele><time>2026-04-07T13:33:51.999Z</time></trkpt><trkpt lat="45.650057448912065" lon="11.005805728096206"><ele>1094.0</ele><time>2026-04-07T13:33:52.999Z</time></trkpt><trkpt lat="45.64994689886121" lon="11.005739107786962"><ele>1101.0</ele><time>2026-04-07T13:33:53.999Z</time></trkpt><trkpt lat="45.649816035977224" lon="11.005712559073853"><ele>1108.0</ele><time>2026-04-07T13:33:54.999Z</time></trkpt><trkpt lat="45.64965656252297" lon="11.005691938331582"><ele>1115.0</ele><time>2026-04-07T13:33:55.999Z</time></trkpt><trkpt lat="45.64949777533161" lon="11.005681603767016"><ele>1113.0</ele><time>2026-04-07T13:33:56.999Z</time></trkpt><trkpt lat="45.64932641161371" lon="11.005671021437221"><ele>1111.0</ele><time>2026-04-07T13:33:57.999Z</time></trkpt><trkpt lat="45.64916167974998" lon="11.005654454901968"><ele>1109.0</ele><time>2026-04-07T13:33:58.999Z</time></trkpt><trkpt lat="45.649024012664206" lon="11.005630529017811"><ele>1109.0</ele><time>2026-04-07T13:33:59.999Z</time></trkpt><trkpt lat="45.64891192770076" lon="11.005577083408925"><ele>1109.0</ele><time>2026-04-07T13:34:00.999Z</time></trkpt><trkpt lat="45.64883343952852" lon="11.005451378670374"><ele>1109.0</ele><time>2026-04-07T13:34:01.999Z</time></trkpt><trkpt lat="45.64875399157175" lon="11.005300725946325"><ele>1109.0</ele><time>2026-04-07T13:34:02.999Z</time></trkpt><trkpt lat="45.648664889910606" lon="11.005118203681953"><ele>1109.6000000000001</ele><time>2026-04-07T13:34:03.999Z</time></trkpt><trkpt lat="45.648566467644066" lon="11.004945749672435"><ele>1110.2</ele><time>2026-04-07T13:34:04.999Z</time></trkpt><trkpt lat="45.64850672123158" lon="11.00479426948697"><ele>1110.8000000000002</ele><time>2026-04-07T13:34:05.999Z</time></trkpt><trkpt lat="45.648462513678524" lon="11.00467214304547"><ele>1111.4</ele><time>2026-04-07T13:34:06.999Z</time></trkpt><trkpt lat="45.64839798917612" lon="11.004618311822846"><ele>1112.0</ele><time>2026-04-07T13:34:07.999Z</time></trkpt><trkpt lat="45.64832452840979" lon="11.00459003480086"><ele>1112.0</ele><time>2026-04-07T13:34:08.999Z</time></trkpt><trkpt lat="45.64823041860082" lon="11.004640013603325"><ele>1112.0</ele><time>2026-04-07T13:34:09.999Z</time></trkpt><trkpt lat="45.648163518481006" lon="11.004807709150482"><ele>1112.0</ele><time>2026-04-07T13:34:10.999Z</time></trkpt><trkpt lat="45.648108789196044" lon="11.00495523731346"><ele>1112.0</ele><time>2026-04-07T13:34:11.999Z</time></trkpt><trkpt lat="45.64804693644135" lon="11.005103136470549"><ele>1110.75</ele><time>2026-04-07T13:34:12.999Z</time></trkpt><trkpt lat="45.64796158826001" lon="11.005226803560864"><ele>1109.5</ele><time>2026-04-07T13:34:13.999Z</time></trkpt><trkpt lat="45.647844984458736" lon="11.00530796988376"><ele>1108.25</ele><time>2026-04-07T13:34:14.999Z</time></trkpt><trkpt lat="45.64773626608913" lon="11.005362704059324"><ele>1107.0</ele><time>2026-04-07T13:34:15.999Z</time></trkpt><trkpt lat="45.6476293601951" lon="11.005398096632504"><ele>1107.0</ele><time>2026-04-07T13:34:16.999Z</time></trkpt><trkpt lat="45.64753000863482" lon="11.00540789243799"><ele>1107.0</ele><time>2026-04-07T13:34:17.999Z</time></trkpt><trkpt lat="45.6474287320738" lon="11.005341901925314"><ele>1107.0</ele><time>2026-04-07T13:34:18.999Z</time></trkpt><trkpt lat="45.647321244428326" lon="11.005240847586906"><ele>1107.0</ele><time>2026-04-07T13:34:19.999Z</time></trkpt><trkpt lat="45.64719467575841" lon="11.005111218301444"><ele>1107.0</ele><time>2026-04-07T13:34:20.999Z</time></trkpt><trkpt lat="45.64706317095542" lon="11.004996110261963"><ele>1107.0</ele><time>2026-04-07T13:34:21.999Z</time></trkpt><trkpt lat="45.646934809713144" lon="11.004873935674274"><ele>1107.0</ele><time>2026-04-07T13:34:22.999Z</time></trkpt><trkpt lat="45.6468004231377" lon="11.004725019783553"><ele>1108.0</ele><time>2026-04-07T13:34:23.999Z</time></trkpt><trkpt lat="45.64666795165159" lon="11.004543013517198"><ele>1109.0</ele><time>2026-04-07T13:34:24.999Z</time></trkpt><trkpt lat="45.646549526626025" lon="11.004363653695393"><ele>1110.0</ele><time>2026-04-07T13:34:25.999Z</time></trkpt><trkpt lat="45.64644646603419" lon="11.004214515465168"><ele>1113.75</ele><time>2026-04-07T13:34:26.999Z</time></trkpt><trkpt lat="45.64635495361109" lon="11.00408349917884"><ele>1117.5</ele><time>2026-04-07T13:34:27.998Z</time></trkpt><trkpt lat="45.64629864264201" lon="11.003917967037005"><ele>1121.25</ele><time>2026-04-07T13:34:28.998Z</time></trkpt><trkpt lat="45.64624433514696" lon="11.003732302174832"><ele>1125.0</ele><time>2026-04-07T13:34:29.998Z</time></trkpt><trkpt lat="45.64618263609466" lon="11.003528982322006"><ele>1123.75</ele><time>2026-04-07T13:34:30.998Z</time></trkpt><trkpt lat="45.64613702253548" lon="11.003292003994025"><ele>1122.5</ele><time>2026-04-07T13:34:31.998Z</time></trkpt><trkpt lat="45.646093902361145" lon="11.003092822795342"><ele>1121.25</ele><time>2026-04-07T13:34:32.998Z</time></trkpt><trkpt lat="45.64605841726782" lon="11.002925129533281"><ele>1120.0</ele><time>2026-04-07T13:34:33.998Z</time></trkpt><trkpt lat="45.6460100352493" lon="11.002782392415364"><ele>1120.0</ele><time>2026-04-07T13:34:34.998Z</time></trkpt><trkpt lat="45.645930119763406" lon="11.002671728101221"><ele>1120.0</ele><time>2026-04-07T13:34:35.998Z</time></trkpt><trkpt lat="45.64583423467844" lon="11.002604804461367"><ele>1120.0</ele><time>2026-04-07T13:34:36.998Z</time></trkpt><trkpt lat="45.64573040597507" lon="11.002600066399514"><ele>1120.0</ele><time>2026-04-07T13:34:37.998Z</time></trkpt><trkpt lat="45.64561920532567" lon="11.002652241396286"><ele>1120.0</ele><time>2026-04-07T13:34:38.998Z</time></trkpt><trkpt lat="45.64551834966458" lon="11.002749880870814"><ele>1120.0</ele><time>2026-04-07T13:34:39.998Z</time></trkpt><trkpt lat="45.64541771763571" lon="11.002875323807872"><ele>1120.0</ele><time>2026-04-07T13:34:40.998Z</time></trkpt><trkpt lat="45.64532846562863" lon="11.002949860354596"><ele>1120.0</ele><time>2026-04-07T13:34:41.998Z</time></trkpt><trkpt lat="45.64523371137416" lon="11.002968698300652"><ele>1120.0</ele><time>2026-04-07T13:34:42.998Z</time></trkpt><trkpt lat="45.6451427756505" lon="11.002939431148148"><ele>1120.0</ele><time>2026-04-07T13:34:43.998Z</time></trkpt><trkpt lat="45.64507046459964" lon="11.002870858929763"><ele>1118.4</ele><time>2026-04-07T13:34:44.998Z</time></trkpt><trkpt lat="45.64501033131518" lon="11.002775682329624"><ele>1116.8</ele><time>2026-04-07T13:34:45.998Z</time></trkpt><trkpt lat="45.645002306610515" lon="11.002614720278464"><ele>1115.2</ele><time>2026-04-07T13:34:46.998Z</time></trkpt><trkpt lat="45.64499739086363" lon="11.002443274556983"><ele>1113.6</ele><time>2026-04-07T13:34:47.998Z</time></trkpt><trkpt lat="45.64502421954812" lon="11.002270560316784"><ele>1112.0</ele><time>2026-04-07T13:34:48.998Z</time></trkpt><trkpt lat="45.64508973326179" lon="11.002085943323591"><ele>1112.0</ele><time>2026-04-07T13:34:49.998Z</time></trkpt><trkpt lat="45.64514353734584" lon="11.00189564250441"><ele>1112.0</ele><time>2026-04-07T13:34:50.998Z</time></trkpt><trkpt lat="45.64521388503728" lon="11.001698080500944"><ele>1112.0</ele><time>2026-04-07T13:34:51.998Z</time></trkpt><trkpt lat="45.64528116414047" lon="11.00150782331445"><ele>1112.0</ele><time>2026-04-07T13:34:52.998Z</time></trkpt><trkpt lat="45.64532435110246" lon="11.001335626542478"><ele>1113.75</ele><time>2026-04-07T13:34:53.998Z</time></trkpt><trkpt lat="45.64532525041314" lon="11.00118502377265"><ele>1115.5</ele><time>2026-04-07T13:34:54.998Z</time></trkpt><trkpt lat="45.64528160001468" lon="11.001043463882986"><ele>1117.25</ele><time>2026-04-07T13:34:55.998Z</time></trkpt><trkpt lat="45.64520364560123" lon="11.000916975126577"><ele>1119.0</ele><time>2026-04-07T13:34:56.998Z</time></trkpt><trkpt lat="45.64508287704072" lon="11.000837362771517"><ele>1119.0</ele><time>2026-04-07T13:34:57.998Z</time></trkpt><trkpt lat="45.64494235961588" lon="11.000810573433025"><ele>1119.0</ele><time>2026-04-07T13:34:58.998Z</time></trkpt><trkpt lat="45.64479455831235" lon="11.00084232803519"><ele>1119.0</ele><time>2026-04-07T13:34:59.998Z</time></trkpt><trkpt lat="45.64463666863732" lon="11.000910092423991"><ele>1119.0</ele><time>2026-04-07T13:35:00.998Z</time></trkpt><trkpt lat="45.644490878602866" lon="11.000981601490782"><ele>1119.0</ele><time>2026-04-07T13:35:01.998Z</time></trkpt><trkpt lat="45.64436567929549" lon="11.001062467130943"><ele>1119.0</ele><time>2026-04-07T13:35:02.998Z</time></trkpt><trkpt lat="45.644245196631324" lon="11.001106411032666"><ele>1119.0</ele><time>2026-04-07T13:35:03.998Z</time></trkpt><trkpt lat="45.64414377726632" lon="11.001134411622576"><ele>1119.2</ele><time>2026-04-07T13:35:04.998Z</time></trkpt><trkpt lat="45.64405226457611" lon="11.001119809932216"><ele>1119.4</ele><time>2026-04-07T13:35:05.998Z</time></trkpt><trkpt lat="45.643969628659" lon="11.001069009707829"><ele>1119.6</ele><time>2026-04-07T13:35:06.998Z</time></trkpt><trkpt lat="45.64390956617758" lon="11.000977938913405"><ele>1119.8</ele><time>2026-04-07T13:35:07.998Z</time></trkpt><trkpt lat="45.64387617374797" lon="11.000855008937787"><ele>1120.0</ele><time>2026-04-07T13:35:08.998Z</time></trkpt><trkpt lat="45.643859463452394" lon="11.000702020040348"><ele>1120.0</ele><time>2026-04-07T13:35:09.998Z</time></trkpt><trkpt lat="45.643822406175566" lon="11.00053025612149"><ele>1120.0</ele><time>2026-04-07T13:35:10.998Z</time></trkpt><trkpt lat="45.64380420807283" lon="11.000359446974285"><ele>1120.0</ele><time>2026-04-07T13:35:12Z</time></trkpt><trkpt lat="45.64377012118514" lon="11.000221729252207"><ele>1120.0</ele><time>2026-04-07T13:35:13Z</time></trkpt><trkpt lat="45.64372144239785" lon="11.000087049831876"><ele>1120.0</ele><time>2026-04-07T13:35:14Z</time></trkpt><trkpt lat="45.64364524776035" lon="10.99996119541722"><ele>1120.0</ele><time>2026-04-07T13:35:15Z</time></trkpt><trkpt lat="45.64354469187203" lon="10.99986038760944"><ele>1120.0</ele><time>2026-04-07T13:35:16Z</time></trkpt><trkpt lat="45.64344469033818" lon="10.999789142870227"><ele>1120.0</ele><time>2026-04-07T13:35:17Z</time></trkpt><trkpt lat="45.643384960212295" lon="10.999702109045248"><ele>1120.0</ele><time>2026-04-07T13:35:18Z</time></trkpt><trkpt lat="45.643301290376485" lon="10.99960617090077"><ele>1118.8</ele><time>2026-04-07T13:35:20Z</time></trkpt><trkpt lat="45.64326073039722" lon="10.99951083761869"><ele>1117.6</ele><time>2026-04-07T13:35:23Z</time></trkpt><trkpt lat="45.64315217550355" lon="10.999587103331281"><ele>1116.4</ele><time>2026-04-07T13:35:24Z</time></trkpt><trkpt lat="45.64308712862717" lon="10.999672749876789"><ele>1115.2</ele><time>2026-04-07T13:35:25Z</time></trkpt><trkpt lat="45.64300255309481" lon="10.999739042226226"><ele>1114.0</ele><time>2026-04-07T13:35:26Z</time></trkpt><trkpt lat="45.642898407856066" lon="10.999781002159873"><ele>1112.5</ele><time>2026-04-07T13:35:27Z</time></trkpt><trkpt lat="45.642790372391985" lon="10.999876041896323"><ele>1111.0</ele><time>2026-04-07T13:35:28Z</time></trkpt><trkpt lat="45.64266462758161" lon="10.999956696768095"><ele>1109.5</ele><time>2026-04-07T13:35:29Z</time></trkpt><trkpt lat="45.64252820551886" lon="11.000044330441735"><ele>1108.0</ele><time>2026-04-07T13:35:30Z</time></trkpt><trkpt lat="45.642393272430375" lon="11.000134963905195"><ele>1108.0</ele><time>2026-04-07T13:35:31Z</time></trkpt><trkpt lat="45.64227028894311" lon="11.00021481999948"><ele>1108.0</ele><time>2026-04-07T13:35:32Z</time></trkpt><trkpt lat="45.6421514369815" lon="11.000294257023125"><ele>1108.0</ele><time>2026-04-07T13:35:33Z</time></trkpt><trkpt lat="45.642036591714344" lon="11.000374890726171"><ele>1108.0</ele><time>2026-04-07T13:35:34Z</time></trkpt><trkpt lat="45.64191945104807" lon="11.000442643704762"><ele>1107.75</ele><time>2026-04-07T13:35:35Z</time></trkpt><trkpt lat="45.64180964076198" lon="11.000513744483332"><ele>1107.5</ele><time>2026-04-07T13:35:36Z</time></trkpt><trkpt lat="45.64170207659925" lon="11.000572379554576"><ele>1107.25</ele><time>2026-04-07T13:35:37Z</time></trkpt><trkpt lat="45.641597412321254" lon="11.000642255532851"><ele>1107.0</ele><time>2026-04-07T13:35:38Z</time></trkpt><trkpt lat="45.64148280730611" lon="11.00071299479564"><ele>1107.0</ele><time>2026-04-07T13:35:39Z</time></trkpt><trkpt lat="45.641374651628716" lon="11.000782901571801"><ele>1107.0</ele><time>2026-04-07T13:35:40Z</time></trkpt><trkpt lat="45.641271145514224" lon="11.000849450306601"><ele>1107.0</ele><time>2026-04-07T13:35:41Z</time></trkpt><trkpt lat="45.641172793159456" lon="11.000912979904081"><ele>1107.0</ele><time>2026-04-07T13:35:42Z</time></trkpt><trkpt lat="45.64108154505281" lon="11.000969772494441"><ele>1107.0</ele><time>2026-04-07T13:35:43Z</time></trkpt><trkpt lat="45.64099134590451" lon="11.001021451494584"><ele>1108.1666666666667</ele><time>2026-04-07T13:35:44Z</time></trkpt><trkpt lat="45.640909838017855" lon="11.001071503556641"><ele>1109.3333333333333</ele><time>2026-04-07T13:35:45Z</time></trkpt><trkpt lat="45.64083217221114" lon="11.001120647211213"><ele>1110.5</ele><time>2026-04-07T13:35:46Z</time></trkpt><trkpt lat="45.64075773120161" lon="11.001152548645829"><ele>1111.6666666666665</ele><time>2026-04-07T13:35:47Z</time></trkpt><trkpt lat="45.64068139202185" lon="11.001199797362213"><ele>1112.8333333333333</ele><time>2026-04-07T13:35:48Z</time></trkpt><trkpt lat="45.64060835881311" lon="11.001247724596144"><ele>1114.0</ele><time>2026-04-07T13:35:49Z</time></trkpt><trkpt lat="45.64053609729827" lon="11.00129582121979"><ele>1114.0</ele><time>2026-04-07T13:35:50Z</time></trkpt><trkpt lat="45.640463021576664" lon="11.001342823116266"><ele>1114.0</ele><time>2026-04-07T13:35:51Z</time></trkpt><trkpt lat="45.64039142674677" lon="11.001392740132903"><ele>1114.0</ele><time>2026-04-07T13:35:52Z</time></trkpt><trkpt lat="45.64033188393467" lon="11.001424646439927"><ele>1114.0</ele><time>2026-04-07T13:35:52.999Z</time></trkpt><trkpt lat="45.640267000455964" lon="11.001442958185457"><ele>1114.0</ele><time>2026-04-07T13:35:53.999Z</time></trkpt><trkpt lat="45.64018725438417" lon="11.00144489762823"><ele>1114.0</ele><time>2026-04-07T13:35:54.999Z</time></trkpt><trkpt lat="45.64010090879047" lon="11.001468701710072"><ele>1112.6000000000001</ele><time>2026-04-07T13:35:55.999Z</time></trkpt><trkpt lat="45.6399810205025" lon="11.001489794266565"><ele>1111.2</ele><time>2026-04-07T13:35:57.999Z</time></trkpt><trkpt lat="45.63991402055288" lon="11.001482325161296"><ele>1109.8000000000002</ele><time>2026-04-07T13:35:58.999Z</time></trkpt><trkpt lat="45.63980601333769" lon="11.0014353848357"><ele>1108.4</ele><time>2026-04-07T13:36:00.999Z</time></trkpt><trkpt lat="45.639673003646294" lon="11.001420920014708"><ele>1107.0</ele><time>2026-04-07T13:36:02.999Z</time></trkpt><trkpt lat="45.63959267785856" lon="11.001461338295341"><ele>1107.0</ele><time>2026-04-07T13:36:03.999Z</time></trkpt><trkpt lat="45.63952416853368" lon="11.001497772931401"><ele>1107.0</ele><time>2026-04-07T13:36:04.999Z</time></trkpt><trkpt lat="45.63941467239005" lon="11.00152685683296"><ele>1107.0</ele><time>2026-04-07T13:36:06.999Z</time></trkpt><trkpt lat="45.63936259478407" lon="11.001401777227313"><ele>1107.0</ele><time>2026-04-07T13:36:08.999Z</time></trkpt><trkpt lat="45.63940932555988" lon="11.00127582899101"><ele>1107.0</ele><time>2026-04-07T13:36:10.999Z</time></trkpt><trkpt lat="45.63946071836343" lon="11.001167248363279"><ele>1107.0</ele><time>2026-04-07T13:36:12.999Z</time></trkpt><trkpt lat="45.63952412617847" lon="11.001107739383107"><ele>1107.0</ele><time>2026-04-07T13:36:14.999Z</time></trkpt><trkpt lat="45.639469321565464" lon="11.001184692066948"><ele>1107.0</ele><time>2026-04-07T13:36:20.999Z</time></trkpt><trkpt lat="45.63940752118784" lon="11.00123333235376"><ele>1107.0</ele><time>2026-04-07T13:36:21.999Z</time></trkpt><trkpt lat="45.63933681691013" lon="11.00125296496216"><ele>1107.0</ele><time>2026-04-07T13:36:23.999Z</time></trkpt><trkpt lat="45.639268819195294" lon="11.001289917479697"><ele>1107.0</ele><time>2026-04-07T13:36:25.999Z</time></trkpt><trkpt lat="45.639203232257884" lon="11.00129429337732"><ele>1107.0</ele><time>2026-04-07T13:36:26.999Z</time></trkpt><trkpt lat="45.63910905017781" lon="11.001362458837846"><ele>1105.2</ele><time>2026-04-07T13:36:28.999Z</time></trkpt><trkpt lat="45.63906567059305" lon="11.001449382400823"><ele>1103.4</ele><time>2026-04-07T13:36:30.999Z</time></trkpt><trkpt lat="45.6390176947901" lon="11.001529229201727"><ele>1101.6</ele><time>2026-04-07T13:36:33.999Z</time></trkpt><trkpt lat="45.63905405728443" lon="11.001445728572856"><ele>1099.8</ele><time>2026-04-07T13:36:44.998Z</time></trkpt><trkpt lat="45.63913894434508" lon="11.001304593051286"><ele>1098.0</ele><time>2026-04-07T13:36:46.998Z</time></trkpt><trkpt lat="45.63929453346818" lon="11.001404027060827"><ele>1098.0</ele><time>2026-04-07T13:36:47.998Z</time></trkpt><trkpt lat="45.6393573987595" lon="11.001338927014974"><ele>1098.0</ele><time>2026-04-07T13:36:49.998Z</time></trkpt><trkpt lat="45.63943048122167" lon="11.001246648373925"><ele>1098.0</ele><time>2026-04-07T13:36:52.998Z</time></trkpt><trkpt lat="45.63948424403126" lon="11.001167621849959"><ele>1098.0</ele><time>2026-04-07T13:36:53.998Z</time></trkpt><trkpt lat="45.639528330902415" lon="11.00109278793096"><ele>1098.0</ele><time>2026-04-07T13:36:54.998Z</time></trkpt><trkpt lat="45.63958843006325" lon="11.00100800473286"><ele>1098.0</ele><time>2026-04-07T13:36:55.998Z</time></trkpt><trkpt lat="45.6396539718631" lon="11.000922837457745"><ele>1097.8333333333333</ele><time>2026-04-07T13:36:56.998Z</time></trkpt><trkpt lat="45.63972091540747" lon="11.000839197708169"><ele>1097.6666666666667</ele><time>2026-04-07T13:36:57.998Z</time></trkpt><trkpt lat="45.6397886962243" lon="11.000780015190209"><ele>1097.5</ele><time>2026-04-07T13:36:58.998Z</time></trkpt><trkpt lat="45.639856991188296" lon="11.00072900761388"><ele>1097.3333333333335</ele><time>2026-04-07T13:36:59.998Z</time></trkpt><trkpt lat="45.63992506603328" lon="11.000692794633979"><ele>1097.1666666666667</ele><time>2026-04-07T13:37:00.998Z</time></trkpt><trkpt lat="45.63999132293927" lon="11.000656079911716"><ele>1097.0</ele><time>2026-04-07T13:37:01.998Z</time></trkpt><trkpt lat="45.64006149158544" lon="11.000548444946558"><ele>1097.0</ele><time>2026-04-07T13:37:03.998Z</time></trkpt><trkpt lat="45.64007558575449" lon="11.000422558738947"><ele>1097.0</ele><time>2026-04-07T13:37:07.998Z</time></trkpt><trkpt lat="45.63994330593185" lon="11.000435418301244"><ele>1097.0</ele><time>2026-04-07T13:37:08.998Z</time></trkpt><trkpt lat="45.63988642529985" lon="11.000502022291807"><ele>1097.0</ele><time>2026-04-07T13:37:09.998Z</time></trkpt><trkpt lat="45.639816072589646" lon="11.000565139668371"><ele>1097.0</ele><time>2026-04-07T13:37:10.998Z</time></trkpt><trkpt lat="45.63972368580569" lon="11.000631789085313"><ele>1097.0</ele><time>2026-04-07T13:37:11.998Z</time></trkpt><trkpt lat="45.63960741291831" lon="11.000676527752937"><ele>1097.0</ele><time>2026-04-07T13:37:12.998Z</time></trkpt><trkpt lat="45.639483095617074" lon="11.000664541551457"><ele>1097.0</ele><time>2026-04-07T13:37:13.998Z</time></trkpt><trkpt lat="45.639369852958474" lon="11.000666674802627"><ele>1097.0</ele><time>2026-04-07T13:37:14.998Z</time></trkpt><trkpt lat="45.63926245999104" lon="11.000666674799167"><ele>1091.75</ele><time>2026-04-07T13:37:15.998Z</time></trkpt><trkpt lat="45.63914338117454" lon="11.000675307228432"><ele>1086.5</ele><time>2026-04-07T13:37:16.998Z</time></trkpt><trkpt lat="45.63901282105248" lon="11.000707373092805"><ele>1081.25</ele><time>2026-04-07T13:37:18Z</time></trkpt><trkpt lat="45.63888718349177" lon="11.000769756271444"><ele>1076.0</ele><time>2026-04-07T13:37:19Z</time></trkpt><trkpt lat="45.638757733512804" lon="11.00080966070824"><ele>1079.25</ele><time>2026-04-07T13:37:20Z</time></trkpt><trkpt lat="45.63863656100364" lon="11.000856685631291"><ele>1082.5</ele><time>2026-04-07T13:37:21Z</time></trkpt><trkpt lat="45.638519310429764" lon="11.000913408068035"><ele>1085.75</ele><time>2026-04-07T13:37:22Z</time></trkpt><trkpt lat="45.63841214523459" lon="11.000984619308905"><ele>1089.0</ele><time>2026-04-07T13:37:23Z</time></trkpt><trkpt lat="45.638308753365834" lon="11.001059524421484"><ele>1089.0</ele><time>2026-04-07T13:37:24Z</time></trkpt><trkpt lat="45.63820168050256" lon="11.001131937088541"><ele>1089.0</ele><time>2026-04-07T13:37:25Z</time></trkpt><trkpt lat="45.638092559976236" lon="11.001193058098847"><ele>1089.0</ele><time>2026-04-07T13:37:26Z</time></trkpt><trkpt lat="45.6379770458136" lon="11.001232635694429"><ele>1089.0</ele><time>2026-04-07T13:37:27Z</time></trkpt><trkpt lat="45.63784488541754" lon="11.001245891203226"><ele>1085.3333333333333</ele><time>2026-04-07T13:37:28Z</time></trkpt><trkpt lat="45.637694476533945" lon="11.001239177008113"><ele>1081.6666666666665</ele><time>2026-04-07T13:37:29Z</time></trkpt><trkpt lat="45.63752949494722" lon="11.001231374721515"><ele>1078.0</ele><time>2026-04-07T13:37:30Z</time></trkpt><trkpt lat="45.63734940695446" lon="11.001228421330207"><ele>1078.0</ele><time>2026-04-07T13:37:31Z</time></trkpt><trkpt lat="45.63716558243327" lon="11.001217998780966"><ele>1078.0</ele><time>2026-04-07T13:37:32Z</time></trkpt><trkpt lat="45.63699359255411" lon="11.001204579491471"><ele>1078.0</ele><time>2026-04-07T13:37:33Z</time></trkpt><trkpt lat="45.63682823069493" lon="11.001211036233848"><ele>1076.25</ele><time>2026-04-07T13:37:34Z</time></trkpt><trkpt lat="45.63667899869737" lon="11.001203777983722"><ele>1074.5</ele><time>2026-04-07T13:37:35Z</time></trkpt><trkpt lat="45.63652199743912" lon="11.001199427659872"><ele>1072.75</ele><time>2026-04-07T13:37:36Z</time></trkpt><trkpt lat="45.63638575474092" lon="11.00118930050601"><ele>1071.0</ele><time>2026-04-07T13:37:37Z</time></trkpt><trkpt lat="45.6362690515958" lon="11.001191117547286"><ele>1071.0</ele><time>2026-04-07T13:37:38Z</time></trkpt><trkpt lat="45.63615471519915" lon="11.0012141675099"><ele>1071.0</ele><time>2026-04-07T13:37:39Z</time></trkpt><trkpt lat="45.636049466203964" lon="11.001284625468863"><ele>1071.0</ele><time>2026-04-07T13:37:40Z</time></trkpt><trkpt lat="45.635955858383156" lon="11.001385119761304"><ele>1071.0</ele><time>2026-04-07T13:37:41Z</time></trkpt><trkpt lat="45.63585826927567" lon="11.001498537816182"><ele>1071.3999999999999</ele><time>2026-04-07T13:37:42Z</time></trkpt><trkpt lat="45.63576163734034" lon="11.00159234174335"><ele>1071.8</ele><time>2026-04-07T13:37:43Z</time></trkpt><trkpt lat="45.63566566614677" lon="11.001674944034084"><ele>1072.1999999999998</ele><time>2026-04-07T13:37:44Z</time></trkpt><trkpt lat="45.63559506835706" lon="11.001752201130033"><ele>1072.6</ele><time>2026-04-07T13:37:45Z</time></trkpt><trkpt lat="45.63552736848651" lon="11.001794937898042"><ele>1073.0</ele><time>2026-04-07T13:37:46Z</time></trkpt><trkpt lat="45.63542553286817" lon="11.001817145398162"><ele>1073.0</ele><time>2026-04-07T13:37:48Z</time></trkpt><trkpt lat="45.63540879105999" lon="11.001726816271363"><ele>1073.0</ele><time>2026-04-07T13:37:49Z</time></trkpt><trkpt lat="45.63544904618049" lon="11.00162088729289"><ele>1073.0</ele><time>2026-04-07T13:37:50Z</time></trkpt><trkpt lat="45.63555345040948" lon="11.001564260594655"><ele>1073.0</ele><time>2026-04-07T13:37:51Z</time></trkpt><trkpt lat="45.635654578966424" lon="11.001448088543055"><ele>1073.0</ele><time>2026-04-07T13:37:52Z</time></trkpt><trkpt lat="45.6357643912409" lon="11.001322272295582"><ele>1072.5</ele><time>2026-04-07T13:37:53Z</time></trkpt><trkpt lat="45.63587440045561" lon="11.001178517260639"><ele>1072.0</ele><time>2026-04-07T13:37:54Z</time></trkpt><trkpt lat="45.63597464615253" lon="11.001056394947334"><ele>1071.5</ele><time>2026-04-07T13:37:55Z</time></trkpt><trkpt lat="45.63607403809845" lon="11.000949949425573"><ele>1071.0</ele><time>2026-04-07T13:37:56Z</time></trkpt><trkpt lat="45.636158056725314" lon="11.00085573926839"><ele>1066.8</ele><time>2026-04-07T13:37:57Z</time></trkpt><trkpt lat="45.636220262459204" lon="11.000769367135753"><ele>1062.6</ele><time>2026-04-07T13:37:58Z</time></trkpt><trkpt lat="45.63624979942962" lon="11.00067771878502"><ele>1058.4</ele><time>2026-04-07T13:37:58.999Z</time></trkpt><trkpt lat="45.63616221559152" lon="11.000550248233377"><ele>1054.2</ele><time>2026-04-07T13:38:00.999Z</time></trkpt><trkpt lat="45.63608378292258" lon="11.000578808585638"><ele>1050.0</ele><time>2026-04-07T13:38:01.999Z</time></trkpt><trkpt lat="45.63600471614379" lon="11.000698306726854"><ele>1052.3333333333333</ele><time>2026-04-07T13:38:02.999Z</time></trkpt><trkpt lat="45.63591570032332" lon="11.000849925387792"><ele>1054.6666666666665</ele><time>2026-04-07T13:38:03.999Z</time></trkpt><trkpt lat="45.63579744597203" lon="11.00101443619116"><ele>1057.0</ele><time>2026-04-07T13:38:04.999Z</time></trkpt><trkpt lat="45.63564419385367" lon="11.00113354095665"><ele>1057.0</ele><time>2026-04-07T13:38:05.999Z</time></trkpt><trkpt lat="45.635488249479984" lon="11.001226397432305"><ele>1057.0</ele><time>2026-04-07T13:38:06.999Z</time></trkpt><trkpt lat="45.6353866105121" lon="11.001266031373241"><ele>1057.0</ele><time>2026-04-07T13:38:07.999Z</time></trkpt><trkpt lat="45.63521182125445" lon="11.001295878989998"><ele>1053.3333333333333</ele><time>2026-04-07T13:38:08.999Z</time></trkpt><trkpt lat="45.635042609196084" lon="11.001282413954884"><ele>1049.6666666666667</ele><time>2026-04-07T13:38:09.999Z</time></trkpt><trkpt lat="45.63487540808232" lon="11.001215486228679"><ele>1046.0</ele><time>2026-04-07T13:38:10.999Z</time></trkpt><trkpt lat="45.63469610389891" lon="11.001137177132833"><ele>1046.0</ele><time>2026-04-07T13:38:11.999Z</time></trkpt><trkpt lat="45.63453126246461" lon="11.001065184525116"><ele>1046.0</ele><time>2026-04-07T13:38:12.999Z</time></trkpt><trkpt lat="45.634376488113354" lon="11.00101320058184"><ele>1046.0</ele><time>2026-04-07T13:38:13.999Z</time></trkpt><trkpt lat="45.63421993163914" lon="11.000958739143618"><ele>1045.6666666666667</ele><time>2026-04-07T13:38:14.999Z</time></trkpt><trkpt lat="45.63404634695065" lon="11.000952860266786"><ele>1045.3333333333333</ele><time>2026-04-07T13:38:15.999Z</time></trkpt><trkpt lat="45.633856625856865" lon="11.001002066931074"><ele>1045.0</ele><time>2026-04-07T13:38:16.999Z</time></trkpt><trkpt lat="45.63365497357196" lon="11.001071877934974"><ele>1042.6666666666665</ele><time>2026-04-07T13:38:17.999Z</time></trkpt><trkpt lat="45.63344353334662" lon="11.001146194984546"><ele>1040.3333333333333</ele><time>2026-04-07T13:38:18.999Z</time></trkpt><trkpt lat="45.63322704648942" lon="11.001221317619517"><ele>1038.0</ele><time>2026-04-07T13:38:19.999Z</time></trkpt><trkpt lat="45.63301620368962" lon="11.001289000087898"><ele>1038.0</ele><time>2026-04-07T13:38:20.999Z</time></trkpt><trkpt lat="45.63281469247477" lon="11.001351496435746"><ele>1038.0</ele><time>2026-04-07T13:38:21.999Z</time></trkpt><trkpt lat="45.6326154248531" lon="11.001414333638937"><ele>1038.0</ele><time>2026-04-07T13:38:22.999Z</time></trkpt><trkpt lat="45.63241625465864" lon="11.001477375074371"><ele>1036.0</ele><time>2026-04-07T13:38:23.999Z</time></trkpt><trkpt lat="45.63221955007488" lon="11.001542662786235"><ele>1034.0</ele><time>2026-04-07T13:38:24.999Z</time></trkpt><trkpt lat="45.63202921820456" lon="11.001631330680508"><ele>1032.0</ele><time>2026-04-07T13:38:25.999Z</time></trkpt><trkpt lat="45.631846721993334" lon="11.001749958310528"><ele>1031.6666666666667</ele><time>2026-04-07T13:38:26.999Z</time></trkpt><trkpt lat="45.631683497783676" lon="11.001875790225894"><ele>1031.3333333333335</ele><time>2026-04-07T13:38:27.999Z</time></trkpt><trkpt lat="45.631528179879076" lon="11.001995140924073"><ele>1031.0</ele><time>2026-04-07T13:38:28.999Z</time></trkpt><trkpt lat="45.63137239135669" lon="11.00209571150809"><ele>1031.0</ele><time>2026-04-07T13:38:29.999Z</time></trkpt><trkpt lat="45.63123987619409" lon="11.002177330916298"><ele>1031.0</ele><time>2026-04-07T13:38:30.999Z</time></trkpt><trkpt lat="45.63111301049601" lon="11.002259624642152"><ele>1031.0</ele><time>2026-04-07T13:38:31.999Z</time></trkpt><trkpt lat="45.63100616084012" lon="11.002334126241557"><ele>1031.0</ele><time>2026-04-07T13:38:32.999Z</time></trkpt><trkpt lat="45.63090726325714" lon="11.002372796006796"><ele>1029.25</ele><time>2026-04-07T13:38:33.999Z</time></trkpt><trkpt lat="45.630811698005154" lon="11.002350255809967"><ele>1027.5</ele><time>2026-04-07T13:38:34.999Z</time></trkpt><trkpt lat="45.63071248393389" lon="11.002367349883027"><ele>1025.75</ele><time>2026-04-07T13:38:35.999Z</time></trkpt><trkpt lat="45.63069964614526" lon="11.002124506941826"><ele>1024.0</ele><time>2026-04-07T13:38:36.999Z</time></trkpt><trkpt lat="45.63070888167885" lon="11.001980950193825"><ele>1024.0</ele><time>2026-04-07T13:38:37.999Z</time></trkpt><trkpt lat="45.6307594730222" lon="11.001840114358801"><ele>1024.0</ele><time>2026-04-07T13:38:38.999Z</time></trkpt><trkpt lat="45.63082171295886" lon="11.001722060118109"><ele>1024.0</ele><time>2026-04-07T13:38:39.999Z</time></trkpt><trkpt lat="45.63089623200733" lon="11.001630515317029"><ele>1024.0</ele><time>2026-04-07T13:38:40.999Z</time></trkpt><trkpt lat="45.630975669463844" lon="11.001503088904814"><ele>1024.0</ele><time>2026-04-07T13:38:41.999Z</time></trkpt><trkpt lat="45.63107410558087" lon="11.001333087982173"><ele>1024.0</ele><time>2026-04-07T13:38:42.999Z</time></trkpt><trkpt lat="45.631186824387626" lon="11.001154977613727"><ele>1024.0</ele><time>2026-04-07T13:38:43.998Z</time></trkpt><trkpt lat="45.63130369301273" lon="11.000964499385915"><ele>1024.0</ele><time>2026-04-07T13:38:44.998Z</time></trkpt><trkpt lat="45.631402055669014" lon="11.000788790399646"><ele>1021.0</ele><time>2026-04-07T13:38:45.998Z</time></trkpt><trkpt lat="45.63149568519679" lon="11.000630155482563"><ele>1018.0</ele><time>2026-04-07T13:38:46.998Z</time></trkpt><trkpt lat="45.63158391428624" lon="11.00047382122182"><ele>1015.0</ele><time>2026-04-07T13:38:47.998Z</time></trkpt><trkpt lat="45.63167167057794" lon="11.00032959781867"><ele>1012.0</ele><time>2026-04-07T13:38:48.998Z</time></trkpt><trkpt lat="45.63176562690617" lon="11.000198127344136"><ele>1012.0</ele><time>2026-04-07T13:38:49.998Z</time></trkpt><trkpt lat="45.631881851998344" lon="11.000092064059745"><ele>1012.0</ele><time>2026-04-07T13:38:50.998Z</time></trkpt><trkpt lat="45.63200848404109" lon="11.00002718219585"><ele>1012.0</ele><time>2026-04-07T13:38:51.998Z</time></trkpt><trkpt lat="45.632136494086346" lon="11.000001146844502"><ele>1012.0</ele><time>2026-04-07T13:38:52.998Z</time></trkpt><trkpt lat="45.63224811742512" lon="10.99999313991665"><ele>1013.2</ele><time>2026-04-07T13:38:53.998Z</time></trkpt><trkpt lat="45.632336568822026" lon="10.999961894461313"><ele>1014.4000000000001</ele><time>2026-04-07T13:38:54.998Z</time></trkpt><trkpt lat="45.63234489574098" lon="10.999808597493153"><ele>1015.5999999999999</ele><time>2026-04-07T13:38:56.998Z</time></trkpt><trkpt lat="45.63228802065627" lon="10.999756788885726"><ele>1016.8</ele><time>2026-04-07T13:38:57.998Z</time></trkpt><trkpt lat="45.63221134109451" lon="10.99972519244478"><ele>1018.0</ele><time>2026-04-07T13:38:58.998Z</time></trkpt><trkpt lat="45.63208183672865" lon="10.999786507081893"><ele>1016.0</ele><time>2026-04-07T13:38:59.998Z</time></trkpt><trkpt lat="45.631931095495574" lon="10.999805748408699"><ele>1014.0</ele><time>2026-04-07T13:39:00.998Z</time></trkpt><trkpt lat="45.63177552928372" lon="10.999818392852447"><ele>1012.0</ele><time>2026-04-07T13:39:01.998Z</time></trkpt><trkpt lat="45.631633339743146" lon="10.999845716324366"><ele>1012.0</ele><time>2026-04-07T13:39:02.998Z</time></trkpt><trkpt lat="45.63150452712511" lon="10.999905446738087"><ele>1012.0</ele><time>2026-04-07T13:39:03.998Z</time></trkpt><trkpt lat="45.631388545278064" lon="11.000039296036837"><ele>1012.0</ele><time>2026-04-07T13:39:04.998Z</time></trkpt><trkpt lat="45.63128491385691" lon="11.000221735961588"><ele>1012.0</ele><time>2026-04-07T13:39:05.998Z</time></trkpt><trkpt lat="45.63117603437211" lon="11.000416736825882"><ele>1005.6666666666666</ele><time>2026-04-07T13:39:06.998Z</time></trkpt><trkpt lat="45.63106490386515" lon="11.000583630527302"><ele>999.3333333333333</ele><time>2026-04-07T13:39:07.998Z</time></trkpt><trkpt lat="45.63094573074332" lon="11.00072201038014"><ele>993.0</ele><time>2026-04-07T13:39:08.998Z</time></trkpt><trkpt lat="45.63082105178392" lon="11.000819918034646"><ele>999.3333333333333</ele><time>2026-04-07T13:39:09.998Z</time></trkpt><trkpt lat="45.63068167435417" lon="11.000889221083392"><ele>1005.6666666666666</ele><time>2026-04-07T13:39:10.998Z</time></trkpt><trkpt lat="45.63051778381835" lon="11.000895800723237"><ele>1012.0</ele><time>2026-04-07T13:39:11.998Z</time></trkpt><trkpt lat="45.63034635644121" lon="11.000904979256976"><ele>1007.3333333333333</ele><time>2026-04-07T13:39:12.998Z</time></trkpt><trkpt lat="45.630153797825784" lon="11.000925501142376"><ele>1002.6666666666667</ele><time>2026-04-07T13:39:13.998Z</time></trkpt><trkpt lat="45.629955363864596" lon="11.000926547550744"><ele>998.0</ele><time>2026-04-07T13:39:14.998Z</time></trkpt><trkpt lat="45.62974809584202" lon="11.000902861725985"><ele>998.0</ele><time>2026-04-07T13:39:15.998Z</time></trkpt><trkpt lat="45.629529494633054" lon="11.00083376777522"><ele>998.0</ele><time>2026-04-07T13:39:16.998Z</time></trkpt><trkpt lat="45.62932497418639" lon="11.000726147583002"><ele>998.0</ele><time>2026-04-07T13:39:17.998Z</time></trkpt><trkpt lat="45.629151738798335" lon="11.00060137836928"><ele>991.0</ele><time>2026-04-07T13:39:18.998Z</time></trkpt><trkpt lat="45.62898364318287" lon="11.000493169848324"><ele>984.0</ele><time>2026-04-07T13:39:19.998Z</time></trkpt><trkpt lat="45.62881193756579" lon="11.000400731380811"><ele>977.0</ele><time>2026-04-07T13:39:20.998Z</time></trkpt><trkpt lat="45.62864989765441" lon="11.000319783287598"><ele>979.3333333333334</ele><time>2026-04-07T13:39:21.998Z</time></trkpt><trkpt lat="45.62849162672121" lon="11.000235759603072"><ele>981.6666666666667</ele><time>2026-04-07T13:39:22.998Z</time></trkpt><trkpt lat="45.62833984329712" lon="11.000148911909486"><ele>984.0</ele><time>2026-04-07T13:39:24Z</time></trkpt><trkpt lat="45.62820026230504" lon="11.000069708349459"><ele>984.0</ele><time>2026-04-07T13:39:25Z</time></trkpt><trkpt lat="45.62807516697905" lon="11.000011649300003"><ele>984.0000000000001</ele><time>2026-04-07T13:39:26Z</time></trkpt><trkpt lat="45.627973257501786" lon="10.999946587779837"><ele>984.0000000000001</ele><time>2026-04-07T13:39:27Z</time></trkpt><trkpt lat="45.627887562044144" lon="10.99992234705421"><ele>984.0</ele><time>2026-04-07T13:39:28Z</time></trkpt><trkpt lat="45.62784679830608" lon="10.999846761211316"><ele>984.0</ele><time>2026-04-07T13:39:29Z</time></trkpt><trkpt lat="45.62784146398048" lon="10.999746714692252"><ele>984.0</ele><time>2026-04-07T13:39:30Z</time></trkpt><trkpt lat="45.62789124823588" lon="10.999661401935331"><ele>984.0000000000001</ele><time>2026-04-07T13:39:31Z</time></trkpt><trkpt lat="45.627977558197806" lon="10.999629403495522"><ele>984.0000000000001</ele><time>2026-04-07T13:39:32Z</time></trkpt><trkpt lat="45.62809459434254" lon="10.99969242979169"><ele>984.0</ele><time>2026-04-07T13:39:33Z</time></trkpt><trkpt lat="45.62823538236333" lon="10.999730370328763"><ele>984.0</ele><time>2026-04-07T13:39:34Z</time></trkpt><trkpt lat="45.628388186035664" lon="10.999790308017843"><ele>984.0</ele><time>2026-04-07T13:39:35Z</time></trkpt><trkpt lat="45.628561286505935" lon="10.999854131031904"><ele>984.0</ele><time>2026-04-07T13:39:36Z</time></trkpt><trkpt lat="45.62874281882037" lon="10.999913857885145"><ele>984.0</ele><time>2026-04-07T13:39:37Z</time></trkpt><trkpt lat="45.6289145706872" lon="10.999924320559332"><ele>981.6666666666667</ele><time>2026-04-07T13:39:38Z</time></trkpt><trkpt lat="45.629082305429336" lon="10.999881093260502"><ele>979.3333333333334</ele><time>2026-04-07T13:39:39Z</time></trkpt><trkpt lat="45.629268487565085" lon="10.99977521668997"><ele>977.0</ele><time>2026-04-07T13:39:40Z</time></trkpt><trkpt lat="45.629440445942265" lon="10.999689692731659"><ele>977.3333333333334</ele><time>2026-04-07T13:39:41Z</time></trkpt><trkpt lat="45.629606933759035" lon="10.999664588654449"><ele>977.6666666666667</ele><time>2026-04-07T13:39:42Z</time></trkpt><trkpt lat="45.629778374506614" lon="10.99964845017705"><ele>978.0</ele><time>2026-04-07T13:39:43Z</time></trkpt><trkpt lat="45.629956190895236" lon="10.999632233209484"><ele>978.0</ele><time>2026-04-07T13:39:44Z</time></trkpt><trkpt lat="45.63011402153181" lon="10.999653065014874"><ele>978.0</ele><time>2026-04-07T13:39:45Z</time></trkpt><trkpt lat="45.63025631584525" lon="10.999653928017182"><ele>978.0</ele><time>2026-04-07T13:39:46Z</time></trkpt><trkpt lat="45.63038256592151" lon="10.999613153728156"><ele>978.0</ele><time>2026-04-07T13:39:47Z</time></trkpt><trkpt lat="45.63047797818244" lon="10.999508424249592"><ele>979.3333333333333</ele><time>2026-04-07T13:39:48Z</time></trkpt><trkpt lat="45.63053242002954" lon="10.99934368341411"><ele>980.6666666666666</ele><time>2026-04-07T13:39:49Z</time></trkpt><trkpt lat="45.63055924649032" lon="10.999117085843928"><ele>982.0</ele><time>2026-04-07T13:39:50Z</time></trkpt><trkpt lat="45.630551164289436" lon="10.998867195363019"><ele>982.0</ele><time>2026-04-07T13:39:51Z</time></trkpt><trkpt lat="45.63052222085659" lon="10.99858422613262"><ele>982.0</ele><time>2026-04-07T13:39:52Z</time></trkpt><trkpt lat="45.63050522650318" lon="10.998317872866503"><ele>982.0</ele><time>2026-04-07T13:39:53Z</time></trkpt><trkpt lat="45.63050063840687" lon="10.99808588337381"><ele>979.75</ele><time>2026-04-07T13:39:54Z</time></trkpt><trkpt lat="45.63049711480502" lon="10.997889183605677"><ele>977.5</ele><time>2026-04-07T13:39:55Z</time></trkpt><trkpt lat="45.63047963053419" lon="10.997723277754833"><ele>975.25</ele><time>2026-04-07T13:39:56Z</time></trkpt><trkpt lat="45.63042336365859" lon="10.997594748868726"><ele>973.0</ele><time>2026-04-07T13:39:57Z</time></trkpt><trkpt lat="45.63032819330887" lon="10.997513037673004"><ele>968.6666666666666</ele><time>2026-04-07T13:39:58Z</time></trkpt><trkpt lat="45.63019692273709" lon="10.99749085262308"><ele>964.3333333333333</ele><time>2026-04-07T13:39:59Z</time></trkpt><trkpt lat="45.6300421369156" lon="10.997512980755117"><ele>960.0</ele><time>2026-04-07T13:39:59.999Z</time></trkpt><trkpt lat="45.62987738472503" lon="10.997550721957728"><ele>960.0</ele><time>2026-04-07T13:40:00.999Z</time></trkpt><trkpt lat="45.62971707584238" lon="10.997530095094445"><ele>960.0</ele><time>2026-04-07T13:40:01.999Z</time></trkpt><trkpt lat="45.629544078476854" lon="10.997468760274682"><ele>960.0</ele><time>2026-04-07T13:40:02.999Z</time></trkpt><trkpt lat="45.629397327537774" lon="10.997350327537482"><ele>955.0</ele><time>2026-04-07T13:40:03.999Z</time></trkpt><trkpt lat="45.62924354717722" lon="10.997242386804334"><ele>950.0</ele><time>2026-04-07T13:40:04.999Z</time></trkpt><trkpt lat="45.62909994473386" lon="10.997088355730822"><ele>945.0</ele><time>2026-04-07T13:40:05.999Z</time></trkpt><trkpt lat="45.628956755388415" lon="10.996914244732261"><ele>945.0</ele><time>2026-04-07T13:40:06.999Z</time></trkpt><trkpt lat="45.62881689622451" lon="10.99669910282897"><ele>945.0</ele><time>2026-04-07T13:40:07.999Z</time></trkpt><trkpt lat="45.628638948190215" lon="10.996487146889292"><ele>945.0</ele><time>2026-04-07T13:40:08.999Z</time></trkpt><trkpt lat="45.62847342530169" lon="10.996238246323955"><ele>946.5</ele><time>2026-04-07T13:40:09.999Z</time></trkpt><trkpt lat="45.628305023998664" lon="10.995976541703609"><ele>948.0</ele><time>2026-04-07T13:40:10.999Z</time></trkpt><trkpt lat="45.6281390484248" lon="10.995724491673357"><ele>948.0</ele><time>2026-04-07T13:40:11.999Z</time></trkpt><trkpt lat="45.62796143252553" lon="10.995494414943648"><ele>948.0</ele><time>2026-04-07T13:40:12.999Z</time></trkpt><trkpt lat="45.62779826923425" lon="10.995271494825829"><ele>942.3333333333333</ele><time>2026-04-07T13:40:13.999Z</time></trkpt><trkpt lat="45.62764550284937" lon="10.995053836451945"><ele>936.6666666666666</ele><time>2026-04-07T13:40:14.999Z</time></trkpt><trkpt lat="45.62748803629216" lon="10.994834429525161"><ele>931.0</ele><time>2026-04-07T13:40:15.999Z</time></trkpt><trkpt lat="45.627339670920236" lon="10.994615750096663"><ele>931.0</ele><time>2026-04-07T13:40:16.999Z</time></trkpt><trkpt lat="45.62720417071998" lon="10.994398433754766"><ele>931.0</ele><time>2026-04-07T13:40:17.999Z</time></trkpt><trkpt lat="45.627084958027105" lon="10.994207005470415"><ele>931.0</ele><time>2026-04-07T13:40:18.999Z</time></trkpt><trkpt lat="45.62697795914142" lon="10.994044454095269"><ele>927.75</ele><time>2026-04-07T13:40:19.999Z</time></trkpt><trkpt lat="45.62688548849956" lon="10.993899843820143"><ele>924.5</ele><time>2026-04-07T13:40:20.999Z</time></trkpt><trkpt lat="45.62680089324507" lon="10.993748705794637"><ele>921.25</ele><time>2026-04-07T13:40:21.999Z</time></trkpt><trkpt lat="45.62674932527359" lon="10.993580073172755"><ele>918.0</ele><time>2026-04-07T13:40:22.999Z</time></trkpt><trkpt lat="45.626735085330736" lon="10.993404954757587"><ele>918.5</ele><time>2026-04-07T13:40:23.999Z</time></trkpt><trkpt lat="45.62676575994415" lon="10.993237669897088"><ele>919.0</ele><time>2026-04-07T13:40:24.999Z</time></trkpt><trkpt lat="45.62682973827577" lon="10.993092341189486"><ele>919.5</ele><time>2026-04-07T13:40:25.999Z</time></trkpt><trkpt lat="45.626951482345284" lon="10.99297757169081"><ele>920.0</ele><time>2026-04-07T13:40:26.999Z</time></trkpt><trkpt lat="45.62708302840023" lon="10.992864113751654"><ele>923.6666666666667</ele><time>2026-04-07T13:40:27.999Z</time></trkpt><trkpt lat="45.62723169101096" lon="10.992751843970026"><ele>927.3333333333333</ele><time>2026-04-07T13:40:28.999Z</time></trkpt><trkpt lat="45.62738462800653" lon="10.99271425863683"><ele>931.0</ele><time>2026-04-07T13:40:29.999Z</time></trkpt><trkpt lat="45.62752676928842" lon="10.992669148620449"><ele>931.0</ele><time>2026-04-07T13:40:30.999Z</time></trkpt><trkpt lat="45.62767929287117" lon="10.992702228087401"><ele>931.0</ele><time>2026-04-07T13:40:31.999Z</time></trkpt><trkpt lat="45.62785514829951" lon="10.992740252946291"><ele>931.0</ele><time>2026-04-07T13:40:32.999Z</time></trkpt><trkpt lat="45.628034778771024" lon="10.992759413469267"><ele>929.3333333333333</ele><time>2026-04-07T13:40:33.999Z</time></trkpt><trkpt lat="45.62820947726488" lon="10.992817033718099"><ele>927.6666666666667</ele><time>2026-04-07T13:40:34.999Z</time></trkpt><trkpt lat="45.62837298802789" lon="10.992864310252248"><ele>926.0</ele><time>2026-04-07T13:40:35.999Z</time></trkpt><trkpt lat="45.62853376339827" lon="10.99290523106648"><ele>924.75</ele><time>2026-04-07T13:40:36.999Z</time></trkpt><trkpt lat="45.62868144600697" lon="10.992968992669962"><ele>923.5</ele><time>2026-04-07T13:40:37.999Z</time></trkpt><trkpt lat="45.6288135621148" lon="10.993042611773497"><ele>922.25</ele><time>2026-04-07T13:40:38.999Z</time></trkpt><trkpt lat="45.6289255614549" lon="10.99313314036924"><ele>921.0</ele><time>2026-04-07T13:40:39.999Z</time></trkpt><trkpt lat="45.62903060386997" lon="10.993186781995188"><ele>921.0</ele><time>2026-04-07T13:40:40.999Z</time></trkpt><trkpt lat="45.629142673158064" lon="10.993177786731357"><ele>921.0</ele><time>2026-04-07T13:40:41.999Z</time></trkpt><trkpt lat="45.6292405697904" lon="10.993084766218583"><ele>921.0</ele><time>2026-04-07T13:40:42.999Z</time></trkpt><trkpt lat="45.62931930452534" lon="10.992935038339473"><ele>921.0</ele><time>2026-04-07T13:40:43.999Z</time></trkpt><trkpt lat="45.62935248819186" lon="10.992745763297187"><ele>921.0</ele><time>2026-04-07T13:40:44.999Z</time></trkpt><trkpt lat="45.629349516300664" lon="10.992536763860508"><ele>921.0</ele><time>2026-04-07T13:40:45.998Z</time></trkpt><trkpt lat="45.6293237608606" lon="10.992300058154674"><ele>921.0</ele><time>2026-04-07T13:40:46.998Z</time></trkpt><trkpt lat="45.62925120620724" lon="10.992090755041119"><ele>917.25</ele><time>2026-04-07T13:40:47.998Z</time></trkpt><trkpt lat="45.62916887588248" lon="10.991898868464641"><ele>913.5</ele><time>2026-04-07T13:40:48.998Z</time></trkpt><trkpt lat="45.62915757612711" lon="10.9917027106869"><ele>909.75</ele><time>2026-04-07T13:40:49.998Z</time></trkpt><trkpt lat="45.629156120045586" lon="10.991483781496775"><ele>906.0</ele><time>2026-04-07T13:40:50.998Z</time></trkpt><trkpt lat="45.62918844910363" lon="10.99127887769449"><ele>905.0</ele><time>2026-04-07T13:40:51.998Z</time></trkpt><trkpt lat="45.62920414590498" lon="10.991088319125328"><ele>904.0</ele><time>2026-04-07T13:40:52.998Z</time></trkpt><trkpt lat="45.629183103572274" lon="10.990912539095932"><ele>903.0</ele><time>2026-04-07T13:40:53.998Z</time></trkpt><trkpt lat="45.62909815146672" lon="10.990729920242094"><ele>902.0</ele><time>2026-04-07T13:40:54.998Z</time></trkpt><trkpt lat="45.62898724801265" lon="10.990536687857897"><ele>902.0</ele><time>2026-04-07T13:40:55.998Z</time></trkpt><trkpt lat="45.62888116335442" lon="10.990305410706682"><ele>902.0</ele><time>2026-04-07T13:40:56.998Z</time></trkpt><trkpt lat="45.62882455413585" lon="10.99008395553801"><ele>902.0</ele><time>2026-04-07T13:40:57.998Z</time></trkpt><trkpt lat="45.628752594270026" lon="10.98988969951332"><ele>895.5</ele><time>2026-04-07T13:40:58.998Z</time></trkpt><trkpt lat="45.62864241620321" lon="10.989705341825767"><ele>889.0</ele><time>2026-04-07T13:40:59.998Z</time></trkpt><trkpt lat="45.628534319198806" lon="10.98955387071348"><ele>882.5</ele><time>2026-04-07T13:41:00.998Z</time></trkpt><trkpt lat="45.6284598189991" lon="10.98941492178845"><ele>876.0</ele><time>2026-04-07T13:41:01.998Z</time></trkpt><trkpt lat="45.62842423704593" lon="10.989270915659446"><ele>876.5</ele><time>2026-04-07T13:41:02.998Z</time></trkpt><trkpt lat="45.62841888662418" lon="10.989117027327238"><ele>877.0</ele><time>2026-04-07T13:41:03.998Z</time></trkpt><trkpt lat="45.628456624029994" lon="10.988977774064878"><ele>877.5</ele><time>2026-04-07T13:41:04.998Z</time></trkpt><trkpt lat="45.62853351130406" lon="10.988870585341878"><ele>878.0</ele><time>2026-04-07T13:41:05.998Z</time></trkpt><trkpt lat="45.62865074137683" lon="10.9887892590943"><ele>881.25</ele><time>2026-04-07T13:41:06.998Z</time></trkpt><trkpt lat="45.62876564946095" lon="10.98870954393263"><ele>884.5</ele><time>2026-04-07T13:41:07.998Z</time></trkpt><trkpt lat="45.628832857828534" lon="10.988588419652604"><ele>887.75</ele><time>2026-04-07T13:41:08.998Z</time></trkpt><trkpt lat="45.62885962703533" lon="10.988422810687918"><ele>891.0</ele><time>2026-04-07T13:41:09.998Z</time></trkpt><trkpt lat="45.62884451809696" lon="10.988222366691502"><ele>891.0</ele><time>2026-04-07T13:41:10.998Z</time></trkpt><trkpt lat="45.628786544927245" lon="10.988017211465719"><ele>891.0</ele><time>2026-04-07T13:41:11.998Z</time></trkpt><trkpt lat="45.62869320797749" lon="10.987803710743187"><ele>891.0</ele><time>2026-04-07T13:41:12.998Z</time></trkpt><trkpt lat="45.628599626509995" lon="10.987594572087119"><ele>882.0</ele><time>2026-04-07T13:41:13.998Z</time></trkpt><trkpt lat="45.62852691027096" lon="10.987397787878233"><ele>873.0</ele><time>2026-04-07T13:41:14.998Z</time></trkpt><trkpt lat="45.62846007608097" lon="10.98720387627073"><ele>864.0</ele><time>2026-04-07T13:41:15.998Z</time></trkpt><trkpt lat="45.62838536205376" lon="10.987013776699806"><ele>864.0</ele><time>2026-04-07T13:41:16.998Z</time></trkpt><trkpt lat="45.62830474313627" lon="10.986832637090206"><ele>864.0</ele><time>2026-04-07T13:41:17.998Z</time></trkpt><trkpt lat="45.62821274797782" lon="10.986659476784382"><ele>864.0</ele><time>2026-04-07T13:41:18.998Z</time></trkpt><trkpt lat="45.62811561104262" lon="10.986488566407251"><ele>864.0</ele><time>2026-04-07T13:41:19.998Z</time></trkpt><trkpt lat="45.628002398333294" lon="10.9863247317399"><ele>864.0</ele><time>2026-04-07T13:41:20.998Z</time></trkpt><trkpt lat="45.6278782761903" lon="10.986177737048635"><ele>864.0</ele><time>2026-04-07T13:41:21.998Z</time></trkpt><trkpt lat="45.62775023358922" lon="10.986041071512131"><ele>863.0</ele><time>2026-04-07T13:41:22.998Z</time></trkpt><trkpt lat="45.6276104931496" lon="10.985916844990685"><ele>862.0</ele><time>2026-04-07T13:41:23.998Z</time></trkpt><trkpt lat="45.627463219193416" lon="10.985803334299526"><ele>861.0</ele><time>2026-04-07T13:41:24.998Z</time></trkpt><trkpt lat="45.62730756310407" lon="10.985690093870547"><ele>861.0</ele><time>2026-04-07T13:41:25.998Z</time></trkpt><trkpt lat="45.62716520906129" lon="10.98557603035735"><ele>861.0</ele><time>2026-04-07T13:41:26.998Z</time></trkpt><trkpt lat="45.62703598273457" lon="10.985471375076743"><ele>861.0</ele><time>2026-04-07T13:41:27.998Z</time></trkpt><trkpt lat="45.62692428133775" lon="10.985375682454748"><ele>861.0</ele><time>2026-04-07T13:41:29Z</time></trkpt><trkpt lat="45.6268314830861" lon="10.985291827834702"><ele>859.1666666666666</ele><time>2026-04-07T13:41:30Z</time></trkpt><trkpt lat="45.62676128155127" lon="10.985238318287537"><ele>857.3333333333333</ele><time>2026-04-07T13:41:31Z</time></trkpt><trkpt lat="45.626695860381126" lon="10.98523568086053"><ele>855.5</ele><time>2026-04-07T13:41:32Z</time></trkpt><trkpt lat="45.62665096251011" lon="10.985309932490619"><ele>853.6666666666666</ele><time>2026-04-07T13:41:33Z</time></trkpt><trkpt lat="45.62666583735902" lon="10.985427000806059"><ele>851.8333333333333</ele><time>2026-04-07T13:41:34Z</time></trkpt><trkpt lat="45.626734830212605" lon="10.985564110920487"><ele>850.0</ele><time>2026-04-07T13:41:35Z</time></trkpt><trkpt lat="45.626827740604995" lon="10.985709439540903"><ele>851.6666666666666</ele><time>2026-04-07T13:41:36Z</time></trkpt><trkpt lat="45.62693164657795" lon="10.985896871974223"><ele>853.3333333333333</ele><time>2026-04-07T13:41:37Z</time></trkpt><trkpt lat="45.62704203841703" lon="10.986102397858245"><ele>855.0</ele><time>2026-04-07T13:41:38Z</time></trkpt><trkpt lat="45.62716173667701" lon="10.98631779324705"><ele>855.0</ele><time>2026-04-07T13:41:39Z</time></trkpt><trkpt lat="45.6272718343565" lon="10.986514009638425"><ele>855.0</ele><time>2026-04-07T13:41:40Z</time></trkpt><trkpt lat="45.62737872940373" lon="10.986695283038367"><ele>855.0</ele><time>2026-04-07T13:41:41Z</time></trkpt><trkpt lat="45.62747801920245" lon="10.986848469594365"><ele>852.2</ele><time>2026-04-07T13:41:42Z</time></trkpt><trkpt lat="45.62757291239549" lon="10.98696690305814"><ele>849.4</ele><time>2026-04-07T13:41:43Z</time></trkpt><trkpt lat="45.627657515614885" lon="10.98703745142839"><ele>846.5999999999999</ele><time>2026-04-07T13:41:44Z</time></trkpt><trkpt lat="45.62771065786988" lon="10.98710003755894"><ele>843.8</ele><time>2026-04-07T13:41:45Z</time></trkpt><trkpt lat="45.627754471858395" lon="10.987218446299307"><ele>841.0</ele><time>2026-04-07T13:41:47Z</time></trkpt><trkpt lat="45.62769394981068" lon="10.987264390032152"><ele>841.0</ele><time>2026-04-07T13:41:48Z</time></trkpt><trkpt lat="45.62761007917179" lon="10.987187191144372"><ele>841.0</ele><time>2026-04-07T13:41:49Z</time></trkpt><trkpt lat="45.62749194939461" lon="10.987102853771788"><ele>841.0</ele><time>2026-04-07T13:41:50Z</time></trkpt><trkpt lat="45.62738371938673" lon="10.986989043132542"><ele>841.0</ele><time>2026-04-07T13:41:51Z</time></trkpt><trkpt lat="45.62724578697265" lon="10.986868462992918"><ele>841.0</ele><time>2026-04-07T13:41:52Z</time></trkpt><trkpt lat="45.627089185922394" lon="10.98671959152705"><ele>841.0</ele><time>2026-04-07T13:41:53Z</time></trkpt><trkpt lat="45.6269122804075" lon="10.986554562604798"><ele>841.0</ele><time>2026-04-07T13:41:54Z</time></trkpt><trkpt lat="45.62671096952129" lon="10.986389113880925"><ele>838.5</ele><time>2026-04-07T13:41:55Z</time></trkpt><trkpt lat="45.62649227107809" lon="10.986237576969234"><ele>836.0</ele><time>2026-04-07T13:41:56Z</time></trkpt><trkpt lat="45.62626078238357" lon="10.986099217226545"><ele>827.5</ele><time>2026-04-07T13:41:57Z</time></trkpt><trkpt lat="45.62603383144471" lon="10.985966368306848"><ele>819.0</ele><time>2026-04-07T13:41:58Z</time></trkpt><trkpt lat="45.62581995900104" lon="10.985851287165831"><ele>818.3333333333333</ele><time>2026-04-07T13:41:59Z</time></trkpt><trkpt lat="45.625618479033555" lon="10.985751000482377"><ele>817.6666666666666</ele><time>2026-04-07T13:42:00Z</time></trkpt><trkpt lat="45.62543454583634" lon="10.985648988825055"><ele>817.0</ele><time>2026-04-07T13:42:01Z</time></trkpt><trkpt lat="45.625255550574536" lon="10.985551586533893"><ele>817.0</ele><time>2026-04-07T13:42:02Z</time></trkpt><trkpt lat="45.625086870905285" lon="10.985457955020722"><ele>817.0</ele><time>2026-04-07T13:42:03Z</time></trkpt><trkpt lat="45.624958016599564" lon="10.985345367545895"><ele>817.0</ele><time>2026-04-07T13:42:04Z</time></trkpt><trkpt lat="45.62485297743635" lon="10.985212495039537"><ele>817.0</ele><time>2026-04-07T13:42:04.999Z</time></trkpt><trkpt lat="45.624783406149206" lon="10.985041277499596"><ele>817.0</ele><time>2026-04-07T13:42:05.999Z</time></trkpt><trkpt lat="45.624709892430175" lon="10.984893937699903"><ele>817.0</ele><time>2026-04-07T13:42:06.999Z</time></trkpt><trkpt lat="45.62466690704109" lon="10.984754044444822"><ele>817.0</ele><time>2026-04-07T13:42:07.999Z</time></trkpt><trkpt lat="45.62461112602428" lon="10.984674095071815"><ele>817.0</ele><time>2026-04-07T13:42:08.999Z</time></trkpt><trkpt lat="45.624538340011696" lon="10.98466476851699"><ele>817.0</ele><time>2026-04-07T13:42:09.999Z</time></trkpt><trkpt lat="45.62446997316325" lon="10.984730492120681"><ele>817.0</ele><time>2026-04-07T13:42:10.999Z</time></trkpt><trkpt lat="45.62443959201257" lon="10.984855978488573"><ele>817.0</ele><time>2026-04-07T13:42:11.999Z</time></trkpt><trkpt lat="45.6244589328523" lon="10.985009890522814"><ele>817.0</ele><time>2026-04-07T13:42:12.999Z</time></trkpt><trkpt lat="45.62452650464617" lon="10.985175243642347"><ele>817.0</ele><time>2026-04-07T13:42:13.999Z</time></trkpt><trkpt lat="45.624619224554344" lon="10.985364683817389"><ele>817.0</ele><time>2026-04-07T13:42:14.999Z</time></trkpt><trkpt lat="45.624729155424724" lon="10.985582554547554"><ele>817.0</ele><time>2026-04-07T13:42:15.999Z</time></trkpt><trkpt lat="45.62487214307734" lon="10.98579360199729"><ele>817.6666666666666</ele><time>2026-04-07T13:42:16.999Z</time></trkpt><trkpt lat="45.62503864745438" lon="10.986008255705647"><ele>818.3333333333333</ele><time>2026-04-07T13:42:17.999Z</time></trkpt><trkpt lat="45.62519783394125" lon="10.986205938426703"><ele>819.0</ele><time>2026-04-07T13:42:18.999Z</time></trkpt><trkpt lat="45.625359509222136" lon="10.986385649122976"><ele>819.0</ele><time>2026-04-07T13:42:19.999Z</time></trkpt><trkpt lat="45.62554851077366" lon="10.986545331301844"><ele>819.0</ele><time>2026-04-07T13:42:20.999Z</time></trkpt><trkpt lat="45.62574550776869" lon="10.986697063239278"><ele>819.0</ele><time>2026-04-07T13:42:21.999Z</time></trkpt><trkpt lat="45.6259265452838" lon="10.986850537342987"><ele>818.3333333333333</ele><time>2026-04-07T13:42:22.999Z</time></trkpt><trkpt lat="45.62608840369177" lon="10.986988553752594"><ele>817.6666666666666</ele><time>2026-04-07T13:42:23.999Z</time></trkpt><trkpt lat="45.626227433079244" lon="10.98711032562152"><ele>817.0</ele><time>2026-04-07T13:42:24.999Z</time></trkpt><trkpt lat="45.626331913124474" lon="10.98727348216031"><ele>817.0</ele><time>2026-04-07T13:42:25.999Z</time></trkpt><trkpt lat="45.62642165924416" lon="10.987424489889765"><ele>817.0</ele><time>2026-04-07T13:42:26.999Z</time></trkpt><trkpt lat="45.62650691496579" lon="10.987536433426587"><ele>817.0</ele><time>2026-04-07T13:42:27.999Z</time></trkpt><trkpt lat="45.62654815833399" lon="10.987660727310564"><ele>817.0</ele><time>2026-04-07T13:42:28.999Z</time></trkpt><trkpt lat="45.62653416514719" lon="10.987799325699982"><ele>817.0</ele><time>2026-04-07T13:42:29.999Z</time></trkpt><trkpt lat="45.626481954390584" lon="10.987903733927281"><ele>817.75</ele><time>2026-04-07T13:42:30.999Z</time></trkpt><trkpt lat="45.62640130443569" lon="10.98795684050973"><ele>818.5</ele><time>2026-04-07T13:42:31.999Z</time></trkpt><trkpt lat="45.626294405287695" lon="10.987941251047175"><ele>819.25</ele><time>2026-04-07T13:42:32.999Z</time></trkpt><trkpt lat="45.62615625389714" lon="10.987840000949959"><ele>820.0</ele><time>2026-04-07T13:42:33.999Z</time></trkpt><trkpt lat="45.62596912736038" lon="10.987821846945032"><ele>817.6666666666666</ele><time>2026-04-07T13:42:34.999Z</time></trkpt><trkpt lat="45.62575573403971" lon="10.987835272039318"><ele>815.3333333333333</ele><time>2026-04-07T13:42:35.999Z</time></trkpt><trkpt lat="45.6255314609578" lon="10.987854718519426"><ele>813.0</ele><time>2026-04-07T13:42:36.999Z</time></trkpt><trkpt lat="45.625283448763284" lon="10.98775915165906"><ele>812.5</ele><time>2026-04-07T13:42:37.999Z</time></trkpt><trkpt lat="45.625013928392846" lon="10.987741394268673"><ele>812.0</ele><time>2026-04-07T13:42:38.999Z</time></trkpt><trkpt lat="45.624721722323955" lon="10.987728065333272"><ele>809.0</ele><time>2026-04-07T13:42:39.999Z</time></trkpt><trkpt lat="45.62445935779266" lon="10.987715195769312"><ele>806.0</ele><time>2026-04-07T13:42:40.999Z</time></trkpt><trkpt lat="45.624204136308876" lon="10.987680303746448"><ele>806.0</ele><time>2026-04-07T13:42:41.999Z</time></trkpt><trkpt lat="45.62394393820215" lon="10.987602396258326"><ele>806.0</ele><time>2026-04-07T13:42:42.999Z</time></trkpt><trkpt lat="45.623680664561086" lon="10.987511680031679"><ele>793.0</ele><time>2026-04-07T13:42:43.999Z</time></trkpt><trkpt lat="45.62343634750243" lon="10.98743765803139"><ele>780.0</ele><time>2026-04-07T13:42:44.999Z</time></trkpt><trkpt lat="45.623199289109486" lon="10.987370098436411"><ele>780.0</ele><time>2026-04-07T13:42:45.999Z</time></trkpt><trkpt lat="45.62296311561544" lon="10.987300141960441"><ele>780.0</ele><time>2026-04-07T13:42:46.999Z</time></trkpt><trkpt lat="45.622736523707125" lon="10.987250310956968"><ele>779.0</ele><time>2026-04-07T13:42:47.999Z</time></trkpt><trkpt lat="45.62251367947931" lon="10.987224498743068"><ele>778.0</ele><time>2026-04-07T13:42:48.999Z</time></trkpt><trkpt lat="45.62227626334493" lon="10.987219359614162"><ele>778.0</ele><time>2026-04-07T13:42:49.999Z</time></trkpt><trkpt lat="45.62204621216531" lon="10.98722979291858"><ele>778.0</ele><time>2026-04-07T13:42:50.998Z</time></trkpt><trkpt lat="45.62177297902448" lon="10.987220568643327"><ele>774.5</ele><time>2026-04-07T13:42:51.998Z</time></trkpt><trkpt lat="45.62150710537579" lon="10.987244091788954"><ele>771.0</ele><time>2026-04-07T13:42:52.998Z</time></trkpt><trkpt lat="45.621270036750886" lon="10.987253945734217"><ele>771.0</ele><time>2026-04-07T13:42:53.998Z</time></trkpt><trkpt lat="45.62105493279284" lon="10.98726067973269"><ele>771.0</ele><time>2026-04-07T13:42:54.998Z</time></trkpt><trkpt lat="45.6208555405063" lon="10.98727082706484"><ele>771.0</ele><time>2026-04-07T13:42:55.998Z</time></trkpt><trkpt lat="45.620660978071754" lon="10.987239784735007"><ele>771.0</ele><time>2026-04-07T13:42:56.998Z</time></trkpt><trkpt lat="45.62046790096398" lon="10.987177168151197"><ele>771.0</ele><time>2026-04-07T13:42:57.998Z</time></trkpt><trkpt lat="45.62026113549387" lon="10.987099658925258"><ele>771.0</ele><time>2026-04-07T13:42:58.998Z</time></trkpt><trkpt lat="45.62004861907988" lon="10.987025528885276"><ele>770.6666666666667</ele><time>2026-04-07T13:42:59.998Z</time></trkpt><trkpt lat="45.61984523839012" lon="10.986996262415449"><ele>770.3333333333334</ele><time>2026-04-07T13:43:00.998Z</time></trkpt><trkpt lat="45.61964923713119" lon="10.986967560483093"><ele>770.0</ele><time>2026-04-07T13:43:01.998Z</time></trkpt><trkpt lat="45.61946423949295" lon="10.986954254688875"><ele>769.6666666666667</ele><time>2026-04-07T13:43:02.998Z</time></trkpt><trkpt lat="45.61929002886707" lon="10.986913428506135"><ele>769.3333333333333</ele><time>2026-04-07T13:43:03.998Z</time></trkpt><trkpt lat="45.619130040715724" lon="10.986823985466277"><ele>769.0</ele><time>2026-04-07T13:43:04.998Z</time></trkpt><trkpt lat="45.61896994184629" lon="10.98670035886553"><ele>762.3333333333333</ele><time>2026-04-07T13:43:05.998Z</time></trkpt><trkpt lat="45.618818451800045" lon="10.986557022186222"><ele>755.6666666666666</ele><time>2026-04-07T13:43:06.998Z</time></trkpt><trkpt lat="45.61867160708854" lon="10.9864077900874"><ele>749.0</ele><time>2026-04-07T13:43:07.998Z</time></trkpt><trkpt lat="45.61853702761728" lon="10.986244596749156"><ele>749.0</ele><time>2026-04-07T13:43:08.998Z</time></trkpt><trkpt lat="45.61841149575142" lon="10.986080724330186"><ele>749.0</ele><time>2026-04-07T13:43:09.998Z</time></trkpt><trkpt lat="45.61828454467158" lon="10.98595816113799"><ele>749.0</ele><time>2026-04-07T13:43:10.998Z</time></trkpt><trkpt lat="45.61816744140266" lon="10.985834126893893"><ele>744.75</ele><time>2026-04-07T13:43:11.998Z</time></trkpt><trkpt lat="45.618028063118416" lon="10.985747909870561"><ele>740.5</ele><time>2026-04-07T13:43:12.998Z</time></trkpt><trkpt lat="45.617871404072915" lon="10.985721714679013"><ele>736.25</ele><time>2026-04-07T13:43:13.998Z</time></trkpt><trkpt lat="45.61773405329277" lon="10.985732046640724"><ele>732.0</ele><time>2026-04-07T13:43:14.998Z</time></trkpt><trkpt lat="45.61762585705486" lon="10.985742525052832"><ele>731.5</ele><time>2026-04-07T13:43:15.998Z</time></trkpt><trkpt lat="45.61755269599308" lon="10.985716073030368"><ele>731.0</ele><time>2026-04-07T13:43:16.998Z</time></trkpt><trkpt lat="45.61751197674417" lon="10.985638334972688"><ele>730.5</ele><time>2026-04-07T13:43:17.998Z</time></trkpt><trkpt lat="45.617537432977734" lon="10.985513487109538"><ele>730.0</ele><time>2026-04-07T13:43:18.998Z</time></trkpt><trkpt lat="45.61757773239412" lon="10.985428331294074"><ele>729.5</ele><time>2026-04-07T13:43:19.998Z</time></trkpt><trkpt lat="45.61765263318318" lon="10.985363210413638"><ele>729.0</ele><time>2026-04-07T13:43:20.998Z</time></trkpt><trkpt lat="45.61776791723439" lon="10.985412402752443"><ele>730.0</ele><time>2026-04-07T13:43:21.998Z</time></trkpt><trkpt lat="45.6178884965" lon="10.985504665927069"><ele>731.0</ele><time>2026-04-07T13:43:22.998Z</time></trkpt><trkpt lat="45.61803351507551" lon="10.985591218351832"><ele>732.0</ele><time>2026-04-07T13:43:23.998Z</time></trkpt><trkpt lat="45.618201712391205" lon="10.98566438951121"><ele>732.0</ele><time>2026-04-07T13:43:24.998Z</time></trkpt><trkpt lat="45.618382661145446" lon="10.985786171070874"><ele>732.0</ele><time>2026-04-07T13:43:25.998Z</time></trkpt><trkpt lat="45.61856954234491" lon="10.985896205061666"><ele>732.0</ele><time>2026-04-07T13:43:26.998Z</time></trkpt><trkpt lat="45.61873730360269" lon="10.985998502342428"><ele>736.3333333333334</ele><time>2026-04-07T13:43:27.998Z</time></trkpt><trkpt lat="45.61889741229637" lon="10.98609616996837"><ele>740.6666666666667</ele><time>2026-04-07T13:43:28.998Z</time></trkpt><trkpt lat="45.619054211445025" lon="10.986177796965341"><ele>745.0</ele><time>2026-04-07T13:43:29.998Z</time></trkpt><trkpt lat="45.61920598622694" lon="10.986232302024655"><ele>745.0</ele><time>2026-04-07T13:43:30.998Z</time></trkpt><trkpt lat="45.619386922928506" lon="10.986272717730907"><ele>745.0</ele><time>2026-04-07T13:43:31.998Z</time></trkpt><trkpt lat="45.61958258869016" lon="10.986294902132945"><ele>745.0</ele><time>2026-04-07T13:43:32.998Z</time></trkpt><trkpt lat="45.61977207837281" lon="10.986309442877788"><ele>744.25</ele><time>2026-04-07T13:43:33.998Z</time></trkpt><trkpt lat="45.619941813527035" lon="10.986316940714275"><ele>743.5</ele><time>2026-04-07T13:43:35Z</time></trkpt><trkpt lat="45.62009433852617" lon="10.986334055111397"><ele>742.75</ele><time>2026-04-07T13:43:36Z</time></trkpt><trkpt lat="45.6201932976189" lon="10.986354101326025"><ele>742.0</ele><time>2026-04-07T13:43:37Z</time></trkpt><trkpt lat="45.62027013554721" lon="10.986346922323348"><ele>742.0</ele><time>2026-04-07T13:43:38Z</time></trkpt><trkpt lat="45.62032085628943" lon="10.986285927751478"><ele>742.0</ele><time>2026-04-07T13:43:39Z</time></trkpt><trkpt lat="45.620279819145324" lon="10.986105795912462"><ele>742.0</ele><time>2026-04-07T13:43:41Z</time></trkpt><trkpt lat="45.62018253005281" lon="10.986029700809796"><ele>742.0</ele><time>2026-04-07T13:43:42Z</time></trkpt><trkpt lat="45.62004807202455" lon="10.98603246110251"><ele>742.0</ele><time>2026-04-07T13:43:43Z</time></trkpt><trkpt lat="45.619861484997934" lon="10.986057209121865"><ele>742.0</ele><time>2026-04-07T13:43:44Z</time></trkpt><trkpt lat="45.61967423824867" lon="10.986038114125186"><ele>742.0</ele><time>2026-04-07T13:43:45Z</time></trkpt><trkpt lat="45.61950002555249" lon="10.985975146187187"><ele>742.0</ele><time>2026-04-07T13:43:46Z</time></trkpt><trkpt lat="45.619328889371175" lon="10.985878174873436"><ele>735.0</ele><time>2026-04-07T13:43:47Z</time></trkpt><trkpt lat="45.61916201044474" lon="10.985692396499974"><ele>728.0</ele><time>2026-04-07T13:43:48Z</time></trkpt><trkpt lat="45.618969676353046" lon="10.985492633183256"><ele>721.0</ele><time>2026-04-07T13:43:49Z</time></trkpt><trkpt lat="45.61876634178718" lon="10.985303819280642"><ele>716.5</ele><time>2026-04-07T13:43:50Z</time></trkpt><trkpt lat="45.61858275616905" lon="10.985099193707246"><ele>712.0</ele><time>2026-04-07T13:43:51Z</time></trkpt><trkpt lat="45.61840638273126" lon="10.984912680734999"><ele>712.0</ele><time>2026-04-07T13:43:52Z</time></trkpt><trkpt lat="45.618227304490354" lon="10.98473475659148"><ele>712.0</ele><time>2026-04-07T13:43:53Z</time></trkpt><trkpt lat="45.618063221586645" lon="10.984523726678505"><ele>712.0</ele><time>2026-04-07T13:43:54Z</time></trkpt><trkpt lat="45.61788935569719" lon="10.984316890861216"><ele>709.6666666666667</ele><time>2026-04-07T13:43:55Z</time></trkpt><trkpt lat="45.61773728204079" lon="10.9840887886759"><ele>707.3333333333334</ele><time>2026-04-07T13:43:56Z</time></trkpt><trkpt lat="45.61759430928702" lon="10.983867506149085"><ele>705.0</ele><time>2026-04-07T13:43:57Z</time></trkpt><trkpt lat="45.61745564679625" lon="10.983668731652665"><ele>705.0</ele><time>2026-04-07T13:43:58Z</time></trkpt><trkpt lat="45.61733891923527" lon="10.98349369421377"><ele>705.0</ele><time>2026-04-07T13:43:59Z</time></trkpt><trkpt lat="45.6172372083393" lon="10.983347835531292"><ele>705.0</ele><time>2026-04-07T13:44:00Z</time></trkpt><trkpt lat="45.61714416676009" lon="10.98322621867307"><ele>705.0</ele><time>2026-04-07T13:44:01Z</time></trkpt><trkpt lat="45.61705656153296" lon="10.983132978692417"><ele>701.8</ele><time>2026-04-07T13:44:02Z</time></trkpt><trkpt lat="45.6169708824918" lon="10.98307980223576"><ele>698.6</ele><time>2026-04-07T13:44:03Z</time></trkpt><trkpt lat="45.61688130016443" lon="10.983095483992873"><ele>695.4000000000001</ele><time>2026-04-07T13:44:04Z</time></trkpt><trkpt lat="45.61680690170733" lon="10.983198187685172"><ele>692.2</ele><time>2026-04-07T13:44:05Z</time></trkpt><trkpt lat="45.61674227864571" lon="10.983354866334352"><ele>689.0</ele><time>2026-04-07T13:44:06Z</time></trkpt><trkpt lat="45.61667527893691" lon="10.983569183204795"><ele>689.0</ele><time>2026-04-07T13:44:07Z</time></trkpt><trkpt lat="45.61659682420297" lon="10.983787569194071"><ele>689.0</ele><time>2026-04-07T13:44:08Z</time></trkpt><trkpt lat="45.6165095668798" lon="10.984028364794298"><ele>689.0</ele><time>2026-04-07T13:44:09Z</time></trkpt><trkpt lat="45.61645867952235" lon="10.984263331866845"><ele>691.3333333333333</ele><time>2026-04-07T13:44:09.999Z</time></trkpt><trkpt lat="45.616435119883846" lon="10.984493162953607"><ele>693.6666666666666</ele><time>2026-04-07T13:44:10.999Z</time></trkpt><trkpt lat="45.61643439556377" lon="10.984733185881863"><ele>696.0</ele><time>2026-04-07T13:44:11.999Z</time></trkpt><trkpt lat="45.61644618502093" lon="10.984985275338088"><ele>695.6666666666666</ele><time>2026-04-07T13:44:12.999Z</time></trkpt><trkpt lat="45.61645714610004" lon="10.98523512650068"><ele>695.3333333333333</ele><time>2026-04-07T13:44:13.999Z</time></trkpt><trkpt lat="45.616460800217176" lon="10.985464233107038"><ele>695.0</ele><time>2026-04-07T13:44:14.999Z</time></trkpt><trkpt lat="45.61646774448539" lon="10.985691927349048"><ele>694.3333333333333</ele><time>2026-04-07T13:44:15.999Z</time></trkpt><trkpt lat="45.616501165368376" lon="10.985924568746416"><ele>693.6666666666666</ele><time>2026-04-07T13:44:16.999Z</time></trkpt><trkpt lat="45.616560518067864" lon="10.986142994809367"><ele>693.0</ele><time>2026-04-07T13:44:17.999Z</time></trkpt><trkpt lat="45.616632860879335" lon="10.98634997052654"><ele>693.0</ele><time>2026-04-07T13:44:18.999Z</time></trkpt><trkpt lat="45.6166855545898" lon="10.986540574970505"><ele>693.0</ele><time>2026-04-07T13:44:19.999Z</time></trkpt><trkpt lat="45.61672339516063" lon="10.986703483048474"><ele>693.0</ele><time>2026-04-07T13:44:20.999Z</time></trkpt><trkpt lat="45.616761459591935" lon="10.986830234773791"><ele>693.0</ele><time>2026-04-07T13:44:21.999Z</time></trkpt><trkpt lat="45.61678195003812" lon="10.986930959246106"><ele>693.0</ele><time>2026-04-07T13:44:22.999Z</time></trkpt><trkpt lat="45.616764538093655" lon="10.987017844488657"><ele>693.0</ele><time>2026-04-07T13:44:23.999Z</time></trkpt><trkpt lat="45.616700919838166" lon="10.987059719112"><ele>693.0</ele><time>2026-04-07T13:44:24.999Z</time></trkpt><trkpt lat="45.61663118561252" lon="10.987034151346748"><ele>693.0</ele><time>2026-04-07T13:44:25.999Z</time></trkpt><trkpt lat="45.61657238871175" lon="10.986943288050247"><ele>693.0</ele><time>2026-04-07T13:44:26.999Z</time></trkpt><trkpt lat="45.6165335897779" lon="10.986773028049495"><ele>693.0</ele><time>2026-04-07T13:44:27.999Z</time></trkpt><trkpt lat="45.61644254909669" lon="10.986593284892544"><ele>693.0</ele><time>2026-04-07T13:44:28.999Z</time></trkpt><trkpt lat="45.61633976278754" lon="10.98637304645319"><ele>693.0</ele><time>2026-04-07T13:44:29.999Z</time></trkpt><trkpt lat="45.616209424827126" lon="10.986150378289235"><ele>693.0</ele><time>2026-04-07T13:44:30.999Z</time></trkpt><trkpt lat="45.61607117585702" lon="10.985915119196417"><ele>691.3333333333334</ele><time>2026-04-07T13:44:31.999Z</time></trkpt><trkpt lat="45.61594798467366" lon="10.985694063773074"><ele>689.6666666666667</ele><time>2026-04-07T13:44:32.999Z</time></trkpt><trkpt lat="45.615835729354835" lon="10.985487284111633"><ele>688.0</ele><time>2026-04-07T13:44:33.999Z</time></trkpt><trkpt lat="45.6157663007875" lon="10.985251848104832"><ele>688.0</ele><time>2026-04-07T13:44:34.999Z</time></trkpt><trkpt lat="45.61571483353237" lon="10.985020646285768"><ele>688.0</ele><time>2026-04-07T13:44:35.999Z</time></trkpt><trkpt lat="45.615641807942154" lon="10.984773681189646"><ele>688.0</ele><time>2026-04-07T13:44:36.999Z</time></trkpt><trkpt lat="45.615586182154686" lon="10.98450814259758"><ele>682.6666666666667</ele><time>2026-04-07T13:44:37.999Z</time></trkpt><trkpt lat="45.6155301427911" lon="10.984261926290715"><ele>677.3333333333334</ele><time>2026-04-07T13:44:38.999Z</time></trkpt><trkpt lat="45.615475778401205" lon="10.984028919709356"><ele>672.0</ele><time>2026-04-07T13:44:39.999Z</time></trkpt><trkpt lat="45.61541803126104" lon="10.983791596687885"><ele>670.0</ele><time>2026-04-07T13:44:40.999Z</time></trkpt><trkpt lat="45.615363121265254" lon="10.983558730880567"><ele>668.0</ele><time>2026-04-07T13:44:41.999Z</time></trkpt><trkpt lat="45.615310187595796" lon="10.98334411689481"><ele>666.0</ele><time>2026-04-07T13:44:42.999Z</time></trkpt><trkpt lat="45.61523547490089" lon="10.98316090103321"><ele>666.0</ele><time>2026-04-07T13:44:43.999Z</time></trkpt><trkpt lat="45.61513126907082" lon="10.98301750910907"><ele>666.0</ele><time>2026-04-07T13:44:44.999Z</time></trkpt><trkpt lat="45.61500723848095" lon="10.982912880757821"><ele>666.0</ele><time>2026-04-07T13:44:45.999Z</time></trkpt><trkpt lat="45.61483307927109" lon="10.982853838331108"><ele>666.0</ele><time>2026-04-07T13:44:46.999Z</time></trkpt><trkpt lat="45.61464074137535" lon="10.982803682195716"><ele>666.0</ele><time>2026-04-07T13:44:47.999Z</time></trkpt><trkpt lat="45.614423671341925" lon="10.982757316810076"><ele>666.0</ele><time>2026-04-07T13:44:48.999Z</time></trkpt><trkpt lat="45.6141980538577" lon="10.982678653176293"><ele>658.6666666666666</ele><time>2026-04-07T13:44:49.999Z</time></trkpt><trkpt lat="45.61398457182465" lon="10.982594670993532"><ele>651.3333333333333</ele><time>2026-04-07T13:44:50.999Z</time></trkpt><trkpt lat="45.61377953720401" lon="10.9825195215537"><ele>644.0</ele><time>2026-04-07T13:44:51.999Z</time></trkpt><trkpt lat="45.613592454850036" lon="10.98246461370552"><ele>644.0</ele><time>2026-04-07T13:44:52.999Z</time></trkpt><trkpt lat="45.61341260259997" lon="10.982404870635747"><ele>644.0</ele><time>2026-04-07T13:44:53.999Z</time></trkpt><trkpt lat="45.61325411193094" lon="10.98235104584818"><ele>644.0</ele><time>2026-04-07T13:44:54.999Z</time></trkpt><trkpt lat="45.61309792006431" lon="10.982323765989074"><ele>644.0</ele><time>2026-04-07T13:44:55.999Z</time></trkpt><trkpt lat="45.612914618740554" lon="10.982333117573951"><ele>644.0</ele><time>2026-04-07T13:44:56.998Z</time></trkpt><trkpt lat="45.612709127252124" lon="10.982378608510665"><ele>644.0</ele><time>2026-04-07T13:44:57.998Z</time></trkpt><trkpt lat="45.61250770985965" lon="10.98243761294714"><ele>642.3333333333333</ele><time>2026-04-07T13:44:58.998Z</time></trkpt><trkpt lat="45.61230990469468" lon="10.982442740053905"><ele>640.6666666666666</ele><time>2026-04-07T13:44:59.998Z</time></trkpt><trkpt lat="45.61212201461494" lon="10.982446836237267"><ele>639.0</ele><time>2026-04-07T13:45:00.998Z</time></trkpt><trkpt lat="45.61194006364338" lon="10.982456629361259"><ele>635.6666666666666</ele><time>2026-04-07T13:45:01.998Z</time></trkpt><trkpt lat="45.611765513795056" lon="10.982440220199067"><ele>632.3333333333333</ele><time>2026-04-07T13:45:02.998Z</time></trkpt><trkpt lat="45.611603918653664" lon="10.982426570269634"><ele>629.0</ele><time>2026-04-07T13:45:03.998Z</time></trkpt><trkpt lat="45.61146022724214" lon="10.982417203558514"><ele>629.0</ele><time>2026-04-07T13:45:04.998Z</time></trkpt><trkpt lat="45.61132848332866" lon="10.982415202848292"><ele>629.0</ele><time>2026-04-07T13:45:05.998Z</time></trkpt><trkpt lat="45.611208489449055" lon="10.982449225192367"><ele>629.0</ele><time>2026-04-07T13:45:06.998Z</time></trkpt><trkpt lat="45.6110994540707" lon="10.98252020241517"><ele>629.0</ele><time>2026-04-07T13:45:07.998Z</time></trkpt><trkpt lat="45.61098862794447" lon="10.982669513871404"><ele>628.0</ele><time>2026-04-07T13:45:08.998Z</time></trkpt><trkpt lat="45.61086566099696" lon="10.982865711624417"><ele>627.0</ele><time>2026-04-07T13:45:09.998Z</time></trkpt><trkpt lat="45.61070700014856" lon="10.983045918813357"><ele>626.0</ele><time>2026-04-07T13:45:10.998Z</time></trkpt><trkpt lat="45.61053867910556" lon="10.983267982432505"><ele>628.0</ele><time>2026-04-07T13:45:11.998Z</time></trkpt><trkpt lat="45.610330388395475" lon="10.983428580017673"><ele>630.0</ele><time>2026-04-07T13:45:12.998Z</time></trkpt><trkpt lat="45.61011985216826" lon="10.98359008136354"><ele>630.0</ele><time>2026-04-07T13:45:13.998Z</time></trkpt><trkpt lat="45.60991398519617" lon="10.983769386849094"><ele>630.0</ele><time>2026-04-07T13:45:14.998Z</time></trkpt><trkpt lat="45.60970967307442" lon="10.983933187056582"><ele>630.0</ele><time>2026-04-07T13:45:15.998Z</time></trkpt><trkpt lat="45.609523567250086" lon="10.984105216786867"><ele>630.0</ele><time>2026-04-07T13:45:16.998Z</time></trkpt><trkpt lat="45.60933598676011" lon="10.984280512775308"><ele>630.0</ele><time>2026-04-07T13:45:17.998Z</time></trkpt><trkpt lat="45.60916154043143" lon="10.984450512696698"><ele>629.6666666666666</ele><time>2026-04-07T13:45:18.998Z</time></trkpt><trkpt lat="45.608999875539254" lon="10.984603750871889"><ele>629.3333333333333</ele><time>2026-04-07T13:45:19.998Z</time></trkpt><trkpt lat="45.60884405863033" lon="10.98474449869011"><ele>629.0</ele><time>2026-04-07T13:45:20.998Z</time></trkpt><trkpt lat="45.60869824678604" lon="10.98487617497067"><ele>625.75</ele><time>2026-04-07T13:45:21.998Z</time></trkpt><trkpt lat="45.6085738581053" lon="10.984989258025939"><ele>622.5</ele><time>2026-04-07T13:45:22.998Z</time></trkpt><trkpt lat="45.608465076367146" lon="10.985092935295555"><ele>619.25</ele><time>2026-04-07T13:45:23.998Z</time></trkpt><trkpt lat="45.60838625177063" lon="10.985193364808731"><ele>616.0</ele><time>2026-04-07T13:45:24.998Z</time></trkpt><trkpt lat="45.60833426354998" lon="10.98531977943068"><ele>616.0</ele><time>2026-04-07T13:45:25.998Z</time></trkpt><trkpt lat="45.608315397789106" lon="10.985467803689545"><ele>616.0</ele><time>2026-04-07T13:45:26.998Z</time></trkpt><trkpt lat="45.60833895102547" lon="10.985631197301554"><ele>616.0</ele><time>2026-04-07T13:45:27.998Z</time></trkpt><trkpt lat="45.60837355968265" lon="10.985772253132614"><ele>616.0</ele><time>2026-04-07T13:45:28.998Z</time></trkpt><trkpt lat="45.608368939676176" lon="10.985876713147892"><ele>616.0</ele><time>2026-04-07T13:45:29.998Z</time></trkpt><trkpt lat="45.6083199957619" lon="10.985946108457322"><ele>616.0</ele><time>2026-04-07T13:45:30.998Z</time></trkpt><trkpt lat="45.60824487386472" lon="10.98595303231259"><ele>616.0</ele><time>2026-04-07T13:45:31.998Z</time></trkpt><trkpt lat="45.60817101510283" lon="10.985861683236916"><ele>616.0</ele><time>2026-04-07T13:45:32.998Z</time></trkpt><trkpt lat="45.608064384460796" lon="10.985798975764684"><ele>616.0</ele><time>2026-04-07T13:45:33.998Z</time></trkpt><trkpt lat="45.60793937166687" lon="10.985732838254439"><ele>616.0</ele><time>2026-04-07T13:45:34.998Z</time></trkpt><trkpt lat="45.60780513016104" lon="10.985734049225302"><ele>617.5</ele><time>2026-04-07T13:45:35.998Z</time></trkpt><trkpt lat="45.60767000073667" lon="10.985804262326587"><ele>619.0</ele><time>2026-04-07T13:45:36.998Z</time></trkpt><trkpt lat="45.60755620103526" lon="10.985912517051334"><ele>620.5</ele><time>2026-04-07T13:45:37.998Z</time></trkpt><trkpt lat="45.6074650292117" lon="10.986065456179052"><ele>622.0</ele><time>2026-04-07T13:45:38.998Z</time></trkpt><trkpt lat="45.607367837571985" lon="10.98626125363435"><ele>622.0</ele><time>2026-04-07T13:45:39.998Z</time></trkpt><trkpt lat="45.60724092493247" lon="10.986463729342878"><ele>622.0</ele><time>2026-04-07T13:45:41Z</time></trkpt><trkpt lat="45.607123003272115" lon="10.98665554033131"><ele>622.0</ele><time>2026-04-07T13:45:42Z</time></trkpt><trkpt lat="45.60701505899251" lon="10.986826803914457"><ele>619.0</ele><time>2026-04-07T13:45:43Z</time></trkpt><trkpt lat="45.606914760172515" lon="10.98698126224531"><ele>616.0</ele><time>2026-04-07T13:45:44Z</time></trkpt><trkpt lat="45.60681568244465" lon="10.987098252546668"><ele>613.0</ele><time>2026-04-07T13:45:45Z</time></trkpt><trkpt lat="45.6067451333994" lon="10.987190851239237"><ele>610.0</ele><time>2026-04-07T13:45:46Z</time></trkpt><trkpt lat="45.606666884607705" lon="10.98726268972446"><ele>610.0</ele><time>2026-04-07T13:45:47Z</time></trkpt><trkpt lat="45.60656053568647" lon="10.987263907879605"><ele>610.0</ele><time>2026-04-07T13:45:48Z</time></trkpt><trkpt lat="45.606457799092176" lon="10.987164592269655"><ele>610.0</ele><time>2026-04-07T13:45:49Z</time></trkpt><trkpt lat="45.60633927116077" lon="10.987130001425466"><ele>610.0</ele><time>2026-04-07T13:45:50Z</time></trkpt><trkpt lat="45.60625281877353" lon="10.987052882697725"><ele>610.0</ele><time>2026-04-07T13:45:51Z</time></trkpt><trkpt lat="45.606191400587456" lon="10.986942461239972"><ele>610.0</ele><time>2026-04-07T13:45:52Z</time></trkpt><trkpt lat="45.60615901576881" lon="10.986792054925745"><ele>610.0</ele><time>2026-04-07T13:45:53Z</time></trkpt><trkpt lat="45.606157383068464" lon="10.986610109081786"><ele>610.0</ele><time>2026-04-07T13:45:54Z</time></trkpt><trkpt lat="45.606175473037425" lon="10.986404596027496"><ele>607.0</ele><time>2026-04-07T13:45:55Z</time></trkpt><trkpt lat="45.60618961852143" lon="10.986198421557507"><ele>604.0</ele><time>2026-04-07T13:45:56Z</time></trkpt><trkpt lat="45.606174770225756" lon="10.986018060291917"><ele>601.0</ele><time>2026-04-07T13:45:57Z</time></trkpt><trkpt lat="45.60612772433358" lon="10.985856154431643"><ele>598.0</ele><time>2026-04-07T13:45:58Z</time></trkpt><trkpt lat="45.60604029598806" lon="10.985697995412401"><ele>596.75</ele><time>2026-04-07T13:45:59Z</time></trkpt><trkpt lat="45.605940086906585" lon="10.98556729545144"><ele>595.5</ele><time>2026-04-07T13:46:00Z</time></trkpt><trkpt lat="45.60584034316492" lon="10.985467811261197"><ele>594.25</ele><time>2026-04-07T13:46:01Z</time></trkpt><trkpt lat="45.605737845104215" lon="10.98540344297334"><ele>593.0</ele><time>2026-04-07T13:46:02Z</time></trkpt><trkpt lat="45.605619523248066" lon="10.985402088430526"><ele>593.0</ele><time>2026-04-07T13:46:03Z</time></trkpt><trkpt lat="45.605495870756116" lon="10.985450736355359"><ele>593.0</ele><time>2026-04-07T13:46:04Z</time></trkpt><trkpt lat="45.60536506408399" lon="10.985549139818698"><ele>593.0</ele><time>2026-04-07T13:46:05Z</time></trkpt><trkpt lat="45.60523681800794" lon="10.985655095568774"><ele>593.0</ele><time>2026-04-07T13:46:06Z</time></trkpt><trkpt lat="45.6051085047778" lon="10.985732929114816"><ele>592.75</ele><time>2026-04-07T13:46:07Z</time></trkpt><trkpt lat="45.60496919048572" lon="10.98577299748735"><ele>592.5</ele><time>2026-04-07T13:46:08Z</time></trkpt><trkpt lat="45.6048240419024" lon="10.985751595988944"><ele>592.25</ele><time>2026-04-07T13:46:09Z</time></trkpt><trkpt lat="45.60469210415386" lon="10.985639113982435"><ele>592.0</ele><time>2026-04-07T13:46:10Z</time></trkpt><trkpt lat="45.60455842613382" lon="10.985592520325609"><ele>590.75</ele><time>2026-04-07T13:46:10.999Z</time></trkpt><trkpt lat="45.60444774908874" lon="10.985540278049777"><ele>589.5</ele><time>2026-04-07T13:46:11.999Z</time></trkpt><trkpt lat="45.60431688537929" lon="10.985546546107672"><ele>588.25</ele><time>2026-04-07T13:46:12.999Z</time></trkpt><trkpt lat="45.60415315734723" lon="10.985598124459223"><ele>587.0</ele><time>2026-04-07T13:46:13.999Z</time></trkpt><trkpt lat="45.60397690465186" lon="10.985679163474304"><ele>587.0</ele><time>2026-04-07T13:46:14.999Z</time></trkpt><trkpt lat="45.603817993593516" lon="10.985755007857305"><ele>587.0</ele><time>2026-04-07T13:46:15.999Z</time></trkpt><trkpt lat="45.60368299855894" lon="10.985832222099628"><ele>587.0</ele><time>2026-04-07T13:46:16.999Z</time></trkpt><trkpt lat="45.60354957160702" lon="10.985938788087989"><ele>587.0</ele><time>2026-04-07T13:46:17.999Z</time></trkpt><trkpt lat="45.60341701849719" lon="10.986121913883824"><ele>587.0</ele><time>2026-04-07T13:46:18.999Z</time></trkpt><trkpt lat="45.60328366054344" lon="10.986311935665304"><ele>587.0</ele><time>2026-04-07T13:46:19.999Z</time></trkpt><trkpt lat="45.60316012450333" lon="10.986480675461355"><ele>587.0</ele><time>2026-04-07T13:46:20.999Z</time></trkpt><trkpt lat="45.60304833648962" lon="10.986622194683935"><ele>587.0</ele><time>2026-04-07T13:46:21.999Z</time></trkpt><trkpt lat="45.60295789268772" lon="10.986749592449524"><ele>587.0</ele><time>2026-04-07T13:46:22.999Z</time></trkpt><trkpt lat="45.60287097240578" lon="10.986822620598963"><ele>587.0</ele><time>2026-04-07T13:46:23.999Z</time></trkpt><trkpt lat="45.60279417000687" lon="10.98689074835325"><ele>588.0</ele><time>2026-04-07T13:46:24.999Z</time></trkpt><trkpt lat="45.60271250800711" lon="10.98690963963068"><ele>589.0</ele><time>2026-04-07T13:46:25.999Z</time></trkpt><trkpt lat="45.602625069778824" lon="10.986850580710339"><ele>590.0</ele><time>2026-04-07T13:46:26.999Z</time></trkpt><trkpt lat="45.60258078490658" lon="10.986684842068666"><ele>591.0</ele><time>2026-04-07T13:46:27.999Z</time></trkpt><trkpt lat="45.602486311076376" lon="10.986560821336141"><ele>592.0</ele><time>2026-04-07T13:46:28.999Z</time></trkpt><trkpt lat="45.60237715116593" lon="10.986435699125025"><ele>586.3333333333334</ele><time>2026-04-07T13:46:29.999Z</time></trkpt><trkpt lat="45.60221236856708" lon="10.986376914193757"><ele>580.6666666666666</ele><time>2026-04-07T13:46:30.999Z</time></trkpt><trkpt lat="45.60202533015438" lon="10.98635015351042"><ele>575.0</ele><time>2026-04-07T13:46:31.999Z</time></trkpt><trkpt lat="45.601837820169244" lon="10.986320335621455"><ele>575.0</ele><time>2026-04-07T13:46:32.999Z</time></trkpt><trkpt lat="45.601681987695855" lon="10.98626910323828"><ele>575.0</ele><time>2026-04-07T13:46:33.999Z</time></trkpt><trkpt lat="45.60154791756672" lon="10.98622943185023"><ele>575.0</ele><time>2026-04-07T13:46:34.999Z</time></trkpt><trkpt lat="45.601428470990164" lon="10.986216455782102"><ele>575.0</ele><time>2026-04-07T13:46:35.999Z</time></trkpt><trkpt lat="45.60129539039959" lon="10.986274578567144"><ele>575.3333333333333</ele><time>2026-04-07T13:46:36.999Z</time></trkpt><trkpt lat="45.60114850726026" lon="10.986409628412853"><ele>575.6666666666666</ele><time>2026-04-07T13:46:37.999Z</time></trkpt><trkpt lat="45.60099190306357" lon="10.98657574428297"><ele>576.0</ele><time>2026-04-07T13:46:38.999Z</time></trkpt><trkpt lat="45.60082376048908" lon="10.986745330042277"><ele>576.0</ele><time>2026-04-07T13:46:39.999Z</time></trkpt><trkpt lat="45.60066243369324" lon="10.986943767929723"><ele>576.0</ele><time>2026-04-07T13:46:40.999Z</time></trkpt><trkpt lat="45.600533173419024" lon="10.987145506546383"><ele>576.0</ele><time>2026-04-07T13:46:41.999Z</time></trkpt><trkpt lat="45.600402193664934" lon="10.987324085463905"><ele>573.6666666666666</ele><time>2026-04-07T13:46:42.999Z</time></trkpt><trkpt lat="45.600280524017144" lon="10.98749026898738"><ele>571.3333333333333</ele><time>2026-04-07T13:46:43.999Z</time></trkpt><trkpt lat="45.60014926998344" lon="10.987627017276758"><ele>569.0</ele><time>2026-04-07T13:46:44.999Z</time></trkpt><trkpt lat="45.600003814254315" lon="10.987730132318028"><ele>569.0</ele><time>2026-04-07T13:46:45.999Z</time></trkpt><trkpt lat="45.59984050936994" lon="10.987794468677036"><ele>569.0</ele><time>2026-04-07T13:46:46.999Z</time></trkpt><trkpt lat="45.599668086062835" lon="10.987848570059677"><ele>569.0</ele><time>2026-04-07T13:46:47.999Z</time></trkpt><trkpt lat="45.599508961065126" lon="10.9878863942204"><ele>563.3333333333333</ele><time>2026-04-07T13:46:48.999Z</time></trkpt><trkpt lat="45.59935960633471" lon="10.987891926184302"><ele>557.6666666666666</ele><time>2026-04-07T13:46:49.999Z</time></trkpt><trkpt lat="45.599211913005654" lon="10.987798842340425"><ele>552.0</ele><time>2026-04-07T13:46:50.999Z</time></trkpt><trkpt lat="45.59903076873721" lon="10.9877115933794"><ele>552.0</ele><time>2026-04-07T13:46:51.999Z</time></trkpt><trkpt lat="45.598854312425495" lon="10.987608980122861"><ele>552.0</ele><time>2026-04-07T13:46:52.999Z</time></trkpt><trkpt lat="45.598688338961786" lon="10.987513842740276"><ele>552.0</ele><time>2026-04-07T13:46:53.999Z</time></trkpt><trkpt lat="45.59854299384716" lon="10.987423816362728"><ele>547.75</ele><time>2026-04-07T13:46:54.999Z</time></trkpt><trkpt lat="45.59841108629825" lon="10.987360351195038"><ele>543.5</ele><time>2026-04-07T13:46:55.999Z</time></trkpt><trkpt lat="45.598282659176185" lon="10.987357048944412"><ele>539.25</ele><time>2026-04-07T13:46:56.999Z</time></trkpt><trkpt lat="45.598157358797934" lon="10.987421709632335"><ele>535.0</ele><time>2026-04-07T13:46:57.999Z</time></trkpt><trkpt lat="45.59805666498813" lon="10.987551839543091"><ele>535.0</ele><time>2026-04-07T13:46:58.999Z</time></trkpt><trkpt lat="45.59797405465092" lon="10.987748918016225"><ele>535.0</ele><time>2026-04-07T13:46:59.998Z</time></trkpt><trkpt lat="45.597888520644304" lon="10.987982157503438"><ele>535.0</ele><time>2026-04-07T13:47:00.998Z</time></trkpt><trkpt lat="45.597790763885826" lon="10.988228499129972"><ele>532.6666666666667</ele><time>2026-04-07T13:47:01.998Z</time></trkpt><trkpt lat="45.59768528076018" lon="10.988487844858588"><ele>530.3333333333334</ele><time>2026-04-07T13:47:02.998Z</time></trkpt><trkpt lat="45.5975703270376" lon="10.988725023538619"><ele>528.0</ele><time>2026-04-07T13:47:03.998Z</time></trkpt><trkpt lat="45.59747457654979" lon="10.988952793289805"><ele>528.0</ele><time>2026-04-07T13:47:04.998Z</time></trkpt><trkpt lat="45.597364157290066" lon="10.989168682963689"><ele>528.0</ele><time>2026-04-07T13:47:05.998Z</time></trkpt><trkpt lat="45.59722900465989" lon="10.98936532537578"><ele>528.0</ele><time>2026-04-07T13:47:06.998Z</time></trkpt><trkpt lat="45.59706345930654" lon="10.98953944890631"><ele>527.3333333333334</ele><time>2026-04-07T13:47:07.998Z</time></trkpt><trkpt lat="45.59688549682186" lon="10.989670757430844"><ele>526.6666666666667</ele><time>2026-04-07T13:47:08.998Z</time></trkpt><trkpt lat="45.59668464459119" lon="10.989778539014976"><ele>526.0</ele><time>2026-04-07T13:47:09.998Z</time></trkpt><trkpt lat="45.596468704691965" lon="10.989889387896232"><ele>523.5</ele><time>2026-04-07T13:47:10.998Z</time></trkpt><trkpt lat="45.59625078848878" lon="10.990015055947403"><ele>521.0</ele><time>2026-04-07T13:47:11.998Z</time></trkpt><trkpt lat="45.59602586879611" lon="10.990126898900503"><ele>521.0</ele><time>2026-04-07T13:47:12.998Z</time></trkpt><trkpt lat="45.59581291385914" lon="10.990232782239639"><ele>521.0</ele><time>2026-04-07T13:47:13.998Z</time></trkpt><trkpt lat="45.59561225391543" lon="10.990344386414913"><ele>521.0</ele><time>2026-04-07T13:47:14.998Z</time></trkpt><trkpt lat="45.59541509715248" lon="10.990450010827603"><ele>514.3333333333333</ele><time>2026-04-07T13:47:15.998Z</time></trkpt><trkpt lat="45.595202764939884" lon="10.99051754542259"><ele>507.66666666666663</ele><time>2026-04-07T13:47:16.998Z</time></trkpt><trkpt lat="45.594978005860135" lon="10.99057395682908"><ele>501.0</ele><time>2026-04-07T13:47:17.998Z</time></trkpt><trkpt lat="45.59473267286623" lon="10.990644960374194"><ele>493.0</ele><time>2026-04-07T13:47:18.998Z</time></trkpt><trkpt lat="45.59447404284824" lon="10.990696243808074"><ele>485.0</ele><time>2026-04-07T13:47:19.998Z</time></trkpt><trkpt lat="45.59421370528646" lon="10.990753441706318"><ele>485.0</ele><time>2026-04-07T13:47:20.998Z</time></trkpt><trkpt lat="45.59397601239083" lon="10.990801130431105"><ele>485.0</ele><time>2026-04-07T13:47:21.998Z</time></trkpt><trkpt lat="45.59375160878665" lon="10.99085096529514"><ele>473.66666666666663</ele><time>2026-04-07T13:47:22.998Z</time></trkpt><trkpt lat="45.593534769449185" lon="10.990896690815235"><ele>462.33333333333337</ele><time>2026-04-07T13:47:23.998Z</time></trkpt><trkpt lat="45.59333545481786" lon="10.990927963548152"><ele>451.0</ele><time>2026-04-07T13:47:24.998Z</time></trkpt><trkpt lat="45.593166857402025" lon="10.990960598328183"><ele>451.0</ele><time>2026-04-07T13:47:25.998Z</time></trkpt><trkpt lat="45.59301826149845" lon="10.990991548580675"><ele>451.0</ele><time>2026-04-07T13:47:26.998Z</time></trkpt><trkpt lat="45.59288688415917" lon="10.991020743023196"><ele>451.0</ele><time>2026-04-07T13:47:27.998Z</time></trkpt><trkpt lat="45.59277333365059" lon="10.991017011385837"><ele>451.0</ele><time>2026-04-07T13:47:28.998Z</time></trkpt><trkpt lat="45.59267867667018" lon="10.99102029253152"><ele>451.50000000000006</ele><time>2026-04-07T13:47:29.998Z</time></trkpt><trkpt lat="45.5925977303158" lon="10.990987097658811"><ele>452.0</ele><time>2026-04-07T13:47:30.998Z</time></trkpt><trkpt lat="45.59254004200319" lon="10.990907318551237"><ele>452.5</ele><time>2026-04-07T13:47:31.998Z</time></trkpt><trkpt lat="45.59254598598128" lon="10.990802496998516"><ele>453.0</ele><time>2026-04-07T13:47:32.998Z</time></trkpt><trkpt lat="45.5925848513965" lon="10.99070777479225"><ele>453.50000000000006</ele><time>2026-04-07T13:47:33.998Z</time></trkpt><trkpt lat="45.59267535499179" lon="10.990637570900908"><ele>454.0</ele><time>2026-04-07T13:47:34.998Z</time></trkpt><trkpt lat="45.592814863451345" lon="10.99064634090393"><ele>461.6666666666667</ele><time>2026-04-07T13:47:35.998Z</time></trkpt><trkpt lat="45.59297667595149" lon="10.990632502947765"><ele>469.33333333333337</ele><time>2026-04-07T13:47:36.998Z</time></trkpt><trkpt lat="45.593160535362685" lon="10.990597078134906"><ele>477.0</ele><time>2026-04-07T13:47:37.998Z</time></trkpt><trkpt lat="45.59337092052465" lon="10.99054077138424"><ele>477.0</ele><time>2026-04-07T13:47:38.998Z</time></trkpt><trkpt lat="45.59359498358005" lon="10.990437126258861"><ele>477.0</ele><time>2026-04-07T13:47:39.998Z</time></trkpt><trkpt lat="45.59379414738863" lon="10.990324810996905"><ele>479.66666666666663</ele><time>2026-04-07T13:47:40.998Z</time></trkpt><trkpt lat="45.59397177852076" lon="10.990215896683384"><ele>482.3333333333333</ele><time>2026-04-07T13:47:41.998Z</time></trkpt><trkpt lat="45.594126574996416" lon="10.990135383424288"><ele>485.0</ele><time>2026-04-07T13:47:42.998Z</time></trkpt><trkpt lat="45.59426068442617" lon="10.990060067973854"><ele>483.2</ele><time>2026-04-07T13:47:43.998Z</time></trkpt><trkpt lat="45.5943698985822" lon="10.9899776017759"><ele>481.4</ele><time>2026-04-07T13:47:44.998Z</time></trkpt><trkpt lat="45.594452839303635" lon="10.9898693693051"><ele>479.6</ele><time>2026-04-07T13:47:45.998Z</time></trkpt><trkpt lat="45.59447703639601" lon="10.989727884660178"><ele>477.8</ele><time>2026-04-07T13:47:47Z</time></trkpt><trkpt lat="45.59443008586329" lon="10.989589636260229"><ele>476.0</ele><time>2026-04-07T13:47:48Z</time></trkpt><trkpt lat="45.59435851232216" lon="10.989482387122099"><ele>476.0</ele><time>2026-04-07T13:47:49Z</time></trkpt><trkpt lat="45.594235024578666" lon="10.98942869216046"><ele>476.0</ele><time>2026-04-07T13:47:50Z</time></trkpt><trkpt lat="45.59407737031339" lon="10.989397753195977"><ele>476.0</ele><time>2026-04-07T13:47:51Z</time></trkpt><trkpt lat="45.59389453124626" lon="10.989381456275488"><ele>476.0</ele><time>2026-04-07T13:47:52Z</time></trkpt><trkpt lat="45.593704866249375" lon="10.989336576501678"><ele>476.0</ele><time>2026-04-07T13:47:53Z</time></trkpt><trkpt lat="45.59350782578026" lon="10.989284633807529"><ele>476.0</ele><time>2026-04-07T13:47:54Z</time></trkpt><trkpt lat="45.59331812460869" lon="10.989240044761774"><ele>473.0</ele><time>2026-04-07T13:47:55Z</time></trkpt><trkpt lat="45.593144192807685" lon="10.989214039234374"><ele>470.0</ele><time>2026-04-07T13:47:56Z</time></trkpt><trkpt lat="45.592995340405224" lon="10.989182949382396"><ele>467.0</ele><time>2026-04-07T13:47:57Z</time></trkpt><trkpt lat="45.59287260794541" lon="10.989155339220682"><ele>462.40000000000003</ele><time>2026-04-07T13:47:58Z</time></trkpt><trkpt lat="45.592775279634935" lon="10.98911375127927"><ele>457.80000000000007</ele><time>2026-04-07T13:47:59Z</time></trkpt><trkpt lat="45.59269115550408" lon="10.989079530248118"><ele>453.2</ele><time>2026-04-07T13:48:00Z</time></trkpt><trkpt lat="45.59264908220316" lon="10.988970562412566"><ele>448.6</ele><time>2026-04-07T13:48:01Z</time></trkpt><trkpt lat="45.59263476167766" lon="10.988842022513479"><ele>444.0</ele><time>2026-04-07T13:48:02Z</time></trkpt><trkpt lat="45.59266660272877" lon="10.98870154121767"><ele>444.0</ele><time>2026-04-07T13:48:03Z</time></trkpt><trkpt lat="45.59271979511552" lon="10.988545316987306"><ele>444.0</ele><time>2026-04-07T13:48:04Z</time></trkpt><trkpt lat="45.5927903379993" lon="10.988371134465279"><ele>444.0</ele><time>2026-04-07T13:48:05Z</time></trkpt><trkpt lat="45.59287168626388" lon="10.988197906590674"><ele>444.0</ele><time>2026-04-07T13:48:06Z</time></trkpt><trkpt lat="45.593003018300905" lon="10.988063980969642"><ele>448.33333333333337</ele><time>2026-04-07T13:48:07Z</time></trkpt><trkpt lat="45.59313205468165" lon="10.987895334772128"><ele>452.6666666666667</ele><time>2026-04-07T13:48:08Z</time></trkpt><trkpt lat="45.59326404746747" lon="10.987746923530665"><ele>457.0</ele><time>2026-04-07T13:48:09Z</time></trkpt><trkpt lat="45.593369990063614" lon="10.987609540293075"><ele>457.33333333333337</ele><time>2026-04-07T13:48:10Z</time></trkpt><trkpt lat="45.59349216959252" lon="10.987499326481519"><ele>457.66666666666663</ele><time>2026-04-07T13:48:11Z</time></trkpt><trkpt lat="45.593663855000315" lon="10.987445754543693"><ele>458.0</ele><time>2026-04-07T13:48:12Z</time></trkpt><trkpt lat="45.59383302629196" lon="10.987294393964508"><ele>458.0</ele><time>2026-04-07T13:48:13Z</time></trkpt><trkpt lat="45.593985657629" lon="10.987122609896916"><ele>458.0</ele><time>2026-04-07T13:48:14Z</time></trkpt><trkpt lat="45.59413610057349" lon="10.986972455154364"><ele>458.0</ele><time>2026-04-07T13:48:15Z</time></trkpt><trkpt lat="45.59427019744321" lon="10.986838688527161"><ele>458.0</ele><time>2026-04-07T13:48:15.999Z</time></trkpt><trkpt lat="45.594381298228036" lon="10.986705599635457"><ele>458.0</ele><time>2026-04-07T13:48:16.999Z</time></trkpt><trkpt lat="45.59449118995022" lon="10.986612513780221"><ele>458.0</ele><time>2026-04-07T13:48:17.999Z</time></trkpt><trkpt lat="45.59460961127038" lon="10.986591292088786"><ele>458.0</ele><time>2026-04-07T13:48:18.999Z</time></trkpt><trkpt lat="45.594730086715515" lon="10.986628357904381"><ele>462.0</ele><time>2026-04-07T13:48:19.999Z</time></trkpt><trkpt lat="45.59488198260309" lon="10.986672212012675"><ele>466.0</ele><time>2026-04-07T13:48:20.999Z</time></trkpt><trkpt lat="45.595054012291165" lon="10.986696161227444"><ele>470.0</ele><time>2026-04-07T13:48:21.999Z</time></trkpt><trkpt lat="45.59523347665324" lon="10.986707268686553"><ele>474.66666666666663</ele><time>2026-04-07T13:48:22.999Z</time></trkpt><trkpt lat="45.595404868798006" lon="10.986684930129982"><ele>479.33333333333337</ele><time>2026-04-07T13:48:23.999Z</time></trkpt><trkpt lat="45.59556969356549" lon="10.986625503068778"><ele>484.0</ele><time>2026-04-07T13:48:24.999Z</time></trkpt><trkpt lat="45.595736617933746" lon="10.986516377003603"><ele>476.33333333333337</ele><time>2026-04-07T13:48:25.999Z</time></trkpt><trkpt lat="45.59590246975848" lon="10.986370041652401"><ele>468.66666666666663</ele><time>2026-04-07T13:48:26.999Z</time></trkpt><trkpt lat="45.59606063618045" lon="10.986199112305556"><ele>461.0</ele><time>2026-04-07T13:48:27.999Z</time></trkpt><trkpt lat="45.59623471980906" lon="10.98606066650454"><ele>461.0</ele><time>2026-04-07T13:48:28.999Z</time></trkpt><trkpt lat="45.596402770568744" lon="10.985942879611967"><ele>461.0</ele><time>2026-04-07T13:48:29.999Z</time></trkpt><trkpt lat="45.5965749801513" lon="10.98584497476603"><ele>461.0</ele><time>2026-04-07T13:48:30.999Z</time></trkpt><trkpt lat="45.596730467035414" lon="10.985735048425811"><ele>457.25</ele><time>2026-04-07T13:48:31.999Z</time></trkpt><trkpt lat="45.59687246333253" lon="10.98565850208553"><ele>453.5</ele><time>2026-04-07T13:48:32.999Z</time></trkpt><trkpt lat="45.5969894632735" lon="10.985572164802226"><ele>449.75</ele><time>2026-04-07T13:48:33.999Z</time></trkpt><trkpt lat="45.597079819330844" lon="10.985501262571313"><ele>446.0</ele><time>2026-04-07T13:48:34.999Z</time></trkpt><trkpt lat="45.59714464695165" lon="10.985432700750396"><ele>445.99999999999994</ele><time>2026-04-07T13:48:35.999Z</time></trkpt><trkpt lat="45.59716846967536" lon="10.985339582804059"><ele>446.0</ele><time>2026-04-07T13:48:36.999Z</time></trkpt><trkpt lat="45.597147819322224" lon="10.985243167617451"><ele>446.0</ele><time>2026-04-07T13:48:37.999Z</time></trkpt><trkpt lat="45.59709107345911" lon="10.985158800443513"><ele>446.0</ele><time>2026-04-07T13:48:38.999Z</time></trkpt><trkpt lat="45.59700377949084" lon="10.985125116437914"><ele>445.99999999999994</ele><time>2026-04-07T13:48:39.999Z</time></trkpt><trkpt lat="45.59691527367979" lon="10.985163910322724"><ele>446.0</ele><time>2026-04-07T13:48:40.999Z</time></trkpt><trkpt lat="45.59683166218231" lon="10.985273322611098"><ele>440.5</ele><time>2026-04-07T13:48:41.999Z</time></trkpt><trkpt lat="45.59674311964254" lon="10.985428965925944"><ele>435.0</ele><time>2026-04-07T13:48:42.999Z</time></trkpt><trkpt lat="45.596618723312304" lon="10.985529400662845"><ele>429.5</ele><time>2026-04-07T13:48:43.999Z</time></trkpt><trkpt lat="45.59647296454699" lon="10.985560548170417"><ele>424.0</ele><time>2026-04-07T13:48:44.999Z</time></trkpt><trkpt lat="45.596288737040894" lon="10.985614583327797"><ele>419.0</ele><time>2026-04-07T13:48:45.999Z</time></trkpt><trkpt lat="45.59612950692471" lon="10.98570507365431"><ele>414.0</ele><time>2026-04-07T13:48:46.999Z</time></trkpt><trkpt lat="45.59598347620042" lon="10.98577751171404"><ele>409.0</ele><time>2026-04-07T13:48:47.999Z</time></trkpt><trkpt lat="45.59582947773656" lon="10.985774592266418"><ele>409.0</ele><time>2026-04-07T13:48:48.999Z</time></trkpt><trkpt lat="45.5956412857856" lon="10.985769966179255"><ele>409.0</ele><time>2026-04-07T13:48:49.999Z</time></trkpt><trkpt lat="45.595436136042814" lon="10.985817439472559"><ele>409.0</ele><time>2026-04-07T13:48:50.999Z</time></trkpt><trkpt lat="45.5952238189959" lon="10.985830933722738"><ele>418.0</ele><time>2026-04-07T13:48:51.999Z</time></trkpt><trkpt lat="45.59502631849381" lon="10.98587036463647"><ele>427.0</ele><time>2026-04-07T13:48:52.999Z</time></trkpt><trkpt lat="45.59484369803254" lon="10.985903761266433"><ele>436.0</ele><time>2026-04-07T13:48:53.999Z</time></trkpt><trkpt lat="45.59466732572044" lon="10.98592882496125"><ele>436.0</ele><time>2026-04-07T13:48:54.999Z</time></trkpt><trkpt lat="45.59451075682194" lon="10.98593604233421"><ele>436.0</ele><time>2026-04-07T13:48:55.999Z</time></trkpt><trkpt lat="45.594362822878665" lon="10.985956606282354"><ele>436.0</ele><time>2026-04-07T13:48:56.999Z</time></trkpt><trkpt lat="45.594217319785955" lon="10.985949802271968"><ele>432.6666666666667</ele><time>2026-04-07T13:48:57.999Z</time></trkpt><trkpt lat="45.59405513994711" lon="10.985986357281547"><ele>429.33333333333337</ele><time>2026-04-07T13:48:58.999Z</time></trkpt><trkpt lat="45.59388478277707" lon="10.986109934372077"><ele>426.0</ele><time>2026-04-07T13:48:59.999Z</time></trkpt><trkpt lat="45.59369247440294" lon="10.986257269653954"><ele>429.0</ele><time>2026-04-07T13:49:00.999Z</time></trkpt><trkpt lat="45.59349718796262" lon="10.986372350013529"><ele>432.0</ele><time>2026-04-07T13:49:01.999Z</time></trkpt><trkpt lat="45.59329378255744" lon="10.986520486837938"><ele>435.0</ele><time>2026-04-07T13:49:02.999Z</time></trkpt><trkpt lat="45.5930660389365" lon="10.986702436320591"><ele>435.0</ele><time>2026-04-07T13:49:03.999Z</time></trkpt><trkpt lat="45.59287279135836" lon="10.98685943831283"><ele>435.0</ele><time>2026-04-07T13:49:04.999Z</time></trkpt><trkpt lat="45.59268947191125" lon="10.987023496774908"><ele>435.0</ele><time>2026-04-07T13:49:05.999Z</time></trkpt><trkpt lat="45.59250874458336" lon="10.98716079485093"><ele>432.66666666666663</ele><time>2026-04-07T13:49:06.999Z</time></trkpt><trkpt lat="45.59233242311251" lon="10.987280929986055"><ele>430.3333333333333</ele><time>2026-04-07T13:49:07.999Z</time></trkpt><trkpt lat="45.592166018076924" lon="10.987413587081821"><ele>428.0</ele><time>2026-04-07T13:49:08.998Z</time></trkpt><trkpt lat="45.592014321711844" lon="10.98755098076192"><ele>414.3333333333333</ele><time>2026-04-07T13:49:09.998Z</time></trkpt><trkpt lat="45.591874848178094" lon="10.987694581626275"><ele>400.66666666666663</ele><time>2026-04-07T13:49:10.998Z</time></trkpt><trkpt lat="45.59175291217897" lon="10.987874046520696"><ele>387.0</ele><time>2026-04-07T13:49:11.998Z</time></trkpt><trkpt lat="45.591632084864315" lon="10.988085690816042"><ele>387.0</ele><time>2026-04-07T13:49:12.998Z</time></trkpt><trkpt lat="45.59151975680946" lon="10.988278339283156"><ele>387.0</ele><time>2026-04-07T13:49:13.998Z</time></trkpt><trkpt lat="45.59141907904073" lon="10.988465510629824"><ele>387.0</ele><time>2026-04-07T13:49:14.998Z</time></trkpt><trkpt lat="45.591328457931915" lon="10.988640758031197"><ele>385.0</ele><time>2026-04-07T13:49:15.998Z</time></trkpt><trkpt lat="45.59126195334379" lon="10.988825169905413"><ele>383.0</ele><time>2026-04-07T13:49:16.998Z</time></trkpt><trkpt lat="45.591220827435556" lon="10.989034358473269"><ele>381.0</ele><time>2026-04-07T13:49:17.998Z</time></trkpt><trkpt lat="45.591189867889824" lon="10.989225454460673"><ele>379.0</ele><time>2026-04-07T13:49:18.998Z</time></trkpt><trkpt lat="45.591104799070585" lon="10.989381088232056"><ele>379.0</ele><time>2026-04-07T13:49:19.998Z</time></trkpt><trkpt lat="45.5910017723401" lon="10.989543787453293"><ele>379.0</ele><time>2026-04-07T13:49:20.998Z</time></trkpt><trkpt lat="45.59088775153293" lon="10.989717187316169"><ele>379.0</ele><time>2026-04-07T13:49:21.998Z</time></trkpt><trkpt lat="45.590777808937155" lon="10.989892934322532"><ele>377.25</ele><time>2026-04-07T13:49:22.998Z</time></trkpt><trkpt lat="45.59067353117648" lon="10.990044510240024"><ele>375.5</ele><time>2026-04-07T13:49:23.998Z</time></trkpt><trkpt lat="45.59056865978642" lon="10.990184798894667"><ele>373.75</ele><time>2026-04-07T13:49:24.998Z</time></trkpt><trkpt lat="45.590442833394924" lon="10.990306980810617"><ele>372.0</ele><time>2026-04-07T13:49:25.998Z</time></trkpt><trkpt lat="45.590286968146856" lon="10.990380836547747"><ele>372.0</ele><time>2026-04-07T13:49:26.998Z</time></trkpt><trkpt lat="45.59013847906698" lon="10.990488028904533"><ele>372.0</ele><time>2026-04-07T13:49:27.998Z</time></trkpt><trkpt lat="45.58999037251581" lon="10.990558258491124"><ele>372.0</ele><time>2026-04-07T13:49:28.998Z</time></trkpt><trkpt lat="45.58984654647672" lon="10.990635528412152"><ele>372.0</ele><time>2026-04-07T13:49:29.998Z</time></trkpt><trkpt lat="45.58970270753243" lon="10.990716797167998"><ele>372.0</ele><time>2026-04-07T13:49:30.998Z</time></trkpt><trkpt lat="45.58954620340135" lon="10.990803297531837"><ele>372.0</ele><time>2026-04-07T13:49:31.998Z</time></trkpt><trkpt lat="45.58937537670712" lon="10.990876459821823"><ele>376.33333333333337</ele><time>2026-04-07T13:49:32.998Z</time></trkpt><trkpt lat="45.58921735929643" lon="10.990930717041994"><ele>380.6666666666667</ele><time>2026-04-07T13:49:33.998Z</time></trkpt><trkpt lat="45.589064828198495" lon="10.990970619542464"><ele>385.0</ele><time>2026-04-07T13:49:34.998Z</time></trkpt><trkpt lat="45.588914548721064" lon="10.99099675611001"><ele>385.0</ele><time>2026-04-07T13:49:35.998Z</time></trkpt><trkpt lat="45.588757350157024" lon="10.991011504777505"><ele>385.0</ele><time>2026-04-07T13:49:36.998Z</time></trkpt><trkpt lat="45.58859785645966" lon="10.991004965543178"><ele>385.0</ele><time>2026-04-07T13:49:37.998Z</time></trkpt><trkpt lat="45.588431943235854" lon="10.99097162980297"><ele>379.33333333333337</ele><time>2026-04-07T13:49:38.998Z</time></trkpt><trkpt lat="45.58827174142216" lon="10.990912086410384"><ele>373.6666666666667</ele><time>2026-04-07T13:49:39.998Z</time></trkpt><trkpt lat="45.588116843483796" lon="10.990839638265118"><ele>368.0</ele><time>2026-04-07T13:49:40.998Z</time></trkpt><trkpt lat="45.587970378630615" lon="10.99077335817845"><ele>360.0</ele><time>2026-04-07T13:49:41.998Z</time></trkpt><trkpt lat="45.5878186602766" lon="10.990721838778269"><ele>352.0</ele><time>2026-04-07T13:49:42.998Z</time></trkpt><trkpt lat="45.58766683922398" lon="10.990692955913515"><ele>344.0</ele><time>2026-04-07T13:49:43.998Z</time></trkpt><trkpt lat="45.587514043699464" lon="10.990692205464809"><ele>344.0</ele><time>2026-04-07T13:49:44.998Z</time></trkpt><trkpt lat="45.58735720678545" lon="10.990700768904423"><ele>344.0</ele><time>2026-04-07T13:49:45.998Z</time></trkpt><trkpt lat="45.58720357295208" lon="10.99072883843042"><ele>344.0</ele><time>2026-04-07T13:49:46.998Z</time></trkpt><trkpt lat="45.587061523210004" lon="10.990770090714513"><ele>343.75</ele><time>2026-04-07T13:49:47.998Z</time></trkpt><trkpt lat="45.58693576995883" lon="10.990802024854439"><ele>343.5</ele><time>2026-04-07T13:49:48.998Z</time></trkpt><trkpt lat="45.58681076054692" lon="10.99082951945649"><ele>343.25</ele><time>2026-04-07T13:49:49.998Z</time></trkpt><trkpt lat="45.58667685062733" lon="10.990814040886796"><ele>343.0</ele><time>2026-04-07T13:49:50.998Z</time></trkpt><trkpt lat="45.58654106028313" lon="10.990812580385406"><ele>343.0</ele><time>2026-04-07T13:49:51.998Z</time></trkpt><trkpt lat="45.586404629653146" lon="10.990748274643643"><ele>343.0</ele><time>2026-04-07T13:49:53Z</time></trkpt><trkpt lat="45.5862781579965" lon="10.990701194185732"><ele>343.0</ele><time>2026-04-07T13:49:54Z</time></trkpt><trkpt lat="45.58615739760234" lon="10.990696866824068"><ele>343.0</ele><time>2026-04-07T13:49:55Z</time></trkpt><trkpt lat="45.586032638989465" lon="10.990744928125215"><ele>342.75</ele><time>2026-04-07T13:49:56Z</time></trkpt><trkpt lat="45.58590108723228" lon="10.990814068725596"><ele>342.5</ele><time>2026-04-07T13:49:57Z</time></trkpt><trkpt lat="45.58577800999491" lon="10.990863666033228"><ele>342.25</ele><time>2026-04-07T13:49:58Z</time></trkpt><trkpt lat="45.58565023539662" lon="10.990868710906497"><ele>342.0</ele><time>2026-04-07T13:49:59Z</time></trkpt><trkpt lat="45.585523442580275" lon="10.990809873447201"><ele>341.5</ele><time>2026-04-07T13:50:00Z</time></trkpt><trkpt lat="45.58541845511302" lon="10.990780307598605"><ele>341.0</ele><time>2026-04-07T13:50:01Z</time></trkpt><trkpt lat="45.585339547169156" lon="10.990763268663274"><ele>340.5</ele><time>2026-04-07T13:50:02Z</time></trkpt><trkpt lat="45.585258897622495" lon="10.990748566927964"><ele>340.0</ele><time>2026-04-07T13:50:04Z</time></trkpt><trkpt lat="45.58517257258275" lon="10.990705248345616"><ele>339.5</ele><time>2026-04-07T13:50:08Z</time></trkpt><trkpt lat="45.58511067092601" lon="10.990672239396702"><ele>339.0</ele><time>2026-04-07T13:50:44.999Z</time></trkpt><trkpt lat="45.58504218542145" lon="10.990655139845376"><ele>338.5</ele><time>2026-04-07T13:50:47.999Z</time></trkpt><trkpt lat="45.58495971960067" lon="10.990637380673759"><ele>338.0</ele><time>2026-04-07T13:51:17.998Z</time></trkpt><trkpt lat="45.58488610467108" lon="10.99062403942858"><ele>337.5</ele><time>2026-04-07T13:51:19.998Z</time></trkpt><trkpt lat="45.58481121237747" lon="10.990594129025208"><ele>337.0</ele><time>2026-04-07T13:51:47.998Z</time></trkpt><trkpt lat="45.5846977251406" lon="10.990580444411584"><ele>336.5</ele><time>2026-04-07T13:51:49.998Z</time></trkpt><trkpt lat="45.58460609145528" lon="10.990550127130534"><ele>336.0</ele><time>2026-04-07T13:51:50.998Z</time></trkpt><trkpt lat="45.58448555123616" lon="10.990516789774462"><ele>335.3333333333333</ele><time>2026-04-07T13:51:51.998Z</time></trkpt><trkpt lat="45.58433781409787" lon="10.990482705747274"><ele>334.66666666666663</ele><time>2026-04-07T13:51:52.998Z</time></trkpt><trkpt lat="45.58416369495805" lon="10.990454265484889"><ele>334.0</ele><time>2026-04-07T13:51:53.998Z</time></trkpt><trkpt lat="45.58400182828503" lon="10.990432669576116"><ele>334.0</ele><time>2026-04-07T13:51:54.998Z</time></trkpt><trkpt lat="45.583856756242795" lon="10.990411149538406"><ele>334.0</ele><time>2026-04-07T13:51:55.998Z</time></trkpt><trkpt lat="45.58371859502077" lon="10.990384877796409"><ele>334.0</ele><time>2026-04-07T13:51:56.998Z</time></trkpt><trkpt lat="45.58358389651307" lon="10.990360969802373"><ele>334.0</ele><time>2026-04-07T13:51:57.998Z</time></trkpt><trkpt lat="45.583458049387254" lon="10.990338945081037"><ele>334.5</ele><time>2026-04-07T13:51:59Z</time></trkpt><trkpt lat="45.58334141600314" lon="10.990321047298234"><ele>335.0</ele><time>2026-04-07T13:52:00Z</time></trkpt><trkpt lat="45.583230236947564" lon="10.990302274468291"><ele>335.5</ele><time>2026-04-07T13:52:01Z</time></trkpt><trkpt lat="45.58311217185453" lon="10.990278837705608"><ele>336.0</ele><time>2026-04-07T13:52:02Z</time></trkpt><trkpt lat="45.582987173112315" lon="10.990253979780043"><ele>336.0</ele><time>2026-04-07T13:52:03Z</time></trkpt><trkpt lat="45.58285162193541" lon="10.990228299506022"><ele>336.0</ele><time>2026-04-07T13:52:04Z</time></trkpt><trkpt lat="45.58271343426117" lon="10.990203590378218"><ele>336.0</ele><time>2026-04-07T13:52:05Z</time></trkpt><trkpt lat="45.58258190550392" lon="10.990179861907164"><ele>336.0</ele><time>2026-04-07T13:52:06Z</time></trkpt><trkpt lat="45.58245444026665" lon="10.990160618318804"><ele>336.25</ele><time>2026-04-07T13:52:07Z</time></trkpt><trkpt lat="45.582323754084875" lon="10.990145232191363"><ele>336.5</ele><time>2026-04-07T13:52:08Z</time></trkpt><trkpt lat="45.58219155230762" lon="10.9901395253774"><ele>336.75</ele><time>2026-04-07T13:52:09Z</time></trkpt><trkpt lat="45.58205340146335" lon="10.9901510152486"><ele>337.0</ele><time>2026-04-07T13:52:10Z</time></trkpt><trkpt lat="45.581907098874495" lon="10.990179644434894"><ele>337.0</ele><time>2026-04-07T13:52:11Z</time></trkpt><trkpt lat="45.5817569227134" lon="10.990223945035657"><ele>337.0</ele><time>2026-04-07T13:52:12Z</time></trkpt><trkpt lat="45.581592341118245" lon="10.99026611316894"><ele>337.0</ele><time>2026-04-07T13:52:13Z</time></trkpt><trkpt lat="45.58144078857093" lon="10.990315372979143"><ele>337.0</ele><time>2026-04-07T13:52:14Z</time></trkpt><trkpt lat="45.5812960763462" lon="10.99036406882434"><ele>337.0</ele><time>2026-04-07T13:52:15Z</time></trkpt><trkpt lat="45.58115282931388" lon="10.990402276459818"><ele>337.0</ele><time>2026-04-07T13:52:16Z</time></trkpt><trkpt lat="45.580998057426086" lon="10.99042579204015"><ele>335.3333333333333</ele><time>2026-04-07T13:52:17Z</time></trkpt><trkpt lat="45.58084380283547" lon="10.990455903337883"><ele>333.6666666666667</ele><time>2026-04-07T13:52:18Z</time></trkpt><trkpt lat="45.58068936005902" lon="10.990488923231396"><ele>332.0</ele><time>2026-04-07T13:52:19Z</time></trkpt><trkpt lat="45.58053807570877" lon="10.990524378339124"><ele>332.0</ele><time>2026-04-07T13:52:20Z</time></trkpt><trkpt lat="45.5803893587317" lon="10.990563889170087"><ele>332.0</ele><time>2026-04-07T13:52:21Z</time></trkpt><trkpt lat="45.58023762143592" lon="10.990602062989325"><ele>332.0</ele><time>2026-04-07T13:52:22Z</time></trkpt><trkpt lat="45.58007235008736" lon="10.99064777694214"><ele>330.6666666666667</ele><time>2026-04-07T13:52:23Z</time></trkpt><trkpt lat="45.57991213675553" lon="10.990710829397468"><ele>329.3333333333333</ele><time>2026-04-07T13:52:24Z</time></trkpt><trkpt lat="45.57975763921233" lon="10.990783642197322"><ele>328.0</ele><time>2026-04-07T13:52:25Z</time></trkpt><trkpt lat="45.57960440049371" lon="10.990855041678666"><ele>328.66666666666663</ele><time>2026-04-07T13:52:26Z</time></trkpt><trkpt lat="45.57944799813257" lon="10.990913227306159"><ele>329.3333333333333</ele><time>2026-04-07T13:52:27Z</time></trkpt><trkpt lat="45.57928658118799" lon="10.990959009827229"><ele>330.0</ele><time>2026-04-07T13:52:28Z</time></trkpt><trkpt lat="45.579125535963854" lon="10.990972054217083"><ele>330.0</ele><time>2026-04-07T13:52:29Z</time></trkpt><trkpt lat="45.57896143227979" lon="10.991024031075794"><ele>330.0</ele><time>2026-04-07T13:52:30Z</time></trkpt><trkpt lat="45.57878754424207" lon="10.991050688587935"><ele>330.0</ele><time>2026-04-07T13:52:31Z</time></trkpt><trkpt lat="45.57863551575931" lon="10.99110904138124"><ele>327.0</ele><time>2026-04-07T13:52:32Z</time></trkpt><trkpt lat="45.57850046820163" lon="10.991213145820554"><ele>324.0</ele><time>2026-04-07T13:52:33Z</time></trkpt><trkpt lat="45.57836553974731" lon="10.991343380222697"><ele>321.0</ele><time>2026-04-07T13:52:34Z</time></trkpt><trkpt lat="45.57821914636574" lon="10.99145607404715"><ele>321.0</ele><time>2026-04-07T13:52:34.999Z</time></trkpt><trkpt lat="45.57807751490615" lon="10.991559753456691"><ele>321.0</ele><time>2026-04-07T13:52:35.999Z</time></trkpt><trkpt lat="45.57792547156913" lon="10.991644865077708"><ele>321.0</ele><time>2026-04-07T13:52:36.999Z</time></trkpt><trkpt lat="45.57775976714326" lon="10.991690996798342"><ele>323.3333333333333</ele><time>2026-04-07T13:52:37.999Z</time></trkpt><trkpt lat="45.577587990546334" lon="10.991733530639939"><ele>325.66666666666663</ele><time>2026-04-07T13:52:38.999Z</time></trkpt><trkpt lat="45.57742079295779" lon="10.99173709216684"><ele>328.0</ele><time>2026-04-07T13:52:39.999Z</time></trkpt><trkpt lat="45.577254773961364" lon="10.991738731496609"><ele>328.0</ele><time>2026-04-07T13:52:40.999Z</time></trkpt><trkpt lat="45.57709430114966" lon="10.99175020419452"><ele>328.0</ele><time>2026-04-07T13:52:41.999Z</time></trkpt><trkpt lat="45.576924056745504" lon="10.991768347603763"><ele>328.0</ele><time>2026-04-07T13:52:42.999Z</time></trkpt><trkpt lat="45.576764655342885" lon="10.991794051710325"><ele>328.0</ele><time>2026-04-07T13:52:43.999Z</time></trkpt><trkpt lat="45.57660414253176" lon="10.99183374579062"><ele>328.0</ele><time>2026-04-07T13:52:44.999Z</time></trkpt><trkpt lat="45.57644251376502" lon="10.991872461864679"><ele>328.0</ele><time>2026-04-07T13:52:45.999Z</time></trkpt><trkpt lat="45.576276709961896" lon="10.991910572530141"><ele>327.0</ele><time>2026-04-07T13:52:46.999Z</time></trkpt><trkpt lat="45.576118855637034" lon="10.991956531318717"><ele>326.0</ele><time>2026-04-07T13:52:47.999Z</time></trkpt><trkpt lat="45.575955777933075" lon="10.991993205370413"><ele>325.0</ele><time>2026-04-07T13:52:48.999Z</time></trkpt><trkpt lat="45.57578523141964" lon="10.992038526826278"><ele>325.0</ele><time>2026-04-07T13:52:49.999Z</time></trkpt><trkpt lat="45.57562506352059" lon="10.992071069394598"><ele>325.0</ele><time>2026-04-07T13:52:50.999Z</time></trkpt><trkpt lat="45.57547140139135" lon="10.992116606666388"><ele>325.0</ele><time>2026-04-07T13:52:51.999Z</time></trkpt><trkpt lat="45.57532712074741" lon="10.992154904335154"><ele>324.25</ele><time>2026-04-07T13:52:52.999Z</time></trkpt><trkpt lat="45.57518706448304" lon="10.9921747001609"><ele>323.5</ele><time>2026-04-07T13:52:53.999Z</time></trkpt><trkpt lat="45.57504903693994" lon="10.992172027594838"><ele>322.75</ele><time>2026-04-07T13:52:54.999Z</time></trkpt><trkpt lat="45.57491307480711" lon="10.992137994567214"><ele>322.0</ele><time>2026-04-07T13:52:55.999Z</time></trkpt><trkpt lat="45.5747779722669" lon="10.992070413943482"><ele>322.0</ele><time>2026-04-07T13:52:56.999Z</time></trkpt><trkpt lat="45.574654098039325" lon="10.992012677953404"><ele>322.0</ele><time>2026-04-07T13:52:57.999Z</time></trkpt><trkpt lat="45.57454505934066" lon="10.991944034150896"><ele>322.0</ele><time>2026-04-07T13:52:58.999Z</time></trkpt><trkpt lat="45.57443298815481" lon="10.991899546063818"><ele>322.0</ele><time>2026-04-07T13:52:59.999Z</time></trkpt><trkpt lat="45.57430831435277" lon="10.991863833140895"><ele>321.0</ele><time>2026-04-07T13:53:00.999Z</time></trkpt><trkpt lat="45.57417940558547" lon="10.991852835534955"><ele>320.0</ele><time>2026-04-07T13:53:01.999Z</time></trkpt><trkpt lat="45.57405169626903" lon="10.991855748881601"><ele>319.0</ele><time>2026-04-07T13:53:02.999Z</time></trkpt><trkpt lat="45.573919213804324" lon="10.991864071617655"><ele>318.0</ele><time>2026-04-07T13:53:03.999Z</time></trkpt><trkpt lat="45.57380050398413" lon="10.991873887969557"><ele>317.5</ele><time>2026-04-07T13:53:04.999Z</time></trkpt><trkpt lat="45.57367056422036" lon="10.991905568929518"><ele>317.0</ele><time>2026-04-07T13:53:05.999Z</time></trkpt><trkpt lat="45.57353782544468" lon="10.991935039751654"><ele>316.5</ele><time>2026-04-07T13:53:06.999Z</time></trkpt><trkpt lat="45.5734096126427" lon="10.991979337714001"><ele>316.0</ele><time>2026-04-07T13:53:07.999Z</time></trkpt><trkpt lat="45.57327367641117" lon="10.99200188228672"><ele>316.0</ele><time>2026-04-07T13:53:08.999Z</time></trkpt><trkpt lat="45.5731555245832" lon="10.992072175064889"><ele>316.0</ele><time>2026-04-07T13:53:09.999Z</time></trkpt><trkpt lat="45.573032945766876" lon="10.992123606090553"><ele>316.0</ele><time>2026-04-07T13:53:10.999Z</time></trkpt><trkpt lat="45.57291254955548" lon="10.992176228610003"><ele>316.0</ele><time>2026-04-07T13:53:11.999Z</time></trkpt><trkpt lat="45.57278463708166" lon="10.992214142966672"><ele>314.5</ele><time>2026-04-07T13:53:12.999Z</time></trkpt><trkpt lat="45.57265130423931" lon="10.99223744899623"><ele>313.0</ele><time>2026-04-07T13:53:13.999Z</time></trkpt><trkpt lat="45.57251926024336" lon="10.99225626926655"><ele>311.5</ele><time>2026-04-07T13:53:14.999Z</time></trkpt><trkpt lat="45.57238286526221" lon="10.992278342886543"><ele>310.0</ele><time>2026-04-07T13:53:15.999Z</time></trkpt><trkpt lat="45.57224224013583" lon="10.9923020487779"><ele>310.0</ele><time>2026-04-07T13:53:16.999Z</time></trkpt><trkpt lat="45.572098478237564" lon="10.992331905884432"><ele>310.0</ele><time>2026-04-07T13:53:17.999Z</time></trkpt><trkpt lat="45.57195534684118" lon="10.992384477266269"><ele>310.0</ele><time>2026-04-07T13:53:18.999Z</time></trkpt><trkpt lat="45.57182338480002" lon="10.99243489362213"><ele>310.0</ele><time>2026-04-07T13:53:19.999Z</time></trkpt><trkpt lat="45.571697587165964" lon="10.992480934060607"><ele>309.0</ele><time>2026-04-07T13:53:20.999Z</time></trkpt><trkpt lat="45.57155760451642" lon="10.992490712451595"><ele>308.0</ele><time>2026-04-07T13:53:21.999Z</time></trkpt><trkpt lat="45.571403981412516" lon="10.992480640956813"><ele>307.0</ele><time>2026-04-07T13:53:22.999Z</time></trkpt><trkpt lat="45.571235500189836" lon="10.992445475979723"><ele>306.3333333333333</ele><time>2026-04-07T13:53:23.999Z</time></trkpt><trkpt lat="45.57108150844777" lon="10.99241953245138"><ele>305.6666666666667</ele><time>2026-04-07T13:53:24.999Z</time></trkpt><trkpt lat="45.570931843971366" lon="10.992399934861988"><ele>305.0</ele><time>2026-04-07T13:53:25.999Z</time></trkpt><trkpt lat="45.57077799694551" lon="10.992384494693503"><ele>305.0</ele><time>2026-04-07T13:53:26.998Z</time></trkpt><trkpt lat="45.57061605141863" lon="10.992392669684866"><ele>305.0</ele><time>2026-04-07T13:53:27.998Z</time></trkpt><trkpt lat="45.570450087560495" lon="10.992422964467174"><ele>305.0</ele><time>2026-04-07T13:53:28.998Z</time></trkpt><trkpt lat="45.57028191421351" lon="10.992464014083794"><ele>307.6666666666667</ele><time>2026-04-07T13:53:29.998Z</time></trkpt><trkpt lat="45.57011572693318" lon="10.99250790344889"><ele>310.3333333333333</ele><time>2026-04-07T13:53:30.998Z</time></trkpt><trkpt lat="45.56994835829384" lon="10.992560067212082"><ele>313.0</ele><time>2026-04-07T13:53:31.998Z</time></trkpt><trkpt lat="45.569780304640425" lon="10.992614782248253"><ele>313.0</ele><time>2026-04-07T13:53:32.998Z</time></trkpt><trkpt lat="45.56961873682069" lon="10.992664626250816"><ele>313.0</ele><time>2026-04-07T13:53:33.998Z</time></trkpt><trkpt lat="45.5694657649983" lon="10.992712510479336"><ele>313.0</ele><time>2026-04-07T13:53:34.998Z</time></trkpt><trkpt lat="45.5693196903587" lon="10.99275253385348"><ele>311.66666666666663</ele><time>2026-04-07T13:53:35.998Z</time></trkpt><trkpt lat="45.569160125465935" lon="10.992800955289809"><ele>310.3333333333333</ele><time>2026-04-07T13:53:36.998Z</time></trkpt><trkpt lat="45.568996592379435" lon="10.992847757938625"><ele>309.0</ele><time>2026-04-07T13:53:37.998Z</time></trkpt><trkpt lat="45.56883497117529" lon="10.992890645985844"><ele>308.0</ele><time>2026-04-07T13:53:38.998Z</time></trkpt><trkpt lat="45.568667619605066" lon="10.992940676420272"><ele>307.0</ele><time>2026-04-07T13:53:39.998Z</time></trkpt><trkpt lat="45.568495524700204" lon="10.99299890659096"><ele>306.0</ele><time>2026-04-07T13:53:40.998Z</time></trkpt><trkpt lat="45.56832212083135" lon="10.99306227523308"><ele>306.0</ele><time>2026-04-07T13:53:41.998Z</time></trkpt><trkpt lat="45.56814183822716" lon="10.993123414186837"><ele>306.0</ele><time>2026-04-07T13:53:42.998Z</time></trkpt><trkpt lat="45.56795957713771" lon="10.993186041053944"><ele>306.0</ele><time>2026-04-07T13:53:43.998Z</time></trkpt><trkpt lat="45.56776943103246" lon="10.99325281630154"><ele>305.0</ele><time>2026-04-07T13:53:44.998Z</time></trkpt><trkpt lat="45.56757874968995" lon="10.993320938809237"><ele>304.0</ele><time>2026-04-07T13:53:45.998Z</time></trkpt><trkpt lat="45.56739373399343" lon="10.993389399610539"><ele>303.0</ele><time>2026-04-07T13:53:46.998Z</time></trkpt><trkpt lat="45.56720276465449" lon="10.993460175668343"><ele>300.0</ele><time>2026-04-07T13:53:47.998Z</time></trkpt><trkpt lat="45.56701727610074" lon="10.993525964004045"><ele>297.0</ele><time>2026-04-07T13:53:48.998Z</time></trkpt><trkpt lat="45.5668337302924" lon="10.993590802999309"><ele>294.0</ele><time>2026-04-07T13:53:49.998Z</time></trkpt><trkpt lat="45.566650519981046" lon="10.993657157985533"><ele>294.0</ele><time>2026-04-07T13:53:50.998Z</time></trkpt><trkpt lat="45.56646845860913" lon="10.993724639044261"><ele>294.0</ele><time>2026-04-07T13:53:51.998Z</time></trkpt><trkpt lat="45.56629171723669" lon="10.99379677160604"><ele>294.0</ele><time>2026-04-07T13:53:52.998Z</time></trkpt><trkpt lat="45.56611562967468" lon="10.99388217129076"><ele>292.0</ele><time>2026-04-07T13:53:53.998Z</time></trkpt><trkpt lat="45.565932561691085" lon="10.993963901980395"><ele>290.0</ele><time>2026-04-07T13:53:54.998Z</time></trkpt><trkpt lat="45.56574613250999" lon="10.99404916101197"><ele>288.0</ele><time>2026-04-07T13:53:55.998Z</time></trkpt><trkpt lat="45.56555631340083" lon="10.994133371255217"><ele>287.6666666666667</ele><time>2026-04-07T13:53:56.998Z</time></trkpt><trkpt lat="45.56536540713148" lon="10.994219101103313"><ele>287.33333333333337</ele><time>2026-04-07T13:53:57.998Z</time></trkpt><trkpt lat="45.565168689353094" lon="10.994310724663286"><ele>287.0</ele><time>2026-04-07T13:53:58.998Z</time></trkpt><trkpt lat="45.56497769263632" lon="10.994401309754503"><ele>287.0</ele><time>2026-04-07T13:53:59.998Z</time></trkpt><trkpt lat="45.56477654848672" lon="10.99450195526828"><ele>287.0</ele><time>2026-04-07T13:54:00.998Z</time></trkpt><trkpt lat="45.56457829400303" lon="10.994598751284087"><ele>287.0</ele><time>2026-04-07T13:54:01.998Z</time></trkpt><trkpt lat="45.56439124199643" lon="10.99469546762464"><ele>285.33333333333337</ele><time>2026-04-07T13:54:02.998Z</time></trkpt><trkpt lat="45.56420147648586" lon="10.994809469403947"><ele>283.6666666666667</ele><time>2026-04-07T13:54:03.998Z</time></trkpt><trkpt lat="45.56401682723509" lon="10.994930717345458"><ele>282.0</ele><time>2026-04-07T13:54:05Z</time></trkpt><trkpt lat="45.56383880799074" lon="10.99506777340901"><ele>281.6666666666667</ele><time>2026-04-07T13:54:06Z</time></trkpt><trkpt lat="45.56366340554131" lon="10.995205351669242"><ele>281.33333333333337</ele><time>2026-04-07T13:54:07Z</time></trkpt><trkpt lat="45.56348928188867" lon="10.99535949056628"><ele>281.0</ele><time>2026-04-07T13:54:08Z</time></trkpt><trkpt lat="45.56331601468519" lon="10.995514890425827"><ele>281.0</ele><time>2026-04-07T13:54:09Z</time></trkpt><trkpt lat="45.56313935723742" lon="10.995667747749263"><ele>281.0</ele><time>2026-04-07T13:54:10Z</time></trkpt><trkpt lat="45.562961648234534" lon="10.9958115756763"><ele>281.0</ele><time>2026-04-07T13:54:11Z</time></trkpt><trkpt lat="45.56277039336358" lon="10.995949223996197"><ele>280.33333333333337</ele><time>2026-04-07T13:54:12Z</time></trkpt><trkpt lat="45.56257500889984" lon="10.996069025492213"><ele>279.6666666666667</ele><time>2026-04-07T13:54:13Z</time></trkpt><trkpt lat="45.56238549759356" lon="10.996174372497462"><ele>279.0</ele><time>2026-04-07T13:54:14Z</time></trkpt><trkpt lat="45.56220009908946" lon="10.99626881437272"><ele>278.0</ele><time>2026-04-07T13:54:15Z</time></trkpt><trkpt lat="45.56201939539939" lon="10.996371334894585"><ele>277.0</ele><time>2026-04-07T13:54:16Z</time></trkpt><trkpt lat="45.56183930718774" lon="10.996479875731254"><ele>276.0</ele><time>2026-04-07T13:54:17Z</time></trkpt><trkpt lat="45.561673190251035" lon="10.996581506096057"><ele>276.6666666666667</ele><time>2026-04-07T13:54:18Z</time></trkpt><trkpt lat="45.5615133217251" lon="10.996683147846952"><ele>277.33333333333337</ele><time>2026-04-07T13:54:19Z</time></trkpt><trkpt lat="45.56136849382595" lon="10.996769180697559"><ele>278.0</ele><time>2026-04-07T13:54:20Z</time></trkpt><trkpt lat="45.561236060704324" lon="10.996848524261392"><ele>277.25</ele><time>2026-04-07T13:54:21Z</time></trkpt><trkpt lat="45.56110782396658" lon="10.996926668287664"><ele>276.5</ele><time>2026-04-07T13:54:22Z</time></trkpt><trkpt lat="45.56099206591307" lon="10.996999360779846"><ele>275.75</ele><time>2026-04-07T13:54:23Z</time></trkpt><trkpt lat="45.56088488314005" lon="10.997069197561816"><ele>275.0</ele><time>2026-04-07T13:54:24Z</time></trkpt><trkpt lat="45.56077417498156" lon="10.997144885215635"><ele>275.0</ele><time>2026-04-07T13:54:25Z</time></trkpt><trkpt lat="45.56065632902056" lon="10.997232358999188"><ele>275.0</ele><time>2026-04-07T13:54:26Z</time></trkpt><trkpt lat="45.560542021615674" lon="10.997333159280418"><ele>275.0</ele><time>2026-04-07T13:54:27Z</time></trkpt><trkpt lat="45.56043742804639" lon="10.997436067782012"><ele>275.0</ele><time>2026-04-07T13:54:28Z</time></trkpt><trkpt lat="45.56034470767536" lon="10.997541424489278"><ele>275.0</ele><time>2026-04-07T13:54:29Z</time></trkpt><trkpt lat="45.5602660131686" lon="10.99764402542802"><ele>275.0</ele><time>2026-04-07T13:54:30Z</time></trkpt><trkpt lat="45.56018726272313" lon="10.997746508396824"><ele>275.0</ele><time>2026-04-07T13:54:31Z</time></trkpt><trkpt lat="45.56010430874645" lon="10.997844501774575"><ele>275.0</ele><time>2026-04-07T13:54:32Z</time></trkpt><trkpt lat="45.56001888507406" lon="10.99795227866435"><ele>275.0</ele><time>2026-04-07T13:54:33Z</time></trkpt><trkpt lat="45.55992296572988" lon="10.998056352612375"><ele>275.0</ele><time>2026-04-07T13:54:34Z</time></trkpt><trkpt lat="45.559834716259616" lon="10.998143100903796"><ele>275.0</ele><time>2026-04-07T13:54:35Z</time></trkpt><trkpt lat="45.55974053064539" lon="10.998223042411581"><ele>275.0</ele><time>2026-04-07T13:54:36Z</time></trkpt><trkpt lat="45.559640728611605" lon="10.998298764547808"><ele>275.0</ele><time>2026-04-07T13:54:37Z</time></trkpt><trkpt lat="45.55954059020308" lon="10.998368619705483"><ele>275.0</ele><time>2026-04-07T13:54:37.999Z</time></trkpt><trkpt lat="45.55944813778833" lon="10.998428684139007"><ele>273.8</ele><time>2026-04-07T13:54:38.999Z</time></trkpt><trkpt lat="45.55935222451815" lon="10.998495694354153"><ele>272.6</ele><time>2026-04-07T13:54:39.999Z</time></trkpt><trkpt lat="45.559251352532236" lon="10.99856811427665"><ele>271.4</ele><time>2026-04-07T13:54:40.999Z</time></trkpt><trkpt lat="45.559157161595" lon="10.998634694979058"><ele>270.2</ele><time>2026-04-07T13:54:41.999Z</time></trkpt><trkpt lat="45.55905402262821" lon="10.998705214716527"><ele>269.0</ele><time>2026-04-07T13:54:42.999Z</time></trkpt><trkpt lat="45.558942297096046" lon="10.998788852391247"><ele>269.0</ele><time>2026-04-07T13:54:43.999Z</time></trkpt><trkpt lat="45.558822500903844" lon="10.998882060415067"><ele>269.0</ele><time>2026-04-07T13:54:44.999Z</time></trkpt><trkpt lat="45.558697342239306" lon="10.99897920579951"><ele>269.0</ele><time>2026-04-07T13:54:45.999Z</time></trkpt><trkpt lat="45.55856820010758" lon="10.999078194284092"><ele>269.0</ele><time>2026-04-07T13:54:46.999Z</time></trkpt><trkpt lat="45.55844259380117" lon="10.999170381168708"><ele>271.5</ele><time>2026-04-07T13:54:47.999Z</time></trkpt><trkpt lat="45.55831580145795" lon="10.999266448687703"><ele>274.0</ele><time>2026-04-07T13:54:48.999Z</time></trkpt><trkpt lat="45.55818483980118" lon="10.999364011412926"><ele>276.5</ele><time>2026-04-07T13:54:49.999Z</time></trkpt><trkpt lat="45.55805177015749" lon="10.999456342640576"><ele>279.0</ele><time>2026-04-07T13:54:50.999Z</time></trkpt><trkpt lat="45.557912839003535" lon="10.999550005874235"><ele>275.3333333333333</ele><time>2026-04-07T13:54:51.999Z</time></trkpt><trkpt lat="45.55776895043389" lon="10.999634018709987"><ele>271.66666666666663</ele><time>2026-04-07T13:54:52.999Z</time></trkpt><trkpt lat="45.557620411763196" lon="10.99971566058155"><ele>268.0</ele><time>2026-04-07T13:54:53.999Z</time></trkpt><trkpt lat="45.557467719123935" lon="10.999798130790156"><ele>268.0</ele><time>2026-04-07T13:54:54.999Z</time></trkpt><trkpt lat="45.557322125422694" lon="10.999873274006871"><ele>268.0</ele><time>2026-04-07T13:54:55.999Z</time></trkpt><trkpt lat="45.557167817487155" lon="10.999956334745406"><ele>268.0</ele><time>2026-04-07T13:54:56.999Z</time></trkpt><trkpt lat="45.55701834042174" lon="11.000038016087395"><ele>265.3333333333333</ele><time>2026-04-07T13:54:57.999Z</time></trkpt><trkpt lat="45.556868975828166" lon="11.000120183748537"><ele>262.6666666666667</ele><time>2026-04-07T13:54:58.999Z</time></trkpt><trkpt lat="45.556712355245374" lon="11.000205030129951"><ele>260.0</ele><time>2026-04-07T13:54:59.999Z</time></trkpt><trkpt lat="45.55654331338193" lon="11.000322480590564"><ele>260.0</ele><time>2026-04-07T13:55:00.999Z</time></trkpt><trkpt lat="45.55633938995472" lon="11.000433039678388"><ele>260.0</ele><time>2026-04-07T13:55:01.999Z</time></trkpt><trkpt lat="45.556132045545766" lon="11.000597273784477"><ele>260.0</ele><time>2026-04-07T13:55:02.999Z</time></trkpt><trkpt lat="45.55591262405035" lon="11.000738777579413"><ele>260.0</ele><time>2026-04-07T13:55:03.999Z</time></trkpt><trkpt lat="45.55570259368873" lon="11.000874998936427"><ele>260.0</ele><time>2026-04-07T13:55:04.999Z</time></trkpt><trkpt lat="45.55551136313581" lon="11.001004623594744"><ele>260.0</ele><time>2026-04-07T13:55:05.999Z</time></trkpt><trkpt lat="45.555328249736654" lon="11.001121741739484"><ele>260.0</ele><time>2026-04-07T13:55:06.999Z</time></trkpt><trkpt lat="45.555148163672165" lon="11.001228064668542"><ele>257.6666666666667</ele><time>2026-04-07T13:55:07.999Z</time></trkpt><trkpt lat="45.55497071627317" lon="11.001320216685885"><ele>255.33333333333331</ele><time>2026-04-07T13:55:08.999Z</time></trkpt><trkpt lat="45.55479795388201" lon="11.001400863367504"><ele>253.0</ele><time>2026-04-07T13:55:09.999Z</time></trkpt><trkpt lat="45.5546230657326" lon="11.001477577854487"><ele>253.0</ele><time>2026-04-07T13:55:10.999Z</time></trkpt><trkpt lat="45.55445402985758" lon="11.001543269332732"><ele>253.0</ele><time>2026-04-07T13:55:11.999Z</time></trkpt><trkpt lat="45.55426864040228" lon="11.001611050556866"><ele>253.0</ele><time>2026-04-07T13:55:12.999Z</time></trkpt><trkpt lat="45.55409386774779" lon="11.001680776754485"><ele>253.0</ele><time>2026-04-07T13:55:13.999Z</time></trkpt><trkpt lat="45.553917139927115" lon="11.001752786707337"><ele>253.0</ele><time>2026-04-07T13:55:14.999Z</time></trkpt><trkpt lat="45.55374715838136" lon="11.00181939564763"><ele>253.0</ele><time>2026-04-07T13:55:15.999Z</time></trkpt><trkpt lat="45.553573965548196" lon="11.001887280321824"><ele>252.33333333333331</ele><time>2026-04-07T13:55:16.999Z</time></trkpt><trkpt lat="45.553404521909215" lon="11.001952104553054"><ele>251.66666666666669</ele><time>2026-04-07T13:55:17.999Z</time></trkpt><trkpt lat="45.553236272859785" lon="11.002021828944562"><ele>251.0</ele><time>2026-04-07T13:55:18.999Z</time></trkpt><trkpt lat="45.553082237002194" lon="11.002094108424085"><ele>251.0</ele><time>2026-04-07T13:55:19.999Z</time></trkpt><trkpt lat="45.55293544531717" lon="11.002179872054167"><ele>251.0</ele><time>2026-04-07T13:55:20.999Z</time></trkpt><trkpt lat="45.552784144110504" lon="11.002271116158207"><ele>251.0</ele><time>2026-04-07T13:55:21.999Z</time></trkpt><trkpt lat="45.55263101859625" lon="11.002361947360606"><ele>250.33333333333334</ele><time>2026-04-07T13:55:22.999Z</time></trkpt><trkpt lat="45.55247238751621" lon="11.002453902903532"><ele>249.66666666666669</ele><time>2026-04-07T13:55:23.999Z</time></trkpt><trkpt lat="45.55231113861395" lon="11.002540755065903"><ele>249.0</ele><time>2026-04-07T13:55:24.999Z</time></trkpt><trkpt lat="45.55215375678535" lon="11.002629255724012"><ele>248.5</ele><time>2026-04-07T13:55:25.999Z</time></trkpt><trkpt lat="45.55200767305305" lon="11.002709754653797"><ele>248.0</ele><time>2026-04-07T13:55:26.999Z</time></trkpt><trkpt lat="45.551868649620964" lon="11.002777098920681"><ele>247.5</ele><time>2026-04-07T13:55:27.999Z</time></trkpt><trkpt lat="45.5517343350085" lon="11.002837010720773"><ele>247.0</ele><time>2026-04-07T13:55:28.999Z</time></trkpt><trkpt lat="45.55161341032894" lon="11.002882473912088"><ele>247.0</ele><time>2026-04-07T13:55:29.999Z</time></trkpt><trkpt lat="45.55151556725981" lon="11.002914909094477"><ele>247.0</ele><time>2026-04-07T13:55:30.999Z</time></trkpt><trkpt lat="45.55142874259312" lon="11.002939734654484"><ele>247.0</ele><time>2026-04-07T13:55:31.999Z</time></trkpt><trkpt lat="45.55135629118192" lon="11.002937790450188"><ele>247.0</ele><time>2026-04-07T13:55:32.999Z</time></trkpt><trkpt lat="45.551293910743865" lon="11.002952414878582"><ele>247.0</ele><time>2026-04-07T13:55:33.998Z</time></trkpt><trkpt lat="45.55127577136065" lon="11.003137023338109"><ele>247.0</ele><time>2026-04-07T13:55:34.998Z</time></trkpt><trkpt lat="45.55127637403937" lon="11.0032917929644"><ele>247.0</ele><time>2026-04-07T13:55:36.998Z</time></trkpt><trkpt lat="45.551288142644765" lon="11.003382325180269"><ele>247.0</ele><time>2026-04-07T13:55:37.998Z</time></trkpt><trkpt lat="45.55137472378746" lon="11.003487736255012"><ele>247.0</ele><time>2026-04-07T13:55:38.998Z</time></trkpt><trkpt lat="45.551474204096834" lon="11.003606562309313"><ele>247.0</ele><time>2026-04-07T13:55:39.998Z</time></trkpt><trkpt lat="45.55157940855548" lon="11.003767639544312"><ele>248.0</ele><time>2026-04-07T13:55:40.998Z</time></trkpt><trkpt lat="45.55165843963129" lon="11.003971758157904"><ele>249.0</ele><time>2026-04-07T13:55:41.998Z</time></trkpt><trkpt lat="45.55170337161997" lon="11.004210913082947"><ele>250.0</ele><time>2026-04-07T13:55:42.998Z</time></trkpt><trkpt lat="45.551709169894394" lon="11.004435791819304"><ele>250.0</ele><time>2026-04-07T13:55:43.998Z</time></trkpt><trkpt lat="45.551686775122654" lon="11.00466217927743"><ele>250.0</ele><time>2026-04-07T13:55:44.998Z</time></trkpt><trkpt lat="45.55162992934175" lon="11.004876061846273"><ele>250.0</ele><time>2026-04-07T13:55:45.998Z</time></trkpt><trkpt lat="45.551534373997484" lon="11.005084984225872"><ele>250.33333333333331</ele><time>2026-04-07T13:55:46.998Z</time></trkpt><trkpt lat="45.55139943112035" lon="11.005241994904193"><ele>250.66666666666669</ele><time>2026-04-07T13:55:47.998Z</time></trkpt><trkpt lat="45.55125591659198" lon="11.005388408902393"><ele>251.0</ele><time>2026-04-07T13:55:48.998Z</time></trkpt><trkpt lat="45.551096254815704" lon="11.005474381486094"><ele>251.0</ele><time>2026-04-07T13:55:49.998Z</time></trkpt><trkpt lat="45.55092229745377" lon="11.005505912748713"><ele>251.0</ele><time>2026-04-07T13:55:50.998Z</time></trkpt><trkpt lat="45.55074386637538" lon="11.005486044112143"><ele>251.0</ele><time>2026-04-07T13:55:51.998Z</time></trkpt><trkpt lat="45.55054666521193" lon="11.00543366716685"><ele>252.66666666666669</ele><time>2026-04-07T13:55:52.998Z</time></trkpt><trkpt lat="45.5503379348395" lon="11.005366406084987"><ele>254.33333333333331</ele><time>2026-04-07T13:55:53.998Z</time></trkpt><trkpt lat="45.550118960487275" lon="11.005307742652787"><ele>256.0</ele><time>2026-04-07T13:55:54.998Z</time></trkpt><trkpt lat="45.54989165683243" lon="11.005254224792697"><ele>256.0</ele><time>2026-04-07T13:55:55.998Z</time></trkpt><trkpt lat="45.54966308700819" lon="11.005194753553713"><ele>256.0</ele><time>2026-04-07T13:55:56.998Z</time></trkpt><trkpt lat="45.549434858930496" lon="11.005141043269719"><ele>259.66666666666663</ele><time>2026-04-07T13:55:57.998Z</time></trkpt><trkpt lat="45.54922824787921" lon="11.00508875945865"><ele>263.3333333333333</ele><time>2026-04-07T13:55:58.998Z</time></trkpt><trkpt lat="45.549043772510394" lon="11.005043028036159"><ele>267.0</ele><time>2026-04-07T13:55:59.998Z</time></trkpt><trkpt lat="45.54885177617145" lon="11.005015799450833"><ele>268.0</ele><time>2026-04-07T13:56:00.998Z</time></trkpt><trkpt lat="45.548650875621284" lon="11.005032397877452"><ele>269.0</ele><time>2026-04-07T13:56:01.998Z</time></trkpt><trkpt lat="45.54843877827326" lon="11.0050846410102"><ele>270.0</ele><time>2026-04-07T13:56:02.998Z</time></trkpt><trkpt lat="45.548229239708945" lon="11.005153117407321"><ele>270.0</ele><time>2026-04-07T13:56:03.998Z</time></trkpt><trkpt lat="45.547999613687786" lon="11.005233159154278"><ele>270.0</ele><time>2026-04-07T13:56:04.998Z</time></trkpt><trkpt lat="45.54777380561689" lon="11.005323406883468"><ele>267.0</ele><time>2026-04-07T13:56:05.998Z</time></trkpt><trkpt lat="45.54755931831027" lon="11.005448859454871"><ele>264.0</ele><time>2026-04-07T13:56:06.998Z</time></trkpt><trkpt lat="45.54734189064643" lon="11.005601325282592"><ele>264.0</ele><time>2026-04-07T13:56:07.998Z</time></trkpt><trkpt lat="45.54713078840221" lon="11.005772183415582"><ele>264.0</ele><time>2026-04-07T13:56:08.998Z</time></trkpt><trkpt lat="45.54692581651351" lon="11.005941254247341"><ele>270.0</ele><time>2026-04-07T13:56:09.998Z</time></trkpt><trkpt lat="45.546748595221786" lon="11.006065971420817"><ele>276.0</ele><time>2026-04-07T13:56:11Z</time></trkpt><trkpt lat="45.546576988647374" lon="11.00619943633517"><ele>282.0</ele><time>2026-04-07T13:56:12Z</time></trkpt><trkpt lat="45.54632157940027" lon="11.006399247062042"><ele>276.6666666666667</ele><time>2026-04-07T13:56:13Z</time></trkpt><trkpt lat="45.54613234226446" lon="11.006547495324465"><ele>271.33333333333337</ele><time>2026-04-07T13:56:14Z</time></trkpt><trkpt lat="45.545961100671555" lon="11.006688158963726"><ele>266.0</ele><time>2026-04-07T13:56:15Z</time></trkpt><trkpt lat="45.5458077207962" lon="11.00681553160506"><ele>277.33333333333337</ele><time>2026-04-07T13:56:16Z</time></trkpt><trkpt lat="45.54567053835364" lon="11.006925789093906"><ele>288.6666666666667</ele><time>2026-04-07T13:56:17Z</time></trkpt><trkpt lat="45.54552822501" lon="11.007037425368216"><ele>300.0</ele><time>2026-04-07T13:56:18Z</time></trkpt><trkpt lat="45.545383974707185" lon="11.007159502513497"><ele>300.6666666666667</ele><time>2026-04-07T13:56:19Z</time></trkpt><trkpt lat="45.54525989544457" lon="11.007299016848268"><ele>301.33333333333337</ele><time>2026-04-07T13:56:20Z</time></trkpt><trkpt lat="45.545179422262635" lon="11.007481934337836"><ele>302.0</ele><time>2026-04-07T13:56:21Z</time></trkpt><trkpt lat="45.54509070899309" lon="11.007679069907667"><ele>302.0</ele><time>2026-04-07T13:56:22Z</time></trkpt><trkpt lat="45.54501892251126" lon="11.007926455661055"><ele>302.0</ele><time>2026-04-07T13:56:23Z</time></trkpt><trkpt lat="45.54495479750599" lon="11.008180978393995"><ele>302.0</ele><time>2026-04-07T13:56:24Z</time></trkpt><trkpt lat="45.544880380251236" lon="11.008422611609566"><ele>307.33333333333337</ele><time>2026-04-07T13:56:25Z</time></trkpt><trkpt lat="45.544833144015364" lon="11.008649131982567"><ele>312.6666666666667</ele><time>2026-04-07T13:56:26Z</time></trkpt><trkpt lat="45.54478387550278" lon="11.008879371927655"><ele>318.0</ele><time>2026-04-07T13:56:27Z</time></trkpt><trkpt lat="45.54473138451796" lon="11.009104836282425"><ele>314.25</ele><time>2026-04-07T13:56:28Z</time></trkpt><trkpt lat="45.5446768202524" lon="11.009304123187311"><ele>310.5</ele><time>2026-04-07T13:56:29Z</time></trkpt><trkpt lat="45.54462632249974" lon="11.009479757608332"><ele>306.75</ele><time>2026-04-07T13:56:30Z</time></trkpt><trkpt lat="45.544561952231355" lon="11.009644120211554"><ele>303.0</ele><time>2026-04-07T13:56:31Z</time></trkpt><trkpt lat="45.544461498582784" lon="11.009780441128868"><ele>303.0</ele><time>2026-04-07T13:56:32Z</time></trkpt><trkpt lat="45.54434287130735" lon="11.009869878519677"><ele>303.0</ele><time>2026-04-07T13:56:33Z</time></trkpt><trkpt lat="45.544219440268044" lon="11.009931882232491"><ele>303.0</ele><time>2026-04-07T13:56:34Z</time></trkpt><trkpt lat="45.54409659852483" lon="11.009981694471147"><ele>303.0</ele><time>2026-04-07T13:56:35Z</time></trkpt><trkpt lat="45.54397518932694" lon="11.009925667812885"><ele>303.0</ele><time>2026-04-07T13:56:36Z</time></trkpt><trkpt lat="45.54384697385497" lon="11.009882323883765"><ele>303.0</ele><time>2026-04-07T13:56:37Z</time></trkpt><trkpt lat="45.54373018759014" lon="11.009753553695056"><ele>303.0</ele><time>2026-04-07T13:56:38Z</time></trkpt><trkpt lat="45.54362347584061" lon="11.009590676291902"><ele>303.0</ele><time>2026-04-07T13:56:39Z</time></trkpt><trkpt lat="45.5435198730603" lon="11.009422365282317"><ele>302.3333333333333</ele><time>2026-04-07T13:56:40Z</time></trkpt><trkpt lat="45.543419201977414" lon="11.009264465207902"><ele>301.66666666666663</ele><time>2026-04-07T13:56:41Z</time></trkpt><trkpt lat="45.543306804714774" lon="11.009098681555326"><ele>301.0</ele><time>2026-04-07T13:56:42Z</time></trkpt><trkpt lat="45.54318527541674" lon="11.008937467290034"><ele>301.0</ele><time>2026-04-07T13:56:43Z</time></trkpt><trkpt lat="45.5430502841931" lon="11.008788674715452"><ele>301.0</ele><time>2026-04-07T13:56:43.999Z</time></trkpt><trkpt lat="45.542899088140246" lon="11.008658845112139"><ele>301.0</ele><time>2026-04-07T13:56:44.999Z</time></trkpt><trkpt lat="45.54273878569589" lon="11.008545099637159"><ele>313.0</ele><time>2026-04-07T13:56:45.999Z</time></trkpt><trkpt lat="45.54257306830898" lon="11.008449612337408"><ele>325.0</ele><time>2026-04-07T13:56:46.999Z</time></trkpt><trkpt lat="45.54237960769528" lon="11.008384653468257"><ele>337.0</ele><time>2026-04-07T13:56:47.999Z</time></trkpt><trkpt lat="45.54218020895287" lon="11.008354328260925"><ele>340.3333333333333</ele><time>2026-04-07T13:56:48.999Z</time></trkpt><trkpt lat="45.54198429961145" lon="11.008352089853942"><ele>343.6666666666667</ele><time>2026-04-07T13:56:49.999Z</time></trkpt><trkpt lat="45.54179250899254" lon="11.00837076148412"><ele>347.0</ele><time>2026-04-07T13:56:50.999Z</time></trkpt><trkpt lat="45.54160544363465" lon="11.008408589258488"><ele>347.0</ele><time>2026-04-07T13:56:51.999Z</time></trkpt><trkpt lat="45.541422026577266" lon="11.008483751603729"><ele>347.0</ele><time>2026-04-07T13:56:52.999Z</time></trkpt><trkpt lat="45.541232481529065" lon="11.008542828323062"><ele>347.0</ele><time>2026-04-07T13:56:53.999Z</time></trkpt><trkpt lat="45.54105408877203" lon="11.008604900720414"><ele>348.0</ele><time>2026-04-07T13:56:54.999Z</time></trkpt><trkpt lat="45.54088797559626" lon="11.008695581035187"><ele>349.0</ele><time>2026-04-07T13:56:55.999Z</time></trkpt><trkpt lat="45.54073305717875" lon="11.008760119066128"><ele>350.0</ele><time>2026-04-07T13:56:56.999Z</time></trkpt><trkpt lat="45.54058180958084" lon="11.008857552520473"><ele>350.0</ele><time>2026-04-07T13:56:57.999Z</time></trkpt><trkpt lat="45.54044358248586" lon="11.00900801025657"><ele>350.0</ele><time>2026-04-07T13:56:58.999Z</time></trkpt><trkpt lat="45.54031775813485" lon="11.00919204986341"><ele>350.0</ele><time>2026-04-07T13:56:59.999Z</time></trkpt><trkpt lat="45.540188531246365" lon="11.009358025381875"><ele>354.0</ele><time>2026-04-07T13:57:00.999Z</time></trkpt><trkpt lat="45.540065807843845" lon="11.009521488517102"><ele>358.0</ele><time>2026-04-07T13:57:01.999Z</time></trkpt><trkpt lat="45.53994312186655" lon="11.009618805385578"><ele>362.0</ele><time>2026-04-07T13:57:02.999Z</time></trkpt><trkpt lat="45.53979039472368" lon="11.009686266694626"><ele>362.0</ele><time>2026-04-07T13:57:03.999Z</time></trkpt><trkpt lat="45.5396222255074" lon="11.009734672502296"><ele>362.0</ele><time>2026-04-07T13:57:04.999Z</time></trkpt><trkpt lat="45.539461425879445" lon="11.009728760298717"><ele>362.0</ele><time>2026-04-07T13:57:05.999Z</time></trkpt><trkpt lat="45.53928984726726" lon="11.009686740518532"><ele>362.6666666666667</ele><time>2026-04-07T13:57:06.999Z</time></trkpt><trkpt lat="45.53911528859334" lon="11.009643118092548"><ele>363.3333333333333</ele><time>2026-04-07T13:57:07.999Z</time></trkpt><trkpt lat="45.538945873690196" lon="11.00957584531648"><ele>364.0</ele><time>2026-04-07T13:57:08.999Z</time></trkpt><trkpt lat="45.53877290685487" lon="11.009527192821244"><ele>367.3333333333333</ele><time>2026-04-07T13:57:09.999Z</time></trkpt><trkpt lat="45.53860344748485" lon="11.00948818569383"><ele>370.6666666666667</ele><time>2026-04-07T13:57:10.999Z</time></trkpt><trkpt lat="45.538431701776815" lon="11.009464998872334"><ele>374.0</ele><time>2026-04-07T13:57:11.999Z</time></trkpt><trkpt lat="45.53826243511805" lon="11.009483533259958"><ele>374.0</ele><time>2026-04-07T13:57:12.999Z</time></trkpt><trkpt lat="45.53810078456415" lon="11.009547549668135"><ele>374.0</ele><time>2026-04-07T13:57:13.999Z</time></trkpt><trkpt lat="45.53795743534335" lon="11.009669052534456"><ele>374.0</ele><time>2026-04-07T13:57:14.999Z</time></trkpt><trkpt lat="45.53783471463062" lon="11.009817931279189"><ele>375.33333333333337</ele><time>2026-04-07T13:57:15.999Z</time></trkpt><trkpt lat="45.53774119034163" lon="11.010000868272916"><ele>376.6666666666667</ele><time>2026-04-07T13:57:16.999Z</time></trkpt><trkpt lat="45.53766163533389" lon="11.010208565754384"><ele>378.0</ele><time>2026-04-07T13:57:17.999Z</time></trkpt><trkpt lat="45.537608937268736" lon="11.010428347428105"><ele>378.0</ele><time>2026-04-07T13:57:18.999Z</time></trkpt><trkpt lat="45.537584451043564" lon="11.010657730287848"><ele>378.0</ele><time>2026-04-07T13:57:19.999Z</time></trkpt><trkpt lat="45.537593694196524" lon="11.010886492056192"><ele>378.0</ele><time>2026-04-07T13:57:20.999Z</time></trkpt><trkpt lat="45.53763994652127" lon="11.011119537729082"><ele>380.66666666666663</ele><time>2026-04-07T13:57:21.999Z</time></trkpt><trkpt lat="45.5377111793249" lon="11.01134013548068"><ele>383.3333333333333</ele><time>2026-04-07T13:57:22.999Z</time></trkpt><trkpt lat="45.53780532758806" lon="11.011534783927221"><ele>386.0</ele><time>2026-04-07T13:57:23.999Z</time></trkpt><trkpt lat="45.537926612661145" lon="11.011714557252139"><ele>393.0</ele><time>2026-04-07T13:57:24.999Z</time></trkpt><trkpt lat="45.53808556059746" lon="11.011854562015422"><ele>400.0</ele><time>2026-04-07T13:57:25.999Z</time></trkpt><trkpt lat="45.53828106503717" lon="11.011973357533979"><ele>407.0</ele><time>2026-04-07T13:57:26.999Z</time></trkpt><trkpt lat="45.53848736170869" lon="11.012152242635866"><ele>407.0</ele><time>2026-04-07T13:57:27.999Z</time></trkpt><trkpt lat="45.53871071158965" lon="11.012333852908975"><ele>407.0</ele><time>2026-04-07T13:57:28.999Z</time></trkpt><trkpt lat="45.53893827954738" lon="11.012528733144244"><ele>410.0</ele><time>2026-04-07T13:57:29.999Z</time></trkpt><trkpt lat="45.53917001414807" lon="11.01273788893573"><ele>413.0</ele><time>2026-04-07T13:57:30.999Z</time></trkpt><trkpt lat="45.539391438619575" lon="11.013003671476735"><ele>420.0</ele><time>2026-04-07T13:57:31.999Z</time></trkpt><trkpt lat="45.539597038411436" lon="11.01330057273766"><ele>427.0</ele><time>2026-04-07T13:57:32.999Z</time></trkpt><trkpt lat="45.53978158468992" lon="11.013638563718493"><ele>427.0</ele><time>2026-04-07T13:57:33.999Z</time></trkpt><trkpt lat="45.53998100563428" lon="11.013965753156048"><ele>427.0</ele><time>2026-04-07T13:57:34.999Z</time></trkpt><trkpt lat="45.540172191370786" lon="11.014312954636818"><ele>423.0</ele><time>2026-04-07T13:57:35.999Z</time></trkpt><trkpt lat="45.54037482309419" lon="11.01464812331763"><ele>419.0</ele><time>2026-04-07T13:57:36.999Z</time></trkpt><trkpt lat="45.540578996775885" lon="11.014979315152111"><ele>429.5</ele><time>2026-04-07T13:57:37.999Z</time></trkpt><trkpt lat="45.54077952219877" lon="11.015306619825585"><ele>440.0</ele><time>2026-04-07T13:57:38.999Z</time></trkpt><trkpt lat="45.540974702856246" lon="11.015634514014318"><ele>437.0</ele><time>2026-04-07T13:57:39.999Z</time></trkpt><trkpt lat="45.54115375990516" lon="11.015945455726683"><ele>434.0</ele><time>2026-04-07T13:57:40.998Z</time></trkpt><trkpt lat="45.54132339107986" lon="11.016223864609136"><ele>440.0</ele><time>2026-04-07T13:57:41.998Z</time></trkpt><trkpt lat="45.54149626931791" lon="11.016473302395005"><ele>446.0</ele><time>2026-04-07T13:57:42.998Z</time></trkpt><trkpt lat="45.5416945349301" lon="11.016689994072522"><ele>446.0</ele><time>2026-04-07T13:57:43.998Z</time></trkpt><trkpt lat="45.54192885652783" lon="11.016868662245994"><ele>446.0</ele><time>2026-04-07T13:57:44.998Z</time></trkpt><trkpt lat="45.54217506238472" lon="11.017019312761205"><ele>455.0</ele><time>2026-04-07T13:57:45.998Z</time></trkpt><trkpt lat="45.542400070416946" lon="11.017163358946622"><ele>464.0</ele><time>2026-04-07T13:57:46.998Z</time></trkpt><trkpt lat="45.542596465292746" lon="11.017329137895912"><ele>462.0</ele><time>2026-04-07T13:57:47.998Z</time></trkpt><trkpt lat="45.54274602659279" lon="11.017550260739794"><ele>460.0</ele><time>2026-04-07T13:57:48.998Z</time></trkpt><trkpt lat="45.542874391866555" lon="11.01775642230695"><ele>458.0</ele><time>2026-04-07T13:57:49.998Z</time></trkpt><trkpt lat="45.54298529614504" lon="11.01796383174534"><ele>462.0</ele><time>2026-04-07T13:57:50.998Z</time></trkpt><trkpt lat="45.5430795980865" lon="11.018225503116968"><ele>466.0</ele><time>2026-04-07T13:57:51.998Z</time></trkpt><trkpt lat="45.543160586535606" lon="11.01851168873983"><ele>470.0</ele><time>2026-04-07T13:57:52.998Z</time></trkpt><trkpt lat="45.54321361185522" lon="11.01883682840026"><ele>471.5</ele><time>2026-04-07T13:57:53.998Z</time></trkpt><trkpt lat="45.54324263519667" lon="11.019155286586175"><ele>473.0</ele><time>2026-04-07T13:57:54.998Z</time></trkpt><trkpt lat="45.54328647959605" lon="11.019485860236346"><ele>473.0</ele><time>2026-04-07T13:57:55.998Z</time></trkpt><trkpt lat="45.54337226764078" lon="11.019790945525862"><ele>473.0</ele><time>2026-04-07T13:57:56.998Z</time></trkpt><trkpt lat="45.543499221057765" lon="11.020085804508598"><ele>472.0</ele><time>2026-04-07T13:57:57.998Z</time></trkpt><trkpt lat="45.54364150052381" lon="11.020378131588288"><ele>471.0</ele><time>2026-04-07T13:57:58.998Z</time></trkpt><trkpt lat="45.543767118622384" lon="11.020670746755737"><ele>478.5</ele><time>2026-04-07T13:57:59.998Z</time></trkpt><trkpt lat="45.54388829101259" lon="11.020953760110874"><ele>486.0</ele><time>2026-04-07T13:58:00.998Z</time></trkpt><trkpt lat="45.544024118562675" lon="11.021223289438836"><ele>486.0</ele><time>2026-04-07T13:58:01.998Z</time></trkpt><trkpt lat="45.54416593231057" lon="11.021472887766524"><ele>486.0</ele><time>2026-04-07T13:58:02.998Z</time></trkpt><trkpt lat="45.544292712165095" lon="11.021702793682277"><ele>486.0</ele><time>2026-04-07T13:58:03.998Z</time></trkpt><trkpt lat="45.54442023792123" lon="11.021921352979248"><ele>490.66666666666663</ele><time>2026-04-07T13:58:04.998Z</time></trkpt><trkpt lat="45.54458005368836" lon="11.022114639694937"><ele>495.3333333333333</ele><time>2026-04-07T13:58:05.998Z</time></trkpt><trkpt lat="45.544777399531206" lon="11.022269675030604"><ele>500.0</ele><time>2026-04-07T13:58:06.998Z</time></trkpt><trkpt lat="45.54500098171515" lon="11.022397828652316"><ele>503.5</ele><time>2026-04-07T13:58:07.998Z</time></trkpt><trkpt lat="45.54524217421255" lon="11.022513108553321"><ele>507.0</ele><time>2026-04-07T13:58:08.998Z</time></trkpt><trkpt lat="45.54548211677081" lon="11.0226356443234"><ele>507.0</ele><time>2026-04-07T13:58:09.998Z</time></trkpt><trkpt lat="45.54573376580174" lon="11.022785459762831"><ele>507.0</ele><time>2026-04-07T13:58:10.998Z</time></trkpt><trkpt lat="45.54599190270895" lon="11.02292931994601"><ele>514.0</ele><time>2026-04-07T13:58:11.998Z</time></trkpt><trkpt lat="45.54625402609126" lon="11.023075424111443"><ele>521.0</ele><time>2026-04-07T13:58:12.998Z</time></trkpt><trkpt lat="45.54649497374847" lon="11.023212232522207"><ele>522.0</ele><time>2026-04-07T13:58:13.998Z</time></trkpt><trkpt lat="45.546710884439364" lon="11.023340090507842"><ele>523.0</ele><time>2026-04-07T13:58:14.998Z</time></trkpt><trkpt lat="45.5469108624501" lon="11.02345176088846"><ele>524.0</ele><time>2026-04-07T13:58:15.998Z</time></trkpt><trkpt lat="45.54708304498113" lon="11.02354857440247"><ele>524.0</ele><time>2026-04-07T13:58:17Z</time></trkpt><trkpt lat="45.54724756029902" lon="11.023627545211854"><ele>524.0</ele><time>2026-04-07T13:58:18Z</time></trkpt><trkpt lat="45.54742336773644" lon="11.023669525925238"><ele>524.0</ele><time>2026-04-07T13:58:19Z</time></trkpt><trkpt lat="45.547627548527366" lon="11.023669437135444"><ele>524.0</ele><time>2026-04-07T13:58:20Z</time></trkpt><trkpt lat="45.54783585191599" lon="11.02362460927095"><ele>524.0</ele><time>2026-04-07T13:58:21Z</time></trkpt><trkpt lat="45.54802109233159" lon="11.023555585260985"><ele>524.0</ele><time>2026-04-07T13:58:22Z</time></trkpt><trkpt lat="45.54818671283191" lon="11.0235060030225"><ele>526.6666666666666</ele><time>2026-04-07T13:58:23Z</time></trkpt><trkpt lat="45.548354602455184" lon="11.023515947017241"><ele>529.3333333333334</ele><time>2026-04-07T13:58:24Z</time></trkpt><trkpt lat="45.548524305693384" lon="11.023579400524206"><ele>532.0</ele><time>2026-04-07T13:58:25Z</time></trkpt><trkpt lat="45.54869525055611" lon="11.0236928330004"><ele>533.6666666666667</ele><time>2026-04-07T13:58:26Z</time></trkpt><trkpt lat="45.54887203137309" lon="11.023865175086613"><ele>535.3333333333334</ele><time>2026-04-07T13:58:27Z</time></trkpt><trkpt lat="45.54905114584225" lon="11.024069038975307"><ele>537.0</ele><time>2026-04-07T13:58:28Z</time></trkpt><trkpt lat="45.54924094682848" lon="11.024286075735056"><ele>537.0</ele><time>2026-04-07T13:58:29Z</time></trkpt><trkpt lat="45.549440699148725" lon="11.02449562796428"><ele>537.0</ele><time>2026-04-07T13:58:30Z</time></trkpt><trkpt lat="45.54966210510706" lon="11.024682700580861"><ele>539.6666666666666</ele><time>2026-04-07T13:58:31Z</time></trkpt><trkpt lat="45.54986400138812" lon="11.024849259219419"><ele>542.3333333333333</ele><time>2026-04-07T13:58:32Z</time></trkpt><trkpt lat="45.550036411804236" lon="11.024993735903342"><ele>545.0</ele><time>2026-04-07T13:58:33Z</time></trkpt><trkpt lat="45.55018664812915" lon="11.025131589802271"><ele>545.0</ele><time>2026-04-07T13:58:34Z</time></trkpt><trkpt lat="45.55032117788148" lon="11.025263673962396"><ele>545.0</ele><time>2026-04-07T13:58:35Z</time></trkpt><trkpt lat="45.550436354710385" lon="11.025400383140168"><ele>545.0</ele><time>2026-04-07T13:58:36Z</time></trkpt><trkpt lat="45.550522196540975" lon="11.02556922755928"><ele>552.0</ele><time>2026-04-07T13:58:37Z</time></trkpt><trkpt lat="45.55058289216181" lon="11.025773343579374"><ele>559.0</ele><time>2026-04-07T13:58:38Z</time></trkpt><trkpt lat="45.550600837263964" lon="11.025997162904442"><ele>566.0</ele><time>2026-04-07T13:58:39Z</time></trkpt><trkpt lat="45.55057172733583" lon="11.02620248056613"><ele>566.0</ele><time>2026-04-07T13:58:40Z</time></trkpt><trkpt lat="45.550500207769886" lon="11.026392479413797"><ele>566.0</ele><time>2026-04-07T13:58:41Z</time></trkpt><trkpt lat="45.5503948475986" lon="11.026553079795525"><ele>566.0</ele><time>2026-04-07T13:58:42Z</time></trkpt><trkpt lat="45.55026510042394" lon="11.026698299742867"><ele>563.0</ele><time>2026-04-07T13:58:43Z</time></trkpt><trkpt lat="45.55011809848952" lon="11.026823888391554"><ele>560.0</ele><time>2026-04-07T13:58:44Z</time></trkpt><trkpt lat="45.54995865616184" lon="11.026923669903711"><ele>557.0</ele><time>2026-04-07T13:58:45Z</time></trkpt><trkpt lat="45.549802197853325" lon="11.027026296605062"><ele>557.0</ele><time>2026-04-07T13:58:46Z</time></trkpt><trkpt lat="45.549661774744344" lon="11.027181956781824"><ele>557.0</ele><time>2026-04-07T13:58:47Z</time></trkpt><trkpt lat="45.54955087973325" lon="11.027396035929053"><ele>557.0</ele><time>2026-04-07T13:58:48Z</time></trkpt><trkpt lat="45.54947602362255" lon="11.027636043993807"><ele>556.3333333333333</ele><time>2026-04-07T13:58:49Z</time></trkpt><trkpt lat="45.54944483676283" lon="11.02788655201059"><ele>555.6666666666666</ele><time>2026-04-07T13:58:50Z</time></trkpt><trkpt lat="45.549441394336306" lon="11.028139599317937"><ele>555.0</ele><time>2026-04-07T13:58:51Z</time></trkpt><trkpt lat="45.54946573822099" lon="11.028377888504819"><ele>555.0</ele><time>2026-04-07T13:58:51.999Z</time></trkpt><trkpt lat="45.549524452948845" lon="11.0285834208984"><ele>555.0</ele><time>2026-04-07T13:58:52.999Z</time></trkpt><trkpt lat="45.54960191209459" lon="11.028741253349379"><ele>555.0</ele><time>2026-04-07T13:58:53.999Z</time></trkpt><trkpt lat="45.5496886054659" lon="11.028870514032521"><ele>555.0</ele><time>2026-04-07T13:58:54.999Z</time></trkpt><trkpt lat="45.54977464165723" lon="11.028986869792131"><ele>559.0</ele><time>2026-04-07T13:58:55.999Z</time></trkpt><trkpt lat="45.54985965164709" lon="11.029081279032944"><ele>563.0</ele><time>2026-04-07T13:58:56.999Z</time></trkpt><trkpt lat="45.54993712319052" lon="11.029142050701498"><ele>567.0</ele><time>2026-04-07T13:58:57.999Z</time></trkpt><trkpt lat="45.549996911229535" lon="11.029182176131378"><ele>571.0</ele><time>2026-04-07T13:58:58.999Z</time></trkpt><trkpt lat="45.550068495399906" lon="11.02921812132988"><ele>575.0</ele><time>2026-04-07T13:58:59.999Z</time></trkpt><trkpt lat="45.55017338237702" lon="11.029261360561744"><ele>579.0</ele><time>2026-04-07T13:59:00.999Z</time></trkpt><trkpt lat="45.55029413330965" lon="11.02930348022504"><ele>583.0</ele><time>2026-04-07T13:59:01.999Z</time></trkpt><trkpt lat="45.55041406254785" lon="11.02935168743743"><ele>587.0</ele><time>2026-04-07T13:59:02.999Z</time></trkpt><trkpt lat="45.55052065850956" lon="11.029411755984484"><ele>591.0</ele><time>2026-04-07T13:59:03.999Z</time></trkpt><trkpt lat="45.550636200143664" lon="11.029452952405196"><ele>595.0</ele><time>2026-04-07T13:59:04.999Z</time></trkpt><trkpt lat="45.550756350997574" lon="11.029509249607022"><ele>595.0</ele><time>2026-04-07T13:59:05.999Z</time></trkpt><trkpt lat="45.55089006519013" lon="11.029563461411573"><ele>595.0</ele><time>2026-04-07T13:59:06.999Z</time></trkpt><trkpt lat="45.551032446284516" lon="11.029633786152932"><ele>595.0</ele><time>2026-04-07T13:59:07.999Z</time></trkpt><trkpt lat="45.551182785273745" lon="11.029690368487314"><ele>595.0</ele><time>2026-04-07T13:59:08.999Z</time></trkpt><trkpt lat="45.55130314132449" lon="11.029775741507457"><ele>595.25</ele><time>2026-04-07T13:59:09.999Z</time></trkpt><trkpt lat="45.55140565404621" lon="11.029868381639773"><ele>595.5</ele><time>2026-04-07T13:59:10.999Z</time></trkpt><trkpt lat="45.551494529946666" lon="11.029984671128506"><ele>595.75</ele><time>2026-04-07T13:59:11.999Z</time></trkpt><trkpt lat="45.551567534629775" lon="11.030144704602602"><ele>596.0</ele><time>2026-04-07T13:59:12.999Z</time></trkpt><trkpt lat="45.55162290315693" lon="11.030334510220875"><ele>596.0</ele><time>2026-04-07T13:59:13.999Z</time></trkpt><trkpt lat="45.551698251608194" lon="11.030567291043857"><ele>596.0</ele><time>2026-04-07T13:59:14.999Z</time></trkpt><trkpt lat="45.55174669532719" lon="11.030843280646017"><ele>596.0</ele><time>2026-04-07T13:59:15.999Z</time></trkpt><trkpt lat="45.551817053577984" lon="11.0311334824952"><ele>593.5</ele><time>2026-04-07T13:59:16.999Z</time></trkpt><trkpt lat="45.55192549263271" lon="11.031428184954468"><ele>591.0</ele><time>2026-04-07T13:59:17.999Z</time></trkpt><trkpt lat="45.55206372560247" lon="11.031712385934627"><ele>601.5</ele><time>2026-04-07T13:59:18.999Z</time></trkpt><trkpt lat="45.552192276917275" lon="11.032009494113176"><ele>612.0</ele><time>2026-04-07T13:59:19.999Z</time></trkpt><trkpt lat="45.55231566623092" lon="11.032295469997331"><ele>610.3333333333334</ele><time>2026-04-07T13:59:20.999Z</time></trkpt><trkpt lat="45.55239708547178" lon="11.032578383764687"><ele>608.6666666666667</ele><time>2026-04-07T13:59:21.999Z</time></trkpt><trkpt lat="45.55243661227706" lon="11.0328742387558"><ele>607.0</ele><time>2026-04-07T13:59:22.999Z</time></trkpt><trkpt lat="45.55246644020646" lon="11.03318237117829"><ele>607.0</ele><time>2026-04-07T13:59:23.999Z</time></trkpt><trkpt lat="45.55250591749256" lon="11.033465911293948"><ele>607.0</ele><time>2026-04-07T13:59:24.999Z</time></trkpt><trkpt lat="45.55253365738721" lon="11.033711633852809"><ele>607.0</ele><time>2026-04-07T13:59:25.999Z</time></trkpt><trkpt lat="45.552587825570455" lon="11.033930541442967"><ele>607.0</ele><time>2026-04-07T13:59:26.999Z</time></trkpt><trkpt lat="45.55267563893638" lon="11.034129256908237"><ele>607.0</ele><time>2026-04-07T13:59:27.999Z</time></trkpt><trkpt lat="45.55280413659817" lon="11.034300500471389"><ele>607.0</ele><time>2026-04-07T13:59:28.999Z</time></trkpt><trkpt lat="45.552960820027586" lon="11.0344475538148"><ele>613.0</ele><time>2026-04-07T13:59:29.999Z</time></trkpt><trkpt lat="45.553153564204926" lon="11.034579424010076"><ele>619.0</ele><time>2026-04-07T13:59:30.999Z</time></trkpt><trkpt lat="45.55335154160778" lon="11.03472130570408"><ele>625.0</ele><time>2026-04-07T13:59:31.999Z</time></trkpt><trkpt lat="45.553550977792476" lon="11.034881129356986"><ele>627.5</ele><time>2026-04-07T13:59:32.999Z</time></trkpt><trkpt lat="45.553746892582055" lon="11.035039669945396"><ele>630.0</ele><time>2026-04-07T13:59:33.999Z</time></trkpt><trkpt lat="45.553956686657216" lon="11.03520165842491"><ele>630.0</ele><time>2026-04-07T13:59:34.999Z</time></trkpt><trkpt lat="45.554175614194804" lon="11.03536625147952"><ele>630.0</ele><time>2026-04-07T13:59:35.999Z</time></trkpt><trkpt lat="45.55440828118395" lon="11.035510384332916"><ele>636.0</ele><time>2026-04-07T13:59:36.999Z</time></trkpt><trkpt lat="45.55465440308891" lon="11.035625669104679"><ele>642.0</ele><time>2026-04-07T13:59:37.999Z</time></trkpt><trkpt lat="45.55489294287621" lon="11.035710125239142"><ele>642.0</ele><time>2026-04-07T13:59:38.999Z</time></trkpt><trkpt lat="45.55515091677165" lon="11.035779144918111"><ele>642.0</ele><time>2026-04-07T13:59:39.999Z</time></trkpt><trkpt lat="45.555401578872" lon="11.035862831949474"><ele>638.0</ele><time>2026-04-07T13:59:40.999Z</time></trkpt><trkpt lat="45.55563786293049" lon="11.03593684105939"><ele>634.0</ele><time>2026-04-07T13:59:41.999Z</time></trkpt><trkpt lat="45.5558495753212" lon="11.036002436326095"><ele>634.0</ele><time>2026-04-07T13:59:42.999Z</time></trkpt><trkpt lat="45.55604087019781" lon="11.036058754057064"><ele>634.0</ele><time>2026-04-07T13:59:43.999Z</time></trkpt><trkpt lat="45.556212588814354" lon="11.036087314142284"><ele>634.0</ele><time>2026-04-07T13:59:44.999Z</time></trkpt><trkpt lat="45.55636939600738" lon="11.036137262030818"><ele>635.0</ele><time>2026-04-07T13:59:45.999Z</time></trkpt><trkpt lat="45.55651511470698" lon="11.036190104999752"><ele>636.0</ele><time>2026-04-07T13:59:46.999Z</time></trkpt><trkpt lat="45.556642541497745" lon="11.03626692449799"><ele>637.0</ele><time>2026-04-07T13:59:47.999Z</time></trkpt><trkpt lat="45.55676915709947" lon="11.036392612355485"><ele>638.0</ele><time>2026-04-07T13:59:48.999Z</time></trkpt><trkpt lat="45.55687673030375" lon="11.03658601803262"><ele>637.3333333333333</ele><time>2026-04-07T13:59:49.999Z</time></trkpt><trkpt lat="45.55701552578785" lon="11.03673674994955"><ele>636.6666666666666</ele><time>2026-04-07T13:59:50.998Z</time></trkpt><trkpt lat="45.55716259468661" lon="11.03687285603145"><ele>636.0</ele><time>2026-04-07T13:59:51.998Z</time></trkpt><trkpt lat="45.55732868397262" lon="11.036940333405994"><ele>635.6666666666666</ele><time>2026-04-07T13:59:52.998Z</time></trkpt><trkpt lat="45.55749743183258" lon="11.036970202571828"><ele>635.3333333333333</ele><time>2026-04-07T13:59:53.998Z</time></trkpt><trkpt lat="45.557641816716696" lon="11.037000622066321"><ele>635.0</ele><time>2026-04-07T13:59:54.998Z</time></trkpt><trkpt lat="45.55777568602726" lon="11.03703876398315"><ele>633.4</ele><time>2026-04-07T13:59:55.998Z</time></trkpt><trkpt lat="45.557894280500655" lon="11.037076299936544"><ele>631.8</ele><time>2026-04-07T13:59:56.998Z</time></trkpt><trkpt lat="45.5580017850512" lon="11.037106765475677"><ele>630.2</ele><time>2026-04-07T13:59:57.998Z</time></trkpt><trkpt lat="45.55811171484651" lon="11.037142291047743"><ele>628.6</ele><time>2026-04-07T13:59:58.998Z</time></trkpt><trkpt lat="45.55820460807074" lon="11.037181173379881"><ele>627.0</ele><time>2026-04-07T13:59:59.998Z</time></trkpt><trkpt lat="45.558263708931044" lon="11.037277180908399"><ele>627.0</ele><time>2026-04-07T14:00:00.998Z</time></trkpt><trkpt lat="45.5583158202595" lon="11.037382036528497"><ele>627.0</ele><time>2026-04-07T14:00:01.998Z</time></trkpt><trkpt lat="45.55833876217899" lon="11.037524058857727"><ele>627.0</ele><time>2026-04-07T14:00:02.998Z</time></trkpt><trkpt lat="45.55830638652927" lon="11.037672266868357"><ele>627.0</ele><time>2026-04-07T14:00:03.998Z</time></trkpt><trkpt lat="45.55822253029531" lon="11.03778383149772"><ele>627.0</ele><time>2026-04-07T14:00:04.998Z</time></trkpt><trkpt lat="45.55810756781744" lon="11.03784266865839"><ele>631.5</ele><time>2026-04-07T14:00:05.998Z</time></trkpt><trkpt lat="45.55798083923288" lon="11.03780026908682"><ele>636.0</ele><time>2026-04-07T14:00:06.998Z</time></trkpt><trkpt lat="45.557865129483616" lon="11.037722556545619"><ele>640.5</ele><time>2026-04-07T14:00:07.998Z</time></trkpt><trkpt lat="45.55773884082015" lon="11.037655365087371"><ele>645.0</ele><time>2026-04-07T14:00:08.998Z</time></trkpt><trkpt lat="45.557629363575934" lon="11.037596884606995"><ele>646.0</ele><time>2026-04-07T14:00:09.998Z</time></trkpt><trkpt lat="45.55750866748603" lon="11.037570079956183"><ele>647.0</ele><time>2026-04-07T14:00:10.998Z</time></trkpt><trkpt lat="45.55737093926394" lon="11.03756916943064"><ele>648.0</ele><time>2026-04-07T14:00:11.998Z</time></trkpt><trkpt lat="45.55725411788159" lon="11.037618278670399"><ele>649.0</ele><time>2026-04-07T14:00:12.998Z</time></trkpt><trkpt lat="45.557124314366874" lon="11.037691129074338"><ele>647.25</ele><time>2026-04-07T14:00:13.998Z</time></trkpt><trkpt lat="45.557001131750184" lon="11.037771456729326"><ele>645.5</ele><time>2026-04-07T14:00:14.998Z</time></trkpt><trkpt lat="45.55690257730365" lon="11.037856650237188"><ele>643.75</ele><time>2026-04-07T14:00:15.998Z</time></trkpt><trkpt lat="45.556812741883014" lon="11.037943963074516"><ele>642.0</ele><time>2026-04-07T14:00:16.998Z</time></trkpt><trkpt lat="45.55673581370785" lon="11.038070504385363"><ele>642.0</ele><time>2026-04-07T14:00:17.998Z</time></trkpt><trkpt lat="45.55670711451598" lon="11.038233978575493"><ele>642.0</ele><time>2026-04-07T14:00:18.998Z</time></trkpt><trkpt lat="45.55672573212354" lon="11.038406323038842"><ele>642.0</ele><time>2026-04-07T14:00:19.998Z</time></trkpt><trkpt lat="45.556788349743414" lon="11.038568659438866"><ele>642.0</ele><time>2026-04-07T14:00:20.998Z</time></trkpt><trkpt lat="45.55687138105282" lon="11.038713939706975"><ele>644.75</ele><time>2026-04-07T14:00:21.998Z</time></trkpt><trkpt lat="45.556962380908665" lon="11.03883656061741"><ele>647.5</ele><time>2026-04-07T14:00:23Z</time></trkpt><trkpt lat="45.55702322333665" lon="11.038980375756047"><ele>650.25</ele><time>2026-04-07T14:00:24Z</time></trkpt><trkpt lat="45.55710154607554" lon="11.039117814859075"><ele>653.0</ele><time>2026-04-07T14:00:25Z</time></trkpt><trkpt lat="45.55718676846287" lon="11.039264652332491"><ele>656.25</ele><time>2026-04-07T14:00:26Z</time></trkpt><trkpt lat="45.55727754870771" lon="11.03941028965904"><ele>659.5</ele><time>2026-04-07T14:00:27Z</time></trkpt><trkpt lat="45.55738518778706" lon="11.03951897678157"><ele>662.75</ele><time>2026-04-07T14:00:28Z</time></trkpt><trkpt lat="45.557486038836444" lon="11.039646090912438"><ele>666.0</ele><time>2026-04-07T14:00:29Z</time></trkpt><trkpt lat="45.557640957808225" lon="11.039741825595323"><ele>666.0</ele><time>2026-04-07T14:00:30Z</time></trkpt><trkpt lat="45.5578355648962" lon="11.03982170196112"><ele>666.0</ele><time>2026-04-07T14:00:31Z</time></trkpt><trkpt lat="45.55802879988288" lon="11.039881327316607"><ele>666.0</ele><time>2026-04-07T14:00:32Z</time></trkpt><trkpt lat="45.55818768763089" lon="11.039930685719204"><ele>668.0</ele><time>2026-04-07T14:00:33Z</time></trkpt><trkpt lat="45.55833421861343" lon="11.039981897492702"><ele>670.0</ele><time>2026-04-07T14:00:34Z</time></trkpt><trkpt lat="45.55846821429357" lon="11.040057583478504"><ele>672.0</ele><time>2026-04-07T14:00:35Z</time></trkpt><trkpt lat="45.55858600293474" lon="11.040153063241153"><ele>674.0</ele><time>2026-04-07T14:00:36Z</time></trkpt><trkpt lat="45.55867002578042" lon="11.04026143125297"><ele>674.5</ele><time>2026-04-07T14:00:37Z</time></trkpt><trkpt lat="45.558748569610096" lon="11.040398277735962"><ele>675.0</ele><time>2026-04-07T14:00:38Z</time></trkpt><trkpt lat="45.55881340432608" lon="11.040558836926282"><ele>675.5</ele><time>2026-04-07T14:00:39Z</time></trkpt><trkpt lat="45.55887496719867" lon="11.040731179369685"><ele>676.0</ele><time>2026-04-07T14:00:40Z</time></trkpt><trkpt lat="45.5589325060599" lon="11.040881496505527"><ele>676.0</ele><time>2026-04-07T14:00:41Z</time></trkpt><trkpt lat="45.559004115105964" lon="11.041029450590424"><ele>676.0</ele><time>2026-04-07T14:00:42Z</time></trkpt><trkpt lat="45.55909639468995" lon="11.0411661361109"><ele>676.0</ele><time>2026-04-07T14:00:43Z</time></trkpt><trkpt lat="45.55921658331153" lon="11.041326102234171"><ele>676.0</ele><time>2026-04-07T14:00:44Z</time></trkpt><trkpt lat="45.55935040518207" lon="11.041504213604025"><ele>679.0</ele><time>2026-04-07T14:00:45Z</time></trkpt><trkpt lat="45.559545741651085" lon="11.041544184824613"><ele>682.0</ele><time>2026-04-07T14:00:46Z</time></trkpt><trkpt lat="45.55966771904446" lon="11.04164498153303"><ele>685.0</ele><time>2026-04-07T14:00:47Z</time></trkpt><trkpt lat="45.5597822825086" lon="11.041741671999365"><ele>685.0</ele><time>2026-04-07T14:00:48Z</time></trkpt><trkpt lat="45.5599328095378" lon="11.041824968784033"><ele>685.0</ele><time>2026-04-07T14:00:49Z</time></trkpt><trkpt lat="45.56012620083457" lon="11.041887435456692"><ele>685.0</ele><time>2026-04-07T14:00:50Z</time></trkpt><trkpt lat="45.56031976611724" lon="11.041944718176712"><ele>681.3333333333334</ele><time>2026-04-07T14:00:51Z</time></trkpt><trkpt lat="45.56047804782224" lon="11.042002513528713"><ele>677.6666666666666</ele><time>2026-04-07T14:00:52Z</time></trkpt><trkpt lat="45.560630912514185" lon="11.04206125159077"><ele>674.0</ele><time>2026-04-07T14:00:53Z</time></trkpt><trkpt lat="45.56076964067846" lon="11.042107394677927"><ele>674.0</ele><time>2026-04-07T14:00:54Z</time></trkpt><trkpt lat="45.56089292879576" lon="11.042152172935172"><ele>674.0</ele><time>2026-04-07T14:00:55Z</time></trkpt><trkpt lat="45.56101112049186" lon="11.042204576326911"><ele>674.0</ele><time>2026-04-07T14:00:56Z</time></trkpt><trkpt lat="45.56113080039373" lon="11.042276086900273"><ele>674.0</ele><time>2026-04-07T14:00:57Z</time></trkpt><trkpt lat="45.561237225291315" lon="11.04235180832656"><ele>674.8000000000001</ele><time>2026-04-07T14:00:58Z</time></trkpt><trkpt lat="45.56132827155119" lon="11.04241943255306"><ele>675.6</ele><time>2026-04-07T14:00:59Z</time></trkpt><trkpt lat="45.561425044250235" lon="11.042471048758944"><ele>676.4</ele><time>2026-04-07T14:01:00Z</time></trkpt><trkpt lat="45.561536139891636" lon="11.042502316834316"><ele>677.2</ele><time>2026-04-07T14:01:01Z</time></trkpt><trkpt lat="45.56165110433948" lon="11.042504905137724"><ele>678.0</ele><time>2026-04-07T14:01:02Z</time></trkpt><trkpt lat="45.561769751999584" lon="11.042459482058058"><ele>678.0</ele><time>2026-04-07T14:01:03Z</time></trkpt><trkpt lat="45.56187450265992" lon="11.04238901590039"><ele>678.0</ele><time>2026-04-07T14:01:03.999Z</time></trkpt><trkpt lat="45.56196860012774" lon="11.042321236918696"><ele>678.0</ele><time>2026-04-07T14:01:04.999Z</time></trkpt><trkpt lat="45.56206167911576" lon="11.042275808790928"><ele>678.0</ele><time>2026-04-07T14:01:05.999Z</time></trkpt><trkpt lat="45.56216955440562" lon="11.042256947917258"><ele>678.0</ele><time>2026-04-07T14:01:06.999Z</time></trkpt><trkpt lat="45.56228556857757" lon="11.04223094254821"><ele>681.5</ele><time>2026-04-07T14:01:07.999Z</time></trkpt><trkpt lat="45.56241192670286" lon="11.042221813220927"><ele>685.0</ele><time>2026-04-07T14:01:08.999Z</time></trkpt><trkpt lat="45.56254790746682" lon="11.042234599373426"><ele>688.5</ele><time>2026-04-07T14:01:09.999Z</time></trkpt><trkpt lat="45.5626847700215" lon="11.04223057905914"><ele>692.0</ele><time>2026-04-07T14:01:10.999Z</time></trkpt><trkpt lat="45.56281128833205" lon="11.042241914964544"><ele>691.5</ele><time>2026-04-07T14:01:11.999Z</time></trkpt><trkpt lat="45.56294195596547" lon="11.042256211454578"><ele>691.0</ele><time>2026-04-07T14:01:12.999Z</time></trkpt><trkpt lat="45.56306850897088" lon="11.042262128297137"><ele>690.5</ele><time>2026-04-07T14:01:13.999Z</time></trkpt><trkpt lat="45.56320066344927" lon="11.042268329019292"><ele>690.0</ele><time>2026-04-07T14:01:14.999Z</time></trkpt><trkpt lat="45.56332394994891" lon="11.042280706068665"><ele>690.0</ele><time>2026-04-07T14:01:15.999Z</time></trkpt><trkpt lat="45.56345152664223" lon="11.042244012438754"><ele>690.0</ele><time>2026-04-07T14:01:16.999Z</time></trkpt><trkpt lat="45.56357849196467" lon="11.042175245799703"><ele>690.0</ele><time>2026-04-07T14:01:17.999Z</time></trkpt><trkpt lat="45.5636988147571" lon="11.042066824368"><ele>690.0</ele><time>2026-04-07T14:01:18.999Z</time></trkpt><trkpt lat="45.56381006663732" lon="11.041940512633367"><ele>687.0</ele><time>2026-04-07T14:01:19.999Z</time></trkpt><trkpt lat="45.56391242924442" lon="11.041809329531594"><ele>684.0</ele><time>2026-04-07T14:01:20.999Z</time></trkpt><trkpt lat="45.56401971408448" lon="11.041691323176794"><ele>681.0</ele><time>2026-04-07T14:01:21.999Z</time></trkpt><trkpt lat="45.564141397529085" lon="11.041614992220767"><ele>678.0</ele><time>2026-04-07T14:01:22.999Z</time></trkpt><trkpt lat="45.56427401924073" lon="11.04156186392815"><ele>678.0</ele><time>2026-04-07T14:01:23.999Z</time></trkpt><trkpt lat="45.56441828085463" lon="11.041525343002908"><ele>678.0</ele><time>2026-04-07T14:01:24.999Z</time></trkpt><trkpt lat="45.564561951825816" lon="11.041486253715092"><ele>678.0</ele><time>2026-04-07T14:01:25.999Z</time></trkpt><trkpt lat="45.56469394922707" lon="11.041444755683102"><ele>678.0</ele><time>2026-04-07T14:01:26.999Z</time></trkpt><trkpt lat="45.564812795367054" lon="11.041407017006758"><ele>681.25</ele><time>2026-04-07T14:01:27.999Z</time></trkpt><trkpt lat="45.564927341009586" lon="11.041368489940885"><ele>684.5</ele><time>2026-04-07T14:01:28.999Z</time></trkpt><trkpt lat="45.56504088900037" lon="11.041336900067977"><ele>687.75</ele><time>2026-04-07T14:01:29.999Z</time></trkpt><trkpt lat="45.565157631626796" lon="11.041307064299804"><ele>691.0</ele><time>2026-04-07T14:01:30.999Z</time></trkpt><trkpt lat="45.56527517085393" lon="11.041280860446873"><ele>693.0</ele><time>2026-04-07T14:01:31.999Z</time></trkpt><trkpt lat="45.56540648773596" lon="11.041258239015368"><ele>695.0</ele><time>2026-04-07T14:01:32.999Z</time></trkpt><trkpt lat="45.56554576086177" lon="11.041233367914167"><ele>697.0</ele><time>2026-04-07T14:01:33.999Z</time></trkpt><trkpt lat="45.56568050679109" lon="11.041220817273157"><ele>699.0</ele><time>2026-04-07T14:01:34.999Z</time></trkpt><trkpt lat="45.56581373119456" lon="11.041219243548566"><ele>699.0</ele><time>2026-04-07T14:01:35.999Z</time></trkpt><trkpt lat="45.5659508119644" lon="11.041224654715405"><ele>699.0</ele><time>2026-04-07T14:01:36.999Z</time></trkpt><trkpt lat="45.56608313805727" lon="11.041233708925452"><ele>699.0</ele><time>2026-04-07T14:01:37.999Z</time></trkpt><trkpt lat="45.5662113758827" lon="11.041240828257951"><ele>699.0</ele><time>2026-04-07T14:01:38.999Z</time></trkpt><trkpt lat="45.56633547440541" lon="11.041249017537497"><ele>702.0</ele><time>2026-04-07T14:01:39.999Z</time></trkpt><trkpt lat="45.56646059245241" lon="11.041259845280866"><ele>705.0</ele><time>2026-04-07T14:01:40.999Z</time></trkpt><trkpt lat="45.566589392797916" lon="11.041271991917585"><ele>708.0</ele><time>2026-04-07T14:01:41.999Z</time></trkpt><trkpt lat="45.56672435980726" lon="11.041287765184896"><ele>711.0</ele><time>2026-04-07T14:01:42.999Z</time></trkpt><trkpt lat="45.5668512965135" lon="11.04132972606946"><ele>711.0</ele><time>2026-04-07T14:01:43.999Z</time></trkpt><trkpt lat="45.56695431501514" lon="11.041415569432226"><ele>711.0</ele><time>2026-04-07T14:01:44.999Z</time></trkpt><trkpt lat="45.56705840080233" lon="11.041499734202567"><ele>711.0</ele><time>2026-04-07T14:01:45.999Z</time></trkpt><trkpt lat="45.56715694656012" lon="11.04159685123403"><ele>711.0</ele><time>2026-04-07T14:01:46.999Z</time></trkpt><trkpt lat="45.5672633678334" lon="11.041689757636805"><ele>711.5</ele><time>2026-04-07T14:01:47.999Z</time></trkpt><trkpt lat="45.56736413528116" lon="11.0418095985003"><ele>712.0</ele><time>2026-04-07T14:01:48.999Z</time></trkpt><trkpt lat="45.56747753896479" lon="11.041938496337588"><ele>712.5</ele><time>2026-04-07T14:01:49.999Z</time></trkpt><trkpt lat="45.567599646295825" lon="11.042076712242233"><ele>713.0</ele><time>2026-04-07T14:01:50.999Z</time></trkpt><trkpt lat="45.567734315004635" lon="11.0422390999551"><ele>713.6666666666666</ele><time>2026-04-07T14:01:51.999Z</time></trkpt><trkpt lat="45.56788470415298" lon="11.042437228574856"><ele>714.3333333333334</ele><time>2026-04-07T14:01:52.999Z</time></trkpt><trkpt lat="45.568046159705354" lon="11.042622930738615"><ele>715.0</ele><time>2026-04-07T14:01:53.999Z</time></trkpt><trkpt lat="45.56818726799051" lon="11.042787151144218"><ele>715.0</ele><time>2026-04-07T14:01:54.999Z</time></trkpt><trkpt lat="45.568335983439866" lon="11.042960224706501"><ele>715.0</ele><time>2026-04-07T14:01:55.999Z</time></trkpt><trkpt lat="45.5685040244904" lon="11.043155789242103"><ele>715.0</ele><time>2026-04-07T14:01:56.999Z</time></trkpt><trkpt lat="45.568678539142354" lon="11.043349011201308"><ele>715.3333333333334</ele><time>2026-04-07T14:01:57.999Z</time></trkpt><trkpt lat="45.56883284568742" lon="11.04353942251192"><ele>715.6666666666666</ele><time>2026-04-07T14:01:58.999Z</time></trkpt><trkpt lat="45.56898360254906" lon="11.043699718884413"><ele>716.0</ele><time>2026-04-07T14:01:59.999Z</time></trkpt><trkpt lat="45.56913660546465" lon="11.043879444275726"><ele>716.0</ele><time>2026-04-07T14:02:00.999Z</time></trkpt><trkpt lat="45.569290897099485" lon="11.044049452060056"><ele>716.0</ele><time>2026-04-07T14:02:01.999Z</time></trkpt><trkpt lat="45.56945198688489" lon="11.04420351129208"><ele>716.0</ele><time>2026-04-07T14:02:02.999Z</time></trkpt><trkpt lat="45.569630027046635" lon="11.04432508649655"><ele>714.0</ele><time>2026-04-07T14:02:03.998Z</time></trkpt><trkpt lat="45.56980844368974" lon="11.04443081475728"><ele>712.0</ele><time>2026-04-07T14:02:04.998Z</time></trkpt><trkpt lat="45.56999820278859" lon="11.044511274362682"><ele>710.0</ele><time>2026-04-07T14:02:05.998Z</time></trkpt><trkpt lat="45.57018650440695" lon="11.044577218894615"><ele>710.0</ele><time>2026-04-07T14:02:06.998Z</time></trkpt><trkpt lat="45.570369869317005" lon="11.044626532097773"><ele>710.0</ele><time>2026-04-07T14:02:07.998Z</time></trkpt><trkpt lat="45.5705401211605" lon="11.044659235168872"><ele>710.0</ele><time>2026-04-07T14:02:08.998Z</time></trkpt><trkpt lat="45.57070850841158" lon="11.044671537292292"><ele>710.0</ele><time>2026-04-07T14:02:09.998Z</time></trkpt><trkpt lat="45.5708782064068" lon="11.044632255094076"><ele>710.0</ele><time>2026-04-07T14:02:10.998Z</time></trkpt><trkpt lat="45.57104977286175" lon="11.044543400594947"><ele>710.0</ele><time>2026-04-07T14:02:11.998Z</time></trkpt><trkpt lat="45.571197756380165" lon="11.044400389842004"><ele>708.0</ele><time>2026-04-07T14:02:12.998Z</time></trkpt><trkpt lat="45.571320298757264" lon="11.044209699806204"><ele>706.0</ele><time>2026-04-07T14:02:13.998Z</time></trkpt><trkpt lat="45.571415465122016" lon="11.044001860844663"><ele>704.0</ele><time>2026-04-07T14:02:14.998Z</time></trkpt><trkpt lat="45.57149277099711" lon="11.04379663191937"><ele>704.0</ele><time>2026-04-07T14:02:15.998Z</time></trkpt><trkpt lat="45.57155843086447" lon="11.043613465561974"><ele>704.0</ele><time>2026-04-07T14:02:16.998Z</time></trkpt><trkpt lat="45.57162598784794" lon="11.043447647401354"><ele>704.0</ele><time>2026-04-07T14:02:17.998Z</time></trkpt><trkpt lat="45.5716903245079" lon="11.043291823546499"><ele>704.0</ele><time>2026-04-07T14:02:18.998Z</time></trkpt><trkpt lat="45.57175270379306" lon="11.043140457919032"><ele>703.75</ele><time>2026-04-07T14:02:19.998Z</time></trkpt><trkpt lat="45.57181059068713" lon="11.042977342015218"><ele>703.5</ele><time>2026-04-07T14:02:20.998Z</time></trkpt><trkpt lat="45.57185928715097" lon="11.042801443979787"><ele>703.25</ele><time>2026-04-07T14:02:21.998Z</time></trkpt><trkpt lat="45.57190065863209" lon="11.04260283356355"><ele>703.0</ele><time>2026-04-07T14:02:22.998Z</time></trkpt><trkpt lat="45.57192528845084" lon="11.042378966156786"><ele>703.0</ele><time>2026-04-07T14:02:23.998Z</time></trkpt><trkpt lat="45.571937417847195" lon="11.042138588100366"><ele>703.0</ele><time>2026-04-07T14:02:24.998Z</time></trkpt><trkpt lat="45.571938425310655" lon="11.041905890013373"><ele>703.0</ele><time>2026-04-07T14:02:25.998Z</time></trkpt><trkpt lat="45.57194002728061" lon="11.041698754756924"><ele>703.0</ele><time>2026-04-07T14:02:26.998Z</time></trkpt><trkpt lat="45.571955157520435" lon="11.041505393900874"><ele>703.0</ele><time>2026-04-07T14:02:27.998Z</time></trkpt><trkpt lat="45.57199693536917" lon="11.041319056956953"><ele>703.0</ele><time>2026-04-07T14:02:29Z</time></trkpt><trkpt lat="45.57206183699595" lon="11.041144167760942"><ele>703.0</ele><time>2026-04-07T14:02:30Z</time></trkpt><trkpt lat="45.57214813474762" lon="11.040985412781293"><ele>702.5999999999999</ele><time>2026-04-07T14:02:31Z</time></trkpt><trkpt lat="45.57223279790636" lon="11.040849769872109"><ele>702.1999999999999</ele><time>2026-04-07T14:02:32Z</time></trkpt><trkpt lat="45.572318566755115" lon="11.040744859117725"><ele>701.8</ele><time>2026-04-07T14:02:33Z</time></trkpt><trkpt lat="45.57239765262376" lon="11.040660700237868"><ele>701.4</ele><time>2026-04-07T14:02:34Z</time></trkpt><trkpt lat="45.57247050636553" lon="11.040597403759053"><ele>701.0</ele><time>2026-04-07T14:02:35Z</time></trkpt><trkpt lat="45.5725372928547" lon="11.040558477625815"><ele>700.5999999999999</ele><time>2026-04-07T14:02:36Z</time></trkpt><trkpt lat="45.5726166476556" lon="11.040546875874073"><ele>700.2</ele><time>2026-04-07T14:02:37Z</time></trkpt><trkpt lat="45.572700841716404" lon="11.04061397058614"><ele>699.8</ele><time>2026-04-07T14:02:38Z</time></trkpt><trkpt lat="45.572817935747985" lon="11.040638302827395"><ele>699.4000000000001</ele><time>2026-04-07T14:02:39Z</time></trkpt><trkpt lat="45.57294403871748" lon="11.040654024379064"><ele>699.0</ele><time>2026-04-07T14:02:40Z</time></trkpt><trkpt lat="45.573080523207636" lon="11.040697440227623"><ele>702.5</ele><time>2026-04-07T14:02:41Z</time></trkpt><trkpt lat="45.573214751457186" lon="11.040762564298001"><ele>706.0</ele><time>2026-04-07T14:02:42Z</time></trkpt><trkpt lat="45.57335169818846" lon="11.040825038859978"><ele>709.5</ele><time>2026-04-07T14:02:43Z</time></trkpt><trkpt lat="45.57348305682266" lon="11.04087525280378"><ele>713.0</ele><time>2026-04-07T14:02:44Z</time></trkpt><trkpt lat="45.573610386952716" lon="11.040931380512191"><ele>715.5</ele><time>2026-04-07T14:02:45Z</time></trkpt><trkpt lat="45.573730507933846" lon="11.040995193198045"><ele>718.0</ele><time>2026-04-07T14:02:46Z</time></trkpt><trkpt lat="45.57385397192611" lon="11.041045299649792"><ele>720.5</ele><time>2026-04-07T14:02:47Z</time></trkpt><trkpt lat="45.57397666796441" lon="11.041085960688676"><ele>723.0</ele><time>2026-04-07T14:02:48Z</time></trkpt><trkpt lat="45.57407927762162" lon="11.041120344862557"><ele>723.0</ele><time>2026-04-07T14:02:49Z</time></trkpt><trkpt lat="45.57416917780564" lon="11.041142036089678"><ele>723.0</ele><time>2026-04-07T14:02:50Z</time></trkpt><trkpt lat="45.57426260015043" lon="11.041153652751944"><ele>723.0</ele><time>2026-04-07T14:02:51Z</time></trkpt><trkpt lat="45.57435468748744" lon="11.041156741449463"><ele>723.0</ele><time>2026-04-07T14:02:52Z</time></trkpt><trkpt lat="45.57444640073465" lon="11.041144668788322"><ele>723.0</ele><time>2026-04-07T14:02:53Z</time></trkpt><trkpt lat="45.574534924693594" lon="11.041119908728819"><ele>722.6666666666666</ele><time>2026-04-07T14:02:54Z</time></trkpt><trkpt lat="45.57460917992813" lon="11.041107319981137"><ele>722.3333333333334</ele><time>2026-04-07T14:02:55Z</time></trkpt><trkpt lat="45.57468988732174" lon="11.041121138078065"><ele>722.0</ele><time>2026-04-07T14:02:57Z</time></trkpt><trkpt lat="45.57469005652509" lon="11.04128354441116"><ele>721.6666666666667</ele><time>2026-04-07T14:02:59Z</time></trkpt><trkpt lat="45.574707303855746" lon="11.04141476065887"><ele>721.3333333333334</ele><time>2026-04-07T14:03:00Z</time></trkpt><trkpt lat="45.57471025765349" lon="11.041524664830654"><ele>721.0</ele><time>2026-04-07T14:03:01Z</time></trkpt><trkpt lat="45.574761455486296" lon="11.041638564606435"><ele>723.0</ele><time>2026-04-07T14:03:03Z</time></trkpt><trkpt lat="45.57482182594102" lon="11.041681250509766"><ele>725.0</ele><time>2026-04-07T14:03:04Z</time></trkpt><trkpt lat="45.574907297978086" lon="11.041730164894544"><ele>727.0</ele><time>2026-04-07T14:03:05Z</time></trkpt><trkpt lat="45.57500884673861" lon="11.041800505059975"><ele>729.0</ele><time>2026-04-07T14:03:06Z</time></trkpt><trkpt lat="45.57512545243821" lon="11.041878668897738"><ele>731.0</ele><time>2026-04-07T14:03:07Z</time></trkpt><trkpt lat="45.57523802052372" lon="11.041950895459143"><ele>731.0</ele><time>2026-04-07T14:03:08Z</time></trkpt><trkpt lat="45.57534390431752" lon="11.04201675952346"><ele>731.0</ele><time>2026-04-07T14:03:09Z</time></trkpt><trkpt lat="45.575449394209315" lon="11.042071172707045"><ele>731.0</ele><time>2026-04-07T14:03:10Z</time></trkpt><trkpt lat="45.575559002553014" lon="11.042107446477393"><ele>731.0</ele><time>2026-04-07T14:03:11Z</time></trkpt><trkpt lat="45.575653123007555" lon="11.042130044980793"><ele>731.0</ele><time>2026-04-07T14:03:12Z</time></trkpt><trkpt lat="45.57574092296867" lon="11.042143578756418"><ele>730.8</ele><time>2026-04-07T14:03:13Z</time></trkpt><trkpt lat="45.575839762320854" lon="11.042158081708278"><ele>730.5999999999999</ele><time>2026-04-07T14:03:13.999Z</time></trkpt><trkpt lat="45.575938189596854" lon="11.042175629359573"><ele>730.4</ele><time>2026-04-07T14:03:14.999Z</time></trkpt><trkpt lat="45.57602892568991" lon="11.04219736196334"><ele>730.2</ele><time>2026-04-07T14:03:15.999Z</time></trkpt><trkpt lat="45.57611499480329" lon="11.042236870891712"><ele>730.0</ele><time>2026-04-07T14:03:16.999Z</time></trkpt><trkpt lat="45.57620044018124" lon="11.042274492478214"><ele>730.3333333333334</ele><time>2026-04-07T14:03:17.999Z</time></trkpt><trkpt lat="45.576282997405976" lon="11.042311677546152"><ele>730.6666666666667</ele><time>2026-04-07T14:03:18.999Z</time></trkpt><trkpt lat="45.57636157462938" lon="11.042358890719182"><ele>731.0</ele><time>2026-04-07T14:03:19.999Z</time></trkpt><trkpt lat="45.576440612820896" lon="11.042419399227466"><ele>731.3333333333334</ele><time>2026-04-07T14:03:20.999Z</time></trkpt><trkpt lat="45.576513692071245" lon="11.04249355803494"><ele>731.6666666666666</ele><time>2026-04-07T14:03:21.999Z</time></trkpt><trkpt lat="45.57658487928231" lon="11.042587083394524"><ele>732.0</ele><time>2026-04-07T14:03:22.999Z</time></trkpt><trkpt lat="45.57665254323538" lon="11.042701702967758"><ele>734.2</ele><time>2026-04-07T14:03:23.999Z</time></trkpt><trkpt lat="45.57671342817272" lon="11.042824195582778"><ele>736.4000000000001</ele><time>2026-04-07T14:03:24.999Z</time></trkpt><trkpt lat="45.57677655049944" lon="11.042957539552933"><ele>738.5999999999999</ele><time>2026-04-07T14:03:25.999Z</time></trkpt><trkpt lat="45.576843999657946" lon="11.043072616728976"><ele>740.8</ele><time>2026-04-07T14:03:26.999Z</time></trkpt><trkpt lat="45.57691297606551" lon="11.043164421466852"><ele>743.0</ele><time>2026-04-07T14:03:27.999Z</time></trkpt><trkpt lat="45.576992753313185" lon="11.043245355301723"><ele>742.5999999999999</ele><time>2026-04-07T14:03:28.999Z</time></trkpt><trkpt lat="45.577078569724755" lon="11.043308670012859"><ele>742.1999999999999</ele><time>2026-04-07T14:03:29.999Z</time></trkpt><trkpt lat="45.57716464147404" lon="11.043368728481537"><ele>741.8</ele><time>2026-04-07T14:03:30.999Z</time></trkpt><trkpt lat="45.57725171907825" lon="11.043430961604333"><ele>741.4</ele><time>2026-04-07T14:03:31.999Z</time></trkpt><trkpt lat="45.57733915211274" lon="11.043483286417981"><ele>741.0</ele><time>2026-04-07T14:03:32.999Z</time></trkpt><trkpt lat="45.57743425632794" lon="11.043520412386851"><ele>741.0</ele><time>2026-04-07T14:03:33.999Z</time></trkpt><trkpt lat="45.577535922531965" lon="11.043544104972586"><ele>741.0</ele><time>2026-04-07T14:03:34.999Z</time></trkpt><trkpt lat="45.57764070537412" lon="11.04356159942813"><ele>741.0</ele><time>2026-04-07T14:03:35.999Z</time></trkpt><trkpt lat="45.57774956569455" lon="11.04358305567438"><ele>741.0</ele><time>2026-04-07T14:03:36.999Z</time></trkpt><trkpt lat="45.577856459254896" lon="11.043600297117681"><ele>741.0</ele><time>2026-04-07T14:03:37.999Z</time></trkpt><trkpt lat="45.57794816079462" lon="11.043603385588872"><ele>740.5</ele><time>2026-04-07T14:03:38.999Z</time></trkpt><trkpt lat="45.57804326525947" lon="11.043601685868364"><ele>740.0</ele><time>2026-04-07T14:03:39.999Z</time></trkpt><trkpt lat="45.57812983575603" lon="11.04360403494501"><ele>739.5</ele><time>2026-04-07T14:03:40.999Z</time></trkpt><trkpt lat="45.57821087438489" lon="11.043604376502778"><ele>739.0</ele><time>2026-04-07T14:03:41.999Z</time></trkpt><trkpt lat="45.57827884844284" lon="11.043604889979052"><ele>738.5</ele><time>2026-04-07T14:03:42.999Z</time></trkpt><trkpt lat="45.578348163527544" lon="11.043599771992772"><ele>738.0</ele><time>2026-04-07T14:03:43.999Z</time></trkpt><trkpt lat="45.57842657651679" lon="11.043598980582672"><ele>738.0</ele><time>2026-04-07T14:03:45.999Z</time></trkpt><trkpt lat="45.57848970531596" lon="11.04359198177738"><ele>738.0</ele><time>2026-04-07T14:03:47.999Z</time></trkpt><trkpt lat="45.578548620655724" lon="11.043557338441245"><ele>738.0</ele><time>2026-04-07T14:03:49.999Z</time></trkpt><trkpt lat="45.57861895737076" lon="11.043486318779154"><ele>738.0</ele><time>2026-04-07T14:03:52.999Z</time></trkpt><trkpt lat="45.57868406374766" lon="11.043441712814117"><ele>738.0</ele><time>2026-04-07T14:03:55.999Z</time></trkpt><trkpt lat="45.578743366226355" lon="11.043354426793373"><ele>738.0</ele><time>2026-04-07T14:03:58.999Z</time></trkpt><trkpt lat="45.57884141375308" lon="11.043229565413402"><ele>737.5</ele><time>2026-04-07T14:04:00.999Z</time></trkpt><trkpt lat="45.57891429775571" lon="11.043168689205002"><ele>737.0</ele><time>2026-04-07T14:04:01.999Z</time></trkpt><trkpt lat="45.578980712474475" lon="11.043106213385839"><ele>736.5</ele><time>2026-04-07T14:04:02.999Z</time></trkpt><trkpt lat="45.57904981079349" lon="11.043042571602706"><ele>736.0</ele><time>2026-04-07T14:04:03.999Z</time></trkpt><trkpt lat="45.579122082634" lon="11.042973669671722"><ele>735.5</ele><time>2026-04-07T14:04:04.999Z</time></trkpt><trkpt lat="45.57920089212936" lon="11.042901584784715"><ele>735.0</ele><time>2026-04-07T14:04:05.999Z</time></trkpt><trkpt lat="45.57928303917424" lon="11.042827063027833"><ele>735.0</ele><time>2026-04-07T14:04:06.999Z</time></trkpt><trkpt lat="45.5793536251208" lon="11.042758426977283"><ele>735.0</ele><time>2026-04-07T14:04:07.999Z</time></trkpt><trkpt lat="45.57941653407342" lon="11.042695047249833"><ele>735.0</ele><time>2026-04-07T14:04:08.999Z</time></trkpt><trkpt lat="45.57948632232694" lon="11.04266836836165"><ele>735.0</ele><time>2026-04-07T14:04:09.999Z</time></trkpt><trkpt lat="45.579565374908725" lon="11.042675461603592"><ele>735.0</ele><time>2026-04-07T14:04:10.999Z</time></trkpt><trkpt lat="45.57970369255252" lon="11.042836026912953"><ele>735.75</ele><time>2026-04-07T14:04:12.998Z</time></trkpt><trkpt lat="45.57978169090208" lon="11.04294029546651"><ele>736.5</ele><time>2026-04-07T14:04:13.998Z</time></trkpt><trkpt lat="45.57989915175124" lon="11.043020625475496"><ele>737.25</ele><time>2026-04-07T14:04:14.998Z</time></trkpt><trkpt lat="45.58005176149986" lon="11.043045168334734"><ele>738.0</ele><time>2026-04-07T14:04:15.998Z</time></trkpt><trkpt lat="45.580227095065766" lon="11.043021811945243"><ele>737.0</ele><time>2026-04-07T14:04:16.998Z</time></trkpt><trkpt lat="45.580425210899485" lon="11.042986559147066"><ele>736.0</ele><time>2026-04-07T14:04:17.998Z</time></trkpt><trkpt lat="45.58063255325046" lon="11.042960996681389"><ele>735.0</ele><time>2026-04-07T14:04:18.998Z</time></trkpt><trkpt lat="45.58083295371275" lon="11.042960725066251"><ele>735.0</ele><time>2026-04-07T14:04:19.998Z</time></trkpt><trkpt lat="45.581037457022916" lon="11.043036090018736"><ele>735.0</ele><time>2026-04-07T14:04:20.998Z</time></trkpt><trkpt lat="45.581251480985955" lon="11.043123791699406"><ele>735.0</ele><time>2026-04-07T14:04:21.998Z</time></trkpt><trkpt lat="45.581462374831304" lon="11.043204953430513"><ele>735.6666666666666</ele><time>2026-04-07T14:04:22.998Z</time></trkpt><trkpt lat="45.58167832507241" lon="11.043296568614169"><ele>736.3333333333333</ele><time>2026-04-07T14:04:23.998Z</time></trkpt><trkpt lat="45.581891646702125" lon="11.043376213708532"><ele>737.0</ele><time>2026-04-07T14:04:24.998Z</time></trkpt><trkpt lat="45.582095780019124" lon="11.043449828445898"><ele>731.3333333333333</ele><time>2026-04-07T14:04:25.998Z</time></trkpt><trkpt lat="45.58229159552576" lon="11.043531015532409"><ele>725.6666666666666</ele><time>2026-04-07T14:04:26.998Z</time></trkpt><trkpt lat="45.582480789491974" lon="11.043606350993503"><ele>720.0</ele><time>2026-04-07T14:04:27.998Z</time></trkpt><trkpt lat="45.58266044639748" lon="11.0436769096222"><ele>720.0</ele><time>2026-04-07T14:04:28.998Z</time></trkpt><trkpt lat="45.582828210708584" lon="11.043748381959734"><ele>720.0</ele><time>2026-04-07T14:04:29.998Z</time></trkpt><trkpt lat="45.58297358167227" lon="11.04381898398084"><ele>720.0</ele><time>2026-04-07T14:04:30.998Z</time></trkpt><trkpt lat="45.58309926552704" lon="11.043923172090867"><ele>719.0</ele><time>2026-04-07T14:04:31.998Z</time></trkpt><trkpt lat="45.58321232432589" lon="11.044073537227277"><ele>718.0</ele><time>2026-04-07T14:04:32.998Z</time></trkpt><trkpt lat="45.58330676988742" lon="11.044288454669822"><ele>717.0</ele><time>2026-04-07T14:04:33.998Z</time></trkpt><trkpt lat="45.58339089300118" lon="11.044515559482793"><ele>714.6666666666666</ele><time>2026-04-07T14:04:35Z</time></trkpt><trkpt lat="45.58346239858383" lon="11.044745551969141"><ele>712.3333333333333</ele><time>2026-04-07T14:04:36Z</time></trkpt><trkpt lat="45.58354001078472" lon="11.044952850296767"><ele>710.0</ele><time>2026-04-07T14:04:37Z</time></trkpt><trkpt lat="45.583617049534624" lon="11.045150917975782"><ele>709.0</ele><time>2026-04-07T14:04:38Z</time></trkpt><trkpt lat="45.58374079737853" lon="11.045329143760002"><ele>708.0</ele><time>2026-04-07T14:04:39Z</time></trkpt><trkpt lat="45.583891483445385" lon="11.045473183096263"><ele>707.0</ele><time>2026-04-07T14:04:40Z</time></trkpt><trkpt lat="45.58405032190937" lon="11.045579134826985"><ele>707.0</ele><time>2026-04-07T14:04:41Z</time></trkpt><trkpt lat="45.584176812708705" lon="11.045700385624826"><ele>707.0</ele><time>2026-04-07T14:04:42Z</time></trkpt><trkpt lat="45.584288484252696" lon="11.04582317794251"><ele>707.0</ele><time>2026-04-07T14:04:43Z</time></trkpt><trkpt lat="45.58436422278179" lon="11.045984122858872"><ele>707.0</ele><time>2026-04-07T14:04:44Z</time></trkpt><trkpt lat="45.58440022979109" lon="11.046179303218986"><ele>702.3333333333333</ele><time>2026-04-07T14:04:45Z</time></trkpt><trkpt lat="45.58439220971498" lon="11.046404132329291"><ele>697.6666666666666</ele><time>2026-04-07T14:04:46Z</time></trkpt><trkpt lat="45.58436517031161" lon="11.046674874808467"><ele>693.0</ele><time>2026-04-07T14:04:47Z</time></trkpt><trkpt lat="45.58435641653704" lon="11.046964179264767"><ele>690.3333333333334</ele><time>2026-04-07T14:04:48Z</time></trkpt><trkpt lat="45.58437613631026" lon="11.047262806123507"><ele>687.6666666666667</ele><time>2026-04-07T14:04:49Z</time></trkpt><trkpt lat="45.58444132805938" lon="11.047579695248473"><ele>685.0</ele><time>2026-04-07T14:04:50Z</time></trkpt><trkpt lat="45.58452145258941" lon="11.04789028334492"><ele>691.5</ele><time>2026-04-07T14:04:51Z</time></trkpt><trkpt lat="45.58456776386471" lon="11.04822634810058"><ele>698.0</ele><time>2026-04-07T14:04:52Z</time></trkpt><trkpt lat="45.584640093820056" lon="11.048531817018505"><ele>698.0</ele><time>2026-04-07T14:04:53Z</time></trkpt><trkpt lat="45.58469073505289" lon="11.048835677470683"><ele>698.0</ele><time>2026-04-07T14:04:54Z</time></trkpt><trkpt lat="45.58473437847153" lon="11.049098318324258"><ele>698.0</ele><time>2026-04-07T14:04:55Z</time></trkpt><trkpt lat="45.584775336153214" lon="11.04932953730534"><ele>691.6666666666666</ele><time>2026-04-07T14:04:56Z</time></trkpt><trkpt lat="45.58484186599236" lon="11.049547053086748"><ele>685.3333333333334</ele><time>2026-04-07T14:04:57Z</time></trkpt><trkpt lat="45.584940648791836" lon="11.04974168978969"><ele>679.0</ele><time>2026-04-07T14:04:58Z</time></trkpt><trkpt lat="45.58504616836909" lon="11.049900423855108"><ele>673.75</ele><time>2026-04-07T14:04:59Z</time></trkpt><trkpt lat="45.585145251565514" lon="11.050027372570176"><ele>668.5</ele><time>2026-04-07T14:05:00Z</time></trkpt><trkpt lat="45.58525772145219" lon="11.050097654744638"><ele>663.25</ele><time>2026-04-07T14:05:01Z</time></trkpt><trkpt lat="45.58538887647458" lon="11.05010487747929"><ele>658.0</ele><time>2026-04-07T14:05:02Z</time></trkpt><trkpt lat="45.585524478206004" lon="11.050042501247582"><ele>668.6666666666667</ele><time>2026-04-07T14:05:03Z</time></trkpt><trkpt lat="45.58567204048188" lon="11.049915870097843"><ele>679.3333333333334</ele><time>2026-04-07T14:05:04Z</time></trkpt><trkpt lat="45.58583547375718" lon="11.049805130378434"><ele>690.0</ele><time>2026-04-07T14:05:05Z</time></trkpt><trkpt lat="45.586025399241805" lon="11.049721798130255"><ele>686.6666666666666</ele><time>2026-04-07T14:05:06Z</time></trkpt><trkpt lat="45.586220951382295" lon="11.049669822284109"><ele>683.3333333333333</ele><time>2026-04-07T14:05:07Z</time></trkpt><trkpt lat="45.58642500660581" lon="11.049657785382164"><ele>680.0</ele><time>2026-04-07T14:05:08Z</time></trkpt><trkpt lat="45.58663600635999" lon="11.04968335319998"><ele>680.0</ele><time>2026-04-07T14:05:09Z</time></trkpt><trkpt lat="45.58684074482771" lon="11.049732692928785"><ele>680.0</ele><time>2026-04-07T14:05:10Z</time></trkpt><trkpt lat="45.58702695784744" lon="11.049790604331832"><ele>680.0</ele><time>2026-04-07T14:05:11Z</time></trkpt><trkpt lat="45.587200322053846" lon="11.049832868897802"><ele>675.3333333333333</ele><time>2026-04-07T14:05:12Z</time></trkpt><trkpt lat="45.58735112990908" lon="11.04988003633953"><ele>670.6666666666666</ele><time>2026-04-07T14:05:13Z</time></trkpt><trkpt lat="45.58749612030139" lon="11.049881898029009"><ele>666.0</ele><time>2026-04-07T14:05:14Z</time></trkpt><trkpt lat="45.58765118504028" lon="11.049823536656163"><ele>666.0</ele><time>2026-04-07T14:05:15Z</time></trkpt><trkpt lat="45.58781477236597" lon="11.049729555804685"><ele>666.0</ele><time>2026-04-07T14:05:16Z</time></trkpt><trkpt lat="45.587974297467234" lon="11.049659101302693"><ele>666.0</ele><time>2026-04-07T14:05:17Z</time></trkpt><trkpt lat="45.58811746533997" lon="11.049550195765114"><ele>668.3333333333334</ele><time>2026-04-07T14:05:18Z</time></trkpt><trkpt lat="45.588250264422165" lon="11.049377891443193"><ele>670.6666666666667</ele><time>2026-04-07T14:05:19Z</time></trkpt><trkpt lat="45.58838133392003" lon="11.049163374871464"><ele>673.0</ele><time>2026-04-07T14:05:20Z</time></trkpt><trkpt lat="45.588521000036664" lon="11.048981363496033"><ele>673.0</ele><time>2026-04-07T14:05:20.999Z</time></trkpt><trkpt lat="45.5886683509358" lon="11.04885709701195"><ele>673.0</ele><time>2026-04-07T14:05:21.999Z</time></trkpt><trkpt lat="45.58882752741236" lon="11.048769953457004"><ele>673.0</ele><time>2026-04-07T14:05:22.999Z</time></trkpt><trkpt lat="45.588961040759564" lon="11.048666383245926"><ele>673.0</ele><time>2026-04-07T14:05:23.999Z</time></trkpt><trkpt lat="45.58906997220914" lon="11.048527534802592"><ele>673.0</ele><time>2026-04-07T14:05:24.999Z</time></trkpt><trkpt lat="45.589186408662236" lon="11.048338973091896"><ele>673.0</ele><time>2026-04-07T14:05:25.999Z</time></trkpt><trkpt lat="45.58933221361517" lon="11.048189249472452"><ele>673.0</ele><time>2026-04-07T14:05:26.999Z</time></trkpt><trkpt lat="45.58948037558192" lon="11.048064477842667"><ele>673.0</ele><time>2026-04-07T14:05:27.999Z</time></trkpt><trkpt lat="45.589619866983824" lon="11.04795863662086"><ele>673.0</ele><time>2026-04-07T14:05:28.999Z</time></trkpt><trkpt lat="45.58976254139025" lon="11.04789507878822"><ele>663.3333333333334</ele><time>2026-04-07T14:05:29.999Z</time></trkpt><trkpt lat="45.58991592718721" lon="11.047875217304709"><ele>653.6666666666666</ele><time>2026-04-07T14:05:30.999Z</time></trkpt><trkpt lat="45.590086916729256" lon="11.047857190391847"><ele>644.0</ele><time>2026-04-07T14:05:31.999Z</time></trkpt><trkpt lat="45.590251296598815" lon="11.047838540172325"><ele>636.75</ele><time>2026-04-07T14:05:32.999Z</time></trkpt><trkpt lat="45.59039147576872" lon="11.0477987340386"><ele>629.5</ele><time>2026-04-07T14:05:33.999Z</time></trkpt><trkpt lat="45.59051951324406" lon="11.0477577869159"><ele>622.25</ele><time>2026-04-07T14:05:34.999Z</time></trkpt><trkpt lat="45.590654984008204" lon="11.047655735510574"><ele>615.0</ele><time>2026-04-07T14:05:35.999Z</time></trkpt><trkpt lat="45.59078176080765" lon="11.047542445324256"><ele>615.0</ele><time>2026-04-07T14:05:36.999Z</time></trkpt><trkpt lat="45.59090805625426" lon="11.047475103535557"><ele>615.0</ele><time>2026-04-07T14:05:37.999Z</time></trkpt><trkpt lat="45.59105294578153" lon="11.047382903249368"><ele>615.0</ele><time>2026-04-07T14:05:38.999Z</time></trkpt><trkpt lat="45.59121213208097" lon="11.047261168278798"><ele>616.5</ele><time>2026-04-07T14:05:39.999Z</time></trkpt><trkpt lat="45.59137593858861" lon="11.047142594282843"><ele>618.0</ele><time>2026-04-07T14:05:40.999Z</time></trkpt><trkpt lat="45.59145375576935" lon="11.047065895065135"><ele>619.5</ele><time>2026-04-07T14:05:41.999Z</time></trkpt><trkpt lat="45.591548679586275" lon="11.046925243314812"><ele>621.0</ele><time>2026-04-07T14:05:42.999Z</time></trkpt><trkpt lat="45.591624058533355" lon="11.046759065808752"><ele>621.0</ele><time>2026-04-07T14:05:43.999Z</time></trkpt><trkpt lat="45.59170047817275" lon="11.046632731508783"><ele>621.0</ele><time>2026-04-07T14:05:44.999Z</time></trkpt><trkpt lat="45.59177573007408" lon="11.046553751846822"><ele>621.0</ele><time>2026-04-07T14:05:45.999Z</time></trkpt><trkpt lat="45.59184080243495" lon="11.046499428931156"><ele>621.0</ele><time>2026-04-07T14:05:46.999Z</time></trkpt><trkpt lat="45.5919164406289" lon="11.046534647481531"><ele>621.0</ele><time>2026-04-07T14:05:47.999Z</time></trkpt><trkpt lat="45.591971387063765" lon="11.046620129799004"><ele>621.0</ele><time>2026-04-07T14:05:48.999Z</time></trkpt><trkpt lat="45.5919957373084" lon="11.046741576084257"><ele>621.0</ele><time>2026-04-07T14:05:49.999Z</time></trkpt><trkpt lat="45.591978525188445" lon="11.046881282579015"><ele>621.0</ele><time>2026-04-07T14:05:50.999Z</time></trkpt><trkpt lat="45.59190497364831" lon="11.047029529898559"><ele>621.0</ele><time>2026-04-07T14:05:51.999Z</time></trkpt><trkpt lat="45.59185906218442" lon="11.047224311562807"><ele>621.0</ele><time>2026-04-07T14:05:52.999Z</time></trkpt><trkpt lat="45.59178057104423" lon="11.047420955198278"><ele>622.6666666666666</ele><time>2026-04-07T14:05:53.999Z</time></trkpt><trkpt lat="45.59166844062822" lon="11.047594358465629"><ele>624.3333333333333</ele><time>2026-04-07T14:05:54.999Z</time></trkpt><trkpt lat="45.59153584456493" lon="11.04777376603336"><ele>626.0</ele><time>2026-04-07T14:05:55.999Z</time></trkpt><trkpt lat="45.59135356539047" lon="11.04791530756604"><ele>625.5</ele><time>2026-04-07T14:05:56.999Z</time></trkpt><trkpt lat="45.59117229436656" lon="11.048104293275792"><ele>625.0</ele><time>2026-04-07T14:05:57.999Z</time></trkpt><trkpt lat="45.590980821613975" lon="11.048309981355063"><ele>625.0</ele><time>2026-04-07T14:05:58.999Z</time></trkpt><trkpt lat="45.59081030883971" lon="11.04854704895706"><ele>625.0</ele><time>2026-04-07T14:05:59.999Z</time></trkpt><trkpt lat="45.590608214872745" lon="11.048695670878091"><ele>625.0</ele><time>2026-04-07T14:06:00.999Z</time></trkpt><trkpt lat="45.59043260042419" lon="11.048856182531203"><ele>625.0</ele><time>2026-04-07T14:06:01.999Z</time></trkpt><trkpt lat="45.590269825348514" lon="11.04895730820415"><ele>625.0</ele><time>2026-04-07T14:06:02.999Z</time></trkpt><trkpt lat="45.59014795238194" lon="11.049070780951544"><ele>624.6666666666667</ele><time>2026-04-07T14:06:03.999Z</time></trkpt><trkpt lat="45.5900448864793" lon="11.049246212531886"><ele>624.3333333333334</ele><time>2026-04-07T14:06:04.999Z</time></trkpt><trkpt lat="45.589975320126506" lon="11.049481464176742"><ele>624.0</ele><time>2026-04-07T14:06:05.999Z</time></trkpt><trkpt lat="45.58987487868619" lon="11.04970887475788"><ele>624.0</ele><time>2026-04-07T14:06:06.999Z</time></trkpt><trkpt lat="45.58977176639116" lon="11.0498769016031"><ele>624.0</ele><time>2026-04-07T14:06:07.999Z</time></trkpt><trkpt lat="45.58969267231904" lon="11.04999140774227"><ele>624.0</ele><time>2026-04-07T14:06:08.999Z</time></trkpt><trkpt lat="45.58966371108955" lon="11.050101875733887"><ele>624.0</ele><time>2026-04-07T14:06:09.999Z</time></trkpt><trkpt lat="45.58969116925401" lon="11.050253993114753"><ele>629.25</ele><time>2026-04-07T14:06:10.999Z</time></trkpt><trkpt lat="45.5897661034706" lon="11.0504012438977"><ele>634.5</ele><time>2026-04-07T14:06:11.999Z</time></trkpt><trkpt lat="45.58989526599627" lon="11.0505199799029"><ele>639.75</ele><time>2026-04-07T14:06:12.999Z</time></trkpt><trkpt lat="45.5900377402303" lon="11.050620340976078"><ele>645.0</ele><time>2026-04-07T14:06:13.999Z</time></trkpt><trkpt lat="45.590129730535594" lon="11.050734653306405"><ele>645.0</ele><time>2026-04-07T14:06:14.999Z</time></trkpt><trkpt lat="45.590206668688964" lon="11.050819488525617"><ele>645.0</ele><time>2026-04-07T14:06:15.999Z</time></trkpt><trkpt lat="45.59025899674552" lon="11.050878297230744"><ele>645.0</ele><time>2026-04-07T14:06:16.998Z</time></trkpt><trkpt lat="45.590317522597985" lon="11.050944071098405"><ele>645.0</ele><time>2026-04-07T14:06:58Z</time></trkpt><trkpt lat="45.59036685036604" lon="11.051009170384749"><ele>645.0</ele><time>2026-04-07T14:06:59Z</time></trkpt><trkpt lat="45.590403364089724" lon="11.051098473542401"><ele>645.0</ele><time>2026-04-07T14:07:00Z</time></trkpt><trkpt lat="45.5903809179095" lon="11.051212977492066"><ele>645.0</ele><time>2026-04-07T14:07:01Z</time></trkpt><trkpt lat="45.59032397196305" lon="11.051329803332044"><ele>645.0</ele><time>2026-04-07T14:07:02Z</time></trkpt><trkpt lat="45.590265924793805" lon="11.051467538813776"><ele>645.0</ele><time>2026-04-07T14:07:03Z</time></trkpt><trkpt lat="45.59019766455751" lon="11.05162630263448"><ele>645.0</ele><time>2026-04-07T14:07:04Z</time></trkpt><trkpt lat="45.59012271315969" lon="11.051804319418403"><ele>644.0</ele><time>2026-04-07T14:07:05Z</time></trkpt><trkpt lat="45.59004910812321" lon="11.051981818611411"><ele>643.0</ele><time>2026-04-07T14:07:06Z</time></trkpt><trkpt lat="45.589974191141344" lon="11.05214483078745"><ele>642.0</ele><time>2026-04-07T14:07:07Z</time></trkpt><trkpt lat="45.58987519800209" lon="11.052273315310769"><ele>641.0</ele><time>2026-04-07T14:07:08Z</time></trkpt><trkpt lat="45.58974354817995" lon="11.052371469147944"><ele>641.0</ele><time>2026-04-07T14:07:09Z</time></trkpt><trkpt lat="45.589553967490644" lon="11.052368141085442"><ele>641.0</ele><time>2026-04-07T14:07:10Z</time></trkpt><trkpt lat="45.58934427665831" lon="11.052407678347215"><ele>641.0</ele><time>2026-04-07T14:07:11Z</time></trkpt><trkpt lat="45.589124707628706" lon="11.052451556967279"><ele>653.0</ele><time>2026-04-07T14:07:12Z</time></trkpt><trkpt lat="45.58889288160444" lon="11.05252474957752"><ele>665.0</ele><time>2026-04-07T14:07:13Z</time></trkpt><trkpt lat="45.58868263891404" lon="11.052571832762878"><ele>662.6666666666666</ele><time>2026-04-07T14:07:14Z</time></trkpt><trkpt lat="45.588513788535465" lon="11.052609101657096"><ele>660.3333333333334</ele><time>2026-04-07T14:07:15Z</time></trkpt><trkpt lat="45.58837011415206" lon="11.052648952490404"><ele>658.0</ele><time>2026-04-07T14:07:16Z</time></trkpt><trkpt lat="45.58823845794213" lon="11.05271886442052"><ele>658.0</ele><time>2026-04-07T14:07:17Z</time></trkpt><trkpt lat="45.58810982789182" lon="11.052854345502967"><ele>658.0</ele><time>2026-04-07T14:07:18Z</time></trkpt><trkpt lat="45.58798490091348" lon="11.053029505986126"><ele>658.0</ele><time>2026-04-07T14:07:19Z</time></trkpt><trkpt lat="45.587871240320794" lon="11.05319899171423"><ele>657.3333333333334</ele><time>2026-04-07T14:07:20Z</time></trkpt><trkpt lat="45.587787225197545" lon="11.053363579243054"><ele>656.6666666666666</ele><time>2026-04-07T14:07:21Z</time></trkpt><trkpt lat="45.58773598161098" lon="11.053582294456284"><ele>656.0</ele><time>2026-04-07T14:07:22Z</time></trkpt><trkpt lat="45.587725863957324" lon="11.053845106960486"><ele>656.0</ele><time>2026-04-07T14:07:23Z</time></trkpt><trkpt lat="45.58773709966932" lon="11.054106747535853"><ele>656.0</ele><time>2026-04-07T14:07:24Z</time></trkpt><trkpt lat="45.58768683350999" lon="11.054336300792027"><ele>656.0</ele><time>2026-04-07T14:07:25Z</time></trkpt><trkpt lat="45.58759306843516" lon="11.054560631125598"><ele>660.3333333333333</ele><time>2026-04-07T14:07:26Z</time></trkpt><trkpt lat="45.58748506800004" lon="11.054822620889773"><ele>664.6666666666666</ele><time>2026-04-07T14:07:27Z</time></trkpt><trkpt lat="45.58737426344326" lon="11.05508821022564"><ele>669.0</ele><time>2026-04-07T14:07:28Z</time></trkpt><trkpt lat="45.587257438870296" lon="11.055372973715567"><ele>671.3333333333334</ele><time>2026-04-07T14:07:28.999Z</time></trkpt><trkpt lat="45.58713994160109" lon="11.055659520562807"><ele>673.6666666666667</ele><time>2026-04-07T14:07:29.999Z</time></trkpt><trkpt lat="45.58703377022669" lon="11.055918446034315"><ele>676.0</ele><time>2026-04-07T14:07:30.999Z</time></trkpt><trkpt lat="45.58694408131342" lon="11.056135721491342"><ele>676.0</ele><time>2026-04-07T14:07:31.999Z</time></trkpt><trkpt lat="45.58685625263506" lon="11.056325241244126"><ele>676.0</ele><time>2026-04-07T14:07:32.999Z</time></trkpt><trkpt lat="45.58676143684447" lon="11.05649085467165"><ele>676.0</ele><time>2026-04-07T14:07:33.999Z</time></trkpt><trkpt lat="45.58664453226601" lon="11.056653977725315"><ele>683.3333333333334</ele><time>2026-04-07T14:07:34.999Z</time></trkpt><trkpt lat="45.58650778140079" lon="11.056817283112034"><ele>690.6666666666666</ele><time>2026-04-07T14:07:35.999Z</time></trkpt><trkpt lat="45.58636696933071" lon="11.056994007078037"><ele>698.0</ele><time>2026-04-07T14:07:36.999Z</time></trkpt><trkpt lat="45.58623116954259" lon="11.057157528232656"><ele>697.75</ele><time>2026-04-07T14:07:37.999Z</time></trkpt><trkpt lat="45.586109420085805" lon="11.057297388907637"><ele>697.5</ele><time>2026-04-07T14:07:38.999Z</time></trkpt><trkpt lat="45.58599564547381" lon="11.057413875443311"><ele>697.25</ele><time>2026-04-07T14:07:39.999Z</time></trkpt><trkpt lat="45.58590825191387" lon="11.057531519463817"><ele>697.0</ele><time>2026-04-07T14:07:40.999Z</time></trkpt><trkpt lat="45.58584283017237" lon="11.057691557229306"><ele>699.6666666666667</ele><time>2026-04-07T14:07:41.999Z</time></trkpt><trkpt lat="45.585798101000016" lon="11.057908030644187"><ele>702.3333333333334</ele><time>2026-04-07T14:07:42.999Z</time></trkpt><trkpt lat="45.58579266855216" lon="11.058169106586192"><ele>705.0</ele><time>2026-04-07T14:07:43.999Z</time></trkpt><trkpt lat="45.585781401740476" lon="11.05845280959352"><ele>706.3333333333334</ele><time>2026-04-07T14:07:44.999Z</time></trkpt><trkpt lat="45.585764714029146" lon="11.05874570637054"><ele>707.6666666666667</ele><time>2026-04-07T14:07:45.999Z</time></trkpt><trkpt lat="45.585747012280564" lon="11.059056525099654"><ele>709.0</ele><time>2026-04-07T14:07:46.999Z</time></trkpt><trkpt lat="45.58574609577538" lon="11.059351443940207"><ele>710.3333333333334</ele><time>2026-04-07T14:07:47.999Z</time></trkpt><trkpt lat="45.5857168524587" lon="11.059595800105797"><ele>711.6666666666666</ele><time>2026-04-07T14:07:48.999Z</time></trkpt><trkpt lat="45.58572418277555" lon="11.059804036934494"><ele>713.0</ele><time>2026-04-07T14:07:49.999Z</time></trkpt><trkpt lat="45.58572507276714" lon="11.05999162806504"><ele>713.75</ele><time>2026-04-07T14:07:50.999Z</time></trkpt><trkpt lat="45.58574813201007" lon="11.060179071993252"><ele>714.5</ele><time>2026-04-07T14:07:51.999Z</time></trkpt><trkpt lat="45.585814574716004" lon="11.060358149859082"><ele>715.25</ele><time>2026-04-07T14:07:52.999Z</time></trkpt><trkpt lat="45.585887114444546" lon="11.060530136695192"><ele>716.0</ele><time>2026-04-07T14:07:53.999Z</time></trkpt><trkpt lat="45.58592657209712" lon="11.06066698791447"><ele>716.0</ele><time>2026-04-07T14:07:54.999Z</time></trkpt><trkpt lat="45.585937999844994" lon="11.060772265048133"><ele>716.0</ele><time>2026-04-07T14:07:55.999Z</time></trkpt><trkpt lat="45.585901948971205" lon="11.060852670515176"><ele>716.0</ele><time>2026-04-07T14:07:56.999Z</time></trkpt><trkpt lat="45.58582461999347" lon="11.060883053857061"><ele>716.0</ele><time>2026-04-07T14:07:57.999Z</time></trkpt><trkpt lat="45.58574702873047" lon="11.060846514380895"><ele>716.0</ele><time>2026-04-07T14:07:58.999Z</time></trkpt><trkpt lat="45.58569939719573" lon="11.060718365138"><ele>716.0</ele><time>2026-04-07T14:07:59.999Z</time></trkpt><trkpt lat="45.58565880259804" lon="11.06061529919507"><ele>716.0</ele><time>2026-04-07T14:08:00.999Z</time></trkpt><trkpt lat="45.58562952855118" lon="11.06051491287871"><ele>716.0</ele><time>2026-04-07T14:08:02.999Z</time></trkpt><trkpt lat="45.58554521675672" lon="11.060450685163852"><ele>716.0</ele><time>2026-04-07T14:08:45.998Z</time></trkpt><trkpt lat="45.58547399766952" lon="11.060371464870874"><ele>716.0</ele><time>2026-04-07T14:08:47Z</time></trkpt><trkpt lat="45.585392114360694" lon="11.060295575463078"><ele>716.0</ele><time>2026-04-07T14:08:48Z</time></trkpt><trkpt lat="45.585274996502655" lon="11.060221725700494"><ele>717.6666666666666</ele><time>2026-04-07T14:08:49Z</time></trkpt><trkpt lat="45.58513860547933" lon="11.060174861581512"><ele>719.3333333333334</ele><time>2026-04-07T14:08:50Z</time></trkpt><trkpt lat="45.584982722569755" lon="11.060159121274744"><ele>721.0</ele><time>2026-04-07T14:08:51Z</time></trkpt><trkpt lat="45.584814053686884" lon="11.060139162229882"><ele>721.0</ele><time>2026-04-07T14:08:52Z</time></trkpt><trkpt lat="45.584661390527764" lon="11.06011638737193"><ele>721.0</ele><time>2026-04-07T14:08:53Z</time></trkpt><trkpt lat="45.58453587085152" lon="11.0600956333198"><ele>721.0</ele><time>2026-04-07T14:08:54Z</time></trkpt><trkpt lat="45.58442610420042" lon="11.060104410908837"><ele>721.0</ele><time>2026-04-07T14:08:55Z</time></trkpt><trkpt lat="45.584314830978414" lon="11.060110592696754"><ele>722.6666666666667</ele><time>2026-04-07T14:08:56Z</time></trkpt><trkpt lat="45.584196751670866" lon="11.060143125739962"><ele>724.3333333333334</ele><time>2026-04-07T14:08:57Z</time></trkpt><trkpt lat="45.58408322092078" lon="11.060179314776107"><ele>726.0</ele><time>2026-04-07T14:08:58Z</time></trkpt><trkpt lat="45.583735531783894" lon="11.060280615546297"><ele>725.0</ele><time>2026-04-07T14:08:59Z</time></trkpt><trkpt lat="45.58354796904584" lon="11.060353937089817"><ele>724.0</ele><time>2026-04-07T14:09:00Z</time></trkpt><trkpt lat="45.58337006631418" lon="11.060419982738575"><ele>723.0</ele><time>2026-04-07T14:09:01Z</time></trkpt><trkpt lat="45.58321883888223" lon="11.060476585073998"><ele>723.0</ele><time>2026-04-07T14:09:02Z</time></trkpt><trkpt lat="45.58309596760041" lon="11.060543613498359"><ele>723.0</ele><time>2026-04-07T14:09:03Z</time></trkpt><trkpt lat="45.58298306806899" lon="11.060659862235795"><ele>723.0</ele><time>2026-04-07T14:09:04Z</time></trkpt><trkpt lat="45.582875235431075" lon="11.060816467558611"><ele>723.0</ele><time>2026-04-07T14:09:05Z</time></trkpt><trkpt lat="45.58279035575614" lon="11.061014174459498"><ele>724.3333333333334</ele><time>2026-04-07T14:09:06Z</time></trkpt><trkpt lat="45.58274372818639" lon="11.061238306821137"><ele>725.6666666666667</ele><time>2026-04-07T14:09:07Z</time></trkpt><trkpt lat="45.58274175178217" lon="11.061472029292178"><ele>727.0</ele><time>2026-04-07T14:09:08Z</time></trkpt><trkpt lat="45.58278145527629" lon="11.061722263225343"><ele>735.6666666666667</ele><time>2026-04-07T14:09:09Z</time></trkpt><trkpt lat="45.582854465362495" lon="11.06196749001053"><ele>744.3333333333334</ele><time>2026-04-07T14:09:10Z</time></trkpt><trkpt lat="45.58296631377925" lon="11.062217067180226"><ele>753.0</ele><time>2026-04-07T14:09:11Z</time></trkpt><trkpt lat="45.58307692024244" lon="11.062481425108352"><ele>753.0</ele><time>2026-04-07T14:09:12Z</time></trkpt><trkpt lat="45.583180391682085" lon="11.062748693587528"><ele>753.0</ele><time>2026-04-07T14:09:13Z</time></trkpt><trkpt lat="45.58327877611929" lon="11.063006772261897"><ele>753.0</ele><time>2026-04-07T14:09:14Z</time></trkpt><trkpt lat="45.583375377189" lon="11.063245781325023"><ele>752.3333333333334</ele><time>2026-04-07T14:09:15Z</time></trkpt><trkpt lat="45.583488136743114" lon="11.063470851284613"><ele>751.6666666666667</ele><time>2026-04-07T14:09:16Z</time></trkpt><trkpt lat="45.58362531122594" lon="11.063680396282088"><ele>751.0</ele><time>2026-04-07T14:09:17Z</time></trkpt><trkpt lat="45.5837770761794" lon="11.063896770928125"><ele>756.0</ele><time>2026-04-07T14:09:18Z</time></trkpt><trkpt lat="45.58394320351038" lon="11.064115421702295"><ele>761.0</ele><time>2026-04-07T14:09:19Z</time></trkpt><trkpt lat="45.584095737666615" lon="11.064336065650252"><ele>766.0</ele><time>2026-04-07T14:09:20Z</time></trkpt><trkpt lat="45.58422330660488" lon="11.064527681830555"><ele>766.0</ele><time>2026-04-07T14:09:21Z</time></trkpt><trkpt lat="45.584325299306926" lon="11.064706716785079"><ele>766.0</ele><time>2026-04-07T14:09:22Z</time></trkpt><trkpt lat="45.584419497689076" lon="11.064897840471126"><ele>766.0</ele><time>2026-04-07T14:09:23Z</time></trkpt><trkpt lat="45.584504622238356" lon="11.065119339152208"><ele>769.0</ele><time>2026-04-07T14:09:24Z</time></trkpt><trkpt lat="45.58460551465413" lon="11.06530933748491"><ele>772.0</ele><time>2026-04-07T14:09:25Z</time></trkpt><trkpt lat="45.58468396038869" lon="11.065466007863222"><ele>775.0</ele><time>2026-04-07T14:09:26Z</time></trkpt><trkpt lat="45.5847861216552" lon="11.065518587986395"><ele>778.0</ele><time>2026-04-07T14:09:27Z</time></trkpt><trkpt lat="45.58493383056449" lon="11.065545861365495"><ele>778.0</ele><time>2026-04-07T14:09:28Z</time></trkpt><trkpt lat="45.58510033957683" lon="11.065499816520077"><ele>778.0</ele><time>2026-04-07T14:09:29Z</time></trkpt><trkpt lat="45.58528996112375" lon="11.065406180552555"><ele>778.0</ele><time>2026-04-07T14:09:30Z</time></trkpt><trkpt lat="45.58547511695601" lon="11.06530783604117"><ele>779.6666666666666</ele><time>2026-04-07T14:09:31Z</time></trkpt><trkpt lat="45.58563545317011" lon="11.065265325932709"><ele>781.3333333333333</ele><time>2026-04-07T14:09:32Z</time></trkpt><trkpt lat="45.585780847731016" lon="11.065220386391282"><ele>783.0</ele><time>2026-04-07T14:09:33Z</time></trkpt><trkpt lat="45.58592159010248" lon="11.065214026208487"><ele>783.0</ele><time>2026-04-07T14:09:34Z</time></trkpt><trkpt lat="45.58607126916333" lon="11.065273743253398"><ele>783.0</ele><time>2026-04-07T14:09:35Z</time></trkpt><trkpt lat="45.58624838095612" lon="11.065351820220954"><ele>783.0</ele><time>2026-04-07T14:09:35.999Z</time></trkpt><trkpt lat="45.586450649266" lon="11.065436476264315"><ele>779.6666666666667</ele><time>2026-04-07T14:09:36.999Z</time></trkpt><trkpt lat="45.58665208752622" lon="11.065541627019236"><ele>776.3333333333334</ele><time>2026-04-07T14:09:37.999Z</time></trkpt><trkpt lat="45.586843915920994" lon="11.065626313390041"><ele>773.0</ele><time>2026-04-07T14:09:38.999Z</time></trkpt><trkpt lat="45.58701522635426" lon="11.06569815753109"><ele>773.0</ele><time>2026-04-07T14:09:39.999Z</time></trkpt><trkpt lat="45.587172573160885" lon="11.065766030678006"><ele>773.0</ele><time>2026-04-07T14:09:40.999Z</time></trkpt><trkpt lat="45.58731882304622" lon="11.065840075480967"><ele>773.0</ele><time>2026-04-07T14:09:41.999Z</time></trkpt><trkpt lat="45.58743622388926" lon="11.065948931937134"><ele>778.3333333333334</ele><time>2026-04-07T14:09:42.999Z</time></trkpt><trkpt lat="45.58755145749692" lon="11.066074425948136"><ele>783.6666666666667</ele><time>2026-04-07T14:09:43.999Z</time></trkpt><trkpt lat="45.587646602962344" lon="11.066250384414655"><ele>789.0</ele><time>2026-04-07T14:09:44.999Z</time></trkpt><trkpt lat="45.58770162393369" lon="11.066459937706782"><ele>790.5</ele><time>2026-04-07T14:09:45.999Z</time></trkpt><trkpt lat="45.58773821970882" lon="11.066682121459978"><ele>792.0</ele><time>2026-04-07T14:09:46.999Z</time></trkpt><trkpt lat="45.587787765860966" lon="11.066863162277524"><ele>793.5</ele><time>2026-04-07T14:09:47.999Z</time></trkpt><trkpt lat="45.58783132111911" lon="11.067009377125798"><ele>795.0</ele><time>2026-04-07T14:09:48.999Z</time></trkpt><trkpt lat="45.5879140015076" lon="11.06712972198034"><ele>795.0</ele><time>2026-04-07T14:09:49.999Z</time></trkpt><trkpt lat="45.58803492127126" lon="11.06720511145784"><ele>795.0</ele><time>2026-04-07T14:09:50.999Z</time></trkpt><trkpt lat="45.58821293073487" lon="11.06723639117607"><ele>795.0</ele><time>2026-04-07T14:09:51.999Z</time></trkpt><trkpt lat="45.58838793917518" lon="11.06726511118484"><ele>795.0</ele><time>2026-04-07T14:09:52.999Z</time></trkpt><trkpt lat="45.58856673029207" lon="11.06733988149592"><ele>795.0</ele><time>2026-04-07T14:09:53.999Z</time></trkpt><trkpt lat="45.58875823024076" lon="11.067401416626419"><ele>795.0</ele><time>2026-04-07T14:09:54.999Z</time></trkpt><trkpt lat="45.58894651946311" lon="11.067461379371144"><ele>795.6666666666667</ele><time>2026-04-07T14:09:55.999Z</time></trkpt><trkpt lat="45.589125520890825" lon="11.067498171328943"><ele>796.3333333333334</ele><time>2026-04-07T14:09:56.999Z</time></trkpt><trkpt lat="45.58928380866464" lon="11.067549199970625"><ele>797.0</ele><time>2026-04-07T14:09:57.999Z</time></trkpt><trkpt lat="45.589438278803655" lon="11.067599152769189"><ele>795.75</ele><time>2026-04-07T14:09:58.999Z</time></trkpt><trkpt lat="45.589595050237186" lon="11.067654469954856"><ele>794.5</ele><time>2026-04-07T14:09:59.999Z</time></trkpt><trkpt lat="45.589733823583494" lon="11.067725280818667"><ele>793.25</ele><time>2026-04-07T14:10:00.999Z</time></trkpt><trkpt lat="45.58985134681968" lon="11.067798507799681"><ele>792.0</ele><time>2026-04-07T14:10:01.999Z</time></trkpt><trkpt lat="45.58995685422673" lon="11.067914310744936"><ele>792.0</ele><time>2026-04-07T14:10:02.999Z</time></trkpt><trkpt lat="45.590035180899946" lon="11.06808676537883"><ele>792.0</ele><time>2026-04-07T14:10:03.999Z</time></trkpt><trkpt lat="45.59011064754355" lon="11.068258771879432"><ele>792.0</ele><time>2026-04-07T14:10:04.999Z</time></trkpt><trkpt lat="45.590158246538735" lon="11.068478642977277"><ele>792.0</ele><time>2026-04-07T14:10:05.999Z</time></trkpt><trkpt lat="45.5901993471792" lon="11.068706250037785"><ele>794.5</ele><time>2026-04-07T14:10:06.999Z</time></trkpt><trkpt lat="45.59024804532221" lon="11.068893720660945"><ele>797.0</ele><time>2026-04-07T14:10:07.999Z</time></trkpt><trkpt lat="45.59026151298056" lon="11.06908736303436"><ele>799.5</ele><time>2026-04-07T14:10:08.999Z</time></trkpt><trkpt lat="45.59028467056781" lon="11.069268510338535"><ele>802.0</ele><time>2026-04-07T14:10:09.999Z</time></trkpt><trkpt lat="45.59027783861783" lon="11.069471829879086"><ele>803.6666666666666</ele><time>2026-04-07T14:10:10.999Z</time></trkpt><trkpt lat="45.5902556428603" lon="11.0697076046101"><ele>805.3333333333333</ele><time>2026-04-07T14:10:11.999Z</time></trkpt><trkpt lat="45.590208084762246" lon="11.069958165470457"><ele>807.0</ele><time>2026-04-07T14:10:12.999Z</time></trkpt><trkpt lat="45.59013325211272" lon="11.070201577150234"><ele>808.3333333333333</ele><time>2026-04-07T14:10:13.999Z</time></trkpt><trkpt lat="45.59009757468313" lon="11.070449235752628"><ele>809.6666666666666</ele><time>2026-04-07T14:10:14.999Z</time></trkpt><trkpt lat="45.5900470239732" lon="11.070702606535498"><ele>811.0</ele><time>2026-04-07T14:10:15.999Z</time></trkpt><trkpt lat="45.59000834058773" lon="11.070978431202338"><ele>812.3333333333333</ele><time>2026-04-07T14:10:16.999Z</time></trkpt><trkpt lat="45.58997248085951" lon="11.071270265802305"><ele>813.6666666666667</ele><time>2026-04-07T14:10:17.999Z</time></trkpt><trkpt lat="45.58991658505156" lon="11.071581182162117"><ele>815.0</ele><time>2026-04-07T14:10:18.999Z</time></trkpt><trkpt lat="45.58989421061709" lon="11.071880322258817"><ele>816.6666666666667</ele><time>2026-04-07T14:10:19.999Z</time></trkpt><trkpt lat="45.58985938477261" lon="11.072130278088729"><ele>818.3333333333333</ele><time>2026-04-07T14:10:20.999Z</time></trkpt><trkpt lat="45.58980733014201" lon="11.072366619343372"><ele>820.0</ele><time>2026-04-07T14:10:21.999Z</time></trkpt><trkpt lat="45.58975022963921" lon="11.072613277567603"><ele>823.3333333333333</ele><time>2026-04-07T14:10:22.999Z</time></trkpt><trkpt lat="45.58967664441159" lon="11.072865794471857"><ele>826.6666666666667</ele><time>2026-04-07T14:10:23.999Z</time></trkpt><trkpt lat="45.589610271300025" lon="11.073123035342743"><ele>830.0</ele><time>2026-04-07T14:10:24.999Z</time></trkpt><trkpt lat="45.58952913774249" lon="11.073381219816481"><ele>831.6666666666667</ele><time>2026-04-07T14:10:25.999Z</time></trkpt><trkpt lat="45.589459296116196" lon="11.073637006668832"><ele>833.3333333333333</ele><time>2026-04-07T14:10:26.999Z</time></trkpt><trkpt lat="45.58936198285924" lon="11.073863600143529"><ele>835.0</ele><time>2026-04-07T14:10:27.998Z</time></trkpt><trkpt lat="45.58927507846426" lon="11.074087461575225"><ele>835.6666666666666</ele><time>2026-04-07T14:10:28.998Z</time></trkpt><trkpt lat="45.58918598980323" lon="11.07429977397811"><ele>836.3333333333333</ele><time>2026-04-07T14:10:29.998Z</time></trkpt><trkpt lat="45.58910409095124" lon="11.074479907265317"><ele>837.0</ele><time>2026-04-07T14:10:30.998Z</time></trkpt><trkpt lat="45.58904671617743" lon="11.074642780639294"><ele>837.0</ele><time>2026-04-07T14:10:31.998Z</time></trkpt><trkpt lat="45.58899180502187" lon="11.074776576386986"><ele>837.0</ele><time>2026-04-07T14:10:32.998Z</time></trkpt><trkpt lat="45.588974951303676" lon="11.074890027519507"><ele>837.0</ele><time>2026-04-07T14:10:33.998Z</time></trkpt><trkpt lat="45.58900418121634" lon="11.07501343700624"><ele>837.0</ele><time>2026-04-07T14:10:34.998Z</time></trkpt><trkpt lat="45.58907338162753" lon="11.075130344843268"><ele>837.0</ele><time>2026-04-07T14:10:35.998Z</time></trkpt><trkpt lat="45.58917369163311" lon="11.075214995661629"><ele>838.0</ele><time>2026-04-07T14:10:36.998Z</time></trkpt><trkpt lat="45.58928680946106" lon="11.075242263643775"><ele>839.0</ele><time>2026-04-07T14:10:37.998Z</time></trkpt><trkpt lat="45.58939439436407" lon="11.075200756721932"><ele>840.0</ele><time>2026-04-07T14:10:38.998Z</time></trkpt><trkpt lat="45.58947976984653" lon="11.07509445308984"><ele>841.0</ele><time>2026-04-07T14:10:39.998Z</time></trkpt><trkpt lat="45.58955704910667" lon="11.074928398110563"><ele>844.3333333333333</ele><time>2026-04-07T14:10:40.998Z</time></trkpt><trkpt lat="45.589632711100236" lon="11.074738560034694"><ele>847.6666666666667</ele><time>2026-04-07T14:10:41.998Z</time></trkpt><trkpt lat="45.58973171819319" lon="11.074529916263492"><ele>851.0</ele><time>2026-04-07T14:10:42.998Z</time></trkpt><trkpt lat="45.58985516635489" lon="11.074312529282132"><ele>847.3333333333334</ele><time>2026-04-07T14:10:43.998Z</time></trkpt><trkpt lat="45.58998748109172" lon="11.074068294406453"><ele>843.6666666666667</ele><time>2026-04-07T14:10:44.998Z</time></trkpt><trkpt lat="45.59011863107719" lon="11.073810363725762"><ele>840.0</ele><time>2026-04-07T14:10:45.998Z</time></trkpt><trkpt lat="45.59025736107364" lon="11.073549062725691"><ele>852.5</ele><time>2026-04-07T14:10:46.998Z</time></trkpt><trkpt lat="45.59039835116813" lon="11.073287032894806"><ele>865.0</ele><time>2026-04-07T14:10:47.998Z</time></trkpt><trkpt lat="45.59053447737597" lon="11.07303018707787"><ele>865.0</ele><time>2026-04-07T14:10:48.998Z</time></trkpt><trkpt lat="45.59065581951491" lon="11.072772533113922"><ele>865.0</ele><time>2026-04-07T14:10:49.998Z</time></trkpt><trkpt lat="45.590747647707985" lon="11.072516489653275"><ele>865.0</ele><time>2026-04-07T14:10:50.998Z</time></trkpt><trkpt lat="45.59081811693958" lon="11.07228505942915"><ele>861.25</ele><time>2026-04-07T14:10:51.998Z</time></trkpt><trkpt lat="45.59088182619388" lon="11.072069199210981"><ele>857.5</ele><time>2026-04-07T14:10:53Z</time></trkpt><trkpt lat="45.59094369059644" lon="11.071884815923056"><ele>853.75</ele><time>2026-04-07T14:10:54Z</time></trkpt><trkpt lat="45.590993061757175" lon="11.071752547135462"><ele>850.0</ele><time>2026-04-07T14:10:55Z</time></trkpt><trkpt lat="45.59103584794317" lon="11.071673247924341"><ele>850.0</ele><time>2026-04-07T14:10:56Z</time></trkpt><trkpt lat="45.59115073041412" lon="11.071664945438702"><ele>850.0</ele><time>2026-04-07T14:10:58Z</time></trkpt><trkpt lat="45.591188109618756" lon="11.071745183868513"><ele>850.0</ele><time>2026-04-07T14:10:59Z</time></trkpt><trkpt lat="45.59118159029506" lon="11.071853906908938"><ele>850.0</ele><time>2026-04-07T14:11:00Z</time></trkpt><trkpt lat="45.59112556323743" lon="11.071981561439939"><ele>850.0</ele><time>2026-04-07T14:11:01Z</time></trkpt><trkpt lat="45.59103844178422" lon="11.072132111503244"><ele>850.0</ele><time>2026-04-07T14:11:02Z</time></trkpt><trkpt lat="45.590948317783806" lon="11.072312592035134"><ele>850.0</ele><time>2026-04-07T14:11:03Z</time></trkpt><trkpt lat="45.59087185047606" lon="11.072537523718406"><ele>850.0</ele><time>2026-04-07T14:11:04Z</time></trkpt><trkpt lat="45.590814221624406" lon="11.07279247623092"><ele>855.0</ele><time>2026-04-07T14:11:05Z</time></trkpt><trkpt lat="45.590746671400346" lon="11.073019518069623"><ele>860.0</ele><time>2026-04-07T14:11:06Z</time></trkpt><trkpt lat="45.590668684882196" lon="11.073220241601863"><ele>865.0</ele><time>2026-04-07T14:11:07Z</time></trkpt><trkpt lat="45.59061445725122" lon="11.073432123913197"><ele>869.6666666666666</ele><time>2026-04-07T14:11:08Z</time></trkpt><trkpt lat="45.590560272163906" lon="11.07365759743319"><ele>874.3333333333333</ele><time>2026-04-07T14:11:09Z</time></trkpt><trkpt lat="45.59049713673498" lon="11.073868636643141"><ele>879.0</ele><time>2026-04-07T14:11:10Z</time></trkpt><trkpt lat="45.590446278014824" lon="11.074070291395927"><ele>883.3333333333333</ele><time>2026-04-07T14:11:11Z</time></trkpt><trkpt lat="45.59036155389651" lon="11.07425853896192"><ele>887.6666666666666</ele><time>2026-04-07T14:11:12Z</time></trkpt><trkpt lat="45.59027158828012" lon="11.07446670950133"><ele>892.0</ele><time>2026-04-07T14:11:13Z</time></trkpt><trkpt lat="45.59018724825338" lon="11.074682528767568"><ele>884.0</ele><time>2026-04-07T14:11:14Z</time></trkpt><trkpt lat="45.59010882906077" lon="11.07490206262138"><ele>876.0</ele><time>2026-04-07T14:11:15Z</time></trkpt><trkpt lat="45.5900291432547" lon="11.075120919059957"><ele>868.0</ele><time>2026-04-07T14:11:16Z</time></trkpt><trkpt lat="45.589947903938295" lon="11.075337786276755"><ele>868.0</ele><time>2026-04-07T14:11:17Z</time></trkpt><trkpt lat="45.589872990478035" lon="11.075544953498058"><ele>868.0</ele><time>2026-04-07T14:11:18Z</time></trkpt><trkpt lat="45.58979701521924" lon="11.075744892473491"><ele>868.0</ele><time>2026-04-07T14:11:19Z</time></trkpt><trkpt lat="45.58972268060713" lon="11.075950836268206"><ele>872.3333333333333</ele><time>2026-04-07T14:11:20Z</time></trkpt><trkpt lat="45.58963961724619" lon="11.076138861287411"><ele>876.6666666666667</ele><time>2026-04-07T14:11:21Z</time></trkpt><trkpt lat="45.58954578378377" lon="11.07631522348041"><ele>881.0</ele><time>2026-04-07T14:11:22Z</time></trkpt><trkpt lat="45.589449020645475" lon="11.076471881953692"><ele>877.5</ele><time>2026-04-07T14:11:23Z</time></trkpt><trkpt lat="45.58933961441954" lon="11.076587852542943"><ele>874.0</ele><time>2026-04-07T14:11:24Z</time></trkpt><trkpt lat="45.58925579327946" lon="11.076725105173168"><ele>870.5</ele><time>2026-04-07T14:11:25Z</time></trkpt><trkpt lat="45.58918485654081" lon="11.076888022709829"><ele>867.0</ele><time>2026-04-07T14:11:26Z</time></trkpt><trkpt lat="45.589101207326244" lon="11.077071247284586"><ele>867.0</ele><time>2026-04-07T14:11:27Z</time></trkpt><trkpt lat="45.58902207485562" lon="11.077266255233761"><ele>867.0</ele><time>2026-04-07T14:11:28Z</time></trkpt><trkpt lat="45.58895162538205" lon="11.077470878596156"><ele>867.0</ele><time>2026-04-07T14:11:29Z</time></trkpt><trkpt lat="45.58887877800775" lon="11.07766317729709"><ele>869.0</ele><time>2026-04-07T14:11:30Z</time></trkpt><trkpt lat="45.588817655294854" lon="11.07785373004246"><ele>871.0</ele><time>2026-04-07T14:11:31Z</time></trkpt><trkpt lat="45.58877096486317" lon="11.078049243380674"><ele>873.0</ele><time>2026-04-07T14:11:32Z</time></trkpt><trkpt lat="45.58872394305438" lon="11.078257450486253"><ele>875.0</ele><time>2026-04-07T14:11:33Z</time></trkpt><trkpt lat="45.588668132504985" lon="11.078470081743726"><ele>871.0</ele><time>2026-04-07T14:11:34Z</time></trkpt><trkpt lat="45.5886132350423" lon="11.078674707956125"><ele>867.0</ele><time>2026-04-07T14:11:35Z</time></trkpt><trkpt lat="45.588550611503976" lon="11.078863663362737"><ele>863.0</ele><time>2026-04-07T14:11:36Z</time></trkpt><trkpt lat="45.58847577074376" lon="11.079039256859208"><ele>859.0</ele><time>2026-04-07T14:11:37Z</time></trkpt><trkpt lat="45.58837909004266" lon="11.079195167636003"><ele>859.0</ele><time>2026-04-07T14:11:37.999Z</time></trkpt><trkpt lat="45.58825626958968" lon="11.079302918549125"><ele>859.0</ele><time>2026-04-07T14:11:38.999Z</time></trkpt><trkpt lat="45.58813350932476" lon="11.079424189235427"><ele>859.0</ele><time>2026-04-07T14:11:39.999Z</time></trkpt><trkpt lat="45.58798559573068" lon="11.079497896929041"><ele>858.6666666666666</ele><time>2026-04-07T14:11:40.999Z</time></trkpt><trkpt lat="45.587828368210694" lon="11.07953303111685"><ele>858.3333333333333</ele><time>2026-04-07T14:11:41.999Z</time></trkpt><trkpt lat="45.58767049110928" lon="11.079536339811224"><ele>858.0</ele><time>2026-04-07T14:11:42.999Z</time></trkpt><trkpt lat="45.587526415537106" lon="11.079476803884427"><ele>858.0</ele><time>2026-04-07T14:11:43.999Z</time></trkpt><trkpt lat="45.58736751634132" lon="11.079434524326189"><ele>858.0</ele><time>2026-04-07T14:11:44.999Z</time></trkpt><trkpt lat="45.58719830814046" lon="11.079360139124312"><ele>858.0</ele><time>2026-04-07T14:11:45.999Z</time></trkpt><trkpt lat="45.58700829303573" lon="11.079275182414134"><ele>856.6666666666667</ele><time>2026-04-07T14:11:46.999Z</time></trkpt><trkpt lat="45.58681497919172" lon="11.079192091750253"><ele>855.3333333333334</ele><time>2026-04-07T14:11:47.999Z</time></trkpt><trkpt lat="45.58661627680662" lon="11.07911188094245"><ele>854.0</ele><time>2026-04-07T14:11:48.999Z</time></trkpt><trkpt lat="45.5864218054736" lon="11.079030251810511"><ele>854.0</ele><time>2026-04-07T14:11:49.999Z</time></trkpt><trkpt lat="45.58624793026971" lon="11.078958751232403"><ele>854.0</ele><time>2026-04-07T14:11:50.999Z</time></trkpt><trkpt lat="45.58609062803367" lon="11.07889658258619"><ele>854.0</ele><time>2026-04-07T14:11:51.999Z</time></trkpt><trkpt lat="45.58594414552843" lon="11.078833974777924"><ele>855.2</ele><time>2026-04-07T14:11:52.999Z</time></trkpt><trkpt lat="45.585820789898946" lon="11.07878037154859"><ele>856.4000000000001</ele><time>2026-04-07T14:11:53.999Z</time></trkpt><trkpt lat="45.585730612639985" lon="11.078743539680037"><ele>857.6</ele><time>2026-04-07T14:11:54.999Z</time></trkpt><trkpt lat="45.58565748628194" lon="11.078718279264018"><ele>858.8</ele><time>2026-04-07T14:11:55.999Z</time></trkpt><trkpt lat="45.5855634703137" lon="11.078676049865683"><ele>860.0</ele><time>2026-04-07T14:11:56.999Z</time></trkpt><trkpt lat="45.58545495990164" lon="11.07863624512503"><ele>860.0</ele><time>2026-04-07T14:11:57.999Z</time></trkpt><trkpt lat="45.58534763565017" lon="11.0785996761899"><ele>860.0</ele><time>2026-04-07T14:11:58.999Z</time></trkpt><trkpt lat="45.58524600149299" lon="11.07856113024954"><ele>860.0</ele><time>2026-04-07T14:11:59.999Z</time></trkpt><trkpt lat="45.58514683286918" lon="11.078524073872053"><ele>860.0</ele><time>2026-04-07T14:12:00.999Z</time></trkpt><trkpt lat="45.58506177916191" lon="11.07848800322122"><ele>860.0</ele><time>2026-04-07T14:12:01.999Z</time></trkpt><trkpt lat="45.584988918875986" lon="11.078454951054635"><ele>863.2</ele><time>2026-04-07T14:12:02.999Z</time></trkpt><trkpt lat="45.584886551973916" lon="11.078411566312777"><ele>866.4</ele><time>2026-04-07T14:12:04.999Z</time></trkpt><trkpt lat="45.58480608007712" lon="11.078381822031204"><ele>869.5999999999999</ele><time>2026-04-07T14:12:07.999Z</time></trkpt><trkpt lat="45.584731719951655" lon="11.07837251680582"><ele>872.8</ele><time>2026-04-07T14:12:09.999Z</time></trkpt><trkpt lat="45.58467721562151" lon="11.078427921715857"><ele>876.0</ele><time>2026-04-07T14:12:11.999Z</time></trkpt><trkpt lat="45.58470423579574" lon="11.078620144048946"><ele>876.0</ele><time>2026-04-07T14:12:13.999Z</time></trkpt><trkpt lat="45.58467082233773" lon="11.078745158512534"><ele>876.0</ele><time>2026-04-07T14:12:16.999Z</time></trkpt><trkpt lat="45.5845904285673" lon="11.078785732641077"><ele>876.0</ele><time>2026-04-07T14:12:18.999Z</time></trkpt><trkpt lat="45.584507489999346" lon="11.078749085851184"><ele>876.0</ele><time>2026-04-07T14:12:23.999Z</time></trkpt><trkpt lat="45.58443325233208" lon="11.078710365058804"><ele>876.0</ele><time>2026-04-07T14:12:26.999Z</time></trkpt><trkpt lat="45.58435877539091" lon="11.078682595759924"><ele>876.0</ele><time>2026-04-07T14:12:29.998Z</time></trkpt><trkpt lat="45.5842874675041" lon="11.078599398474157"><ele>875.1666666666666</ele><time>2026-04-07T14:12:32.998Z</time></trkpt><trkpt lat="45.584243914537" lon="11.078516211025214"><ele>874.3333333333333</ele><time>2026-04-07T14:12:33.998Z</time></trkpt><trkpt lat="45.58420378585825" lon="11.07840206881763"><ele>873.5</ele><time>2026-04-07T14:12:34.998Z</time></trkpt><trkpt lat="45.584167631244064" lon="11.078300886145355"><ele>872.6666666666666</ele><time>2026-04-07T14:12:35.998Z</time></trkpt><trkpt lat="45.58412416515822" lon="11.078205851145807"><ele>871.8333333333333</ele><time>2026-04-07T14:12:36.998Z</time></trkpt><trkpt lat="45.58407337939319" lon="11.078062828854431"><ele>871.0</ele><time>2026-04-07T14:12:37.998Z</time></trkpt><trkpt lat="45.58399615247302" lon="11.077911216593169"><ele>869.25</ele><time>2026-04-07T14:12:38.998Z</time></trkpt><trkpt lat="45.58389489053272" lon="11.077755833041442"><ele>867.5</ele><time>2026-04-07T14:12:39.998Z</time></trkpt><trkpt lat="45.58377705256834" lon="11.077643697950279"><ele>865.75</ele><time>2026-04-07T14:12:40.998Z</time></trkpt><trkpt lat="45.58366603345399" lon="11.077540580223674"><ele>864.0</ele><time>2026-04-07T14:12:41.998Z</time></trkpt><trkpt lat="45.5835261770751" lon="11.077462668856825"><ele>874.0</ele><time>2026-04-07T14:12:42.998Z</time></trkpt><trkpt lat="45.58335020569199" lon="11.077403842807927"><ele>884.0</ele><time>2026-04-07T14:12:43.998Z</time></trkpt><trkpt lat="45.583165891711445" lon="11.077342317024279"><ele>894.0</ele><time>2026-04-07T14:12:44.998Z</time></trkpt><trkpt lat="45.58297335669367" lon="11.077231767131641"><ele>884.6666666666667</ele><time>2026-04-07T14:12:45.998Z</time></trkpt><trkpt lat="45.582784706563" lon="11.077089173981815"><ele>875.3333333333334</ele><time>2026-04-07T14:12:46.998Z</time></trkpt><trkpt lat="45.582606267021404" lon="11.07695976834012"><ele>866.0</ele><time>2026-04-07T14:12:47.998Z</time></trkpt><trkpt lat="45.58243462113548" lon="11.076841126770233"><ele>866.0</ele><time>2026-04-07T14:12:48.998Z</time></trkpt><trkpt lat="45.5822578970339" lon="11.076729805356653"><ele>866.0</ele><time>2026-04-07T14:12:49.998Z</time></trkpt><trkpt lat="45.58208004679449" lon="11.076612191163433"><ele>866.0</ele><time>2026-04-07T14:12:50.998Z</time></trkpt><trkpt lat="45.58189598198368" lon="11.076494468006766"><ele>866.3333333333334</ele><time>2026-04-07T14:12:51.998Z</time></trkpt><trkpt lat="45.58171945923934" lon="11.076365916261615"><ele>866.6666666666667</ele><time>2026-04-07T14:12:52.998Z</time></trkpt><trkpt lat="45.5815585511165" lon="11.076235403524208"><ele>867.0</ele><time>2026-04-07T14:12:53.998Z</time></trkpt><trkpt lat="45.58140590136206" lon="11.076102987770009"><ele>867.0</ele><time>2026-04-07T14:12:54.998Z</time></trkpt><trkpt lat="45.58126958242522" lon="11.075965437909433"><ele>867.0</ele><time>2026-04-07T14:12:55.998Z</time></trkpt><trkpt lat="45.58114354922801" lon="11.07580595730822"><ele>867.0</ele><time>2026-04-07T14:12:56.998Z</time></trkpt><trkpt lat="45.5810338712844" lon="11.075635186853741"><ele>859.3333333333333</ele><time>2026-04-07T14:12:57.998Z</time></trkpt><trkpt lat="45.580938854733525" lon="11.07544149269682"><ele>851.6666666666666</ele><time>2026-04-07T14:12:59Z</time></trkpt><trkpt lat="45.580860367996955" lon="11.075240907159223"><ele>844.0</ele><time>2026-04-07T14:13:00Z</time></trkpt><trkpt lat="45.580784562073696" lon="11.075051612592336"><ele>843.0</ele><time>2026-04-07T14:13:01Z</time></trkpt><trkpt lat="45.580685822825714" lon="11.07489247302508"><ele>842.0</ele><time>2026-04-07T14:13:02Z</time></trkpt><trkpt lat="45.58055764020922" lon="11.074763540412938"><ele>841.0</ele><time>2026-04-07T14:13:03Z</time></trkpt><trkpt lat="45.580401420425794" lon="11.074667520250713"><ele>839.0</ele><time>2026-04-07T14:13:04Z</time></trkpt><trkpt lat="45.580207120829385" lon="11.074624336575527"><ele>837.0</ele><time>2026-04-07T14:13:05Z</time></trkpt><trkpt lat="45.57999550972262" lon="11.074624613255462"><ele>835.0</ele><time>2026-04-07T14:13:06Z</time></trkpt><trkpt lat="45.579776750356196" lon="11.074630249036044"><ele>835.0</ele><time>2026-04-07T14:13:07Z</time></trkpt><trkpt lat="45.57954191304894" lon="11.074621599405106"><ele>835.0</ele><time>2026-04-07T14:13:08Z</time></trkpt><trkpt lat="45.57929670362473" lon="11.074603868755126"><ele>836.5</ele><time>2026-04-07T14:13:09Z</time></trkpt><trkpt lat="45.57905411911433" lon="11.074582788043253"><ele>838.0</ele><time>2026-04-07T14:13:10Z</time></trkpt><trkpt lat="45.578818085515344" lon="11.07455946783699"><ele>839.0</ele><time>2026-04-07T14:13:11Z</time></trkpt><trkpt lat="45.5785811414445" lon="11.074526910292017"><ele>840.0</ele><time>2026-04-07T14:13:12Z</time></trkpt><trkpt lat="45.57831860322777" lon="11.074517598707123"><ele>840.0</ele><time>2026-04-07T14:13:13Z</time></trkpt><trkpt lat="45.578072430413286" lon="11.074500269318527"><ele>840.0</ele><time>2026-04-07T14:13:14Z</time></trkpt><trkpt lat="45.577830827523506" lon="11.074482435638785"><ele>835.5</ele><time>2026-04-07T14:13:15Z</time></trkpt><trkpt lat="45.57758995551373" lon="11.074468814121003"><ele>831.0</ele><time>2026-04-07T14:13:16Z</time></trkpt><trkpt lat="45.57736257971033" lon="11.074456692917614"><ele>831.0</ele><time>2026-04-07T14:13:17Z</time></trkpt><trkpt lat="45.57714408622856" lon="11.074442330350099"><ele>831.0</ele><time>2026-04-07T14:13:18Z</time></trkpt><trkpt lat="45.57692150620985" lon="11.074425595139159"><ele>831.0</ele><time>2026-04-07T14:13:19Z</time></trkpt><trkpt lat="45.57669015477298" lon="11.07441347566253"><ele>827.0</ele><time>2026-04-07T14:13:20Z</time></trkpt><trkpt lat="45.5764604111275" lon="11.074423499653507"><ele>823.0</ele><time>2026-04-07T14:13:21Z</time></trkpt><trkpt lat="45.576234808550566" lon="11.074459905453152"><ele>820.3333333333333</ele><time>2026-04-07T14:13:22Z</time></trkpt><trkpt lat="45.576013209109206" lon="11.074514209294339"><ele>817.6666666666667</ele><time>2026-04-07T14:13:23Z</time></trkpt><trkpt lat="45.57580342644159" lon="11.074564524581024"><ele>815.0</ele><time>2026-04-07T14:13:24Z</time></trkpt><trkpt lat="45.57560471741489" lon="11.074608502498231"><ele>815.0</ele><time>2026-04-07T14:13:25Z</time></trkpt><trkpt lat="45.57540322587446" lon="11.074646111621355"><ele>815.0</ele><time>2026-04-07T14:13:26Z</time></trkpt><trkpt lat="45.57520484300451" lon="11.074687030803629"><ele>815.0</ele><time>2026-04-07T14:13:27Z</time></trkpt><trkpt lat="45.57501072507359" lon="11.074724633874169"><ele>813.3333333333334</ele><time>2026-04-07T14:13:28Z</time></trkpt><trkpt lat="45.574816833453276" lon="11.07475221743851"><ele>811.6666666666667</ele><time>2026-04-07T14:13:29Z</time></trkpt><trkpt lat="45.57462531539402" lon="11.074768756940447"><ele>810.0</ele><time>2026-04-07T14:13:30Z</time></trkpt><trkpt lat="45.57442768154273" lon="11.0747703767197"><ele>807.3333333333333</ele><time>2026-04-07T14:13:31Z</time></trkpt><trkpt lat="45.57421950636576" lon="11.07477448361467"><ele>804.6666666666666</ele><time>2026-04-07T14:13:32Z</time></trkpt><trkpt lat="45.57400297524299" lon="11.074787002298418"><ele>802.0</ele><time>2026-04-07T14:13:33Z</time></trkpt><trkpt lat="45.57378790906711" lon="11.07480256473916"><ele>801.0</ele><time>2026-04-07T14:13:34Z</time></trkpt><trkpt lat="45.57357929874422" lon="11.074825587867984"><ele>800.0</ele><time>2026-04-07T14:13:34.999Z</time></trkpt><trkpt lat="45.57336737018979" lon="11.074881909156211"><ele>799.0</ele><time>2026-04-07T14:13:35.999Z</time></trkpt><trkpt lat="45.57316815119108" lon="11.074955541829599"><ele>797.3333333333333</ele><time>2026-04-07T14:13:36.999Z</time></trkpt><trkpt lat="45.572979443051786" lon="11.075037425804217"><ele>795.6666666666667</ele><time>2026-04-07T14:13:37.999Z</time></trkpt><trkpt lat="45.572802038580335" lon="11.07510403306325"><ele>794.0</ele><time>2026-04-07T14:13:38.999Z</time></trkpt><trkpt lat="45.57263676029538" lon="11.075165587120186"><ele>791.6666666666667</ele><time>2026-04-07T14:13:39.999Z</time></trkpt><trkpt lat="45.572472772849" lon="11.07523623391303"><ele>789.3333333333333</ele><time>2026-04-07T14:13:40.999Z</time></trkpt><trkpt lat="45.5723179073829" lon="11.075325032410028"><ele>787.0</ele><time>2026-04-07T14:13:41.999Z</time></trkpt><trkpt lat="45.57218600682847" lon="11.075433883453426"><ele>787.0</ele><time>2026-04-07T14:13:42.999Z</time></trkpt><trkpt lat="45.57206572568622" lon="11.075585902951536"><ele>787.0</ele><time>2026-04-07T14:13:43.999Z</time></trkpt><trkpt lat="45.57196040473262" lon="11.075758281529065"><ele>787.0</ele><time>2026-04-07T14:13:44.999Z</time></trkpt><trkpt lat="45.57185998834283" lon="11.075929589779062"><ele>783.75</ele><time>2026-04-07T14:13:45.999Z</time></trkpt><trkpt lat="45.57176019675678" lon="11.076104874744859"><ele>780.5</ele><time>2026-04-07T14:13:46.999Z</time></trkpt><trkpt lat="45.57166227898614" lon="11.07625990104637"><ele>777.25</ele><time>2026-04-07T14:13:47.999Z</time></trkpt><trkpt lat="45.57157160983463" lon="11.076404779540582"><ele>774.0</ele><time>2026-04-07T14:13:48.999Z</time></trkpt><trkpt lat="45.571486575724954" lon="11.07653816703044"><ele>772.0</ele><time>2026-04-07T14:13:49.999Z</time></trkpt><trkpt lat="45.571389151029194" lon="11.076640991008354"><ele>770.0</ele><time>2026-04-07T14:13:50.999Z</time></trkpt><trkpt lat="45.571281854656085" lon="11.076697951954268"><ele>768.0</ele><time>2026-04-07T14:13:51.999Z</time></trkpt><trkpt lat="45.5711648378557" lon="11.076691726060037"><ele>766.0</ele><time>2026-04-07T14:13:52.999Z</time></trkpt><trkpt lat="45.571049341731964" lon="11.076638797669721"><ele>767.3333333333334</ele><time>2026-04-07T14:13:53.999Z</time></trkpt><trkpt lat="45.57092322348596" lon="11.076541980242279"><ele>768.6666666666667</ele><time>2026-04-07T14:13:54.999Z</time></trkpt><trkpt lat="45.5707862053156" lon="11.07642997140208"><ele>770.0</ele><time>2026-04-07T14:13:55.999Z</time></trkpt><trkpt lat="45.57064182850017" lon="11.076331316640305"><ele>770.0</ele><time>2026-04-07T14:13:56.999Z</time></trkpt><trkpt lat="45.570483140163496" lon="11.076258033926539"><ele>770.0</ele><time>2026-04-07T14:13:57.999Z</time></trkpt><trkpt lat="45.57031049830118" lon="11.076211604878148"><ele>770.0</ele><time>2026-04-07T14:13:58.999Z</time></trkpt><trkpt lat="45.57014222148244" lon="11.076178476887796"><ele>765.6666666666667</ele><time>2026-04-07T14:13:59.999Z</time></trkpt><trkpt lat="45.56997810636928" lon="11.076165459302816"><ele>761.3333333333334</ele><time>2026-04-07T14:14:00.999Z</time></trkpt><trkpt lat="45.56981294164798" lon="11.076170266666912"><ele>757.0</ele><time>2026-04-07T14:14:01.999Z</time></trkpt><trkpt lat="45.56965634945748" lon="11.076178536337173"><ele>753.0</ele><time>2026-04-07T14:14:02.999Z</time></trkpt><trkpt lat="45.56950167645646" lon="11.076209907488165"><ele>749.0</ele><time>2026-04-07T14:14:03.999Z</time></trkpt><trkpt lat="45.56935320381282" lon="11.076291831137615"><ele>745.0</ele><time>2026-04-07T14:14:04.999Z</time></trkpt><trkpt lat="45.56920003523726" lon="11.07643196434569"><ele>740.5</ele><time>2026-04-07T14:14:05.999Z</time></trkpt><trkpt lat="45.56901999022975" lon="11.076609902743959"><ele>736.0</ele><time>2026-04-07T14:14:06.999Z</time></trkpt><trkpt lat="45.568814989084025" lon="11.076809502921034"><ele>733.5</ele><time>2026-04-07T14:14:07.999Z</time></trkpt><trkpt lat="45.56859220711017" lon="11.077026416103816"><ele>731.0</ele><time>2026-04-07T14:14:08.999Z</time></trkpt><trkpt lat="45.568385595608376" lon="11.077226833174409"><ele>731.0</ele><time>2026-04-07T14:14:09.999Z</time></trkpt><trkpt lat="45.56819352506691" lon="11.077413184434652"><ele>731.0</ele><time>2026-04-07T14:14:10.999Z</time></trkpt><trkpt lat="45.56801014579853" lon="11.077602710531744"><ele>722.5</ele><time>2026-04-07T14:14:11.999Z</time></trkpt><trkpt lat="45.567818124000816" lon="11.077777888808743"><ele>714.0</ele><time>2026-04-07T14:14:12.999Z</time></trkpt><trkpt lat="45.567617845053924" lon="11.077963844059633"><ele>714.0</ele><time>2026-04-07T14:14:13.999Z</time></trkpt><trkpt lat="45.56740378389809" lon="11.078139299905738"><ele>714.0</ele><time>2026-04-07T14:14:14.999Z</time></trkpt><trkpt lat="45.567199546074804" lon="11.07830617216132"><ele>707.5</ele><time>2026-04-07T14:14:15.999Z</time></trkpt><trkpt lat="45.567000005119574" lon="11.078485583763852"><ele>701.0</ele><time>2026-04-07T14:14:16.999Z</time></trkpt><trkpt lat="45.56680580845053" lon="11.078684579996706"><ele>701.0</ele><time>2026-04-07T14:14:17.999Z</time></trkpt><trkpt lat="45.56662749974532" lon="11.078900656274769"><ele>701.0</ele><time>2026-04-07T14:14:18.999Z</time></trkpt><trkpt lat="45.56645451290757" lon="11.07911939688102"><ele>701.0</ele><time>2026-04-07T14:14:19.999Z</time></trkpt><trkpt lat="45.5662903017826" lon="11.079325942190852"><ele>701.0</ele><time>2026-04-07T14:14:20.999Z</time></trkpt><trkpt lat="45.566136075374814" lon="11.07951002292047"><ele>701.0</ele><time>2026-04-07T14:14:21.999Z</time></trkpt><trkpt lat="45.56599888146536" lon="11.079675285833243"><ele>700.6666666666666</ele><time>2026-04-07T14:14:22.999Z</time></trkpt><trkpt lat="45.56586723365866" lon="11.079829521249001"><ele>700.3333333333334</ele><time>2026-04-07T14:14:23.999Z</time></trkpt><trkpt lat="45.56574759445363" lon="11.079971048394606"><ele>700.0</ele><time>2026-04-07T14:14:24.999Z</time></trkpt><trkpt lat="45.565641280810425" lon="11.080080545944382"><ele>700.0</ele><time>2026-04-07T14:14:25.999Z</time></trkpt><trkpt lat="45.565537989330984" lon="11.0801684723997"><ele>700.0</ele><time>2026-04-07T14:14:26.998Z</time></trkpt><trkpt lat="45.565415723586824" lon="11.080204153269129"><ele>700.0</ele><time>2026-04-07T14:14:27.998Z</time></trkpt><trkpt lat="45.56528620930651" lon="11.080224966549551"><ele>700.0</ele><time>2026-04-07T14:14:28.998Z</time></trkpt><trkpt lat="45.56513545583164" lon="11.08024852529246"><ele>700.3333333333334</ele><time>2026-04-07T14:14:29.998Z</time></trkpt><trkpt lat="45.56496437526895" lon="11.08023229520815"><ele>700.6666666666666</ele><time>2026-04-07T14:14:30.998Z</time></trkpt><trkpt lat="45.56477118226965" lon="11.080234918520965"><ele>701.0</ele><time>2026-04-07T14:14:31.998Z</time></trkpt><trkpt lat="45.564549701427325" lon="11.080211205556022"><ele>700.0</ele><time>2026-04-07T14:14:32.998Z</time></trkpt><trkpt lat="45.56429352853289" lon="11.080228482699095"><ele>699.0</ele><time>2026-04-07T14:14:33.998Z</time></trkpt><trkpt lat="45.5640469869634" lon="11.080305794135372"><ele>699.0</ele><time>2026-04-07T14:14:34.998Z</time></trkpt><trkpt lat="45.563832523629735" lon="11.080380166768334"><ele>699.0</ele><time>2026-04-07T14:14:35.998Z</time></trkpt><trkpt lat="45.56360270858263" lon="11.080454725741882"><ele>697.6666666666666</ele><time>2026-04-07T14:14:36.998Z</time></trkpt><trkpt lat="45.5633864627923" lon="11.080533635563674"><ele>696.3333333333333</ele><time>2026-04-07T14:14:37.998Z</time></trkpt><trkpt lat="45.56320111069385" lon="11.08060693655244"><ele>695.0</ele><time>2026-04-07T14:14:38.998Z</time></trkpt><trkpt lat="45.56304580913472" lon="11.080667055986737"><ele>695.0</ele><time>2026-04-07T14:14:39.998Z</time></trkpt><trkpt lat="45.562893788294176" lon="11.080749701827914"><ele>695.0</ele><time>2026-04-07T14:14:40.998Z</time></trkpt><trkpt lat="45.56274812079882" lon="11.080875163755254"><ele>695.0</ele><time>2026-04-07T14:14:41.998Z</time></trkpt><trkpt lat="45.56261206199278" lon="11.081023787938385"><ele>690.0</ele><time>2026-04-07T14:14:42.998Z</time></trkpt><trkpt lat="45.56248056946637" lon="11.081180357297054"><ele>685.0</ele><time>2026-04-07T14:14:43.998Z</time></trkpt><trkpt lat="45.5623615117823" lon="11.081341686422025"><ele>680.0</ele><time>2026-04-07T14:14:44.998Z</time></trkpt><trkpt lat="45.56225072985968" lon="11.081485787537998"><ele>680.0</ele><time>2026-04-07T14:14:45.998Z</time></trkpt><trkpt lat="45.562142977649366" lon="11.081609005811858"><ele>680.0</ele><time>2026-04-07T14:14:46.998Z</time></trkpt><trkpt lat="45.56203507984961" lon="11.081715269570436"><ele>680.0</ele><time>2026-04-07T14:14:47.998Z</time></trkpt><trkpt lat="45.56191557898004" lon="11.081792724791875"><ele>680.0</ele><time>2026-04-07T14:14:48.998Z</time></trkpt><trkpt lat="45.56177194829746" lon="11.081800878802117"><ele>679.5</ele><time>2026-04-07T14:14:49.998Z</time></trkpt><trkpt lat="45.561644127624575" lon="11.081837786659444"><ele>679.0</ele><time>2026-04-07T14:14:50.998Z</time></trkpt><trkpt lat="45.56151272744794" lon="11.08184369516414"><ele>678.5</ele><time>2026-04-07T14:14:51.998Z</time></trkpt><trkpt lat="45.56138242939359" lon="11.081876982367328"><ele>678.0</ele><time>2026-04-07T14:14:52.998Z</time></trkpt><trkpt lat="45.56125321608606" lon="11.081952600779609"><ele>677.3333333333334</ele><time>2026-04-07T14:14:53.998Z</time></trkpt><trkpt lat="45.56111665430032" lon="11.082064134637575"><ele>676.6666666666667</ele><time>2026-04-07T14:14:54.998Z</time></trkpt><trkpt lat="45.560955157267536" lon="11.082172875626094"><ele>676.0</ele><time>2026-04-07T14:14:55.998Z</time></trkpt><trkpt lat="45.560747120015144" lon="11.082316613797142"><ele>673.0</ele><time>2026-04-07T14:14:56.998Z</time></trkpt><trkpt lat="45.560517733019154" lon="11.082434244086786"><ele>670.0</ele><time>2026-04-07T14:14:57.998Z</time></trkpt><trkpt lat="45.56027124394454" lon="11.082523570567815"><ele>665.5</ele><time>2026-04-07T14:14:58.998Z</time></trkpt><trkpt lat="45.559994485766275" lon="11.082613662477906"><ele>661.0</ele><time>2026-04-07T14:14:59.998Z</time></trkpt><trkpt lat="45.55970502924693" lon="11.082723971112225"><ele>658.0</ele><time>2026-04-07T14:15:00.998Z</time></trkpt><trkpt lat="45.559405881769834" lon="11.082817639265382"><ele>655.0</ele><time>2026-04-07T14:15:01.998Z</time></trkpt><trkpt lat="45.55910200091751" lon="11.082918346817848"><ele>655.0</ele><time>2026-04-07T14:15:02.998Z</time></trkpt><trkpt lat="45.55881080038724" lon="11.083015640697042"><ele>655.0</ele><time>2026-04-07T14:15:03.998Z</time></trkpt><trkpt lat="45.558545445535216" lon="11.083100623075016"><ele>653.5</ele><time>2026-04-07T14:15:05Z</time></trkpt><trkpt lat="45.55829302337463" lon="11.083183458021363"><ele>652.0</ele><time>2026-04-07T14:15:06Z</time></trkpt><trkpt lat="45.55803765064838" lon="11.083266018611036"><ele>648.5</ele><time>2026-04-07T14:15:07Z</time></trkpt><trkpt lat="45.55780077772008" lon="11.0833413461812"><ele>645.0</ele><time>2026-04-07T14:15:08Z</time></trkpt><trkpt lat="45.55758249336554" lon="11.083414382040841"><ele>645.0</ele><time>2026-04-07T14:15:09Z</time></trkpt><trkpt lat="45.557380950264836" lon="11.083471196011013"><ele>645.0</ele><time>2026-04-07T14:15:10Z</time></trkpt><trkpt lat="45.557211362259004" lon="11.083518326391065"><ele>645.0</ele><time>2026-04-07T14:15:11Z</time></trkpt><trkpt lat="45.55707909233685" lon="11.083579034692674"><ele>645.3333333333334</ele><time>2026-04-07T14:15:12Z</time></trkpt><trkpt lat="45.556963982599115" lon="11.083716946457445"><ele>645.6666666666667</ele><time>2026-04-07T14:15:13Z</time></trkpt><trkpt lat="45.55684830613533" lon="11.083913670389054"><ele>646.0</ele><time>2026-04-07T14:15:14Z</time></trkpt><trkpt lat="45.556739835139616" lon="11.084132861037341"><ele>646.0</ele><time>2026-04-07T14:15:15Z</time></trkpt><trkpt lat="45.55658217172643" lon="11.08431014324997"><ele>646.0</ele><time>2026-04-07T14:15:16Z</time></trkpt><trkpt lat="45.55643381931113" lon="11.084461265295715"><ele>646.0</ele><time>2026-04-07T14:15:17Z</time></trkpt><trkpt lat="45.55629397347127" lon="11.084585659254182"><ele>644.3333333333334</ele><time>2026-04-07T14:15:18Z</time></trkpt><trkpt lat="45.556142045791766" lon="11.084660852776427"><ele>642.6666666666666</ele><time>2026-04-07T14:15:19Z</time></trkpt><trkpt lat="45.55599083252448" lon="11.084666307184598"><ele>641.0</ele><time>2026-04-07T14:15:20Z</time></trkpt><trkpt lat="45.55585613930295" lon="11.084597997508888"><ele>641.0</ele><time>2026-04-07T14:15:21Z</time></trkpt><trkpt lat="45.55572962895017" lon="11.084487597635524"><ele>641.0</ele><time>2026-04-07T14:15:22Z</time></trkpt><trkpt lat="45.55558939208676" lon="11.084357609807268"><ele>641.0</ele><time>2026-04-07T14:15:23Z</time></trkpt><trkpt lat="45.55545074845535" lon="11.084240525477036"><ele>640.0</ele><time>2026-04-07T14:15:24Z</time></trkpt><trkpt lat="45.55532711968211" lon="11.084139117281362"><ele>639.0</ele><time>2026-04-07T14:15:25Z</time></trkpt><trkpt lat="45.55519869807162" lon="11.084097815630605"><ele>638.0</ele><time>2026-04-07T14:15:26Z</time></trkpt><trkpt lat="45.5550678028649" lon="11.08414487754557"><ele>637.0</ele><time>2026-04-07T14:15:27Z</time></trkpt><trkpt lat="45.554931577060295" lon="11.08426460296437"><ele>637.0</ele><time>2026-04-07T14:15:28Z</time></trkpt><trkpt lat="45.55480223151102" lon="11.084427443622264"><ele>637.0</ele><time>2026-04-07T14:15:29Z</time></trkpt><trkpt lat="45.554670072395254" lon="11.084596224985676"><ele>637.0</ele><time>2026-04-07T14:15:30Z</time></trkpt><trkpt lat="45.554565627626076" lon="11.084814258626169"><ele>634.0</ele><time>2026-04-07T14:15:31Z</time></trkpt><trkpt lat="45.5543735178319" lon="11.084815724534772"><ele>631.0</ele><time>2026-04-07T14:15:32Z</time></trkpt><trkpt lat="45.55420300676571" lon="11.08487470823736"><ele>628.0</ele><time>2026-04-07T14:15:33Z</time></trkpt><trkpt lat="45.55402014474592" lon="11.084886712866156"><ele>628.0</ele><time>2026-04-07T14:15:34Z</time></trkpt><trkpt lat="45.55386815713974" lon="11.084857028200004"><ele>628.0</ele><time>2026-04-07T14:15:35Z</time></trkpt><trkpt lat="45.55373480746604" lon="11.08483258620033"><ele>628.0</ele><time>2026-04-07T14:15:36Z</time></trkpt><trkpt lat="45.553613117490464" lon="11.084819026768946"><ele>628.0</ele><time>2026-04-07T14:15:37Z</time></trkpt><trkpt lat="45.553488684393024" lon="11.084818244673102"><ele>628.25</ele><time>2026-04-07T14:15:38Z</time></trkpt><trkpt lat="45.55336821246219" lon="11.084837808519374"><ele>628.5</ele><time>2026-04-07T14:15:39Z</time></trkpt><trkpt lat="45.55324396880426" lon="11.084882104090868"><ele>628.75</ele><time>2026-04-07T14:15:40Z</time></trkpt><trkpt lat="45.553112282406104" lon="11.084945258466497"><ele>629.0</ele><time>2026-04-07T14:15:41Z</time></trkpt><trkpt lat="45.55296910677958" lon="11.085045381357007"><ele>631.6666666666666</ele><time>2026-04-07T14:15:42Z</time></trkpt><trkpt lat="45.552825787313495" lon="11.085168409515632"><ele>634.3333333333334</ele><time>2026-04-07T14:15:42.999Z</time></trkpt><trkpt lat="45.55269092742975" lon="11.08530312923897"><ele>637.0</ele><time>2026-04-07T14:15:43.999Z</time></trkpt><trkpt lat="45.552562739606174" lon="11.085440887330702"><ele>637.0</ele><time>2026-04-07T14:15:44.999Z</time></trkpt><trkpt lat="45.55243218337325" lon="11.08558471739416"><ele>637.0</ele><time>2026-04-07T14:15:45.999Z</time></trkpt><trkpt lat="45.552310121821726" lon="11.085716115623068"><ele>637.0</ele><time>2026-04-07T14:15:46.999Z</time></trkpt><trkpt lat="45.55219000982767" lon="11.085845876766871"><ele>637.25</ele><time>2026-04-07T14:15:47.999Z</time></trkpt><trkpt lat="45.552075714094386" lon="11.085956763991105"><ele>637.5</ele><time>2026-04-07T14:15:48.999Z</time></trkpt><trkpt lat="45.551966654898216" lon="11.086063421178412"><ele>637.75</ele><time>2026-04-07T14:15:49.999Z</time></trkpt><trkpt lat="45.55185903979297" lon="11.086175733957974"><ele>638.0</ele><time>2026-04-07T14:15:50.999Z</time></trkpt><trkpt lat="45.551763028815564" lon="11.086268043975085"><ele>638.0</ele><time>2026-04-07T14:15:51.999Z</time></trkpt><trkpt lat="45.55167157363594" lon="11.086360244655536"><ele>638.0</ele><time>2026-04-07T14:15:52.999Z</time></trkpt><trkpt lat="45.551579050267435" lon="11.086451381786457"><ele>638.0</ele><time>2026-04-07T14:15:53.999Z</time></trkpt><trkpt lat="45.551484572187704" lon="11.086529876779581"><ele>638.0</ele><time>2026-04-07T14:15:54.999Z</time></trkpt><trkpt lat="45.55138584357552" lon="11.086615399897653"><ele>638.0</ele><time>2026-04-07T14:15:55.999Z</time></trkpt><trkpt lat="45.55127431122072" lon="11.086692211548334"><ele>638.25</ele><time>2026-04-07T14:15:56.999Z</time></trkpt><trkpt lat="45.551157520052385" lon="11.08675988258866"><ele>638.5</ele><time>2026-04-07T14:15:57.999Z</time></trkpt><trkpt lat="45.551039316754895" lon="11.086822022230228"><ele>638.75</ele><time>2026-04-07T14:15:58.999Z</time></trkpt><trkpt lat="45.55092181741706" lon="11.086882352683071"><ele>639.0</ele><time>2026-04-07T14:15:59.999Z</time></trkpt><trkpt lat="45.55080019911022" lon="11.086954886656242"><ele>639.0</ele><time>2026-04-07T14:16:00.999Z</time></trkpt><trkpt lat="45.55068011382464" lon="11.087024816008975"><ele>639.0</ele><time>2026-04-07T14:16:01.999Z</time></trkpt><trkpt lat="45.55055810247249" lon="11.08710165448791"><ele>639.0</ele><time>2026-04-07T14:16:02.999Z</time></trkpt><trkpt lat="45.55044651981782" lon="11.087180284044093"><ele>639.0</ele><time>2026-04-07T14:16:03.999Z</time></trkpt><trkpt lat="45.550345342163524" lon="11.087267889206078"><ele>638.5</ele><time>2026-04-07T14:16:04.999Z</time></trkpt><trkpt lat="45.55024892516444" lon="11.087370228819388"><ele>638.0</ele><time>2026-04-07T14:16:05.999Z</time></trkpt><trkpt lat="45.55015551709142" lon="11.08748607759216"><ele>637.5</ele><time>2026-04-07T14:16:06.999Z</time></trkpt><trkpt lat="45.550064607541216" lon="11.087624342422746"><ele>637.0</ele><time>2026-04-07T14:16:07.999Z</time></trkpt><trkpt lat="45.54997952735876" lon="11.08776223105152"><ele>636.25</ele><time>2026-04-07T14:16:08.999Z</time></trkpt><trkpt lat="45.549896578656714" lon="11.087897089026002"><ele>635.5</ele><time>2026-04-07T14:16:09.999Z</time></trkpt><trkpt lat="45.54981498297425" lon="11.088031194162971"><ele>634.75</ele><time>2026-04-07T14:16:10.999Z</time></trkpt><trkpt lat="45.549726935690835" lon="11.08816115771067"><ele>634.0</ele><time>2026-04-07T14:16:11.999Z</time></trkpt><trkpt lat="45.54964126212157" lon="11.08829713106818"><ele>634.25</ele><time>2026-04-07T14:16:12.999Z</time></trkpt><trkpt lat="45.54955334333736" lon="11.088434270141846"><ele>634.5</ele><time>2026-04-07T14:16:13.999Z</time></trkpt><trkpt lat="45.54946732063711" lon="11.088580773033891"><ele>634.75</ele><time>2026-04-07T14:16:14.999Z</time></trkpt><trkpt lat="45.549379889404904" lon="11.088735258081263"><ele>635.0</ele><time>2026-04-07T14:16:15.999Z</time></trkpt><trkpt lat="45.54929443377806" lon="11.088896931567133"><ele>635.0</ele><time>2026-04-07T14:16:16.999Z</time></trkpt><trkpt lat="45.54922199253804" lon="11.089071581929105"><ele>635.0</ele><time>2026-04-07T14:16:17.999Z</time></trkpt><trkpt lat="45.54915216851677" lon="11.08925521804529"><ele>635.0</ele><time>2026-04-07T14:16:18.999Z</time></trkpt><trkpt lat="45.549078530655514" lon="11.089431498952793"><ele>635.0</ele><time>2026-04-07T14:16:19.999Z</time></trkpt><trkpt lat="45.54900352497633" lon="11.08958750987104"><ele>633.75</ele><time>2026-04-07T14:16:20.999Z</time></trkpt><trkpt lat="45.54891700007517" lon="11.089723104378765"><ele>632.5</ele><time>2026-04-07T14:16:21.999Z</time></trkpt><trkpt lat="45.548812359353995" lon="11.089833953176042"><ele>631.25</ele><time>2026-04-07T14:16:22.999Z</time></trkpt><trkpt lat="45.54869361889964" lon="11.089929386549281"><ele>630.0</ele><time>2026-04-07T14:16:23.999Z</time></trkpt><trkpt lat="45.54856852931931" lon="11.089992985587973"><ele>627.5</ele><time>2026-04-07T14:16:24.999Z</time></trkpt><trkpt lat="45.54843762283662" lon="11.090038014789842"><ele>625.0</ele><time>2026-04-07T14:16:25.999Z</time></trkpt><trkpt lat="45.54829422638185" lon="11.090068003826474"><ele>622.5</ele><time>2026-04-07T14:16:26.999Z</time></trkpt><trkpt lat="45.548128791048306" lon="11.090065934094671"><ele>620.0</ele><time>2026-04-07T14:16:27.999Z</time></trkpt><trkpt lat="45.547946446283824" lon="11.090050398792862"><ele>617.6666666666666</ele><time>2026-04-07T14:16:28.999Z</time></trkpt><trkpt lat="45.54777013410783" lon="11.090029620162198"><ele>615.3333333333334</ele><time>2026-04-07T14:16:29.999Z</time></trkpt><trkpt lat="45.5476018833941" lon="11.089990820783274"><ele>613.0</ele><time>2026-04-07T14:16:30.999Z</time></trkpt><trkpt lat="45.54745173921837" lon="11.08993335231948"><ele>612.0</ele><time>2026-04-07T14:16:31.999Z</time></trkpt><trkpt lat="45.54731615322186" lon="11.089833084566662"><ele>611.0</ele><time>2026-04-07T14:16:32.999Z</time></trkpt><trkpt lat="45.54717501811145" lon="11.089749695551507"><ele>610.0</ele><time>2026-04-07T14:16:33.999Z</time></trkpt><trkpt lat="45.54704263828781" lon="11.089626026872736"><ele>610.0</ele><time>2026-04-07T14:16:34.999Z</time></trkpt><trkpt lat="45.54690054497404" lon="11.089487344195145"><ele>610.0</ele><time>2026-04-07T14:16:35.999Z</time></trkpt><trkpt lat="45.54675208161414" lon="11.089355848568529"><ele>610.0</ele><time>2026-04-07T14:16:36.998Z</time></trkpt><trkpt lat="45.546593019748784" lon="11.08922983982476"><ele>612.0</ele><time>2026-04-07T14:16:37.998Z</time></trkpt><trkpt lat="45.54644296624463" lon="11.089089899591363"><ele>614.0</ele><time>2026-04-07T14:16:38.998Z</time></trkpt><trkpt lat="45.54627597401256" lon="11.088980085527346"><ele>616.0</ele><time>2026-04-07T14:16:39.998Z</time></trkpt><trkpt lat="45.54610051735809" lon="11.088893753535004"><ele>609.6666666666667</ele><time>2026-04-07T14:16:40.998Z</time></trkpt><trkpt lat="45.54590744465933" lon="11.088830210519392"><ele>603.3333333333334</ele><time>2026-04-07T14:16:41.998Z</time></trkpt><trkpt lat="45.54569767747349" lon="11.088809906259938"><ele>597.0</ele><time>2026-04-07T14:16:42.998Z</time></trkpt><trkpt lat="45.54547850221782" lon="11.08881206908789"><ele>596.6666666666666</ele><time>2026-04-07T14:16:43.998Z</time></trkpt><trkpt lat="45.54526315496319" lon="11.088832069132769"><ele>596.3333333333333</ele><time>2026-04-07T14:16:44.998Z</time></trkpt><trkpt lat="45.545046990754145" lon="11.08885269078945"><ele>596.0</ele><time>2026-04-07T14:16:45.998Z</time></trkpt><trkpt lat="45.54483606630648" lon="11.088875833976529"><ele>596.0</ele><time>2026-04-07T14:16:46.998Z</time></trkpt><trkpt lat="45.54462891887393" lon="11.088910221314578"><ele>596.0</ele><time>2026-04-07T14:16:47.998Z</time></trkpt><trkpt lat="45.544423677631265" lon="11.088952061958047"><ele>596.0</ele><time>2026-04-07T14:16:48.998Z</time></trkpt><trkpt lat="45.54421976912006" lon="11.089009503909274"><ele>597.0</ele><time>2026-04-07T14:16:49.998Z</time></trkpt><trkpt lat="45.54400795696329" lon="11.089088365635176"><ele>598.0</ele><time>2026-04-07T14:16:50.998Z</time></trkpt><trkpt lat="45.543782550115445" lon="11.089182819471748"><ele>596.5</ele><time>2026-04-07T14:16:51.998Z</time></trkpt><trkpt lat="45.543552038448894" lon="11.089289649184021"><ele>595.0</ele><time>2026-04-07T14:16:52.998Z</time></trkpt><trkpt lat="45.54330500384326" lon="11.089410138455278"><ele>595.0</ele><time>2026-04-07T14:16:53.998Z</time></trkpt><trkpt lat="45.543022249619405" lon="11.089540519963004"><ele>595.0</ele><time>2026-04-07T14:16:54.998Z</time></trkpt><trkpt lat="45.542868278078494" lon="11.089634665761732"><ele>595.3333333333334</ele><time>2026-04-07T14:16:55.998Z</time></trkpt><trkpt lat="45.54267718330992" lon="11.089737103259106"><ele>595.6666666666666</ele><time>2026-04-07T14:16:56.998Z</time></trkpt><trkpt lat="45.54249111163855" lon="11.08986135243977"><ele>596.0</ele><time>2026-04-07T14:16:57.998Z</time></trkpt><trkpt lat="45.542323262675964" lon="11.09001173784489"><ele>596.0</ele><time>2026-04-07T14:16:58.998Z</time></trkpt><trkpt lat="45.54215857193999" lon="11.090152181771987"><ele>596.0</ele><time>2026-04-07T14:16:59.998Z</time></trkpt><trkpt lat="45.54199832968168" lon="11.090249219554526"><ele>596.0</ele><time>2026-04-07T14:17:00.998Z</time></trkpt><trkpt lat="45.54184535586401" lon="11.090307808461441"><ele>596.6666666666666</ele><time>2026-04-07T14:17:01.998Z</time></trkpt><trkpt lat="45.54168897230164" lon="11.090332062976236"><ele>597.3333333333334</ele><time>2026-04-07T14:17:02.998Z</time></trkpt><trkpt lat="45.54152676191521" lon="11.090309620686737"><ele>598.0</ele><time>2026-04-07T14:17:03.998Z</time></trkpt><trkpt lat="45.54135173761384" lon="11.090269996236346"><ele>596.3333333333334</ele><time>2026-04-07T14:17:04.998Z</time></trkpt><trkpt lat="45.5411718410872" lon="11.090190434687162"><ele>594.6666666666666</ele><time>2026-04-07T14:17:05.998Z</time></trkpt><trkpt lat="45.54098459308486" lon="11.090121475922487"><ele>593.0</ele><time>2026-04-07T14:17:06.998Z</time></trkpt><trkpt lat="45.54079410985443" lon="11.09005187429032"><ele>593.0</ele><time>2026-04-07T14:17:07.998Z</time></trkpt><trkpt lat="45.5405856217302" lon="11.090013633905546"><ele>593.0</ele><time>2026-04-07T14:17:08.998Z</time></trkpt><trkpt lat="45.54036504963711" lon="11.090058824622055"><ele>593.0</ele><time>2026-04-07T14:17:09.998Z</time></trkpt><trkpt lat="45.54014115454983" lon="11.090182018646546"><ele>591.5</ele><time>2026-04-07T14:17:11Z</time></trkpt><trkpt lat="45.5399275655074" lon="11.090301696210702"><ele>590.0</ele><time>2026-04-07T14:17:12Z</time></trkpt><trkpt lat="45.53972063620323" lon="11.090451564267864"><ele>593.3333333333333</ele><time>2026-04-07T14:17:13Z</time></trkpt><trkpt lat="45.53953432375744" lon="11.090610109095488"><ele>596.6666666666666</ele><time>2026-04-07T14:17:14Z</time></trkpt><trkpt lat="45.539353217039476" lon="11.090756954530734"><ele>600.0</ele><time>2026-04-07T14:17:15Z</time></trkpt><trkpt lat="45.539182020381304" lon="11.090874531336034"><ele>601.3333333333334</ele><time>2026-04-07T14:17:16Z</time></trkpt><trkpt lat="45.53901234877775" lon="11.090951761587238"><ele>602.6666666666667</ele><time>2026-04-07T14:17:17Z</time></trkpt><trkpt lat="45.53883163676272" lon="11.090969153227961"><ele>604.0</ele><time>2026-04-07T14:17:18Z</time></trkpt><trkpt lat="45.53864587891821" lon="11.090978476664898"><ele>606.0</ele><time>2026-04-07T14:17:19Z</time></trkpt><trkpt lat="45.538450401870264" lon="11.090990462808234"><ele>608.0</ele><time>2026-04-07T14:17:20Z</time></trkpt><trkpt lat="45.5382543540142" lon="11.090989148703835"><ele>610.0</ele><time>2026-04-07T14:17:21Z</time></trkpt><trkpt lat="45.53805978894991" lon="11.091008049133674"><ele>613.6666666666667</ele><time>2026-04-07T14:17:22Z</time></trkpt><trkpt lat="45.537854859133134" lon="11.091054488787135"><ele>617.3333333333334</ele><time>2026-04-07T14:17:23Z</time></trkpt><trkpt lat="45.537648796662786" lon="11.091162355035056"><ele>621.0</ele><time>2026-04-07T14:17:24Z</time></trkpt><trkpt lat="45.53745648737196" lon="11.09131502909214"><ele>621.0</ele><time>2026-04-07T14:17:25Z</time></trkpt><trkpt lat="45.53728492055101" lon="11.091459706421078"><ele>621.0</ele><time>2026-04-07T14:17:26Z</time></trkpt><trkpt lat="45.5371103396156" lon="11.091572409188847"><ele>621.0</ele><time>2026-04-07T14:17:27Z</time></trkpt><trkpt lat="45.53693644768945" lon="11.091635029196828"><ele>621.0</ele><time>2026-04-07T14:17:28Z</time></trkpt><trkpt lat="45.53675807711069" lon="11.091658129370078"><ele>621.0</ele><time>2026-04-07T14:17:29Z</time></trkpt><trkpt lat="45.53656811211156" lon="11.091645117566992"><ele>621.0</ele><time>2026-04-07T14:17:30Z</time></trkpt><trkpt lat="45.53635729551531" lon="11.091600153304997"><ele>626.5</ele><time>2026-04-07T14:17:31Z</time></trkpt><trkpt lat="45.536133280651676" lon="11.091527678312064"><ele>632.0</ele><time>2026-04-07T14:17:32Z</time></trkpt><trkpt lat="45.5359150637522" lon="11.091446236464582"><ele>632.0</ele><time>2026-04-07T14:17:33Z</time></trkpt><trkpt lat="45.5356929778145" lon="11.0913824896914"><ele>632.0</ele><time>2026-04-07T14:17:34Z</time></trkpt><trkpt lat="45.53544815723173" lon="11.091377672763516"><ele>632.0</ele><time>2026-04-07T14:17:35Z</time></trkpt><trkpt lat="45.535200019554544" lon="11.091428253767088"><ele>632.0</ele><time>2026-04-07T14:17:36Z</time></trkpt><trkpt lat="45.534952600459796" lon="11.091516340231534"><ele>628.0</ele><time>2026-04-07T14:17:37Z</time></trkpt><trkpt lat="45.53470448841005" lon="11.091611022209792"><ele>624.0</ele><time>2026-04-07T14:17:38Z</time></trkpt><trkpt lat="45.53446163298015" lon="11.091689984040766"><ele>624.0</ele><time>2026-04-07T14:17:39Z</time></trkpt><trkpt lat="45.53421125538528" lon="11.091739563917734"><ele>624.0</ele><time>2026-04-07T14:17:40Z</time></trkpt><trkpt lat="45.533960749447985" lon="11.09176625300509"><ele>623.5</ele><time>2026-04-07T14:17:41Z</time></trkpt><trkpt lat="45.533714761391785" lon="11.091791756989107"><ele>623.0</ele><time>2026-04-07T14:17:42Z</time></trkpt><trkpt lat="45.53348045800453" lon="11.0918252045662"><ele>623.0</ele><time>2026-04-07T14:17:43Z</time></trkpt><trkpt lat="45.53325494333962" lon="11.091877397684325"><ele>623.0</ele><time>2026-04-07T14:17:44Z</time></trkpt><trkpt lat="45.53302756008813" lon="11.091946079861652"><ele>623.6666666666666</ele><time>2026-04-07T14:17:45Z</time></trkpt><trkpt lat="45.532804545655864" lon="11.092017806859369"><ele>624.3333333333334</ele><time>2026-04-07T14:17:46Z</time></trkpt><trkpt lat="45.53260978593204" lon="11.09208906353989"><ele>625.0</ele><time>2026-04-07T14:17:47Z</time></trkpt><trkpt lat="45.532420489946304" lon="11.092156719524763"><ele>625.0</ele><time>2026-04-07T14:17:48Z</time></trkpt><trkpt lat="45.532251007710514" lon="11.092206594226678"><ele>625.0</ele><time>2026-04-07T14:17:49Z</time></trkpt><trkpt lat="45.53209047561054" lon="11.092254430144422"><ele>625.0</ele><time>2026-04-07T14:17:50Z</time></trkpt><trkpt lat="45.53192861610199" lon="11.092303828270762"><ele>624.0</ele><time>2026-04-07T14:17:51Z</time></trkpt><trkpt lat="45.53176817932007" lon="11.092351493185278"><ele>623.0</ele><time>2026-04-07T14:17:52Z</time></trkpt><trkpt lat="45.53160418367338" lon="11.092389119709086"><ele>622.0</ele><time>2026-04-07T14:17:53Z</time></trkpt><trkpt lat="45.53143586842016" lon="11.092414361989624"><ele>621.6666666666667</ele><time>2026-04-07T14:17:54Z</time></trkpt><trkpt lat="45.53128076084792" lon="11.092428638422778"><ele>621.3333333333334</ele><time>2026-04-07T14:17:54.999Z</time></trkpt><trkpt lat="45.53112822989521" lon="11.09243429798098"><ele>621.0</ele><time>2026-04-07T14:17:55.999Z</time></trkpt><trkpt lat="45.530966264207116" lon="11.09240442679494"><ele>621.0</ele><time>2026-04-07T14:17:56.999Z</time></trkpt><trkpt lat="45.53081880893427" lon="11.092353333460249"><ele>621.0</ele><time>2026-04-07T14:17:57.999Z</time></trkpt><trkpt lat="45.53065936690596" lon="11.092276979790478"><ele>621.0</ele><time>2026-04-07T14:17:58.999Z</time></trkpt><trkpt lat="45.53052120497451" lon="11.092159577833382"><ele>618.3333333333334</ele><time>2026-04-07T14:17:59.999Z</time></trkpt><trkpt lat="45.53037907166981" lon="11.092035845177879"><ele>615.6666666666667</ele><time>2026-04-07T14:18:00.999Z</time></trkpt><trkpt lat="45.53023810832649" lon="11.091916130534965"><ele>613.0</ele><time>2026-04-07T14:18:01.999Z</time></trkpt><trkpt lat="45.53009113398238" lon="11.091835623114141"><ele>613.0</ele><time>2026-04-07T14:18:02.999Z</time></trkpt><trkpt lat="45.52993205210244" lon="11.091803774231252"><ele>613.0</ele><time>2026-04-07T14:18:03.999Z</time></trkpt><trkpt lat="45.529755257490244" lon="11.091812398088877"><ele>613.0</ele><time>2026-04-07T14:18:04.999Z</time></trkpt><trkpt lat="45.52958485288508" lon="11.091846084762274"><ele>612.0</ele><time>2026-04-07T14:18:05.999Z</time></trkpt><trkpt lat="45.52942866817295" lon="11.091867607169199"><ele>611.0</ele><time>2026-04-07T14:18:06.999Z</time></trkpt><trkpt lat="45.52926485548395" lon="11.091885716622617"><ele>610.0</ele><time>2026-04-07T14:18:07.999Z</time></trkpt><trkpt lat="45.52909113955812" lon="11.09188983778852"><ele>610.0</ele><time>2026-04-07T14:18:08.999Z</time></trkpt><trkpt lat="45.52892638386105" lon="11.091880208257262"><ele>610.0</ele><time>2026-04-07T14:18:09.999Z</time></trkpt><trkpt lat="45.52876335332168" lon="11.091850662984195"><ele>610.0</ele><time>2026-04-07T14:18:10.999Z</time></trkpt><trkpt lat="45.528608579480185" lon="11.091809510118557"><ele>609.8</ele><time>2026-04-07T14:18:11.999Z</time></trkpt><trkpt lat="45.528470673956406" lon="11.091766379297978"><ele>609.6</ele><time>2026-04-07T14:18:12.999Z</time></trkpt><trkpt lat="45.52834667325888" lon="11.091727477765252"><ele>609.4</ele><time>2026-04-07T14:18:13.999Z</time></trkpt><trkpt lat="45.528248739491666" lon="11.091693656821436"><ele>609.2</ele><time>2026-04-07T14:18:14.999Z</time></trkpt><trkpt lat="45.52817331826477" lon="11.091673036769436"><ele>609.0</ele><time>2026-04-07T14:18:15.999Z</time></trkpt><trkpt lat="45.52808178169581" lon="11.091739039755392"><ele>609.0</ele><time>2026-04-07T14:18:17.999Z</time></trkpt><trkpt lat="45.52813340264861" lon="11.091886873243224"><ele>609.0</ele><time>2026-04-07T14:18:19.999Z</time></trkpt><trkpt lat="45.52821707902424" lon="11.091922779357304"><ele>609.0</ele><time>2026-04-07T14:18:20.999Z</time></trkpt><trkpt lat="45.52831503789308" lon="11.09193522422943"><ele>609.0</ele><time>2026-04-07T14:18:21.999Z</time></trkpt><trkpt lat="45.528436964023086" lon="11.09195699262153"><ele>609.0</ele><time>2026-04-07T14:18:22.999Z</time></trkpt><trkpt lat="45.528577799144166" lon="11.092002468850989"><ele>609.0</ele><time>2026-04-07T14:18:23.999Z</time></trkpt><trkpt lat="45.5287237850708" lon="11.092074622633913"><ele>609.0</ele><time>2026-04-07T14:18:24.999Z</time></trkpt><trkpt lat="45.52886061673075" lon="11.092154648642211"><ele>609.0</ele><time>2026-04-07T14:18:25.999Z</time></trkpt><trkpt lat="45.52897746708275" lon="11.092266342557236"><ele>609.0</ele><time>2026-04-07T14:18:26.999Z</time></trkpt><trkpt lat="45.52910369797258" lon="11.092324459576938"><ele>609.25</ele><time>2026-04-07T14:18:27.999Z</time></trkpt><trkpt lat="45.52923407629703" lon="11.092354488389482"><ele>609.5</ele><time>2026-04-07T14:18:28.999Z</time></trkpt><trkpt lat="45.52937962201032" lon="11.092344015112255"><ele>609.75</ele><time>2026-04-07T14:18:29.999Z</time></trkpt><trkpt lat="45.52952696906232" lon="11.092306863433244"><ele>610.0</ele><time>2026-04-07T14:18:30.999Z</time></trkpt><trkpt lat="45.529637259960595" lon="11.092301695143796"><ele>610.6</ele><time>2026-04-07T14:18:31.999Z</time></trkpt><trkpt lat="45.529731798539224" lon="11.092320470748803"><ele>611.2</ele><time>2026-04-07T14:18:32.999Z</time></trkpt><trkpt lat="45.52981548690884" lon="11.092347035714976"><ele>611.8</ele><time>2026-04-07T14:18:33.999Z</time></trkpt><trkpt lat="45.52987036450275" lon="11.092441936319151"><ele>612.4</ele><time>2026-04-07T14:18:34.999Z</time></trkpt><trkpt lat="45.52990538926854" lon="11.092569077200386"><ele>613.0</ele><time>2026-04-07T14:18:35.999Z</time></trkpt><trkpt lat="45.52989233741682" lon="11.092721719777625"><ele>610.5</ele><time>2026-04-07T14:18:36.999Z</time></trkpt><trkpt lat="45.52987433594688" lon="11.09287990497997"><ele>608.0</ele><time>2026-04-07T14:18:37.999Z</time></trkpt><trkpt lat="45.52983076591226" lon="11.093053150338598"><ele>605.5</ele><time>2026-04-07T14:18:38.999Z</time></trkpt><trkpt lat="45.52979237850541" lon="11.093231756992612"><ele>603.0</ele><time>2026-04-07T14:18:39.999Z</time></trkpt><trkpt lat="45.52977082857615" lon="11.09342935928149"><ele>599.3333333333334</ele><time>2026-04-07T14:18:40.999Z</time></trkpt><trkpt lat="45.52977257504453" lon="11.093659272489928"><ele>595.6666666666667</ele><time>2026-04-07T14:18:41.999Z</time></trkpt><trkpt lat="45.52975704492341" lon="11.093865083725264"><ele>592.0</ele><time>2026-04-07T14:18:42.999Z</time></trkpt><trkpt lat="45.52976202795604" lon="11.094076473015306"><ele>590.25</ele><time>2026-04-07T14:18:43.999Z</time></trkpt><trkpt lat="45.52976669237636" lon="11.094272715644705"><ele>588.5</ele><time>2026-04-07T14:18:44.999Z</time></trkpt><trkpt lat="45.529792632250974" lon="11.094483276786873"><ele>586.75</ele><time>2026-04-07T14:18:45.998Z</time></trkpt><trkpt lat="45.52984276969712" lon="11.094688317129556"><ele>585.0</ele><time>2026-04-07T14:18:46.998Z</time></trkpt><trkpt lat="45.529912807374245" lon="11.094895461932389"><ele>583.3333333333334</ele><time>2026-04-07T14:18:47.998Z</time></trkpt><trkpt lat="45.53000112842246" lon="11.095100019664832"><ele>581.6666666666667</ele><time>2026-04-07T14:18:48.998Z</time></trkpt><trkpt lat="45.530083321872496" lon="11.095308261520664"><ele>580.0</ele><time>2026-04-07T14:18:49.998Z</time></trkpt><trkpt lat="45.53017697252236" lon="11.095502255711276"><ele>580.0</ele><time>2026-04-07T14:18:50.998Z</time></trkpt><trkpt lat="45.530287930985075" lon="11.095667547144602"><ele>580.0</ele><time>2026-04-07T14:18:51.998Z</time></trkpt><trkpt lat="45.53040906149541" lon="11.095785755086585"><ele>580.0</ele><time>2026-04-07T14:18:52.998Z</time></trkpt><trkpt lat="45.530511468741736" lon="11.095891823780665"><ele>580.0</ele><time>2026-04-07T14:18:53.998Z</time></trkpt><trkpt lat="45.530581293355155" lon="11.095999884399843"><ele>577.6</ele><time>2026-04-07T14:18:54.998Z</time></trkpt><trkpt lat="45.53064253164935" lon="11.09610990122592"><ele>575.2</ele><time>2026-04-07T14:18:55.998Z</time></trkpt><trkpt lat="45.53068669295933" lon="11.096240271861479"><ele>572.8</ele><time>2026-04-07T14:18:56.998Z</time></trkpt><trkpt lat="45.53072259911234" lon="11.096401974266207"><ele>570.4</ele><time>2026-04-07T14:18:57.998Z</time></trkpt><trkpt lat="45.530740727910405" lon="11.096576317285091"><ele>568.0</ele><time>2026-04-07T14:18:58.998Z</time></trkpt><trkpt lat="45.530754576017856" lon="11.096741225699471"><ele>565.6</ele><time>2026-04-07T14:18:59.998Z</time></trkpt><trkpt lat="45.53077289920121" lon="11.096875111097415"><ele>563.1999999999999</ele><time>2026-04-07T14:19:00.998Z</time></trkpt><trkpt lat="45.53077550197187" lon="11.09699029548761"><ele>560.8</ele><time>2026-04-07T14:19:01.998Z</time></trkpt><trkpt lat="45.53074494937653" lon="11.097107336982631"><ele>558.4</ele><time>2026-04-07T14:19:02.998Z</time></trkpt><trkpt lat="45.530675997497525" lon="11.09725245278503"><ele>556.0</ele><time>2026-04-07T14:19:03.998Z</time></trkpt><trkpt lat="45.53058005112299" lon="11.097417949956196"><ele>552.0</ele><time>2026-04-07T14:19:04.998Z</time></trkpt><trkpt lat="45.5304792467679" lon="11.097599898336751"><ele>548.0</ele><time>2026-04-07T14:19:05.998Z</time></trkpt><trkpt lat="45.5303545374339" lon="11.097771171250885"><ele>544.0</ele><time>2026-04-07T14:19:06.998Z</time></trkpt><trkpt lat="45.53026688272232" lon="11.097950707562969"><ele>544.0</ele><time>2026-04-07T14:19:07.998Z</time></trkpt><trkpt lat="45.53016575504326" lon="11.09812740527786"><ele>544.0</ele><time>2026-04-07T14:19:08.998Z</time></trkpt><trkpt lat="45.530079519415345" lon="11.098322721944086"><ele>544.0</ele><time>2026-04-07T14:19:09.998Z</time></trkpt><trkpt lat="45.53000154202003" lon="11.098515767284438"><ele>540.6666666666667</ele><time>2026-04-07T14:19:10.998Z</time></trkpt><trkpt lat="45.529933020930116" lon="11.098724834411563"><ele>537.3333333333334</ele><time>2026-04-07T14:19:11.998Z</time></trkpt><trkpt lat="45.52987457606871" lon="11.098934861685711"><ele>534.0</ele><time>2026-04-07T14:19:12.998Z</time></trkpt><trkpt lat="45.52981988334819" lon="11.099146400415194"><ele>531.0</ele><time>2026-04-07T14:19:13.998Z</time></trkpt><trkpt lat="45.52976738982298" lon="11.099361191629283"><ele>528.0</ele><time>2026-04-07T14:19:14.998Z</time></trkpt><trkpt lat="45.52971315040433" lon="11.09956132066979"><ele>525.0</ele><time>2026-04-07T14:19:15.998Z</time></trkpt><trkpt lat="45.529679017168895" lon="11.099753644835035"><ele>522.0</ele><time>2026-04-07T14:19:17Z</time></trkpt><trkpt lat="45.52965732482414" lon="11.099959807681957"><ele>519.0</ele><time>2026-04-07T14:19:18Z</time></trkpt><trkpt lat="45.52964153907978" lon="11.100144261184434"><ele>516.0</ele><time>2026-04-07T14:19:19Z</time></trkpt><trkpt lat="45.52964105476748" lon="11.100324524029455"><ele>513.0</ele><time>2026-04-07T14:19:20Z</time></trkpt><trkpt lat="45.52967193622438" lon="11.100510049665804"><ele>510.0</ele><time>2026-04-07T14:19:21Z</time></trkpt><trkpt lat="45.529710126423815" lon="11.100713217201534"><ele>509.2</ele><time>2026-04-07T14:19:22Z</time></trkpt><trkpt lat="45.52974123918855" lon="11.100899012704597"><ele>508.4</ele><time>2026-04-07T14:19:23Z</time></trkpt><trkpt lat="45.52975944138561" lon="11.101063169496957"><ele>507.6</ele><time>2026-04-07T14:19:24Z</time></trkpt><trkpt lat="45.52974412659362" lon="11.101174732090307"><ele>506.8</ele><time>2026-04-07T14:19:25Z</time></trkpt><trkpt lat="45.52969862410801" lon="11.101274437622385"><ele>506.0</ele><time>2026-04-07T14:19:27Z</time></trkpt><trkpt lat="45.52962471509466" lon="11.10128905856703"><ele>506.8</ele><time>2026-04-07T14:19:28Z</time></trkpt><trkpt lat="45.52953382440857" lon="11.101261820015683"><ele>507.6</ele><time>2026-04-07T14:19:29Z</time></trkpt><trkpt lat="45.52943340808789" lon="11.1012395482846"><ele>508.4</ele><time>2026-04-07T14:19:30Z</time></trkpt><trkpt lat="45.52934181574409" lon="11.101185428294574"><ele>509.2</ele><time>2026-04-07T14:19:31Z</time></trkpt><trkpt lat="45.52926774287008" lon="11.101092582502368"><ele>510.0</ele><time>2026-04-07T14:19:32Z</time></trkpt><trkpt lat="45.529182362498744" lon="11.100981343852308"><ele>510.0</ele><time>2026-04-07T14:19:33Z</time></trkpt><trkpt lat="45.52910280418264" lon="11.100879411329892"><ele>510.0</ele><time>2026-04-07T14:19:34Z</time></trkpt><trkpt lat="45.52906611457311" lon="11.100716231395658"><ele>510.0</ele><time>2026-04-07T14:19:35Z</time></trkpt><trkpt lat="45.52902038132208" lon="11.100532379873263"><ele>510.0</ele><time>2026-04-07T14:19:36Z</time></trkpt><trkpt lat="45.52896603818475" lon="11.100342597114281"><ele>511.25</ele><time>2026-04-07T14:19:37Z</time></trkpt><trkpt lat="45.52890000595999" lon="11.100162367741854"><ele>512.5</ele><time>2026-04-07T14:19:38Z</time></trkpt><trkpt lat="45.52882043282156" lon="11.100004806044451"><ele>513.75</ele><time>2026-04-07T14:19:39Z</time></trkpt><trkpt lat="45.528743139761836" lon="11.099865572049586"><ele>515.0</ele><time>2026-04-07T14:19:40Z</time></trkpt><trkpt lat="45.528663820295534" lon="11.099758927896904"><ele>511.2</ele><time>2026-04-07T14:19:41Z</time></trkpt><trkpt lat="45.52859341752666" lon="11.09966690853491"><ele>507.4</ele><time>2026-04-07T14:19:42Z</time></trkpt><trkpt lat="45.528490329306194" lon="11.099646800917508"><ele>503.6</ele><time>2026-04-07T14:19:43Z</time></trkpt><trkpt lat="45.52838280638338" lon="11.09968791022634"><ele>499.8</ele><time>2026-04-07T14:19:44Z</time></trkpt><trkpt lat="45.52827815555489" lon="11.09975081551659"><ele>496.0</ele><time>2026-04-07T14:19:45Z</time></trkpt><trkpt lat="45.528180715239415" lon="11.099825462783903"><ele>496.00000000000006</ele><time>2026-04-07T14:19:46Z</time></trkpt><trkpt lat="45.528094435753104" lon="11.099881045803787"><ele>496.0</ele><time>2026-04-07T14:19:47Z</time></trkpt><trkpt lat="45.52802663225345" lon="11.099898411396923"><ele>496.0</ele><time>2026-04-07T14:19:48Z</time></trkpt><trkpt lat="45.52792495739108" lon="11.099829372618732"><ele>496.0</ele><time>2026-04-07T14:19:50Z</time></trkpt><trkpt lat="45.52792961478522" lon="11.09972234492926"><ele>496.00000000000006</ele><time>2026-04-07T14:19:51Z</time></trkpt><trkpt lat="45.52796987933874" lon="11.09961052379957"><ele>496.0</ele><time>2026-04-07T14:19:52Z</time></trkpt><trkpt lat="45.52807053379909" lon="11.09950758229256"><ele>496.0</ele><time>2026-04-07T14:19:53Z</time></trkpt><trkpt lat="45.528128563983294" lon="11.09937438582758"><ele>496.0</ele><time>2026-04-07T14:19:54Z</time></trkpt><trkpt lat="45.52816677983643" lon="11.099244366909682"><ele>496.0</ele><time>2026-04-07T14:19:55Z</time></trkpt><trkpt lat="45.52815366913484" lon="11.099111744807935"><ele>496.0</ele><time>2026-04-07T14:19:56Z</time></trkpt><trkpt lat="45.52809673468031" lon="11.099016283702033"><ele>496.0</ele><time>2026-04-07T14:19:57Z</time></trkpt><trkpt lat="45.52801464434451" lon="11.09896934067774"><ele>496.75</ele><time>2026-04-07T14:19:58Z</time></trkpt><trkpt lat="45.527912535649754" lon="11.098981720803836"><ele>497.5</ele><time>2026-04-07T14:19:59Z</time></trkpt><trkpt lat="45.52778519039741" lon="11.099031008630314"><ele>498.25</ele><time>2026-04-07T14:20:00Z</time></trkpt><trkpt lat="45.52763968349761" lon="11.099099894840677"><ele>499.0</ele><time>2026-04-07T14:20:01Z</time></trkpt><trkpt lat="45.52747563876028" lon="11.099174897091226"><ele>499.75</ele><time>2026-04-07T14:20:01.999Z</time></trkpt><trkpt lat="45.52730505814308" lon="11.099221372858679"><ele>500.5</ele><time>2026-04-07T14:20:02.999Z</time></trkpt><trkpt lat="45.5271569512053" lon="11.09926523423188"><ele>501.25</ele><time>2026-04-07T14:20:03.999Z</time></trkpt><trkpt lat="45.527035900947666" lon="11.099301825657601"><ele>502.0</ele><time>2026-04-07T14:20:04.999Z</time></trkpt><trkpt lat="45.52694473475433" lon="11.09933606355"><ele>502.0</ele><time>2026-04-07T14:20:05.999Z</time></trkpt><trkpt lat="45.52687711987292" lon="11.09937347101768"><ele>502.00000000000006</ele><time>2026-04-07T14:20:06.999Z</time></trkpt><trkpt lat="45.5268214607709" lon="11.099432089996126"><ele>502.00000000000006</ele><time>2026-04-07T14:20:08.999Z</time></trkpt><trkpt lat="45.52688462693213" lon="11.099328880193394"><ele>502.0</ele><time>2026-04-07T14:20:18.999Z</time></trkpt><trkpt lat="45.52709571923294" lon="11.099312372383466"><ele>502.0</ele><time>2026-04-07T14:20:20.999Z</time></trkpt><trkpt lat="45.52717672180551" lon="11.099281086590478"><ele>500.00000000000006</ele><time>2026-04-07T14:20:21.999Z</time></trkpt><trkpt lat="45.52724617404181" lon="11.099254501896647"><ele>498.0</ele><time>2026-04-07T14:20:22.999Z</time></trkpt><trkpt lat="45.52731127368696" lon="11.09922774027123"><ele>496.0</ele><time>2026-04-07T14:20:23.999Z</time></trkpt><trkpt lat="45.527376516536776" lon="11.09919639901561"><ele>494.0</ele><time>2026-04-07T14:20:24.999Z</time></trkpt><trkpt lat="45.527440020578524" lon="11.099168954398092"><ele>492.00000000000006</ele><time>2026-04-07T14:20:25.999Z</time></trkpt><trkpt lat="45.52755135169753" lon="11.099117446553562"><ele>490.0</ele><time>2026-04-07T14:20:27.999Z</time></trkpt><trkpt lat="45.5275239110926" lon="11.099215018168294"><ele>490.0</ele><time>2026-04-07T14:20:36.999Z</time></trkpt><trkpt lat="45.527448760226534" lon="11.09916074327413"><ele>490.0</ele><time>2026-04-07T14:20:38.999Z</time></trkpt><trkpt lat="45.5273549613983" lon="11.099192749166656"><ele>490.0</ele><time>2026-04-07T14:22:21.999Z</time></trkpt><trkpt lat="45.52723037069396" lon="11.09925846271028"><ele>490.0</ele><time>2026-04-07T14:22:23.999Z</time></trkpt><trkpt lat="45.527154672689115" lon="11.099285596527142"><ele>490.0</ele><time>2026-04-07T14:22:24.999Z</time></trkpt><trkpt lat="45.52707737867883" lon="11.099301174142168"><ele>492.00000000000006</ele><time>2026-04-07T14:22:25.999Z</time></trkpt><trkpt lat="45.52699594069271" lon="11.099314625308521"><ele>494.0</ele><time>2026-04-07T14:22:26.999Z</time></trkpt><trkpt lat="45.52692929245957" lon="11.099337959146052"><ele>496.0</ele><time>2026-04-07T14:22:27.999Z</time></trkpt><trkpt lat="45.52686526521723" lon="11.09939894323312"><ele>498.0</ele><time>2026-04-07T14:22:28.999Z</time></trkpt><trkpt lat="45.52681348623719" lon="11.099513989918172"><ele>500.00000000000006</ele><time>2026-04-07T14:22:29.999Z</time></trkpt><trkpt lat="45.52678606982183" lon="11.099662384992218"><ele>502.0</ele><time>2026-04-07T14:22:30.999Z</time></trkpt><trkpt lat="45.52675618248682" lon="11.099805867433966"><ele>501.5</ele><time>2026-04-07T14:22:31.999Z</time></trkpt><trkpt lat="45.52672758464253" lon="11.099956925403223"><ele>501.0</ele><time>2026-04-07T14:22:32.999Z</time></trkpt><trkpt lat="45.52669379233801" lon="11.10012061990333"><ele>500.5</ele><time>2026-04-07T14:22:33.999Z</time></trkpt><trkpt lat="45.52666896820276" lon="11.100298673011963"><ele>500.0</ele><time>2026-04-07T14:22:34.999Z</time></trkpt><trkpt lat="45.52662954228608" lon="11.100486676535963"><ele>500.0</ele><time>2026-04-07T14:22:35.999Z</time></trkpt><trkpt lat="45.526595322103944" lon="11.100672554625882"><ele>500.0</ele><time>2026-04-07T14:22:36.999Z</time></trkpt><trkpt lat="45.526556632626395" lon="11.100858894354328"><ele>500.0</ele><time>2026-04-07T14:22:37.999Z</time></trkpt><trkpt lat="45.5265498998273" lon="11.101037570831801"><ele>500.0</ele><time>2026-04-07T14:22:38.999Z</time></trkpt><trkpt lat="45.52653426588159" lon="11.101224728660556"><ele>500.75</ele><time>2026-04-07T14:22:39.999Z</time></trkpt><trkpt lat="45.52650625351551" lon="11.101400406307416"><ele>501.5</ele><time>2026-04-07T14:22:40.999Z</time></trkpt><trkpt lat="45.5264403358949" lon="11.101571354156583"><ele>502.25</ele><time>2026-04-07T14:22:41.999Z</time></trkpt><trkpt lat="45.52636501709476" lon="11.101721767917914"><ele>503.0</ele><time>2026-04-07T14:22:42.999Z</time></trkpt><trkpt lat="45.52627383360483" lon="11.10183941019666"><ele>509.5</ele><time>2026-04-07T14:22:43.999Z</time></trkpt><trkpt lat="45.52616960283334" lon="11.101919023547918"><ele>516.0</ele><time>2026-04-07T14:22:44.999Z</time></trkpt><trkpt lat="45.52605965798296" lon="11.10197724876671"><ele>522.5</ele><time>2026-04-07T14:22:45.999Z</time></trkpt><trkpt lat="45.52596730302019" lon="11.102066058923782"><ele>529.0</ele><time>2026-04-07T14:22:46.999Z</time></trkpt><trkpt lat="45.52589978408997" lon="11.102195663470187"><ele>529.0</ele><time>2026-04-07T14:22:47.999Z</time></trkpt><trkpt lat="45.52585130361672" lon="11.10237215818934"><ele>529.0</ele><time>2026-04-07T14:22:48.999Z</time></trkpt><trkpt lat="45.52579849251192" lon="11.102547392227995"><ele>529.0</ele><time>2026-04-07T14:22:49.999Z</time></trkpt><trkpt lat="45.52570687591727" lon="11.102687678427714"><ele>529.0</ele><time>2026-04-07T14:22:50.998Z</time></trkpt><trkpt lat="45.52558046353765" lon="11.10280523109637"><ele>528.5</ele><time>2026-04-07T14:22:51.998Z</time></trkpt><trkpt lat="45.52550393868117" lon="11.102939131415587"><ele>528.0</ele><time>2026-04-07T14:22:52.998Z</time></trkpt><trkpt lat="45.52546420165602" lon="11.103113029641648"><ele>527.5</ele><time>2026-04-07T14:22:53.998Z</time></trkpt><trkpt lat="45.52541967485257" lon="11.103282359643101"><ele>527.0</ele><time>2026-04-07T14:22:54.998Z</time></trkpt><trkpt lat="45.525378090582706" lon="11.103460953016214"><ele>527.0</ele><time>2026-04-07T14:22:55.998Z</time></trkpt><trkpt lat="45.52529068508674" lon="11.103586308815192"><ele>527.0</ele><time>2026-04-07T14:22:56.998Z</time></trkpt><trkpt lat="45.52520569044876" lon="11.103703629389031"><ele>527.0</ele><time>2026-04-07T14:22:57.998Z</time></trkpt><trkpt lat="45.52510013469984" lon="11.103795701731869"><ele>527.0</ele><time>2026-04-07T14:22:58.998Z</time></trkpt><trkpt lat="45.52496775499962" lon="11.103859565369088"><ele>527.0</ele><time>2026-04-07T14:22:59.998Z</time></trkpt><trkpt lat="45.52484808922447" lon="11.10394415609429"><ele>527.0</ele><time>2026-04-07T14:23:00.998Z</time></trkpt><trkpt lat="45.52474263996916" lon="11.104015306528881"><ele>527.0</ele><time>2026-04-07T14:23:01.998Z</time></trkpt><trkpt lat="45.52465090369866" lon="11.104144284648655"><ele>527.0</ele><time>2026-04-07T14:23:02.998Z</time></trkpt><trkpt lat="45.52456977216484" lon="11.104293017331294"><ele>527.4</ele><time>2026-04-07T14:23:03.998Z</time></trkpt><trkpt lat="45.52449168578848" lon="11.1044222845076"><ele>527.8000000000001</ele><time>2026-04-07T14:23:04.998Z</time></trkpt><trkpt lat="45.52442632272672" lon="11.10453593931799"><ele>528.2</ele><time>2026-04-07T14:23:05.998Z</time></trkpt><trkpt lat="45.524383393282996" lon="11.104651834236694"><ele>528.6</ele><time>2026-04-07T14:23:06.998Z</time></trkpt><trkpt lat="45.52436958479678" lon="11.104789446461636"><ele>529.0</ele><time>2026-04-07T14:23:07.998Z</time></trkpt><trkpt lat="45.52438140813419" lon="11.104940452299466"><ele>527.2</ele><time>2026-04-07T14:23:08.998Z</time></trkpt><trkpt lat="45.524400212179636" lon="11.105088380990768"><ele>525.4</ele><time>2026-04-07T14:23:09.998Z</time></trkpt><trkpt lat="45.52440644171908" lon="11.105220538540012"><ele>523.6</ele><time>2026-04-07T14:23:10.998Z</time></trkpt><trkpt lat="45.52436463219398" lon="11.105343817029935"><ele>521.8</ele><time>2026-04-07T14:23:11.998Z</time></trkpt><trkpt lat="45.52432317673256" lon="11.105475750991454"><ele>520.0</ele><time>2026-04-07T14:23:12.998Z</time></trkpt><trkpt lat="45.52427110801711" lon="11.105606329242068"><ele>520.0</ele><time>2026-04-07T14:23:13.998Z</time></trkpt><trkpt lat="45.52421496879722" lon="11.105716214314516"><ele>520.0</ele><time>2026-04-07T14:23:14.998Z</time></trkpt><trkpt lat="45.52414951979833" lon="11.10580296262566"><ele>520.0</ele><time>2026-04-07T14:23:15.998Z</time></trkpt><trkpt lat="45.52406176725047" lon="11.105859338814433"><ele>520.0</ele><time>2026-04-07T14:23:16.998Z</time></trkpt><trkpt lat="45.523955013228" lon="11.105907444342252"><ele>520.0</ele><time>2026-04-07T14:23:17.998Z</time></trkpt><trkpt lat="45.52385032967007" lon="11.10597176129585"><ele>519.4</ele><time>2026-04-07T14:23:18.998Z</time></trkpt><trkpt lat="45.523743953423775" lon="11.10597009017593"><ele>518.8</ele><time>2026-04-07T14:23:19.998Z</time></trkpt><trkpt lat="45.52364149391442" lon="11.105957564515567"><ele>518.2</ele><time>2026-04-07T14:23:20.998Z</time></trkpt><trkpt lat="45.5235371764007" lon="11.105898539761235"><ele>517.6</ele><time>2026-04-07T14:23:21.998Z</time></trkpt><trkpt lat="45.52343442444074" lon="11.105817461742737"><ele>517.0</ele><time>2026-04-07T14:23:22.998Z</time></trkpt><trkpt lat="45.52333976727111" lon="11.10572147552719"><ele>517.0</ele><time>2026-04-07T14:23:23.998Z</time></trkpt><trkpt lat="45.523254379907776" lon="11.105645259652567"><ele>517.0</ele><time>2026-04-07T14:23:24.998Z</time></trkpt><trkpt lat="45.523171427396" lon="11.105581501834688"><ele>517.0</ele><time>2026-04-07T14:23:25.998Z</time></trkpt><trkpt lat="45.523065262633445" lon="11.105566180829811"><ele>517.0</ele><time>2026-04-07T14:23:26.998Z</time></trkpt><trkpt lat="45.52292016495062" lon="11.105610630077134"><ele>514.0</ele><time>2026-04-07T14:23:27.998Z</time></trkpt><trkpt lat="45.522762439427915" lon="11.105658938945368"><ele>511.0</ele><time>2026-04-07T14:23:28.999Z</time></trkpt><trkpt lat="45.52257802631867" lon="11.105675158320414"><ele>508.0</ele><time>2026-04-07T14:23:29.999Z</time></trkpt><trkpt lat="45.52240610396539" lon="11.105707890901007"><ele>502.6666666666667</ele><time>2026-04-07T14:23:30.999Z</time></trkpt><trkpt lat="45.52222561916934" lon="11.10577428858485"><ele>497.33333333333337</ele><time>2026-04-07T14:23:31.999Z</time></trkpt><trkpt lat="45.522062261362095" lon="11.105859239596883"><ele>492.0</ele><time>2026-04-07T14:23:32.999Z</time></trkpt><trkpt lat="45.52191801472245" lon="11.1059367960904"><ele>490.5</ele><time>2026-04-07T14:23:33.999Z</time></trkpt><trkpt lat="45.521795429655484" lon="11.106009675627645"><ele>489.0</ele><time>2026-04-07T14:23:34.999Z</time></trkpt><trkpt lat="45.52167573347513" lon="11.10604329572606"><ele>487.5</ele><time>2026-04-07T14:23:35.999Z</time></trkpt><trkpt lat="45.52157330908648" lon="11.106082514310069"><ele>486.0</ele><time>2026-04-07T14:23:36.999Z</time></trkpt><trkpt lat="45.52146478284566" lon="11.106077050073447"><ele>486.0</ele><time>2026-04-07T14:23:37.999Z</time></trkpt><trkpt lat="45.52134842267961" lon="11.10603444928794"><ele>486.0</ele><time>2026-04-07T14:23:38.999Z</time></trkpt><trkpt lat="45.52122643572715" lon="11.105927006029269"><ele>486.0</ele><time>2026-04-07T14:23:39.999Z</time></trkpt><trkpt lat="45.52108511844501" lon="11.105813726611938"><ele>486.0</ele><time>2026-04-07T14:23:40.999Z</time></trkpt><trkpt lat="45.520933486999226" lon="11.105759002270664"><ele>487.66666666666663</ele><time>2026-04-07T14:23:41.999Z</time></trkpt><trkpt lat="45.52076436282015" lon="11.105722545097063"><ele>489.3333333333333</ele><time>2026-04-07T14:23:42.999Z</time></trkpt><trkpt lat="45.52057985398064" lon="11.10572367365909"><ele>491.0</ele><time>2026-04-07T14:23:43.999Z</time></trkpt><trkpt lat="45.52038937271613" lon="11.105741692323443"><ele>486.3333333333333</ele><time>2026-04-07T14:23:44.999Z</time></trkpt><trkpt lat="45.52019057492667" lon="11.105790630792862"><ele>481.66666666666663</ele><time>2026-04-07T14:23:45.999Z</time></trkpt><trkpt lat="45.520005239790834" lon="11.10583536858832"><ele>477.0</ele><time>2026-04-07T14:23:46.999Z</time></trkpt><trkpt lat="45.51983900326065" lon="11.105862171972072"><ele>477.0</ele><time>2026-04-07T14:23:47.999Z</time></trkpt><trkpt lat="45.51967397822954" lon="11.105895794622066"><ele>477.0</ele><time>2026-04-07T14:23:48.999Z</time></trkpt><trkpt lat="45.51953669961584" lon="11.105919621156069"><ele>477.0</ele><time>2026-04-07T14:23:49.999Z</time></trkpt><trkpt lat="45.51942863005991" lon="11.105948066121954"><ele>477.0</ele><time>2026-04-07T14:23:50.999Z</time></trkpt><trkpt lat="45.51933233889126" lon="11.10597752315562"><ele>477.0</ele><time>2026-04-07T14:23:51.999Z</time></trkpt><trkpt lat="45.51926245051514" lon="11.105944519168471"><ele>476.99999999999994</ele><time>2026-04-07T14:23:52.999Z</time></trkpt><trkpt lat="45.519196902743225" lon="11.105923691338983"><ele>477.0</ele><time>2026-04-07T14:23:53.999Z</time></trkpt><trkpt lat="45.519128261918375" lon="11.105918137863858"><ele>477.0</ele><time>2026-04-07T14:23:54.999Z</time></trkpt><trkpt lat="45.51905618141384" lon="11.105930295830357"><ele>476.99999999999994</ele><time>2026-04-07T14:23:55.999Z</time></trkpt><trkpt lat="45.518990604750925" lon="11.105956840377358"><ele>477.0</ele><time>2026-04-07T14:23:56.999Z</time></trkpt><trkpt lat="45.51892480344518" lon="11.105988250540511"><ele>477.0</ele><time>2026-04-07T14:23:57.999Z</time></trkpt><trkpt lat="45.51882876335548" lon="11.106056241959232"><ele>477.0</ele><time>2026-04-07T14:23:59.999Z</time></trkpt><trkpt lat="45.51876591182557" lon="11.106097963421071"><ele>477.0</ele><time>2026-04-07T14:24:04.999Z</time></trkpt><trkpt lat="45.518737950806766" lon="11.106203865498737"><ele>477.0</ele><time>2026-04-07T14:24:06.999Z</time></trkpt><trkpt lat="45.51870675599263" lon="11.106309263452074"><ele>477.0</ele><time>2026-04-07T14:24:07.999Z</time></trkpt><trkpt lat="45.51863447092523" lon="11.106414124747968"><ele>477.0</ele><time>2026-04-07T14:24:08.999Z</time></trkpt><trkpt lat="45.518554544168325" lon="11.106534116718622"><ele>477.0</ele><time>2026-04-07T14:24:09.999Z</time></trkpt><trkpt lat="45.51848120369266" lon="11.10664054850969"><ele>473.5</ele><time>2026-04-07T14:24:10.999Z</time></trkpt><trkpt lat="45.51839800035608" lon="11.106757172495447"><ele>470.0</ele><time>2026-04-07T14:24:11.999Z</time></trkpt><trkpt lat="45.51829192188572" lon="11.106852399937654"><ele>466.5</ele><time>2026-04-07T14:24:12.999Z</time></trkpt><trkpt lat="45.51820523631221" lon="11.106975276869969"><ele>463.0</ele><time>2026-04-07T14:24:13.999Z</time></trkpt><trkpt lat="45.51811349373377" lon="11.107086194347813"><ele>463.0</ele><time>2026-04-07T14:24:14.999Z</time></trkpt><trkpt lat="45.51802718415318" lon="11.107209833507913"><ele>463.0</ele><time>2026-04-07T14:24:15.999Z</time></trkpt><trkpt lat="45.51794593942891" lon="11.107338785598722"><ele>463.0</ele><time>2026-04-07T14:24:16.999Z</time></trkpt><trkpt lat="45.51786204577185" lon="11.107472059811965"><ele>463.0</ele><time>2026-04-07T14:24:17.999Z</time></trkpt><trkpt lat="45.51779545652084" lon="11.107615260209746"><ele>459.0</ele><time>2026-04-07T14:24:18.999Z</time></trkpt><trkpt lat="45.51772788975737" lon="11.107741151351085"><ele>454.99999999999994</ele><time>2026-04-07T14:24:19.999Z</time></trkpt><trkpt lat="45.51765799093448" lon="11.107838309784258"><ele>450.99999999999994</ele><time>2026-04-07T14:24:20.999Z</time></trkpt><trkpt lat="45.51757102329758" lon="11.107919340094421"><ele>447.0</ele><time>2026-04-07T14:24:21.999Z</time></trkpt><trkpt lat="45.517478890968476" lon="11.107998532422615"><ele>443.0</ele><time>2026-04-07T14:24:22.999Z</time></trkpt><trkpt lat="45.5174059777781" lon="11.108112213758222"><ele>444.0</ele><time>2026-04-07T14:24:23.999Z</time></trkpt><trkpt lat="45.51733890713735" lon="11.10825227123658"><ele>445.0</ele><time>2026-04-07T14:24:24.999Z</time></trkpt><trkpt lat="45.51728446514871" lon="11.1084016819687"><ele>446.0</ele><time>2026-04-07T14:24:25.999Z</time></trkpt><trkpt lat="45.51722631718205" lon="11.10855909016928"><ele>447.0</ele><time>2026-04-07T14:24:26.999Z</time></trkpt><trkpt lat="45.5171573788408" lon="11.10871630151654"><ele>447.0</ele><time>2026-04-07T14:24:27.999Z</time></trkpt><trkpt lat="45.51709049639631" lon="11.10887337438868"><ele>447.0</ele><time>2026-04-07T14:24:28.999Z</time></trkpt><trkpt lat="45.51702109407877" lon="11.109035265024845"><ele>447.0</ele><time>2026-04-07T14:24:29.999Z</time></trkpt><trkpt lat="45.51694566153441" lon="11.109199247874422"><ele>447.0</ele><time>2026-04-07T14:24:30.999Z</time></trkpt><trkpt lat="45.516866560707" lon="11.109354097734855"><ele>443.6</ele><time>2026-04-07T14:24:31.999Z</time></trkpt><trkpt lat="45.51680264221324" lon="11.109511786206811"><ele>440.20000000000005</ele><time>2026-04-07T14:24:32.999Z</time></trkpt><trkpt lat="45.51674328596838" lon="11.109647553130982"><ele>436.8</ele><time>2026-04-07T14:24:33.999Z</time></trkpt><trkpt lat="45.51669584213729" lon="11.109753757963944"><ele>433.4</ele><time>2026-04-07T14:24:34.999Z</time></trkpt><trkpt lat="45.51664991866937" lon="11.109844960606393"><ele>430.0</ele><time>2026-04-07T14:24:35.999Z</time></trkpt><trkpt lat="45.51659090428641" lon="11.10988928809937"><ele>430.0</ele><time>2026-04-07T14:24:36.999Z</time></trkpt><trkpt lat="45.51651856889135" lon="11.109877544345007"><ele>430.0</ele><time>2026-04-07T14:24:37.999Z</time></trkpt><trkpt lat="45.51646197895533" lon="11.109813406876937"><ele>430.0</ele><time>2026-04-07T14:24:38.999Z</time></trkpt><trkpt lat="45.5164379131331" lon="11.109705563872707"><ele>430.0</ele><time>2026-04-07T14:24:39.999Z</time></trkpt><trkpt lat="45.51646639935406" lon="11.109563515404579"><ele>430.0</ele><time>2026-04-07T14:24:40.999Z</time></trkpt><trkpt lat="45.51647754060767" lon="11.10938102540158"><ele>430.0</ele><time>2026-04-07T14:24:41.999Z</time></trkpt><trkpt lat="45.516480971624986" lon="11.10917289655934"><ele>430.0</ele><time>2026-04-07T14:24:42.999Z</time></trkpt><trkpt lat="45.516491360556536" lon="11.108966341602269"><ele>430.0</ele><time>2026-04-07T14:24:43.999Z</time></trkpt><trkpt lat="45.516520108941805" lon="11.108778256355643"><ele>430.0</ele><time>2026-04-07T14:24:44.999Z</time></trkpt><trkpt lat="45.51654649817715" lon="11.10860982487783"><ele>429.4</ele><time>2026-04-07T14:24:45.999Z</time></trkpt><trkpt lat="45.51655932177455" lon="11.108466196459034"><ele>428.8</ele><time>2026-04-07T14:24:46.999Z</time></trkpt><trkpt lat="45.516587800588404" lon="11.108347064470319"><ele>428.20000000000005</ele><time>2026-04-07T14:24:47.998Z</time></trkpt><trkpt lat="45.516611304728656" lon="11.108224609449886"><ele>427.6</ele><time>2026-04-07T14:24:48.998Z</time></trkpt><trkpt lat="45.51663579898437" lon="11.108095726486818"><ele>427.0</ele><time>2026-04-07T14:24:49.998Z</time></trkpt><trkpt lat="45.51666043423373" lon="11.107971648654193"><ele>425.25</ele><time>2026-04-07T14:24:50.998Z</time></trkpt><trkpt lat="45.51668810231372" lon="11.107826194180095"><ele>423.5</ele><time>2026-04-07T14:24:51.998Z</time></trkpt><trkpt lat="45.51671500126554" lon="11.107650075300253"><ele>421.75</ele><time>2026-04-07T14:24:52.998Z</time></trkpt><trkpt lat="45.51674154587329" lon="11.107434942018857"><ele>420.0</ele><time>2026-04-07T14:24:53.998Z</time></trkpt><trkpt lat="45.5167777678884" lon="11.107214612040135"><ele>419.5</ele><time>2026-04-07T14:24:54.998Z</time></trkpt><trkpt lat="45.51682796481952" lon="11.106984453698967"><ele>419.0</ele><time>2026-04-07T14:24:55.998Z</time></trkpt><trkpt lat="45.516848241641036" lon="11.106779350016556"><ele>418.5</ele><time>2026-04-07T14:24:56.998Z</time></trkpt><trkpt lat="45.516878928147825" lon="11.106608040153487"><ele>418.0</ele><time>2026-04-07T14:24:57.998Z</time></trkpt><trkpt lat="45.51691020099487" lon="11.10647775866848"><ele>419.4</ele><time>2026-04-07T14:24:58.998Z</time></trkpt><trkpt lat="45.51693571554574" lon="11.106370183070334"><ele>420.79999999999995</ele><time>2026-04-07T14:24:59.998Z</time></trkpt><trkpt lat="45.51695017170606" lon="11.106277390504765"><ele>422.2</ele><time>2026-04-07T14:25:00.998Z</time></trkpt><trkpt lat="45.51687459816844" lon="11.106141604133608"><ele>423.6</ele><time>2026-04-07T14:25:02.998Z</time></trkpt><trkpt lat="45.516783555984624" lon="11.106126476451916"><ele>425.0</ele><time>2026-04-07T14:25:03.998Z</time></trkpt><trkpt lat="45.5166687845165" lon="11.106134163568901"><ele>425.0</ele><time>2026-04-07T14:25:04.998Z</time></trkpt><trkpt lat="45.51655773752575" lon="11.1061194423955"><ele>425.0</ele><time>2026-04-07T14:25:05.998Z</time></trkpt><trkpt lat="45.51644920031612" lon="11.106098552387971"><ele>425.0</ele><time>2026-04-07T14:25:06.998Z</time></trkpt><trkpt lat="45.516353779187526" lon="11.106004875430248"><ele>425.0</ele><time>2026-04-07T14:25:07.998Z</time></trkpt><trkpt lat="45.51624821821656" lon="11.10593014264979"><ele>423.8</ele><time>2026-04-07T14:25:08.998Z</time></trkpt><trkpt lat="45.51615856289289" lon="11.105866696520938"><ele>422.6</ele><time>2026-04-07T14:25:09.998Z</time></trkpt><trkpt lat="45.516064807847634" lon="11.105805370327335"><ele>421.4</ele><time>2026-04-07T14:25:10.998Z</time></trkpt><trkpt lat="45.51599811209695" lon="11.105722416824474"><ele>420.2</ele><time>2026-04-07T14:25:11.998Z</time></trkpt><trkpt lat="45.51594287358713" lon="11.10561269028737"><ele>419.0</ele><time>2026-04-07T14:25:12.998Z</time></trkpt><trkpt lat="45.515886266884266" lon="11.105461392102567"><ele>419.0</ele><time>2026-04-07T14:25:13.998Z</time></trkpt><trkpt lat="45.51581367158892" lon="11.105302287915631"><ele>419.0</ele><time>2026-04-07T14:25:14.998Z</time></trkpt><trkpt lat="45.51571431896293" lon="11.105173596961974"><ele>419.0</ele><time>2026-04-07T14:25:15.998Z</time></trkpt><trkpt lat="45.515611577065826" lon="11.105082748851103"><ele>419.0</ele><time>2026-04-07T14:25:16.998Z</time></trkpt><trkpt lat="45.515527924857864" lon="11.105022797489747"><ele>419.0</ele><time>2026-04-07T14:25:17.998Z</time></trkpt><trkpt lat="45.515468720457044" lon="11.104985568540691"><ele>419.0</ele><time>2026-04-07T14:25:18.998Z</time></trkpt><trkpt lat="45.51539611141658" lon="11.104970252236473"><ele>419.0</ele><time>2026-04-07T14:25:19.998Z</time></trkpt><trkpt lat="45.51528446816158" lon="11.104973948243368"><ele>419.0</ele><time>2026-04-07T14:25:20.998Z</time></trkpt><trkpt lat="45.515136794171276" lon="11.105030613560347"><ele>419.0</ele><time>2026-04-07T14:25:21.998Z</time></trkpt><trkpt lat="45.51498359741656" lon="11.105131461319791"><ele>419.0</ele><time>2026-04-07T14:25:22.998Z</time></trkpt><trkpt lat="45.51485770736696" lon="11.105246774451796"><ele>419.0</ele><time>2026-04-07T14:25:23.998Z</time></trkpt><trkpt lat="45.51474469792019" lon="11.105348402714805"><ele>419.0</ele><time>2026-04-07T14:25:24.998Z</time></trkpt><trkpt lat="45.51463995021862" lon="11.105411092966877"><ele>419.0</ele><time>2026-04-07T14:25:25.998Z</time></trkpt><trkpt lat="45.51453621834215" lon="11.105443382285069"><ele>420.0</ele><time>2026-04-07T14:25:26.998Z</time></trkpt><trkpt lat="45.51444094473494" lon="11.105442887455782"><ele>421.0</ele><time>2026-04-07T14:25:27.998Z</time></trkpt><trkpt lat="45.51432587581117" lon="11.10542487432744"><ele>422.0</ele><time>2026-04-07T14:25:28.998Z</time></trkpt><trkpt lat="45.514203457676466" lon="11.105401737565531"><ele>423.0</ele><time>2026-04-07T14:25:29.998Z</time></trkpt><trkpt lat="45.514082183103426" lon="11.105423537913909"><ele>423.0</ele><time>2026-04-07T14:25:30.998Z</time></trkpt><trkpt lat="45.513948847636" lon="11.105511460273275"><ele>423.0</ele><time>2026-04-07T14:25:31.998Z</time></trkpt><trkpt lat="45.513802024962374" lon="11.105638235146783"><ele>423.0</ele><time>2026-04-07T14:25:32.998Z</time></trkpt><trkpt lat="45.51363424800884" lon="11.10577037815342"><ele>421.0</ele><time>2026-04-07T14:25:33.998Z</time></trkpt><trkpt lat="45.51346948184966" lon="11.105897441567311"><ele>419.0</ele><time>2026-04-07T14:25:34.999Z</time></trkpt><trkpt lat="45.513320050404154" lon="11.106007793417369"><ele>417.0</ele><time>2026-04-07T14:25:35.999Z</time></trkpt><trkpt lat="45.513192343872916" lon="11.106095710886471"><ele>417.0</ele><time>2026-04-07T14:25:36.999Z</time></trkpt><trkpt lat="45.51308755186019" lon="11.10616364246776"><ele>417.0</ele><time>2026-04-07T14:25:37.999Z</time></trkpt><trkpt lat="45.513002715572355" lon="11.106221643008956"><ele>417.0</ele><time>2026-04-07T14:25:39Z</time></trkpt><trkpt lat="45.51291880565837" lon="11.106268444010617"><ele>417.0</ele><time>2026-04-07T14:25:40Z</time></trkpt><trkpt lat="45.51280925796603" lon="11.106291977001238"><ele>417.0</ele><time>2026-04-07T14:25:41Z</time></trkpt><trkpt lat="45.512678229611815" lon="11.106249480643832"><ele>419.25</ele><time>2026-04-07T14:25:42Z</time></trkpt><trkpt lat="45.512527364780915" lon="11.106250157127427"><ele>421.5</ele><time>2026-04-07T14:25:43Z</time></trkpt><trkpt lat="45.51237118020212" lon="11.10621844227966"><ele>423.75</ele><time>2026-04-07T14:25:44Z</time></trkpt><trkpt lat="45.512233408311474" lon="11.106197737273552"><ele>426.0</ele><time>2026-04-07T14:25:45Z</time></trkpt><trkpt lat="45.512130338410316" lon="11.106168737830307"><ele>426.5</ele><time>2026-04-07T14:25:46Z</time></trkpt><trkpt lat="45.51204380899692" lon="11.106115284126107"><ele>427.0</ele><time>2026-04-07T14:25:47Z</time></trkpt><trkpt lat="45.51194820327521" lon="11.106030212289756"><ele>427.5</ele><time>2026-04-07T14:25:48Z</time></trkpt><trkpt lat="45.51185655381473" lon="11.105872175231362"><ele>428.0</ele><time>2026-04-07T14:25:49Z</time></trkpt><trkpt lat="45.51174504458311" lon="11.105705865979761"><ele>428.0</ele><time>2026-04-07T14:25:50Z</time></trkpt><trkpt lat="45.51161849757586" lon="11.105543667257948"><ele>428.0</ele><time>2026-04-07T14:25:51Z</time></trkpt><trkpt lat="45.51149636352455" lon="11.105352189686172"><ele>428.0</ele><time>2026-04-07T14:25:52Z</time></trkpt><trkpt lat="45.511372080922676" lon="11.105179327934954"><ele>428.0</ele><time>2026-04-07T14:25:53Z</time></trkpt><trkpt lat="45.51125991691724" lon="11.105032205758183"><ele>428.0</ele><time>2026-04-07T14:25:54Z</time></trkpt><trkpt lat="45.51115626390267" lon="11.1049003090065"><ele>428.0</ele><time>2026-04-07T14:25:55Z</time></trkpt><trkpt lat="45.511074650546384" lon="11.10479207492513"><ele>428.0</ele><time>2026-04-07T14:25:56Z</time></trkpt><trkpt lat="45.51101356304112" lon="11.104688672277584"><ele>426.5</ele><time>2026-04-07T14:25:57Z</time></trkpt><trkpt lat="45.51099475586503" lon="11.104557510645067"><ele>425.0</ele><time>2026-04-07T14:25:58Z</time></trkpt><trkpt lat="45.51100180059051" lon="11.104416631209322"><ele>423.5</ele><time>2026-04-07T14:25:59Z</time></trkpt><trkpt lat="45.51099918377196" lon="11.104233294058409"><ele>422.0</ele><time>2026-04-07T14:26:00Z</time></trkpt><trkpt lat="45.51096075109642" lon="11.104031502762117"><ele>424.8333333333333</ele><time>2026-04-07T14:26:01Z</time></trkpt><trkpt lat="45.5109298363681" lon="11.103851985393808"><ele>427.66666666666663</ele><time>2026-04-07T14:26:02Z</time></trkpt><trkpt lat="45.51090482260915" lon="11.103708955121583"><ele>430.5</ele><time>2026-04-07T14:26:03Z</time></trkpt><trkpt lat="45.51088548948134" lon="11.103602202001372"><ele>433.33333333333337</ele><time>2026-04-07T14:26:03.999Z</time></trkpt><trkpt lat="45.51084271809588" lon="11.103515914628158"><ele>436.1666666666667</ele><time>2026-04-07T14:26:04.999Z</time></trkpt><trkpt lat="45.51079561033128" lon="11.10345393190115"><ele>439.0</ele><time>2026-04-07T14:26:05.999Z</time></trkpt><trkpt lat="45.51070255499717" lon="11.103495623866747"><ele>439.0</ele><time>2026-04-07T14:26:06.999Z</time></trkpt><trkpt lat="45.510635981619075" lon="11.1035465535844"><ele>439.0</ele><time>2026-04-07T14:26:07.999Z</time></trkpt><trkpt lat="45.5105751197918" lon="11.103621550974752"><ele>439.0</ele><time>2026-04-07T14:26:08.999Z</time></trkpt><trkpt lat="45.51055086734678" lon="11.103783956087346"><ele>439.0</ele><time>2026-04-07T14:26:09.999Z</time></trkpt><trkpt lat="45.51047980094194" lon="11.103957266229077"><ele>439.0</ele><time>2026-04-07T14:26:10.999Z</time></trkpt><trkpt lat="45.510395640423845" lon="11.104129452946072"><ele>438.6666666666667</ele><time>2026-04-07T14:26:11.999Z</time></trkpt><trkpt lat="45.510279937477165" lon="11.104305443592331"><ele>438.33333333333337</ele><time>2026-04-07T14:26:12.999Z</time></trkpt><trkpt lat="45.51016579187719" lon="11.104482038828463"><ele>438.0</ele><time>2026-04-07T14:26:13.999Z</time></trkpt><trkpt lat="45.51007440499016" lon="11.104658905459058"><ele>438.0</ele><time>2026-04-07T14:26:14.999Z</time></trkpt><trkpt lat="45.50995962381787" lon="11.104759936170987"><ele>438.0</ele><time>2026-04-07T14:26:15.999Z</time></trkpt><trkpt lat="45.509833864923884" lon="11.104841331728492"><ele>438.0</ele><time>2026-04-07T14:26:16.999Z</time></trkpt><trkpt lat="45.50970447065673" lon="11.104904040489066"><ele>438.0</ele><time>2026-04-07T14:26:17.999Z</time></trkpt><trkpt lat="45.50955899285225" lon="11.104891905777244"><ele>435.25</ele><time>2026-04-07T14:26:18.999Z</time></trkpt><trkpt lat="45.50941085636698" lon="11.104930554429316"><ele>432.5</ele><time>2026-04-07T14:26:19.999Z</time></trkpt><trkpt lat="45.509256949595" lon="11.104949987173098"><ele>429.75</ele><time>2026-04-07T14:26:20.999Z</time></trkpt><trkpt lat="45.50912943070637" lon="11.104993430050303"><ele>427.0</ele><time>2026-04-07T14:26:21.999Z</time></trkpt><trkpt lat="45.50902797570745" lon="11.105064802284929"><ele>427.0</ele><time>2026-04-07T14:26:22.999Z</time></trkpt><trkpt lat="45.508920802063926" lon="11.105114006554464"><ele>427.00000000000006</ele><time>2026-04-07T14:26:23.999Z</time></trkpt><trkpt lat="45.50884177018447" lon="11.105150888686875"><ele>427.00000000000006</ele><time>2026-04-07T14:26:24.999Z</time></trkpt><trkpt lat="45.50871913378498" lon="11.10514131110184"><ele>427.0</ele><time>2026-04-07T14:26:26.999Z</time></trkpt><trkpt lat="45.508643921826575" lon="11.105071893017074"><ele>427.0</ele><time>2026-04-07T14:26:27.999Z</time></trkpt><trkpt lat="45.50852836405101" lon="11.104970223072458"><ele>439.33333333333337</ele><time>2026-04-07T14:26:28.999Z</time></trkpt><trkpt lat="45.50838949985825" lon="11.104829386610323"><ele>451.66666666666663</ele><time>2026-04-07T14:26:29.999Z</time></trkpt><trkpt lat="45.50825531769834" lon="11.10468336027694"><ele>464.0</ele><time>2026-04-07T14:26:30.999Z</time></trkpt><trkpt lat="45.50816217094356" lon="11.10456488495214"><ele>464.0</ele><time>2026-04-07T14:26:31.999Z</time></trkpt><trkpt lat="45.50807505870329" lon="11.104496536326879"><ele>464.0</ele><time>2026-04-07T14:26:32.999Z</time></trkpt><trkpt lat="45.50797930821171" lon="11.104493996019373"><ele>464.0</ele><time>2026-04-07T14:26:33.999Z</time></trkpt><trkpt lat="45.50789157203596" lon="11.104499494209643"><ele>464.0</ele><time>2026-04-07T14:26:34.999Z</time></trkpt><trkpt lat="45.507777384921965" lon="11.104540020472463"><ele>464.0</ele><time>2026-04-07T14:26:36.999Z</time></trkpt><trkpt lat="45.50773905848409" lon="11.104614275441582"><ele>464.5</ele><time>2026-04-07T14:26:37.999Z</time></trkpt><trkpt lat="45.50776185573569" lon="11.104774451362708"><ele>465.0</ele><time>2026-04-07T14:26:38.999Z</time></trkpt><trkpt lat="45.507822856844335" lon="11.104909201191907"><ele>465.5</ele><time>2026-04-07T14:26:39.999Z</time></trkpt><trkpt lat="45.50786939415706" lon="11.10507171220767"><ele>466.0</ele><time>2026-04-07T14:26:40.999Z</time></trkpt><trkpt lat="45.50789972961138" lon="11.10529865405055"><ele>455.6666666666667</ele><time>2026-04-07T14:26:41.999Z</time></trkpt><trkpt lat="45.5079104999137" lon="11.105548757598472"><ele>445.33333333333337</ele><time>2026-04-07T14:26:42.999Z</time></trkpt><trkpt lat="45.50794416609512" lon="11.105800795203965"><ele>435.0</ele><time>2026-04-07T14:26:43.999Z</time></trkpt><trkpt lat="45.50797603941839" lon="11.106024915482122"><ele>432.5</ele><time>2026-04-07T14:26:44.999Z</time></trkpt><trkpt lat="45.50800388118991" lon="11.106238525454481"><ele>430.0</ele><time>2026-04-07T14:26:45.999Z</time></trkpt><trkpt lat="45.50802425565321" lon="11.106431811712303"><ele>427.5</ele><time>2026-04-07T14:26:46.999Z</time></trkpt><trkpt lat="45.508054266945955" lon="11.106611618632556"><ele>425.0</ele><time>2026-04-07T14:26:47.999Z</time></trkpt><trkpt lat="45.50804884283589" lon="11.106763395703272"><ele>425.0</ele><time>2026-04-07T14:26:48.999Z</time></trkpt><trkpt lat="45.508040399677256" lon="11.10690347575086"><ele>425.0</ele><time>2026-04-07T14:26:49.999Z</time></trkpt><trkpt lat="45.50801364425441" lon="11.107048770005312"><ele>425.0</ele><time>2026-04-07T14:26:50.999Z</time></trkpt><trkpt lat="45.50796555931919" lon="11.107217586181825"><ele>425.0</ele><time>2026-04-07T14:26:51.999Z</time></trkpt><trkpt lat="45.507901057440016" lon="11.10740462283316"><ele>439.3333333333333</ele><time>2026-04-07T14:26:52.999Z</time></trkpt><trkpt lat="45.507829440352495" lon="11.10761360017275"><ele>453.66666666666663</ele><time>2026-04-07T14:26:53.999Z</time></trkpt><trkpt lat="45.50775601900096" lon="11.107833581739705"><ele>468.0</ele><time>2026-04-07T14:26:54.999Z</time></trkpt><trkpt lat="45.50771465267545" lon="11.108079780250726"><ele>464.66666666666663</ele><time>2026-04-07T14:26:55.999Z</time></trkpt><trkpt lat="45.50767842660195" lon="11.108341623061493"><ele>461.3333333333333</ele><time>2026-04-07T14:26:56.999Z</time></trkpt><trkpt lat="45.50764604841565" lon="11.108631844439607"><ele>458.0</ele><time>2026-04-07T14:26:57.999Z</time></trkpt><trkpt lat="45.50762180350184" lon="11.10891914419647"><ele>454.66666666666663</ele><time>2026-04-07T14:26:58.999Z</time></trkpt><trkpt lat="45.50759229502575" lon="11.109181273473569"><ele>451.33333333333337</ele><time>2026-04-07T14:26:59.999Z</time></trkpt><trkpt lat="45.50755984003823" lon="11.109406078418951"><ele>448.0</ele><time>2026-04-07T14:27:00.999Z</time></trkpt><trkpt lat="45.507524535215886" lon="11.109622495010576"><ele>448.0</ele><time>2026-04-07T14:27:01.999Z</time></trkpt><trkpt lat="45.50749342276989" lon="11.109836187139159"><ele>448.0</ele><time>2026-04-07T14:27:02.999Z</time></trkpt><trkpt lat="45.50747127233861" lon="11.11003495779538"><ele>448.0</ele><time>2026-04-07T14:27:03.999Z</time></trkpt><trkpt lat="45.50745870935293" lon="11.110188894443132"><ele>448.0</ele><time>2026-04-07T14:27:04.999Z</time></trkpt><trkpt lat="45.507440263743" lon="11.110322186067323"><ele>447.59999999999997</ele><time>2026-04-07T14:27:05.999Z</time></trkpt><trkpt lat="45.50741319984831" lon="11.110437841977713"><ele>447.19999999999993</ele><time>2026-04-07T14:27:06.999Z</time></trkpt><trkpt lat="45.507370686776206" lon="11.110533736232675"><ele>446.8</ele><time>2026-04-07T14:27:07.998Z</time></trkpt><trkpt lat="45.507299186794654" lon="11.110603575463808"><ele>446.4</ele><time>2026-04-07T14:27:08.998Z</time></trkpt><trkpt lat="45.507233451097584" lon="11.110665122729257"><ele>446.0</ele><time>2026-04-07T14:27:09.998Z</time></trkpt><trkpt lat="45.5071152630297" lon="11.110705128033233"><ele>448.25</ele><time>2026-04-07T14:27:11.998Z</time></trkpt><trkpt lat="45.50702784296917" lon="11.110776500401606"><ele>450.5</ele><time>2026-04-07T14:27:12.998Z</time></trkpt><trkpt lat="45.506912040632784" lon="11.11084546743211"><ele>452.75</ele><time>2026-04-07T14:27:13.998Z</time></trkpt><trkpt lat="45.50677094174583" lon="11.110891716073938"><ele>455.0</ele><time>2026-04-07T14:27:14.998Z</time></trkpt><trkpt lat="45.50661925654352" lon="11.110952321541834"><ele>455.0</ele><time>2026-04-07T14:27:15.998Z</time></trkpt><trkpt lat="45.50646581308577" lon="11.111001369499553"><ele>455.0</ele><time>2026-04-07T14:27:16.998Z</time></trkpt><trkpt lat="45.50632222432778" lon="11.111068408864861"><ele>455.0</ele><time>2026-04-07T14:27:17.998Z</time></trkpt><trkpt lat="45.506174280099835" lon="11.111079562613789"><ele>456.0</ele><time>2026-04-07T14:27:18.998Z</time></trkpt><trkpt lat="45.506023644611716" lon="11.111104294341633"><ele>457.0</ele><time>2026-04-07T14:27:19.998Z</time></trkpt><trkpt lat="45.50587605999723" lon="11.111050393161229"><ele>458.0</ele><time>2026-04-07T14:27:20.998Z</time></trkpt><trkpt lat="45.505723791015626" lon="11.11103021502967"><ele>458.0</ele><time>2026-04-07T14:27:21.998Z</time></trkpt><trkpt lat="45.50558655537159" lon="11.11098602428573"><ele>458.0</ele><time>2026-04-07T14:27:22.998Z</time></trkpt><trkpt lat="45.50545738061027" lon="11.11095267778888"><ele>458.0</ele><time>2026-04-07T14:27:23.998Z</time></trkpt><trkpt lat="45.50532321819738" lon="11.110919365892439"><ele>458.0</ele><time>2026-04-07T14:27:24.998Z</time></trkpt><trkpt lat="45.50518347561126" lon="11.110846898575142"><ele>459.25</ele><time>2026-04-07T14:27:25.998Z</time></trkpt><trkpt lat="45.50503203196344" lon="11.110800269761475"><ele>460.5</ele><time>2026-04-07T14:27:26.998Z</time></trkpt><trkpt lat="45.504908419294324" lon="11.110733951209443"><ele>461.75</ele><time>2026-04-07T14:27:27.998Z</time></trkpt><trkpt lat="45.50479753396104" lon="11.11067511431977"><ele>463.0</ele><time>2026-04-07T14:27:28.998Z</time></trkpt><trkpt lat="45.50470016810113" lon="11.110618875416577"><ele>463.0</ele><time>2026-04-07T14:27:29.998Z</time></trkpt><trkpt lat="45.50461422215531" lon="11.11056063234136"><ele>462.99999999999994</ele><time>2026-04-07T14:27:30.998Z</time></trkpt><trkpt lat="45.504546865173346" lon="11.11046455218351"><ele>462.99999999999994</ele><time>2026-04-07T14:27:31.998Z</time></trkpt><trkpt lat="45.50448251103102" lon="11.110337897340134"><ele>463.0</ele><time>2026-04-07T14:27:32.998Z</time></trkpt><trkpt lat="45.50442067596439" lon="11.11017218476096"><ele>463.0</ele><time>2026-04-07T14:27:33.998Z</time></trkpt><trkpt lat="45.50434506321792" lon="11.10999078770756"><ele>459.6666666666667</ele><time>2026-04-07T14:27:34.998Z</time></trkpt><trkpt lat="45.504268865374854" lon="11.109792304117452"><ele>456.33333333333337</ele><time>2026-04-07T14:27:35.998Z</time></trkpt><trkpt lat="45.504174425109156" lon="11.109589879367526"><ele>453.0</ele><time>2026-04-07T14:27:36.998Z</time></trkpt><trkpt lat="45.50408327331891" lon="11.109400130360138"><ele>453.0</ele><time>2026-04-07T14:27:37.998Z</time></trkpt><trkpt lat="45.504007300243174" lon="11.109203143632223"><ele>453.0</ele><time>2026-04-07T14:27:38.998Z</time></trkpt><trkpt lat="45.50395127165047" lon="11.109010635304987"><ele>453.0</ele><time>2026-04-07T14:27:39.998Z</time></trkpt><trkpt lat="45.503906013680215" lon="11.108844236992175"><ele>453.0</ele><time>2026-04-07T14:27:41Z</time></trkpt><trkpt lat="45.50384935899951" lon="11.108696318392367"><ele>452.0</ele><time>2026-04-07T14:27:42Z</time></trkpt><trkpt lat="45.50379640327348" lon="11.108580869066842"><ele>450.99999999999994</ele><time>2026-04-07T14:27:43Z</time></trkpt><trkpt lat="45.50375408791735" lon="11.108480710793753"><ele>449.99999999999994</ele><time>2026-04-07T14:27:44Z</time></trkpt><trkpt lat="45.50369774367663" lon="11.108379818081113"><ele>449.0</ele><time>2026-04-07T14:27:45Z</time></trkpt><trkpt lat="45.503610777734735" lon="11.108291965284483"><ele>448.0</ele><time>2026-04-07T14:27:46Z</time></trkpt><trkpt lat="45.503501837354584" lon="11.108225809354566"><ele>452.75</ele><time>2026-04-07T14:27:47Z</time></trkpt><trkpt lat="45.50337962675529" lon="11.10819557879309"><ele>457.5</ele><time>2026-04-07T14:27:48Z</time></trkpt><trkpt lat="45.50322284267787" lon="11.108193018377692"><ele>462.25</ele><time>2026-04-07T14:27:49Z</time></trkpt><trkpt lat="45.50305809350771" lon="11.1081718838247"><ele>467.0</ele><time>2026-04-07T14:27:50Z</time></trkpt><trkpt lat="45.502917039925904" lon="11.108133449035982"><ele>464.3333333333333</ele><time>2026-04-07T14:27:51Z</time></trkpt><trkpt lat="45.502777790554134" lon="11.108102397681252"><ele>461.66666666666663</ele><time>2026-04-07T14:27:52Z</time></trkpt><trkpt lat="45.50262570372318" lon="11.10806561178095"><ele>459.0</ele><time>2026-04-07T14:27:53Z</time></trkpt><trkpt lat="45.502454989010545" lon="11.108020656949734"><ele>459.0</ele><time>2026-04-07T14:27:54Z</time></trkpt><trkpt lat="45.5022670116352" lon="11.107962833063095"><ele>459.0</ele><time>2026-04-07T14:27:55Z</time></trkpt><trkpt lat="45.502058182141944" lon="11.10795220338227"><ele>459.0</ele><time>2026-04-07T14:27:56Z</time></trkpt><trkpt lat="45.50184088396873" lon="11.107965710004043"><ele>457.33333333333337</ele><time>2026-04-07T14:27:57Z</time></trkpt><trkpt lat="45.50162468370426" lon="11.107953167883176"><ele>455.6666666666667</ele><time>2026-04-07T14:27:58Z</time></trkpt><trkpt lat="45.50145087571723" lon="11.107948495894059"><ele>454.0</ele><time>2026-04-07T14:27:59Z</time></trkpt><trkpt lat="45.50128235470827" lon="11.107973152620923"><ele>456.33333333333337</ele><time>2026-04-07T14:28:00Z</time></trkpt><trkpt lat="45.50111989740564" lon="11.10799997976166"><ele>458.66666666666663</ele><time>2026-04-07T14:28:01Z</time></trkpt><trkpt lat="45.500947333846796" lon="11.108071493974938"><ele>461.0</ele><time>2026-04-07T14:28:02Z</time></trkpt><trkpt lat="45.50075898333769" lon="11.1081853548998"><ele>455.66666666666663</ele><time>2026-04-07T14:28:03Z</time></trkpt><trkpt lat="45.50056116812907" lon="11.108307005430843"><ele>450.33333333333337</ele><time>2026-04-07T14:28:04Z</time></trkpt><trkpt lat="45.50038189262362" lon="11.108432946100738"><ele>445.0</ele><time>2026-04-07T14:28:05Z</time></trkpt><trkpt lat="45.50022363368007" lon="11.108564032129083"><ele>445.0</ele><time>2026-04-07T14:28:06Z</time></trkpt><trkpt lat="45.50007785417813" lon="11.10869591678747"><ele>445.0</ele><time>2026-04-07T14:28:07Z</time></trkpt><trkpt lat="45.49995496703209" lon="11.108830932723501"><ele>445.0</ele><time>2026-04-07T14:28:08Z</time></trkpt><trkpt lat="45.49985564344139" lon="11.108968547546814"><ele>445.0</ele><time>2026-04-07T14:28:09Z</time></trkpt><trkpt lat="45.49974201491924" lon="11.109064080588809"><ele>445.0</ele><time>2026-04-07T14:28:10Z</time></trkpt><trkpt lat="45.499621441726276" lon="11.109137068473752"><ele>445.0</ele><time>2026-04-07T14:28:11Z</time></trkpt><trkpt lat="45.4994695626304" lon="11.10919204947795"><ele>445.0</ele><time>2026-04-07T14:28:12Z</time></trkpt><trkpt lat="45.49931311990505" lon="11.109291830679537"><ele>442.5</ele><time>2026-04-07T14:28:13Z</time></trkpt><trkpt lat="45.499177900258786" lon="11.109385050713858"><ele>440.0</ele><time>2026-04-07T14:28:14Z</time></trkpt><trkpt lat="45.49906671268303" lon="11.10943815770501"><ele>437.5</ele><time>2026-04-07T14:28:15Z</time></trkpt><trkpt lat="45.49895973596466" lon="11.109442692792717"><ele>435.0</ele><time>2026-04-07T14:28:16Z</time></trkpt><trkpt lat="45.49884044953772" lon="11.109400647851254"><ele>435.6</ele><time>2026-04-07T14:28:17Z</time></trkpt><trkpt lat="45.49871521556381" lon="11.10933592243483"><ele>436.2</ele><time>2026-04-07T14:28:18Z</time></trkpt><trkpt lat="45.498604336992884" lon="11.109278733224329"><ele>436.79999999999995</ele><time>2026-04-07T14:28:19Z</time></trkpt><trkpt lat="45.498500327639086" lon="11.109241378543427"><ele>437.4</ele><time>2026-04-07T14:28:20Z</time></trkpt><trkpt lat="45.49841311686115" lon="11.10922312938199"><ele>438.0</ele><time>2026-04-07T14:28:21Z</time></trkpt><trkpt lat="45.49832174543918" lon="11.10924254489053"><ele>438.0</ele><time>2026-04-07T14:28:22Z</time></trkpt><trkpt lat="45.498217695259555" lon="11.109296055185235"><ele>437.99999999999994</ele><time>2026-04-07T14:28:23Z</time></trkpt><trkpt lat="45.49812617926291" lon="11.109351021845502"><ele>437.99999999999994</ele><time>2026-04-07T14:28:24Z</time></trkpt><trkpt lat="45.49804382193468" lon="11.109383117999947"><ele>438.0</ele><time>2026-04-07T14:28:25Z</time></trkpt><trkpt lat="45.497969320285485" lon="11.109360048405403"><ele>438.0</ele><time>2026-04-07T14:28:26Z</time></trkpt><trkpt lat="45.49788080135531" lon="11.109299874794624"><ele>435.1666666666667</ele><time>2026-04-07T14:28:27Z</time></trkpt><trkpt lat="45.49780656987828" lon="11.109223217659919"><ele>432.33333333333337</ele><time>2026-04-07T14:28:27.999Z</time></trkpt><trkpt lat="45.49776092728646" lon="11.10910090659399"><ele>429.5</ele><time>2026-04-07T14:28:28.999Z</time></trkpt><trkpt lat="45.49770953109252" lon="11.108984961649204"><ele>426.6666666666667</ele><time>2026-04-07T14:28:29.999Z</time></trkpt><trkpt lat="45.49768270910898" lon="11.108866625465886"><ele>423.83333333333337</ele><time>2026-04-07T14:28:30.999Z</time></trkpt><trkpt lat="45.49770342913997" lon="11.108763710526377"><ele>421.0</ele><time>2026-04-07T14:28:31.999Z</time></trkpt><trkpt lat="45.497719299746336" lon="11.108575600993573"><ele>421.0</ele><time>2026-04-07T14:28:33.999Z</time></trkpt><trkpt lat="45.49771692979518" lon="11.108434441612202"><ele>421.0</ele><time>2026-04-07T14:28:35.999Z</time></trkpt><trkpt lat="45.49772097638243" lon="11.108327012618178"><ele>421.0</ele><time>2026-04-07T14:28:37.999Z</time></trkpt><trkpt lat="45.49776303793197" lon="11.108201432637863"><ele>421.0</ele><time>2026-04-07T14:28:38.999Z</time></trkpt><trkpt lat="45.497789328819174" lon="11.108037571895093"><ele>421.0</ele><time>2026-04-07T14:28:39.999Z</time></trkpt><trkpt lat="45.49782512811119" lon="11.107873166233153"><ele>421.6</ele><time>2026-04-07T14:28:40.999Z</time></trkpt><trkpt lat="45.49783601193692" lon="11.107727322788815"><ele>422.20000000000005</ele><time>2026-04-07T14:28:41.999Z</time></trkpt><trkpt lat="45.49782377030069" lon="11.107583203386618"><ele>422.79999999999995</ele><time>2026-04-07T14:28:42.999Z</time></trkpt><trkpt lat="45.49778791239953" lon="11.107440058951394"><ele>423.4</ele><time>2026-04-07T14:28:43.999Z</time></trkpt><trkpt lat="45.49771751945482" lon="11.107294988535559"><ele>424.0</ele><time>2026-04-07T14:28:44.999Z</time></trkpt><trkpt lat="45.49763171609958" lon="11.107151332872242"><ele>427.5</ele><time>2026-04-07T14:28:45.999Z</time></trkpt><trkpt lat="45.497533893169084" lon="11.107028407180165"><ele>431.0</ele><time>2026-04-07T14:28:46.999Z</time></trkpt><trkpt lat="45.497426942164154" lon="11.106945015917667"><ele>434.5</ele><time>2026-04-07T14:28:47.999Z</time></trkpt><trkpt lat="45.49732677722313" lon="11.1068873918246"><ele>438.0</ele><time>2026-04-07T14:28:48.999Z</time></trkpt><trkpt lat="45.49723259177166" lon="11.106826087040343"><ele>438.0</ele><time>2026-04-07T14:28:49.999Z</time></trkpt><trkpt lat="45.4971512578821" lon="11.106746507537336"><ele>437.99999999999994</ele><time>2026-04-07T14:28:50.999Z</time></trkpt><trkpt lat="45.4970853925942" lon="11.106646763061581"><ele>437.99999999999994</ele><time>2026-04-07T14:28:51.999Z</time></trkpt><trkpt lat="45.49704662744354" lon="11.106524255920343"><ele>438.0</ele><time>2026-04-07T14:28:52.999Z</time></trkpt><trkpt lat="45.497030306702094" lon="11.106369916854371"><ele>438.0</ele><time>2026-04-07T14:28:53.999Z</time></trkpt><trkpt lat="45.497024559722" lon="11.106190128253095"><ele>437.59999999999997</ele><time>2026-04-07T14:28:54.999Z</time></trkpt><trkpt lat="45.49701462149241" lon="11.105981262595652"><ele>437.19999999999993</ele><time>2026-04-07T14:28:55.999Z</time></trkpt><trkpt lat="45.49699309207844" lon="11.105838609610972"><ele>436.8</ele><time>2026-04-07T14:28:56.999Z</time></trkpt><trkpt lat="45.4969669853771" lon="11.105708716598985"><ele>436.4</ele><time>2026-04-07T14:28:57.999Z</time></trkpt><trkpt lat="45.49692529414426" lon="11.10561409847861"><ele>436.0</ele><time>2026-04-07T14:28:58.999Z</time></trkpt><trkpt lat="45.496870130886535" lon="11.105560974163831"><ele>436.0</ele><time>2026-04-07T14:28:59.999Z</time></trkpt><trkpt lat="45.49674487391687" lon="11.105553762708777"><ele>436.0</ele><time>2026-04-07T14:29:01.999Z</time></trkpt><trkpt lat="45.49669668885953" lon="11.105707311664686"><ele>436.0</ele><time>2026-04-07T14:29:02.999Z</time></trkpt><trkpt lat="45.49663163810129" lon="11.105820124390803"><ele>436.0</ele><time>2026-04-07T14:29:03.999Z</time></trkpt><trkpt lat="45.49655256710387" lon="11.10593334268666"><ele>436.0</ele><time>2026-04-07T14:29:04.999Z</time></trkpt><trkpt lat="45.49645436949442" lon="11.10598983808174"><ele>436.0</ele><time>2026-04-07T14:29:05.999Z</time></trkpt><trkpt lat="45.496327837826584" lon="11.106046687435791"><ele>436.0</ele><time>2026-04-07T14:29:06.999Z</time></trkpt><trkpt lat="45.49617715576613" lon="11.106080993675235"><ele>436.0</ele><time>2026-04-07T14:29:07.999Z</time></trkpt><trkpt lat="45.49600006582954" lon="11.106109059151724"><ele>436.33333333333337</ele><time>2026-04-07T14:29:08.999Z</time></trkpt><trkpt lat="45.49581335472611" lon="11.106123931816354"><ele>436.66666666666663</ele><time>2026-04-07T14:29:09.999Z</time></trkpt><trkpt lat="45.495599950132515" lon="11.106114631559919"><ele>437.0</ele><time>2026-04-07T14:29:10.999Z</time></trkpt><trkpt lat="45.49536417383831" lon="11.106137175984154"><ele>437.0</ele><time>2026-04-07T14:29:11.999Z</time></trkpt><trkpt lat="45.49510550906604" lon="11.106141422898359"><ele>437.0</ele><time>2026-04-07T14:29:12.999Z</time></trkpt><trkpt lat="45.494837103186335" lon="11.106160574011886"><ele>440.0</ele><time>2026-04-07T14:29:13.999Z</time></trkpt><trkpt lat="45.49455750457307" lon="11.106192176392273"><ele>443.0</ele><time>2026-04-07T14:29:14.999Z</time></trkpt><trkpt lat="45.49428811706099" lon="11.106224478196715"><ele>443.0</ele><time>2026-04-07T14:29:15.999Z</time></trkpt><trkpt lat="45.49406208796875" lon="11.106259905804974"><ele>443.0</ele><time>2026-04-07T14:29:16.999Z</time></trkpt><trkpt lat="45.49385194443762" lon="11.106292890722713"><ele>443.0</ele><time>2026-04-07T14:29:17.999Z</time></trkpt><trkpt lat="45.49365819761346" lon="11.10632448005065"><ele>445.0</ele><time>2026-04-07T14:29:18.999Z</time></trkpt><trkpt lat="45.493495419949056" lon="11.106347734779732"><ele>447.0</ele><time>2026-04-07T14:29:19.999Z</time></trkpt><trkpt lat="45.49334842644252" lon="11.106366213995553"><ele>449.0</ele><time>2026-04-07T14:29:20.999Z</time></trkpt><trkpt lat="45.49320379913475" lon="11.106342945974523"><ele>449.0</ele><time>2026-04-07T14:29:21.999Z</time></trkpt><trkpt lat="45.49306982333659" lon="11.106352580731539"><ele>449.0</ele><time>2026-04-07T14:29:22.999Z</time></trkpt><trkpt lat="45.492956922950704" lon="11.106334246073061"><ele>449.0</ele><time>2026-04-07T14:29:23.999Z</time></trkpt><trkpt lat="45.49286981844113" lon="11.106316599782277"><ele>449.0</ele><time>2026-04-07T14:29:24.999Z</time></trkpt><trkpt lat="45.49275695902694" lon="11.10630074196319"><ele>449.0</ele><time>2026-04-07T14:29:26.998Z</time></trkpt><trkpt lat="45.49263724761212" lon="11.106227584131425"><ele>448.0</ele><time>2026-04-07T14:29:28.998Z</time></trkpt><trkpt lat="45.49254957627409" lon="11.106124084871743"><ele>446.99999999999994</ele><time>2026-04-07T14:29:30.998Z</time></trkpt><trkpt lat="45.49249453994828" lon="11.106056055096118"><ele>446.0</ele><time>2026-04-07T14:29:32.998Z</time></trkpt><trkpt lat="45.49244119626906" lon="11.106004567048211"><ele>445.0</ele><time>2026-04-07T14:29:33.998Z</time></trkpt><trkpt lat="45.4923984790443" lon="11.10593338438193"><ele>444.0</ele><time>2026-04-07T14:29:34.998Z</time></trkpt><trkpt lat="45.492376163252636" lon="11.105846606055593"><ele>443.0</ele><time>2026-04-07T14:29:35.998Z</time></trkpt><trkpt lat="45.49236754192846" lon="11.105752638569582"><ele>442.0</ele><time>2026-04-07T14:29:36.998Z</time></trkpt><trkpt lat="45.49237906610933" lon="11.105650226136937"><ele>441.6</ele><time>2026-04-07T14:29:37.998Z</time></trkpt><trkpt lat="45.49241286734418" lon="11.105523135093488"><ele>441.20000000000005</ele><time>2026-04-07T14:29:38.998Z</time></trkpt><trkpt lat="45.49244157013339" lon="11.105391087365959"><ele>440.8</ele><time>2026-04-07T14:29:39.998Z</time></trkpt><trkpt lat="45.492465840369505" lon="11.105241534828773"><ele>440.4</ele><time>2026-04-07T14:29:40.998Z</time></trkpt><trkpt lat="45.49250061655009" lon="11.10511335069676"><ele>440.0</ele><time>2026-04-07T14:29:41.998Z</time></trkpt><trkpt lat="45.492561556625354" lon="11.105005151756684"><ele>437.5</ele><time>2026-04-07T14:29:42.998Z</time></trkpt><trkpt lat="45.49262111597161" lon="11.104900829080863"><ele>435.0</ele><time>2026-04-07T14:29:43.998Z</time></trkpt><trkpt lat="45.49269761011055" lon="11.104790674742882"><ele>432.5</ele><time>2026-04-07T14:29:44.998Z</time></trkpt><trkpt lat="45.49279043155868" lon="11.104650751356104"><ele>430.0</ele><time>2026-04-07T14:29:45.998Z</time></trkpt><trkpt lat="45.492916804857366" lon="11.104508068380914"><ele>430.6666666666667</ele><time>2026-04-07T14:29:47Z</time></trkpt><trkpt lat="45.49305517907393" lon="11.104323387557766"><ele>431.33333333333337</ele><time>2026-04-07T14:29:48Z</time></trkpt><trkpt lat="45.493208141868735" lon="11.104142007163057"><ele>432.0</ele><time>2026-04-07T14:29:49Z</time></trkpt><trkpt lat="45.493345108226634" lon="11.103977070183799"><ele>432.0</ele><time>2026-04-07T14:29:50Z</time></trkpt><trkpt lat="45.493463869586876" lon="11.103827597940843"><ele>432.0</ele><time>2026-04-07T14:29:51Z</time></trkpt><trkpt lat="45.49357987747071" lon="11.103661529627576"><ele>432.0</ele><time>2026-04-07T14:29:52Z</time></trkpt><trkpt lat="45.493683227139805" lon="11.103492463559189"><ele>438.33333333333337</ele><time>2026-04-07T14:29:53Z</time></trkpt><trkpt lat="45.49376083368732" lon="11.10330474060014"><ele>444.6666666666667</ele><time>2026-04-07T14:29:54Z</time></trkpt><trkpt lat="45.49380890854224" lon="11.103081725352968"><ele>451.0</ele><time>2026-04-07T14:29:55Z</time></trkpt><trkpt lat="45.493824344490825" lon="11.10281831587992"><ele>451.0</ele><time>2026-04-07T14:29:56Z</time></trkpt><trkpt lat="45.4938151198501" lon="11.102532353226472"><ele>451.0</ele><time>2026-04-07T14:29:57Z</time></trkpt><trkpt lat="45.49379049260071" lon="11.102256853433298"><ele>451.0</ele><time>2026-04-07T14:29:58Z</time></trkpt><trkpt lat="45.493758684610206" lon="11.102019197971238"><ele>445.5</ele><time>2026-04-07T14:29:59Z</time></trkpt><trkpt lat="45.49373348837719" lon="11.101812921719842"><ele>440.0</ele><time>2026-04-07T14:30:00Z</time></trkpt><trkpt lat="45.49369451499198" lon="11.101631534928408"><ele>434.5</ele><time>2026-04-07T14:30:01Z</time></trkpt><trkpt lat="45.49360901805405" lon="11.101475644183248"><ele>429.0</ele><time>2026-04-07T14:30:02Z</time></trkpt><trkpt lat="45.4935007285185" lon="11.101352292472015"><ele>429.0</ele><time>2026-04-07T14:30:03Z</time></trkpt><trkpt lat="45.4933868632605" lon="11.101281487031354"><ele>429.0</ele><time>2026-04-07T14:30:04Z</time></trkpt><trkpt lat="45.493298679413954" lon="11.101207917653007"><ele>429.0</ele><time>2026-04-07T14:30:05Z</time></trkpt><trkpt lat="45.49324261553496" lon="11.101106434623693"><ele>429.0</ele><time>2026-04-07T14:30:06Z</time></trkpt><trkpt lat="45.49321102032696" lon="11.100953405463082"><ele>429.0</ele><time>2026-04-07T14:30:07Z</time></trkpt><trkpt lat="45.49319081588207" lon="11.100757577238781"><ele>427.66666666666663</ele><time>2026-04-07T14:30:08Z</time></trkpt><trkpt lat="45.49319409727824" lon="11.100540770130513"><ele>426.3333333333333</ele><time>2026-04-07T14:30:09Z</time></trkpt><trkpt lat="45.493221841457746" lon="11.100307840589082"><ele>425.0</ele><time>2026-04-07T14:30:10Z</time></trkpt><trkpt lat="45.49328289070416" lon="11.100027402893353"><ele>423.0</ele><time>2026-04-07T14:30:11Z</time></trkpt><trkpt lat="45.493343301064115" lon="11.099738817170604"><ele>421.0</ele><time>2026-04-07T14:30:12Z</time></trkpt><trkpt lat="45.493384414104426" lon="11.09944845588884"><ele>419.0</ele><time>2026-04-07T14:30:13Z</time></trkpt><trkpt lat="45.49340406566626" lon="11.099179057704998"><ele>416.3333333333333</ele><time>2026-04-07T14:30:14Z</time></trkpt><trkpt lat="45.49341474434895" lon="11.098932378812787"><ele>413.66666666666663</ele><time>2026-04-07T14:30:15Z</time></trkpt><trkpt lat="45.493424522031965" lon="11.09870387825346"><ele>411.0</ele><time>2026-04-07T14:30:16Z</time></trkpt><trkpt lat="45.49344152117021" lon="11.098500999485243"><ele>411.0</ele><time>2026-04-07T14:30:17Z</time></trkpt><trkpt lat="45.49347308595613" lon="11.098325888506686"><ele>411.0</ele><time>2026-04-07T14:30:18Z</time></trkpt><trkpt lat="45.49352837619732" lon="11.098161954452527"><ele>411.0</ele><time>2026-04-07T14:30:19Z</time></trkpt><trkpt lat="45.49363116940073" lon="11.098054915405097"><ele>411.0</ele><time>2026-04-07T14:30:20Z</time></trkpt><trkpt lat="45.493732352148484" lon="11.09796265076564"><ele>410.66666666666663</ele><time>2026-04-07T14:30:21Z</time></trkpt><trkpt lat="45.49386045255395" lon="11.097939371151393"><ele>410.3333333333333</ele><time>2026-04-07T14:30:22Z</time></trkpt><trkpt lat="45.49402313196001" lon="11.097921600666561"><ele>410.0</ele><time>2026-04-07T14:30:23Z</time></trkpt><trkpt lat="45.49420005467542" lon="11.09790551297298"><ele>410.0</ele><time>2026-04-07T14:30:24Z</time></trkpt><trkpt lat="45.49438350249734" lon="11.097865705975805"><ele>410.0</ele><time>2026-04-07T14:30:25Z</time></trkpt><trkpt lat="45.49454326302824" lon="11.097858548787208"><ele>410.0</ele><time>2026-04-07T14:30:26Z</time></trkpt><trkpt lat="45.494689680311765" lon="11.097854610755086"><ele>414.0</ele><time>2026-04-07T14:30:27Z</time></trkpt><trkpt lat="45.49478772690624" lon="11.097843775893848"><ele>418.0</ele><time>2026-04-07T14:30:28Z</time></trkpt><trkpt lat="45.49484584248872" lon="11.097781677532033"><ele>422.0</ele><time>2026-04-07T14:30:29Z</time></trkpt><trkpt lat="45.49488389391003" lon="11.097691004321533"><ele>426.0</ele><time>2026-04-07T14:30:30Z</time></trkpt><trkpt lat="45.494882382460496" lon="11.097541158049655"><ele>430.0</ele><time>2026-04-07T14:30:31Z</time></trkpt><trkpt lat="45.494836794396456" lon="11.097372113409488"><ele>431.33333333333337</ele><time>2026-04-07T14:30:32Z</time></trkpt><trkpt lat="45.494761921226534" lon="11.097183790903829"><ele>432.66666666666663</ele><time>2026-04-07T14:30:33Z</time></trkpt><trkpt lat="45.494646997799805" lon="11.096985371747751"><ele>434.0</ele><time>2026-04-07T14:30:34Z</time></trkpt><trkpt lat="45.49451633287078" lon="11.096789958842134"><ele>427.5</ele><time>2026-04-07T14:30:35Z</time></trkpt><trkpt lat="45.49438655234907" lon="11.096646162822267"><ele>421.0</ele><time>2026-04-07T14:30:35.999Z</time></trkpt><trkpt lat="45.494270193208955" lon="11.096535070249793"><ele>414.5</ele><time>2026-04-07T14:30:36.999Z</time></trkpt><trkpt lat="45.49417735153381" lon="11.09640861381984"><ele>408.0</ele><time>2026-04-07T14:30:37.999Z</time></trkpt><trkpt lat="45.49410445886232" lon="11.096257971125912"><ele>408.0</ele><time>2026-04-07T14:30:38.999Z</time></trkpt><trkpt lat="45.49406850094024" lon="11.09608261096522"><ele>408.0</ele><time>2026-04-07T14:30:39.999Z</time></trkpt><trkpt lat="45.494090444393606" lon="11.095900228030514"><ele>408.0</ele><time>2026-04-07T14:30:40.999Z</time></trkpt><trkpt lat="45.49414269754611" lon="11.095732514209264"><ele>408.0</ele><time>2026-04-07T14:30:41.999Z</time></trkpt><trkpt lat="45.49421765892884" lon="11.095524531006415"><ele>406.0</ele><time>2026-04-07T14:30:42.999Z</time></trkpt><trkpt lat="45.49430612217773" lon="11.095278580973229"><ele>404.0</ele><time>2026-04-07T14:30:43.999Z</time></trkpt><trkpt lat="45.494392941861314" lon="11.095039001763547"><ele>402.0</ele><time>2026-04-07T14:30:44.999Z</time></trkpt><trkpt lat="45.49447306132355" lon="11.094828257067979"><ele>403.0</ele><time>2026-04-07T14:30:45.999Z</time></trkpt><trkpt lat="45.49455748821484" lon="11.094666888284573"><ele>404.0</ele><time>2026-04-07T14:30:46.999Z</time></trkpt><trkpt lat="45.49467137666994" lon="11.094534876743602"><ele>405.0</ele><time>2026-04-07T14:30:47.999Z</time></trkpt><trkpt lat="45.49480634860654" lon="11.094403891809064"><ele>405.0</ele><time>2026-04-07T14:30:48.999Z</time></trkpt><trkpt lat="45.49493377546795" lon="11.094252105418411"><ele>405.0</ele><time>2026-04-07T14:30:49.999Z</time></trkpt><trkpt lat="45.495050093298076" lon="11.094129948449025"><ele>405.0</ele><time>2026-04-07T14:30:50.999Z</time></trkpt><trkpt lat="45.49512678787604" lon="11.094021470040092"><ele>405.0</ele><time>2026-04-07T14:30:51.999Z</time></trkpt><trkpt lat="45.49516619430082" lon="11.093903031534925"><ele>406.0</ele><time>2026-04-07T14:30:52.999Z</time></trkpt><trkpt lat="45.495157970014304" lon="11.093765925311894"><ele>407.0</ele><time>2026-04-07T14:30:53.999Z</time></trkpt><trkpt lat="45.49511186166227" lon="11.093630655386063"><ele>408.0</ele><time>2026-04-07T14:30:54.999Z</time></trkpt><trkpt lat="45.495030190577886" lon="11.093520295012626"><ele>409.0</ele><time>2026-04-07T14:30:55.999Z</time></trkpt><trkpt lat="45.49490327791431" lon="11.09344252356267"><ele>409.0</ele><time>2026-04-07T14:30:56.999Z</time></trkpt><trkpt lat="45.494747185568244" lon="11.093372641300572"><ele>409.0</ele><time>2026-04-07T14:30:57.999Z</time></trkpt><trkpt lat="45.494579140742104" lon="11.093296918017415"><ele>409.0</ele><time>2026-04-07T14:30:58.999Z</time></trkpt><trkpt lat="45.49439254484991" lon="11.09322916716571"><ele>406.0</ele><time>2026-04-07T14:30:59.999Z</time></trkpt><trkpt lat="45.494190425737955" lon="11.093206603597432"><ele>403.0</ele><time>2026-04-07T14:31:00.999Z</time></trkpt><trkpt lat="45.493973974777205" lon="11.093231735260975"><ele>400.0</ele><time>2026-04-07T14:31:01.999Z</time></trkpt><trkpt lat="45.49376372272221" lon="11.09326282254398"><ele>401.0</ele><time>2026-04-07T14:31:02.999Z</time></trkpt><trkpt lat="45.49354003661861" lon="11.093285772047805"><ele>402.0</ele><time>2026-04-07T14:31:03.999Z</time></trkpt><trkpt lat="45.493342017858886" lon="11.09330130836982"><ele>403.0</ele><time>2026-04-07T14:31:04.999Z</time></trkpt><trkpt lat="45.493144823584174" lon="11.093282605358253"><ele>410.6666666666667</ele><time>2026-04-07T14:31:05.999Z</time></trkpt><trkpt lat="45.49293397141146" lon="11.09323757144288"><ele>418.33333333333337</ele><time>2026-04-07T14:31:06.999Z</time></trkpt><trkpt lat="45.492713513662636" lon="11.093181395919483"><ele>426.0</ele><time>2026-04-07T14:31:07.999Z</time></trkpt><trkpt lat="45.492493602236365" lon="11.093132206843539"><ele>426.0</ele><time>2026-04-07T14:31:08.999Z</time></trkpt><trkpt lat="45.49226840585258" lon="11.093098032810918"><ele>426.0</ele><time>2026-04-07T14:31:09.999Z</time></trkpt><trkpt lat="45.49205628330589" lon="11.09309101472516"><ele>426.0</ele><time>2026-04-07T14:31:10.999Z</time></trkpt><trkpt lat="45.49186278072971" lon="11.09309803339308"><ele>421.33333333333337</ele><time>2026-04-07T14:31:11.999Z</time></trkpt><trkpt lat="45.49168709387363" lon="11.093095721936631"><ele>416.6666666666667</ele><time>2026-04-07T14:31:12.999Z</time></trkpt><trkpt lat="45.49152707367046" lon="11.093099921869873"><ele>412.0</ele><time>2026-04-07T14:31:13.999Z</time></trkpt><trkpt lat="45.491388326690306" lon="11.093102665553475"><ele>407.25</ele><time>2026-04-07T14:31:14.999Z</time></trkpt><trkpt lat="45.491255123209946" lon="11.093072384315104"><ele>402.5</ele><time>2026-04-07T14:31:15.999Z</time></trkpt><trkpt lat="45.49113365367223" lon="11.09298831824647"><ele>397.75</ele><time>2026-04-07T14:31:16.999Z</time></trkpt><trkpt lat="45.49101902519929" lon="11.092858505381619"><ele>393.0</ele><time>2026-04-07T14:31:17.999Z</time></trkpt><trkpt lat="45.49091347776513" lon="11.092684301033463"><ele>393.0</ele><time>2026-04-07T14:31:18.999Z</time></trkpt><trkpt lat="45.49081114990474" lon="11.09246885529738"><ele>393.0</ele><time>2026-04-07T14:31:19.999Z</time></trkpt><trkpt lat="45.49069519281457" lon="11.092233801278283"><ele>393.0</ele><time>2026-04-07T14:31:20.999Z</time></trkpt><trkpt lat="45.49055380920791" lon="11.092008090425415"><ele>389.5</ele><time>2026-04-07T14:31:21.999Z</time></trkpt><trkpt lat="45.4903793362662" lon="11.091780447785016"><ele>386.0</ele><time>2026-04-07T14:31:22.999Z</time></trkpt><trkpt lat="45.490200423344156" lon="11.091564757823056"><ele>386.0</ele><time>2026-04-07T14:31:23.999Z</time></trkpt><trkpt lat="45.49001926766339" lon="11.0913484215734"><ele>386.0</ele><time>2026-04-07T14:31:24.999Z</time></trkpt><trkpt lat="45.48984699670053" lon="11.091141087428774"><ele>386.0</ele><time>2026-04-07T14:31:25.999Z</time></trkpt><trkpt lat="45.48968231104661" lon="11.090952227836597"><ele>386.0</ele><time>2026-04-07T14:31:26.999Z</time></trkpt><trkpt lat="45.48952602273896" lon="11.090763853319814"><ele>386.0</ele><time>2026-04-07T14:31:27.999Z</time></trkpt><trkpt lat="45.4893798121969" lon="11.090591563482768"><ele>383.3333333333333</ele><time>2026-04-07T14:31:28.999Z</time></trkpt><trkpt lat="45.489237061596036" lon="11.090424497031222"><ele>380.66666666666663</ele><time>2026-04-07T14:31:29.999Z</time></trkpt><trkpt lat="45.489085364905705" lon="11.090272145384214"><ele>378.0</ele><time>2026-04-07T14:31:30.998Z</time></trkpt><trkpt lat="45.48891529503883" lon="11.090150570850223"><ele>377.6666666666667</ele><time>2026-04-07T14:31:31.998Z</time></trkpt><trkpt lat="45.488716905845926" lon="11.090050384586961"><ele>377.33333333333337</ele><time>2026-04-07T14:31:32.998Z</time></trkpt><trkpt lat="45.4885115750989" lon="11.089959490048226"><ele>377.0</ele><time>2026-04-07T14:31:33.998Z</time></trkpt><trkpt lat="45.48831999195901" lon="11.089874308744575"><ele>375.0</ele><time>2026-04-07T14:31:34.998Z</time></trkpt><trkpt lat="45.48815153678101" lon="11.089802658578035"><ele>373.0</ele><time>2026-04-07T14:31:35.998Z</time></trkpt><trkpt lat="45.4878967188078" lon="11.08970165132338"><ele>371.0</ele><time>2026-04-07T14:31:36.998Z</time></trkpt><trkpt lat="45.487691532410196" lon="11.089622315158026"><ele>371.0</ele><time>2026-04-07T14:31:37.998Z</time></trkpt><trkpt lat="45.48749453335954" lon="11.089551280403368"><ele>371.0</ele><time>2026-04-07T14:31:38.998Z</time></trkpt><trkpt lat="45.48730455849217" lon="11.089488689120984"><ele>371.0</ele><time>2026-04-07T14:31:39.998Z</time></trkpt><trkpt lat="45.4871183558286" lon="11.08943057740957"><ele>371.0</ele><time>2026-04-07T14:31:40.998Z</time></trkpt><trkpt lat="45.48693079599422" lon="11.089375271905112"><ele>371.0</ele><time>2026-04-07T14:31:41.998Z</time></trkpt><trkpt lat="45.48674232465001" lon="11.089333713520125"><ele>371.0</ele><time>2026-04-07T14:31:42.998Z</time></trkpt><trkpt lat="45.48655871419371" lon="11.089306948420413"><ele>371.0</ele><time>2026-04-07T14:31:43.998Z</time></trkpt><trkpt lat="45.486386310114995" lon="11.089290333165444"><ele>371.0</ele><time>2026-04-07T14:31:44.998Z</time></trkpt><trkpt lat="45.48621346827515" lon="11.089281037169773"><ele>371.0</ele><time>2026-04-07T14:31:45.998Z</time></trkpt><trkpt lat="45.48604180728292" lon="11.08928187333795"><ele>369.6666666666667</ele><time>2026-04-07T14:31:46.998Z</time></trkpt><trkpt lat="45.48587227697515" lon="11.089285252849699"><ele>368.3333333333333</ele><time>2026-04-07T14:31:47.998Z</time></trkpt><trkpt lat="45.48571501242741" lon="11.08928013260837"><ele>367.0</ele><time>2026-04-07T14:31:48.998Z</time></trkpt><trkpt lat="45.485561252067264" lon="11.089275321182203"><ele>365.75</ele><time>2026-04-07T14:31:49.998Z</time></trkpt><trkpt lat="45.48542247992455" lon="11.089281683997985"><ele>364.5</ele><time>2026-04-07T14:31:50.998Z</time></trkpt><trkpt lat="45.48528341725384" lon="11.089285326928882"><ele>363.25</ele><time>2026-04-07T14:31:51.998Z</time></trkpt><trkpt lat="45.48514594199213" lon="11.08930509560319"><ele>362.0</ele><time>2026-04-07T14:31:53Z</time></trkpt><trkpt lat="45.48501828271448" lon="11.089331022596715"><ele>362.0</ele><time>2026-04-07T14:31:54Z</time></trkpt><trkpt lat="45.48490520502994" lon="11.08937816754991"><ele>362.0</ele><time>2026-04-07T14:31:55Z</time></trkpt><trkpt lat="45.484788439505046" lon="11.089433672810628"><ele>362.0</ele><time>2026-04-07T14:31:56Z</time></trkpt><trkpt lat="45.484680694875244" lon="11.089505074993228"><ele>362.0</ele><time>2026-04-07T14:31:57Z</time></trkpt><trkpt lat="45.48459050582763" lon="11.089596145928972"><ele>360.75</ele><time>2026-04-07T14:31:58Z</time></trkpt><trkpt lat="45.48449864905254" lon="11.089702833756514"><ele>359.5</ele><time>2026-04-07T14:31:59Z</time></trkpt><trkpt lat="45.48439758515053" lon="11.089812737872771"><ele>358.25</ele><time>2026-04-07T14:32:00Z</time></trkpt><trkpt lat="45.48427747140853" lon="11.089928202172839"><ele>357.0</ele><time>2026-04-07T14:32:01Z</time></trkpt><trkpt lat="45.48413846581605" lon="11.09005594443121"><ele>357.0</ele><time>2026-04-07T14:32:02Z</time></trkpt><trkpt lat="45.483981657156974" lon="11.090203816170275"><ele>357.0</ele><time>2026-04-07T14:32:03Z</time></trkpt><trkpt lat="45.48381174930146" lon="11.090368626652728"><ele>357.0</ele><time>2026-04-07T14:32:04Z</time></trkpt><trkpt lat="45.48362667019388" lon="11.090543063250221"><ele>356.3333333333333</ele><time>2026-04-07T14:32:05Z</time></trkpt><trkpt lat="45.48345118201833" lon="11.090706943968536"><ele>355.66666666666663</ele><time>2026-04-07T14:32:06Z</time></trkpt><trkpt lat="45.48328179150585" lon="11.090873490515401"><ele>355.0</ele><time>2026-04-07T14:32:07Z</time></trkpt><trkpt lat="45.48311470919652" lon="11.091041262820971"><ele>355.0</ele><time>2026-04-07T14:32:08Z</time></trkpt><trkpt lat="45.48295096710087" lon="11.091192954425637"><ele>355.0</ele><time>2026-04-07T14:32:09Z</time></trkpt><trkpt lat="45.482786937739526" lon="11.091349593599011"><ele>355.0</ele><time>2026-04-07T14:32:10Z</time></trkpt><trkpt lat="45.48263231919566" lon="11.091502750346447"><ele>351.3333333333333</ele><time>2026-04-07T14:32:11Z</time></trkpt><trkpt lat="45.482484309958856" lon="11.091648324566378"><ele>347.6666666666667</ele><time>2026-04-07T14:32:12Z</time></trkpt><trkpt lat="45.48232651627638" lon="11.091788696161528"><ele>344.0</ele><time>2026-04-07T14:32:13Z</time></trkpt><trkpt lat="45.4821570150206" lon="11.091917542598773"><ele>344.33333333333337</ele><time>2026-04-07T14:32:14Z</time></trkpt><trkpt lat="45.48198109286525" lon="11.092029838878615"><ele>344.6666666666667</ele><time>2026-04-07T14:32:15Z</time></trkpt><trkpt lat="45.481800879589805" lon="11.092127295368218"><ele>345.0</ele><time>2026-04-07T14:32:16Z</time></trkpt><trkpt lat="45.48161369320195" lon="11.092224608140262"><ele>345.0</ele><time>2026-04-07T14:32:17Z</time></trkpt><trkpt lat="45.48142943935992" lon="11.092326378849553"><ele>345.0</ele><time>2026-04-07T14:32:18Z</time></trkpt><trkpt lat="45.481251606212204" lon="11.092425348093096"><ele>345.0</ele><time>2026-04-07T14:32:19Z</time></trkpt><trkpt lat="45.48107369849131" lon="11.092520072268197"><ele>339.6666666666667</ele><time>2026-04-07T14:32:20Z</time></trkpt><trkpt lat="45.48089005379793" lon="11.092615311926345"><ele>334.33333333333337</ele><time>2026-04-07T14:32:21Z</time></trkpt><trkpt lat="45.480694656572965" lon="11.092723766977075"><ele>329.0</ele><time>2026-04-07T14:32:22Z</time></trkpt><trkpt lat="45.48047446094798" lon="11.09283341705507"><ele>327.5</ele><time>2026-04-07T14:32:23Z</time></trkpt><trkpt lat="45.48022247023544" lon="11.092974826827383"><ele>326.0</ele><time>2026-04-07T14:32:24Z</time></trkpt><trkpt lat="45.479962089121024" lon="11.093118763967412"><ele>326.0</ele><time>2026-04-07T14:32:25Z</time></trkpt><trkpt lat="45.479718889520946" lon="11.093251743227084"><ele>326.0</ele><time>2026-04-07T14:32:26Z</time></trkpt><trkpt lat="45.479496569527704" lon="11.093375197464674"><ele>320.0</ele><time>2026-04-07T14:32:27Z</time></trkpt><trkpt lat="45.479285976599805" lon="11.093486558555641"><ele>314.0</ele><time>2026-04-07T14:32:28Z</time></trkpt><trkpt lat="45.47908135821338" lon="11.093603329019027"><ele>308.0</ele><time>2026-04-07T14:32:29Z</time></trkpt><trkpt lat="45.47888560895011" lon="11.093743378250887"><ele>305.33333333333337</ele><time>2026-04-07T14:32:30Z</time></trkpt><trkpt lat="45.47870542621374" lon="11.09392118557982"><ele>302.6666666666667</ele><time>2026-04-07T14:32:31Z</time></trkpt><trkpt lat="45.47855263944425" lon="11.094106188097221"><ele>300.0</ele><time>2026-04-07T14:32:32Z</time></trkpt><trkpt lat="45.478423036429646" lon="11.094270354723939"><ele>297.0</ele><time>2026-04-07T14:32:33Z</time></trkpt><trkpt lat="45.47830878584364" lon="11.094407774829726"><ele>294.0</ele><time>2026-04-07T14:32:34Z</time></trkpt><trkpt lat="45.4782062693249" lon="11.094530538463719"><ele>291.0</ele><time>2026-04-07T14:32:35Z</time></trkpt><trkpt lat="45.478124457591676" lon="11.094631869408506"><ele>288.0</ele><time>2026-04-07T14:32:36Z</time></trkpt><trkpt lat="45.47807942238291" lon="11.094725231110592"><ele>288.0</ele><time>2026-04-07T14:32:37Z</time></trkpt><trkpt lat="45.47807718456766" lon="11.094841209141363"><ele>288.0</ele><time>2026-04-07T14:32:38Z</time></trkpt><trkpt lat="45.478129268964224" lon="11.094960397194036"><ele>288.0</ele><time>2026-04-07T14:32:39Z</time></trkpt><trkpt lat="45.4782080865618" lon="11.095046312909119"><ele>288.0</ele><time>2026-04-07T14:32:40Z</time></trkpt><trkpt lat="45.47834195096893" lon="11.095025211033022"><ele>288.0</ele><time>2026-04-07T14:32:41Z</time></trkpt><trkpt lat="45.47848653319926" lon="11.094940689395129"><ele>288.0</ele><time>2026-04-07T14:32:41.999Z</time></trkpt><trkpt lat="45.47864951378801" lon="11.094821421003545"><ele>288.0</ele><time>2026-04-07T14:32:42.999Z</time></trkpt><trkpt lat="45.478826748923666" lon="11.094769984713626"><ele>288.0</ele><time>2026-04-07T14:32:43.999Z</time></trkpt><trkpt lat="45.47899291439406" lon="11.09477741714801"><ele>288.6666666666667</ele><time>2026-04-07T14:32:44.999Z</time></trkpt><trkpt lat="45.47918177013021" lon="11.094831576730378"><ele>289.33333333333337</ele><time>2026-04-07T14:32:45.999Z</time></trkpt><trkpt lat="45.47939387635207" lon="11.09489390673306"><ele>290.0</ele><time>2026-04-07T14:32:46.999Z</time></trkpt><trkpt lat="45.479625295497094" lon="11.094937209607025"><ele>282.6666666666667</ele><time>2026-04-07T14:32:47.999Z</time></trkpt><trkpt lat="45.47984732318124" lon="11.094966993706608"><ele>275.3333333333333</ele><time>2026-04-07T14:32:48.999Z</time></trkpt><trkpt lat="45.48006928443728" lon="11.094968460147959"><ele>268.0</ele><time>2026-04-07T14:32:49.999Z</time></trkpt><trkpt lat="45.4802866876921" lon="11.09493168215469"><ele>275.3333333333333</ele><time>2026-04-07T14:32:50.999Z</time></trkpt><trkpt lat="45.48050098024031" lon="11.094871246431783"><ele>282.6666666666667</ele><time>2026-04-07T14:32:51.999Z</time></trkpt><trkpt lat="45.48069669325913" lon="11.094815188814135"><ele>290.0</ele><time>2026-04-07T14:32:52.999Z</time></trkpt><trkpt lat="45.48087757753592" lon="11.094788250695087"><ele>290.0</ele><time>2026-04-07T14:32:53.999Z</time></trkpt><trkpt lat="45.48105670424568" lon="11.094740561400675"><ele>290.0</ele><time>2026-04-07T14:32:54.999Z</time></trkpt><trkpt lat="45.48124283487242" lon="11.094692082054525"><ele>290.0</ele><time>2026-04-07T14:32:55.999Z</time></trkpt><trkpt lat="45.481415379234534" lon="11.094647492520744"><ele>287.0</ele><time>2026-04-07T14:32:56.999Z</time></trkpt><trkpt lat="45.48157015946288" lon="11.09459221700389"><ele>284.0</ele><time>2026-04-07T14:32:57.999Z</time></trkpt><trkpt lat="45.481704531159814" lon="11.094577844952633"><ele>281.0</ele><time>2026-04-07T14:32:58.999Z</time></trkpt><trkpt lat="45.48181253115102" lon="11.094557022901393"><ele>278.0</ele><time>2026-04-07T14:32:59.999Z</time></trkpt><trkpt lat="45.48189685959423" lon="11.094545556924377"><ele>278.0</ele><time>2026-04-07T14:33:00.999Z</time></trkpt><trkpt lat="45.481966383250516" lon="11.094555396110257"><ele>278.0</ele><time>2026-04-07T14:33:01.999Z</time></trkpt><trkpt lat="45.48202778643373" lon="11.094694052609922"><ele>278.0</ele><time>2026-04-07T14:33:03.999Z</time></trkpt><trkpt lat="45.4819978420096" lon="11.094832445110937"><ele>278.0</ele><time>2026-04-07T14:33:04.999Z</time></trkpt><trkpt lat="45.48193836536484" lon="11.094982020421076"><ele>278.0</ele><time>2026-04-07T14:33:05.999Z</time></trkpt><trkpt lat="45.48184167583873" lon="11.09513175301354"><ele>270.6666666666667</ele><time>2026-04-07T14:33:06.999Z</time></trkpt><trkpt lat="45.48171540995707" lon="11.095256408495665"><ele>263.3333333333333</ele><time>2026-04-07T14:33:07.999Z</time></trkpt><trkpt lat="45.481535668404746" lon="11.095358721504047"><ele>256.0</ele><time>2026-04-07T14:33:08.999Z</time></trkpt><trkpt lat="45.48136828867152" lon="11.095414794606716"><ele>258.0</ele><time>2026-04-07T14:33:09.999Z</time></trkpt><trkpt lat="45.48121276377537" lon="11.095458578409508"><ele>260.0</ele><time>2026-04-07T14:33:10.999Z</time></trkpt><trkpt lat="45.48105202506684" lon="11.095529716527814"><ele>262.0</ele><time>2026-04-07T14:33:11.999Z</time></trkpt><trkpt lat="45.48090929178958" lon="11.095614366047437"><ele>262.0</ele><time>2026-04-07T14:33:12.999Z</time></trkpt><trkpt lat="45.48077962254558" lon="11.09574526165024"><ele>262.0</ele><time>2026-04-07T14:33:13.999Z</time></trkpt><trkpt lat="45.48065334864574" lon="11.095926567033898"><ele>262.0</ele><time>2026-04-07T14:33:14.999Z</time></trkpt><trkpt lat="45.480545943061486" lon="11.096147238570246"><ele>256.66666666666663</ele><time>2026-04-07T14:33:15.999Z</time></trkpt><trkpt lat="45.4804224210492" lon="11.096360663191115"><ele>251.33333333333331</ele><time>2026-04-07T14:33:16.999Z</time></trkpt><trkpt lat="45.48033193200706" lon="11.096623906623806"><ele>246.0</ele><time>2026-04-07T14:33:17.999Z</time></trkpt><trkpt lat="45.48023288542626" lon="11.096871118636038"><ele>241.0</ele><time>2026-04-07T14:33:18.999Z</time></trkpt><trkpt lat="45.4801370682837" lon="11.097082036099414"><ele>236.0</ele><time>2026-04-07T14:33:19.999Z</time></trkpt><trkpt lat="45.48005286064078" lon="11.097260068276913"><ele>231.0</ele><time>2026-04-07T14:33:20.999Z</time></trkpt><trkpt lat="45.47994577338691" lon="11.09736970296147"><ele>227.75</ele><time>2026-04-07T14:33:21.999Z</time></trkpt><trkpt lat="45.47985077311684" lon="11.09748726817836"><ele>224.5</ele><time>2026-04-07T14:33:22.999Z</time></trkpt><trkpt lat="45.47971730623718" lon="11.097455903504432"><ele>221.25</ele><time>2026-04-07T14:33:23.999Z</time></trkpt><trkpt lat="45.47955607604256" lon="11.097470111915836"><ele>218.0</ele><time>2026-04-07T14:33:24.999Z</time></trkpt><trkpt lat="45.479364402914456" lon="11.09748592189262"><ele>217.66666666666669</ele><time>2026-04-07T14:33:25.999Z</time></trkpt><trkpt lat="45.47914917940179" lon="11.09752292125732"><ele>217.33333333333331</ele><time>2026-04-07T14:33:26.999Z</time></trkpt><trkpt lat="45.47893212297832" lon="11.09758262795822"><ele>217.0</ele><time>2026-04-07T14:33:27.999Z</time></trkpt><trkpt lat="45.47871887472464" lon="11.097698747729941"><ele>216.0</ele><time>2026-04-07T14:33:28.999Z</time></trkpt><trkpt lat="45.47850906114788" lon="11.097857058355942"><ele>215.0</ele><time>2026-04-07T14:33:29.999Z</time></trkpt><trkpt lat="45.47831589860123" lon="11.098029709245226"><ele>215.0</ele><time>2026-04-07T14:33:30.999Z</time></trkpt><trkpt lat="45.47812359159731" lon="11.098173175766172"><ele>215.0</ele><time>2026-04-07T14:33:31.999Z</time></trkpt><trkpt lat="45.47790458799332" lon="11.098264534750447"><ele>215.0</ele><time>2026-04-07T14:33:32.999Z</time></trkpt><trkpt lat="45.47766793598695" lon="11.098331779531986"><ele>204.5</ele><time>2026-04-07T14:33:33.998Z</time></trkpt><trkpt lat="45.47743029934243" lon="11.098372763698189"><ele>194.0</ele><time>2026-04-07T14:33:34.998Z</time></trkpt><trkpt lat="45.47719424566124" lon="11.098433065619334"><ele>191.0</ele><time>2026-04-07T14:33:35.998Z</time></trkpt><trkpt lat="45.476963135006486" lon="11.09845889069867"><ele>188.0</ele><time>2026-04-07T14:33:36.998Z</time></trkpt><trkpt lat="45.47673082519112" lon="11.098498194902222"><ele>188.0</ele><time>2026-04-07T14:33:37.998Z</time></trkpt><trkpt lat="45.476510967839275" lon="11.098541235479358"><ele>188.0</ele><time>2026-04-07T14:33:38.998Z</time></trkpt><trkpt lat="45.47630595767947" lon="11.0985938654004"><ele>188.0</ele><time>2026-04-07T14:33:39.998Z</time></trkpt><trkpt lat="45.476106141303184" lon="11.098653354565698"><ele>187.66666666666666</ele><time>2026-04-07T14:33:40.998Z</time></trkpt><trkpt lat="45.47591090511923" lon="11.098707862961344"><ele>187.33333333333334</ele><time>2026-04-07T14:33:41.998Z</time></trkpt><trkpt lat="45.475721877156275" lon="11.09873341750172"><ele>187.0</ele><time>2026-04-07T14:33:42.998Z</time></trkpt><trkpt lat="45.475543641080066" lon="11.098774836437356"><ele>185.0</ele><time>2026-04-07T14:33:43.998Z</time></trkpt><trkpt lat="45.475362758318056" lon="11.098893877526178"><ele>183.0</ele><time>2026-04-07T14:33:44.998Z</time></trkpt><trkpt lat="45.47514449088337" lon="11.099037195646241"><ele>181.0</ele><time>2026-04-07T14:33:45.998Z</time></trkpt><trkpt lat="45.47490277264021" lon="11.099197266021536"><ele>178.5</ele><time>2026-04-07T14:33:46.998Z</time></trkpt><trkpt lat="45.47463943867712" lon="11.09929069069372"><ele>176.0</ele><time>2026-04-07T14:33:47.998Z</time></trkpt><trkpt lat="45.47439211581484" lon="11.09934580314835"><ele>175.0</ele><time>2026-04-07T14:33:48.998Z</time></trkpt><trkpt lat="45.47416801811031" lon="11.09940029967165"><ele>174.0</ele><time>2026-04-07T14:33:49.998Z</time></trkpt><trkpt lat="45.47395878764901" lon="11.099454376259139"><ele>173.0</ele><time>2026-04-07T14:33:50.998Z</time></trkpt><trkpt lat="45.473756224119455" lon="11.099532914376258"><ele>172.5</ele><time>2026-04-07T14:33:51.998Z</time></trkpt><trkpt lat="45.47354406506369" lon="11.099644895506131"><ele>172.0</ele><time>2026-04-07T14:33:52.998Z</time></trkpt><trkpt lat="45.47331986334879" lon="11.099780060545534"><ele>172.0</ele><time>2026-04-07T14:33:53.998Z</time></trkpt><trkpt lat="45.47308975613676" lon="11.099908315120812"><ele>172.0</ele><time>2026-04-07T14:33:54.998Z</time></trkpt><trkpt lat="45.472856387435016" lon="11.100039220851393"><ele>169.5</ele><time>2026-04-07T14:33:55.998Z</time></trkpt><trkpt lat="45.47262255111359" lon="11.100186190828412"><ele>167.0</ele><time>2026-04-07T14:33:56.998Z</time></trkpt><trkpt lat="45.47238468871997" lon="11.10034092025109"><ele>167.0</ele><time>2026-04-07T14:33:57.998Z</time></trkpt><trkpt lat="45.47214432745651" lon="11.100516480299984"><ele>167.0</ele><time>2026-04-07T14:33:59Z</time></trkpt><trkpt lat="45.471915238540475" lon="11.10069265634445"><ele>163.0</ele><time>2026-04-07T14:34:00Z</time></trkpt><trkpt lat="45.47169056865425" lon="11.100856457540134"><ele>159.0</ele><time>2026-04-07T14:34:01Z</time></trkpt><trkpt lat="45.47146693891529" lon="11.101003444181847"><ele>158.5</ele><time>2026-04-07T14:34:02Z</time></trkpt><trkpt lat="45.471241969273024" lon="11.10114406460378"><ele>158.0</ele><time>2026-04-07T14:34:03Z</time></trkpt><trkpt lat="45.47101104565424" lon="11.101240974723568"><ele>158.0</ele><time>2026-04-07T14:34:04Z</time></trkpt><trkpt lat="45.47079031967621" lon="11.101348123809"><ele>158.0</ele><time>2026-04-07T14:34:05Z</time></trkpt><trkpt lat="45.470573117151375" lon="11.101455514397943"><ele>160.5</ele><time>2026-04-07T14:34:06Z</time></trkpt><trkpt lat="45.47036126892327" lon="11.101574652658076"><ele>163.0</ele><time>2026-04-07T14:34:07Z</time></trkpt><trkpt lat="45.47014975352836" lon="11.101675276758005"><ele>159.66666666666669</ele><time>2026-04-07T14:34:08Z</time></trkpt><trkpt lat="45.46994721176242" lon="11.101786282116414"><ele>156.33333333333334</ele><time>2026-04-07T14:34:09Z</time></trkpt><trkpt lat="45.469751352134615" lon="11.101910284405763"><ele>153.0</ele><time>2026-04-07T14:34:10Z</time></trkpt><trkpt lat="45.46954882736734" lon="11.102059204152473"><ele>153.0</ele><time>2026-04-07T14:34:11Z</time></trkpt><trkpt lat="45.46936270115778" lon="11.102218440246526"><ele>153.0</ele><time>2026-04-07T14:34:12Z</time></trkpt><trkpt lat="45.46918771824174" lon="11.102388087916824"><ele>153.0</ele><time>2026-04-07T14:34:13Z</time></trkpt><trkpt lat="45.469004688166365" lon="11.102534758204472"><ele>150.66666666666666</ele><time>2026-04-07T14:34:14Z</time></trkpt><trkpt lat="45.46883491188849" lon="11.102695906256479"><ele>148.33333333333331</ele><time>2026-04-07T14:34:15Z</time></trkpt><trkpt lat="45.4686832877413" lon="11.102856074149608"><ele>146.0</ele><time>2026-04-07T14:34:16Z</time></trkpt><trkpt lat="45.46852217943479" lon="11.10294932153057"><ele>145.33333333333331</ele><time>2026-04-07T14:34:17Z</time></trkpt><trkpt lat="45.46834283935518" lon="11.103014626186964"><ele>144.66666666666666</ele><time>2026-04-07T14:34:18Z</time></trkpt><trkpt lat="45.468145188874956" lon="11.103071597791931"><ele>144.0</ele><time>2026-04-07T14:34:19Z</time></trkpt><trkpt lat="45.46794835245051" lon="11.10307926745166"><ele>144.0</ele><time>2026-04-07T14:34:20Z</time></trkpt><trkpt lat="45.46775195480889" lon="11.103095989172735"><ele>144.0</ele><time>2026-04-07T14:34:21Z</time></trkpt><trkpt lat="45.467579718959115" lon="11.103119481473875"><ele>144.0</ele><time>2026-04-07T14:34:22Z</time></trkpt><trkpt lat="45.467429777367" lon="11.10312988197023"><ele>144.0</ele><time>2026-04-07T14:34:23Z</time></trkpt><trkpt lat="45.467306396989045" lon="11.103215762730025"><ele>144.0</ele><time>2026-04-07T14:34:24Z</time></trkpt><trkpt lat="45.46718775468862" lon="11.10331419610854"><ele>144.0</ele><time>2026-04-07T14:34:25Z</time></trkpt><trkpt lat="45.46708627809634" lon="11.103451982928183"><ele>144.0</ele><time>2026-04-07T14:34:26Z</time></trkpt><trkpt lat="45.46698948121843" lon="11.10363395385303"><ele>142.66666666666666</ele><time>2026-04-07T14:34:27Z</time></trkpt><trkpt lat="45.46687933076791" lon="11.103821101782541"><ele>141.33333333333331</ele><time>2026-04-07T14:34:28Z</time></trkpt><trkpt lat="45.46674505546391" lon="11.104017734080136"><ele>140.0</ele><time>2026-04-07T14:34:29Z</time></trkpt><trkpt lat="45.466602113434114" lon="11.104207002591826"><ele>139.0</ele><time>2026-04-07T14:34:30Z</time></trkpt><trkpt lat="45.46649224699713" lon="11.104355912400342"><ele>138.0</ele><time>2026-04-07T14:34:31Z</time></trkpt><trkpt lat="45.46638661835394" lon="11.104472126118557"><ele>137.0</ele><time>2026-04-07T14:34:32Z</time></trkpt><trkpt lat="45.46630382257764" lon="11.104566673006296"><ele>136.0</ele><time>2026-04-07T14:34:33Z</time></trkpt><trkpt lat="45.46622151104676" lon="11.104662435023258"><ele>136.0</ele><time>2026-04-07T14:34:34Z</time></trkpt><trkpt lat="45.46613598026048" lon="11.104753758637468"><ele>136.0</ele><time>2026-04-07T14:34:35Z</time></trkpt><trkpt lat="45.46604006796788" lon="11.104853463126013"><ele>136.0</ele><time>2026-04-07T14:34:36Z</time></trkpt><trkpt lat="45.46593548507538" lon="11.104948211775767"><ele>136.0</ele><time>2026-04-07T14:34:37Z</time></trkpt><trkpt lat="45.46582042594112" lon="11.105021588020525"><ele>134.8</ele><time>2026-04-07T14:34:38Z</time></trkpt><trkpt lat="45.4657178043943" lon="11.105049080502702"><ele>133.6</ele><time>2026-04-07T14:34:39Z</time></trkpt><trkpt lat="45.465611042416405" lon="11.105040297556213"><ele>132.4</ele><time>2026-04-07T14:34:40Z</time></trkpt><trkpt lat="45.46549333828676" lon="11.104995116700826"><ele>131.2</ele><time>2026-04-07T14:34:41Z</time></trkpt><trkpt lat="45.465389531279584" lon="11.104981287006087"><ele>130.0</ele><time>2026-04-07T14:34:42Z</time></trkpt><trkpt lat="45.46526763267735" lon="11.104959160665256"><ele>129.25</ele><time>2026-04-07T14:34:42.999Z</time></trkpt><trkpt lat="45.465148315059416" lon="11.104913283107328"><ele>128.5</ele><time>2026-04-07T14:34:43.999Z</time></trkpt><trkpt lat="45.46503210462879" lon="11.104845339872895"><ele>127.75</ele><time>2026-04-07T14:34:44.999Z</time></trkpt><trkpt lat="45.4649232587265" lon="11.104785708833418"><ele>127.0</ele><time>2026-04-07T14:34:45.999Z</time></trkpt><trkpt lat="45.46482193489782" lon="11.104752456967967"><ele>128.79999999999998</ele><time>2026-04-07T14:34:46.999Z</time></trkpt><trkpt lat="45.464726074402606" lon="11.104726855442987"><ele>130.6</ele><time>2026-04-07T14:34:47.999Z</time></trkpt><trkpt lat="45.46463784278688" lon="11.104701190787518"><ele>132.39999999999998</ele><time>2026-04-07T14:34:48.999Z</time></trkpt><trkpt lat="45.46454631300523" lon="11.104678433416328"><ele>134.2</ele><time>2026-04-07T14:34:49.999Z</time></trkpt><trkpt lat="45.46443922586258" lon="11.104664653053778"><ele>136.0</ele><time>2026-04-07T14:34:50.999Z</time></trkpt><trkpt lat="45.46432255139623" lon="11.104661898091841"><ele>136.0</ele><time>2026-04-07T14:34:51.999Z</time></trkpt><trkpt lat="45.464201177533795" lon="11.10466642948462"><ele>136.0</ele><time>2026-04-07T14:34:52.999Z</time></trkpt><trkpt lat="45.464074593127016" lon="11.104685569287177"><ele>136.0</ele><time>2026-04-07T14:34:53.999Z</time></trkpt><trkpt lat="45.463945071500746" lon="11.10470457617111"><ele>136.0</ele><time>2026-04-07T14:34:54.999Z</time></trkpt><trkpt lat="45.46382659681614" lon="11.104732628652664"><ele>134.75</ele><time>2026-04-07T14:34:55.999Z</time></trkpt><trkpt lat="45.463716657612366" lon="11.104763219171113"><ele>133.5</ele><time>2026-04-07T14:34:56.999Z</time></trkpt><trkpt lat="45.46360895788587" lon="11.104803315605636"><ele>132.25</ele><time>2026-04-07T14:34:57.999Z</time></trkpt><trkpt lat="45.46349523880745" lon="11.104870975814473"><ele>131.0</ele><time>2026-04-07T14:34:58.999Z</time></trkpt><trkpt lat="45.46338296655332" lon="11.104934130318311"><ele>128.8</ele><time>2026-04-07T14:34:59.999Z</time></trkpt><trkpt lat="45.463274954477825" lon="11.104993500713702"><ele>126.6</ele><time>2026-04-07T14:35:00.999Z</time></trkpt><trkpt lat="45.463175599702915" lon="11.105072295654773"><ele>124.4</ele><time>2026-04-07T14:35:01.999Z</time></trkpt><trkpt lat="45.46307340067009" lon="11.105134183425035"><ele>122.2</ele><time>2026-04-07T14:35:02.999Z</time></trkpt><trkpt lat="45.462981759716875" lon="11.105199050447567"><ele>120.0</ele><time>2026-04-07T14:35:03.999Z</time></trkpt><trkpt lat="45.46288053049785" lon="11.105249768441915"><ele>120.0</ele><time>2026-04-07T14:35:04.999Z</time></trkpt><trkpt lat="45.462777678801004" lon="11.105310506734117"><ele>120.0</ele><time>2026-04-07T14:35:05.999Z</time></trkpt><trkpt lat="45.462665995568045" lon="11.105348527306429"><ele>120.0</ele><time>2026-04-07T14:35:06.999Z</time></trkpt><trkpt lat="45.46255262548787" lon="11.105404436801786"><ele>120.0</ele><time>2026-04-07T14:35:07.999Z</time></trkpt><trkpt lat="45.46243955366819" lon="11.105434145153891"><ele>120.0</ele><time>2026-04-07T14:35:08.999Z</time></trkpt><trkpt lat="45.46233856193983" lon="11.105465569388345"><ele>120.0</ele><time>2026-04-07T14:35:09.999Z</time></trkpt><trkpt lat="45.46222919729199" lon="11.105485887457508"><ele>120.0</ele><time>2026-04-07T14:35:10.999Z</time></trkpt><trkpt lat="45.46210843327535" lon="11.105526660943354"><ele>120.0</ele><time>2026-04-07T14:35:11.999Z</time></trkpt><trkpt lat="45.46196434837682" lon="11.10558007711273"><ele>120.33333333333334</ele><time>2026-04-07T14:35:12.999Z</time></trkpt><trkpt lat="45.461815308487864" lon="11.105655557849383"><ele>120.66666666666667</ele><time>2026-04-07T14:35:13.999Z</time></trkpt><trkpt lat="45.46166078120367" lon="11.105758382550007"><ele>121.0</ele><time>2026-04-07T14:35:14.999Z</time></trkpt><trkpt lat="45.46147918247813" lon="11.105859935213068"><ele>117.66666666666667</ele><time>2026-04-07T14:35:15.999Z</time></trkpt><trkpt lat="45.46129173952658" lon="11.105953813463792"><ele>114.33333333333334</ele><time>2026-04-07T14:35:16.999Z</time></trkpt><trkpt lat="45.46113458522175" lon="11.106024841656849"><ele>111.0</ele><time>2026-04-07T14:35:17.999Z</time></trkpt><trkpt lat="45.46099216655657" lon="11.106088736049891"><ele>111.0</ele><time>2026-04-07T14:35:18.999Z</time></trkpt><trkpt lat="45.4608660029837" lon="11.106142178565792"><ele>111.0</ele><time>2026-04-07T14:35:19.999Z</time></trkpt><trkpt lat="45.460753546127776" lon="11.106195513314303"><ele>111.0</ele><time>2026-04-07T14:35:20.999Z</time></trkpt><trkpt lat="45.460668148225146" lon="11.106233413222629"><ele>111.0</ele><time>2026-04-07T14:35:21.999Z</time></trkpt><trkpt lat="45.46059645342021" lon="11.10626665985991"><ele>111.0</ele><time>2026-04-07T14:35:22.999Z</time></trkpt><trkpt lat="45.4605316407001" lon="11.106293463247829"><ele>111.0</ele><time>2026-04-07T14:35:23.999Z</time></trkpt><trkpt lat="45.4604519306086" lon="11.106326631826004"><ele>111.0</ele><time>2026-04-07T14:35:24.999Z</time></trkpt><trkpt lat="45.46035156393094" lon="11.106371908892411"><ele>111.0</ele><time>2026-04-07T14:35:25.999Z</time></trkpt><trkpt lat="45.460233265664655" lon="11.106426333797732"><ele>111.0</ele><time>2026-04-07T14:35:26.999Z</time></trkpt><trkpt lat="45.460109968257015" lon="11.106481156545323"><ele>111.0</ele><time>2026-04-07T14:35:27.999Z</time></trkpt><trkpt lat="45.45997587848694" lon="11.106541827559525"><ele>109.25</ele><time>2026-04-07T14:35:28.999Z</time></trkpt><trkpt lat="45.45983960132927" lon="11.106602181784625"><ele>107.5</ele><time>2026-04-07T14:35:29.999Z</time></trkpt><trkpt lat="45.4597036225044" lon="11.106663205762914"><ele>105.75</ele><time>2026-04-07T14:35:30.999Z</time></trkpt><trkpt lat="45.45957856601428" lon="11.106726537548358"><ele>104.0</ele><time>2026-04-07T14:35:31.999Z</time></trkpt><trkpt lat="45.45945924147445" lon="11.10679833883241"><ele>104.0</ele><time>2026-04-07T14:35:32.998Z</time></trkpt><trkpt lat="45.45934559156851" lon="11.10687622246969"><ele>104.0</ele><time>2026-04-07T14:35:33.998Z</time></trkpt><trkpt lat="45.459243083471286" lon="11.106953576130604"><ele>104.0</ele><time>2026-04-07T14:35:34.998Z</time></trkpt><trkpt lat="45.459144655825234" lon="11.10704298010514"><ele>104.0</ele><time>2026-04-07T14:35:35.998Z</time></trkpt><trkpt lat="45.459047710977" lon="11.107128137014207"><ele>104.0</ele><time>2026-04-07T14:35:36.998Z</time></trkpt><trkpt lat="45.45894313478108" lon="11.10721914839359"><ele>104.0</ele><time>2026-04-07T14:35:37.998Z</time></trkpt><trkpt lat="45.458830776431384" lon="11.107299620894564"><ele>104.0</ele><time>2026-04-07T14:35:38.998Z</time></trkpt><trkpt lat="45.45872045515411" lon="11.10737329345612"><ele>104.0</ele><time>2026-04-07T14:35:39.998Z</time></trkpt><trkpt lat="45.45860728054215" lon="11.107434423904186"><ele>103.0</ele><time>2026-04-07T14:35:40.998Z</time></trkpt><trkpt lat="45.45848297557043" lon="11.107464465804094"><ele>102.0</ele><time>2026-04-07T14:35:41.998Z</time></trkpt><trkpt lat="45.4583512954471" lon="11.10745175602859"><ele>101.0</ele><time>2026-04-07T14:35:42.998Z</time></trkpt><trkpt lat="45.45821795233775" lon="11.107404690945728"><ele>100.0</ele><time>2026-04-07T14:35:43.998Z</time></trkpt><trkpt lat="45.458092810955804" lon="11.107338799226012"><ele>100.0</ele><time>2026-04-07T14:35:44.998Z</time></trkpt><trkpt lat="45.45797629521394" lon="11.1072655236392"><ele>100.0</ele><time>2026-04-07T14:35:45.998Z</time></trkpt><trkpt lat="45.45784915291493" lon="11.107195416782467"><ele>100.0</ele><time>2026-04-07T14:35:46.998Z</time></trkpt><trkpt lat="45.45771404525558" lon="11.107118543683907"><ele>100.0</ele><time>2026-04-07T14:35:47.998Z</time></trkpt><trkpt lat="45.45757433209956" lon="11.107038202507233"><ele>99.0</ele><time>2026-04-07T14:35:48.998Z</time></trkpt><trkpt lat="45.45743371793642" lon="11.106949249444725"><ele>98.0</ele><time>2026-04-07T14:35:49.998Z</time></trkpt><trkpt lat="45.45728479148238" lon="11.106864701540413"><ele>97.0</ele><time>2026-04-07T14:35:50.998Z</time></trkpt><trkpt lat="45.45713968993371" lon="11.106792280608067"><ele>94.0</ele><time>2026-04-07T14:35:51.998Z</time></trkpt><trkpt lat="45.45698982852229" lon="11.10672107604362"><ele>91.0</ele><time>2026-04-07T14:35:52.998Z</time></trkpt><trkpt lat="45.456834524617044" lon="11.106657141235653"><ele>88.0</ele><time>2026-04-07T14:35:53.998Z</time></trkpt><trkpt lat="45.45666835258252" lon="11.106595105661569"><ele>88.66666666666666</ele><time>2026-04-07T14:35:54.998Z</time></trkpt><trkpt lat="45.45650202562232" lon="11.106546131602498"><ele>89.33333333333333</ele><time>2026-04-07T14:35:55.998Z</time></trkpt><trkpt lat="45.456348628952014" lon="11.106494065498584"><ele>90.0</ele><time>2026-04-07T14:35:56.998Z</time></trkpt><trkpt lat="45.45617960059682" lon="11.106457127455261"><ele>90.0</ele><time>2026-04-07T14:35:57.998Z</time></trkpt><trkpt lat="45.456025334963826" lon="11.106402121069586"><ele>90.0</ele><time>2026-04-07T14:35:58.998Z</time></trkpt><trkpt lat="45.45587672432894" lon="11.106358686424956"><ele>90.0</ele><time>2026-04-07T14:35:59.998Z</time></trkpt><trkpt lat="45.455743132866246" lon="11.106316864145539"><ele>90.0</ele><time>2026-04-07T14:36:00.998Z</time></trkpt><trkpt lat="45.45563017694838" lon="11.10627797391056"><ele>90.0</ele><time>2026-04-07T14:36:01.998Z</time></trkpt><trkpt lat="45.45553602750699" lon="11.106242691587425"><ele>90.0</ele><time>2026-04-07T14:36:02.998Z</time></trkpt><trkpt lat="45.45546158250932" lon="11.106220882143404"><ele>90.0</ele><time>2026-04-07T14:36:03.998Z</time></trkpt><trkpt lat="45.45538914828977" lon="11.106197492416648"><ele>90.0</ele><time>2026-04-07T14:36:05Z</time></trkpt><trkpt lat="45.45527966215888" lon="11.1061605100945"><ele>90.0</ele><time>2026-04-07T14:36:06Z</time></trkpt><trkpt lat="45.45517193503992" lon="11.106121074276576"><ele>88.6</ele><time>2026-04-07T14:36:07Z</time></trkpt><trkpt lat="45.455071589627465" lon="11.106083097622012"><ele>87.2</ele><time>2026-04-07T14:36:08Z</time></trkpt><trkpt lat="45.454963705912" lon="11.10604431419247"><ele>85.80000000000001</ele><time>2026-04-07T14:36:09Z</time></trkpt><trkpt lat="45.45486080991994" lon="11.106005603787237"><ele>84.4</ele><time>2026-04-07T14:36:10Z</time></trkpt><trkpt lat="45.454756325301226" lon="11.105971091378478"><ele>83.0</ele><time>2026-04-07T14:36:11Z</time></trkpt><trkpt lat="45.4546455017517" lon="11.105939069187096"><ele>82.4</ele><time>2026-04-07T14:36:12Z</time></trkpt><trkpt lat="45.454528076409886" lon="11.10589715521263"><ele>81.80000000000001</ele><time>2026-04-07T14:36:13Z</time></trkpt><trkpt lat="45.45443314356253" lon="11.10586549467082"><ele>81.2</ele><time>2026-04-07T14:36:14Z</time></trkpt><trkpt lat="45.454348040177244" lon="11.105844747566236"><ele>80.6</ele><time>2026-04-07T14:36:15Z</time></trkpt><trkpt lat="45.45426700152154" lon="11.105831113855523"><ele>80.0</ele><time>2026-04-07T14:36:16Z</time></trkpt><trkpt lat="45.45419356413615" lon="11.10581160980183"><ele>80.0</ele><time>2026-04-07T14:36:17Z</time></trkpt><trkpt lat="45.45412341740768" lon="11.105789613104395"><ele>80.0</ele><time>2026-04-07T14:36:18Z</time></trkpt><trkpt lat="45.45402068241866" lon="11.10574897096655"><ele>80.0</ele><time>2026-04-07T14:36:19Z</time></trkpt><trkpt lat="45.45389824574402" lon="11.105718906648622"><ele>80.0</ele><time>2026-04-07T14:36:20Z</time></trkpt><trkpt lat="45.453802405129814" lon="11.105694914900067"><ele>80.0</ele><time>2026-04-07T14:36:21Z</time></trkpt><trkpt lat="45.4536758096187" lon="11.105675811088787"><ele>79.85714285714286</ele><time>2026-04-07T14:36:23Z</time></trkpt><trkpt lat="45.453612080048785" lon="11.10565792653584"><ele>79.71428571428572</ele><time>2026-04-07T14:36:24Z</time></trkpt><trkpt lat="45.45354549343312" lon="11.10564031605037"><ele>79.57142857142858</ele><time>2026-04-07T14:36:25Z</time></trkpt><trkpt lat="45.45347304663512" lon="11.105620544676793"><ele>79.42857142857143</ele><time>2026-04-07T14:36:26Z</time></trkpt><trkpt lat="45.45339735277712" lon="11.105601823896857"><ele>79.28571428571429</ele><time>2026-04-07T14:36:27Z</time></trkpt><trkpt lat="45.45332622519592" lon="11.105581865776621"><ele>79.14285714285715</ele><time>2026-04-07T14:36:28Z</time></trkpt><trkpt lat="45.45323948822991" lon="11.105550098659117"><ele>79.0</ele><time>2026-04-07T14:36:29Z</time></trkpt><trkpt lat="45.453118473019" lon="11.105508147277066"><ele>79.0</ele><time>2026-04-07T14:36:30Z</time></trkpt><trkpt lat="45.45296756373322" lon="11.105472084536165"><ele>79.0</ele><time>2026-04-07T14:36:31Z</time></trkpt><trkpt lat="45.452788697482575" lon="11.105438741002148"><ele>79.0</ele><time>2026-04-07T14:36:32Z</time></trkpt><trkpt lat="45.45259357905888" lon="11.10538435730969"><ele>77.66666666666666</ele><time>2026-04-07T14:36:33Z</time></trkpt><trkpt lat="45.452374023967856" lon="11.105347279798526"><ele>76.33333333333333</ele><time>2026-04-07T14:36:34Z</time></trkpt><trkpt lat="45.452161768116916" lon="11.105314580062103"><ele>75.0</ele><time>2026-04-07T14:36:35Z</time></trkpt><trkpt lat="45.451940874981254" lon="11.10527261275721"><ele>73.66666666666667</ele><time>2026-04-07T14:36:36Z</time></trkpt><trkpt lat="45.45173105964731" lon="11.105234309587543"><ele>72.33333333333334</ele><time>2026-04-07T14:36:37Z</time></trkpt><trkpt lat="45.45152381253595" lon="11.10519552865563"><ele>71.0</ele><time>2026-04-07T14:36:38Z</time></trkpt><trkpt lat="45.45132434204903" lon="11.105160968367002"><ele>69.33333333333334</ele><time>2026-04-07T14:36:39Z</time></trkpt><trkpt lat="45.451127445778525" lon="11.105128287143607"><ele>67.66666666666667</ele><time>2026-04-07T14:36:40Z</time></trkpt><trkpt lat="45.450931904545826" lon="11.105102041433382"><ele>66.0</ele><time>2026-04-07T14:36:41Z</time></trkpt><trkpt lat="45.450740201461635" lon="11.105083003783623"><ele>66.0</ele><time>2026-04-07T14:36:42Z</time></trkpt><trkpt lat="45.450549386353615" lon="11.105068248553785"><ele>66.0</ele><time>2026-04-07T14:36:43Z</time></trkpt><trkpt lat="45.450356725859194" lon="11.105049467465001"><ele>66.0</ele><time>2026-04-07T14:36:43.999Z</time></trkpt><trkpt lat="45.45015895736302" lon="11.105030165063592"><ele>65.33333333333333</ele><time>2026-04-07T14:36:44.999Z</time></trkpt><trkpt lat="45.449963547494434" lon="11.105010847780026"><ele>64.66666666666666</ele><time>2026-04-07T14:36:45.999Z</time></trkpt><trkpt lat="45.449760894036004" lon="11.104995627610352"><ele>64.0</ele><time>2026-04-07T14:36:46.999Z</time></trkpt><trkpt lat="45.44956955375144" lon="11.104988229869111"><ele>63.666666666666664</ele><time>2026-04-07T14:36:47.999Z</time></trkpt><trkpt lat="45.44937223479111" lon="11.104970170609935"><ele>63.33333333333333</ele><time>2026-04-07T14:36:48.999Z</time></trkpt><trkpt lat="45.449180632215366" lon="11.104957918374952"><ele>63.0</ele><time>2026-04-07T14:36:49.999Z</time></trkpt><trkpt lat="45.44898641628205" lon="11.104940783050047"><ele>63.0</ele><time>2026-04-07T14:36:50.999Z</time></trkpt><trkpt lat="45.4487931330378" lon="11.104921060837551"><ele>63.0</ele><time>2026-04-07T14:36:51.999Z</time></trkpt><trkpt lat="45.44859932990696" lon="11.104907130144092"><ele>63.0</ele><time>2026-04-07T14:36:52.999Z</time></trkpt><trkpt lat="45.44840867603579" lon="11.104889129617415"><ele>62.33333333333333</ele><time>2026-04-07T14:36:53.999Z</time></trkpt><trkpt lat="45.448220337252266" lon="11.10486666717867"><ele>61.666666666666664</ele><time>2026-04-07T14:36:54.999Z</time></trkpt><trkpt lat="45.4480218741986" lon="11.104847202749816"><ele>61.0</ele><time>2026-04-07T14:36:55.999Z</time></trkpt><trkpt lat="45.447831089469254" lon="11.104832100550459"><ele>60.33333333333333</ele><time>2026-04-07T14:36:56.999Z</time></trkpt><trkpt lat="45.447637722779696" lon="11.104816917914748"><ele>59.66666666666667</ele><time>2026-04-07T14:36:57.999Z</time></trkpt><trkpt lat="45.44744366562524" lon="11.10479600304746"><ele>59.0</ele><time>2026-04-07T14:36:58.999Z</time></trkpt><trkpt lat="45.44724687893709" lon="11.104773386346583"><ele>58.333333333333336</ele><time>2026-04-07T14:36:59.999Z</time></trkpt><trkpt lat="45.447052736672" lon="11.104751263463658"><ele>57.66666666666667</ele><time>2026-04-07T14:37:00.999Z</time></trkpt><trkpt lat="45.44685659669525" lon="11.10471801148987"><ele>57.0</ele><time>2026-04-07T14:37:01.999Z</time></trkpt><trkpt lat="45.446663647364154" lon="11.10466944972558"><ele>57.0</ele><time>2026-04-07T14:37:02.999Z</time></trkpt><trkpt lat="45.44647383412237" lon="11.10461924854989"><ele>57.0</ele><time>2026-04-07T14:37:03.999Z</time></trkpt><trkpt lat="45.44627982101456" lon="11.104573468736982"><ele>57.0</ele><time>2026-04-07T14:37:04.999Z</time></trkpt><trkpt lat="45.446079162857615" lon="11.10452117515829"><ele>56.33333333333333</ele><time>2026-04-07T14:37:05.999Z</time></trkpt><trkpt lat="45.44588243579247" lon="11.104471030783056"><ele>55.666666666666664</ele><time>2026-04-07T14:37:06.999Z</time></trkpt><trkpt lat="45.44568281736941" lon="11.104420420895549"><ele>55.0</ele><time>2026-04-07T14:37:07.999Z</time></trkpt><trkpt lat="45.445482409036714" lon="11.104371590659088"><ele>54.33333333333333</ele><time>2026-04-07T14:37:08.999Z</time></trkpt><trkpt lat="45.44528565006065" lon="11.104323593638806"><ele>53.66666666666667</ele><time>2026-04-07T14:37:09.999Z</time></trkpt><trkpt lat="45.44509384405856" lon="11.104277445622682"><ele>53.0</ele><time>2026-04-07T14:37:10.999Z</time></trkpt><trkpt lat="45.444896433012794" lon="11.104230181926663"><ele>53.0</ele><time>2026-04-07T14:37:11.999Z</time></trkpt><trkpt lat="45.444698811239235" lon="11.104173418840727"><ele>53.0</ele><time>2026-04-07T14:37:12.999Z</time></trkpt><trkpt lat="45.44450002407662" lon="11.104111860471692"><ele>53.0</ele><time>2026-04-07T14:37:13.999Z</time></trkpt><trkpt lat="45.444291962425446" lon="11.104038415954705"><ele>52.333333333333336</ele><time>2026-04-07T14:37:14.999Z</time></trkpt><trkpt lat="45.444090618039496" lon="11.103971342210135"><ele>51.66666666666667</ele><time>2026-04-07T14:37:15.999Z</time></trkpt><trkpt lat="45.44388156440465" lon="11.103900964973857"><ele>51.0</ele><time>2026-04-07T14:37:16.999Z</time></trkpt><trkpt lat="45.443674281830326" lon="11.10382806324722"><ele>51.0</ele><time>2026-04-07T14:37:17.999Z</time></trkpt><trkpt lat="45.44347079785151" lon="11.103757315566106"><ele>51.0</ele><time>2026-04-07T14:37:18.999Z</time></trkpt><trkpt lat="45.44326605613916" lon="11.1036869713574"><ele>51.0</ele><time>2026-04-07T14:37:19.999Z</time></trkpt><trkpt lat="45.44306340712778" lon="11.103617517737478"><ele>50.66666666666667</ele><time>2026-04-07T14:37:20.999Z</time></trkpt><trkpt lat="45.442863385636514" lon="11.10355019852596"><ele>50.333333333333336</ele><time>2026-04-07T14:37:21.999Z</time></trkpt><trkpt lat="45.4426674538542" lon="11.103485077120334"><ele>50.0</ele><time>2026-04-07T14:37:22.999Z</time></trkpt><trkpt lat="45.442471371562824" lon="11.10341763717861"><ele>50.0</ele><time>2026-04-07T14:37:23.999Z</time></trkpt><trkpt lat="45.442278393008955" lon="11.103349256372704"><ele>50.0</ele><time>2026-04-07T14:37:24.999Z</time></trkpt><trkpt lat="45.44208898613757" lon="11.103279993931357"><ele>50.0</ele><time>2026-04-07T14:37:25.999Z</time></trkpt><trkpt lat="45.44190125208095" lon="11.10321082197946"><ele>50.0</ele><time>2026-04-07T14:37:26.999Z</time></trkpt><trkpt lat="45.44171441159235" lon="11.103142670773748"><ele>50.0</ele><time>2026-04-07T14:37:27.999Z</time></trkpt><trkpt lat="45.44153126608129" lon="11.103074882550441"><ele>50.0</ele><time>2026-04-07T14:37:28.999Z</time></trkpt><trkpt lat="45.441350134612186" lon="11.103013492074835"><ele>49.333333333333336</ele><time>2026-04-07T14:37:29.999Z</time></trkpt><trkpt lat="45.44117279884373" lon="11.102952828428403"><ele>48.66666666666667</ele><time>2026-04-07T14:37:30.999Z</time></trkpt><trkpt lat="45.44099459214134" lon="11.102890907307163"><ele>48.0</ele><time>2026-04-07T14:37:31.999Z</time></trkpt><trkpt lat="45.440821744897306" lon="11.102842079325862"><ele>48.0</ele><time>2026-04-07T14:37:32.999Z</time></trkpt><trkpt lat="45.44064376268673" lon="11.102810480929742"><ele>48.0</ele><time>2026-04-07T14:37:33.999Z</time></trkpt><trkpt lat="45.44045493364941" lon="11.10280207007234"><ele>48.0</ele><time>2026-04-07T14:37:34.998Z</time></trkpt><trkpt lat="45.44027520907962" lon="11.102814317536966"><ele>47.666666666666664</ele><time>2026-04-07T14:37:35.998Z</time></trkpt><trkpt lat="45.44008811616075" lon="11.102844023883627"><ele>47.33333333333333</ele><time>2026-04-07T14:37:36.998Z</time></trkpt><trkpt lat="45.43988938046564" lon="11.102874305654465"><ele>47.0</ele><time>2026-04-07T14:37:37.998Z</time></trkpt><trkpt lat="45.439674871625066" lon="11.102897096326785"><ele>47.0</ele><time>2026-04-07T14:37:38.998Z</time></trkpt><trkpt lat="45.43945288168385" lon="11.102912973754568"><ele>47.0</ele><time>2026-04-07T14:37:39.998Z</time></trkpt><trkpt lat="45.439223103115644" lon="11.102934207268028"><ele>47.0</ele><time>2026-04-07T14:37:40.998Z</time></trkpt><trkpt lat="45.43898322192671" lon="11.102956883977422"><ele>47.0</ele><time>2026-04-07T14:37:41.998Z</time></trkpt><trkpt lat="45.43874030081232" lon="11.102978171536055"><ele>46.5</ele><time>2026-04-07T14:37:42.998Z</time></trkpt><trkpt lat="45.43848140938423" lon="11.102999941870674"><ele>46.0</ele><time>2026-04-07T14:37:43.998Z</time></trkpt><trkpt lat="45.43818640163438" lon="11.103027720859183"><ele>46.0</ele><time>2026-04-07T14:37:44.998Z</time></trkpt><trkpt lat="45.4380314749974" lon="11.103051566675564"><ele>46.0</ele><time>2026-04-07T14:37:45.998Z</time></trkpt><trkpt lat="45.437842846995316" lon="11.1030632212315"><ele>46.0</ele><time>2026-04-07T14:37:46.998Z</time></trkpt><trkpt lat="45.43762067597489" lon="11.10307616921588"><ele>46.0</ele><time>2026-04-07T14:37:47.998Z</time></trkpt><trkpt lat="45.43731354047398" lon="11.103119404632748"><ele>46.0</ele><time>2026-04-07T14:37:48.998Z</time></trkpt><trkpt lat="45.43707518450844" lon="11.103136881376797"><ele>46.0</ele><time>2026-04-07T14:37:49.998Z</time></trkpt><trkpt lat="45.436844770966175" lon="11.103154033876935"><ele>46.0</ele><time>2026-04-07T14:37:50.998Z</time></trkpt><trkpt lat="45.4366126833634" lon="11.103169004354164"><ele>46.0</ele><time>2026-04-07T14:37:51.998Z</time></trkpt><trkpt lat="45.43638547603267" lon="11.103184874929788"><ele>46.0</ele><time>2026-04-07T14:37:52.998Z</time></trkpt><trkpt lat="45.43616049535616" lon="11.103201149521963"><ele>47.0</ele><time>2026-04-07T14:37:53.998Z</time></trkpt><trkpt lat="45.43592797906862" lon="11.103215774298771"><ele>48.0</ele><time>2026-04-07T14:37:54.998Z</time></trkpt><trkpt lat="45.43570113446265" lon="11.103228021363694"><ele>48.0</ele><time>2026-04-07T14:37:55.998Z</time></trkpt><trkpt lat="45.435477537626596" lon="11.103243764082507"><ele>48.0</ele><time>2026-04-07T14:37:56.998Z</time></trkpt><trkpt lat="45.43525997903787" lon="11.103253110361628"><ele>48.0</ele><time>2026-04-07T14:37:57.998Z</time></trkpt><trkpt lat="45.43504987522068" lon="11.103264550849966"><ele>47.0</ele><time>2026-04-07T14:37:58.998Z</time></trkpt><trkpt lat="45.43483810741234" lon="11.103275417313675"><ele>46.0</ele><time>2026-04-07T14:37:59.998Z</time></trkpt><trkpt lat="45.434636442736796" lon="11.103285202176782"><ele>45.0</ele><time>2026-04-07T14:38:00.998Z</time></trkpt><trkpt lat="45.43443757797379" lon="11.10329474506551"><ele>45.0</ele><time>2026-04-07T14:38:01.998Z</time></trkpt><trkpt lat="45.43424414704438" lon="11.103306890208886"><ele>45.0</ele><time>2026-04-07T14:38:02.998Z</time></trkpt><trkpt lat="45.43405257298634" lon="11.103321102834245"><ele>45.0</ele><time>2026-04-07T14:38:03.998Z</time></trkpt><trkpt lat="45.43385863888761" lon="11.103332401635646"><ele>45.0</ele><time>2026-04-07T14:38:04.998Z</time></trkpt><trkpt lat="45.43366729117549" lon="11.103341451108705"><ele>45.0</ele><time>2026-04-07T14:38:05.998Z</time></trkpt><trkpt lat="45.43348885137477" lon="11.103349298378891"><ele>45.0</ele><time>2026-04-07T14:38:06.998Z</time></trkpt><trkpt lat="45.4333288956445" lon="11.103353400888142"><ele>45.0</ele><time>2026-04-07T14:38:07.998Z</time></trkpt><trkpt lat="45.433169550942964" lon="11.103359156243688"><ele>45.0</ele><time>2026-04-07T14:38:08.998Z</time></trkpt><trkpt lat="45.43301825947316" lon="11.10335116720184"><ele>45.0</ele><time>2026-04-07T14:38:09.998Z</time></trkpt><trkpt lat="45.43287835041887" lon="11.103327329083529"><ele>44.75</ele><time>2026-04-07T14:38:11Z</time></trkpt><trkpt lat="45.432746154952774" lon="11.103291747794021"><ele>44.5</ele><time>2026-04-07T14:38:12Z</time></trkpt><trkpt lat="45.43262088379671" lon="11.103244045442969"><ele>44.25</ele><time>2026-04-07T14:38:13Z</time></trkpt><trkpt lat="45.43250353767579" lon="11.103180947311644"><ele>44.0</ele><time>2026-04-07T14:38:14Z</time></trkpt><trkpt lat="45.432374100496766" lon="11.1030970549692"><ele>44.0</ele><time>2026-04-07T14:38:15Z</time></trkpt><trkpt lat="45.43223088648378" lon="11.103000682283328"><ele>44.0</ele><time>2026-04-07T14:38:16Z</time></trkpt><trkpt lat="45.43207634769569" lon="11.102899854207921"><ele>44.0</ele><time>2026-04-07T14:38:17Z</time></trkpt><trkpt lat="45.4319220494821" lon="11.10280086292634"><ele>44.0</ele><time>2026-04-07T14:38:18Z</time></trkpt><trkpt lat="45.43176046348107" lon="11.102693834497012"><ele>44.0</ele><time>2026-04-07T14:38:19Z</time></trkpt><trkpt lat="45.43159538225101" lon="11.10258125452395"><ele>44.0</ele><time>2026-04-07T14:38:20Z</time></trkpt><trkpt lat="45.43142091034671" lon="11.10246494758773"><ele>44.0</ele><time>2026-04-07T14:38:21Z</time></trkpt><trkpt lat="45.43124604194798" lon="11.102351875622919"><ele>44.0</ele><time>2026-04-07T14:38:22Z</time></trkpt><trkpt lat="45.43105974426491" lon="11.10223609060059"><ele>44.0</ele><time>2026-04-07T14:38:23Z</time></trkpt><trkpt lat="45.43087276688666" lon="11.102121257660643"><ele>44.0</ele><time>2026-04-07T14:38:24Z</time></trkpt><trkpt lat="45.430675974372896" lon="11.10200033581543"><ele>44.0</ele><time>2026-04-07T14:38:25Z</time></trkpt><trkpt lat="45.430498777123745" lon="11.101888732411622"><ele>44.0</ele><time>2026-04-07T14:38:26Z</time></trkpt><trkpt lat="45.43031563978729" lon="11.101773618694"><ele>44.0</ele><time>2026-04-07T14:38:27Z</time></trkpt><trkpt lat="45.430146283644454" lon="11.101666179675263"><ele>44.0</ele><time>2026-04-07T14:38:28Z</time></trkpt><trkpt lat="45.429982866278124" lon="11.101570977984796"><ele>44.0</ele><time>2026-04-07T14:38:29Z</time></trkpt><trkpt lat="45.429822853037464" lon="11.101476127831495"><ele>44.0</ele><time>2026-04-07T14:38:30Z</time></trkpt><trkpt lat="45.42968259889745" lon="11.101402548789485"><ele>44.0</ele><time>2026-04-07T14:38:31Z</time></trkpt><trkpt lat="45.42954947659397" lon="11.10133525973769"><ele>44.0</ele><time>2026-04-07T14:38:32Z</time></trkpt><trkpt lat="45.42944179538054" lon="11.10128866000194"><ele>44.0</ele><time>2026-04-07T14:38:33Z</time></trkpt><trkpt lat="45.42934276873764" lon="11.101259706212867"><ele>44.25</ele><time>2026-04-07T14:38:34Z</time></trkpt><trkpt lat="45.4292396714709" lon="11.101250056975815"><ele>44.5</ele><time>2026-04-07T14:38:35Z</time></trkpt><trkpt lat="45.429138103989985" lon="11.10122901651873"><ele>44.75</ele><time>2026-04-07T14:38:36Z</time></trkpt><trkpt lat="45.42902971115469" lon="11.101169793211454"><ele>45.0</ele><time>2026-04-07T14:38:37Z</time></trkpt><trkpt lat="45.42890277984614" lon="11.101144500190724"><ele>45.0</ele><time>2026-04-07T14:38:38Z</time></trkpt><trkpt lat="45.42878983436053" lon="11.101006179453792"><ele>45.0</ele><time>2026-04-07T14:38:39Z</time></trkpt><trkpt lat="45.428662464961896" lon="11.10094120469391"><ele>45.0</ele><time>2026-04-07T14:38:40Z</time></trkpt><trkpt lat="45.42852637698183" lon="11.100887925580917"><ele>45.0</ele><time>2026-04-07T14:38:41Z</time></trkpt><trkpt lat="45.42838907035737" lon="11.100833551198054"><ele>45.0</ele><time>2026-04-07T14:38:42Z</time></trkpt><trkpt lat="45.428249974486484" lon="11.100771934720152"><ele>45.0</ele><time>2026-04-07T14:38:43Z</time></trkpt><trkpt lat="45.42810506862823" lon="11.100705059716601"><ele>45.0</ele><time>2026-04-07T14:38:44Z</time></trkpt><trkpt lat="45.42795893159105" lon="11.100631320991232"><ele>46.0</ele><time>2026-04-07T14:38:45Z</time></trkpt><trkpt lat="45.427806018354204" lon="11.10055805116339"><ele>47.0</ele><time>2026-04-07T14:38:45.999Z</time></trkpt><trkpt lat="45.42765774998123" lon="11.100471501043211"><ele>48.0</ele><time>2026-04-07T14:38:46.999Z</time></trkpt><trkpt lat="45.4275139030598" lon="11.100383482829182"><ele>48.0</ele><time>2026-04-07T14:38:47.999Z</time></trkpt><trkpt lat="45.42736690131225" lon="11.100287169046405"><ele>48.0</ele><time>2026-04-07T14:38:48.999Z</time></trkpt><trkpt lat="45.42722305321392" lon="11.10019263712237"><ele>48.0</ele><time>2026-04-07T14:38:49.999Z</time></trkpt><trkpt lat="45.42707829219354" lon="11.100097897312265"><ele>48.33333333333333</ele><time>2026-04-07T14:38:50.999Z</time></trkpt><trkpt lat="45.42693464958589" lon="11.099999830984544"><ele>48.666666666666664</ele><time>2026-04-07T14:38:51.999Z</time></trkpt><trkpt lat="45.42679041812936" lon="11.099901800940602"><ele>49.0</ele><time>2026-04-07T14:38:52.999Z</time></trkpt><trkpt lat="45.42664810232985" lon="11.099803208842468"><ele>48.666666666666664</ele><time>2026-04-07T14:38:53.999Z</time></trkpt><trkpt lat="45.4265099613352" lon="11.099711636361809"><ele>48.33333333333333</ele><time>2026-04-07T14:38:54.999Z</time></trkpt><trkpt lat="45.426371208346175" lon="11.09961835308288"><ele>48.0</ele><time>2026-04-07T14:38:55.999Z</time></trkpt><trkpt lat="45.426234495642895" lon="11.099518925852804"><ele>48.0</ele><time>2026-04-07T14:38:56.999Z</time></trkpt><trkpt lat="45.42610342637432" lon="11.099427674066009"><ele>48.0</ele><time>2026-04-07T14:38:57.999Z</time></trkpt><trkpt lat="45.42596406218675" lon="11.099334606780983"><ele>48.0</ele><time>2026-04-07T14:38:58.999Z</time></trkpt><trkpt lat="45.42583144634828" lon="11.09924509200769"><ele>48.0</ele><time>2026-04-07T14:38:59.999Z</time></trkpt><trkpt lat="45.42569154268023" lon="11.099147667796782"><ele>48.0</ele><time>2026-04-07T14:39:00.999Z</time></trkpt><trkpt lat="45.42555457623573" lon="11.099053006706693"><ele>48.0</ele><time>2026-04-07T14:39:01.999Z</time></trkpt><trkpt lat="45.42540661672199" lon="11.098966846284414"><ele>48.0</ele><time>2026-04-07T14:39:02.999Z</time></trkpt><trkpt lat="45.4252632591262" lon="11.098882231746733"><ele>48.5</ele><time>2026-04-07T14:39:03.999Z</time></trkpt><trkpt lat="45.425137441693764" lon="11.0987954168671"><ele>49.0</ele><time>2026-04-07T14:39:04.999Z</time></trkpt><trkpt lat="45.42501709794454" lon="11.098718850920184"><ele>49.5</ele><time>2026-04-07T14:39:05.999Z</time></trkpt><trkpt lat="45.424906826380635" lon="11.098646065671765"><ele>50.0</ele><time>2026-04-07T14:39:06.999Z</time></trkpt><trkpt lat="45.42479135715686" lon="11.098576361204053"><ele>50.0</ele><time>2026-04-07T14:39:07.999Z</time></trkpt><trkpt lat="45.42468182167881" lon="11.098511170786313"><ele>50.0</ele><time>2026-04-07T14:39:08.999Z</time></trkpt><trkpt lat="45.42456707688265" lon="11.098442402255385"><ele>50.0</ele><time>2026-04-07T14:39:09.999Z</time></trkpt><trkpt lat="45.424452577529436" lon="11.098371577388045"><ele>50.0</ele><time>2026-04-07T14:39:10.999Z</time></trkpt><trkpt lat="45.424335430875956" lon="11.098298231187679"><ele>50.0</ele><time>2026-04-07T14:39:11.999Z</time></trkpt><trkpt lat="45.424224992622044" lon="11.098224181829577"><ele>50.0</ele><time>2026-04-07T14:39:12.999Z</time></trkpt><trkpt lat="45.42412629729034" lon="11.098160893792233"><ele>50.0</ele><time>2026-04-07T14:39:13.999Z</time></trkpt><trkpt lat="45.42402910243666" lon="11.098094716917648"><ele>50.0</ele><time>2026-04-07T14:39:14.999Z</time></trkpt><trkpt lat="45.42392710196297" lon="11.09802456343028"><ele>50.0</ele><time>2026-04-07T14:39:15.999Z</time></trkpt><trkpt lat="45.42382403784214" lon="11.097936223129519"><ele>50.0</ele><time>2026-04-07T14:39:16.999Z</time></trkpt><trkpt lat="45.42371409952408" lon="11.097861943628834"><ele>50.0</ele><time>2026-04-07T14:39:17.999Z</time></trkpt><trkpt lat="45.42361123815438" lon="11.097778242116181"><ele>50.0</ele><time>2026-04-07T14:39:18.999Z</time></trkpt><trkpt lat="45.42351938366389" lon="11.097696896942914"><ele>49.8</ele><time>2026-04-07T14:39:19.999Z</time></trkpt><trkpt lat="45.423430775124245" lon="11.097608922293016"><ele>49.6</ele><time>2026-04-07T14:39:20.999Z</time></trkpt><trkpt lat="45.42333295612405" lon="11.097524400326776"><ele>49.400000000000006</ele><time>2026-04-07T14:39:21.999Z</time></trkpt><trkpt lat="45.42324768324955" lon="11.097439493757008"><ele>49.2</ele><time>2026-04-07T14:39:22.999Z</time></trkpt><trkpt lat="45.42316969913822" lon="11.097363158638762"><ele>49.0</ele><time>2026-04-07T14:39:23.999Z</time></trkpt><trkpt lat="45.423113439173534" lon="11.097280110201314"><ele>48.99999999999999</ele><time>2026-04-07T14:39:24.999Z</time></trkpt><trkpt lat="45.42304446721852" lon="11.097227818931257"><ele>49.0</ele><time>2026-04-07T14:39:25.999Z</time></trkpt><trkpt lat="45.42299205857533" lon="11.097163106327368"><ele>49.0</ele><time>2026-04-07T14:39:26.999Z</time></trkpt><trkpt lat="45.422937595878246" lon="11.097095852227694"><ele>49.0</ele><time>2026-04-07T14:39:27.999Z</time></trkpt><trkpt lat="45.42287822362041" lon="11.097017984312306"><ele>48.99999999999999</ele><time>2026-04-07T14:39:29.999Z</time></trkpt><trkpt lat="45.42280722141409" lon="11.096947501869632"><ele>49.0</ele><time>2026-04-07T14:40:07.998Z</time></trkpt><trkpt lat="45.42278962806343" lon="11.096826620075241"><ele>48.6</ele><time>2026-04-07T14:40:09.998Z</time></trkpt><trkpt lat="45.42280613965403" lon="11.096724679288707"><ele>48.2</ele><time>2026-04-07T14:40:10.998Z</time></trkpt><trkpt lat="45.42283743330863" lon="11.096604103062734"><ele>47.800000000000004</ele><time>2026-04-07T14:40:11.998Z</time></trkpt><trkpt lat="45.42286958179689" lon="11.096470320927017"><ele>47.400000000000006</ele><time>2026-04-07T14:40:12.998Z</time></trkpt><trkpt lat="45.42289724203221" lon="11.096338700867301"><ele>47.0</ele><time>2026-04-07T14:40:13.998Z</time></trkpt><trkpt lat="45.42292274218989" lon="11.096205650760604"><ele>47.0</ele><time>2026-04-07T14:40:14.998Z</time></trkpt><trkpt lat="45.42294630784593" lon="11.096075287298246"><ele>47.0</ele><time>2026-04-07T14:40:15.998Z</time></trkpt><trkpt lat="45.422967233364744" lon="11.095942375244853"><ele>47.0</ele><time>2026-04-07T14:40:17Z</time></trkpt><trkpt lat="45.42298842783118" lon="11.09580384987071"><ele>47.0</ele><time>2026-04-07T14:40:18Z</time></trkpt><trkpt lat="45.42300940884057" lon="11.095675297834287"><ele>47.0</ele><time>2026-04-07T14:40:19Z</time></trkpt><trkpt lat="45.42303222405009" lon="11.095546530407988"><ele>47.33333333333333</ele><time>2026-04-07T14:40:20Z</time></trkpt><trkpt lat="45.42304962149747" lon="11.095417738972515"><ele>47.666666666666664</ele><time>2026-04-07T14:40:21Z</time></trkpt><trkpt lat="45.42307118644706" lon="11.095295495090093"><ele>48.0</ele><time>2026-04-07T14:40:22Z</time></trkpt><trkpt lat="45.423106424501114" lon="11.09517887548545"><ele>48.33333333333333</ele><time>2026-04-07T14:40:23Z</time></trkpt><trkpt lat="45.42311138101322" lon="11.095067636168674"><ele>48.666666666666664</ele><time>2026-04-07T14:40:24Z</time></trkpt><trkpt lat="45.42313137682124" lon="11.094970358049164"><ele>49.0</ele><time>2026-04-07T14:40:25Z</time></trkpt><trkpt lat="45.42315081432412" lon="11.094878919635933"><ele>48.99999999999999</ele><time>2026-04-07T14:40:26Z</time></trkpt><trkpt lat="45.42317996935906" lon="11.094785512244274"><ele>49.0</ele><time>2026-04-07T14:40:27Z</time></trkpt><trkpt lat="45.423192593383384" lon="11.094690684190223"><ele>49.0</ele><time>2026-04-07T14:40:28Z</time></trkpt><trkpt lat="45.42320228844698" lon="11.094578497949259"><ele>49.0</ele><time>2026-04-07T14:40:29Z</time></trkpt><trkpt lat="45.42320604552865" lon="11.094451008553495"><ele>48.99999999999999</ele><time>2026-04-07T14:40:30Z</time></trkpt><trkpt lat="45.42320323610305" lon="11.094325795670013"><ele>49.0</ele><time>2026-04-07T14:40:31Z</time></trkpt><trkpt lat="45.423195717864" lon="11.094198070512759"><ele>48.6</ele><time>2026-04-07T14:40:32Z</time></trkpt><trkpt lat="45.42318481815127" lon="11.094080093888074"><ele>48.2</ele><time>2026-04-07T14:40:33Z</time></trkpt><trkpt lat="45.42316664388731" lon="11.09395386575219"><ele>47.800000000000004</ele><time>2026-04-07T14:40:34Z</time></trkpt><trkpt lat="45.42314122425542" lon="11.093831829286218"><ele>47.400000000000006</ele><time>2026-04-07T14:40:35Z</time></trkpt><trkpt lat="45.42310930708345" lon="11.093706017784177"><ele>47.0</ele><time>2026-04-07T14:40:36Z</time></trkpt><trkpt lat="45.42307114012325" lon="11.093570307654117"><ele>47.0</ele><time>2026-04-07T14:40:37Z</time></trkpt><trkpt lat="45.42302895611465" lon="11.093442637191654"><ele>47.0</ele><time>2026-04-07T14:40:38Z</time></trkpt><trkpt lat="45.42299295425894" lon="11.09333630997578"><ele>47.0</ele><time>2026-04-07T14:40:39Z</time></trkpt><trkpt lat="45.422957991068394" lon="11.093236786545608"><ele>47.0</ele><time>2026-04-07T14:40:40Z</time></trkpt><trkpt lat="45.42291397019018" lon="11.093111719991697"><ele>47.0</ele><time>2026-04-07T14:40:42Z</time></trkpt><trkpt lat="45.42288647645943" lon="11.093024140770943"><ele>47.0</ele><time>2026-04-07T14:40:49.999Z</time></trkpt><trkpt lat="45.422862326861676" lon="11.092940186984327"><ele>47.25</ele><time>2026-04-07T14:40:56.999Z</time></trkpt><trkpt lat="45.422652329389514" lon="11.093030515397656"><ele>47.5</ele><time>2026-04-07T14:40:58.999Z</time></trkpt><trkpt lat="45.422548267981156" lon="11.093079457365443"><ele>47.75</ele><time>2026-04-07T14:40:59.999Z</time></trkpt><trkpt lat="45.42246817716028" lon="11.093134189567598"><ele>48.0</ele><time>2026-04-07T14:41:00.999Z</time></trkpt><trkpt lat="45.42239669898545" lon="11.09318068239396"><ele>47.833333333333336</ele><time>2026-04-07T14:41:01.999Z</time></trkpt><trkpt lat="45.422295940564055" lon="11.093256391113416"><ele>47.666666666666664</ele><time>2026-04-07T14:41:03.999Z</time></trkpt><trkpt lat="45.42224818521643" lon="11.09333154927359"><ele>47.5</ele><time>2026-04-07T14:41:05.999Z</time></trkpt><trkpt lat="45.42218576600725" lon="11.093378525656796"><ele>47.33333333333333</ele><time>2026-04-07T14:41:26.999Z</time></trkpt><trkpt lat="45.422217987827686" lon="11.0935184327376"><ele>47.166666666666664</ele><time>2026-04-07T14:41:27.999Z</time></trkpt><trkpt lat="45.42219273936638" lon="11.093626760265574"><ele>47.0</ele><time>2026-04-07T14:41:28.999Z</time></trkpt><trkpt lat="45.42217544317974" lon="11.093769611728256"><ele>47.0</ele><time>2026-04-07T14:41:29.999Z</time></trkpt><trkpt lat="45.422134849197" lon="11.09390583256488"><ele>47.0</ele><time>2026-04-07T14:41:30.999Z</time></trkpt><trkpt lat="45.422119728084525" lon="11.09402874816495"><ele>47.0</ele><time>2026-04-07T14:41:31.999Z</time></trkpt><trkpt lat="45.42210801492424" lon="11.094146287840942"><ele>47.0</ele><time>2026-04-07T14:41:32.999Z</time></trkpt><trkpt lat="45.42209210404611" lon="11.094247282556891"><ele>47.0</ele><time>2026-04-07T14:41:33.999Z</time></trkpt><trkpt lat="45.4220522473164" lon="11.094429079064748"><ele>47.0</ele><time>2026-04-07T14:41:35.999Z</time></trkpt><trkpt lat="45.422030860348485" lon="11.094515773456452"><ele>47.0</ele><time>2026-04-07T14:41:36.999Z</time></trkpt><trkpt lat="45.4220043606567" lon="11.094654865498523"><ele>47.0</ele><time>2026-04-07T14:41:38.999Z</time></trkpt><trkpt lat="45.4219846921313" lon="11.094752704255516"><ele>47.0</ele><time>2026-04-07T14:41:40.999Z</time></trkpt><trkpt lat="45.42196492976824" lon="11.09484006651247"><ele>47.0</ele><time>2026-04-07T14:41:42.999Z</time></trkpt><trkpt lat="45.42192967734665" lon="11.094969123643654"><ele>47.0</ele><time>2026-04-07T14:41:44.999Z</time></trkpt><trkpt lat="45.42188700283479" lon="11.09505727404625"><ele>47.0</ele><time>2026-04-07T14:41:46.998Z</time></trkpt><trkpt lat="45.4218503377487" lon="11.095130709841362"><ele>47.0</ele><time>2026-04-07T14:41:48.998Z</time></trkpt><trkpt lat="45.4218022981662" lon="11.095206625645226"><ele>47.0</ele><time>2026-04-07T14:41:50.998Z</time></trkpt><trkpt lat="45.42175551501638" lon="11.095293073146673"><ele>47.0</ele><time>2026-04-07T14:41:52.998Z</time></trkpt><trkpt lat="45.4217044165734" lon="11.095377947010347"><ele>47.0</ele><time>2026-04-07T14:41:54.998Z</time></trkpt><trkpt lat="45.42165059696243" lon="11.095461993113306"><ele>47.0</ele><time>2026-04-07T14:41:56.998Z</time></trkpt><trkpt lat="45.421593703936516" lon="11.095538060409496"><ele>47.0</ele><time>2026-04-07T14:41:58.998Z</time></trkpt><trkpt lat="45.42153513158636" lon="11.095623037333915"><ele>47.0</ele><time>2026-04-07T14:42:00.998Z</time></trkpt><trkpt lat="45.42147867084296" lon="11.095699668523048"><ele>47.0</ele><time>2026-04-07T14:42:02.998Z</time></trkpt><trkpt lat="45.42140372084282" lon="11.095792045340025"><ele>47.0</ele><time>2026-04-07T14:42:04.998Z</time></trkpt><trkpt lat="45.421350666847836" lon="11.095863301211185"><ele>47.0</ele><time>2026-04-07T14:42:06.998Z</time></trkpt><trkpt lat="45.421295126481496" lon="11.09594398325956"><ele>47.0</ele><time>2026-04-07T14:42:08.998Z</time></trkpt><trkpt lat="45.42123024883511" lon="11.096032333355547"><ele>47.0</ele><time>2026-04-07T14:42:10.998Z</time></trkpt><trkpt lat="45.421162785612935" lon="11.096146705022253"><ele>46.83333333333333</ele><time>2026-04-07T14:42:12.998Z</time></trkpt><trkpt lat="45.42109366720182" lon="11.096265356509681"><ele>46.666666666666664</ele><time>2026-04-07T14:42:14.998Z</time></trkpt><trkpt lat="45.421024660525866" lon="11.096383857406797"><ele>46.5</ele><time>2026-04-07T14:42:16.998Z</time></trkpt><trkpt lat="45.42097314746779" lon="11.096465766229455"><ele>46.333333333333336</ele><time>2026-04-07T14:42:18.998Z</time></trkpt><trkpt lat="45.420926832172825" lon="11.096547721202601"><ele>46.16666666666667</ele><time>2026-04-07T14:42:24Z</time></trkpt><trkpt lat="45.42088229119537" lon="11.096611909417792"><ele>46.0</ele><time>2026-04-07T14:42:26Z</time></trkpt><trkpt lat="45.420944417153684" lon="11.096736596131862"><ele>45.833333333333336</ele><time>2026-04-07T14:42:28Z</time></trkpt><trkpt lat="45.421003405320384" lon="11.096798900176744"><ele>45.66666666666667</ele><time>2026-04-07T14:42:29Z</time></trkpt><trkpt lat="45.42106722598608" lon="11.096876019974209"><ele>45.5</ele><time>2026-04-07T14:42:30Z</time></trkpt><trkpt lat="45.42112740782076" lon="11.096959370050133"><ele>45.333333333333336</ele><time>2026-04-07T14:42:31Z</time></trkpt><trkpt lat="45.42119986140875" lon="11.097052041139241"><ele>45.166666666666664</ele><time>2026-04-07T14:42:32Z</time></trkpt><trkpt lat="45.421269520593675" lon="11.097144219721166"><ele>45.0</ele><time>2026-04-07T14:42:33Z</time></trkpt><trkpt lat="45.4213377753919" lon="11.09723647179886"><ele>45.0</ele><time>2026-04-07T14:42:34Z</time></trkpt><trkpt lat="45.42141406417524" lon="11.097324178521946"><ele>45.0</ele><time>2026-04-07T14:42:35Z</time></trkpt><trkpt lat="45.42148389363233" lon="11.097423295744063"><ele>45.0</ele><time>2026-04-07T14:42:36Z</time></trkpt><trkpt lat="45.42155784822514" lon="11.097508019989528"><ele>45.0</ele><time>2026-04-07T14:42:37Z</time></trkpt><trkpt lat="45.4216257620479" lon="11.097590659710123"><ele>45.0</ele><time>2026-04-07T14:42:38Z</time></trkpt><trkpt lat="45.42169214526143" lon="11.09767872293725"><ele>44.6</ele><time>2026-04-07T14:42:39Z</time></trkpt><trkpt lat="45.421752533820296" lon="11.097760203944965"><ele>44.2</ele><time>2026-04-07T14:42:40Z</time></trkpt><trkpt lat="45.42181564925208" lon="11.097850364392684"><ele>43.8</ele><time>2026-04-07T14:42:41Z</time></trkpt><trkpt lat="45.421881492765834" lon="11.097940765063825"><ele>43.4</ele><time>2026-04-07T14:42:42Z</time></trkpt><trkpt lat="45.42195821998807" lon="11.09803249069297"><ele>43.0</ele><time>2026-04-07T14:42:43Z</time></trkpt><trkpt lat="45.42202908467013" lon="11.098105232429857"><ele>43.0</ele><time>2026-04-07T14:42:44Z</time></trkpt><trkpt lat="45.42209827362528" lon="11.098140059645859"><ele>43.0</ele><time>2026-04-07T14:42:45Z</time></trkpt><trkpt lat="45.422166045407856" lon="11.098170973097616"><ele>43.0</ele><time>2026-04-07T14:42:46Z</time></trkpt><trkpt lat="45.422244254709625" lon="11.098276097762493"><ele>43.0</ele><time>2026-04-07T14:42:48Z</time></trkpt><trkpt lat="45.42228414954287" lon="11.09841720895374"><ele>43.0</ele><time>2026-04-07T14:42:50Z</time></trkpt><trkpt lat="45.42217100185201" lon="11.098589838216087"><ele>43.0</ele><time>2026-04-07T14:42:51Z</time></trkpt><trkpt lat="45.422122878374246" lon="11.098733095172646"><ele>43.0</ele><time>2026-04-07T14:42:52Z</time></trkpt><trkpt lat="45.42206591554789" lon="11.098881431415192"><ele>43.0</ele><time>2026-04-07T14:42:53Z</time></trkpt><trkpt lat="45.42203300704208" lon="11.09901968129917"><ele>43.0</ele><time>2026-04-07T14:42:54Z</time></trkpt><trkpt lat="45.422002293506125" lon="11.09914014015398"><ele>43.0</ele><time>2026-04-07T14:42:55Z</time></trkpt><trkpt lat="45.42197695625695" lon="11.099237426471413"><ele>43.0</ele><time>2026-04-07T14:42:56Z</time></trkpt><trkpt lat="45.42195649521032" lon="11.099322635448654"><ele>43.0</ele><time>2026-04-07T14:42:57Z</time></trkpt><trkpt lat="45.422014200602185" lon="11.09945476183473"><ele>43.0</ele><time>2026-04-07T14:42:58.999Z</time></trkpt><trkpt lat="45.42208002402531" lon="11.099477907786467"><ele>43.0</ele><time>2026-04-07T14:42:59.999Z</time></trkpt><trkpt lat="45.422147558971936" lon="11.099439718570563"><ele>43.0</ele><time>2026-04-07T14:43:01.999Z</time></trkpt><trkpt lat="45.42223105325883" lon="11.099465115297019"><ele>43.0</ele><time>2026-04-07T14:44:06.998Z</time></trkpt><trkpt lat="45.42225086427729" lon="11.099565547581717"><ele>43.5</ele><time>2026-04-07T14:44:09.998Z</time></trkpt><trkpt lat="45.422207765397296" lon="11.099738287404191"><ele>44.0</ele><time>2026-04-07T14:44:11.998Z</time></trkpt><trkpt lat="45.42218201654189" lon="11.099871466828938"><ele>44.5</ele><time>2026-04-07T14:44:12.998Z</time></trkpt><trkpt lat="45.422153337104014" lon="11.100041906205803"><ele>45.0</ele><time>2026-04-07T14:44:13.998Z</time></trkpt><trkpt lat="45.42212176252312" lon="11.100233035201208"><ele>45.0</ele><time>2026-04-07T14:44:14.998Z</time></trkpt><trkpt lat="45.42209148069321" lon="11.100434755744415"><ele>45.0</ele><time>2026-04-07T14:44:15.998Z</time></trkpt><trkpt lat="45.422062059848926" lon="11.1006425754462"><ele>45.0</ele><time>2026-04-07T14:44:16.998Z</time></trkpt><trkpt lat="45.42203484431806" lon="11.100849390529417"><ele>45.0</ele><time>2026-04-07T14:44:17.998Z</time></trkpt><trkpt lat="45.422012734112364" lon="11.101025763253318"><ele>45.0</ele><time>2026-04-07T14:44:18.998Z</time></trkpt><trkpt lat="45.42199116528398" lon="11.101213947124066"><ele>45.0</ele><time>2026-04-07T14:44:19.998Z</time></trkpt><trkpt lat="45.42197006767973" lon="11.101397174028527"><ele>45.0</ele><time>2026-04-07T14:44:20.998Z</time></trkpt><trkpt lat="45.42195076111757" lon="11.101579724134222"><ele>45.0</ele><time>2026-04-07T14:44:21.998Z</time></trkpt><trkpt lat="45.42193426780488" lon="11.10175979288178"><ele>45.0</ele><time>2026-04-07T14:44:22.998Z</time></trkpt><trkpt lat="45.42191570888035" lon="11.101947971029736"><ele>45.0</ele><time>2026-04-07T14:44:23.998Z</time></trkpt><trkpt lat="45.42189964825578" lon="11.102140838486774"><ele>45.0</ele><time>2026-04-07T14:44:24.998Z</time></trkpt><trkpt lat="45.421883599903154" lon="11.102338599801634"><ele>45.0</ele><time>2026-04-07T14:44:25.998Z</time></trkpt><trkpt lat="45.4218705152074" lon="11.102541646330746"><ele>45.0</ele><time>2026-04-07T14:44:26.998Z</time></trkpt><trkpt lat="45.42186069156157" lon="11.10272402296554"><ele>45.0</ele><time>2026-04-07T14:44:27.998Z</time></trkpt><trkpt lat="45.42185121811929" lon="11.102890531573358"><ele>45.0</ele><time>2026-04-07T14:44:29Z</time></trkpt><trkpt lat="45.42184039035895" lon="11.103032142418535"><ele>45.0</ele><time>2026-04-07T14:44:30Z</time></trkpt><trkpt lat="45.421830388568225" lon="11.10315054201042"><ele>45.0</ele><time>2026-04-07T14:44:31Z</time></trkpt><trkpt lat="45.42181691171726" lon="11.103253471276496"><ele>45.166666666666664</ele><time>2026-04-07T14:44:32Z</time></trkpt><trkpt lat="45.42175447913864" lon="11.103336674502991"><ele>45.333333333333336</ele><time>2026-04-07T14:44:42Z</time></trkpt><trkpt lat="45.42167641936823" lon="11.103418884941231"><ele>45.5</ele><time>2026-04-07T14:44:52Z</time></trkpt><trkpt lat="45.42161870768168" lon="11.103463611031495"><ele>45.66666666666667</ele><time>2026-04-07T14:44:53Z</time></trkpt><trkpt lat="45.42155496681252" lon="11.103502169871753"><ele>45.833333333333336</ele><time>2026-04-07T14:44:54Z</time></trkpt><trkpt lat="45.421475985872135" lon="11.103634091332703"><ele>46.0</ele><time>2026-04-07T14:44:56Z</time></trkpt><trkpt lat="45.42148264977881" lon="11.103739400170406"><ele>46.0</ele><time>2026-04-07T14:44:57Z</time></trkpt><trkpt lat="45.42150913184303" lon="11.103837065371213"><ele>46.0</ele><time>2026-04-07T14:44:58Z</time></trkpt><trkpt lat="45.42154045430538" lon="11.10391979082811"><ele>46.0</ele><time>2026-04-07T14:44:59Z</time></trkpt><trkpt lat="45.421575092998154" lon="11.104004511315102"><ele>46.0</ele><time>2026-04-07T14:45:00Z</time></trkpt><trkpt lat="45.421612124678866" lon="11.10410747005456"><ele>46.0</ele><time>2026-04-07T14:45:01Z</time></trkpt><trkpt lat="45.42164645137868" lon="11.104229829437882"><ele>46.0</ele><time>2026-04-07T14:45:02Z</time></trkpt><trkpt lat="45.42167550125052" lon="11.104377846389461"><ele>46.0</ele><time>2026-04-07T14:45:03Z</time></trkpt><trkpt lat="45.42169011827533" lon="11.104541657754238"><ele>46.0</ele><time>2026-04-07T14:45:04Z</time></trkpt><trkpt lat="45.42168508304778" lon="11.104715978871004"><ele>46.0</ele><time>2026-04-07T14:45:05Z</time></trkpt><trkpt lat="45.421670607513164" lon="11.1049003385337"><ele>46.0</ele><time>2026-04-07T14:45:05.999Z</time></trkpt><trkpt lat="45.42165240967153" lon="11.105080223514824"><ele>45.5</ele><time>2026-04-07T14:45:06.999Z</time></trkpt><trkpt lat="45.42163738328894" lon="11.105242477479731"><ele>45.0</ele><time>2026-04-07T14:45:07.999Z</time></trkpt><trkpt lat="45.421627723517375" lon="11.10541271154905"><ele>44.5</ele><time>2026-04-07T14:45:08.999Z</time></trkpt><trkpt lat="45.42161640776601" lon="11.105582863169069"><ele>44.0</ele><time>2026-04-07T14:45:09.999Z</time></trkpt><trkpt lat="45.42160680973682" lon="11.105758397958345"><ele>43.400000000000006</ele><time>2026-04-07T14:45:10.999Z</time></trkpt><trkpt lat="45.421594942196386" lon="11.105927734009535"><ele>42.8</ele><time>2026-04-07T14:45:11.999Z</time></trkpt><trkpt lat="45.42158551384327" lon="11.10607476830839"><ele>42.2</ele><time>2026-04-07T14:45:12.999Z</time></trkpt><trkpt lat="45.42157461680116" lon="11.106218357910599"><ele>41.599999999999994</ele><time>2026-04-07T14:45:13.999Z</time></trkpt><trkpt lat="45.421566994701145" lon="11.106358904497972"><ele>41.0</ele><time>2026-04-07T14:45:14.999Z</time></trkpt><trkpt lat="45.4215628886593" lon="11.10649465778367"><ele>41.199999999999996</ele><time>2026-04-07T14:45:15.999Z</time></trkpt><trkpt lat="45.42157127316506" lon="11.10660411567038"><ele>41.4</ele><time>2026-04-07T14:45:16.999Z</time></trkpt><trkpt lat="45.421589420788" lon="11.10672044208933"><ele>41.6</ele><time>2026-04-07T14:45:17.999Z</time></trkpt><trkpt lat="45.42160580849632" lon="11.106819507707339"><ele>41.8</ele><time>2026-04-07T14:45:18.999Z</time></trkpt><trkpt lat="45.42159507736732" lon="11.107015542027831"><ele>42.0</ele><time>2026-04-07T14:45:20.999Z</time></trkpt><trkpt lat="45.421555860013534" lon="11.107146429179387"><ele>42.0</ele><time>2026-04-07T14:45:21.999Z</time></trkpt><trkpt lat="45.42152245286022" lon="11.107295307899362"><ele>42.0</ele><time>2026-04-07T14:45:22.999Z</time></trkpt><trkpt lat="45.42150130094121" lon="11.10747921177055"><ele>42.0</ele><time>2026-04-07T14:45:23.999Z</time></trkpt><trkpt lat="45.4214849388731" lon="11.107677163317172"><ele>42.0</ele><time>2026-04-07T14:45:24.999Z</time></trkpt><trkpt lat="45.42146632473295" lon="11.107873083952452"><ele>42.0</ele><time>2026-04-07T14:45:25.999Z</time></trkpt><trkpt lat="45.421445583069925" lon="11.10807314679212"><ele>42.0</ele><time>2026-04-07T14:45:26.999Z</time></trkpt><trkpt lat="45.4214306988255" lon="11.108249962285697"><ele>42.0</ele><time>2026-04-07T14:45:27.999Z</time></trkpt><trkpt lat="45.4214208825398" lon="11.108406523554494"><ele>42.0</ele><time>2026-04-07T14:45:28.999Z</time></trkpt><trkpt lat="45.42140851313638" lon="11.108564948142263"><ele>42.0</ele><time>2026-04-07T14:45:29.999Z</time></trkpt><trkpt lat="45.42139695237335" lon="11.10871968496961"><ele>42.0</ele><time>2026-04-07T14:45:30.999Z</time></trkpt><trkpt lat="45.421384328269944" lon="11.108880729184543"><ele>42.0</ele><time>2026-04-07T14:45:31.999Z</time></trkpt><trkpt lat="45.42137403576556" lon="11.109046830958532"><ele>42.0</ele><time>2026-04-07T14:45:32.999Z</time></trkpt><trkpt lat="45.42136614545717" lon="11.109206191466821"><ele>42.400000000000006</ele><time>2026-04-07T14:45:33.999Z</time></trkpt><trkpt lat="45.42135544256239" lon="11.109351900025844"><ele>42.800000000000004</ele><time>2026-04-07T14:45:34.999Z</time></trkpt><trkpt lat="45.42134416648074" lon="11.109489223844484"><ele>43.2</ele><time>2026-04-07T14:45:35.999Z</time></trkpt><trkpt lat="45.42133055181476" lon="11.109631503137336"><ele>43.6</ele><time>2026-04-07T14:45:36.999Z</time></trkpt><trkpt lat="45.42131734728232" lon="11.109800659083879"><ele>44.0</ele><time>2026-04-07T14:45:37.999Z</time></trkpt><trkpt lat="45.42130390997791" lon="11.109983876395397"><ele>44.25</ele><time>2026-04-07T14:45:38.999Z</time></trkpt><trkpt lat="45.42128987802339" lon="11.110161873792352"><ele>44.5</ele><time>2026-04-07T14:45:39.999Z</time></trkpt><trkpt lat="45.42127523748659" lon="11.110348405530809"><ele>44.75</ele><time>2026-04-07T14:45:40.999Z</time></trkpt><trkpt lat="45.421260006693615" lon="11.110532524182883"><ele>45.0</ele><time>2026-04-07T14:45:41.999Z</time></trkpt><trkpt lat="45.42124618269745" lon="11.11070689883254"><ele>45.0</ele><time>2026-04-07T14:45:42.999Z</time></trkpt><trkpt lat="45.421232840069514" lon="11.11088102869654"><ele>45.0</ele><time>2026-04-07T14:45:43.999Z</time></trkpt><trkpt lat="45.42122008141791" lon="11.111048757704136"><ele>45.0</ele><time>2026-04-07T14:45:44.999Z</time></trkpt><trkpt lat="45.4212114136226" lon="11.111197072539811"><ele>45.0</ele><time>2026-04-07T14:45:45.999Z</time></trkpt><trkpt lat="45.421212316707134" lon="11.111311823488045"><ele>45.0</ele><time>2026-04-07T14:45:46.999Z</time></trkpt><trkpt lat="45.421222326349394" lon="11.11141798735214"><ele>45.0</ele><time>2026-04-07T14:45:47.999Z</time></trkpt><trkpt lat="45.42122682975115" lon="11.111529819927078"><ele>45.0</ele><time>2026-04-07T14:45:48.999Z</time></trkpt><trkpt lat="45.42120821734508" lon="11.111650805607006"><ele>45.0</ele><time>2026-04-07T14:45:49.999Z</time></trkpt><trkpt lat="45.421172702276245" lon="11.111785411537449"><ele>45.0</ele><time>2026-04-07T14:45:50.999Z</time></trkpt><trkpt lat="45.421144769167114" lon="11.111938642066317"><ele>45.0</ele><time>2026-04-07T14:45:51.999Z</time></trkpt><trkpt lat="45.42113097540198" lon="11.112111422772811"><ele>44.8</ele><time>2026-04-07T14:45:52.999Z</time></trkpt><trkpt lat="45.421118204933684" lon="11.112274097361828"><ele>44.6</ele><time>2026-04-07T14:45:53.999Z</time></trkpt><trkpt lat="45.4211086273415" lon="11.11241989955651"><ele>44.400000000000006</ele><time>2026-04-07T14:45:54.999Z</time></trkpt><trkpt lat="45.421096443752326" lon="11.112567434246511"><ele>44.2</ele><time>2026-04-07T14:45:55.999Z</time></trkpt><trkpt lat="45.42108397168962" lon="11.112720485044383"><ele>44.0</ele><time>2026-04-07T14:45:56.999Z</time></trkpt><trkpt lat="45.42106960500685" lon="11.112878678722968"><ele>44.0</ele><time>2026-04-07T14:45:57.999Z</time></trkpt><trkpt lat="45.42105742555412" lon="11.113040033086333"><ele>44.0</ele><time>2026-04-07T14:45:58.999Z</time></trkpt><trkpt lat="45.421046438635045" lon="11.113208293230514"><ele>44.0</ele><time>2026-04-07T14:45:59.999Z</time></trkpt><trkpt lat="45.421034607693684" lon="11.11337008060443"><ele>44.0</ele><time>2026-04-07T14:46:00.999Z</time></trkpt><trkpt lat="45.42102173312764" lon="11.113532014939825"><ele>44.0</ele><time>2026-04-07T14:46:01.999Z</time></trkpt><trkpt lat="45.42100889832744" lon="11.113702013744462"><ele>44.0</ele><time>2026-04-07T14:46:02.999Z</time></trkpt><trkpt lat="45.42099603822257" lon="11.113875696671931"><ele>44.0</ele><time>2026-04-07T14:46:03.999Z</time></trkpt><trkpt lat="45.42098065539796" lon="11.11405974841003"><ele>44.0</ele><time>2026-04-07T14:46:04.999Z</time></trkpt><trkpt lat="45.420967149057695" lon="11.114234505574052"><ele>44.0</ele><time>2026-04-07T14:46:05.999Z</time></trkpt><trkpt lat="45.42095550183365" lon="11.114394582972611"><ele>44.0</ele><time>2026-04-07T14:46:06.999Z</time></trkpt><trkpt lat="45.42094544468102" lon="11.114543330836566"><ele>44.0</ele><time>2026-04-07T14:46:07.999Z</time></trkpt><trkpt lat="45.42093225624295" lon="11.114698528070559"><ele>44.0</ele><time>2026-04-07T14:46:08.998Z</time></trkpt><trkpt lat="45.420920240056304" lon="11.114857309314452"><ele>44.0</ele><time>2026-04-07T14:46:09.998Z</time></trkpt><trkpt lat="45.42090687828309" lon="11.115010357663799"><ele>43.83333333333333</ele><time>2026-04-07T14:46:10.998Z</time></trkpt><trkpt lat="45.420894348014684" lon="11.11515272112043"><ele>43.666666666666664</ele><time>2026-04-07T14:46:11.998Z</time></trkpt><trkpt lat="45.42088340940589" lon="11.115273742385433"><ele>43.5</ele><time>2026-04-07T14:46:12.998Z</time></trkpt><trkpt lat="45.42087532462308" lon="11.115383346903007"><ele>43.333333333333336</ele><time>2026-04-07T14:46:13.998Z</time></trkpt><trkpt lat="45.420861664603144" lon="11.115497569323798"><ele>43.16666666666667</ele><time>2026-04-07T14:46:14.998Z</time></trkpt><trkpt lat="45.42083913389146" lon="11.115595469310653"><ele>43.0</ele><time>2026-04-07T14:46:15.998Z</time></trkpt><trkpt lat="45.420810579768414" lon="11.115697810954114"><ele>43.333333333333336</ele><time>2026-04-07T14:46:16.998Z</time></trkpt><trkpt lat="45.42077538146993" lon="11.115789276174477"><ele>43.66666666666667</ele><time>2026-04-07T14:46:17.998Z</time></trkpt><trkpt lat="45.42073464530055" lon="11.115867778682757"><ele>44.0</ele><time>2026-04-07T14:46:18.998Z</time></trkpt><trkpt lat="45.420680369261184" lon="11.1159437195264"><ele>44.333333333333336</ele><time>2026-04-07T14:46:19.998Z</time></trkpt><trkpt lat="45.420618072106244" lon="11.115994192196366"><ele>44.666666666666664</ele><time>2026-04-07T14:46:20.998Z</time></trkpt><trkpt lat="45.420565190594736" lon="11.11604289347085"><ele>45.0</ele><time>2026-04-07T14:46:21.998Z</time></trkpt><trkpt lat="45.42050862344483" lon="11.116172864554144"><ele>45.0</ele><time>2026-04-07T14:46:23.998Z</time></trkpt><trkpt lat="45.420519494832725" lon="11.116316155472699"><ele>45.0</ele><time>2026-04-07T14:46:25.998Z</time></trkpt><trkpt lat="45.42055287897836" lon="11.116398455046502"><ele>45.0</ele><time>2026-04-07T14:46:26.998Z</time></trkpt><trkpt lat="45.42061190311093" lon="11.116476588985918"><ele>45.0</ele><time>2026-04-07T14:46:27.998Z</time></trkpt><trkpt lat="45.420670350491854" lon="11.116574381520525"><ele>45.0</ele><time>2026-04-07T14:46:28.998Z</time></trkpt><trkpt lat="45.420704883732135" lon="11.116688413686171"><ele>45.0</ele><time>2026-04-07T14:46:29.998Z</time></trkpt><trkpt lat="45.420726051675864" lon="11.11682374251282"><ele>45.2</ele><time>2026-04-07T14:46:30.998Z</time></trkpt><trkpt lat="45.42073585718077" lon="11.116969467638992"><ele>45.4</ele><time>2026-04-07T14:46:31.998Z</time></trkpt><trkpt lat="45.42074007446125" lon="11.117111306013383"><ele>45.599999999999994</ele><time>2026-04-07T14:46:32.998Z</time></trkpt><trkpt lat="45.420735827290855" lon="11.117261283868391"><ele>45.8</ele><time>2026-04-07T14:46:33.998Z</time></trkpt><trkpt lat="45.4207244801772" lon="11.117414421585854"><ele>46.0</ele><time>2026-04-07T14:46:35Z</time></trkpt><trkpt lat="45.420708666642106" lon="11.117582888478836"><ele>45.5</ele><time>2026-04-07T14:46:36Z</time></trkpt><trkpt lat="45.42069283503339" lon="11.117765296088317"><ele>45.0</ele><time>2026-04-07T14:46:37Z</time></trkpt><trkpt lat="45.42068238103787" lon="11.1179502810806"><ele>44.5</ele><time>2026-04-07T14:46:38Z</time></trkpt><trkpt lat="45.42067157529635" lon="11.118130385897206"><ele>44.0</ele><time>2026-04-07T14:46:39Z</time></trkpt><trkpt lat="45.42065924638708" lon="11.118314023806555"><ele>44.0</ele><time>2026-04-07T14:46:40Z</time></trkpt><trkpt lat="45.42064480801584" lon="11.11850957630251"><ele>44.0</ele><time>2026-04-07T14:46:41Z</time></trkpt><trkpt lat="45.42063089810657" lon="11.118709080673263"><ele>44.0</ele><time>2026-04-07T14:46:42Z</time></trkpt><trkpt lat="45.42061985899982" lon="11.118930470395902"><ele>44.0</ele><time>2026-04-07T14:46:43Z</time></trkpt><trkpt lat="45.42059555093315" lon="11.119187755287887"><ele>44.0</ele><time>2026-04-07T14:46:44Z</time></trkpt><trkpt lat="45.4205755280006" lon="11.119475707432445"><ele>44.0</ele><time>2026-04-07T14:46:45Z</time></trkpt><trkpt lat="45.42053229366481" lon="11.119728006713764"><ele>44.0</ele><time>2026-04-07T14:46:46Z</time></trkpt><trkpt lat="45.42052353641638" lon="11.119962658290962"><ele>43.666666666666664</ele><time>2026-04-07T14:46:47Z</time></trkpt><trkpt lat="45.420503628594645" lon="11.120199413627422"><ele>43.333333333333336</ele><time>2026-04-07T14:46:48Z</time></trkpt><trkpt lat="45.42048652830882" lon="11.120421314464405"><ele>43.0</ele><time>2026-04-07T14:46:49Z</time></trkpt><trkpt lat="45.42046801174756" lon="11.120634550833964"><ele>42.5</ele><time>2026-04-07T14:46:50Z</time></trkpt><trkpt lat="45.42044864437389" lon="11.120844698313302"><ele>42.0</ele><time>2026-04-07T14:46:51Z</time></trkpt><trkpt lat="45.420428547865235" lon="11.12104762156939"><ele>41.5</ele><time>2026-04-07T14:46:52Z</time></trkpt><trkpt lat="45.420409867825065" lon="11.121249229388503"><ele>41.0</ele><time>2026-04-07T14:46:53Z</time></trkpt><trkpt lat="45.420393336969454" lon="11.121427413548243"><ele>41.0</ele><time>2026-04-07T14:46:54Z</time></trkpt><trkpt lat="45.4203784666367" lon="11.121607851976442"><ele>41.0</ele><time>2026-04-07T14:46:55Z</time></trkpt><trkpt lat="45.42036792656717" lon="11.121798329578965"><ele>41.0</ele><time>2026-04-07T14:46:56Z</time></trkpt><trkpt lat="45.420358875659716" lon="11.121994403164868"><ele>41.0</ele><time>2026-04-07T14:46:57Z</time></trkpt><trkpt lat="45.42033504782865" lon="11.122191316353504"><ele>41.0</ele><time>2026-04-07T14:46:58Z</time></trkpt><trkpt lat="45.42031823988535" lon="11.122393488944883"><ele>41.0</ele><time>2026-04-07T14:46:59Z</time></trkpt><trkpt lat="45.42030898243881" lon="11.122617751021236"><ele>41.0</ele><time>2026-04-07T14:47:00Z</time></trkpt><trkpt lat="45.42028774124845" lon="11.122800054874352"><ele>41.0</ele><time>2026-04-07T14:47:01Z</time></trkpt><trkpt lat="45.420269390163675" lon="11.123007982036498"><ele>41.0</ele><time>2026-04-07T14:47:02Z</time></trkpt><trkpt lat="45.420255913875174" lon="11.123216246241045"><ele>41.0</ele><time>2026-04-07T14:47:03Z</time></trkpt><trkpt lat="45.42024454629812" lon="11.123428272950521"><ele>41.0</ele><time>2026-04-07T14:47:04Z</time></trkpt><trkpt lat="45.420229777760085" lon="11.123643499733145"><ele>41.0</ele><time>2026-04-07T14:47:04.999Z</time></trkpt><trkpt lat="45.42021694588765" lon="11.123848782530638"><ele>41.25</ele><time>2026-04-07T14:47:05.999Z</time></trkpt><trkpt lat="45.42020285716276" lon="11.12404073309466"><ele>41.5</ele><time>2026-04-07T14:47:06.999Z</time></trkpt><trkpt lat="45.42018719110554" lon="11.124234184749527"><ele>41.75</ele><time>2026-04-07T14:47:07.999Z</time></trkpt><trkpt lat="45.42017317460227" lon="11.12442794327555"><ele>42.0</ele><time>2026-04-07T14:47:08.999Z</time></trkpt><trkpt lat="45.42015814117345" lon="11.124626602003481"><ele>42.0</ele><time>2026-04-07T14:47:09.999Z</time></trkpt><trkpt lat="45.42014132155615" lon="11.124820803728179"><ele>42.0</ele><time>2026-04-07T14:47:10.999Z</time></trkpt><trkpt lat="45.42012676124648" lon="11.12499714861452"><ele>42.0</ele><time>2026-04-07T14:47:11.999Z</time></trkpt><trkpt lat="45.42011308276054" lon="11.125155435536724"><ele>42.0</ele><time>2026-04-07T14:47:12.999Z</time></trkpt><trkpt lat="45.42010000784065" lon="11.125311403899865"><ele>41.75</ele><time>2026-04-07T14:47:13.999Z</time></trkpt><trkpt lat="45.420088416815005" lon="11.12547219974783"><ele>41.5</ele><time>2026-04-07T14:47:14.999Z</time></trkpt><trkpt lat="45.42007309803939" lon="11.125643971219581"><ele>41.25</ele><time>2026-04-07T14:47:15.999Z</time></trkpt><trkpt lat="45.42005816418584" lon="11.125818213518262"><ele>41.0</ele><time>2026-04-07T14:47:16.999Z</time></trkpt><trkpt lat="45.42004466318067" lon="11.126001892234108"><ele>41.0</ele><time>2026-04-07T14:47:17.999Z</time></trkpt><trkpt lat="45.42002794868525" lon="11.126199603415577"><ele>41.0</ele><time>2026-04-07T14:47:18.999Z</time></trkpt><trkpt lat="45.42001008681265" lon="11.126397764049557"><ele>41.0</ele><time>2026-04-07T14:47:19.999Z</time></trkpt><trkpt lat="45.41999530968588" lon="11.126586567428804"><ele>41.0</ele><time>2026-04-07T14:47:20.999Z</time></trkpt><trkpt lat="45.419982496981376" lon="11.126779831373092"><ele>41.0</ele><time>2026-04-07T14:47:21.999Z</time></trkpt><trkpt lat="45.41996901562159" lon="11.126966326719922"><ele>41.0</ele><time>2026-04-07T14:47:22.999Z</time></trkpt><trkpt lat="45.41995165958449" lon="11.127156242292019"><ele>41.0</ele><time>2026-04-07T14:47:23.999Z</time></trkpt><trkpt lat="45.41993661653579" lon="11.127335213353767"><ele>41.0</ele><time>2026-04-07T14:47:24.999Z</time></trkpt><trkpt lat="45.41992258659561" lon="11.127508678696305"><ele>41.25</ele><time>2026-04-07T14:47:25.999Z</time></trkpt><trkpt lat="45.419909296555744" lon="11.127677648956091"><ele>41.5</ele><time>2026-04-07T14:47:26.999Z</time></trkpt><trkpt lat="45.419896817372546" lon="11.12784380622041"><ele>41.75</ele><time>2026-04-07T14:47:27.999Z</time></trkpt><trkpt lat="45.419885437099914" lon="11.12801353103468"><ele>42.0</ele><time>2026-04-07T14:47:28.999Z</time></trkpt><trkpt lat="45.41987405864088" lon="11.128179099916755"><ele>42.0</ele><time>2026-04-07T14:47:29.999Z</time></trkpt><trkpt lat="45.41986125754683" lon="11.128346627331062"><ele>42.0</ele><time>2026-04-07T14:47:30.999Z</time></trkpt><trkpt lat="45.419848600756964" lon="11.128515532219625"><ele>42.0</ele><time>2026-04-07T14:47:31.999Z</time></trkpt><trkpt lat="45.41983334700231" lon="11.128682932847502"><ele>42.0</ele><time>2026-04-07T14:47:32.999Z</time></trkpt><trkpt lat="45.419820512205916" lon="11.128853318948895"><ele>42.0</ele><time>2026-04-07T14:47:33.999Z</time></trkpt><trkpt lat="45.419807730233345" lon="11.129018466572752"><ele>42.0</ele><time>2026-04-07T14:47:34.999Z</time></trkpt><trkpt lat="45.419795128770055" lon="11.129175653239873"><ele>42.0</ele><time>2026-04-07T14:47:35.999Z</time></trkpt><trkpt lat="45.41978296396895" lon="11.129328192716361"><ele>42.0</ele><time>2026-04-07T14:47:36.999Z</time></trkpt><trkpt lat="45.41977071916917" lon="11.129481643984068"><ele>42.0</ele><time>2026-04-07T14:47:37.999Z</time></trkpt><trkpt lat="45.41975732529691" lon="11.129625439660884"><ele>42.0</ele><time>2026-04-07T14:47:38.999Z</time></trkpt><trkpt lat="45.41975065583714" lon="11.129752048167441"><ele>42.0</ele><time>2026-04-07T14:47:39.999Z</time></trkpt><trkpt lat="45.41974400713961" lon="11.129867177771462"><ele>42.0</ele><time>2026-04-07T14:47:40.999Z</time></trkpt><trkpt lat="45.419737724494574" lon="11.12998964116499"><ele>42.0</ele><time>2026-04-07T14:47:41.999Z</time></trkpt><trkpt lat="45.41971534213654" lon="11.130127319739366"><ele>42.0</ele><time>2026-04-07T14:47:42.999Z</time></trkpt><trkpt lat="45.419702123029246" lon="11.130286899238671"><ele>42.2</ele><time>2026-04-07T14:47:43.999Z</time></trkpt><trkpt lat="45.419689880872006" lon="11.130434682854899"><ele>42.400000000000006</ele><time>2026-04-07T14:47:44.999Z</time></trkpt><trkpt lat="45.41968040066393" lon="11.130565816661536"><ele>42.599999999999994</ele><time>2026-04-07T14:47:45.999Z</time></trkpt><trkpt lat="45.41967077802983" lon="11.130694373555139"><ele>42.8</ele><time>2026-04-07T14:47:46.999Z</time></trkpt><trkpt lat="45.419661946179204" lon="11.130812365664243"><ele>43.0</ele><time>2026-04-07T14:47:47.999Z</time></trkpt><trkpt lat="45.41965252837453" lon="11.130924280005193"><ele>43.00000000000001</ele><time>2026-04-07T14:47:48.999Z</time></trkpt><trkpt lat="45.41964399068489" lon="11.131026264342486"><ele>43.0</ele><time>2026-04-07T14:47:49.999Z</time></trkpt><trkpt lat="45.419635707521905" lon="11.13112520846728"><ele>43.0</ele><time>2026-04-07T14:47:50.999Z</time></trkpt><trkpt lat="45.419658705452626" lon="11.131227460462306"><ele>43.0</ele><time>2026-04-07T14:47:51.999Z</time></trkpt><trkpt lat="45.41965021601798" lon="11.131326793000273"><ele>43.0</ele><time>2026-04-07T14:47:52.999Z</time></trkpt><trkpt lat="45.419641559360656" lon="11.131432096114347"><ele>43.00000000000001</ele><time>2026-04-07T14:47:53.999Z</time></trkpt><trkpt lat="45.41963389016282" lon="11.131543890417621"><ele>43.0</ele><time>2026-04-07T14:47:54.999Z</time></trkpt><trkpt lat="45.41962534965043" lon="11.131661524866823"><ele>43.0</ele><time>2026-04-07T14:47:55.999Z</time></trkpt><trkpt lat="45.41958123754561" lon="11.131773380188658"><ele>43.0</ele><time>2026-04-07T14:47:56.999Z</time></trkpt><trkpt lat="45.41957467143189" lon="11.131867672061556"><ele>43.0</ele><time>2026-04-07T14:47:57.999Z</time></trkpt><trkpt lat="45.419562289798584" lon="11.132030358542691"><ele>43.0</ele><time>2026-04-07T14:47:59.999Z</time></trkpt><trkpt lat="45.419555367663946" lon="11.132121310782688"><ele>43.0</ele><time>2026-04-07T14:48:00.999Z</time></trkpt><trkpt lat="45.4195444670708" lon="11.132264537341955"><ele>43.0</ele><time>2026-04-07T14:48:02.999Z</time></trkpt><trkpt lat="45.41953190434312" lon="11.132429603240153"><ele>43.0</ele><time>2026-04-07T14:48:04.999Z</time></trkpt><trkpt lat="45.419518290237804" lon="11.13260848352669"><ele>43.0</ele><time>2026-04-07T14:48:06.999Z</time></trkpt><trkpt lat="45.41951142701689" lon="11.13269866171342"><ele>43.0</ele><time>2026-04-07T14:48:07.999Z</time></trkpt><trkpt lat="45.419500358226145" lon="11.132844098334623"><ele>43.0</ele><time>2026-04-07T14:48:09.999Z</time></trkpt><trkpt lat="45.41949483595862" lon="11.133041267264977"><ele>43.0</ele><time>2026-04-07T14:48:34.998Z</time></trkpt><trkpt lat="45.41947447283721" lon="11.13318943400155"><ele>43.0</ele><time>2026-04-07T14:48:35.998Z</time></trkpt><trkpt lat="45.419456733896716" lon="11.133388595916092"><ele>43.0</ele><time>2026-04-07T14:48:36.998Z</time></trkpt><trkpt lat="45.41943681101575" lon="11.133612883667286"><ele>43.0</ele><time>2026-04-07T14:48:37.998Z</time></trkpt><trkpt lat="45.41942000366847" lon="11.133824608810121"><ele>43.0</ele><time>2026-04-07T14:48:38.998Z</time></trkpt><trkpt lat="45.41941672987255" lon="11.13402637427076"><ele>43.0</ele><time>2026-04-07T14:48:39.998Z</time></trkpt><trkpt lat="45.41940442983414" lon="11.13419950717954"><ele>43.0</ele><time>2026-04-07T14:48:41Z</time></trkpt><trkpt lat="45.419395605723174" lon="11.134370477065486"><ele>43.0</ele><time>2026-04-07T14:48:42Z</time></trkpt><trkpt lat="45.419374005895044" lon="11.134595207731781"><ele>43.0</ele><time>2026-04-07T14:48:43Z</time></trkpt><trkpt lat="45.419359964443125" lon="11.134838957909617"><ele>43.25</ele><time>2026-04-07T14:48:44Z</time></trkpt><trkpt lat="45.41934626695487" lon="11.135028914225751"><ele>43.5</ele><time>2026-04-07T14:48:45Z</time></trkpt><trkpt lat="45.41933803898945" lon="11.135223658371938"><ele>43.75</ele><time>2026-04-07T14:48:46Z</time></trkpt><trkpt lat="45.41932822666163" lon="11.135428976099822"><ele>44.0</ele><time>2026-04-07T14:48:47Z</time></trkpt><trkpt lat="45.41931089002923" lon="11.13562771912941"><ele>44.0</ele><time>2026-04-07T14:48:48Z</time></trkpt><trkpt lat="45.41929415524312" lon="11.135827109311043"><ele>44.0</ele><time>2026-04-07T14:48:49Z</time></trkpt><trkpt lat="45.41927934344756" lon="11.136030802063663"><ele>44.0</ele><time>2026-04-07T14:48:50Z</time></trkpt><trkpt lat="45.41926330979148" lon="11.136229965424793"><ele>44.0</ele><time>2026-04-07T14:48:51Z</time></trkpt><trkpt lat="45.41924773448535" lon="11.136424954711808"><ele>44.25</ele><time>2026-04-07T14:48:52Z</time></trkpt><trkpt lat="45.41923328127306" lon="11.136617360633101"><ele>44.5</ele><time>2026-04-07T14:48:53Z</time></trkpt><trkpt lat="45.4192193610204" lon="11.136790834674384"><ele>44.75</ele><time>2026-04-07T14:48:54Z</time></trkpt><trkpt lat="45.41920680761726" lon="11.136952936346121"><ele>45.0</ele><time>2026-04-07T14:48:55Z</time></trkpt><trkpt lat="45.41919294824273" lon="11.137102613878788"><ele>45.0</ele><time>2026-04-07T14:48:56Z</time></trkpt><trkpt lat="45.41918155135959" lon="11.137264048536082"><ele>45.0</ele><time>2026-04-07T14:48:57Z</time></trkpt><trkpt lat="45.41916616789667" lon="11.137431459045375"><ele>45.0</ele><time>2026-04-07T14:48:58Z</time></trkpt><trkpt lat="45.419153195052004" lon="11.13759741928451"><ele>45.0</ele><time>2026-04-07T14:48:59Z</time></trkpt><trkpt lat="45.41914269633203" lon="11.13777494893365"><ele>45.5</ele><time>2026-04-07T14:49:00Z</time></trkpt><trkpt lat="45.41913184158316" lon="11.137954419066977"><ele>46.0</ele><time>2026-04-07T14:49:01Z</time></trkpt><trkpt lat="45.419121523042065" lon="11.138142521550563"><ele>46.5</ele><time>2026-04-07T14:49:02Z</time></trkpt><trkpt lat="45.41909706904922" lon="11.138329723982451"><ele>47.0</ele><time>2026-04-07T14:49:03Z</time></trkpt><trkpt lat="45.41908314097182" lon="11.13852668801627"><ele>47.0</ele><time>2026-04-07T14:49:04Z</time></trkpt><trkpt lat="45.41906813295371" lon="11.13873892397066"><ele>47.0</ele><time>2026-04-07T14:49:05Z</time></trkpt><trkpt lat="45.41905257088548" lon="11.138952853759257"><ele>47.0</ele><time>2026-04-07T14:49:06Z</time></trkpt><trkpt lat="45.419036252461645" lon="11.139175833564057"><ele>46.666666666666664</ele><time>2026-04-07T14:49:07Z</time></trkpt><trkpt lat="45.41901953530954" lon="11.139404260544536"><ele>46.333333333333336</ele><time>2026-04-07T14:49:08Z</time></trkpt><trkpt lat="45.419001721808115" lon="11.139639235040123"><ele>46.0</ele><time>2026-04-07T14:49:09Z</time></trkpt><trkpt lat="45.418983524670324" lon="11.1398807204752"><ele>45.66666666666667</ele><time>2026-04-07T14:49:10Z</time></trkpt><trkpt lat="45.41896543489697" lon="11.14012530720941"><ele>45.333333333333336</ele><time>2026-04-07T14:49:11Z</time></trkpt><trkpt lat="45.41894635751025" lon="11.140381633179816"><ele>45.0</ele><time>2026-04-07T14:49:12Z</time></trkpt><trkpt lat="45.418927775834256" lon="11.14063163995067"><ele>45.333333333333336</ele><time>2026-04-07T14:49:12.999Z</time></trkpt><trkpt lat="45.41891216776982" lon="11.140855258640443"><ele>45.66666666666667</ele><time>2026-04-07T14:49:13.999Z</time></trkpt><trkpt lat="45.41889675817652" lon="11.141066412575722"><ele>46.0</ele><time>2026-04-07T14:49:14.999Z</time></trkpt><trkpt lat="45.41888118912461" lon="11.14127975150835"><ele>46.0</ele><time>2026-04-07T14:49:15.999Z</time></trkpt><trkpt lat="45.41888511083274" lon="11.141500510963152"><ele>46.0</ele><time>2026-04-07T14:49:16.999Z</time></trkpt><trkpt lat="45.41886753353684" lon="11.14172607071534"><ele>46.0</ele><time>2026-04-07T14:49:17.999Z</time></trkpt><trkpt lat="45.418847993592465" lon="11.141953741598318"><ele>45.333333333333336</ele><time>2026-04-07T14:49:18.999Z</time></trkpt><trkpt lat="45.41882870619686" lon="11.142196672331503"><ele>44.666666666666664</ele><time>2026-04-07T14:49:19.999Z</time></trkpt><trkpt lat="45.418810601498855" lon="11.142448843207406"><ele>44.0</ele><time>2026-04-07T14:49:20.999Z</time></trkpt><trkpt lat="45.41879458969031" lon="11.142689073749395"><ele>43.666666666666664</ele><time>2026-04-07T14:49:21.999Z</time></trkpt><trkpt lat="45.41877657847035" lon="11.142925580025613"><ele>43.333333333333336</ele><time>2026-04-07T14:49:22.999Z</time></trkpt><trkpt lat="45.41875692014617" lon="11.143154903491109"><ele>43.0</ele><time>2026-04-07T14:49:23.999Z</time></trkpt><trkpt lat="45.41874049256108" lon="11.143379557194594"><ele>43.66666666666667</ele><time>2026-04-07T14:49:24.999Z</time></trkpt><trkpt lat="45.4187262291509" lon="11.143609202989463"><ele>44.333333333333336</ele><time>2026-04-07T14:49:25.999Z</time></trkpt><trkpt lat="45.41871341470784" lon="11.14382110282931"><ele>45.0</ele><time>2026-04-07T14:49:26.999Z</time></trkpt><trkpt lat="45.418702054197404" lon="11.144025927912235"><ele>45.0</ele><time>2026-04-07T14:49:27.999Z</time></trkpt><trkpt lat="45.418688865734275" lon="11.144203768294304"><ele>45.0</ele><time>2026-04-07T14:49:28.999Z</time></trkpt><trkpt lat="45.41867528071449" lon="11.14436156217567"><ele>45.0</ele><time>2026-04-07T14:49:29.999Z</time></trkpt><trkpt lat="45.41866269122334" lon="11.144482245154904"><ele>45.0</ele><time>2026-04-07T14:49:30.999Z</time></trkpt><trkpt lat="45.41865239296235" lon="11.144584423884996"><ele>45.0</ele><time>2026-04-07T14:49:31.999Z</time></trkpt><trkpt lat="45.41864226532821" lon="11.144704455675717"><ele>45.0</ele><time>2026-04-07T14:49:33.999Z</time></trkpt><trkpt lat="45.418623065440705" lon="11.14482985765114"><ele>45.0</ele><time>2026-04-07T14:49:36.999Z</time></trkpt><trkpt lat="45.4185470737696" lon="11.144956962774513"><ele>45.0</ele><time>2026-04-07T14:49:38.999Z</time></trkpt><trkpt lat="45.41846925705897" lon="11.145018066471673"><ele>45.0</ele><time>2026-04-07T14:49:39.999Z</time></trkpt><trkpt lat="45.418389924577816" lon="11.145079939676933"><ele>45.0</ele><time>2026-04-07T14:49:40.999Z</time></trkpt><trkpt lat="45.41833491708988" lon="11.145157543757417"><ele>44.6</ele><time>2026-04-07T14:49:41.999Z</time></trkpt><trkpt lat="45.41830442320823" lon="11.14525809139276"><ele>44.2</ele><time>2026-04-07T14:49:42.999Z</time></trkpt><trkpt lat="45.418289196401986" lon="11.145384472715415"><ele>43.8</ele><time>2026-04-07T14:49:43.999Z</time></trkpt><trkpt lat="45.418301639697425" lon="11.145521447218735"><ele>43.4</ele><time>2026-04-07T14:49:44.999Z</time></trkpt><trkpt lat="45.41835338040236" lon="11.14563858271488"><ele>43.0</ele><time>2026-04-07T14:49:45.999Z</time></trkpt><trkpt lat="45.41841252154738" lon="11.145737976179628"><ele>42.8</ele><time>2026-04-07T14:49:46.999Z</time></trkpt><trkpt lat="45.418466900343944" lon="11.145835444970109"><ele>42.599999999999994</ele><time>2026-04-07T14:49:47.999Z</time></trkpt><trkpt lat="45.41850481854005" lon="11.145942067199613"><ele>42.400000000000006</ele><time>2026-04-07T14:49:48.999Z</time></trkpt><trkpt lat="45.41852950705732" lon="11.146068085770557"><ele>42.2</ele><time>2026-04-07T14:49:49.999Z</time></trkpt><trkpt lat="45.41851756972044" lon="11.146206336881189"><ele>42.0</ele><time>2026-04-07T14:49:50.999Z</time></trkpt><trkpt lat="45.41852220894549" lon="11.14637147304132"><ele>42.0</ele><time>2026-04-07T14:49:51.999Z</time></trkpt><trkpt lat="45.418508434325815" lon="11.146528137447834"><ele>42.0</ele><time>2026-04-07T14:49:52.999Z</time></trkpt><trkpt lat="45.418490475021024" lon="11.146671859711974"><ele>42.0</ele><time>2026-04-07T14:49:53.999Z</time></trkpt><trkpt lat="45.41847606339764" lon="11.146825000626013"><ele>42.0</ele><time>2026-04-07T14:49:54.999Z</time></trkpt><trkpt lat="45.41846381751155" lon="11.146994402633634"><ele>42.0</ele><time>2026-04-07T14:49:55.999Z</time></trkpt><trkpt lat="45.41845462635193" lon="11.147165929280566"><ele>42.5</ele><time>2026-04-07T14:49:56.999Z</time></trkpt><trkpt lat="45.41844294745138" lon="11.1473333635092"><ele>43.0</ele><time>2026-04-07T14:49:57.999Z</time></trkpt><trkpt lat="45.41842717608032" lon="11.147505095322545"><ele>43.5</ele><time>2026-04-07T14:49:58.999Z</time></trkpt><trkpt lat="45.41841179854202" lon="11.147673094894975"><ele>44.0</ele><time>2026-04-07T14:49:59.999Z</time></trkpt><trkpt lat="45.41839712626117" lon="11.147846573575782"><ele>44.25</ele><time>2026-04-07T14:50:00.999Z</time></trkpt><trkpt lat="45.418383531376165" lon="11.14801447207882"><ele>44.5</ele><time>2026-04-07T14:50:01.999Z</time></trkpt><trkpt lat="45.41836873603913" lon="11.148185019912313"><ele>44.75</ele><time>2026-04-07T14:50:02.999Z</time></trkpt><trkpt lat="45.41835544374955" lon="11.148354139726528"><ele>45.0</ele><time>2026-04-07T14:50:03.999Z</time></trkpt><trkpt lat="45.41834358078403" lon="11.148528305254038"><ele>45.25</ele><time>2026-04-07T14:50:04.999Z</time></trkpt><trkpt lat="45.41833266963827" lon="11.148699417296985"><ele>45.5</ele><time>2026-04-07T14:50:05.999Z</time></trkpt><trkpt lat="45.418319047067605" lon="11.148872080968246"><ele>45.75</ele><time>2026-04-07T14:50:06.999Z</time></trkpt><trkpt lat="45.41830512126921" lon="11.149038964132616"><ele>46.0</ele><time>2026-04-07T14:50:07.999Z</time></trkpt><trkpt lat="45.41829479029523" lon="11.149199274704657"><ele>46.199999999999996</ele><time>2026-04-07T14:50:08.999Z</time></trkpt><trkpt lat="45.41828319154077" lon="11.149346308127498"><ele>46.4</ele><time>2026-04-07T14:50:09.999Z</time></trkpt><trkpt lat="45.41826750554473" lon="11.149490477255428"><ele>46.6</ele><time>2026-04-07T14:50:10.999Z</time></trkpt><trkpt lat="45.41824136016693" lon="11.149612985277"><ele>46.8</ele><time>2026-04-07T14:50:11.999Z</time></trkpt><trkpt lat="45.418198478339754" lon="11.149715315979241"><ele>47.0</ele><time>2026-04-07T14:50:12.999Z</time></trkpt><trkpt lat="45.41813322365971" lon="11.1498024279715"><ele>47.0</ele><time>2026-04-07T14:50:13.999Z</time></trkpt><trkpt lat="45.41805801429512" lon="11.149871300710753"><ele>47.0</ele><time>2026-04-07T14:50:14.999Z</time></trkpt><trkpt lat="45.41798365604685" lon="11.149951465362811"><ele>47.0</ele><time>2026-04-07T14:50:15.999Z</time></trkpt><trkpt lat="45.417941050100275" lon="11.15005884772185"><ele>47.0</ele><time>2026-04-07T14:50:16.999Z</time></trkpt><trkpt lat="45.417943948189034" lon="11.150204967190891"><ele>47.0</ele><time>2026-04-07T14:50:17.999Z</time></trkpt><trkpt lat="45.41799327973674" lon="11.150342459400418"><ele>47.0</ele><time>2026-04-07T14:50:18.999Z</time></trkpt><trkpt lat="45.41807079274187" lon="11.150431321896832"><ele>47.0</ele><time>2026-04-07T14:50:19.999Z</time></trkpt><trkpt lat="45.418150676360426" lon="11.15052639131668"><ele>47.0</ele><time>2026-04-07T14:50:20.999Z</time></trkpt><trkpt lat="45.41819063965403" lon="11.150663574418411"><ele>47.0</ele><time>2026-04-07T14:50:21.999Z</time></trkpt><trkpt lat="45.41817216443421" lon="11.150809545496589"><ele>47.0</ele><time>2026-04-07T14:50:22.999Z</time></trkpt><trkpt lat="45.418173963133185" lon="11.150960921811215"><ele>46.8</ele><time>2026-04-07T14:50:23.999Z</time></trkpt><trkpt lat="45.4181555501731" lon="11.151109154538304"><ele>46.6</ele><time>2026-04-07T14:50:24.999Z</time></trkpt><trkpt lat="45.418144483001235" lon="11.151261700474752"><ele>46.4</ele><time>2026-04-07T14:50:25.999Z</time></trkpt><trkpt lat="45.41813411541715" lon="11.151428287157744"><ele>46.199999999999996</ele><time>2026-04-07T14:50:26.999Z</time></trkpt><trkpt lat="45.41811992818426" lon="11.151595442715166"><ele>46.0</ele><time>2026-04-07T14:50:27.998Z</time></trkpt><trkpt lat="45.41811115305496" lon="11.151755315207762"><ele>46.0</ele><time>2026-04-07T14:50:28.998Z</time></trkpt><trkpt lat="45.41809993597018" lon="11.151928375766751"><ele>46.0</ele><time>2026-04-07T14:50:29.998Z</time></trkpt><trkpt lat="45.418084005632224" lon="11.152124788974648"><ele>46.0</ele><time>2026-04-07T14:50:30.998Z</time></trkpt><trkpt lat="45.41806857707508" lon="11.152327941438065"><ele>46.0</ele><time>2026-04-07T14:50:31.998Z</time></trkpt><trkpt lat="45.41805461211134" lon="11.152540288402335"><ele>46.5</ele><time>2026-04-07T14:50:32.998Z</time></trkpt><trkpt lat="45.41803904719797" lon="11.152759879869842"><ele>47.0</ele><time>2026-04-07T14:50:33.998Z</time></trkpt><trkpt lat="45.418023256241476" lon="11.152969249372592"><ele>47.5</ele><time>2026-04-07T14:50:34.998Z</time></trkpt><trkpt lat="45.41800993851727" lon="11.153158740201446"><ele>48.0</ele><time>2026-04-07T14:50:35.998Z</time></trkpt><trkpt lat="45.41800025983693" lon="11.15332485265394"><ele>48.0</ele><time>2026-04-07T14:50:36.998Z</time></trkpt><trkpt lat="45.41798997021444" lon="11.15346668681396"><ele>48.0</ele><time>2026-04-07T14:50:37.998Z</time></trkpt><trkpt lat="45.41797868266185" lon="11.153602213050792"><ele>48.0</ele><time>2026-04-07T14:50:38.998Z</time></trkpt><trkpt lat="45.41796997015413" lon="11.153727144158792"><ele>48.0</ele><time>2026-04-07T14:50:39.998Z</time></trkpt><trkpt lat="45.41796203082374" lon="11.153862897918096"><ele>48.0</ele><time>2026-04-07T14:50:40.998Z</time></trkpt><trkpt lat="45.41794961980586" lon="11.154002617404014"><ele>47.25</ele><time>2026-04-07T14:50:41.998Z</time></trkpt><trkpt lat="45.41793595793608" lon="11.154146885948387"><ele>46.5</ele><time>2026-04-07T14:50:42.998Z</time></trkpt><trkpt lat="45.417923176912126" lon="11.154306844271387"><ele>45.75</ele><time>2026-04-07T14:50:43.998Z</time></trkpt><trkpt lat="45.41791095425585" lon="11.154483183445418"><ele>45.0</ele><time>2026-04-07T14:50:44.998Z</time></trkpt><trkpt lat="45.417899057612274" lon="11.15467157751835"><ele>45.0</ele><time>2026-04-07T14:50:45.998Z</time></trkpt><trkpt lat="45.41788543520333" lon="11.154871541744436"><ele>45.0</ele><time>2026-04-07T14:50:47Z</time></trkpt><trkpt lat="45.41787074686821" lon="11.155075945935893"><ele>45.0</ele><time>2026-04-07T14:50:48Z</time></trkpt><trkpt lat="45.417856471832366" lon="11.155286258800222"><ele>45.0</ele><time>2026-04-07T14:50:49Z</time></trkpt><trkpt lat="45.41783757629338" lon="11.155493455516286"><ele>45.0</ele><time>2026-04-07T14:50:50Z</time></trkpt><trkpt lat="45.417821753908534" lon="11.155700382721152"><ele>45.0</ele><time>2026-04-07T14:50:51Z</time></trkpt><trkpt lat="45.417812510540855" lon="11.155894450794657"><ele>45.0</ele><time>2026-04-07T14:50:52Z</time></trkpt><trkpt lat="45.417798202158146" lon="11.156088613679302"><ele>45.0</ele><time>2026-04-07T14:50:53Z</time></trkpt><trkpt lat="45.41778233859074" lon="11.156280211991454"><ele>45.25</ele><time>2026-04-07T14:50:54Z</time></trkpt><trkpt lat="45.41776257780028" lon="11.156473301817122"><ele>45.5</ele><time>2026-04-07T14:50:55Z</time></trkpt><trkpt lat="45.41774830522343" lon="11.15667715227791"><ele>45.75</ele><time>2026-04-07T14:50:56Z</time></trkpt><trkpt lat="45.41773452422747" lon="11.156879905484264"><ele>46.0</ele><time>2026-04-07T14:50:57Z</time></trkpt><trkpt lat="45.41771987188872" lon="11.157081619852022"><ele>46.25</ele><time>2026-04-07T14:50:58Z</time></trkpt><trkpt lat="45.41770534707168" lon="11.157268125760266"><ele>46.5</ele><time>2026-04-07T14:50:59Z</time></trkpt><trkpt lat="45.41769067569474" lon="11.157453235409568"><ele>46.75</ele><time>2026-04-07T14:51:00Z</time></trkpt><trkpt lat="45.41767680297154" lon="11.157633838905673"><ele>47.0</ele><time>2026-04-07T14:51:01Z</time></trkpt><trkpt lat="45.41766451996223" lon="11.15780928271802"><ele>47.0</ele><time>2026-04-07T14:51:02Z</time></trkpt><trkpt lat="45.41765034258231" lon="11.157981781999528"><ele>47.0</ele><time>2026-04-07T14:51:03Z</time></trkpt><trkpt lat="45.417636785004646" lon="11.158151842739992"><ele>47.0</ele><time>2026-04-07T14:51:04Z</time></trkpt><trkpt lat="45.41762282369753" lon="11.158319000472927"><ele>47.0</ele><time>2026-04-07T14:51:05Z</time></trkpt><trkpt lat="45.41760950620466" lon="11.158487680397293"><ele>47.0</ele><time>2026-04-07T14:51:06Z</time></trkpt><trkpt lat="45.41759652919525" lon="11.158650985757285"><ele>47.0</ele><time>2026-04-07T14:51:07Z</time></trkpt><trkpt lat="45.417584463022585" lon="11.158815936683137"><ele>47.0</ele><time>2026-04-07T14:51:08Z</time></trkpt><trkpt lat="45.41757173031713" lon="11.158991471669825"><ele>47.0</ele><time>2026-04-07T14:51:09Z</time></trkpt><trkpt lat="45.417558852095745" lon="11.159176910683998"><ele>47.0</ele><time>2026-04-07T14:51:10Z</time></trkpt><trkpt lat="45.4175455018257" lon="11.159370545054575"><ele>47.0</ele><time>2026-04-07T14:51:11Z</time></trkpt><trkpt lat="45.41753093385662" lon="11.159578843214078"><ele>47.0</ele><time>2026-04-07T14:51:12Z</time></trkpt><trkpt lat="45.41751426606457" lon="11.159790367653486"><ele>47.0</ele><time>2026-04-07T14:51:13Z</time></trkpt><trkpt lat="45.41749740917651" lon="11.160005410598556"><ele>47.0</ele><time>2026-04-07T14:51:14Z</time></trkpt><trkpt lat="45.41748402194673" lon="11.16022991859693"><ele>47.0</ele><time>2026-04-07T14:51:15Z</time></trkpt><trkpt lat="45.417474683724926" lon="11.160452813233254"><ele>47.0</ele><time>2026-04-07T14:51:16Z</time></trkpt><trkpt lat="45.417461228971945" lon="11.160675626958698"><ele>47.666666666666664</ele><time>2026-04-07T14:51:17Z</time></trkpt><trkpt lat="45.417447052180144" lon="11.16089760853466"><ele>48.33333333333333</ele><time>2026-04-07T14:51:18Z</time></trkpt><trkpt lat="45.41743028596141" lon="11.1611297698814"><ele>49.0</ele><time>2026-04-07T14:51:19Z</time></trkpt><trkpt lat="45.41741139162234" lon="11.161368930384086"><ele>49.33333333333333</ele><time>2026-04-07T14:51:20Z</time></trkpt><trkpt lat="45.417394560566564" lon="11.16159909216856"><ele>49.66666666666667</ele><time>2026-04-07T14:51:21Z</time></trkpt><trkpt lat="45.417377656786705" lon="11.161840008336057"><ele>50.0</ele><time>2026-04-07T14:51:22Z</time></trkpt><trkpt lat="45.417364281930524" lon="11.16206135814473"><ele>50.0</ele><time>2026-04-07T14:51:23Z</time></trkpt><trkpt lat="45.41735044767123" lon="11.162261737324762"><ele>50.0</ele><time>2026-04-07T14:51:24Z</time></trkpt><trkpt lat="45.41733807992244" lon="11.162469455430845"><ele>50.0</ele><time>2026-04-07T14:51:24.999Z</time></trkpt><trkpt lat="45.417321126230604" lon="11.162689938004384"><ele>50.0</ele><time>2026-04-07T14:51:25.999Z</time></trkpt><trkpt lat="45.41730408187014" lon="11.162910546376096"><ele>49.75</ele><time>2026-04-07T14:51:26.999Z</time></trkpt><trkpt lat="45.417286470739676" lon="11.163130005272896"><ele>49.5</ele><time>2026-04-07T14:51:27.999Z</time></trkpt><trkpt lat="45.4172730461399" lon="11.163319726045312"><ele>49.25</ele><time>2026-04-07T14:51:28.999Z</time></trkpt><trkpt lat="45.41726173402657" lon="11.163479478622037"><ele>49.0</ele><time>2026-04-07T14:51:29.999Z</time></trkpt><trkpt lat="45.41725247923347" lon="11.16361479379073"><ele>48.800000000000004</ele><time>2026-04-07T14:51:30.999Z</time></trkpt><trkpt lat="45.417244855729365" lon="11.163747021717136"><ele>48.6</ele><time>2026-04-07T14:51:31.999Z</time></trkpt><trkpt lat="45.41723572294682" lon="11.163887168572039"><ele>48.4</ele><time>2026-04-07T14:51:32.999Z</time></trkpt><trkpt lat="45.41722684044746" lon="11.16405128101944"><ele>48.2</ele><time>2026-04-07T14:51:33.999Z</time></trkpt><trkpt lat="45.41721569653335" lon="11.16422946566771"><ele>48.0</ele><time>2026-04-07T14:51:34.999Z</time></trkpt><trkpt lat="45.41720342951796" lon="11.164400811613145"><ele>47.75</ele><time>2026-04-07T14:51:35.999Z</time></trkpt><trkpt lat="45.417189816415224" lon="11.164563411733672"><ele>47.5</ele><time>2026-04-07T14:51:36.999Z</time></trkpt><trkpt lat="45.417178273138134" lon="11.164720153832793"><ele>47.25</ele><time>2026-04-07T14:51:37.999Z</time></trkpt><trkpt lat="45.41716567027138" lon="11.164888598657804"><ele>47.0</ele><time>2026-04-07T14:51:38.999Z</time></trkpt><trkpt lat="45.417151799645765" lon="11.16506384850656"><ele>46.75</ele><time>2026-04-07T14:51:39.999Z</time></trkpt><trkpt lat="45.417137220340344" lon="11.16524648773276"><ele>46.5</ele><time>2026-04-07T14:51:40.999Z</time></trkpt><trkpt lat="45.41712260288528" lon="11.16543043499165"><ele>46.25</ele><time>2026-04-07T14:51:41.999Z</time></trkpt><trkpt lat="45.417108083243306" lon="11.165618220572817"><ele>46.0</ele><time>2026-04-07T14:51:42.999Z</time></trkpt><trkpt lat="45.41709511378982" lon="11.165811317756376"><ele>46.0</ele><time>2026-04-07T14:51:43.999Z</time></trkpt><trkpt lat="45.417081219389445" lon="11.166003423467195"><ele>46.0</ele><time>2026-04-07T14:51:44.999Z</time></trkpt><trkpt lat="45.417065473871915" lon="11.166196183821489"><ele>46.0</ele><time>2026-04-07T14:51:45.999Z</time></trkpt><trkpt lat="45.41705175529182" lon="11.166373883824464"><ele>46.0</ele><time>2026-04-07T14:51:46.999Z</time></trkpt><trkpt lat="45.41703895185372" lon="11.166540020536246"><ele>46.0</ele><time>2026-04-07T14:51:47.999Z</time></trkpt><trkpt lat="45.417027816127266" lon="11.166693908162738"><ele>46.0</ele><time>2026-04-07T14:51:48.999Z</time></trkpt><trkpt lat="45.41701946417088" lon="11.166835852323672"><ele>46.0</ele><time>2026-04-07T14:51:49.999Z</time></trkpt><trkpt lat="45.41700807511528" lon="11.166977139100197"><ele>46.0</ele><time>2026-04-07T14:51:50.999Z</time></trkpt><trkpt lat="45.416991737485205" lon="11.167131027478543"><ele>46.0</ele><time>2026-04-07T14:51:51.999Z</time></trkpt><trkpt lat="45.41697388490065" lon="11.167293645953519"><ele>45.8</ele><time>2026-04-07T14:51:52.999Z</time></trkpt><trkpt lat="45.41695754123936" lon="11.16744989177544"><ele>45.599999999999994</ele><time>2026-04-07T14:51:53.999Z</time></trkpt><trkpt lat="45.41694223203149" lon="11.167605010233274"><ele>45.4</ele><time>2026-04-07T14:51:54.999Z</time></trkpt><trkpt lat="45.416931184462456" lon="11.167757499040748"><ele>45.2</ele><time>2026-04-07T14:51:55.999Z</time></trkpt><trkpt lat="45.416919207425906" lon="11.167913116720404"><ele>45.0</ele><time>2026-04-07T14:51:56.999Z</time></trkpt><trkpt lat="45.41690619768691" lon="11.168071730775573"><ele>45.0</ele><time>2026-04-07T14:51:57.999Z</time></trkpt><trkpt lat="45.4168958551358" lon="11.168245658880027"><ele>45.0</ele><time>2026-04-07T14:51:58.999Z</time></trkpt><trkpt lat="45.41688516687222" lon="11.168426184037886"><ele>45.0</ele><time>2026-04-07T14:51:59.999Z</time></trkpt><trkpt lat="45.41687447033378" lon="11.16860904081004"><ele>45.0</ele><time>2026-04-07T14:52:00.999Z</time></trkpt><trkpt lat="45.41686335155455" lon="11.168791227894035"><ele>45.0</ele><time>2026-04-07T14:52:01.999Z</time></trkpt><trkpt lat="45.41685285942803" lon="11.16897900527799"><ele>45.0</ele><time>2026-04-07T14:52:02.999Z</time></trkpt><trkpt lat="45.41683883530888" lon="11.169157887254736"><ele>45.0</ele><time>2026-04-07T14:52:03.999Z</time></trkpt><trkpt lat="45.41682254145843" lon="11.169324300593741"><ele>45.0</ele><time>2026-04-07T14:52:04.999Z</time></trkpt><trkpt lat="45.416808624622206" lon="11.169495920228526"><ele>45.25</ele><time>2026-04-07T14:52:05.999Z</time></trkpt><trkpt lat="45.416794042142065" lon="11.16967763580079"><ele>45.5</ele><time>2026-04-07T14:52:06.999Z</time></trkpt><trkpt lat="45.41678190306467" lon="11.16986126517283"><ele>45.75</ele><time>2026-04-07T14:52:07.999Z</time></trkpt><trkpt lat="45.41677232824576" lon="11.170035244007684"><ele>46.0</ele><time>2026-04-07T14:52:08.999Z</time></trkpt><trkpt lat="45.41675715631315" lon="11.17018507703503"><ele>46.16666666666667</ele><time>2026-04-07T14:52:09.999Z</time></trkpt><trkpt lat="45.416744298851555" lon="11.17031021604822"><ele>46.333333333333336</ele><time>2026-04-07T14:52:10.999Z</time></trkpt><trkpt lat="45.41673314048307" lon="11.170404725684174"><ele>46.5</ele><time>2026-04-07T14:52:11.999Z</time></trkpt><trkpt lat="45.41672258243461" lon="11.170504921986819"><ele>46.666666666666664</ele><time>2026-04-07T14:52:12.999Z</time></trkpt><trkpt lat="45.41670839244344" lon="11.170612184794035"><ele>46.83333333333333</ele><time>2026-04-07T14:52:13.999Z</time></trkpt><trkpt lat="45.416691715349415" lon="11.170740651569936"><ele>47.0</ele><time>2026-04-07T14:52:14.999Z</time></trkpt><trkpt lat="45.41667093771607" lon="11.170873585237429"><ele>47.25</ele><time>2026-04-07T14:52:15.999Z</time></trkpt><trkpt lat="45.41664879559401" lon="11.17102856873265"><ele>47.5</ele><time>2026-04-07T14:52:16.999Z</time></trkpt><trkpt lat="45.416623185970316" lon="11.171191518898347"><ele>47.75</ele><time>2026-04-07T14:52:17.999Z</time></trkpt><trkpt lat="45.416596967788905" lon="11.171360621547393"><ele>48.0</ele><time>2026-04-07T14:52:18.999Z</time></trkpt><trkpt lat="45.416571429784504" lon="11.171533137262953"><ele>48.0</ele><time>2026-04-07T14:52:19.999Z</time></trkpt><trkpt lat="45.41654486033887" lon="11.171710487902352"><ele>48.0</ele><time>2026-04-07T14:52:20.999Z</time></trkpt><trkpt lat="45.41651763180153" lon="11.171888291216863"><ele>48.0</ele><time>2026-04-07T14:52:21.999Z</time></trkpt><trkpt lat="45.416492520923455" lon="11.172067828875324"><ele>48.0</ele><time>2026-04-07T14:52:22.999Z</time></trkpt><trkpt lat="45.41646851416667" lon="11.17225350643311"><ele>48.0</ele><time>2026-04-07T14:52:23.999Z</time></trkpt><trkpt lat="45.416448013609646" lon="11.172427139632179"><ele>48.0</ele><time>2026-04-07T14:52:24.999Z</time></trkpt><trkpt lat="45.41642562548066" lon="11.17259266177691"><ele>48.0</ele><time>2026-04-07T14:52:25.999Z</time></trkpt><trkpt lat="45.41640408947277" lon="11.172742871933584"><ele>48.0</ele><time>2026-04-07T14:52:26.999Z</time></trkpt><trkpt lat="45.416386145546554" lon="11.172878971875914"><ele>48.0</ele><time>2026-04-07T14:52:27.999Z</time></trkpt><trkpt lat="45.41636807114776" lon="11.172999067198093"><ele>48.0</ele><time>2026-04-07T14:52:28.999Z</time></trkpt><trkpt lat="45.41635112973281" lon="11.173109217821997"><ele>48.0</ele><time>2026-04-07T14:52:29.999Z</time></trkpt><trkpt lat="45.416337802825105" lon="11.17321735704836"><ele>48.0</ele><time>2026-04-07T14:52:30.999Z</time></trkpt><trkpt lat="45.41632202709639" lon="11.173379834518046"><ele>48.0</ele><time>2026-04-07T14:52:32.999Z</time></trkpt><trkpt lat="45.41632462763248" lon="11.173490182937334"><ele>48.0</ele><time>2026-04-07T14:52:35.999Z</time></trkpt><trkpt lat="45.41630422556921" lon="11.173588064899802"><ele>48.0</ele><time>2026-04-07T14:52:37.999Z</time></trkpt><trkpt lat="45.416270441690756" lon="11.173664452069959"><ele>48.0</ele><time>2026-04-07T14:52:38.999Z</time></trkpt><trkpt lat="45.41625186294505" lon="11.173792607495587"><ele>48.0</ele><time>2026-04-07T14:52:39.999Z</time></trkpt><trkpt lat="45.41622798544618" lon="11.173956103736451"><ele>48.0</ele><time>2026-04-07T14:52:40.999Z</time></trkpt><trkpt lat="45.41620253372408" lon="11.174121167059965"><ele>48.0</ele><time>2026-04-07T14:52:41.999Z</time></trkpt><trkpt lat="45.41619249319751" lon="11.17429166793497"><ele>48.0</ele><time>2026-04-07T14:52:42.999Z</time></trkpt><trkpt lat="45.416165654507246" lon="11.174457175586875"><ele>48.0</ele><time>2026-04-07T14:52:43.998Z</time></trkpt><trkpt lat="45.41614146787646" lon="11.174614837940625"><ele>48.0</ele><time>2026-04-07T14:52:44.998Z</time></trkpt><trkpt lat="45.416114615177875" lon="11.17477477750922"><ele>48.0</ele><time>2026-04-07T14:52:45.998Z</time></trkpt><trkpt lat="45.416092787987566" lon="11.174916937864788"><ele>48.0</ele><time>2026-04-07T14:52:46.998Z</time></trkpt><trkpt lat="45.416073482288894" lon="11.175053004197144"><ele>48.0</ele><time>2026-04-07T14:52:47.998Z</time></trkpt><trkpt lat="45.41605039563149" lon="11.175197036074737"><ele>48.0</ele><time>2026-04-07T14:52:48.998Z</time></trkpt><trkpt lat="45.41602439852238" lon="11.175340704467962"><ele>48.0</ele><time>2026-04-07T14:52:49.998Z</time></trkpt><trkpt lat="45.4160039291145" lon="11.175483969471216"><ele>48.0</ele><time>2026-04-07T14:52:50.998Z</time></trkpt><trkpt lat="45.41598159405775" lon="11.17562151441402"><ele>48.0</ele><time>2026-04-07T14:52:51.998Z</time></trkpt><trkpt lat="45.415961596934785" lon="11.17576127966386"><ele>48.0</ele><time>2026-04-07T14:52:53Z</time></trkpt><trkpt lat="45.415937840005334" lon="11.17590343440797"><ele>48.25</ele><time>2026-04-07T14:52:54Z</time></trkpt><trkpt lat="45.415901409150344" lon="11.176049008223236"><ele>48.5</ele><time>2026-04-07T14:52:55Z</time></trkpt><trkpt lat="45.415875530286826" lon="11.176213659666375"><ele>48.75</ele><time>2026-04-07T14:52:56Z</time></trkpt><trkpt lat="45.41586231997509" lon="11.176395984077036"><ele>49.0</ele><time>2026-04-07T14:52:57Z</time></trkpt><trkpt lat="45.41582576105073" lon="11.176587057820006"><ele>49.0</ele><time>2026-04-07T14:52:58Z</time></trkpt><trkpt lat="45.415801269341515" lon="11.176766292589177"><ele>49.0</ele><time>2026-04-07T14:52:59Z</time></trkpt><trkpt lat="45.41577081938545" lon="11.17693103836085"><ele>49.0</ele><time>2026-04-07T14:53:00Z</time></trkpt><trkpt lat="45.4157481127328" lon="11.177091224461382"><ele>49.0</ele><time>2026-04-07T14:53:01Z</time></trkpt><trkpt lat="45.41572450152202" lon="11.17724710031652"><ele>49.2</ele><time>2026-04-07T14:53:02Z</time></trkpt><trkpt lat="45.41570246216445" lon="11.177392351291836"><ele>49.400000000000006</ele><time>2026-04-07T14:53:03Z</time></trkpt><trkpt lat="45.4156847681431" lon="11.177523975221044"><ele>49.6</ele><time>2026-04-07T14:53:04Z</time></trkpt><trkpt lat="45.41565093711558" lon="11.177644844351189"><ele>49.8</ele><time>2026-04-07T14:53:05Z</time></trkpt><trkpt lat="45.41563022010192" lon="11.177777486812376"><ele>50.0</ele><time>2026-04-07T14:53:06Z</time></trkpt><trkpt lat="45.41560828405888" lon="11.177917934201043"><ele>50.0</ele><time>2026-04-07T14:53:07Z</time></trkpt><trkpt lat="45.41558835958249" lon="11.178045501507649"><ele>50.0</ele><time>2026-04-07T14:53:08Z</time></trkpt><trkpt lat="45.41557413453965" lon="11.178135324049995"><ele>50.0</ele><time>2026-04-07T14:53:09Z</time></trkpt><trkpt lat="45.41557574653372" lon="11.178231816641311"><ele>50.0</ele><time>2026-04-07T14:53:11Z</time></trkpt><trkpt lat="45.41555115025705" lon="11.178372356093707"><ele>50.0</ele><time>2026-04-07T14:53:14Z</time></trkpt><trkpt lat="45.415522744003894" lon="11.178547068906152"><ele>50.00000000000001</ele><time>2026-04-07T14:53:16Z</time></trkpt><trkpt lat="45.41550527604692" lon="11.178653638664288"><ele>50.0</ele><time>2026-04-07T14:53:17Z</time></trkpt><trkpt lat="45.41548915936602" lon="11.178761709984409"><ele>50.0</ele><time>2026-04-07T14:53:18Z</time></trkpt><trkpt lat="45.415472832865674" lon="11.17886174033101"><ele>50.0</ele><time>2026-04-07T14:53:19Z</time></trkpt><trkpt lat="45.41545640226667" lon="11.178974339402581"><ele>50.00000000000001</ele><time>2026-04-07T14:53:20Z</time></trkpt><trkpt lat="45.41543972817273" lon="11.179091082944712"><ele>50.0</ele><time>2026-04-07T14:53:21Z</time></trkpt><trkpt lat="45.4154228487588" lon="11.179212928003693"><ele>49.833333333333336</ele><time>2026-04-07T14:53:22Z</time></trkpt><trkpt lat="45.4154087482715" lon="11.179318169303903"><ele>49.66666666666667</ele><time>2026-04-07T14:53:23Z</time></trkpt><trkpt lat="45.41539287444882" lon="11.17941373009493"><ele>49.5</ele><time>2026-04-07T14:53:24Z</time></trkpt><trkpt lat="45.41537064779946" lon="11.17957850036822"><ele>49.33333333333333</ele><time>2026-04-07T14:53:26Z</time></trkpt><trkpt lat="45.415354669797985" lon="11.179681290014065"><ele>49.166666666666664</ele><time>2026-04-07T14:53:28Z</time></trkpt><trkpt lat="45.41533078323161" lon="11.179780714215857"><ele>49.0</ele><time>2026-04-07T14:53:31Z</time></trkpt><trkpt lat="45.41531223725247" lon="11.179909240288584"><ele>48.99999999999999</ele><time>2026-04-07T14:53:33Z</time></trkpt><trkpt lat="45.415299587204665" lon="11.179999807876747"><ele>49.0</ele><time>2026-04-07T14:53:35Z</time></trkpt><trkpt lat="45.41528519241519" lon="11.18010166406851"><ele>49.0</ele><time>2026-04-07T14:53:39Z</time></trkpt><trkpt lat="45.41527070651414" lon="11.180204164845943"><ele>49.0</ele><time>2026-04-07T14:53:45.999Z</time></trkpt><trkpt lat="45.415257119180175" lon="11.180300829225136"><ele>48.99999999999999</ele><time>2026-04-07T14:53:47.999Z</time></trkpt><trkpt lat="45.415270376110904" lon="11.180427549613988"><ele>49.0</ele><time>2026-04-07T14:53:49.999Z</time></trkpt><trkpt lat="45.415246691706066" lon="11.180580348442042"><ele>48.83333333333333</ele><time>2026-04-07T14:53:51.999Z</time></trkpt><trkpt lat="45.41522273956745" lon="11.18075556121906"><ele>48.666666666666664</ele><time>2026-04-07T14:53:53.999Z</time></trkpt><trkpt lat="45.41520998107717" lon="11.180852746309837"><ele>48.5</ele><time>2026-04-07T14:53:54.999Z</time></trkpt><trkpt lat="45.41519675510057" lon="11.180950767694112"><ele>48.33333333333333</ele><time>2026-04-07T14:53:55.999Z</time></trkpt><trkpt lat="45.41515243905939" lon="11.181033390530809"><ele>48.166666666666664</ele><time>2026-04-07T14:53:56.999Z</time></trkpt><trkpt lat="45.41517314436706" lon="11.181133983683436"><ele>48.0</ele><time>2026-04-07T14:53:57.999Z</time></trkpt><trkpt lat="45.41514954477466" lon="11.181285629525004"><ele>48.0</ele><time>2026-04-07T14:53:59.999Z</time></trkpt><trkpt lat="45.41510341967562" lon="11.181378262917868"><ele>48.0</ele><time>2026-04-07T14:54:01.999Z</time></trkpt><trkpt lat="45.41509002459758" lon="11.181472418438057"><ele>48.0</ele><time>2026-04-07T14:54:03.999Z</time></trkpt><trkpt lat="45.415073894054906" lon="11.181583425324211"><ele>48.0</ele><time>2026-04-07T14:54:05.999Z</time></trkpt><trkpt lat="45.415059680764124" lon="11.181680541422796"><ele>48.0</ele><time>2026-04-07T14:54:07.999Z</time></trkpt><trkpt lat="45.41503650696838" lon="11.18183994472171"><ele>48.0</ele><time>2026-04-07T14:54:09.999Z</time></trkpt><trkpt lat="45.41502074817061" lon="11.18194834331023"><ele>48.166666666666664</ele><time>2026-04-07T14:54:10.999Z</time></trkpt><trkpt lat="45.41500523389179" lon="11.182055059906281"><ele>48.33333333333333</ele><time>2026-04-07T14:54:11.999Z</time></trkpt><trkpt lat="45.41498747585014" lon="11.182177209852131"><ele>48.5</ele><time>2026-04-07T14:54:12.999Z</time></trkpt><trkpt lat="45.41496807941734" lon="11.182307733590036"><ele>48.666666666666664</ele><time>2026-04-07T14:54:13.999Z</time></trkpt><trkpt lat="45.41494921546964" lon="11.18243536661928"><ele>48.83333333333333</ele><time>2026-04-07T14:54:14.999Z</time></trkpt><trkpt lat="45.414930242210986" lon="11.182563739350584"><ele>49.0</ele><time>2026-04-07T14:54:15.999Z</time></trkpt><trkpt lat="45.41491310291" lon="11.1826797034624"><ele>49.0</ele><time>2026-04-07T14:54:18.999Z</time></trkpt><trkpt lat="45.4148899601904" lon="11.182836976620282"><ele>49.0</ele><time>2026-04-07T14:54:20.999Z</time></trkpt><trkpt lat="45.414876590360414" lon="11.18293176083903"><ele>49.0</ele><time>2026-04-07T14:54:21.999Z</time></trkpt><trkpt lat="45.414863760846465" lon="11.183022713613687"><ele>49.0</ele><time>2026-04-07T14:54:22.999Z</time></trkpt><trkpt lat="45.41483520768579" lon="11.183212728298248"><ele>49.0</ele><time>2026-04-07T14:54:24.999Z</time></trkpt><trkpt lat="45.41481842375935" lon="11.183327043029138"><ele>49.0</ele><time>2026-04-07T14:54:25.999Z</time></trkpt><trkpt lat="45.414797507266144" lon="11.183470526568025"><ele>49.0</ele><time>2026-04-07T14:54:26.999Z</time></trkpt><trkpt lat="45.41477424919301" lon="11.18362510641928"><ele>49.0</ele><time>2026-04-07T14:54:27.999Z</time></trkpt><trkpt lat="45.41474697094107" lon="11.183804630079901"><ele>49.0</ele><time>2026-04-07T14:54:28.999Z</time></trkpt><trkpt lat="45.414714958213615" lon="11.184021780834831"><ele>49.0</ele><time>2026-04-07T14:54:29.999Z</time></trkpt><trkpt lat="45.414680315059506" lon="11.18425134929171"><ele>49.0</ele><time>2026-04-07T14:54:30.999Z</time></trkpt><trkpt lat="45.41464777915266" lon="11.18446880676578"><ele>49.0</ele><time>2026-04-07T14:54:31.999Z</time></trkpt><trkpt lat="45.41461691261275" lon="11.18467510687059"><ele>49.33333333333333</ele><time>2026-04-07T14:54:32.999Z</time></trkpt><trkpt lat="45.41459672216836" lon="11.184877650398693"><ele>49.66666666666667</ele><time>2026-04-07T14:54:33.999Z</time></trkpt><trkpt lat="45.414568638088255" lon="11.185085245819351"><ele>50.0</ele><time>2026-04-07T14:54:34.999Z</time></trkpt><trkpt lat="45.41452133091618" lon="11.185305990995623"><ele>50.0</ele><time>2026-04-07T14:54:35.999Z</time></trkpt><trkpt lat="45.41448630549176" lon="11.185539565527648"><ele>50.0</ele><time>2026-04-07T14:54:36.999Z</time></trkpt><trkpt lat="45.414459449281836" lon="11.18576704949576"><ele>50.0</ele><time>2026-04-07T14:54:37.999Z</time></trkpt><trkpt lat="45.414421565956495" lon="11.185992001667033"><ele>49.333333333333336</ele><time>2026-04-07T14:54:38.999Z</time></trkpt><trkpt lat="45.41439080763526" lon="11.186212937983436"><ele>48.66666666666667</ele><time>2026-04-07T14:54:39.999Z</time></trkpt><trkpt lat="45.414359637104255" lon="11.186440043343163"><ele>48.0</ele><time>2026-04-07T14:54:40.999Z</time></trkpt><trkpt lat="45.41433497506329" lon="11.186631001343928"><ele>48.0</ele><time>2026-04-07T14:54:41.999Z</time></trkpt><trkpt lat="45.41430711565798" lon="11.186818132476645"><ele>48.0</ele><time>2026-04-07T14:54:42.999Z</time></trkpt><trkpt lat="45.41427862536597" lon="11.187018640215971"><ele>48.0</ele><time>2026-04-07T14:54:43.999Z</time></trkpt><trkpt lat="45.41424678100689" lon="11.18720709900227"><ele>48.0</ele><time>2026-04-07T14:54:44.999Z</time></trkpt><trkpt lat="45.41421995665341" lon="11.187389445235205"><ele>47.333333333333336</ele><time>2026-04-07T14:54:45.999Z</time></trkpt><trkpt lat="45.414193809169255" lon="11.187599173443404"><ele>46.66666666666667</ele><time>2026-04-07T14:54:46.999Z</time></trkpt><trkpt lat="45.41416938803656" lon="11.18782847155559"><ele>46.0</ele><time>2026-04-07T14:54:47.999Z</time></trkpt><trkpt lat="45.41413479590016" lon="11.188078926113155"><ele>46.333333333333336</ele><time>2026-04-07T14:54:48.999Z</time></trkpt><trkpt lat="45.41409032561414" lon="11.18833097852058"><ele>46.666666666666664</ele><time>2026-04-07T14:54:49.999Z</time></trkpt><trkpt lat="45.41403771947374" lon="11.18861404060565"><ele>47.0</ele><time>2026-04-07T14:54:50.999Z</time></trkpt><trkpt lat="45.413989454998365" lon="11.188910530954246"><ele>47.0</ele><time>2026-04-07T14:54:51.999Z</time></trkpt><trkpt lat="45.41394614531918" lon="11.189204171840702"><ele>47.0</ele><time>2026-04-07T14:54:52.999Z</time></trkpt><trkpt lat="45.413900787288405" lon="11.189515994344283"><ele>47.0</ele><time>2026-04-07T14:54:53.999Z</time></trkpt><trkpt lat="45.413852791789964" lon="11.18983161818428"><ele>48.5</ele><time>2026-04-07T14:54:54.999Z</time></trkpt><trkpt lat="45.41380394516651" lon="11.190155231483663"><ele>50.0</ele><time>2026-04-07T14:54:55.999Z</time></trkpt><trkpt lat="45.41375538622011" lon="11.190476662626358"><ele>48.0</ele><time>2026-04-07T14:54:56.999Z</time></trkpt><trkpt lat="45.41370450303926" lon="11.19081023934833"><ele>46.0</ele><time>2026-04-07T14:54:57.999Z</time></trkpt><trkpt lat="45.413655919447656" lon="11.191132669717478"><ele>46.0</ele><time>2026-04-07T14:54:59Z</time></trkpt><trkpt lat="45.41360774545339" lon="11.191453634233135"><ele>46.0</ele><time>2026-04-07T14:55:00Z</time></trkpt><trkpt lat="45.413560057888006" lon="11.191780985339264"><ele>44.5</ele><time>2026-04-07T14:55:01Z</time></trkpt><trkpt lat="45.4135107300513" lon="11.192106643124587"><ele>43.0</ele><time>2026-04-07T14:55:02Z</time></trkpt><trkpt lat="45.41346406858992" lon="11.192428990362034"><ele>42.5</ele><time>2026-04-07T14:55:03Z</time></trkpt><trkpt lat="45.4134137765239" lon="11.192759327196494"><ele>42.0</ele><time>2026-04-07T14:55:04Z</time></trkpt><trkpt lat="45.413368055744655" lon="11.193083905322993"><ele>41.5</ele><time>2026-04-07T14:55:05Z</time></trkpt><trkpt lat="45.41332355722418" lon="11.19340695630006"><ele>41.0</ele><time>2026-04-07T14:55:06Z</time></trkpt><trkpt lat="45.413277481139964" lon="11.193716240276489"><ele>41.0</ele><time>2026-04-07T14:55:07Z</time></trkpt><trkpt lat="45.413232751556755" lon="11.194023669372802"><ele>41.0</ele><time>2026-04-07T14:55:08Z</time></trkpt><trkpt lat="45.41318632227948" lon="11.194341332325497"><ele>41.0</ele><time>2026-04-07T14:55:09Z</time></trkpt><trkpt lat="45.41313902546533" lon="11.194660250561759"><ele>41.0</ele><time>2026-04-07T14:55:10Z</time></trkpt><trkpt lat="45.41308910486311" lon="11.194989336898116"><ele>41.0</ele><time>2026-04-07T14:55:11Z</time></trkpt><trkpt lat="45.41303773671664" lon="11.195323563352067"><ele>41.0</ele><time>2026-04-07T14:55:12Z</time></trkpt><trkpt lat="45.41299337318625" lon="11.195643804724698"><ele>41.0</ele><time>2026-04-07T14:55:13Z</time></trkpt><trkpt lat="45.412994387365686" lon="11.195928601939437"><ele>41.0</ele><time>2026-04-07T14:55:14Z</time></trkpt><trkpt lat="45.41300087056349" lon="11.19618944815289"><ele>38.5</ele><time>2026-04-07T14:55:15Z</time></trkpt><trkpt lat="45.41283830157886" lon="11.196699197201756"><ele>36.0</ele><time>2026-04-07T14:55:16Z</time></trkpt><trkpt lat="45.41278653193992" lon="11.19705592922589"><ele>36.0</ele><time>2026-04-07T14:55:17Z</time></trkpt><trkpt lat="45.41273044946292" lon="11.197413794289378"><ele>36.0</ele><time>2026-04-07T14:55:18Z</time></trkpt><trkpt lat="45.41267730619914" lon="11.197771887223313"><ele>36.0</ele><time>2026-04-07T14:55:19Z</time></trkpt><trkpt lat="45.41262407434002" lon="11.198137004764844"><ele>36.0</ele><time>2026-04-07T14:55:20Z</time></trkpt><trkpt lat="45.41256560840995" lon="11.198528080551705"><ele>35.0</ele><time>2026-04-07T14:55:21Z</time></trkpt><trkpt lat="45.41250176366803" lon="11.198948945949187"><ele>34.0</ele><time>2026-04-07T14:55:22Z</time></trkpt><trkpt lat="45.41243586329919" lon="11.199387742624989"><ele>32.5</ele><time>2026-04-07T14:55:23Z</time></trkpt><trkpt lat="45.41237374643347" lon="11.199849281231876"><ele>31.0</ele><time>2026-04-07T14:55:24Z</time></trkpt><trkpt lat="45.41230710738614" lon="11.200314730871826"><ele>29.0</ele><time>2026-04-07T14:55:25Z</time></trkpt><trkpt lat="45.41224503931291" lon="11.20074751254116"><ele>27.0</ele><time>2026-04-07T14:55:26Z</time></trkpt><trkpt lat="45.412183684873256" lon="11.201154796105305"><ele>27.5</ele><time>2026-04-07T14:55:27Z</time></trkpt><trkpt lat="45.41212533542156" lon="11.201547484787286"><ele>28.0</ele><time>2026-04-07T14:55:28Z</time></trkpt><trkpt lat="45.412067557963" lon="11.201931424168437"><ele>28.0</ele><time>2026-04-07T14:55:29Z</time></trkpt><trkpt lat="45.41201133955734" lon="11.202312181898145"><ele>28.0</ele><time>2026-04-07T14:55:30Z</time></trkpt><trkpt lat="45.41195251217113" lon="11.202685615679153"><ele>27.5</ele><time>2026-04-07T14:55:31Z</time></trkpt><trkpt lat="45.41189354496678" lon="11.203058990939729"><ele>27.0</ele><time>2026-04-07T14:55:32Z</time></trkpt><trkpt lat="45.41183197855629" lon="11.20343202053366"><ele>26.5</ele><time>2026-04-07T14:55:33Z</time></trkpt><trkpt lat="45.41176819190997" lon="11.203805289136668"><ele>26.0</ele><time>2026-04-07T14:55:34Z</time></trkpt><trkpt lat="45.41171159531898" lon="11.20417453039525"><ele>26.0</ele><time>2026-04-07T14:55:35Z</time></trkpt><trkpt lat="45.41165486910556" lon="11.204547076388014"><ele>26.0</ele><time>2026-04-07T14:55:36Z</time></trkpt><trkpt lat="45.41159894900371" lon="11.204918996091749"><ele>26.0</ele><time>2026-04-07T14:55:37Z</time></trkpt><trkpt lat="45.41154877145836" lon="11.205287145459987"><ele>26.0</ele><time>2026-04-07T14:55:38Z</time></trkpt><trkpt lat="45.411494059375926" lon="11.205662430500333"><ele>25.5</ele><time>2026-04-07T14:55:39Z</time></trkpt><trkpt lat="45.41143880026703" lon="11.206037625116704"><ele>25.0</ele><time>2026-04-07T14:55:40Z</time></trkpt><trkpt lat="45.41138684672944" lon="11.20641820481157"><ele>25.5</ele><time>2026-04-07T14:55:41Z</time></trkpt><trkpt lat="45.41133617390287" lon="11.206805830082597"><ele>26.0</ele><time>2026-04-07T14:55:42Z</time></trkpt><trkpt lat="45.411282745051665" lon="11.207200538746159"><ele>25.0</ele><time>2026-04-07T14:55:43Z</time></trkpt><trkpt lat="45.41122298447045" lon="11.207589412429051"><ele>24.0</ele><time>2026-04-07T14:55:44Z</time></trkpt><trkpt lat="45.41116407226961" lon="11.207979864256675"><ele>24.0</ele><time>2026-04-07T14:55:45Z</time></trkpt><trkpt lat="45.41110803637704" lon="11.20837169043711"><ele>24.0</ele><time>2026-04-07T14:55:46Z</time></trkpt><trkpt lat="45.41105349362642" lon="11.20876254942931"><ele>24.0</ele><time>2026-04-07T14:55:47Z</time></trkpt><trkpt lat="45.4109958897541" lon="11.209145889738926"><ele>24.0</ele><time>2026-04-07T14:55:48Z</time></trkpt><trkpt lat="45.41093510831784" lon="11.209532379897334"><ele>25.0</ele><time>2026-04-07T14:55:49Z</time></trkpt><trkpt lat="45.410872590999396" lon="11.209913355600547"><ele>26.0</ele><time>2026-04-07T14:55:50Z</time></trkpt><trkpt lat="45.410813743954535" lon="11.210297677694312"><ele>27.0</ele><time>2026-04-07T14:55:51Z</time></trkpt><trkpt lat="45.410761617746275" lon="11.210669086239488"><ele>28.0</ele><time>2026-04-07T14:55:52Z</time></trkpt><trkpt lat="45.41070760740202" lon="11.211036213784073"><ele>28.0</ele><time>2026-04-07T14:55:53Z</time></trkpt><trkpt lat="45.41065009352629" lon="11.211393921967895"><ele>28.0</ele><time>2026-04-07T14:55:54Z</time></trkpt><trkpt lat="45.41059750439547" lon="11.211747444644262"><ele>28.5</ele><time>2026-04-07T14:55:55Z</time></trkpt><trkpt lat="45.41055068120814" lon="11.21207551598438"><ele>29.0</ele><time>2026-04-07T14:55:56Z</time></trkpt><trkpt lat="45.410501110019005" lon="11.212381158817152"><ele>29.0</ele><time>2026-04-07T14:55:57Z</time></trkpt><trkpt lat="45.410456502990456" lon="11.212687429465511"><ele>29.0</ele><time>2026-04-07T14:55:57.999Z</time></trkpt><trkpt lat="45.41041074706661" lon="11.212995217312773"><ele>29.0</ele><time>2026-04-07T14:55:58.999Z</time></trkpt><trkpt lat="45.41036421592137" lon="11.213301470471333"><ele>29.0</ele><time>2026-04-07T14:55:59.999Z</time></trkpt><trkpt lat="45.410322404952" lon="11.213581389892452"><ele>29.0</ele><time>2026-04-07T14:56:00.999Z</time></trkpt><trkpt lat="45.410286928985435" lon="11.213845928040245"><ele>29.0</ele><time>2026-04-07T14:56:01.999Z</time></trkpt><trkpt lat="45.41023789354102" lon="11.214139360584097"><ele>29.0</ele><time>2026-04-07T14:56:02.999Z</time></trkpt><trkpt lat="45.41018912193675" lon="11.214446701264878"><ele>29.0</ele><time>2026-04-07T14:56:03.999Z</time></trkpt><trkpt lat="45.41014546463897" lon="11.21476064757182"><ele>29.0</ele><time>2026-04-07T14:56:04.999Z</time></trkpt><trkpt lat="45.41009513950255" lon="11.215081538131267"><ele>29.5</ele><time>2026-04-07T14:56:05.999Z</time></trkpt><trkpt lat="45.410043444636635" lon="11.215401103446528"><ele>30.0</ele><time>2026-04-07T14:56:06.999Z</time></trkpt><trkpt lat="45.409989889857926" lon="11.215722207405376"><ele>30.333333333333336</ele><time>2026-04-07T14:56:07.999Z</time></trkpt><trkpt lat="45.409943216363324" lon="11.216021385680348"><ele>30.666666666666668</ele><time>2026-04-07T14:56:08.999Z</time></trkpt><trkpt lat="45.40990480919194" lon="11.216299632090074"><ele>31.0</ele><time>2026-04-07T14:56:09.999Z</time></trkpt><trkpt lat="45.40986435153675" lon="11.216568987160704"><ele>31.0</ele><time>2026-04-07T14:56:10.999Z</time></trkpt><trkpt lat="45.409829302425145" lon="11.216821242136033"><ele>31.0</ele><time>2026-04-07T14:56:11.999Z</time></trkpt><trkpt lat="45.40978826705462" lon="11.217078556041953"><ele>31.0</ele><time>2026-04-07T14:56:12.999Z</time></trkpt><trkpt lat="45.40974780995719" lon="11.217326409411037"><ele>30.666666666666668</ele><time>2026-04-07T14:56:13.999Z</time></trkpt><trkpt lat="45.40971321546083" lon="11.217578947335667"><ele>30.333333333333336</ele><time>2026-04-07T14:56:14.999Z</time></trkpt><trkpt lat="45.409678798132575" lon="11.217819354738948"><ele>30.0</ele><time>2026-04-07T14:56:15.999Z</time></trkpt><trkpt lat="45.409642013614175" lon="11.218065732500705"><ele>29.333333333333336</ele><time>2026-04-07T14:56:16.999Z</time></trkpt><trkpt lat="45.40960501286272" lon="11.218296080528637"><ele>28.666666666666668</ele><time>2026-04-07T14:56:17.999Z</time></trkpt><trkpt lat="45.40957397883025" lon="11.218525335072274"><ele>28.0</ele><time>2026-04-07T14:56:18.999Z</time></trkpt><trkpt lat="45.409543458833994" lon="11.2187332925443"><ele>28.0</ele><time>2026-04-07T14:56:19.999Z</time></trkpt><trkpt lat="45.40951534441424" lon="11.218930307861765"><ele>28.0</ele><time>2026-04-07T14:56:20.999Z</time></trkpt><trkpt lat="45.409487194073144" lon="11.219132653496482"><ele>28.0</ele><time>2026-04-07T14:56:21.999Z</time></trkpt><trkpt lat="45.4094569486909" lon="11.219328938265294"><ele>28.0</ele><time>2026-04-07T14:56:22.999Z</time></trkpt><trkpt lat="45.4094257936491" lon="11.219523208253108"><ele>28.0</ele><time>2026-04-07T14:56:23.999Z</time></trkpt><trkpt lat="45.409398229494954" lon="11.219697634781031"><ele>28.0</ele><time>2026-04-07T14:56:24.999Z</time></trkpt><trkpt lat="45.40937085502763" lon="11.219874791947493"><ele>28.0</ele><time>2026-04-07T14:56:25.999Z</time></trkpt><trkpt lat="45.40934550591237" lon="11.220060628265143"><ele>28.0</ele><time>2026-04-07T14:56:26.999Z</time></trkpt><trkpt lat="45.40931928124103" lon="11.220241497253133"><ele>28.25</ele><time>2026-04-07T14:56:27.999Z</time></trkpt><trkpt lat="45.409291611678114" lon="11.220407275100447"><ele>28.5</ele><time>2026-04-07T14:56:28.999Z</time></trkpt><trkpt lat="45.40926609994885" lon="11.220569743183024"><ele>28.75</ele><time>2026-04-07T14:56:29.999Z</time></trkpt><trkpt lat="45.409241429981364" lon="11.22072728926836"><ele>29.0</ele><time>2026-04-07T14:56:30.999Z</time></trkpt><trkpt lat="45.409219389139274" lon="11.220871498506035"><ele>29.0</ele><time>2026-04-07T14:56:31.999Z</time></trkpt><trkpt lat="45.40919997093268" lon="11.220996352655405"><ele>29.0</ele><time>2026-04-07T14:56:32.999Z</time></trkpt><trkpt lat="45.409182750721065" lon="11.221117242341428"><ele>29.0</ele><time>2026-04-07T14:56:33.999Z</time></trkpt><trkpt lat="45.40916385467667" lon="11.221234713503383"><ele>29.0</ele><time>2026-04-07T14:56:34.999Z</time></trkpt><trkpt lat="45.40913912686366" lon="11.221337880743377"><ele>29.0</ele><time>2026-04-07T14:56:35.999Z</time></trkpt><trkpt lat="45.4090617689792" lon="11.221498892270944"><ele>29.0</ele><time>2026-04-07T14:56:37.999Z</time></trkpt><trkpt lat="45.40899594949347" lon="11.221594933798402"><ele>29.0</ele><time>2026-04-07T14:56:38.999Z</time></trkpt><trkpt lat="45.40891813790659" lon="11.221695443696971"><ele>29.0</ele><time>2026-04-07T14:56:39.999Z</time></trkpt><trkpt lat="45.408841144871644" lon="11.221817589769175"><ele>29.0</ele><time>2026-04-07T14:56:40.999Z</time></trkpt><trkpt lat="45.40879792277394" lon="11.221964839827544"><ele>29.0</ele><time>2026-04-07T14:56:41.999Z</time></trkpt><trkpt lat="45.40878614185687" lon="11.222130351581688"><ele>29.0</ele><time>2026-04-07T14:56:42.999Z</time></trkpt><trkpt lat="45.40881446369345" lon="11.222309521749292"><ele>29.0</ele><time>2026-04-07T14:56:43.999Z</time></trkpt><trkpt lat="45.40886175650688" lon="11.22248644301124"><ele>29.0</ele><time>2026-04-07T14:56:44.999Z</time></trkpt><trkpt lat="45.40890888516478" lon="11.222668090150044"><ele>29.0</ele><time>2026-04-07T14:56:45.999Z</time></trkpt><trkpt lat="45.40892438732045" lon="11.222863011532581"><ele>29.0</ele><time>2026-04-07T14:56:46.999Z</time></trkpt><trkpt lat="45.40890424240855" lon="11.22307076822431"><ele>29.0</ele><time>2026-04-07T14:56:47.999Z</time></trkpt><trkpt lat="45.40886723025849" lon="11.223285678090887"><ele>29.0</ele><time>2026-04-07T14:56:48.999Z</time></trkpt><trkpt lat="45.40882914978381" lon="11.223511937351695"><ele>29.333333333333332</ele><time>2026-04-07T14:56:49.999Z</time></trkpt><trkpt lat="45.40879404012927" lon="11.22373660338172"><ele>29.666666666666664</ele><time>2026-04-07T14:56:50.999Z</time></trkpt><trkpt lat="45.40875867206448" lon="11.223970048507354"><ele>30.0</ele><time>2026-04-07T14:56:51.999Z</time></trkpt><trkpt lat="45.408724866455245" lon="11.224198444780145"><ele>30.0</ele><time>2026-04-07T14:56:52.999Z</time></trkpt><trkpt lat="45.40869403171093" lon="11.22440680853563"><ele>30.0</ele><time>2026-04-07T14:56:53.999Z</time></trkpt><trkpt lat="45.40866475433723" lon="11.224612885042884"><ele>30.0</ele><time>2026-04-07T14:56:54.999Z</time></trkpt><trkpt lat="45.40863159206096" lon="11.22482975261915"><ele>29.666666666666664</ele><time>2026-04-07T14:56:55.999Z</time></trkpt><trkpt lat="45.408594821016734" lon="11.225062490480134"><ele>29.333333333333332</ele><time>2026-04-07T14:56:56.999Z</time></trkpt><trkpt lat="45.40855719699528" lon="11.225301264734158"><ele>29.0</ele><time>2026-04-07T14:56:57.999Z</time></trkpt><trkpt lat="45.40852224243724" lon="11.225543488277172"><ele>29.333333333333332</ele><time>2026-04-07T14:56:58.999Z</time></trkpt><trkpt lat="45.40848769149787" lon="11.225789876423795"><ele>29.666666666666664</ele><time>2026-04-07T14:56:59.999Z</time></trkpt><trkpt lat="45.408451446697974" lon="11.22604171717571"><ele>30.0</ele><time>2026-04-07T14:57:00.999Z</time></trkpt><trkpt lat="45.40841365629017" lon="11.226291987822334"><ele>30.0</ele><time>2026-04-07T14:57:01.999Z</time></trkpt><trkpt lat="45.408373389502714" lon="11.226549644156785"><ele>30.0</ele><time>2026-04-07T14:57:02.999Z</time></trkpt><trkpt lat="45.408334695084704" lon="11.226810208217499"><ele>30.0</ele><time>2026-04-07T14:57:03.999Z</time></trkpt><trkpt lat="45.40829436930576" lon="11.227071674879625"><ele>30.333333333333336</ele><time>2026-04-07T14:57:05Z</time></trkpt><trkpt lat="45.40825531130896" lon="11.227343333608623"><ele>30.666666666666668</ele><time>2026-04-07T14:57:06Z</time></trkpt><trkpt lat="45.40821588864831" lon="11.227607765416954"><ele>31.0</ele><time>2026-04-07T14:57:07Z</time></trkpt><trkpt lat="45.40817671125431" lon="11.22787856188972"><ele>31.333333333333336</ele><time>2026-04-07T14:57:08Z</time></trkpt><trkpt lat="45.40813612700477" lon="11.228156756051332"><ele>31.666666666666664</ele><time>2026-04-07T14:57:09Z</time></trkpt><trkpt lat="45.40809605024209" lon="11.228426850609958"><ele>32.0</ele><time>2026-04-07T14:57:10Z</time></trkpt><trkpt lat="45.40805307536755" lon="11.228704542378702"><ele>31.333333333333332</ele><time>2026-04-07T14:57:11Z</time></trkpt><trkpt lat="45.408011178989476" lon="11.22899174030492"><ele>30.666666666666664</ele><time>2026-04-07T14:57:12Z</time></trkpt><trkpt lat="45.40797105761596" lon="11.229260043051962"><ele>30.0</ele><time>2026-04-07T14:57:13Z</time></trkpt><trkpt lat="45.407931956717334" lon="11.229531224679997"><ele>30.0</ele><time>2026-04-07T14:57:14Z</time></trkpt><trkpt lat="45.40788635756618" lon="11.229800911342021"><ele>30.0</ele><time>2026-04-07T14:57:15Z</time></trkpt><trkpt lat="45.407843114675394" lon="11.230072753775525"><ele>30.0</ele><time>2026-04-07T14:57:16Z</time></trkpt><trkpt lat="45.407802241993444" lon="11.230346989510297"><ele>30.0</ele><time>2026-04-07T14:57:17Z</time></trkpt><trkpt lat="45.407761870599046" lon="11.230623214566263"><ele>30.0</ele><time>2026-04-07T14:57:18Z</time></trkpt><trkpt lat="45.40772114250159" lon="11.230894373204958"><ele>30.0</ele><time>2026-04-07T14:57:19Z</time></trkpt><trkpt lat="45.40768285605962" lon="11.231163156062859"><ele>30.666666666666664</ele><time>2026-04-07T14:57:20Z</time></trkpt><trkpt lat="45.4076405297421" lon="11.231440959664308"><ele>31.333333333333332</ele><time>2026-04-07T14:57:21Z</time></trkpt><trkpt lat="45.40759732086259" lon="11.231720256735391"><ele>32.0</ele><time>2026-04-07T14:57:22Z</time></trkpt><trkpt lat="45.407553433386674" lon="11.232002468754462"><ele>32.0</ele><time>2026-04-07T14:57:23Z</time></trkpt><trkpt lat="45.40751503141413" lon="11.232267671992416"><ele>32.0</ele><time>2026-04-07T14:57:24Z</time></trkpt><trkpt lat="45.40747858253428" lon="11.232528994099491"><ele>32.0</ele><time>2026-04-07T14:57:25Z</time></trkpt><trkpt lat="45.40744057819901" lon="11.232785820102839"><ele>32.0</ele><time>2026-04-07T14:57:26Z</time></trkpt><trkpt lat="45.40740297853981" lon="11.23304477271563"><ele>32.0</ele><time>2026-04-07T14:57:27Z</time></trkpt><trkpt lat="45.40736948235377" lon="11.233290513140778"><ele>32.0</ele><time>2026-04-07T14:57:28Z</time></trkpt><trkpt lat="45.40733568548146" lon="11.233518165459188"><ele>31.6</ele><time>2026-04-07T14:57:29Z</time></trkpt><trkpt lat="45.40730524310421" lon="11.233724345022548"><ele>31.200000000000003</ele><time>2026-04-07T14:57:30Z</time></trkpt><trkpt lat="45.407279238137754" lon="11.233902677975783"><ele>30.8</ele><time>2026-04-07T14:57:31Z</time></trkpt><trkpt lat="45.407259214604856" lon="11.234034732585865"><ele>30.4</ele><time>2026-04-07T14:57:32Z</time></trkpt><trkpt lat="45.40724308406295" lon="11.23414086094757"><ele>30.0</ele><time>2026-04-07T14:57:33Z</time></trkpt><trkpt lat="45.40722091018933" lon="11.234292698257137"><ele>30.0</ele><time>2026-04-07T14:57:35Z</time></trkpt><trkpt lat="45.407203523014815" lon="11.234411740335617"><ele>30.0</ele><time>2026-04-07T14:57:37Z</time></trkpt><trkpt lat="45.4071814371999" lon="11.234571233637821"><ele>30.0</ele><time>2026-04-07T14:57:40Z</time></trkpt><trkpt lat="45.407155266745086" lon="11.234665909675648"><ele>30.0</ele><time>2026-04-07T14:57:41Z</time></trkpt><trkpt lat="45.40713972061828" lon="11.234770505418297"><ele>30.0</ele><time>2026-04-07T14:57:42Z</time></trkpt><trkpt lat="45.40713914191756" lon="11.234879696505581"><ele>30.0</ele><time>2026-04-07T14:57:43Z</time></trkpt><trkpt lat="45.40712141927032" lon="11.234985698333364"><ele>30.0</ele><time>2026-04-07T14:57:44Z</time></trkpt><trkpt lat="45.40710572631191" lon="11.235090421841674"><ele>30.0</ele><time>2026-04-07T14:57:45Z</time></trkpt><trkpt lat="45.40708967260027" lon="11.235189763692059"><ele>30.0</ele><time>2026-04-07T14:57:46Z</time></trkpt><trkpt lat="45.40707011218651" lon="11.23531213068907"><ele>30.0</ele><time>2026-04-07T14:57:47Z</time></trkpt><trkpt lat="45.40705133302448" lon="11.235436729641286"><ele>30.0</ele><time>2026-04-07T14:57:48Z</time></trkpt><trkpt lat="45.407031936582904" lon="11.23558925898501"><ele>30.0</ele><time>2026-04-07T14:57:49Z</time></trkpt><trkpt lat="45.40701038173084" lon="11.235766499170776"><ele>29.666666666666664</ele><time>2026-04-07T14:57:50Z</time></trkpt><trkpt lat="45.40698746227137" lon="11.235996668823827"><ele>29.333333333333332</ele><time>2026-04-07T14:57:51Z</time></trkpt><trkpt lat="45.40695270375049" lon="11.236222047226347"><ele>29.0</ele><time>2026-04-07T14:57:52Z</time></trkpt><trkpt lat="45.40691657313457" lon="11.236429039585182"><ele>28.75</ele><time>2026-04-07T14:57:53Z</time></trkpt><trkpt lat="45.406884633617494" lon="11.236621411749814"><ele>28.5</ele><time>2026-04-07T14:57:54Z</time></trkpt><trkpt lat="45.40685516463655" lon="11.23679592827375"><ele>28.25</ele><time>2026-04-07T14:57:55Z</time></trkpt><trkpt lat="45.40683038220044" lon="11.236967305147147"><ele>28.0</ele><time>2026-04-07T14:57:56Z</time></trkpt><trkpt lat="45.40680339779863" lon="11.237139807911964"><ele>28.25</ele><time>2026-04-07T14:57:57Z</time></trkpt><trkpt lat="45.40677577385038" lon="11.237302382891908"><ele>28.5</ele><time>2026-04-07T14:57:58Z</time></trkpt><trkpt lat="45.40675078911716" lon="11.237461399800672"><ele>28.75</ele><time>2026-04-07T14:57:59Z</time></trkpt><trkpt lat="45.40672849191233" lon="11.237625584125325"><ele>29.0</ele><time>2026-04-07T14:58:00Z</time></trkpt><trkpt lat="45.406687488182115" lon="11.237794676411797"><ele>29.0</ele><time>2026-04-07T14:58:00.999Z</time></trkpt><trkpt lat="45.40667942688124" lon="11.237972245811385"><ele>29.0</ele><time>2026-04-07T14:58:01.999Z</time></trkpt><trkpt lat="45.40665600105046" lon="11.238130788306318"><ele>29.0</ele><time>2026-04-07T14:58:02.999Z</time></trkpt><trkpt lat="45.406632891974105" lon="11.238291598344093"><ele>29.0</ele><time>2026-04-07T14:58:03.999Z</time></trkpt><trkpt lat="45.406611054199956" lon="11.238432605278765"><ele>29.0</ele><time>2026-04-07T14:58:04.999Z</time></trkpt><trkpt lat="45.40659311809265" lon="11.238574563904148"><ele>29.0</ele><time>2026-04-07T14:58:05.999Z</time></trkpt><trkpt lat="45.40656955941984" lon="11.238721882866903"><ele>29.0</ele><time>2026-04-07T14:58:06.999Z</time></trkpt><trkpt lat="45.406547931353835" lon="11.238858690502326"><ele>29.0</ele><time>2026-04-07T14:58:07.999Z</time></trkpt><trkpt lat="45.40652962198661" lon="11.238996986737407"><ele>29.0</ele><time>2026-04-07T14:58:08.999Z</time></trkpt><trkpt lat="45.40651539341083" lon="11.23912156276949"><ele>29.0</ele><time>2026-04-07T14:58:09.999Z</time></trkpt><trkpt lat="45.4064995621126" lon="11.23924742908315"><ele>29.0</ele><time>2026-04-07T14:58:10.999Z</time></trkpt><trkpt lat="45.40646693487831" lon="11.239370418113321"><ele>29.0</ele><time>2026-04-07T14:58:11.999Z</time></trkpt><trkpt lat="45.406424390918374" lon="11.239484759437413"><ele>29.0</ele><time>2026-04-07T14:58:12.999Z</time></trkpt><trkpt lat="45.406369808319944" lon="11.239608296285732"><ele>29.0</ele><time>2026-04-07T14:58:13.999Z</time></trkpt><trkpt lat="45.40633433422444" lon="11.239767131008348"><ele>29.2</ele><time>2026-04-07T14:58:14.999Z</time></trkpt><trkpt lat="45.40634470602466" lon="11.239920133951495"><ele>29.4</ele><time>2026-04-07T14:58:15.999Z</time></trkpt><trkpt lat="45.40635271215224" lon="11.240076330329906"><ele>29.6</ele><time>2026-04-07T14:58:16.999Z</time></trkpt><trkpt lat="45.406341934764505" lon="11.240226029375902"><ele>29.8</ele><time>2026-04-07T14:58:17.999Z</time></trkpt><trkpt lat="45.40632041052918" lon="11.24035808958822"><ele>30.0</ele><time>2026-04-07T14:58:18.999Z</time></trkpt><trkpt lat="45.40630230588468" lon="11.24047001826659"><ele>30.0</ele><time>2026-04-07T14:58:19.999Z</time></trkpt><trkpt lat="45.40628933016089" lon="11.240564890270143"><ele>30.0</ele><time>2026-04-07T14:58:20.999Z</time></trkpt><trkpt lat="45.406253455225695" lon="11.240800371119784"><ele>30.0</ele><time>2026-04-07T14:58:22.999Z</time></trkpt><trkpt lat="45.40621861513627" lon="11.241014691267198"><ele>30.0</ele><time>2026-04-07T14:58:23.999Z</time></trkpt><trkpt lat="45.40617362778598" lon="11.241278144662123"><ele>30.0</ele><time>2026-04-07T14:58:24.999Z</time></trkpt><trkpt lat="45.40612591678749" lon="11.241577194609397"><ele>30.0</ele><time>2026-04-07T14:58:25.999Z</time></trkpt><trkpt lat="45.406081594428905" lon="11.241895903219442"><ele>30.0</ele><time>2026-04-07T14:58:26.999Z</time></trkpt><trkpt lat="45.40604017659784" lon="11.242201125048215"><ele>29.666666666666664</ele><time>2026-04-07T14:58:27.999Z</time></trkpt><trkpt lat="45.406000567500925" lon="11.242469198720608"><ele>29.333333333333332</ele><time>2026-04-07T14:58:28.999Z</time></trkpt><trkpt lat="45.40596283131391" lon="11.242714562437051"><ele>29.0</ele><time>2026-04-07T14:58:29.999Z</time></trkpt><trkpt lat="45.405928031244905" lon="11.242951615774414"><ele>29.0</ele><time>2026-04-07T14:58:30.999Z</time></trkpt><trkpt lat="45.40589488489883" lon="11.243176107048798"><ele>29.0</ele><time>2026-04-07T14:58:31.999Z</time></trkpt><trkpt lat="45.405862235454286" lon="11.243392585773854"><ele>29.0</ele><time>2026-04-07T14:58:32.999Z</time></trkpt><trkpt lat="45.40582832221433" lon="11.243612794158969"><ele>29.0</ele><time>2026-04-07T14:58:33.999Z</time></trkpt><trkpt lat="45.405794453720915" lon="11.243836667303722"><ele>29.0</ele><time>2026-04-07T14:58:34.999Z</time></trkpt><trkpt lat="45.405759276848435" lon="11.244060936647104"><ele>29.0</ele><time>2026-04-07T14:58:35.999Z</time></trkpt><trkpt lat="45.4057284086878" lon="11.244269902246872"><ele>29.25</ele><time>2026-04-07T14:58:36.999Z</time></trkpt><trkpt lat="45.405700538608656" lon="11.244468241795792"><ele>29.5</ele><time>2026-04-07T14:58:37.999Z</time></trkpt><trkpt lat="45.405674449347025" lon="11.24465379648669"><ele>29.75</ele><time>2026-04-07T14:58:38.999Z</time></trkpt><trkpt lat="45.40564824528696" lon="11.244842831963485"><ele>30.0</ele><time>2026-04-07T14:58:39.999Z</time></trkpt><trkpt lat="45.40561916132607" lon="11.245048650163424"><ele>30.0</ele><time>2026-04-07T14:58:40.999Z</time></trkpt><trkpt lat="45.40558744032367" lon="11.245255837436869"><ele>30.0</ele><time>2026-04-07T14:58:41.999Z</time></trkpt><trkpt lat="45.40555806453591" lon="11.245449636701144"><ele>30.0</ele><time>2026-04-07T14:58:42.999Z</time></trkpt><trkpt lat="45.40553003361281" lon="11.245633470632932"><ele>30.0</ele><time>2026-04-07T14:58:43.999Z</time></trkpt><trkpt lat="45.40550550151691" lon="11.245803192957966"><ele>30.0</ele><time>2026-04-07T14:58:44.999Z</time></trkpt><trkpt lat="45.40548152675129" lon="11.245963125291986"><ele>30.0</ele><time>2026-04-07T14:58:45.999Z</time></trkpt><trkpt lat="45.40545761090186" lon="11.246112154017272"><ele>30.0</ele><time>2026-04-07T14:58:46.999Z</time></trkpt><trkpt lat="45.40543503643379" lon="11.246255739970167"><ele>30.0</ele><time>2026-04-07T14:58:47.999Z</time></trkpt><trkpt lat="45.405415681154516" lon="11.246387127378128"><ele>30.0</ele><time>2026-04-07T14:58:48.999Z</time></trkpt><trkpt lat="45.405398461002925" lon="11.24649809441014"><ele>30.0</ele><time>2026-04-07T14:58:49.999Z</time></trkpt><trkpt lat="45.40538142420558" lon="11.246589877414147"><ele>30.0</ele><time>2026-04-07T14:58:50.999Z</time></trkpt><trkpt lat="45.40535892533018" lon="11.246727311775398"><ele>30.0</ele><time>2026-04-07T14:58:52.999Z</time></trkpt><trkpt lat="45.405338890695695" lon="11.24685106867548"><ele>30.0</ele><time>2026-04-07T14:58:55.999Z</time></trkpt><trkpt lat="45.40531653349056" lon="11.247007050386038"><ele>30.0</ele><time>2026-04-07T14:58:57.999Z</time></trkpt><trkpt lat="45.40530393160084" lon="11.247110297865287"><ele>30.0</ele><time>2026-04-07T14:58:58.999Z</time></trkpt><trkpt lat="45.405292330208354" lon="11.247209164612048"><ele>29.833333333333332</ele><time>2026-04-07T14:58:59.999Z</time></trkpt><trkpt lat="45.40527888873738" lon="11.247309570982825"><ele>29.666666666666664</ele><time>2026-04-07T14:59:00.999Z</time></trkpt><trkpt lat="45.40526317534676" lon="11.247419059647623"><ele>29.5</ele><time>2026-04-07T14:59:01.999Z</time></trkpt><trkpt lat="45.40524633649172" lon="11.24753705866638"><ele>29.333333333333332</ele><time>2026-04-07T14:59:02.999Z</time></trkpt><trkpt lat="45.40522678511968" lon="11.247659032132383"><ele>29.166666666666664</ele><time>2026-04-07T14:59:03.999Z</time></trkpt><trkpt lat="45.405208547694585" lon="11.247780507618833"><ele>29.0</ele><time>2026-04-07T14:59:04.999Z</time></trkpt><trkpt lat="45.405189931521264" lon="11.247896590888228"><ele>29.0</ele><time>2026-04-07T14:59:05.999Z</time></trkpt><trkpt lat="45.4051715052178" lon="11.248016472605025"><ele>29.0</ele><time>2026-04-07T14:59:06.999Z</time></trkpt><trkpt lat="45.405152079283596" lon="11.2481389553783"><ele>29.0</ele><time>2026-04-07T14:59:07.999Z</time></trkpt><trkpt lat="45.405131812147665" lon="11.248257892645979"><ele>29.0</ele><time>2026-04-07T14:59:08.999Z</time></trkpt><trkpt lat="45.405110508111306" lon="11.248384014120033"><ele>29.0</ele><time>2026-04-07T14:59:09.999Z</time></trkpt><trkpt lat="45.40508720383654" lon="11.2485301817183"><ele>29.0</ele><time>2026-04-07T14:59:11Z</time></trkpt><trkpt lat="45.40506252311538" lon="11.248693636144955"><ele>29.0</ele><time>2026-04-07T14:59:12Z</time></trkpt><trkpt lat="45.4050370310546" lon="11.248843038377714"><ele>29.0</ele><time>2026-04-07T14:59:13Z</time></trkpt><trkpt lat="45.40501240136908" lon="11.248985085827073"><ele>29.0</ele><time>2026-04-07T14:59:14Z</time></trkpt><trkpt lat="45.404972161966526" lon="11.249219465041946"><ele>29.0</ele><time>2026-04-07T14:59:15Z</time></trkpt><trkpt lat="45.40494321675988" lon="11.249398142304793"><ele>29.0</ele><time>2026-04-07T14:59:16Z</time></trkpt><trkpt lat="45.404914388839" lon="11.249580336549963"><ele>29.0</ele><time>2026-04-07T14:59:17Z</time></trkpt><trkpt lat="45.4048932357427" lon="11.249777711402505"><ele>29.0</ele><time>2026-04-07T14:59:18Z</time></trkpt><trkpt lat="45.40487182756651" lon="11.249980898258245"><ele>28.666666666666664</ele><time>2026-04-07T14:59:19Z</time></trkpt><trkpt lat="45.404848923266904" lon="11.250194309518069"><ele>28.333333333333336</ele><time>2026-04-07T14:59:20Z</time></trkpt><trkpt lat="45.404822300399175" lon="11.250419584129903"><ele>28.0</ele><time>2026-04-07T14:59:21Z</time></trkpt><trkpt lat="45.40479484520569" lon="11.250663270071325"><ele>28.0</ele><time>2026-04-07T14:59:22Z</time></trkpt><trkpt lat="45.40476861817894" lon="11.250919127877244"><ele>28.0</ele><time>2026-04-07T14:59:23Z</time></trkpt><trkpt lat="45.404737348457445" lon="11.251182598380305"><ele>28.0</ele><time>2026-04-07T14:59:24Z</time></trkpt><trkpt lat="45.40471024314448" lon="11.25145686189787"><ele>27.666666666666668</ele><time>2026-04-07T14:59:25Z</time></trkpt><trkpt lat="45.404682195255205" lon="11.251738872232778"><ele>27.333333333333336</ele><time>2026-04-07T14:59:26Z</time></trkpt><trkpt lat="45.404654135822454" lon="11.2520290251765"><ele>27.0</ele><time>2026-04-07T14:59:27Z</time></trkpt><trkpt lat="45.40462572431683" lon="11.252322402095068"><ele>26.666666666666664</ele><time>2026-04-07T14:59:28Z</time></trkpt><trkpt lat="45.40459205850555" lon="11.25261843915324"><ele>26.333333333333332</ele><time>2026-04-07T14:59:29Z</time></trkpt><trkpt lat="45.404561734746515" lon="11.25291729036365"><ele>26.0</ele><time>2026-04-07T14:59:30Z</time></trkpt><trkpt lat="45.40453086438867" lon="11.253209487729526"><ele>25.666666666666664</ele><time>2026-04-07T14:59:31Z</time></trkpt><trkpt lat="45.404500562965225" lon="11.253487103073775"><ele>25.333333333333336</ele><time>2026-04-07T14:59:32Z</time></trkpt><trkpt lat="45.40447293368564" lon="11.25373367890016"><ele>25.0</ele><time>2026-04-07T14:59:33Z</time></trkpt><trkpt lat="45.404446414048415" lon="11.25396555219368"><ele>24.333333333333336</ele><time>2026-04-07T14:59:34Z</time></trkpt><trkpt lat="45.40442480205201" lon="11.25418968827293"><ele>23.666666666666668</ele><time>2026-04-07T14:59:35Z</time></trkpt><trkpt lat="45.40439487442588" lon="11.254410047834444"><ele>23.0</ele><time>2026-04-07T14:59:36Z</time></trkpt><trkpt lat="45.40436928875266" lon="11.254617751597559"><ele>22.666666666666668</ele><time>2026-04-07T14:59:37Z</time></trkpt><trkpt lat="45.404341911770445" lon="11.25487304423838"><ele>22.333333333333332</ele><time>2026-04-07T14:59:38Z</time></trkpt><trkpt lat="45.40431305573251" lon="11.255125270997377"><ele>22.0</ele><time>2026-04-07T14:59:39Z</time></trkpt><trkpt lat="45.40428257690698" lon="11.255378221661951"><ele>23.0</ele><time>2026-04-07T14:59:40Z</time></trkpt><trkpt lat="45.40425176926123" lon="11.255633572487682"><ele>24.0</ele><time>2026-04-07T14:59:41Z</time></trkpt><trkpt lat="45.404228828820656" lon="11.255861087287437"><ele>25.0</ele><time>2026-04-07T14:59:42Z</time></trkpt><trkpt lat="45.40420489457799" lon="11.256086697630007"><ele>25.0</ele><time>2026-04-07T14:59:43Z</time></trkpt><trkpt lat="45.404182020045695" lon="11.256300688799229"><ele>25.0</ele><time>2026-04-07T14:59:44Z</time></trkpt><trkpt lat="45.404154503555134" lon="11.256520053321092"><ele>25.0</ele><time>2026-04-07T14:59:45Z</time></trkpt><trkpt lat="45.404128271054184" lon="11.25675777141171"><ele>25.0</ele><time>2026-04-07T14:59:46Z</time></trkpt><trkpt lat="45.40409850325918" lon="11.256996884573333"><ele>25.0</ele><time>2026-04-07T14:59:47Z</time></trkpt><trkpt lat="45.40407059030771" lon="11.25723758279103"><ele>25.0</ele><time>2026-04-07T14:59:48Z</time></trkpt><trkpt lat="45.40404163111756" lon="11.257475463761978"><ele>25.0</ele><time>2026-04-07T14:59:49Z</time></trkpt><trkpt lat="45.40401079379795" lon="11.257696806646722"><ele>25.0</ele><time>2026-04-07T14:59:50Z</time></trkpt><trkpt lat="45.403972988526945" lon="11.257918697338388"><ele>25.0</ele><time>2026-04-07T14:59:51Z</time></trkpt><trkpt lat="45.40393168829051" lon="11.258145060457462"><ele>25.333333333333336</ele><time>2026-04-07T14:59:52Z</time></trkpt><trkpt lat="45.40388675400895" lon="11.258361608245327"><ele>25.666666666666664</ele><time>2026-04-07T14:59:53Z</time></trkpt><trkpt lat="45.40383832285777" lon="11.258568530191033"><ele>26.0</ele><time>2026-04-07T14:59:54Z</time></trkpt><trkpt lat="45.40377465369681" lon="11.258766378198887"><ele>26.25</ele><time>2026-04-07T14:59:55Z</time></trkpt><trkpt lat="45.403726968047316" lon="11.258965586627651"><ele>26.5</ele><time>2026-04-07T14:59:56Z</time></trkpt><trkpt lat="45.40369476792132" lon="11.259167464847652"><ele>26.75</ele><time>2026-04-07T14:59:57Z</time></trkpt><trkpt lat="45.4036463257632" lon="11.259365060792211"><ele>27.0</ele><time>2026-04-07T14:59:58Z</time></trkpt><trkpt lat="45.4036028361084" lon="11.259570243040894"><ele>27.666666666666664</ele><time>2026-04-07T14:59:59Z</time></trkpt><trkpt lat="45.403566699331925" lon="11.259787051202405"><ele>28.333333333333332</ele><time>2026-04-07T15:00:00Z</time></trkpt><trkpt lat="45.403524243787665" lon="11.259994046140646"><ele>29.0</ele><time>2026-04-07T15:00:01Z</time></trkpt><trkpt lat="45.40348670249471" lon="11.260189146590099"><ele>29.0</ele><time>2026-04-07T15:00:02Z</time></trkpt><trkpt lat="45.403447865034714" lon="11.26038028469748"><ele>29.0</ele><time>2026-04-07T15:00:02.999Z</time></trkpt><trkpt lat="45.403410775576525" lon="11.260557265025904"><ele>29.0</ele><time>2026-04-07T15:00:03.999Z</time></trkpt><trkpt lat="45.40337814799492" lon="11.260729097198524"><ele>29.0</ele><time>2026-04-07T15:00:04.999Z</time></trkpt><trkpt lat="45.40334663506271" lon="11.260893232466708"><ele>29.6</ele><time>2026-04-07T15:00:05.999Z</time></trkpt><trkpt lat="45.403314390321995" lon="11.261050898924134"><ele>30.2</ele><time>2026-04-07T15:00:06.999Z</time></trkpt><trkpt lat="45.403290035456926" lon="11.261189510308792"><ele>30.800000000000004</ele><time>2026-04-07T15:00:07.999Z</time></trkpt><trkpt lat="45.403270682187625" lon="11.26130357898529"><ele>31.400000000000002</ele><time>2026-04-07T15:00:08.999Z</time></trkpt><trkpt lat="45.40325469497462" lon="11.261434194957006"><ele>32.0</ele><time>2026-04-07T15:00:09.999Z</time></trkpt><trkpt lat="45.4032423995243" lon="11.26158144977541"><ele>31.999999999999996</ele><time>2026-04-07T15:00:10.999Z</time></trkpt><trkpt lat="45.40323563444322" lon="11.261724233142564"><ele>32.0</ele><time>2026-04-07T15:00:11.999Z</time></trkpt><trkpt lat="45.40323289716397" lon="11.261846944967658"><ele>32.0</ele><time>2026-04-07T15:00:12.999Z</time></trkpt><trkpt lat="45.403230819825644" lon="11.26194262995753"><ele>32.0</ele><time>2026-04-07T15:00:13.999Z</time></trkpt><trkpt lat="45.403218404120686" lon="11.262047494975764"><ele>31.999999999999996</ele><time>2026-04-07T15:00:15.999Z</time></trkpt><trkpt lat="45.40318235031686" lon="11.262179895853953"><ele>32.0</ele><time>2026-04-07T15:00:17.999Z</time></trkpt><trkpt lat="45.40314911136373" lon="11.262342311114436"><ele>31.999999999999996</ele><time>2026-04-07T15:00:19.999Z</time></trkpt><trkpt lat="45.40314949443006" lon="11.26243793928649"><ele>32.0</ele><time>2026-04-07T15:00:20.999Z</time></trkpt><trkpt lat="45.403184630529424" lon="11.262519408590924"><ele>32.0</ele><time>2026-04-07T15:00:21.999Z</time></trkpt><trkpt lat="45.403299778806165" lon="11.262552549411351"><ele>32.0</ele><time>2026-04-07T15:00:23.999Z</time></trkpt><trkpt lat="45.403355256112405" lon="11.262484722413033"><ele>31.999999999999996</ele><time>2026-04-07T15:00:24.999Z</time></trkpt><trkpt lat="45.40337634416421" lon="11.262376671060418"><ele>32.0</ele><time>2026-04-07T15:00:25.999Z</time></trkpt><trkpt lat="45.403368382260666" lon="11.262244073541664"><ele>32.2</ele><time>2026-04-07T15:00:26.999Z</time></trkpt><trkpt lat="45.40334071647132" lon="11.262100516763812"><ele>32.400000000000006</ele><time>2026-04-07T15:00:27.999Z</time></trkpt><trkpt lat="45.4033103746149" lon="11.261959330272232"><ele>32.599999999999994</ele><time>2026-04-07T15:00:28.999Z</time></trkpt><trkpt lat="45.40329303126716" lon="11.261824332834202"><ele>32.8</ele><time>2026-04-07T15:00:29.999Z</time></trkpt><trkpt lat="45.403286741046465" lon="11.261686090159014"><ele>33.0</ele><time>2026-04-07T15:00:30.999Z</time></trkpt><trkpt lat="45.40326342811442" lon="11.261564619118928"><ele>32.8</ele><time>2026-04-07T15:00:31.999Z</time></trkpt><trkpt lat="45.403297391399455" lon="11.26141045107419"><ele>32.599999999999994</ele><time>2026-04-07T15:00:32.999Z</time></trkpt><trkpt lat="45.403315298262285" lon="11.261275825110603"><ele>32.400000000000006</ele><time>2026-04-07T15:00:33.999Z</time></trkpt><trkpt lat="45.403334428942486" lon="11.261149236181302"><ele>32.2</ele><time>2026-04-07T15:00:34.999Z</time></trkpt><trkpt lat="45.40336215824332" lon="11.261029799590844"><ele>32.0</ele><time>2026-04-07T15:00:35.999Z</time></trkpt><trkpt lat="45.403389845167325" lon="11.26089623424264"><ele>32.0</ele><time>2026-04-07T15:00:36.999Z</time></trkpt><trkpt lat="45.403417748072165" lon="11.260750299052111"><ele>32.0</ele><time>2026-04-07T15:00:37.999Z</time></trkpt><trkpt lat="45.403446888165796" lon="11.260604177710942"><ele>32.0</ele><time>2026-04-07T15:00:38.999Z</time></trkpt><trkpt lat="45.40347525315403" lon="11.260449064725739"><ele>32.0</ele><time>2026-04-07T15:00:39.999Z</time></trkpt><trkpt lat="45.40350182848761" lon="11.260308525506497"><ele>32.0</ele><time>2026-04-07T15:00:40.999Z</time></trkpt><trkpt lat="45.40352985139471" lon="11.260169041190764"><ele>31.25</ele><time>2026-04-07T15:00:41.999Z</time></trkpt><trkpt lat="45.403556702103124" lon="11.260016673934823"><ele>30.5</ele><time>2026-04-07T15:00:42.999Z</time></trkpt><trkpt lat="45.403584385626615" lon="11.259851134083792"><ele>29.75</ele><time>2026-04-07T15:00:43.999Z</time></trkpt><trkpt lat="45.403615902039355" lon="11.259678911569269"><ele>29.0</ele><time>2026-04-07T15:00:44.999Z</time></trkpt><trkpt lat="45.40364915345025" lon="11.259516497072612"><ele>28.5</ele><time>2026-04-07T15:00:45.999Z</time></trkpt><trkpt lat="45.403682428636245" lon="11.259357142578363"><ele>28.0</ele><time>2026-04-07T15:00:46.999Z</time></trkpt><trkpt lat="45.40371795667661" lon="11.25919981319088"><ele>27.5</ele><time>2026-04-07T15:00:47.999Z</time></trkpt><trkpt lat="45.40375690452899" lon="11.259046655985912"><ele>27.0</ele><time>2026-04-07T15:00:48.999Z</time></trkpt><trkpt lat="45.40380538487939" lon="11.25887189500585"><ele>27.0</ele><time>2026-04-07T15:00:49.999Z</time></trkpt><trkpt lat="45.40385479986246" lon="11.258662625626904"><ele>27.0</ele><time>2026-04-07T15:00:50.999Z</time></trkpt><trkpt lat="45.403908028530545" lon="11.258440599910562"><ele>27.0</ele><time>2026-04-07T15:00:51.999Z</time></trkpt><trkpt lat="45.40396018955116" lon="11.258206520791582"><ele>26.333333333333336</ele><time>2026-04-07T15:00:52.999Z</time></trkpt><trkpt lat="45.404012803611984" lon="11.257974969943337"><ele>25.666666666666668</ele><time>2026-04-07T15:00:53.999Z</time></trkpt><trkpt lat="45.404049367081946" lon="11.257728683468603"><ele>25.0</ele><time>2026-04-07T15:00:54.999Z</time></trkpt><trkpt lat="45.40411874214671" lon="11.257503441288991"><ele>25.666666666666668</ele><time>2026-04-07T15:00:55.999Z</time></trkpt><trkpt lat="45.40416584341193" lon="11.257276675219773"><ele>26.333333333333336</ele><time>2026-04-07T15:00:56.999Z</time></trkpt><trkpt lat="45.40420774725873" lon="11.257032452554267"><ele>27.0</ele><time>2026-04-07T15:00:57.999Z</time></trkpt><trkpt lat="45.404233722686925" lon="11.256786261774048"><ele>27.0</ele><time>2026-04-07T15:00:58.999Z</time></trkpt><trkpt lat="45.40425462833548" lon="11.256552331144231"><ele>27.0</ele><time>2026-04-07T15:00:59.999Z</time></trkpt><trkpt lat="45.40428080058885" lon="11.256328202811398"><ele>27.0</ele><time>2026-04-07T15:01:00.999Z</time></trkpt><trkpt lat="45.404303756600875" lon="11.256118429833956"><ele>26.6</ele><time>2026-04-07T15:01:01.999Z</time></trkpt><trkpt lat="45.40432780397182" lon="11.255937540538786"><ele>26.200000000000003</ele><time>2026-04-07T15:01:02.999Z</time></trkpt><trkpt lat="45.404345049287095" lon="11.255791880504795"><ele>25.8</ele><time>2026-04-07T15:01:03.999Z</time></trkpt><trkpt lat="45.40436150418148" lon="11.25568588639629"><ele>25.4</ele><time>2026-04-07T15:01:04.999Z</time></trkpt><trkpt lat="45.40438878837808" lon="11.255602049706734"><ele>25.0</ele><time>2026-04-07T15:01:05.999Z</time></trkpt><trkpt lat="45.404444433804315" lon="11.25551064974329"><ele>24.75</ele><time>2026-04-07T15:01:11.999Z</time></trkpt><trkpt lat="45.40455295485683" lon="11.255438230450697"><ele>24.5</ele><time>2026-04-07T15:01:13.999Z</time></trkpt><trkpt lat="45.40463835242827" lon="11.255362196648388"><ele>24.25</ele><time>2026-04-07T15:01:14.999Z</time></trkpt><trkpt lat="45.40475738050828" lon="11.255393601095461"><ele>24.0</ele><time>2026-04-07T15:01:15.999Z</time></trkpt><trkpt lat="45.404877206119004" lon="11.255439175452901"><ele>24.0</ele><time>2026-04-07T15:01:17Z</time></trkpt><trkpt lat="45.405009359883024" lon="11.255551440651264"><ele>24.0</ele><time>2026-04-07T15:01:18Z</time></trkpt><trkpt lat="45.40514268655386" lon="11.25571224738791"><ele>24.0</ele><time>2026-04-07T15:01:19Z</time></trkpt><trkpt lat="45.405281180242746" lon="11.255867547138324"><ele>24.0</ele><time>2026-04-07T15:01:20Z</time></trkpt><trkpt lat="45.40544512931761" lon="11.256023050172503"><ele>24.0</ele><time>2026-04-07T15:01:21Z</time></trkpt><trkpt lat="45.40558246744756" lon="11.256153649229407"><ele>24.0</ele><time>2026-04-07T15:01:22Z</time></trkpt><trkpt lat="45.405711642441204" lon="11.256273231890411"><ele>24.0</ele><time>2026-04-07T15:01:23Z</time></trkpt><trkpt lat="45.405832191067155" lon="11.25638645932881"><ele>24.0</ele><time>2026-04-07T15:01:24Z</time></trkpt><trkpt lat="45.405946618827265" lon="11.25649465717028"><ele>24.0</ele><time>2026-04-07T15:01:25Z</time></trkpt><trkpt lat="45.40604998468484" lon="11.25659260820289"><ele>24.0</ele><time>2026-04-07T15:01:26Z</time></trkpt><trkpt lat="45.406143690211664" lon="11.256688277796885"><ele>24.5</ele><time>2026-04-07T15:01:27Z</time></trkpt><trkpt lat="45.406234936673364" lon="11.2567829410618"><ele>25.0</ele><time>2026-04-07T15:01:28Z</time></trkpt><trkpt lat="45.40633648437127" lon="11.256883952004776"><ele>25.5</ele><time>2026-04-07T15:01:29Z</time></trkpt><trkpt lat="45.40646685900597" lon="11.256989951913631"><ele>26.0</ele><time>2026-04-07T15:01:30Z</time></trkpt><trkpt lat="45.40662967898115" lon="11.257108223255614"><ele>26.0</ele><time>2026-04-07T15:01:31Z</time></trkpt><trkpt lat="45.406808787008565" lon="11.25725827729839"><ele>26.0</ele><time>2026-04-07T15:01:32Z</time></trkpt><trkpt lat="45.40699387463476" lon="11.257377106252967"><ele>26.0</ele><time>2026-04-07T15:01:33Z</time></trkpt><trkpt lat="45.407163574634254" lon="11.257462189354337"><ele>26.25</ele><time>2026-04-07T15:01:34Z</time></trkpt><trkpt lat="45.407301670614345" lon="11.257557002686436"><ele>26.5</ele><time>2026-04-07T15:01:35Z</time></trkpt><trkpt lat="45.4074201944041" lon="11.257635128582072"><ele>26.75</ele><time>2026-04-07T15:01:36Z</time></trkpt><trkpt lat="45.40752496442371" lon="11.257699426871792"><ele>27.0</ele><time>2026-04-07T15:01:37Z</time></trkpt><trkpt lat="45.407636464816235" lon="11.257767503747981"><ele>27.0</ele><time>2026-04-07T15:01:38Z</time></trkpt><trkpt lat="45.40774534535078" lon="11.257829558983211"><ele>27.000000000000004</ele><time>2026-04-07T15:01:39Z</time></trkpt><trkpt lat="45.407840306956075" lon="11.257882499463133"><ele>27.000000000000004</ele><time>2026-04-07T15:01:40Z</time></trkpt><trkpt lat="45.407925217936004" lon="11.257920797402875"><ele>27.0</ele><time>2026-04-07T15:01:41Z</time></trkpt><trkpt lat="45.40801234081645" lon="11.257960600685793"><ele>27.0</ele><time>2026-04-07T15:01:42Z</time></trkpt><trkpt lat="45.40810740667645" lon="11.257994034762334"><ele>27.6</ele><time>2026-04-07T15:01:43Z</time></trkpt><trkpt lat="45.40820533809005" lon="11.258019636449998"><ele>28.200000000000003</ele><time>2026-04-07T15:01:44Z</time></trkpt><trkpt lat="45.408306041697664" lon="11.258043883775178"><ele>28.8</ele><time>2026-04-07T15:01:45Z</time></trkpt><trkpt lat="45.40840261697805" lon="11.258061609401071"><ele>29.4</ele><time>2026-04-07T15:01:46Z</time></trkpt><trkpt lat="45.4084957090613" lon="11.258074371059285"><ele>30.0</ele><time>2026-04-07T15:01:47Z</time></trkpt><trkpt lat="45.4085830664396" lon="11.258084438158711"><ele>30.0</ele><time>2026-04-07T15:01:48Z</time></trkpt><trkpt lat="45.40866213273011" lon="11.258089356533244"><ele>30.0</ele><time>2026-04-07T15:01:49Z</time></trkpt><trkpt lat="45.40873418411853" lon="11.258092743974037"><ele>30.0</ele><time>2026-04-07T15:01:50Z</time></trkpt><trkpt lat="45.40880219459918" lon="11.258097393117318"><ele>30.0</ele><time>2026-04-07T15:01:51Z</time></trkpt><trkpt lat="45.40886893126634" lon="11.25810288505968"><ele>30.0</ele><time>2026-04-07T15:01:52Z</time></trkpt><trkpt lat="45.40896860673102" lon="11.258115961423902"><ele>30.0</ele><time>2026-04-07T15:01:54Z</time></trkpt><trkpt lat="45.40904252092934" lon="11.25813314942425"><ele>31.5</ele><time>2026-04-07T15:01:56Z</time></trkpt><trkpt lat="45.409171917736145" lon="11.258153823009541"><ele>33.0</ele><time>2026-04-07T15:01:58Z</time></trkpt><trkpt lat="45.40910200503217" lon="11.258394146722155"><ele>34.5</ele><time>2026-04-07T15:02:00Z</time></trkpt><trkpt lat="45.409041727087654" lon="11.258469858637406"><ele>36.0</ele><time>2026-04-07T15:02:01Z</time></trkpt><trkpt lat="45.4090076993638" lon="11.258546211958604"><ele>36.0</ele><time>2026-04-07T15:02:02Z</time></trkpt><trkpt lat="45.40898372082377" lon="11.258652073914941"><ele>36.0</ele><time>2026-04-07T15:02:03Z</time></trkpt><trkpt lat="45.40896872570883" lon="11.258780954361876"><ele>36.0</ele><time>2026-04-07T15:02:04Z</time></trkpt><trkpt lat="45.408961853749815" lon="11.258938060543532"><ele>36.0</ele><time>2026-04-07T15:02:05Z</time></trkpt><trkpt lat="45.40896376465104" lon="11.25909412540168"><ele>36.0</ele><time>2026-04-07T15:02:06Z</time></trkpt><trkpt lat="45.40896683951378" lon="11.25928112276921"><ele>36.0</ele><time>2026-04-07T15:02:07Z</time></trkpt><trkpt lat="45.408966494082485" lon="11.259515756572382"><ele>36.0</ele><time>2026-04-07T15:02:08Z</time></trkpt><trkpt lat="45.40894724731116" lon="11.259774255768619"><ele>36.0</ele><time>2026-04-07T15:02:08.999Z</time></trkpt><trkpt lat="45.40894636189828" lon="11.260114219407356"><ele>36.0</ele><time>2026-04-07T15:02:09.999Z</time></trkpt><trkpt lat="45.40895638442359" lon="11.260468833491426"><ele>36.0</ele><time>2026-04-07T15:02:10.999Z</time></trkpt><trkpt lat="45.40896591220489" lon="11.260752715130238"><ele>36.0</ele><time>2026-04-07T15:02:11.999Z</time></trkpt><trkpt lat="45.40897240934836" lon="11.261157444509472"><ele>33.5</ele><time>2026-04-07T15:02:12.999Z</time></trkpt><trkpt lat="45.40898426568338" lon="11.261584982576748"><ele>31.0</ele><time>2026-04-07T15:02:13.999Z</time></trkpt><trkpt lat="45.40899165315965" lon="11.262016602586051"><ele>29.5</ele><time>2026-04-07T15:02:14.999Z</time></trkpt><trkpt lat="45.40899997477202" lon="11.262428171101456"><ele>28.0</ele><time>2026-04-07T15:02:15.999Z</time></trkpt><trkpt lat="45.40900903353838" lon="11.26282838766506"><ele>28.0</ele><time>2026-04-07T15:02:16.999Z</time></trkpt><trkpt lat="45.40901839514766" lon="11.263217100766607"><ele>28.0</ele><time>2026-04-07T15:02:17.999Z</time></trkpt><trkpt lat="45.409023708412874" lon="11.263600539095505"><ele>28.0</ele><time>2026-04-07T15:02:18.999Z</time></trkpt><trkpt lat="45.40902489804307" lon="11.26397198507917"><ele>28.0</ele><time>2026-04-07T15:02:19.999Z</time></trkpt><trkpt lat="45.40902981303205" lon="11.264330219774196"><ele>28.0</ele><time>2026-04-07T15:02:20.999Z</time></trkpt><trkpt lat="45.40903620351732" lon="11.264664199441592"><ele>28.0</ele><time>2026-04-07T15:02:21.999Z</time></trkpt><trkpt lat="45.40904513664303" lon="11.264973589093188"><ele>28.0</ele><time>2026-04-07T15:02:22.999Z</time></trkpt><trkpt lat="45.40905411369652" lon="11.2652665703103"><ele>28.0</ele><time>2026-04-07T15:02:23.999Z</time></trkpt><trkpt lat="45.40909509547491" lon="11.265566608526214"><ele>28.0</ele><time>2026-04-07T15:02:24.999Z</time></trkpt><trkpt lat="45.40917540724278" lon="11.265868005206501"><ele>28.0</ele><time>2026-04-07T15:02:25.999Z</time></trkpt><trkpt lat="45.409297520780626" lon="11.26615858306753"><ele>28.0</ele><time>2026-04-07T15:02:26.999Z</time></trkpt><trkpt lat="45.409449116508995" lon="11.266422378101609"><ele>28.0</ele><time>2026-04-07T15:02:27.999Z</time></trkpt><trkpt lat="45.40961226197808" lon="11.266651777666373"><ele>28.0</ele><time>2026-04-07T15:02:28.999Z</time></trkpt><trkpt lat="45.40977113326376" lon="11.266860999562695"><ele>28.0</ele><time>2026-04-07T15:02:29.999Z</time></trkpt><trkpt lat="45.409927080185376" lon="11.267065254082203"><ele>29.333333333333336</ele><time>2026-04-07T15:02:30.999Z</time></trkpt><trkpt lat="45.410070409957555" lon="11.267280956336563"><ele>30.666666666666664</ele><time>2026-04-07T15:02:31.999Z</time></trkpt><trkpt lat="45.41019790695899" lon="11.267511419002375"><ele>32.0</ele><time>2026-04-07T15:02:32.999Z</time></trkpt><trkpt lat="45.41034145256446" lon="11.267727619355494"><ele>32.0</ele><time>2026-04-07T15:02:33.999Z</time></trkpt><trkpt lat="45.41047541920458" lon="11.267923125587926"><ele>32.0</ele><time>2026-04-07T15:02:34.999Z</time></trkpt><trkpt lat="45.41059010935825" lon="11.26811245531724"><ele>32.0</ele><time>2026-04-07T15:02:35.999Z</time></trkpt><trkpt lat="45.41069227125291" lon="11.2683243771265"><ele>31.666666666666664</ele><time>2026-04-07T15:02:36.999Z</time></trkpt><trkpt lat="45.41077137210186" lon="11.268573818152628"><ele>31.333333333333336</ele><time>2026-04-07T15:02:37.999Z</time></trkpt><trkpt lat="45.41080420246415" lon="11.268854776911333"><ele>31.0</ele><time>2026-04-07T15:02:38.999Z</time></trkpt><trkpt lat="45.410856672788306" lon="11.269173786286457"><ele>31.0</ele><time>2026-04-07T15:02:39.999Z</time></trkpt><trkpt lat="45.41092353272032" lon="11.26948437519946"><ele>31.0</ele><time>2026-04-07T15:02:40.999Z</time></trkpt><trkpt lat="45.410973001756304" lon="11.269821919977545"><ele>30.5</ele><time>2026-04-07T15:02:41.999Z</time></trkpt><trkpt lat="45.41102697079076" lon="11.270169531795815"><ele>30.0</ele><time>2026-04-07T15:02:42.999Z</time></trkpt><trkpt lat="45.41108006867477" lon="11.270523330093885"><ele>30.0</ele><time>2026-04-07T15:02:43.999Z</time></trkpt><trkpt lat="45.41113274197515" lon="11.270880866769643"><ele>30.0</ele><time>2026-04-07T15:02:44.999Z</time></trkpt><trkpt lat="45.41118881454179" lon="11.271238259880292"><ele>30.0</ele><time>2026-04-07T15:02:45.999Z</time></trkpt><trkpt lat="45.411244168823416" lon="11.271591378064235"><ele>30.0</ele><time>2026-04-07T15:02:46.999Z</time></trkpt><trkpt lat="45.411299232934226" lon="11.271933055658774"><ele>29.5</ele><time>2026-04-07T15:02:47.999Z</time></trkpt><trkpt lat="45.41133594611713" lon="11.272274085612583"><ele>29.0</ele><time>2026-04-07T15:02:48.999Z</time></trkpt><trkpt lat="45.41140085486617" lon="11.272579787946148"><ele>29.0</ele><time>2026-04-07T15:02:49.999Z</time></trkpt><trkpt lat="45.411446472532724" lon="11.27285950189255"><ele>29.0</ele><time>2026-04-07T15:02:50.999Z</time></trkpt><trkpt lat="45.41150063750542" lon="11.27313950319606"><ele>29.0</ele><time>2026-04-07T15:02:51.999Z</time></trkpt><trkpt lat="45.41156181940824" lon="11.27342054793838"><ele>29.0</ele><time>2026-04-07T15:02:52.999Z</time></trkpt><trkpt lat="45.41162093258324" lon="11.273694847513122"><ele>29.0</ele><time>2026-04-07T15:02:53.999Z</time></trkpt><trkpt lat="45.41167202072113" lon="11.273972435342108"><ele>29.0</ele><time>2026-04-07T15:02:54.999Z</time></trkpt><trkpt lat="45.41171954443352" lon="11.274247977938794"><ele>29.666666666666664</ele><time>2026-04-07T15:02:55.999Z</time></trkpt><trkpt lat="45.41176714045661" lon="11.274523149646926"><ele>30.333333333333336</ele><time>2026-04-07T15:02:56.999Z</time></trkpt><trkpt lat="45.41180816058759" lon="11.274786424214156"><ele>31.0</ele><time>2026-04-07T15:02:57.999Z</time></trkpt><trkpt lat="45.411848320005916" lon="11.275042383112353"><ele>31.0</ele><time>2026-04-07T15:02:58.999Z</time></trkpt><trkpt lat="45.41188763297388" lon="11.27528947392063"><ele>31.0</ele><time>2026-04-07T15:02:59.999Z</time></trkpt><trkpt lat="45.41192183229275" lon="11.275538301081856"><ele>31.0</ele><time>2026-04-07T15:03:00.999Z</time></trkpt><trkpt lat="45.41194911184783" lon="11.275772253120369"><ele>31.0</ele><time>2026-04-07T15:03:01.999Z</time></trkpt><trkpt lat="45.4119783472376" lon="11.275992584463664"><ele>31.0</ele><time>2026-04-07T15:03:02.999Z</time></trkpt><trkpt lat="45.412007669363746" lon="11.276204808531316"><ele>31.0</ele><time>2026-04-07T15:03:03.999Z</time></trkpt><trkpt lat="45.4120389360119" lon="11.27640465056921"><ele>31.0</ele><time>2026-04-07T15:03:04.999Z</time></trkpt><trkpt lat="45.41207189438095" lon="11.276605731379984"><ele>31.0</ele><time>2026-04-07T15:03:05.999Z</time></trkpt><trkpt lat="45.41211238282959" lon="11.276823327609122"><ele>31.0</ele><time>2026-04-07T15:03:06.999Z</time></trkpt><trkpt lat="45.41216304507113" lon="11.277042700809636"><ele>31.0</ele><time>2026-04-07T15:03:07.999Z</time></trkpt><trkpt lat="45.41221190152397" lon="11.277249307859531"><ele>31.0</ele><time>2026-04-07T15:03:08.999Z</time></trkpt><trkpt lat="45.412258651136014" lon="11.277439850906884"><ele>31.0</ele><time>2026-04-07T15:03:09.999Z</time></trkpt><trkpt lat="45.41230157055326" lon="11.27762861064691"><ele>31.0</ele><time>2026-04-07T15:03:10.999Z</time></trkpt><trkpt lat="45.41234154612326" lon="11.27780630949868"><ele>31.0</ele><time>2026-04-07T15:03:11.999Z</time></trkpt><trkpt lat="45.412379215599394" lon="11.27796766579733"><ele>31.0</ele><time>2026-04-07T15:03:12.999Z</time></trkpt><trkpt lat="45.41241485352684" lon="11.27811682774678"><ele>31.0</ele><time>2026-04-07T15:03:13.999Z</time></trkpt><trkpt lat="45.412451510087074" lon="11.278258642116528"><ele>31.0</ele><time>2026-04-07T15:03:14.999Z</time></trkpt><trkpt lat="45.41248476508376" lon="11.278389451798839"><ele>31.0</ele><time>2026-04-07T15:03:15.999Z</time></trkpt><trkpt lat="45.412512586245946" lon="11.278514962447408"><ele>31.000000000000004</ele><time>2026-04-07T15:03:16.999Z</time></trkpt><trkpt lat="45.412537071149174" lon="11.278636254722196"><ele>31.0</ele><time>2026-04-07T15:03:17.999Z</time></trkpt><trkpt lat="45.41255423440441" lon="11.27875606592342"><ele>31.0</ele><time>2026-04-07T15:03:18.999Z</time></trkpt><trkpt lat="45.41256857726612" lon="11.278865171422222"><ele>31.0</ele><time>2026-04-07T15:03:19.999Z</time></trkpt><trkpt lat="45.412575666182775" lon="11.278960404264007"><ele>31.000000000000004</ele><time>2026-04-07T15:03:20.999Z</time></trkpt><trkpt lat="45.412568928674084" lon="11.27905502971019"><ele>31.0</ele><time>2026-04-07T15:03:21.999Z</time></trkpt><trkpt lat="45.41254035937673" lon="11.279144057419794"><ele>31.0</ele><time>2026-04-07T15:03:23Z</time></trkpt><trkpt lat="45.41249524233379" lon="11.279246690400358"><ele>31.0</ele><time>2026-04-07T15:03:24Z</time></trkpt><trkpt lat="45.41244666978774" lon="11.279356147626153"><ele>31.0</ele><time>2026-04-07T15:03:25Z</time></trkpt><trkpt lat="45.412431630428095" lon="11.279481517983966"><ele>31.0</ele><time>2026-04-07T15:03:26Z</time></trkpt><trkpt lat="45.412470016648264" lon="11.279607565430602"><ele>31.0</ele><time>2026-04-07T15:03:27Z</time></trkpt><trkpt lat="45.41254303846812" lon="11.27969089115218"><ele>31.0</ele><time>2026-04-07T15:03:28Z</time></trkpt><trkpt lat="45.41262394995176" lon="11.279759937015292"><ele>31.0</ele><time>2026-04-07T15:03:29Z</time></trkpt><trkpt lat="45.41268726746447" lon="11.27985565949365"><ele>31.0</ele><time>2026-04-07T15:03:30Z</time></trkpt><trkpt lat="45.41274292716125" lon="11.279976039802317"><ele>31.0</ele><time>2026-04-07T15:03:31Z</time></trkpt><trkpt lat="45.412812355236184" lon="11.280083081800164"><ele>31.0</ele><time>2026-04-07T15:03:32Z</time></trkpt><trkpt lat="45.412900157425874" lon="11.280173870153448"><ele>31.0</ele><time>2026-04-07T15:03:33Z</time></trkpt><trkpt lat="45.41297625434371" lon="11.280253525048044"><ele>31.0</ele><time>2026-04-07T15:03:34Z</time></trkpt><trkpt lat="45.41304373688979" lon="11.280341916773544"><ele>31.0</ele><time>2026-04-07T15:03:35Z</time></trkpt><trkpt lat="45.413080580485456" lon="11.280472463810826"><ele>31.0</ele><time>2026-04-07T15:03:36Z</time></trkpt><trkpt lat="45.41310147928817" lon="11.280639625718665"><ele>31.0</ele><time>2026-04-07T15:03:37Z</time></trkpt><trkpt lat="45.413112479241235" lon="11.280811482695615"><ele>31.0</ele><time>2026-04-07T15:03:38Z</time></trkpt><trkpt lat="45.41312751568004" lon="11.28097025055782"><ele>31.0</ele><time>2026-04-07T15:03:39Z</time></trkpt><trkpt lat="45.413145348204814" lon="11.28115195739447"><ele>31.0</ele><time>2026-04-07T15:03:40Z</time></trkpt><trkpt lat="45.41316222435427" lon="11.281317130965972"><ele>31.0</ele><time>2026-04-07T15:03:41Z</time></trkpt><trkpt lat="45.41318423779054" lon="11.28150379123437"><ele>31.0</ele><time>2026-04-07T15:03:42Z</time></trkpt><trkpt lat="45.41320983341818" lon="11.281742831955668"><ele>31.0</ele><time>2026-04-07T15:03:43Z</time></trkpt><trkpt lat="45.413239379406676" lon="11.282011531579988"><ele>31.0</ele><time>2026-04-07T15:03:44Z</time></trkpt><trkpt lat="45.41327891264886" lon="11.282316784041877"><ele>30.5</ele><time>2026-04-07T15:03:45Z</time></trkpt><trkpt lat="45.41332065368742" lon="11.282643470363391"><ele>30.0</ele><time>2026-04-07T15:03:46Z</time></trkpt><trkpt lat="45.41336964004442" lon="11.282988602715127"><ele>31.0</ele><time>2026-04-07T15:03:47Z</time></trkpt><trkpt lat="45.413427312179245" lon="11.283333871398604"><ele>32.0</ele><time>2026-04-07T15:03:48Z</time></trkpt><trkpt lat="45.41349154567888" lon="11.283678807684066"><ele>32.5</ele><time>2026-04-07T15:03:49Z</time></trkpt><trkpt lat="45.41356403491071" lon="11.284026606642179"><ele>33.0</ele><time>2026-04-07T15:03:50Z</time></trkpt><trkpt lat="45.413645271099575" lon="11.284371331736565"><ele>33.0</ele><time>2026-04-07T15:03:51Z</time></trkpt><trkpt lat="45.41372557203985" lon="11.284701852717333"><ele>33.0</ele><time>2026-04-07T15:03:52Z</time></trkpt><trkpt lat="45.41380082964246" lon="11.285010014053722"><ele>32.333333333333336</ele><time>2026-04-07T15:03:53Z</time></trkpt><trkpt lat="45.413870776945025" lon="11.28528818325121"><ele>31.666666666666668</ele><time>2026-04-07T15:03:54Z</time></trkpt><trkpt lat="45.413936205885435" lon="11.285558643412394"><ele>31.0</ele><time>2026-04-07T15:03:55Z</time></trkpt><trkpt lat="45.41399600544028" lon="11.285804901330247"><ele>31.0</ele><time>2026-04-07T15:03:56Z</time></trkpt><trkpt lat="45.414061731085546" lon="11.286027995342307"><ele>31.0</ele><time>2026-04-07T15:03:57Z</time></trkpt><trkpt lat="45.414141554370964" lon="11.28622295111511"><ele>31.0</ele><time>2026-04-07T15:03:58Z</time></trkpt><trkpt lat="45.414254172875324" lon="11.286408530216857"><ele>31.0</ele><time>2026-04-07T15:03:59Z</time></trkpt><trkpt lat="45.41440033219384" lon="11.286582883966917"><ele>31.0</ele><time>2026-04-07T15:04:00Z</time></trkpt><trkpt lat="45.414567820541606" lon="11.286745304768845"><ele>31.0</ele><time>2026-04-07T15:04:01Z</time></trkpt><trkpt lat="45.414751830514426" lon="11.286866428989551"><ele>30.666666666666668</ele><time>2026-04-07T15:04:02Z</time></trkpt><trkpt lat="45.41494091858128" lon="11.28692787548825"><ele>30.333333333333336</ele><time>2026-04-07T15:04:03Z</time></trkpt><trkpt lat="45.41514109980931" lon="11.28693825648251"><ele>30.0</ele><time>2026-04-07T15:04:04Z</time></trkpt><trkpt lat="45.41535117237723" lon="11.286929439306729"><ele>30.0</ele><time>2026-04-07T15:04:05Z</time></trkpt><trkpt lat="45.41557396218695" lon="11.286911032310723"><ele>30.0</ele><time>2026-04-07T15:04:06Z</time></trkpt><trkpt lat="45.415807344472604" lon="11.286896971481038"><ele>30.0</ele><time>2026-04-07T15:04:07Z</time></trkpt><trkpt lat="45.41604784067197" lon="11.286887895296061"><ele>30.0</ele><time>2026-04-07T15:04:08Z</time></trkpt><trkpt lat="45.41628705152578" lon="11.286889839812753"><ele>30.5</ele><time>2026-04-07T15:04:09Z</time></trkpt><trkpt lat="45.41653201729831" lon="11.286891995452862"><ele>31.0</ele><time>2026-04-07T15:04:10Z</time></trkpt><trkpt lat="45.41679453998852" lon="11.286895712738708"><ele>31.0</ele><time>2026-04-07T15:04:11Z</time></trkpt><trkpt lat="45.41705149414911" lon="11.286892404675367"><ele>31.0</ele><time>2026-04-07T15:04:11.999Z</time></trkpt><trkpt lat="45.41730936910656" lon="11.286879889336996"><ele>31.5</ele><time>2026-04-07T15:04:12.999Z</time></trkpt><trkpt lat="45.41757320110414" lon="11.286870892106322"><ele>32.0</ele><time>2026-04-07T15:04:13.999Z</time></trkpt><trkpt lat="45.417820424481754" lon="11.286866235708626"><ele>32.5</ele><time>2026-04-07T15:04:14.999Z</time></trkpt><trkpt lat="45.41806006623249" lon="11.28686296705485"><ele>33.0</ele><time>2026-04-07T15:04:15.999Z</time></trkpt><trkpt lat="45.41829454687593" lon="11.286860604707606"><ele>33.0</ele><time>2026-04-07T15:04:16.999Z</time></trkpt><trkpt lat="45.41852563318058" lon="11.286856226614805"><ele>33.0</ele><time>2026-04-07T15:04:17.999Z</time></trkpt><trkpt lat="45.41875002880088" lon="11.28684763224755"><ele>32.666666666666664</ele><time>2026-04-07T15:04:18.999Z</time></trkpt><trkpt lat="45.41896348168659" lon="11.286842919018651"><ele>32.33333333333333</ele><time>2026-04-07T15:04:19.999Z</time></trkpt><trkpt lat="45.41916773067222" lon="11.286858373448764"><ele>32.0</ele><time>2026-04-07T15:04:20.999Z</time></trkpt><trkpt lat="45.41935642566187" lon="11.2868928416912"><ele>32.0</ele><time>2026-04-07T15:04:21.999Z</time></trkpt><trkpt lat="45.41953525029249" lon="11.286940002550693"><ele>32.0</ele><time>2026-04-07T15:04:22.999Z</time></trkpt><trkpt lat="45.4196995321224" lon="11.286985137214641"><ele>32.0</ele><time>2026-04-07T15:04:23.999Z</time></trkpt><trkpt lat="45.4198611706692" lon="11.287031934535836"><ele>32.0</ele><time>2026-04-07T15:04:24.999Z</time></trkpt><trkpt lat="45.42001484370362" lon="11.287069356251596"><ele>32.0</ele><time>2026-04-07T15:04:25.999Z</time></trkpt><trkpt lat="45.42015261442795" lon="11.287102126036466"><ele>32.0</ele><time>2026-04-07T15:04:26.999Z</time></trkpt><trkpt lat="45.42028587710374" lon="11.287139316832919"><ele>32.0</ele><time>2026-04-07T15:04:27.999Z</time></trkpt><trkpt lat="45.42041161451405" lon="11.287176005651363"><ele>32.25</ele><time>2026-04-07T15:04:28.999Z</time></trkpt><trkpt lat="45.42052479959885" lon="11.287208052824155"><ele>32.5</ele><time>2026-04-07T15:04:29.999Z</time></trkpt><trkpt lat="45.42064232539202" lon="11.287238523351506"><ele>32.75</ele><time>2026-04-07T15:04:30.999Z</time></trkpt><trkpt lat="45.42075826426611" lon="11.287270462884996"><ele>33.0</ele><time>2026-04-07T15:04:31.999Z</time></trkpt><trkpt lat="45.42086167326574" lon="11.287299677375369"><ele>33.0</ele><time>2026-04-07T15:04:32.999Z</time></trkpt><trkpt lat="45.42095343027233" lon="11.28732426725298"><ele>33.0</ele><time>2026-04-07T15:04:33.999Z</time></trkpt><trkpt lat="45.42104512640874" lon="11.287349144251417"><ele>33.0</ele><time>2026-04-07T15:04:34.999Z</time></trkpt><trkpt lat="45.42113838707288" lon="11.287382863343588"><ele>33.0</ele><time>2026-04-07T15:04:35.999Z</time></trkpt><trkpt lat="45.42123350302593" lon="11.28743041981635"><ele>33.0</ele><time>2026-04-07T15:04:36.999Z</time></trkpt><trkpt lat="45.42133656360202" lon="11.287499229574685"><ele>33.75</ele><time>2026-04-07T15:04:37.999Z</time></trkpt><trkpt lat="45.421450007881496" lon="11.287586436637893"><ele>34.5</ele><time>2026-04-07T15:04:38.999Z</time></trkpt><trkpt lat="45.42155756345848" lon="11.287673126012997"><ele>35.25</ele><time>2026-04-07T15:04:39.999Z</time></trkpt><trkpt lat="45.421668243522774" lon="11.287757151400633"><ele>36.0</ele><time>2026-04-07T15:04:40.999Z</time></trkpt><trkpt lat="45.42178241788576" lon="11.287845688890899"><ele>36.0</ele><time>2026-04-07T15:04:41.999Z</time></trkpt><trkpt lat="45.42189619356594" lon="11.287935328654806"><ele>36.0</ele><time>2026-04-07T15:04:42.999Z</time></trkpt><trkpt lat="45.4220060268999" lon="11.288020613096542"><ele>36.0</ele><time>2026-04-07T15:04:43.999Z</time></trkpt><trkpt lat="45.42211780654497" lon="11.288109612489245"><ele>36.0</ele><time>2026-04-07T15:04:44.999Z</time></trkpt><trkpt lat="45.422230586105506" lon="11.288185794855597"><ele>35.75</ele><time>2026-04-07T15:04:45.999Z</time></trkpt><trkpt lat="45.42233856586373" lon="11.288270547436706"><ele>35.5</ele><time>2026-04-07T15:04:46.999Z</time></trkpt><trkpt lat="45.42244686162068" lon="11.288348736859689"><ele>35.25</ele><time>2026-04-07T15:04:47.999Z</time></trkpt><trkpt lat="45.42255038460885" lon="11.288424399027937"><ele>35.0</ele><time>2026-04-07T15:04:48.999Z</time></trkpt><trkpt lat="45.42265292567016" lon="11.288500092868064"><ele>35.0</ele><time>2026-04-07T15:04:49.999Z</time></trkpt><trkpt lat="45.42276350585598" lon="11.288576019104104"><ele>35.0</ele><time>2026-04-07T15:04:50.999Z</time></trkpt><trkpt lat="45.42287780298249" lon="11.288656759737815"><ele>35.0</ele><time>2026-04-07T15:04:51.999Z</time></trkpt><trkpt lat="45.422997035530884" lon="11.288741322053198"><ele>35.0</ele><time>2026-04-07T15:04:52.999Z</time></trkpt><trkpt lat="45.423119484281806" lon="11.288830003994832"><ele>34.75</ele><time>2026-04-07T15:04:53.999Z</time></trkpt><trkpt lat="45.423240512489386" lon="11.28892560021984"><ele>34.5</ele><time>2026-04-07T15:04:54.999Z</time></trkpt><trkpt lat="45.42335698204985" lon="11.289007812045522"><ele>34.25</ele><time>2026-04-07T15:04:55.999Z</time></trkpt><trkpt lat="45.42346308569347" lon="11.289083620680502"><ele>34.0</ele><time>2026-04-07T15:04:56.999Z</time></trkpt><trkpt lat="45.423563749661824" lon="11.289157273331556"><ele>33.75</ele><time>2026-04-07T15:04:57.999Z</time></trkpt><trkpt lat="45.42368310809094" lon="11.289237524475332"><ele>33.5</ele><time>2026-04-07T15:04:58.999Z</time></trkpt><trkpt lat="45.42380584834482" lon="11.289319326539875"><ele>33.25</ele><time>2026-04-07T15:04:59.999Z</time></trkpt><trkpt lat="45.42393566400013" lon="11.289409670827515"><ele>33.0</ele><time>2026-04-07T15:05:00.999Z</time></trkpt><trkpt lat="45.42406530574624" lon="11.289501314037542"><ele>33.0</ele><time>2026-04-07T15:05:01.999Z</time></trkpt><trkpt lat="45.42418651876092" lon="11.289592215248108"><ele>33.0</ele><time>2026-04-07T15:05:02.999Z</time></trkpt><trkpt lat="45.42430334565424" lon="11.28967480138975"><ele>33.0</ele><time>2026-04-07T15:05:03.999Z</time></trkpt><trkpt lat="45.42441937653152" lon="11.289755478146924"><ele>33.0</ele><time>2026-04-07T15:05:04.999Z</time></trkpt><trkpt lat="45.424535333964826" lon="11.289833704106485"><ele>33.5</ele><time>2026-04-07T15:05:05.999Z</time></trkpt><trkpt lat="45.42465348358536" lon="11.289911213778412"><ele>34.0</ele><time>2026-04-07T15:05:06.999Z</time></trkpt><trkpt lat="45.42477995872998" lon="11.289996314954623"><ele>34.5</ele><time>2026-04-07T15:05:07.999Z</time></trkpt><trkpt lat="45.42491116097992" lon="11.29009012448213"><ele>35.0</ele><time>2026-04-07T15:05:08.999Z</time></trkpt><trkpt lat="45.42503840401856" lon="11.290176029100753"><ele>35.0</ele><time>2026-04-07T15:05:09.999Z</time></trkpt><trkpt lat="45.42516382794454" lon="11.290262642510433"><ele>35.0</ele><time>2026-04-07T15:05:10.999Z</time></trkpt><trkpt lat="45.42528799509953" lon="11.29034379248636"><ele>35.0</ele><time>2026-04-07T15:05:11.999Z</time></trkpt><trkpt lat="45.42540951797995" lon="11.290429397814826"><ele>35.0</ele><time>2026-04-07T15:05:12.999Z</time></trkpt><trkpt lat="45.42552992210716" lon="11.290513415608572"><ele>34.5</ele><time>2026-04-07T15:05:13.999Z</time></trkpt><trkpt lat="45.42565664183816" lon="11.29059845859014"><ele>34.0</ele><time>2026-04-07T15:05:14.999Z</time></trkpt><trkpt lat="45.42578213905721" lon="11.290684203291505"><ele>33.5</ele><time>2026-04-07T15:05:15.999Z</time></trkpt><trkpt lat="45.425898328239754" lon="11.290766416345793"><ele>33.0</ele><time>2026-04-07T15:05:16.999Z</time></trkpt><trkpt lat="45.42601431608654" lon="11.29084838662532"><ele>33.0</ele><time>2026-04-07T15:05:17.999Z</time></trkpt><trkpt lat="45.42613055459071" lon="11.290934797829495"><ele>33.0</ele><time>2026-04-07T15:05:18.999Z</time></trkpt><trkpt lat="45.4262586749212" lon="11.291026271280327"><ele>33.0</ele><time>2026-04-07T15:05:19.999Z</time></trkpt><trkpt lat="45.42639440035226" lon="11.291122324299595"><ele>33.0</ele><time>2026-04-07T15:05:20.999Z</time></trkpt><trkpt lat="45.42652917266244" lon="11.29121814439419"><ele>33.0</ele><time>2026-04-07T15:05:21.999Z</time></trkpt><trkpt lat="45.426653709880185" lon="11.29130858908373"><ele>33.0</ele><time>2026-04-07T15:05:22.999Z</time></trkpt><trkpt lat="45.42678859434738" lon="11.291401030949581"><ele>33.0</ele><time>2026-04-07T15:05:23.999Z</time></trkpt><trkpt lat="45.42692071388477" lon="11.29149560980432"><ele>33.0</ele><time>2026-04-07T15:05:24.999Z</time></trkpt><trkpt lat="45.42704906676866" lon="11.291595124194531"><ele>33.333333333333336</ele><time>2026-04-07T15:05:25.998Z</time></trkpt><trkpt lat="45.42718119969725" lon="11.291702174757212"><ele>33.66666666666667</ele><time>2026-04-07T15:05:26.998Z</time></trkpt><trkpt lat="45.42731573238709" lon="11.291817818232769"><ele>34.0</ele><time>2026-04-07T15:05:27.998Z</time></trkpt><trkpt lat="45.4274459736346" lon="11.291944366428641"><ele>34.0</ele><time>2026-04-07T15:05:29Z</time></trkpt><trkpt lat="45.42757504807814" lon="11.292078063547176"><ele>34.0</ele><time>2026-04-07T15:05:30Z</time></trkpt><trkpt lat="45.42770233251616" lon="11.292220871504396"><ele>34.0</ele><time>2026-04-07T15:05:31Z</time></trkpt><trkpt lat="45.427827928555004" lon="11.292359665523426"><ele>34.0</ele><time>2026-04-07T15:05:32Z</time></trkpt><trkpt lat="45.42794556871957" lon="11.292495087071241"><ele>34.0</ele><time>2026-04-07T15:05:33Z</time></trkpt><trkpt lat="45.42805907045736" lon="11.292625472990368"><ele>34.0</ele><time>2026-04-07T15:05:34Z</time></trkpt><trkpt lat="45.42818139751899" lon="11.292760374038798"><ele>34.0</ele><time>2026-04-07T15:05:35Z</time></trkpt><trkpt lat="45.42830983310198" lon="11.292898463463796"><ele>34.0</ele><time>2026-04-07T15:05:36Z</time></trkpt><trkpt lat="45.42843488543389" lon="11.293035891345424"><ele>34.0</ele><time>2026-04-07T15:05:37Z</time></trkpt><trkpt lat="45.42855649696864" lon="11.293168314530783"><ele>34.0</ele><time>2026-04-07T15:05:38Z</time></trkpt><trkpt lat="45.4286740125375" lon="11.293300831794982"><ele>34.0</ele><time>2026-04-07T15:05:39Z</time></trkpt><trkpt lat="45.42879849977167" lon="11.293437842110373"><ele>34.0</ele><time>2026-04-07T15:05:40Z</time></trkpt><trkpt lat="45.42893375782268" lon="11.293581888519164"><ele>34.333333333333336</ele><time>2026-04-07T15:05:41Z</time></trkpt><trkpt lat="45.429083550421275" lon="11.29373151533949"><ele>34.666666666666664</ele><time>2026-04-07T15:05:42Z</time></trkpt><trkpt lat="45.429243096551" lon="11.293931459644954"><ele>35.0</ele><time>2026-04-07T15:05:43Z</time></trkpt><trkpt lat="45.42940854199452" lon="11.294116225820002"><ele>34.666666666666664</ele><time>2026-04-07T15:05:44Z</time></trkpt><trkpt lat="45.429570597303844" lon="11.294279925380438"><ele>34.333333333333336</ele><time>2026-04-07T15:05:45Z</time></trkpt><trkpt lat="45.42970673248204" lon="11.294457189035235"><ele>34.0</ele><time>2026-04-07T15:05:46Z</time></trkpt><trkpt lat="45.42983591335725" lon="11.29461053645011"><ele>33.66666666666667</ele><time>2026-04-07T15:05:47Z</time></trkpt><trkpt lat="45.429967841914696" lon="11.294755470729523"><ele>33.333333333333336</ele><time>2026-04-07T15:05:48Z</time></trkpt><trkpt lat="45.430090455904015" lon="11.294890036485013"><ele>33.0</ele><time>2026-04-07T15:05:49Z</time></trkpt><trkpt lat="45.43022060496453" lon="11.295032149792332"><ele>33.0</ele><time>2026-04-07T15:05:50Z</time></trkpt><trkpt lat="45.43036592130711" lon="11.295179586898806"><ele>33.0</ele><time>2026-04-07T15:05:51Z</time></trkpt><trkpt lat="45.430547293268944" lon="11.295323785294459"><ele>33.0</ele><time>2026-04-07T15:05:52Z</time></trkpt><trkpt lat="45.43073579722334" lon="11.295519269985213"><ele>33.5</ele><time>2026-04-07T15:05:53Z</time></trkpt><trkpt lat="45.43096104311607" lon="11.295715972297558"><ele>34.0</ele><time>2026-04-07T15:05:54Z</time></trkpt><trkpt lat="45.43119050010162" lon="11.295898460242935"><ele>34.5</ele><time>2026-04-07T15:05:55Z</time></trkpt><trkpt lat="45.431390353311016" lon="11.296075893248906"><ele>35.0</ele><time>2026-04-07T15:05:56Z</time></trkpt><trkpt lat="45.43158602501374" lon="11.296240190303683"><ele>35.0</ele><time>2026-04-07T15:05:57Z</time></trkpt><trkpt lat="45.43177889258809" lon="11.296397896936888"><ele>35.0</ele><time>2026-04-07T15:05:58Z</time></trkpt><trkpt lat="45.43197162933801" lon="11.296562168504732"><ele>35.0</ele><time>2026-04-07T15:05:59Z</time></trkpt><trkpt lat="45.43215717978403" lon="11.29671360619765"><ele>34.666666666666664</ele><time>2026-04-07T15:06:00Z</time></trkpt><trkpt lat="45.43233833549312" lon="11.296863650073092"><ele>34.333333333333336</ele><time>2026-04-07T15:06:01Z</time></trkpt><trkpt lat="45.43250342954145" lon="11.297002659490591"><ele>34.0</ele><time>2026-04-07T15:06:02Z</time></trkpt><trkpt lat="45.43266550086026" lon="11.297138286624385"><ele>34.0</ele><time>2026-04-07T15:06:03Z</time></trkpt><trkpt lat="45.43281987867848" lon="11.297266252858263"><ele>34.0</ele><time>2026-04-07T15:06:04Z</time></trkpt><trkpt lat="45.4329615239648" lon="11.297386788475936"><ele>34.0</ele><time>2026-04-07T15:06:05Z</time></trkpt><trkpt lat="45.43309888716078" lon="11.297503699643237"><ele>33.66666666666667</ele><time>2026-04-07T15:06:06Z</time></trkpt><trkpt lat="45.43323333826008" lon="11.297615305492435"><ele>33.333333333333336</ele><time>2026-04-07T15:06:07Z</time></trkpt><trkpt lat="45.43336717901173" lon="11.297722729252754"><ele>33.0</ele><time>2026-04-07T15:06:08Z</time></trkpt><trkpt lat="45.43351804013073" lon="11.297839749449336"><ele>33.0</ele><time>2026-04-07T15:06:09Z</time></trkpt><trkpt lat="45.43368444398937" lon="11.297996759939272"><ele>33.0</ele><time>2026-04-07T15:06:10Z</time></trkpt><trkpt lat="45.433866922797826" lon="11.298149136333809"><ele>33.0</ele><time>2026-04-07T15:06:11Z</time></trkpt><trkpt lat="45.43406116630136" lon="11.29831141116207"><ele>33.0</ele><time>2026-04-07T15:06:12Z</time></trkpt><trkpt lat="45.434245670601655" lon="11.298442003505981"><ele>33.0</ele><time>2026-04-07T15:06:13Z</time></trkpt><trkpt lat="45.434414000708664" lon="11.29859736197138"><ele>33.0</ele><time>2026-04-07T15:06:14Z</time></trkpt><trkpt lat="45.434583237076716" lon="11.29874418484203"><ele>33.666666666666664</ele><time>2026-04-07T15:06:15Z</time></trkpt><trkpt lat="45.434745467782676" lon="11.298878235163455"><ele>34.33333333333333</ele><time>2026-04-07T15:06:16Z</time></trkpt><trkpt lat="45.434903525508" lon="11.2990076890565"><ele>35.0</ele><time>2026-04-07T15:06:17Z</time></trkpt><trkpt lat="45.43506027903884" lon="11.29913549268975"><ele>35.0</ele><time>2026-04-07T15:06:18Z</time></trkpt><trkpt lat="45.43522422366868" lon="11.29926572784287"><ele>35.0</ele><time>2026-04-07T15:06:19Z</time></trkpt><trkpt lat="45.43538952544257" lon="11.299387208411744"><ele>35.0</ele><time>2026-04-07T15:06:20Z</time></trkpt><trkpt lat="45.43556070264986" lon="11.299504239026685"><ele>35.0</ele><time>2026-04-07T15:06:21Z</time></trkpt><trkpt lat="45.43572201889297" lon="11.299604131099708"><ele>35.0</ele><time>2026-04-07T15:06:22Z</time></trkpt><trkpt lat="45.43588389069127" lon="11.299695668189035"><ele>35.0</ele><time>2026-04-07T15:06:23Z</time></trkpt><trkpt lat="45.43604311610076" lon="11.299776434390918"><ele>35.0</ele><time>2026-04-07T15:06:24Z</time></trkpt><trkpt lat="45.43619889846126" lon="11.299853072439635"><ele>35.0</ele><time>2026-04-07T15:06:24.999Z</time></trkpt><trkpt lat="45.43634512931764" lon="11.299922519277398"><ele>35.0</ele><time>2026-04-07T15:06:25.999Z</time></trkpt><trkpt lat="45.436483771674716" lon="11.299985849596922"><ele>35.25</ele><time>2026-04-07T15:06:26.999Z</time></trkpt><trkpt lat="45.436615244294174" lon="11.300044443592288"><ele>35.5</ele><time>2026-04-07T15:06:27.999Z</time></trkpt><trkpt lat="45.4367582967775" lon="11.300104359373947"><ele>35.75</ele><time>2026-04-07T15:06:28.999Z</time></trkpt><trkpt lat="45.43690264573358" lon="11.300166781854534"><ele>36.0</ele><time>2026-04-07T15:06:29.999Z</time></trkpt><trkpt lat="45.437048568706814" lon="11.3002265033671"><ele>36.333333333333336</ele><time>2026-04-07T15:06:30.999Z</time></trkpt><trkpt lat="45.437195003913835" lon="11.300283273552326"><ele>36.66666666666667</ele><time>2026-04-07T15:06:31.999Z</time></trkpt><trkpt lat="45.43734120980403" lon="11.30032785292882"><ele>37.0</ele><time>2026-04-07T15:06:32.999Z</time></trkpt><trkpt lat="45.437496415214135" lon="11.300352663794493"><ele>37.0</ele><time>2026-04-07T15:06:33.999Z</time></trkpt><trkpt lat="45.43766487178032" lon="11.300351820188245"><ele>37.0</ele><time>2026-04-07T15:06:34.999Z</time></trkpt><trkpt lat="45.43783455056517" lon="11.300323460358976"><ele>37.0</ele><time>2026-04-07T15:06:35.999Z</time></trkpt><trkpt lat="45.43799606707624" lon="11.300270598402387"><ele>37.0</ele><time>2026-04-07T15:06:36.999Z</time></trkpt><trkpt lat="45.43814706181284" lon="11.300217507906824"><ele>37.0</ele><time>2026-04-07T15:06:37.999Z</time></trkpt><trkpt lat="45.43829708076667" lon="11.300166098585548"><ele>37.0</ele><time>2026-04-07T15:06:38.999Z</time></trkpt><trkpt lat="45.438447111510094" lon="11.300116585560398"><ele>37.0</ele><time>2026-04-07T15:06:39.999Z</time></trkpt><trkpt lat="45.43860898737165" lon="11.30007390963267"><ele>37.0</ele><time>2026-04-07T15:06:40.999Z</time></trkpt><trkpt lat="45.438777179036435" lon="11.300042839731987"><ele>37.0</ele><time>2026-04-07T15:06:41.999Z</time></trkpt><trkpt lat="45.43895548135741" lon="11.300024830785565"><ele>36.333333333333336</ele><time>2026-04-07T15:06:42.999Z</time></trkpt><trkpt lat="45.43914560271014" lon="11.300021605288354"><ele>35.666666666666664</ele><time>2026-04-07T15:06:43.999Z</time></trkpt><trkpt lat="45.43932103637085" lon="11.300037653479977"><ele>35.0</ele><time>2026-04-07T15:06:44.999Z</time></trkpt><trkpt lat="45.43948005270236" lon="11.300067499051323"><ele>35.666666666666664</ele><time>2026-04-07T15:06:45.999Z</time></trkpt><trkpt lat="45.43964020645648" lon="11.30010934965423"><ele>36.333333333333336</ele><time>2026-04-07T15:06:46.999Z</time></trkpt><trkpt lat="45.43980455398317" lon="11.30015692259326"><ele>37.0</ele><time>2026-04-07T15:06:47.999Z</time></trkpt><trkpt lat="45.43996603402012" lon="11.300206050156243"><ele>37.0</ele><time>2026-04-07T15:06:48.999Z</time></trkpt><trkpt lat="45.44013514964495" lon="11.300257018321492"><ele>37.0</ele><time>2026-04-07T15:06:49.999Z</time></trkpt><trkpt lat="45.44029976834694" lon="11.300305528340395"><ele>37.0</ele><time>2026-04-07T15:06:50.999Z</time></trkpt><trkpt lat="45.44046393172169" lon="11.30035130812569"><ele>36.66666666666667</ele><time>2026-04-07T15:06:51.999Z</time></trkpt><trkpt lat="45.440625245678866" lon="11.30039842717651"><ele>36.333333333333336</ele><time>2026-04-07T15:06:52.999Z</time></trkpt><trkpt lat="45.44078684185857" lon="11.300444661848612"><ele>36.0</ele><time>2026-04-07T15:06:53.999Z</time></trkpt><trkpt lat="45.4409454629778" lon="11.300495857090029"><ele>36.0</ele><time>2026-04-07T15:06:54.999Z</time></trkpt><trkpt lat="45.441092839107554" lon="11.300545382091753"><ele>36.0</ele><time>2026-04-07T15:06:55.999Z</time></trkpt><trkpt lat="45.4412365319465" lon="11.300593913673183"><ele>36.0</ele><time>2026-04-07T15:06:56.999Z</time></trkpt><trkpt lat="45.441387598640056" lon="11.300643018498173"><ele>36.5</ele><time>2026-04-07T15:06:57.999Z</time></trkpt><trkpt lat="45.441533840933516" lon="11.300688143311804"><ele>37.0</ele><time>2026-04-07T15:06:58.999Z</time></trkpt><trkpt lat="45.44167023482082" lon="11.300730321733395"><ele>37.5</ele><time>2026-04-07T15:06:59.999Z</time></trkpt><trkpt lat="45.44178331399227" lon="11.300761082942241"><ele>38.0</ele><time>2026-04-07T15:07:00.999Z</time></trkpt><trkpt lat="45.44188754414333" lon="11.300791482492228"><ele>38.0</ele><time>2026-04-07T15:07:01.999Z</time></trkpt><trkpt lat="45.441997052824" lon="11.300824020438188"><ele>38.0</ele><time>2026-04-07T15:07:02.999Z</time></trkpt><trkpt lat="45.442127485445" lon="11.300849879173366"><ele>38.0</ele><time>2026-04-07T15:07:03.999Z</time></trkpt><trkpt lat="45.442279054850836" lon="11.300883861851078"><ele>38.0</ele><time>2026-04-07T15:07:04.999Z</time></trkpt><trkpt lat="45.442456743560875" lon="11.300945682549596"><ele>38.33333333333333</ele><time>2026-04-07T15:07:05.999Z</time></trkpt><trkpt lat="45.44263840225951" lon="11.301010231476733"><ele>38.666666666666664</ele><time>2026-04-07T15:07:06.999Z</time></trkpt><trkpt lat="45.44281491689187" lon="11.301065303027352"><ele>39.0</ele><time>2026-04-07T15:07:07.999Z</time></trkpt><trkpt lat="45.44300163930821" lon="11.301104245084868"><ele>39.5</ele><time>2026-04-07T15:07:08.999Z</time></trkpt><trkpt lat="45.44322529507103" lon="11.301143449516497"><ele>40.0</ele><time>2026-04-07T15:07:09.999Z</time></trkpt><trkpt lat="45.443469744785965" lon="11.301203719541213"><ele>40.0</ele><time>2026-04-07T15:07:10.999Z</time></trkpt><trkpt lat="45.443734455379456" lon="11.301306652074306"><ele>40.0</ele><time>2026-04-07T15:07:11.999Z</time></trkpt><trkpt lat="45.44399535096947" lon="11.301368846136668"><ele>39.0</ele><time>2026-04-07T15:07:12.999Z</time></trkpt><trkpt lat="45.444218222262386" lon="11.301444033055907"><ele>38.0</ele><time>2026-04-07T15:07:13.999Z</time></trkpt><trkpt lat="45.44442001136261" lon="11.301501896013203"><ele>37.0</ele><time>2026-04-07T15:07:14.999Z</time></trkpt><trkpt lat="45.44459951145268" lon="11.301552831831293"><ele>37.333333333333336</ele><time>2026-04-07T15:07:15.999Z</time></trkpt><trkpt lat="45.444773603332195" lon="11.301603341869487"><ele>37.666666666666664</ele><time>2026-04-07T15:07:16.999Z</time></trkpt><trkpt lat="45.44494037097656" lon="11.30165377288817"><ele>38.0</ele><time>2026-04-07T15:07:17.999Z</time></trkpt><trkpt lat="45.4451027443057" lon="11.301701058817669"><ele>38.0</ele><time>2026-04-07T15:07:18.999Z</time></trkpt><trkpt lat="45.44525260671285" lon="11.301746012812835"><ele>38.0</ele><time>2026-04-07T15:07:19.999Z</time></trkpt><trkpt lat="45.445395835486224" lon="11.301788538797348"><ele>38.0</ele><time>2026-04-07T15:07:20.999Z</time></trkpt><trkpt lat="45.44552685834005" lon="11.301831519981828"><ele>38.0</ele><time>2026-04-07T15:07:21.999Z</time></trkpt><trkpt lat="45.44565495657053" lon="11.301871427816256"><ele>38.25</ele><time>2026-04-07T15:07:22.999Z</time></trkpt><trkpt lat="45.44577768643476" lon="11.301906132354333"><ele>38.5</ele><time>2026-04-07T15:07:23.999Z</time></trkpt><trkpt lat="45.44590566946902" lon="11.301941043826924"><ele>38.75</ele><time>2026-04-07T15:07:24.999Z</time></trkpt><trkpt lat="45.446041931941856" lon="11.301982274116057"><ele>39.0</ele><time>2026-04-07T15:07:25.999Z</time></trkpt><trkpt lat="45.44619599819258" lon="11.302026808675539"><ele>38.5</ele><time>2026-04-07T15:07:26.999Z</time></trkpt><trkpt lat="45.446342021162764" lon="11.302071096754974"><ele>38.0</ele><time>2026-04-07T15:07:27.999Z</time></trkpt><trkpt lat="45.44648130913695" lon="11.302112171594935"><ele>37.5</ele><time>2026-04-07T15:07:28.999Z</time></trkpt><trkpt lat="45.44662952874679" lon="11.302157911421196"><ele>37.0</ele><time>2026-04-07T15:07:29.999Z</time></trkpt><trkpt lat="45.44677519913257" lon="11.302200661259619"><ele>37.0</ele><time>2026-04-07T15:07:30.999Z</time></trkpt><trkpt lat="45.446907772043836" lon="11.302238665070073"><ele>37.0</ele><time>2026-04-07T15:07:31.999Z</time></trkpt><trkpt lat="45.44703994192228" lon="11.302275375616071"><ele>37.0</ele><time>2026-04-07T15:07:32.999Z</time></trkpt><trkpt lat="45.447177485700834" lon="11.30231352085017"><ele>37.0</ele><time>2026-04-07T15:07:33.999Z</time></trkpt><trkpt lat="45.44731971020355" lon="11.302356545818697"><ele>37.75</ele><time>2026-04-07T15:07:35Z</time></trkpt><trkpt lat="45.447469220937364" lon="11.302403256075499"><ele>38.5</ele><time>2026-04-07T15:07:36Z</time></trkpt><trkpt lat="45.447617418472625" lon="11.302447437458373"><ele>39.25</ele><time>2026-04-07T15:07:37Z</time></trkpt><trkpt lat="45.447756893406385" lon="11.302490745170745"><ele>40.0</ele><time>2026-04-07T15:07:38Z</time></trkpt><trkpt lat="45.447895302815766" lon="11.302531739364893"><ele>40.25</ele><time>2026-04-07T15:07:39Z</time></trkpt><trkpt lat="45.44803837610141" lon="11.302574016744632"><ele>40.5</ele><time>2026-04-07T15:07:40Z</time></trkpt><trkpt lat="45.44818042491212" lon="11.302613008960371"><ele>40.75</ele><time>2026-04-07T15:07:41Z</time></trkpt><trkpt lat="45.448315608487995" lon="11.302647855500853"><ele>41.0</ele><time>2026-04-07T15:07:42Z</time></trkpt><trkpt lat="45.44844616381308" lon="11.302685812547535"><ele>41.0</ele><time>2026-04-07T15:07:43Z</time></trkpt><trkpt lat="45.448572682691754" lon="11.302724684162477"><ele>41.0</ele><time>2026-04-07T15:07:44Z</time></trkpt><trkpt lat="45.448699211784444" lon="11.302758235533963"><ele>41.0</ele><time>2026-04-07T15:07:45Z</time></trkpt><trkpt lat="45.448814878721166" lon="11.302792913893349"><ele>41.0</ele><time>2026-04-07T15:07:46Z</time></trkpt><trkpt lat="45.44892929965999" lon="11.30282778531751"><ele>41.0</ele><time>2026-04-07T15:07:47Z</time></trkpt><trkpt lat="45.44904656681756" lon="11.30286043740526"><ele>41.0</ele><time>2026-04-07T15:07:48Z</time></trkpt><trkpt lat="45.44917032414554" lon="11.302898276299606"><ele>41.0</ele><time>2026-04-07T15:07:49Z</time></trkpt><trkpt lat="45.44929792051462" lon="11.302935743040342"><ele>41.0</ele><time>2026-04-07T15:07:50Z</time></trkpt><trkpt lat="45.449429537542635" lon="11.302973030003658"><ele>41.0</ele><time>2026-04-07T15:07:51Z</time></trkpt><trkpt lat="45.44954453376225" lon="11.303008543962257"><ele>41.0</ele><time>2026-04-07T15:07:52Z</time></trkpt><trkpt lat="45.449658702686314" lon="11.30304118625372"><ele>41.0</ele><time>2026-04-07T15:07:53Z</time></trkpt><trkpt lat="45.44977670315972" lon="11.3030771466397"><ele>41.0</ele><time>2026-04-07T15:07:54Z</time></trkpt><trkpt lat="45.449907588209136" lon="11.30311639917599"><ele>41.0</ele><time>2026-04-07T15:07:55Z</time></trkpt><trkpt lat="45.4500348423362" lon="11.303153802718553"><ele>41.0</ele><time>2026-04-07T15:07:56Z</time></trkpt><trkpt lat="45.450168827824086" lon="11.303192153340161"><ele>41.0</ele><time>2026-04-07T15:07:57Z</time></trkpt><trkpt lat="45.45030565776784" lon="11.3032280147727"><ele>41.0</ele><time>2026-04-07T15:07:58Z</time></trkpt><trkpt lat="45.4504320411038" lon="11.303264681080734"><ele>40.75</ele><time>2026-04-07T15:07:59Z</time></trkpt><trkpt lat="45.450555137064406" lon="11.303299350323428"><ele>40.5</ele><time>2026-04-07T15:08:00Z</time></trkpt><trkpt lat="45.4506746660081" lon="11.30332881965474"><ele>40.25</ele><time>2026-04-07T15:08:01Z</time></trkpt><trkpt lat="45.45079633007435" lon="11.303348984735587"><ele>40.0</ele><time>2026-04-07T15:08:02Z</time></trkpt><trkpt lat="45.45092010532128" lon="11.30335769939857"><ele>40.0</ele><time>2026-04-07T15:08:03Z</time></trkpt><trkpt lat="45.451042185741656" lon="11.30335446615721"><ele>40.0</ele><time>2026-04-07T15:08:04Z</time></trkpt><trkpt lat="45.4511623956296" lon="11.30333622262117"><ele>40.0</ele><time>2026-04-07T15:08:05Z</time></trkpt><trkpt lat="45.451268933934735" lon="11.303308687446165"><ele>40.0</ele><time>2026-04-07T15:08:06Z</time></trkpt><trkpt lat="45.45137258347214" lon="11.303274821466182"><ele>40.4</ele><time>2026-04-07T15:08:07Z</time></trkpt><trkpt lat="45.451476510719715" lon="11.303242069871054"><ele>40.8</ele><time>2026-04-07T15:08:08Z</time></trkpt><trkpt lat="45.451579734257756" lon="11.303214788042261"><ele>41.2</ele><time>2026-04-07T15:08:09Z</time></trkpt><trkpt lat="45.451671248674614" lon="11.303193919113406"><ele>41.6</ele><time>2026-04-07T15:08:10Z</time></trkpt><trkpt lat="45.451749610024606" lon="11.303178359521242"><ele>42.0</ele><time>2026-04-07T15:08:11Z</time></trkpt><trkpt lat="45.45183886011037" lon="11.303166786344221"><ele>42.0</ele><time>2026-04-07T15:08:12Z</time></trkpt><trkpt lat="45.45191533124499" lon="11.303171170029058"><ele>42.0</ele><time>2026-04-07T15:08:13Z</time></trkpt><trkpt lat="45.45198034810919" lon="11.303182943074182"><ele>42.0</ele><time>2026-04-07T15:08:14Z</time></trkpt><trkpt lat="45.452044525613196" lon="11.303199050582984"><ele>42.0</ele><time>2026-04-07T15:08:15Z</time></trkpt><trkpt lat="45.452112008449525" lon="11.303200546101742"><ele>42.0</ele><time>2026-04-07T15:08:16Z</time></trkpt><trkpt lat="45.452184051440355" lon="11.303194506401292"><ele>42.0</ele><time>2026-04-07T15:08:17Z</time></trkpt><trkpt lat="45.452244954000925" lon="11.30308562591736"><ele>42.0</ele><time>2026-04-07T15:08:18Z</time></trkpt><trkpt lat="45.45232740398529" lon="11.302982136404344"><ele>42.75</ele><time>2026-04-07T15:08:19Z</time></trkpt><trkpt lat="45.452457379589944" lon="11.302922218405257"><ele>43.5</ele><time>2026-04-07T15:08:20Z</time></trkpt><trkpt lat="45.452596337805865" lon="11.302857307393545"><ele>44.25</ele><time>2026-04-07T15:08:21Z</time></trkpt><trkpt lat="45.45271797716551" lon="11.302830502847746"><ele>45.0</ele><time>2026-04-07T15:08:22Z</time></trkpt><trkpt lat="45.45282052917176" lon="11.302793509053757"><ele>45.0</ele><time>2026-04-07T15:08:23Z</time></trkpt><trkpt lat="45.45291142094554" lon="11.302761332864854"><ele>45.0</ele><time>2026-04-07T15:08:24Z</time></trkpt><trkpt lat="45.45299372490001" lon="11.302733394003111"><ele>45.0</ele><time>2026-04-07T15:08:25Z</time></trkpt><trkpt lat="45.45309755672655" lon="11.302694995697635"><ele>45.0</ele><time>2026-04-07T15:08:25.999Z</time></trkpt><trkpt lat="45.45322593037077" lon="11.302642528482668"><ele>45.0</ele><time>2026-04-07T15:08:26.999Z</time></trkpt><trkpt lat="45.45338605713249" lon="11.302599647039585"><ele>44.0</ele><time>2026-04-07T15:08:27.999Z</time></trkpt><trkpt lat="45.453574607538044" lon="11.302533768450445"><ele>43.0</ele><time>2026-04-07T15:08:28.999Z</time></trkpt><trkpt lat="45.45378504951372" lon="11.302459570440666"><ele>42.0</ele><time>2026-04-07T15:08:29.999Z</time></trkpt><trkpt lat="45.454015671908884" lon="11.302402991574796"><ele>42.0</ele><time>2026-04-07T15:08:30.999Z</time></trkpt><trkpt lat="45.45425584015978" lon="11.30231276576339"><ele>42.0</ele><time>2026-04-07T15:08:31.999Z</time></trkpt><trkpt lat="45.45451172829482" lon="11.302211404823115"><ele>43.0</ele><time>2026-04-07T15:08:32.999Z</time></trkpt><trkpt lat="45.45475134354739" lon="11.302105173813151"><ele>44.0</ele><time>2026-04-07T15:08:33.999Z</time></trkpt><trkpt lat="45.454985621660704" lon="11.30198121010419"><ele>44.0</ele><time>2026-04-07T15:08:34.999Z</time></trkpt><trkpt lat="45.4552158719822" lon="11.301838785484982"><ele>44.0</ele><time>2026-04-07T15:08:35.999Z</time></trkpt><trkpt lat="45.455445962776565" lon="11.30166701773914"><ele>44.0</ele><time>2026-04-07T15:08:36.999Z</time></trkpt><trkpt lat="45.45567748088579" lon="11.301457326206718"><ele>44.0</ele><time>2026-04-07T15:08:37.999Z</time></trkpt><trkpt lat="45.45590858078686" lon="11.30122128987467"><ele>44.0</ele><time>2026-04-07T15:08:38.999Z</time></trkpt><trkpt lat="45.456145425406646" lon="11.300975468987"><ele>44.0</ele><time>2026-04-07T15:08:39.999Z</time></trkpt><trkpt lat="45.45638364416525" lon="11.300722507630391"><ele>43.0</ele><time>2026-04-07T15:08:40.999Z</time></trkpt><trkpt lat="45.45660994262226" lon="11.300487034182055"><ele>42.0</ele><time>2026-04-07T15:08:41.999Z</time></trkpt><trkpt lat="45.45682145551556" lon="11.300277931845823"><ele>42.0</ele><time>2026-04-07T15:08:42.999Z</time></trkpt><trkpt lat="45.457017798237324" lon="11.300078099379897"><ele>42.0</ele><time>2026-04-07T15:08:43.999Z</time></trkpt><trkpt lat="45.457206530996125" lon="11.29988340729989"><ele>42.666666666666664</ele><time>2026-04-07T15:08:44.999Z</time></trkpt><trkpt lat="45.45738430092853" lon="11.29969918521721"><ele>43.33333333333333</ele><time>2026-04-07T15:08:45.999Z</time></trkpt><trkpt lat="45.45756043533417" lon="11.299514723665952"><ele>44.0</ele><time>2026-04-07T15:08:46.999Z</time></trkpt><trkpt lat="45.457729155942" lon="11.299334453029214"><ele>44.0</ele><time>2026-04-07T15:08:47.999Z</time></trkpt><trkpt lat="45.457893849631226" lon="11.299161071999979"><ele>44.0</ele><time>2026-04-07T15:08:48.999Z</time></trkpt><trkpt lat="45.45806086933076" lon="11.298988301277086"><ele>44.0</ele><time>2026-04-07T15:08:49.999Z</time></trkpt><trkpt lat="45.45823271819735" lon="11.298809312303499"><ele>44.33333333333333</ele><time>2026-04-07T15:08:50.999Z</time></trkpt><trkpt lat="45.458412712577605" lon="11.298629120254828"><ele>44.666666666666664</ele><time>2026-04-07T15:08:51.999Z</time></trkpt><trkpt lat="45.45859317264139" lon="11.29844143568975"><ele>45.0</ele><time>2026-04-07T15:08:52.999Z</time></trkpt><trkpt lat="45.4587738053978" lon="11.298250403119054"><ele>45.0</ele><time>2026-04-07T15:08:53.999Z</time></trkpt><trkpt lat="45.45894055192844" lon="11.298074742368668"><ele>45.0</ele><time>2026-04-07T15:08:54.999Z</time></trkpt><trkpt lat="45.45910070790631" lon="11.297908496381481"><ele>45.0</ele><time>2026-04-07T15:08:55.999Z</time></trkpt><trkpt lat="45.459262022400345" lon="11.297745410811833"><ele>45.0</ele><time>2026-04-07T15:08:56.999Z</time></trkpt><trkpt lat="45.45942903312592" lon="11.29757446573955"><ele>45.0</ele><time>2026-04-07T15:08:57.999Z</time></trkpt><trkpt lat="45.45959991592706" lon="11.297398759293309"><ele>45.0</ele><time>2026-04-07T15:08:58.999Z</time></trkpt><trkpt lat="45.45976425532494" lon="11.297228079117328"><ele>45.333333333333336</ele><time>2026-04-07T15:08:59.999Z</time></trkpt><trkpt lat="45.459918412059494" lon="11.297068523943706"><ele>45.66666666666667</ele><time>2026-04-07T15:09:00.999Z</time></trkpt><trkpt lat="45.46007015517776" lon="11.29691092261599"><ele>46.0</ele><time>2026-04-07T15:09:01.999Z</time></trkpt><trkpt lat="45.46023007214418" lon="11.296745460386326"><ele>46.0</ele><time>2026-04-07T15:09:02.999Z</time></trkpt><trkpt lat="45.46039230056122" lon="11.296583503684518"><ele>46.0</ele><time>2026-04-07T15:09:03.999Z</time></trkpt><trkpt lat="45.46054904186954" lon="11.296419884593897"><ele>46.0</ele><time>2026-04-07T15:09:04.999Z</time></trkpt><trkpt lat="45.460703482176555" lon="11.296263252390055"><ele>46.333333333333336</ele><time>2026-04-07T15:09:05.999Z</time></trkpt><trkpt lat="45.46084211911711" lon="11.296121504326926"><ele>46.666666666666664</ele><time>2026-04-07T15:09:06.999Z</time></trkpt><trkpt lat="45.46096836088387" lon="11.295991261470036"><ele>47.0</ele><time>2026-04-07T15:09:07.999Z</time></trkpt><trkpt lat="45.461093145519094" lon="11.295864942110391"><ele>47.0</ele><time>2026-04-07T15:09:08.999Z</time></trkpt><trkpt lat="45.4612173709315" lon="11.295735453405012"><ele>47.0</ele><time>2026-04-07T15:09:09.999Z</time></trkpt><trkpt lat="45.46133882785389" lon="11.295588459058445"><ele>47.0</ele><time>2026-04-07T15:09:10.999Z</time></trkpt><trkpt lat="45.46148248367478" lon="11.295461094282036"><ele>47.0</ele><time>2026-04-07T15:09:11.999Z</time></trkpt><trkpt lat="45.46157938235044" lon="11.295254417107028"><ele>47.0</ele><time>2026-04-07T15:09:12.999Z</time></trkpt><trkpt lat="45.46169169705264" lon="11.295093655551721"><ele>47.0</ele><time>2026-04-07T15:09:13.999Z</time></trkpt><trkpt lat="45.46180316621735" lon="11.294927103879461"><ele>47.0</ele><time>2026-04-07T15:09:14.999Z</time></trkpt><trkpt lat="45.46191288211168" lon="11.29475961802188"><ele>47.0</ele><time>2026-04-07T15:09:15.999Z</time></trkpt><trkpt lat="45.46201743168847" lon="11.294585384049048"><ele>47.0</ele><time>2026-04-07T15:09:16.999Z</time></trkpt><trkpt lat="45.46211079877308" lon="11.294406509211882"><ele>47.0</ele><time>2026-04-07T15:09:17.999Z</time></trkpt><trkpt lat="45.462185187291276" lon="11.294239112051137"><ele>47.0</ele><time>2026-04-07T15:09:18.999Z</time></trkpt><trkpt lat="45.46225295233671" lon="11.294080300985826"><ele>47.0</ele><time>2026-04-07T15:09:19.999Z</time></trkpt><trkpt lat="45.46231803972198" lon="11.293926508200887"><ele>47.0</ele><time>2026-04-07T15:09:20.999Z</time></trkpt><trkpt lat="45.46238931572435" lon="11.293774568683544"><ele>47.0</ele><time>2026-04-07T15:09:21.999Z</time></trkpt><trkpt lat="45.462459733404565" lon="11.293613010213218"><ele>47.0</ele><time>2026-04-07T15:09:22.999Z</time></trkpt><trkpt lat="45.46252938624585" lon="11.293446576381097"><ele>47.0</ele><time>2026-04-07T15:09:23.999Z</time></trkpt><trkpt lat="45.46259545654041" lon="11.293281058181156"><ele>47.0</ele><time>2026-04-07T15:09:24.999Z</time></trkpt><trkpt lat="45.46266196090742" lon="11.293102749790556"><ele>47.666666666666664</ele><time>2026-04-07T15:09:25.999Z</time></trkpt><trkpt lat="45.46272724172679" lon="11.292917773193889"><ele>48.33333333333333</ele><time>2026-04-07T15:09:26.999Z</time></trkpt><trkpt lat="45.46279425405577" lon="11.292718100555096"><ele>49.0</ele><time>2026-04-07T15:09:27.999Z</time></trkpt><trkpt lat="45.462862361522745" lon="11.292511305118477"><ele>49.0</ele><time>2026-04-07T15:09:28.999Z</time></trkpt><trkpt lat="45.462929805863325" lon="11.29229153312285"><ele>49.0</ele><time>2026-04-07T15:09:29.999Z</time></trkpt><trkpt lat="45.462998724224825" lon="11.292072213856704"><ele>49.0</ele><time>2026-04-07T15:09:30.999Z</time></trkpt><trkpt lat="45.463066993333726" lon="11.29185074030227"><ele>49.0</ele><time>2026-04-07T15:09:31.999Z</time></trkpt><trkpt lat="45.46313141931232" lon="11.291635837785401"><ele>49.0</ele><time>2026-04-07T15:09:32.999Z</time></trkpt><trkpt lat="45.46319832873029" lon="11.291408061486905"><ele>49.0</ele><time>2026-04-07T15:09:33.999Z</time></trkpt><trkpt lat="45.463268795718385" lon="11.291166150468333"><ele>49.0</ele><time>2026-04-07T15:09:34.999Z</time></trkpt><trkpt lat="45.4633324605006" lon="11.290917249028796"><ele>49.0</ele><time>2026-04-07T15:09:35.999Z</time></trkpt><trkpt lat="45.46339083414223" lon="11.290671023123659"><ele>49.0</ele><time>2026-04-07T15:09:36.999Z</time></trkpt><trkpt lat="45.46343824467731" lon="11.290426915164101"><ele>49.0</ele><time>2026-04-07T15:09:37.999Z</time></trkpt><trkpt lat="45.463479865958" lon="11.290182054681672"><ele>49.0</ele><time>2026-04-07T15:09:38.998Z</time></trkpt><trkpt lat="45.46351512195528" lon="11.289938657178965"><ele>49.0</ele><time>2026-04-07T15:09:39.998Z</time></trkpt><trkpt lat="45.46354832421662" lon="11.289704892304371"><ele>49.33333333333333</ele><time>2026-04-07T15:09:41Z</time></trkpt><trkpt lat="45.463575916327294" lon="11.289474307957631"><ele>49.66666666666667</ele><time>2026-04-07T15:09:42Z</time></trkpt><trkpt lat="45.463601259723085" lon="11.289250698250616"><ele>50.0</ele><time>2026-04-07T15:09:43Z</time></trkpt><trkpt lat="45.4636235574808" lon="11.289033057908682"><ele>50.0</ele><time>2026-04-07T15:09:44Z</time></trkpt><trkpt lat="45.46364141309355" lon="11.288815331039082"><ele>50.0</ele><time>2026-04-07T15:09:45Z</time></trkpt><trkpt lat="45.463659190391716" lon="11.288598119465874"><ele>50.0</ele><time>2026-04-07T15:09:46Z</time></trkpt><trkpt lat="45.4636744757646" lon="11.288383122149039"><ele>50.0</ele><time>2026-04-07T15:09:47Z</time></trkpt><trkpt lat="45.463689688796386" lon="11.288170379782027"><ele>50.0</ele><time>2026-04-07T15:09:48Z</time></trkpt><trkpt lat="45.463705145078684" lon="11.287956447801516"><ele>50.0</ele><time>2026-04-07T15:09:49Z</time></trkpt><trkpt lat="45.46372431144807" lon="11.287754548234654"><ele>50.0</ele><time>2026-04-07T15:09:50Z</time></trkpt><trkpt lat="45.463740255484375" lon="11.287564557180623"><ele>50.0</ele><time>2026-04-07T15:09:51Z</time></trkpt><trkpt lat="45.4637556338444" lon="11.287372950325254"><ele>50.0</ele><time>2026-04-07T15:09:52Z</time></trkpt><trkpt lat="45.46377198563229" lon="11.287186479662031"><ele>50.0</ele><time>2026-04-07T15:09:53Z</time></trkpt><trkpt lat="45.463786627838275" lon="11.286998708008008"><ele>50.0</ele><time>2026-04-07T15:09:54Z</time></trkpt><trkpt lat="45.46380343179636" lon="11.286816316062872"><ele>49.75</ele><time>2026-04-07T15:09:55Z</time></trkpt><trkpt lat="45.4638173643704" lon="11.286639085013942"><ele>49.5</ele><time>2026-04-07T15:09:56Z</time></trkpt><trkpt lat="45.46382931223483" lon="11.28646989219122"><ele>49.25</ele><time>2026-04-07T15:09:57Z</time></trkpt><trkpt lat="45.463834778138384" lon="11.28628600090113"><ele>49.0</ele><time>2026-04-07T15:09:58Z</time></trkpt><trkpt lat="45.46383757235543" lon="11.286100395412246"><ele>49.25</ele><time>2026-04-07T15:09:59Z</time></trkpt><trkpt lat="45.463840175296696" lon="11.285914857426992"><ele>49.5</ele><time>2026-04-07T15:10:00Z</time></trkpt><trkpt lat="45.463842332671526" lon="11.285737550711817"><ele>49.75</ele><time>2026-04-07T15:10:01Z</time></trkpt><trkpt lat="45.463842041719175" lon="11.285573141741477"><ele>50.0</ele><time>2026-04-07T15:10:02Z</time></trkpt><trkpt lat="45.463840759263114" lon="11.285404331561253"><ele>50.0</ele><time>2026-04-07T15:10:03Z</time></trkpt><trkpt lat="45.463837126881096" lon="11.285232856875371"><ele>50.0</ele><time>2026-04-07T15:10:04Z</time></trkpt><trkpt lat="45.463829782310654" lon="11.285061335872284"><ele>50.0</ele><time>2026-04-07T15:10:05Z</time></trkpt><trkpt lat="45.46381965233489" lon="11.28491080440133"><ele>50.0</ele><time>2026-04-07T15:10:06Z</time></trkpt><trkpt lat="45.4638104871548" lon="11.284773037758594"><ele>50.0</ele><time>2026-04-07T15:10:07Z</time></trkpt><trkpt lat="45.463806532964874" lon="11.284654922563547"><ele>50.00000000000001</ele><time>2026-04-07T15:10:08Z</time></trkpt><trkpt lat="45.463803837805884" lon="11.284541726745953"><ele>50.0</ele><time>2026-04-07T15:10:09Z</time></trkpt><trkpt lat="45.46380405285713" lon="11.284439724437314"><ele>50.0</ele><time>2026-04-07T15:10:10Z</time></trkpt><trkpt lat="45.46380618889999" lon="11.284341554993576"><ele>50.0</ele><time>2026-04-07T15:10:11Z</time></trkpt><trkpt lat="45.46381671690268" lon="11.28417861010345"><ele>50.00000000000001</ele><time>2026-04-07T15:10:13Z</time></trkpt><trkpt lat="45.46382903347334" lon="11.284035290473302"><ele>50.0</ele><time>2026-04-07T15:10:15Z</time></trkpt><trkpt lat="45.46386004814285" lon="11.28386919246258"><ele>50.333333333333336</ele><time>2026-04-07T15:10:17Z</time></trkpt><trkpt lat="45.46388916002667" lon="11.283788431522856"><ele>50.66666666666667</ele><time>2026-04-07T15:10:18Z</time></trkpt><trkpt lat="45.463936502879164" lon="11.283704113958242"><ele>51.0</ele><time>2026-04-07T15:10:19Z</time></trkpt><trkpt lat="45.46398380765756" lon="11.283603989952274"><ele>51.33333333333333</ele><time>2026-04-07T15:10:20Z</time></trkpt><trkpt lat="45.46409654247549" lon="11.283615009151914"><ele>51.666666666666664</ele><time>2026-04-07T15:10:21Z</time></trkpt><trkpt lat="45.464205291307124" lon="11.283642337958012"><ele>52.0</ele><time>2026-04-07T15:10:22Z</time></trkpt><trkpt lat="45.464320557484584" lon="11.283729873172485"><ele>52.0</ele><time>2026-04-07T15:10:23Z</time></trkpt><trkpt lat="45.46446487348204" lon="11.283793644948162"><ele>52.0</ele><time>2026-04-07T15:10:24Z</time></trkpt><trkpt lat="45.46462095194408" lon="11.283911948032054"><ele>52.0</ele><time>2026-04-07T15:10:25Z</time></trkpt><trkpt lat="45.464796001277776" lon="11.283995323553683"><ele>51.33333333333333</ele><time>2026-04-07T15:10:26Z</time></trkpt><trkpt lat="45.46497810062681" lon="11.284126684524281"><ele>50.66666666666667</ele><time>2026-04-07T15:10:27Z</time></trkpt><trkpt lat="45.46518759642539" lon="11.284252644344825"><ele>50.0</ele><time>2026-04-07T15:10:28Z</time></trkpt><trkpt lat="45.465422553253426" lon="11.28439359707624"><ele>49.5</ele><time>2026-04-07T15:10:29Z</time></trkpt><trkpt lat="45.465668893201894" lon="11.284541340931856"><ele>49.0</ele><time>2026-04-07T15:10:30Z</time></trkpt><trkpt lat="45.46592741089982" lon="11.284698687551973"><ele>49.0</ele><time>2026-04-07T15:10:31Z</time></trkpt><trkpt lat="45.466186792623866" lon="11.284863456276984"><ele>49.0</ele><time>2026-04-07T15:10:31.999Z</time></trkpt><trkpt lat="45.46644517461315" lon="11.285012071399438"><ele>48.0</ele><time>2026-04-07T15:10:32.999Z</time></trkpt><trkpt lat="45.46670398639009" lon="11.285167969854637"><ele>47.0</ele><time>2026-04-07T15:10:33.999Z</time></trkpt><trkpt lat="45.466961879641765" lon="11.285323133022391"><ele>48.0</ele><time>2026-04-07T15:10:34.999Z</time></trkpt><trkpt lat="45.46720546490421" lon="11.28547358056988"><ele>49.0</ele><time>2026-04-07T15:10:35.999Z</time></trkpt><trkpt lat="45.467446995264815" lon="11.28562221942369"><ele>49.0</ele><time>2026-04-07T15:10:36.999Z</time></trkpt><trkpt lat="45.4676889026128" lon="11.285765830414368"><ele>49.0</ele><time>2026-04-07T15:10:37.999Z</time></trkpt><trkpt lat="45.46792440925017" lon="11.285904661903741"><ele>48.0</ele><time>2026-04-07T15:10:38.999Z</time></trkpt><trkpt lat="45.46816260821474" lon="11.286046751483333"><ele>47.0</ele><time>2026-04-07T15:10:39.999Z</time></trkpt><trkpt lat="45.46839278240548" lon="11.286183630715179"><ele>47.0</ele><time>2026-04-07T15:10:40.999Z</time></trkpt><trkpt lat="45.468612307057114" lon="11.28631860310823"><ele>47.0</ele><time>2026-04-07T15:10:41.999Z</time></trkpt><trkpt lat="45.46882727995003" lon="11.286447477206782"><ele>48.0</ele><time>2026-04-07T15:10:42.999Z</time></trkpt><trkpt lat="45.46903364650614" lon="11.286568784029399"><ele>49.0</ele><time>2026-04-07T15:10:43.999Z</time></trkpt><trkpt lat="45.469238005766705" lon="11.286687166753975"><ele>50.0</ele><time>2026-04-07T15:10:44.999Z</time></trkpt><trkpt lat="45.46943423343612" lon="11.286812348318112"><ele>50.66666666666667</ele><time>2026-04-07T15:10:45.999Z</time></trkpt><trkpt lat="45.46963478033482" lon="11.286930604611927"><ele>51.33333333333333</ele><time>2026-04-07T15:10:46.999Z</time></trkpt><trkpt lat="45.46982313233267" lon="11.287055299172449"><ele>52.0</ele><time>2026-04-07T15:10:47.999Z</time></trkpt><trkpt lat="45.47000729291865" lon="11.287190683391"><ele>51.666666666666664</ele><time>2026-04-07T15:10:48.999Z</time></trkpt><trkpt lat="45.470195986423164" lon="11.28733848982205"><ele>51.33333333333333</ele><time>2026-04-07T15:10:49.999Z</time></trkpt><trkpt lat="45.470381297651755" lon="11.287492485252917"><ele>51.0</ele><time>2026-04-07T15:10:50.999Z</time></trkpt><trkpt lat="45.47056074072641" lon="11.28764788612799"><ele>51.66666666666667</ele><time>2026-04-07T15:10:51.999Z</time></trkpt><trkpt lat="45.470740688717626" lon="11.287810395926442"><ele>52.333333333333336</ele><time>2026-04-07T15:10:52.999Z</time></trkpt><trkpt lat="45.47091701528001" lon="11.287989056627284"><ele>53.0</ele><time>2026-04-07T15:10:53.999Z</time></trkpt><trkpt lat="45.47107738818303" lon="11.288191781094426"><ele>53.0</ele><time>2026-04-07T15:10:54.999Z</time></trkpt><trkpt lat="45.47121464435212" lon="11.288430087593321"><ele>53.0</ele><time>2026-04-07T15:10:55.999Z</time></trkpt><trkpt lat="45.471369623464106" lon="11.288633067784675"><ele>53.0</ele><time>2026-04-07T15:10:56.999Z</time></trkpt><trkpt lat="45.47151802321848" lon="11.288859526716612"><ele>53.0</ele><time>2026-04-07T15:10:57.999Z</time></trkpt><trkpt lat="45.47166852389292" lon="11.28907718883034"><ele>53.0</ele><time>2026-04-07T15:10:58.999Z</time></trkpt><trkpt lat="45.471820675455454" lon="11.289284922441855"><ele>53.0</ele><time>2026-04-07T15:10:59.999Z</time></trkpt><trkpt lat="45.47199128927156" lon="11.289471490687268"><ele>53.66666666666667</ele><time>2026-04-07T15:11:00.999Z</time></trkpt><trkpt lat="45.4721824060238" lon="11.289606335915812"><ele>54.33333333333333</ele><time>2026-04-07T15:11:01.999Z</time></trkpt><trkpt lat="45.472382135329774" lon="11.289683055801605"><ele>55.0</ele><time>2026-04-07T15:11:02.999Z</time></trkpt><trkpt lat="45.47258431049438" lon="11.28973084825139"><ele>55.0</ele><time>2026-04-07T15:11:03.999Z</time></trkpt><trkpt lat="45.47279169287251" lon="11.289746623661966"><ele>55.0</ele><time>2026-04-07T15:11:04.999Z</time></trkpt><trkpt lat="45.47299704912695" lon="11.289745486200674"><ele>55.0</ele><time>2026-04-07T15:11:05.999Z</time></trkpt><trkpt lat="45.47319183791953" lon="11.289766134005175"><ele>56.0</ele><time>2026-04-07T15:11:06.999Z</time></trkpt><trkpt lat="45.47337303813342" lon="11.28978873046274"><ele>57.0</ele><time>2026-04-07T15:11:07.999Z</time></trkpt><trkpt lat="45.47354318551279" lon="11.289789459839653"><ele>58.0</ele><time>2026-04-07T15:11:08.999Z</time></trkpt><trkpt lat="45.473709988843424" lon="11.289814308482276"><ele>58.33333333333333</ele><time>2026-04-07T15:11:09.999Z</time></trkpt><trkpt lat="45.47388841895207" lon="11.289642709665626"><ele>58.66666666666667</ele><time>2026-04-07T15:11:10.999Z</time></trkpt><trkpt lat="45.47406335612386" lon="11.289502371809977"><ele>59.0</ele><time>2026-04-07T15:11:11.999Z</time></trkpt><trkpt lat="45.4742389723212" lon="11.289347327092571"><ele>59.0</ele><time>2026-04-07T15:11:12.999Z</time></trkpt><trkpt lat="45.474409276881865" lon="11.289207674059941"><ele>59.0</ele><time>2026-04-07T15:11:13.999Z</time></trkpt><trkpt lat="45.47457348724649" lon="11.289073759924808"><ele>59.0</ele><time>2026-04-07T15:11:14.999Z</time></trkpt><trkpt lat="45.47471820506662" lon="11.288952731636078"><ele>59.5</ele><time>2026-04-07T15:11:15.999Z</time></trkpt><trkpt lat="45.474845284973" lon="11.288849217321388"><ele>60.0</ele><time>2026-04-07T15:11:16.999Z</time></trkpt><trkpt lat="45.47495430939945" lon="11.288770604007457"><ele>60.5</ele><time>2026-04-07T15:11:17.999Z</time></trkpt><trkpt lat="45.47505196621906" lon="11.288724279651104"><ele>61.0</ele><time>2026-04-07T15:11:18.999Z</time></trkpt><trkpt lat="45.475146936964435" lon="11.288696979960248"><ele>61.0</ele><time>2026-04-07T15:11:19.999Z</time></trkpt><trkpt lat="45.47522754417262" lon="11.2886909841747"><ele>60.99999999999999</ele><time>2026-04-07T15:11:20.999Z</time></trkpt><trkpt lat="45.47529251945133" lon="11.2886909082402"><ele>60.99999999999999</ele><time>2026-04-07T15:11:21.999Z</time></trkpt><trkpt lat="45.47541587623461" lon="11.288686461048393"><ele>61.0</ele><time>2026-04-07T15:11:23.999Z</time></trkpt><trkpt lat="45.47548920966834" lon="11.28868916050533"><ele>61.0</ele><time>2026-04-07T15:11:24.999Z</time></trkpt><trkpt lat="45.475605273572256" lon="11.28869393850806"><ele>61.49999999999999</ele><time>2026-04-07T15:11:26.999Z</time></trkpt><trkpt lat="45.475674471849885" lon="11.288695298031119"><ele>62.0</ele><time>2026-04-07T15:11:27.999Z</time></trkpt><trkpt lat="45.47574647685989" lon="11.288697553571915"><ele>62.5</ele><time>2026-04-07T15:11:28.999Z</time></trkpt><trkpt lat="45.475818735237496" lon="11.28869924452013"><ele>63.0</ele><time>2026-04-07T15:11:29.999Z</time></trkpt><trkpt lat="45.47589901117309" lon="11.288696067911987"><ele>63.49999999999999</ele><time>2026-04-07T15:11:30.999Z</time></trkpt><trkpt lat="45.47602317405651" lon="11.288671232993575"><ele>64.0</ele><time>2026-04-07T15:11:31.999Z</time></trkpt><trkpt lat="45.47617943290648" lon="11.288677323530056"><ele>64.33333333333333</ele><time>2026-04-07T15:11:32.999Z</time></trkpt><trkpt lat="45.47637899719673" lon="11.288695952273589"><ele>64.66666666666667</ele><time>2026-04-07T15:11:33.999Z</time></trkpt><trkpt lat="45.47656658466049" lon="11.288678678878462"><ele>65.0</ele><time>2026-04-07T15:11:34.999Z</time></trkpt><trkpt lat="45.476748964824466" lon="11.288617941437819"><ele>65.0</ele><time>2026-04-07T15:11:35.999Z</time></trkpt><trkpt lat="45.47691021354055" lon="11.288533590451067"><ele>65.0</ele><time>2026-04-07T15:11:36.999Z</time></trkpt><trkpt lat="45.47706310073857" lon="11.288439736130258"><ele>65.0</ele><time>2026-04-07T15:11:37.999Z</time></trkpt><trkpt lat="45.47721401076701" lon="11.288369691333264"><ele>66.0</ele><time>2026-04-07T15:11:38.999Z</time></trkpt><trkpt lat="45.47735682852082" lon="11.288309271624396"><ele>67.0</ele><time>2026-04-07T15:11:39.999Z</time></trkpt><trkpt lat="45.47749270742399" lon="11.28824397198355"><ele>68.0</ele><time>2026-04-07T15:11:40.999Z</time></trkpt><trkpt lat="45.477615541473625" lon="11.288183893533404"><ele>69.0</ele><time>2026-04-07T15:11:41.999Z</time></trkpt><trkpt lat="45.477726361282656" lon="11.288129967597122"><ele>68.60000000000001</ele><time>2026-04-07T15:11:42.999Z</time></trkpt><trkpt lat="45.477828648817244" lon="11.288078982543439"><ele>68.2</ele><time>2026-04-07T15:11:43.999Z</time></trkpt><trkpt lat="45.47792149407057" lon="11.28803677026533"><ele>67.80000000000001</ele><time>2026-04-07T15:11:44.999Z</time></trkpt><trkpt lat="45.478010367227" lon="11.288004696589596"><ele>67.4</ele><time>2026-04-07T15:11:45.998Z</time></trkpt><trkpt lat="45.478092913140806" lon="11.287987949423902"><ele>67.0</ele><time>2026-04-07T15:11:47Z</time></trkpt><trkpt lat="45.47820954800631" lon="11.287992789910819"><ele>67.83333333333333</ele><time>2026-04-07T15:11:49Z</time></trkpt><trkpt lat="45.47827748201759" lon="11.287983843927732"><ele>68.66666666666666</ele><time>2026-04-07T15:11:50Z</time></trkpt><trkpt lat="45.47835842027459" lon="11.28794431516621"><ele>69.5</ele><time>2026-04-07T15:11:51Z</time></trkpt><trkpt lat="45.47842000818676" lon="11.28790094099063"><ele>70.33333333333333</ele><time>2026-04-07T15:11:52Z</time></trkpt><trkpt lat="45.47850853511382" lon="11.287850344608975"><ele>71.16666666666667</ele><time>2026-04-07T15:11:54Z</time></trkpt><trkpt lat="45.47859838830509" lon="11.287822055949146"><ele>72.0</ele><time>2026-04-07T15:11:56Z</time></trkpt><trkpt lat="45.47874295461546" lon="11.287758154450389"><ele>72.5</ele><time>2026-04-07T15:11:58Z</time></trkpt><trkpt lat="45.47885032222888" lon="11.28772009698014"><ele>73.0</ele><time>2026-04-07T15:11:59Z</time></trkpt><trkpt lat="45.47899288502368" lon="11.287702065701996"><ele>73.5</ele><time>2026-04-07T15:12:00Z</time></trkpt><trkpt lat="45.479134767002336" lon="11.287684387531947"><ele>74.0</ele><time>2026-04-07T15:12:01Z</time></trkpt><trkpt lat="45.479281111602965" lon="11.287646553965653"><ele>74.0</ele><time>2026-04-07T15:12:02Z</time></trkpt><trkpt lat="45.479416744918964" lon="11.287589398584284"><ele>74.0</ele><time>2026-04-07T15:12:03Z</time></trkpt><trkpt lat="45.47955703881263" lon="11.287522518232965"><ele>74.0</ele><time>2026-04-07T15:12:04Z</time></trkpt><trkpt lat="45.47967816947695" lon="11.287444600115139"><ele>74.0</ele><time>2026-04-07T15:12:05Z</time></trkpt><trkpt lat="45.479797239346" lon="11.2873384746656"><ele>74.75</ele><time>2026-04-07T15:12:06Z</time></trkpt><trkpt lat="45.47991750953193" lon="11.287216077028276"><ele>75.5</ele><time>2026-04-07T15:12:07Z</time></trkpt><trkpt lat="45.48003970466112" lon="11.287110092818034"><ele>76.25</ele><time>2026-04-07T15:12:08Z</time></trkpt><trkpt lat="45.48015835508566" lon="11.287019429620333"><ele>77.0</ele><time>2026-04-07T15:12:09Z</time></trkpt><trkpt lat="45.480266887510204" lon="11.286939415780113"><ele>77.0</ele><time>2026-04-07T15:12:10Z</time></trkpt><trkpt lat="45.4803614960754" lon="11.286876558555164"><ele>77.0</ele><time>2026-04-07T15:12:11Z</time></trkpt><trkpt lat="45.48044316849994" lon="11.286823313310428"><ele>77.0</ele><time>2026-04-07T15:12:12Z</time></trkpt><trkpt lat="45.480525431955215" lon="11.286774794286908"><ele>77.0</ele><time>2026-04-07T15:12:13Z</time></trkpt><trkpt lat="45.48059871145201" lon="11.286744549136122"><ele>77.0</ele><time>2026-04-07T15:12:14Z</time></trkpt><trkpt lat="45.480680118401146" lon="11.286809088670383"><ele>77.75</ele><time>2026-04-07T15:12:16Z</time></trkpt><trkpt lat="45.48064838073231" lon="11.287013630523187"><ele>78.5</ele><time>2026-04-07T15:12:18Z</time></trkpt><trkpt lat="45.48060354406679" lon="11.287151429262787"><ele>79.25</ele><time>2026-04-07T15:12:19Z</time></trkpt><trkpt lat="45.48055811252167" lon="11.287307573125837"><ele>80.0</ele><time>2026-04-07T15:12:20Z</time></trkpt><trkpt lat="45.480509548671776" lon="11.287480538962388"><ele>80.0</ele><time>2026-04-07T15:12:21Z</time></trkpt><trkpt lat="45.480459536189564" lon="11.28765878642365"><ele>80.0</ele><time>2026-04-07T15:12:22Z</time></trkpt><trkpt lat="45.48039980217635" lon="11.287824944492334"><ele>80.0</ele><time>2026-04-07T15:12:23Z</time></trkpt><trkpt lat="45.480328075743145" lon="11.287973335653932"><ele>80.0</ele><time>2026-04-07T15:12:24Z</time></trkpt><trkpt lat="45.480245232657744" lon="11.288113454394445"><ele>79.25</ele><time>2026-04-07T15:12:25Z</time></trkpt><trkpt lat="45.48016224895828" lon="11.288242116835772"><ele>78.5</ele><time>2026-04-07T15:12:26Z</time></trkpt><trkpt lat="45.480084135608465" lon="11.288375015066686"><ele>77.75</ele><time>2026-04-07T15:12:27Z</time></trkpt><trkpt lat="45.48001217702515" lon="11.288498080753442"><ele>77.0</ele><time>2026-04-07T15:12:28Z</time></trkpt><trkpt lat="45.47994258778367" lon="11.288603083370926"><ele>77.0</ele><time>2026-04-07T15:12:29Z</time></trkpt><trkpt lat="45.47988059644283" lon="11.288698630689641"><ele>77.0</ele><time>2026-04-07T15:12:30Z</time></trkpt><trkpt lat="45.47982930272233" lon="11.28877927886552"><ele>77.0</ele><time>2026-04-07T15:12:31Z</time></trkpt><trkpt lat="45.47976470111603" lon="11.288873794531835"><ele>77.0</ele><time>2026-04-07T15:12:33Z</time></trkpt><trkpt lat="45.47971685202348" lon="11.288965193572238"><ele>77.0</ele><time>2026-04-07T15:12:37Z</time></trkpt><trkpt lat="45.479877751826045" lon="11.289106169020819"><ele>77.25</ele><time>2026-04-07T15:12:38Z</time></trkpt><trkpt lat="45.47996667268891" lon="11.289175313854777"><ele>77.5</ele><time>2026-04-07T15:12:39Z</time></trkpt><trkpt lat="45.480070001951695" lon="11.289244125385913"><ele>77.75</ele><time>2026-04-07T15:12:40Z</time></trkpt><trkpt lat="45.48019074310604" lon="11.289338232103505"><ele>78.0</ele><time>2026-04-07T15:12:40.999Z</time></trkpt><trkpt lat="45.480318071616644" lon="11.289435994300446"><ele>78.5</ele><time>2026-04-07T15:12:41.999Z</time></trkpt><trkpt lat="45.48045151090649" lon="11.289529669739675"><ele>79.0</ele><time>2026-04-07T15:12:42.999Z</time></trkpt><trkpt lat="45.48059075085043" lon="11.28960327276932"><ele>79.5</ele><time>2026-04-07T15:12:43.999Z</time></trkpt><trkpt lat="45.48072490259265" lon="11.289621946780194"><ele>80.0</ele><time>2026-04-07T15:12:44.999Z</time></trkpt><trkpt lat="45.48085497118149" lon="11.289603806773547"><ele>80.0</ele><time>2026-04-07T15:12:45.999Z</time></trkpt><trkpt lat="45.48096378642888" lon="11.289545597207056"><ele>80.0</ele><time>2026-04-07T15:12:46.999Z</time></trkpt><trkpt lat="45.481051150710506" lon="11.289455024307463"><ele>80.0</ele><time>2026-04-07T15:12:47.999Z</time></trkpt><trkpt lat="45.48113639623644" lon="11.28935269063789"><ele>80.0</ele><time>2026-04-07T15:12:48.999Z</time></trkpt><trkpt lat="45.48124818706684" lon="11.289336772645292"><ele>80.0</ele><time>2026-04-07T15:12:49.999Z</time></trkpt><trkpt lat="45.48136032975021" lon="11.289350693271462"><ele>82.66666666666667</ele><time>2026-04-07T15:12:50.999Z</time></trkpt><trkpt lat="45.48150225594685" lon="11.289381486966068"><ele>85.33333333333333</ele><time>2026-04-07T15:12:51.999Z</time></trkpt><trkpt lat="45.481656725866614" lon="11.28943536497889"><ele>88.0</ele><time>2026-04-07T15:12:52.999Z</time></trkpt><trkpt lat="45.48183542467991" lon="11.289511904428867"><ele>88.0</ele><time>2026-04-07T15:12:53.999Z</time></trkpt><trkpt lat="45.482020716204886" lon="11.289606310587601"><ele>88.0</ele><time>2026-04-07T15:12:54.999Z</time></trkpt><trkpt lat="45.482227155124484" lon="11.289701905721985"><ele>88.0</ele><time>2026-04-07T15:12:55.999Z</time></trkpt><trkpt lat="45.4824436945265" lon="11.289763092015237"><ele>90.0</ele><time>2026-04-07T15:12:56.999Z</time></trkpt><trkpt lat="45.48261801412979" lon="11.289817971426"><ele>92.0</ele><time>2026-04-07T15:12:57.999Z</time></trkpt><trkpt lat="45.48279354018639" lon="11.289872679809578"><ele>94.0</ele><time>2026-04-07T15:12:58.999Z</time></trkpt><trkpt lat="45.48298672687784" lon="11.289905486728712"><ele>97.0</ele><time>2026-04-07T15:12:59.999Z</time></trkpt><trkpt lat="45.48318667937424" lon="11.289911334209878"><ele>100.0</ele><time>2026-04-07T15:13:00.999Z</time></trkpt><trkpt lat="45.48336766048711" lon="11.289964558502156"><ele>103.0</ele><time>2026-04-07T15:13:01.999Z</time></trkpt><trkpt lat="45.48355495514925" lon="11.290046538587202"><ele>103.0</ele><time>2026-04-07T15:13:02.999Z</time></trkpt><trkpt lat="45.48373079662354" lon="11.290119336795765"><ele>103.0</ele><time>2026-04-07T15:13:03.999Z</time></trkpt><trkpt lat="45.48387847723499" lon="11.290199276359454"><ele>103.0</ele><time>2026-04-07T15:13:04.999Z</time></trkpt><trkpt lat="45.4840235352505" lon="11.290245005426906"><ele>105.25</ele><time>2026-04-07T15:13:05.999Z</time></trkpt><trkpt lat="45.48417317007613" lon="11.29025651134705"><ele>107.5</ele><time>2026-04-07T15:13:06.999Z</time></trkpt><trkpt lat="45.48431943034038" lon="11.290234638149165"><ele>109.75</ele><time>2026-04-07T15:13:07.999Z</time></trkpt><trkpt lat="45.48444405824144" lon="11.290223501369661"><ele>112.0</ele><time>2026-04-07T15:13:08.999Z</time></trkpt><trkpt lat="45.48455128270798" lon="11.290228487496337"><ele>114.8</ele><time>2026-04-07T15:13:09.999Z</time></trkpt><trkpt lat="45.484652091941726" lon="11.290240549011648"><ele>117.6</ele><time>2026-04-07T15:13:10.999Z</time></trkpt><trkpt lat="45.48476235072177" lon="11.290261085608188"><ele>120.39999999999999</ele><time>2026-04-07T15:13:11.999Z</time></trkpt><trkpt lat="45.484873387521056" lon="11.290305701403657"><ele>123.19999999999999</ele><time>2026-04-07T15:13:12.999Z</time></trkpt><trkpt lat="45.48496281393721" lon="11.290348634757898"><ele>126.0</ele><time>2026-04-07T15:13:13.999Z</time></trkpt><trkpt lat="45.48503401579702" lon="11.29038588410848"><ele>126.0</ele><time>2026-04-07T15:13:14.999Z</time></trkpt><trkpt lat="45.485104508076276" lon="11.29041783497277"><ele>126.0</ele><time>2026-04-07T15:13:15.999Z</time></trkpt><trkpt lat="45.48518489431318" lon="11.290430038120205"><ele>126.0</ele><time>2026-04-07T15:13:16.999Z</time></trkpt><trkpt lat="45.485262294738604" lon="11.290417158757982"><ele>126.0</ele><time>2026-04-07T15:13:17.999Z</time></trkpt><trkpt lat="45.485354816824895" lon="11.290369605722168"><ele>126.0</ele><time>2026-04-07T15:13:18.999Z</time></trkpt><trkpt lat="45.48548390909006" lon="11.290280000616379"><ele>129.33333333333334</ele><time>2026-04-07T15:13:19.999Z</time></trkpt><trkpt lat="45.48563257385578" lon="11.29018115839913"><ele>132.66666666666669</ele><time>2026-04-07T15:13:20.999Z</time></trkpt><trkpt lat="45.485793383885145" lon="11.290118139212167"><ele>136.0</ele><time>2026-04-07T15:13:21.999Z</time></trkpt><trkpt lat="45.48591379409399" lon="11.290071759499387"><ele>136.0</ele><time>2026-04-07T15:13:22.999Z</time></trkpt><trkpt lat="45.485981033828224" lon="11.290037592914457"><ele>136.0</ele><time>2026-04-07T15:13:23.999Z</time></trkpt><trkpt lat="45.4860027390434" lon="11.289940775236776"><ele>136.0</ele><time>2026-04-07T15:13:24.999Z</time></trkpt><trkpt lat="45.48600034902888" lon="11.2897717392481"><ele>136.0</ele><time>2026-04-07T15:13:25.999Z</time></trkpt><trkpt lat="45.48601585801566" lon="11.28960288024879"><ele>136.0</ele><time>2026-04-07T15:13:26.999Z</time></trkpt><trkpt lat="45.48606106071394" lon="11.289512853674392"><ele>135.25</ele><time>2026-04-07T15:13:27.999Z</time></trkpt><trkpt lat="45.48619012600666" lon="11.289550777635712"><ele>134.5</ele><time>2026-04-07T15:13:29.999Z</time></trkpt><trkpt lat="45.48629482920016" lon="11.289672140718015"><ele>133.75</ele><time>2026-04-07T15:13:30.999Z</time></trkpt><trkpt lat="45.48642407792304" lon="11.289800067332134"><ele>133.0</ele><time>2026-04-07T15:13:31.999Z</time></trkpt><trkpt lat="45.486594914542316" lon="11.28990793414864"><ele>136.75</ele><time>2026-04-07T15:13:32.999Z</time></trkpt><trkpt lat="45.4867465486422" lon="11.289963005279189"><ele>140.5</ele><time>2026-04-07T15:13:33.999Z</time></trkpt><trkpt lat="45.486863127259824" lon="11.29002110524639"><ele>144.25</ele><time>2026-04-07T15:13:34.999Z</time></trkpt><trkpt lat="45.48695618726299" lon="11.290109645488178"><ele>148.0</ele><time>2026-04-07T15:13:35.999Z</time></trkpt><trkpt lat="45.48700582310501" lon="11.29026119641884"><ele>148.0</ele><time>2026-04-07T15:13:36.999Z</time></trkpt><trkpt lat="45.48708267518743" lon="11.290416254080549"><ele>148.0</ele><time>2026-04-07T15:13:37.999Z</time></trkpt><trkpt lat="45.48714835548635" lon="11.290571880793628"><ele>148.0</ele><time>2026-04-07T15:13:38.999Z</time></trkpt><trkpt lat="45.487260157659" lon="11.290677692452073"><ele>148.0</ele><time>2026-04-07T15:13:39.999Z</time></trkpt><trkpt lat="45.487414959850064" lon="11.290712735947023"><ele>150.33333333333334</ele><time>2026-04-07T15:13:40.999Z</time></trkpt><trkpt lat="45.48757066552102" lon="11.290745467853757"><ele>152.66666666666666</ele><time>2026-04-07T15:13:41.999Z</time></trkpt><trkpt lat="45.487697189800826" lon="11.290899388603618"><ele>155.0</ele><time>2026-04-07T15:13:42.999Z</time></trkpt><trkpt lat="45.48783391513785" lon="11.291029965310328"><ele>158.8</ele><time>2026-04-07T15:13:43.999Z</time></trkpt><trkpt lat="45.48793088216207" lon="11.291161034765771"><ele>162.6</ele><time>2026-04-07T15:13:44.999Z</time></trkpt><trkpt lat="45.488022332293305" lon="11.291236752248484"><ele>166.39999999999998</ele><time>2026-04-07T15:13:45.999Z</time></trkpt><trkpt lat="45.48810869267903" lon="11.291260279491148"><ele>170.2</ele><time>2026-04-07T15:13:46.999Z</time></trkpt><trkpt lat="45.48818076511703" lon="11.291222649788894"><ele>174.0</ele><time>2026-04-07T15:13:47.999Z</time></trkpt><trkpt lat="45.48823351553589" lon="11.291142077469967"><ele>174.0</ele><time>2026-04-07T15:13:48.999Z</time></trkpt><trkpt lat="45.4882209719676" lon="11.290951874655631"><ele>174.0</ele><time>2026-04-07T15:13:49.999Z</time></trkpt><trkpt lat="45.488210230866315" lon="11.290771319909194"><ele>174.0</ele><time>2026-04-07T15:13:50.999Z</time></trkpt><trkpt lat="45.488206345029184" lon="11.290608933725416"><ele>174.0</ele><time>2026-04-07T15:13:51.999Z</time></trkpt><trkpt lat="45.48821563904047" lon="11.290507468932919"><ele>174.0</ele><time>2026-04-07T15:13:53Z</time></trkpt><trkpt lat="45.48831416675541" lon="11.290515227803775"><ele>174.0</ele><time>2026-04-07T15:13:55Z</time></trkpt><trkpt lat="45.488356734425125" lon="11.290639458658715"><ele>174.0</ele><time>2026-04-07T15:13:56Z</time></trkpt><trkpt lat="45.4884334788157" lon="11.290773116362207"><ele>174.0</ele><time>2026-04-07T15:13:57Z</time></trkpt><trkpt lat="45.488529708323796" lon="11.290937635553673"><ele>174.0</ele><time>2026-04-07T15:13:58Z</time></trkpt><trkpt lat="45.48863813282674" lon="11.29110797785527"><ele>174.0</ele><time>2026-04-07T15:13:59Z</time></trkpt><trkpt lat="45.48874217780439" lon="11.291252425166322"><ele>174.0</ele><time>2026-04-07T15:14:00Z</time></trkpt><trkpt lat="45.48883808832146" lon="11.291345201955997"><ele>174.0</ele><time>2026-04-07T15:14:01Z</time></trkpt><trkpt lat="45.48891343499549" lon="11.291388988166407"><ele>174.0</ele><time>2026-04-07T15:14:02Z</time></trkpt><trkpt lat="45.48898560294075" lon="11.29135166579211"><ele>174.0</ele><time>2026-04-07T15:14:03Z</time></trkpt><trkpt lat="45.489054827034664" lon="11.291294741934857"><ele>178.75</ele><time>2026-04-07T15:14:04Z</time></trkpt><trkpt lat="45.48907588827791" lon="11.29117095286161"><ele>183.5</ele><time>2026-04-07T15:14:05Z</time></trkpt><trkpt lat="45.48900025589288" lon="11.291025232236162"><ele>188.25</ele><time>2026-04-07T15:14:06Z</time></trkpt><trkpt lat="45.48889606595182" lon="11.290883444030934"><ele>193.0</ele><time>2026-04-07T15:14:07Z</time></trkpt><trkpt lat="45.488826809848874" lon="11.290705984231124"><ele>193.0</ele><time>2026-04-07T15:14:08Z</time></trkpt><trkpt lat="45.48877797570737" lon="11.290572739048676"><ele>193.0</ele><time>2026-04-07T15:14:09Z</time></trkpt><trkpt lat="45.488745333746344" lon="11.290439332959256"><ele>193.0</ele><time>2026-04-07T15:14:11Z</time></trkpt><trkpt lat="45.488873189209556" lon="11.290447528449302"><ele>193.0</ele><time>2026-04-07T15:14:13Z</time></trkpt><trkpt lat="45.48895865937329" lon="11.29052756320953"><ele>193.0</ele><time>2026-04-07T15:14:14Z</time></trkpt><trkpt lat="45.489062321643246" lon="11.290634324689197"><ele>193.0</ele><time>2026-04-07T15:14:15Z</time></trkpt><trkpt lat="45.489169657622064" lon="11.290700288900373"><ele>193.0</ele><time>2026-04-07T15:14:16Z</time></trkpt><trkpt lat="45.489254421137296" lon="11.290740298920761"><ele>193.0</ele><time>2026-04-07T15:14:17Z</time></trkpt><trkpt lat="45.489323538108216" lon="11.290731194284213"><ele>193.0</ele><time>2026-04-07T15:14:18Z</time></trkpt><trkpt lat="45.489383567820255" lon="11.290675162556791"><ele>193.0</ele><time>2026-04-07T15:14:19Z</time></trkpt><trkpt lat="45.48936335954495" lon="11.290479859273594"><ele>196.5</ele><time>2026-04-07T15:14:21Z</time></trkpt><trkpt lat="45.48924640259812" lon="11.290430739114658"><ele>200.0</ele><time>2026-04-07T15:14:22Z</time></trkpt><trkpt lat="45.489111772653075" lon="11.290398725988641"><ele>203.5</ele><time>2026-04-07T15:14:23Z</time></trkpt><trkpt lat="45.489014687509766" lon="11.290350027698882"><ele>207.0</ele><time>2026-04-07T15:14:24Z</time></trkpt><trkpt lat="45.488975255171866" lon="11.290236013261852"><ele>207.0</ele><time>2026-04-07T15:14:25Z</time></trkpt><trkpt lat="45.48896309209226" lon="11.290142118657135"><ele>207.0</ele><time>2026-04-07T15:14:26Z</time></trkpt><trkpt lat="45.48902675879478" lon="11.290042285458503"><ele>207.0</ele><time>2026-04-07T15:14:27Z</time></trkpt><trkpt lat="45.48912531658043" lon="11.289961101433375"><ele>207.0</ele><time>2026-04-07T15:14:28Z</time></trkpt><trkpt lat="45.48920185587864" lon="11.289808533833869"><ele>207.0</ele><time>2026-04-07T15:14:29Z</time></trkpt><trkpt lat="45.48926330554101" lon="11.289644211952819"><ele>208.66666666666669</ele><time>2026-04-07T15:14:30Z</time></trkpt><trkpt lat="45.489283025481086" lon="11.289414524441755"><ele>210.33333333333334</ele><time>2026-04-07T15:14:31Z</time></trkpt><trkpt lat="45.4892688600127" lon="11.28915143327806"><ele>212.0</ele><time>2026-04-07T15:14:32Z</time></trkpt><trkpt lat="45.48922849459228" lon="11.288898746456617"><ele>214.66666666666669</ele><time>2026-04-07T15:14:33Z</time></trkpt><trkpt lat="45.489163926840824" lon="11.28864243786292"><ele>217.33333333333331</ele><time>2026-04-07T15:14:34Z</time></trkpt><trkpt lat="45.48913982446003" lon="11.288418142261424"><ele>220.0</ele><time>2026-04-07T15:14:35Z</time></trkpt><trkpt lat="45.489115531558426" lon="11.288220169416277"><ele>220.33333333333331</ele><time>2026-04-07T15:14:36Z</time></trkpt><trkpt lat="45.48907396487678" lon="11.288052939212958"><ele>220.66666666666666</ele><time>2026-04-07T15:14:37Z</time></trkpt><trkpt lat="45.48905392009576" lon="11.287921387449924"><ele>221.0</ele><time>2026-04-07T15:14:38Z</time></trkpt><trkpt lat="45.489051493141375" lon="11.287817594492338"><ele>221.33333333333331</ele><time>2026-04-07T15:14:39Z</time></trkpt><trkpt lat="45.48907734323173" lon="11.287734316774413"><ele>221.66666666666666</ele><time>2026-04-07T15:14:41Z</time></trkpt><trkpt lat="45.489139158835044" lon="11.287766113420558"><ele>222.0</ele><time>2026-04-07T15:14:42Z</time></trkpt><trkpt lat="45.48916709535585" lon="11.287858150550834"><ele>222.0</ele><time>2026-04-07T15:14:43Z</time></trkpt><trkpt lat="45.48913717087941" lon="11.287984094237709"><ele>222.0</ele><time>2026-04-07T15:14:44Z</time></trkpt><trkpt lat="45.489157951894484" lon="11.28812408192854"><ele>222.0</ele><time>2026-04-07T15:14:45Z</time></trkpt><trkpt lat="45.48920544231554" lon="11.28829199261191"><ele>222.0</ele><time>2026-04-07T15:14:46Z</time></trkpt><trkpt lat="45.48927440038176" lon="11.288466643769935"><ele>221.33333333333331</ele><time>2026-04-07T15:14:47Z</time></trkpt><trkpt lat="45.48934821269263" lon="11.288661102136254"><ele>220.66666666666666</ele><time>2026-04-07T15:14:48Z</time></trkpt><trkpt lat="45.4894273531327" lon="11.288884561175346"><ele>220.0</ele><time>2026-04-07T15:14:48.999Z</time></trkpt><trkpt lat="45.48949848232638" lon="11.289089766516065"><ele>218.4</ele><time>2026-04-07T15:14:49.999Z</time></trkpt><trkpt lat="45.48956417163306" lon="11.289253761120072"><ele>216.8</ele><time>2026-04-07T15:14:50.999Z</time></trkpt><trkpt lat="45.48960354837839" lon="11.28938377715581"><ele>215.2</ele><time>2026-04-07T15:14:51.999Z</time></trkpt><trkpt lat="45.48962923819314" lon="11.289470780476796"><ele>213.6</ele><time>2026-04-07T15:14:52.999Z</time></trkpt><trkpt lat="45.489723255395624" lon="11.289486479385276"><ele>212.0</ele><time>2026-04-07T15:14:54.999Z</time></trkpt><trkpt lat="45.489769725912446" lon="11.289414898719766"><ele>214.0</ele><time>2026-04-07T15:14:55.999Z</time></trkpt><trkpt lat="45.48973208669923" lon="11.289270634777946"><ele>216.0</ele><time>2026-04-07T15:14:56.999Z</time></trkpt><trkpt lat="45.489658684260256" lon="11.289142879150955"><ele>218.0</ele><time>2026-04-07T15:14:57.999Z</time></trkpt><trkpt lat="45.48960239318522" lon="11.288972688448915"><ele>220.0</ele><time>2026-04-07T15:14:58.999Z</time></trkpt><trkpt lat="45.48955990042863" lon="11.288765562840487"><ele>220.0</ele><time>2026-04-07T15:14:59.999Z</time></trkpt><trkpt lat="45.4895093636646" lon="11.288526453327437"><ele>220.0</ele><time>2026-04-07T15:15:00.999Z</time></trkpt><trkpt lat="45.48946916512624" lon="11.288299026889963"><ele>220.0</ele><time>2026-04-07T15:15:01.999Z</time></trkpt><trkpt lat="45.48942333248972" lon="11.288126810845123"><ele>220.0</ele><time>2026-04-07T15:15:02.999Z</time></trkpt><trkpt lat="45.489397669201786" lon="11.288018203499593"><ele>220.0</ele><time>2026-04-07T15:15:03.999Z</time></trkpt><trkpt lat="45.48944484142903" lon="11.28791319754909"><ele>220.0</ele><time>2026-04-07T15:15:05.999Z</time></trkpt><trkpt lat="45.48951863250608" lon="11.28803796283281"><ele>220.0</ele><time>2026-04-07T15:15:07.999Z</time></trkpt><trkpt lat="45.48949393178889" lon="11.288157677690906"><ele>220.0</ele><time>2026-04-07T15:15:08.999Z</time></trkpt><trkpt lat="45.489525599060315" lon="11.288290916009673"><ele>220.0</ele><time>2026-04-07T15:15:09.999Z</time></trkpt><trkpt lat="45.489585734713884" lon="11.288436383314176"><ele>220.0</ele><time>2026-04-07T15:15:10.999Z</time></trkpt><trkpt lat="45.48966034821427" lon="11.288580119974828"><ele>220.0</ele><time>2026-04-07T15:15:11.999Z</time></trkpt><trkpt lat="45.489713841810925" lon="11.288696684613308"><ele>220.0</ele><time>2026-04-07T15:15:12.999Z</time></trkpt><trkpt lat="45.48975613863084" lon="11.288767674476249"><ele>220.0</ele><time>2026-04-07T15:15:13.999Z</time></trkpt><trkpt lat="45.48985588407383" lon="11.28874189712361"><ele>227.4</ele><time>2026-04-07T15:15:15.999Z</time></trkpt><trkpt lat="45.48986314947005" lon="11.28863502933881"><ele>234.8</ele><time>2026-04-07T15:15:16.999Z</time></trkpt><trkpt lat="45.48980665709953" lon="11.288526902503062"><ele>242.2</ele><time>2026-04-07T15:15:17.999Z</time></trkpt><trkpt lat="45.489715158326064" lon="11.288427903512325"><ele>249.6</ele><time>2026-04-07T15:15:18.999Z</time></trkpt><trkpt lat="45.48967005440729" lon="11.288272029277396"><ele>257.0</ele><time>2026-04-07T15:15:19.999Z</time></trkpt><trkpt lat="45.48964793634104" lon="11.288121813244654"><ele>257.0</ele><time>2026-04-07T15:15:20.999Z</time></trkpt><trkpt lat="45.48966042714175" lon="11.287993643108878"><ele>257.0</ele><time>2026-04-07T15:15:21.999Z</time></trkpt><trkpt lat="45.489706795877524" lon="11.287901939135223"><ele>257.0</ele><time>2026-04-07T15:15:23.999Z</time></trkpt><trkpt lat="45.48976671485288" lon="11.288061407169506"><ele>257.0</ele><time>2026-04-07T15:15:25.999Z</time></trkpt><trkpt lat="45.489726455192724" lon="11.288177557354972"><ele>257.0</ele><time>2026-04-07T15:15:26.999Z</time></trkpt><trkpt lat="45.489742252724874" lon="11.288303464373282"><ele>257.0</ele><time>2026-04-07T15:15:27.999Z</time></trkpt><trkpt lat="45.48979481369251" lon="11.288405046300076"><ele>257.0</ele><time>2026-04-07T15:15:28.999Z</time></trkpt><trkpt lat="45.48989368872135" lon="11.288463081695161"><ele>257.0</ele><time>2026-04-07T15:15:29.999Z</time></trkpt><trkpt lat="45.49001440400896" lon="11.28848835186859"><ele>257.0</ele><time>2026-04-07T15:15:30.999Z</time></trkpt><trkpt lat="45.49012333057696" lon="11.288499371570328"><ele>257.0</ele><time>2026-04-07T15:15:31.999Z</time></trkpt><trkpt lat="45.49018833391277" lon="11.288488907436225"><ele>257.0</ele><time>2026-04-07T15:15:32.999Z</time></trkpt><trkpt lat="45.490199160117385" lon="11.288327867036998"><ele>257.0</ele><time>2026-04-07T15:15:34.999Z</time></trkpt><trkpt lat="45.490133269589194" lon="11.288240821317542"><ele>257.0</ele><time>2026-04-07T15:15:35.999Z</time></trkpt><trkpt lat="45.49002122298554" lon="11.28826212956275"><ele>257.0</ele><time>2026-04-07T15:15:36.999Z</time></trkpt><trkpt lat="45.48993681933488" lon="11.288253728379757"><ele>257.0</ele><time>2026-04-07T15:15:37.999Z</time></trkpt><trkpt lat="45.48989446360871" lon="11.288184023884144"><ele>256.8</ele><time>2026-04-07T15:15:38.999Z</time></trkpt><trkpt lat="45.48991190452038" lon="11.288078694131885"><ele>256.6</ele><time>2026-04-07T15:15:39.999Z</time></trkpt><trkpt lat="45.48997664069189" lon="11.287999718259078"><ele>256.40000000000003</ele><time>2026-04-07T15:15:40.999Z</time></trkpt><trkpt lat="45.49006931784249" lon="11.28795881714314"><ele>256.2</ele><time>2026-04-07T15:15:41.999Z</time></trkpt><trkpt lat="45.49018457237997" lon="11.28798144411667"><ele>256.0</ele><time>2026-04-07T15:15:42.999Z</time></trkpt><trkpt lat="45.49030903865752" lon="11.288013524692275"><ele>259.5</ele><time>2026-04-07T15:15:43.999Z</time></trkpt><trkpt lat="45.490450188016894" lon="11.288080682132566"><ele>263.0</ele><time>2026-04-07T15:15:44.999Z</time></trkpt><trkpt lat="45.490593504015365" lon="11.288124265989739"><ele>266.5</ele><time>2026-04-07T15:15:45.999Z</time></trkpt><trkpt lat="45.49071219648457" lon="11.28812822706757"><ele>270.0</ele><time>2026-04-07T15:15:46.999Z</time></trkpt><trkpt lat="45.49084257385399" lon="11.288087861884616"><ele>271.0</ele><time>2026-04-07T15:15:47.999Z</time></trkpt><trkpt lat="45.49096680179977" lon="11.287992695860012"><ele>272.0</ele><time>2026-04-07T15:15:48.999Z</time></trkpt><trkpt lat="45.49105384312114" lon="11.287877414738709"><ele>273.0</ele><time>2026-04-07T15:15:49.999Z</time></trkpt><trkpt lat="45.49111499638018" lon="11.287727124284443"><ele>274.0</ele><time>2026-04-07T15:15:50.999Z</time></trkpt><trkpt lat="45.491145296613105" lon="11.287510414641785"><ele>273.66666666666663</ele><time>2026-04-07T15:15:51.999Z</time></trkpt><trkpt lat="45.491174870380156" lon="11.287258387479817"><ele>273.3333333333333</ele><time>2026-04-07T15:15:52.999Z</time></trkpt><trkpt lat="45.491233094559355" lon="11.287002115440266"><ele>273.0</ele><time>2026-04-07T15:15:53.999Z</time></trkpt><trkpt lat="45.49126737254579" lon="11.286770540444623"><ele>274.75</ele><time>2026-04-07T15:15:54.999Z</time></trkpt><trkpt lat="45.49130003878728" lon="11.286566415417154"><ele>276.5</ele><time>2026-04-07T15:15:55.999Z</time></trkpt><trkpt lat="45.49139083257419" lon="11.286420986573495"><ele>278.25</ele><time>2026-04-07T15:15:56.999Z</time></trkpt><trkpt lat="45.49150705818822" lon="11.286289369821352"><ele>280.0</ele><time>2026-04-07T15:15:57.999Z</time></trkpt><trkpt lat="45.49163863913052" lon="11.286160515264903"><ele>282.5</ele><time>2026-04-07T15:15:59Z</time></trkpt><trkpt lat="45.49174707921117" lon="11.286022693475465"><ele>285.0</ele><time>2026-04-07T15:16:00Z</time></trkpt><trkpt lat="45.4918212862868" lon="11.28590096543034"><ele>287.5</ele><time>2026-04-07T15:16:01Z</time></trkpt><trkpt lat="45.49186102235512" lon="11.285733969717002"><ele>290.0</ele><time>2026-04-07T15:16:02Z</time></trkpt><trkpt lat="45.491879343258155" lon="11.28552990850094"><ele>292.6666666666667</ele><time>2026-04-07T15:16:03Z</time></trkpt><trkpt lat="45.491850439450054" lon="11.28532428093405"><ele>295.3333333333333</ele><time>2026-04-07T15:16:04Z</time></trkpt><trkpt lat="45.49177799625188" lon="11.285126966022915"><ele>298.0</ele><time>2026-04-07T15:16:05Z</time></trkpt><trkpt lat="45.49168378866882" lon="11.284959763241039"><ele>298.0</ele><time>2026-04-07T15:16:06Z</time></trkpt><trkpt lat="45.491631492544116" lon="11.284805000745243"><ele>298.0</ele><time>2026-04-07T15:16:07Z</time></trkpt><trkpt lat="45.49159901533222" lon="11.284673385438662"><ele>298.0</ele><time>2026-04-07T15:16:08Z</time></trkpt><trkpt lat="45.49157860700152" lon="11.284567874891016"><ele>298.0</ele><time>2026-04-07T15:16:09Z</time></trkpt><trkpt lat="45.49166037415638" lon="11.284486940907517"><ele>298.0</ele><time>2026-04-07T15:16:10Z</time></trkpt><trkpt lat="45.491752848077425" lon="11.284421370086154"><ele>298.5</ele><time>2026-04-07T15:16:11Z</time></trkpt><trkpt lat="45.49185432746031" lon="11.284440225173533"><ele>299.0</ele><time>2026-04-07T15:16:12Z</time></trkpt><trkpt lat="45.491995216502545" lon="11.28444951486985"><ele>299.5</ele><time>2026-04-07T15:16:13Z</time></trkpt><trkpt lat="45.492152004407515" lon="11.284454030809657"><ele>300.0</ele><time>2026-04-07T15:16:14Z</time></trkpt><trkpt lat="45.492324661364506" lon="11.28448944069018"><ele>305.0</ele><time>2026-04-07T15:16:15Z</time></trkpt><trkpt lat="45.492498993485" lon="11.284528317291745"><ele>310.0</ele><time>2026-04-07T15:16:16Z</time></trkpt><trkpt lat="45.4926666289537" lon="11.28456945382989"><ele>315.0</ele><time>2026-04-07T15:16:17Z</time></trkpt><trkpt lat="45.49279078031311" lon="11.284599183616633"><ele>315.0</ele><time>2026-04-07T15:16:18Z</time></trkpt><trkpt lat="45.4928747447682" lon="11.28460490590969"><ele>315.0</ele><time>2026-04-07T15:16:19Z</time></trkpt><trkpt lat="45.49294376952784" lon="11.284434958051268"><ele>315.0</ele><time>2026-04-07T15:16:21Z</time></trkpt><trkpt lat="45.49286973853594" lon="11.284270292430596"><ele>315.0</ele><time>2026-04-07T15:16:22Z</time></trkpt><trkpt lat="45.492806423263275" lon="11.284118917011849"><ele>315.0</ele><time>2026-04-07T15:16:23Z</time></trkpt><trkpt lat="45.49282124461593" lon="11.283978555464255"><ele>315.0</ele><time>2026-04-07T15:16:24Z</time></trkpt><trkpt lat="45.49287768587807" lon="11.283880455947097"><ele>315.0</ele><time>2026-04-07T15:16:25Z</time></trkpt><trkpt lat="45.4929883093035" lon="11.283847659249078"><ele>315.0</ele><time>2026-04-07T15:16:26Z</time></trkpt><trkpt lat="45.49312744412251" lon="11.283930845539146"><ele>318.0</ele><time>2026-04-07T15:16:27Z</time></trkpt><trkpt lat="45.493276916970785" lon="11.283949627964628"><ele>321.0</ele><time>2026-04-07T15:16:28Z</time></trkpt><trkpt lat="45.49342726308474" lon="11.284002268657632"><ele>324.0</ele><time>2026-04-07T15:16:29Z</time></trkpt><trkpt lat="45.493535191592336" lon="11.284010370133464"><ele>327.0</ele><time>2026-04-07T15:16:30Z</time></trkpt><trkpt lat="45.49361246450004" lon="11.283938949235326"><ele>328.0</ele><time>2026-04-07T15:16:31Z</time></trkpt><trkpt lat="45.49368287678658" lon="11.283777087950982"><ele>329.0</ele><time>2026-04-07T15:16:32Z</time></trkpt><trkpt lat="45.49380837923621" lon="11.283662150652617"><ele>330.0</ele><time>2026-04-07T15:16:33Z</time></trkpt><trkpt lat="45.49396930747154" lon="11.283570665497903"><ele>332.0</ele><time>2026-04-07T15:16:34Z</time></trkpt><trkpt lat="45.49416229497587" lon="11.283478335221746"><ele>334.0</ele><time>2026-04-07T15:16:35Z</time></trkpt><trkpt lat="45.49436804283516" lon="11.283439808598125"><ele>336.0</ele><time>2026-04-07T15:16:36Z</time></trkpt><trkpt lat="45.494593925110834" lon="11.283419066496094"><ele>337.5</ele><time>2026-04-07T15:16:37Z</time></trkpt><trkpt lat="45.49482834229343" lon="11.283358659300573"><ele>339.0</ele><time>2026-04-07T15:16:38Z</time></trkpt><trkpt lat="45.49505543302424" lon="11.283273388764465"><ele>339.0</ele><time>2026-04-07T15:16:39Z</time></trkpt><trkpt lat="45.49530339147957" lon="11.283196338628697"><ele>339.0</ele><time>2026-04-07T15:16:40Z</time></trkpt><trkpt lat="45.4955628507508" lon="11.283097806353366"><ele>341.0</ele><time>2026-04-07T15:16:41Z</time></trkpt><trkpt lat="45.49581464083313" lon="11.282997021539838"><ele>343.0</ele><time>2026-04-07T15:16:42Z</time></trkpt><trkpt lat="45.496031863535435" lon="11.282915473156349"><ele>343.0</ele><time>2026-04-07T15:16:43Z</time></trkpt><trkpt lat="45.49623325165379" lon="11.282851145811817"><ele>343.0</ele><time>2026-04-07T15:16:44Z</time></trkpt><trkpt lat="45.49640293083248" lon="11.282786016103021"><ele>343.0</ele><time>2026-04-07T15:16:45Z</time></trkpt><trkpt lat="45.49654457764588" lon="11.282740703730637"><ele>344.66666666666663</ele><time>2026-04-07T15:16:46Z</time></trkpt><trkpt lat="45.49666813110848" lon="11.28276069921883"><ele>346.3333333333333</ele><time>2026-04-07T15:16:47Z</time></trkpt><trkpt lat="45.49682051490534" lon="11.282827207521969"><ele>348.0</ele><time>2026-04-07T15:16:48Z</time></trkpt><trkpt lat="45.4969736185337" lon="11.282960174996312"><ele>353.3333333333333</ele><time>2026-04-07T15:16:49Z</time></trkpt><trkpt lat="45.49711650857936" lon="11.28315742195286"><ele>358.66666666666663</ele><time>2026-04-07T15:16:50Z</time></trkpt><trkpt lat="45.497275472837586" lon="11.283354756911672"><ele>364.0</ele><time>2026-04-07T15:16:50.999Z</time></trkpt><trkpt lat="45.497422763757264" lon="11.283589683020548"><ele>364.0</ele><time>2026-04-07T15:16:51.999Z</time></trkpt><trkpt lat="45.49756416035387" lon="11.283804109505068"><ele>364.0</ele><time>2026-04-07T15:16:52.999Z</time></trkpt><trkpt lat="45.4976660251908" lon="11.283977828175285"><ele>364.0</ele><time>2026-04-07T15:16:53.999Z</time></trkpt><trkpt lat="45.49774646871059" lon="11.284081247974806"><ele>366.5</ele><time>2026-04-07T15:16:54.999Z</time></trkpt><trkpt lat="45.497863988344115" lon="11.284127075330069"><ele>369.0</ele><time>2026-04-07T15:16:55.999Z</time></trkpt><trkpt lat="45.49801374523803" lon="11.284156148982149"><ele>371.5</ele><time>2026-04-07T15:16:56.999Z</time></trkpt><trkpt lat="45.498143089724245" lon="11.284166463967235"><ele>374.0</ele><time>2026-04-07T15:16:57.999Z</time></trkpt><trkpt lat="45.49821814082756" lon="11.28420461934194"><ele>374.0</ele><time>2026-04-07T15:16:58.999Z</time></trkpt><trkpt lat="45.49825057118372" lon="11.284304426987415"><ele>374.0</ele><time>2026-04-07T15:16:59.999Z</time></trkpt><trkpt lat="45.49820855418679" lon="11.284452679771087"><ele>374.0</ele><time>2026-04-07T15:17:00.999Z</time></trkpt><trkpt lat="45.498234250313004" lon="11.284559337348666"><ele>374.0</ele><time>2026-04-07T15:17:01.999Z</time></trkpt><trkpt lat="45.49835961111249" lon="11.28459329593289"><ele>374.0</ele><time>2026-04-07T15:17:03.999Z</time></trkpt><trkpt lat="45.4983970678623" lon="11.284438234899422"><ele>374.0</ele><time>2026-04-07T15:17:04.999Z</time></trkpt><trkpt lat="45.49841077006644" lon="11.28425581832571"><ele>374.0</ele><time>2026-04-07T15:17:05.999Z</time></trkpt><trkpt lat="45.49842203101963" lon="11.284059006341282"><ele>374.0</ele><time>2026-04-07T15:17:06.999Z</time></trkpt><trkpt lat="45.498432018506" lon="11.283853808690917"><ele>374.0</ele><time>2026-04-07T15:17:07.999Z</time></trkpt><trkpt lat="45.498377415367024" lon="11.283634761498684"><ele>376.6666666666667</ele><time>2026-04-07T15:17:08.999Z</time></trkpt><trkpt lat="45.49827463012111" lon="11.283417817032007"><ele>379.3333333333333</ele><time>2026-04-07T15:17:09.999Z</time></trkpt><trkpt lat="45.49819337640166" lon="11.28321030298403"><ele>382.0</ele><time>2026-04-07T15:17:10.999Z</time></trkpt><trkpt lat="45.49814405984793" lon="11.283056732452815"><ele>382.6</ele><time>2026-04-07T15:17:11.999Z</time></trkpt><trkpt lat="45.49812789687659" lon="11.2829383384881"><ele>383.20000000000005</ele><time>2026-04-07T15:17:12.999Z</time></trkpt><trkpt lat="45.49811947959775" lon="11.28282348809688"><ele>383.8</ele><time>2026-04-07T15:17:13.999Z</time></trkpt><trkpt lat="45.49819403626624" lon="11.282713092534571"><ele>384.4</ele><time>2026-04-07T15:17:14.999Z</time></trkpt><trkpt lat="45.498288671128826" lon="11.282649725203106"><ele>385.0</ele><time>2026-04-07T15:17:15.999Z</time></trkpt><trkpt lat="45.49839508230782" lon="11.28262486736073"><ele>385.0</ele><time>2026-04-07T15:17:16.999Z</time></trkpt><trkpt lat="45.49850937174536" lon="11.282717673924628"><ele>385.0</ele><time>2026-04-07T15:17:17.999Z</time></trkpt><trkpt lat="45.49859845429584" lon="11.282844768957302"><ele>385.0</ele><time>2026-04-07T15:17:18.999Z</time></trkpt><trkpt lat="45.498712818343876" lon="11.283001483445041"><ele>385.0</ele><time>2026-04-07T15:17:19.999Z</time></trkpt><trkpt lat="45.498840124153105" lon="11.283163259998751"><ele>386.8</ele><time>2026-04-07T15:17:20.999Z</time></trkpt><trkpt lat="45.498943865483646" lon="11.28332783131109"><ele>388.6</ele><time>2026-04-07T15:17:21.999Z</time></trkpt><trkpt lat="45.49901585136984" lon="11.283442226820277"><ele>390.4</ele><time>2026-04-07T15:17:22.999Z</time></trkpt><trkpt lat="45.49907953614823" lon="11.283491164904492"><ele>392.2</ele><time>2026-04-07T15:17:23.999Z</time></trkpt><trkpt lat="45.49915987577165" lon="11.283466315288448"><ele>394.0</ele><time>2026-04-07T15:17:24.999Z</time></trkpt><trkpt lat="45.49925668428918" lon="11.283375622983243"><ele>394.0</ele><time>2026-04-07T15:17:25.999Z</time></trkpt><trkpt lat="45.49932884722888" lon="11.283240639123497"><ele>394.0</ele><time>2026-04-07T15:17:26.999Z</time></trkpt><trkpt lat="45.49936935023235" lon="11.283099491986485"><ele>394.0</ele><time>2026-04-07T15:17:27.999Z</time></trkpt><trkpt lat="45.49929648424076" lon="11.28294719484233"><ele>394.0</ele><time>2026-04-07T15:17:28.999Z</time></trkpt><trkpt lat="45.49921029738985" lon="11.28280057236353"><ele>396.25</ele><time>2026-04-07T15:17:29.999Z</time></trkpt><trkpt lat="45.49911617145553" lon="11.282644388350928"><ele>398.5</ele><time>2026-04-07T15:17:30.999Z</time></trkpt><trkpt lat="45.499076028817036" lon="11.282467803788228"><ele>400.75</ele><time>2026-04-07T15:17:31.999Z</time></trkpt><trkpt lat="45.49907337896842" lon="11.282327802704968"><ele>403.0</ele><time>2026-04-07T15:17:32.999Z</time></trkpt><trkpt lat="45.499082586523535" lon="11.282170926375395"><ele>405.0</ele><time>2026-04-07T15:17:33.999Z</time></trkpt><trkpt lat="45.499086268142946" lon="11.282015375312435"><ele>407.0</ele><time>2026-04-07T15:17:34.999Z</time></trkpt><trkpt lat="45.49914487185476" lon="11.281927076811884"><ele>409.0</ele><time>2026-04-07T15:17:35.999Z</time></trkpt><trkpt lat="45.49921450587494" lon="11.281948302234238"><ele>411.0</ele><time>2026-04-07T15:17:36.999Z</time></trkpt><trkpt lat="45.49926286952735" lon="11.282049878320283"><ele>413.0</ele><time>2026-04-07T15:17:37.999Z</time></trkpt><trkpt lat="45.49933652751092" lon="11.282146672802728"><ele>413.0</ele><time>2026-04-07T15:17:38.999Z</time></trkpt><trkpt lat="45.499438712512934" lon="11.282217855458832"><ele>413.0</ele><time>2026-04-07T15:17:39.999Z</time></trkpt><trkpt lat="45.499519855586776" lon="11.282279931972552"><ele>413.0</ele><time>2026-04-07T15:17:40.999Z</time></trkpt><trkpt lat="45.499606176221306" lon="11.282251642700263"><ele>413.0</ele><time>2026-04-07T15:17:41.999Z</time></trkpt><trkpt lat="45.499642087723856" lon="11.28205073789429"><ele>413.0</ele><time>2026-04-07T15:17:42.999Z</time></trkpt><trkpt lat="45.49964091143447" lon="11.28185497252186"><ele>415.0</ele><time>2026-04-07T15:17:43.999Z</time></trkpt><trkpt lat="45.4996693326275" lon="11.281650656492136"><ele>417.0</ele><time>2026-04-07T15:17:44.999Z</time></trkpt><trkpt lat="45.49973078058054" lon="11.281509333403035"><ele>419.0</ele><time>2026-04-07T15:17:45.999Z</time></trkpt><trkpt lat="45.49980440454512" lon="11.281387788131058"><ele>421.0</ele><time>2026-04-07T15:17:46.999Z</time></trkpt><trkpt lat="45.49989505061847" lon="11.28131545858903"><ele>422.25</ele><time>2026-04-07T15:17:47.999Z</time></trkpt><trkpt lat="45.500012853787965" lon="11.281253237821954"><ele>423.5</ele><time>2026-04-07T15:17:48.999Z</time></trkpt><trkpt lat="45.500146466670444" lon="11.281155112321267"><ele>424.75</ele><time>2026-04-07T15:17:49.999Z</time></trkpt><trkpt lat="45.50030984891206" lon="11.281113059278256"><ele>426.0</ele><time>2026-04-07T15:17:50.999Z</time></trkpt><trkpt lat="45.50045947473694" lon="11.281072896239303"><ele>426.0</ele><time>2026-04-07T15:17:51.999Z</time></trkpt><trkpt lat="45.5005876313148" lon="11.281053699825875"><ele>426.0</ele><time>2026-04-07T15:17:52.999Z</time></trkpt><trkpt lat="45.50072636575374" lon="11.281153646929216"><ele>426.0</ele><time>2026-04-07T15:17:53.999Z</time></trkpt><trkpt lat="45.50088806343585" lon="11.28122728622833"><ele>426.0</ele><time>2026-04-07T15:17:54.999Z</time></trkpt><trkpt lat="45.50106302406426" lon="11.281294627337957"><ele>426.0</ele><time>2026-04-07T15:17:55.999Z</time></trkpt><trkpt lat="45.50124132997311" lon="11.281367860846476"><ele>426.0</ele><time>2026-04-07T15:17:56.999Z</time></trkpt><trkpt lat="45.50140428867296" lon="11.28149832982442"><ele>428.33333333333337</ele><time>2026-04-07T15:17:57.999Z</time></trkpt><trkpt lat="45.501575743333724" lon="11.28161420273309"><ele>430.6666666666667</ele><time>2026-04-07T15:17:58.998Z</time></trkpt><trkpt lat="45.50171569605922" lon="11.28180196264298"><ele>433.0</ele><time>2026-04-07T15:17:59.998Z</time></trkpt><trkpt lat="45.50183533227753" lon="11.282004802911619"><ele>433.0</ele><time>2026-04-07T15:18:00.998Z</time></trkpt><trkpt lat="45.50196121666808" lon="11.282204463337063"><ele>433.0</ele><time>2026-04-07T15:18:01.998Z</time></trkpt><trkpt lat="45.502065980746735" lon="11.28242180346965"><ele>433.0</ele><time>2026-04-07T15:18:02.998Z</time></trkpt><trkpt lat="45.50212118049081" lon="11.282641784715098"><ele>434.75</ele><time>2026-04-07T15:18:03.998Z</time></trkpt><trkpt lat="45.50215783273812" lon="11.282837857264784"><ele>436.5</ele><time>2026-04-07T15:18:05Z</time></trkpt><trkpt lat="45.502218296255954" lon="11.283004608146094"><ele>438.25</ele><time>2026-04-07T15:18:06Z</time></trkpt><trkpt lat="45.50229366553188" lon="11.283165995373135"><ele>440.0</ele><time>2026-04-07T15:18:07Z</time></trkpt><trkpt lat="45.50240022900523" lon="11.283289173683574"><ele>440.0</ele><time>2026-04-07T15:18:08Z</time></trkpt><trkpt lat="45.50250864041295" lon="11.283354291087816"><ele>440.0</ele><time>2026-04-07T15:18:09Z</time></trkpt><trkpt lat="45.50262772439692" lon="11.28332403520504"><ele>440.0</ele><time>2026-04-07T15:18:10Z</time></trkpt><trkpt lat="45.50275562618385" lon="11.28326803551956"><ele>440.0</ele><time>2026-04-07T15:18:11Z</time></trkpt><trkpt lat="45.5028898849993" lon="11.283242162922262"><ele>442.5</ele><time>2026-04-07T15:18:12Z</time></trkpt><trkpt lat="45.50302848054753" lon="11.283287783732497"><ele>445.0</ele><time>2026-04-07T15:18:13Z</time></trkpt><trkpt lat="45.50313930375676" lon="11.283390784467024"><ele>447.5</ele><time>2026-04-07T15:18:14Z</time></trkpt><trkpt lat="45.50324094735045" lon="11.283452322531891"><ele>450.0</ele><time>2026-04-07T15:18:15Z</time></trkpt><trkpt lat="45.503328524197535" lon="11.28349264521873"><ele>450.0</ele><time>2026-04-07T15:18:16Z</time></trkpt><trkpt lat="45.503420978353994" lon="11.283428884786822"><ele>450.0</ele><time>2026-04-07T15:18:17Z</time></trkpt><trkpt lat="45.50352895900903" lon="11.283309632678865"><ele>450.0</ele><time>2026-04-07T15:18:18Z</time></trkpt><trkpt lat="45.503658449529205" lon="11.28316403890603"><ele>450.0</ele><time>2026-04-07T15:18:19Z</time></trkpt><trkpt lat="45.50378330455166" lon="11.283008817443934"><ele>451.5</ele><time>2026-04-07T15:18:20Z</time></trkpt><trkpt lat="45.50387977216984" lon="11.282861677418481"><ele>453.0</ele><time>2026-04-07T15:18:21Z</time></trkpt><trkpt lat="45.50398341876505" lon="11.282785069106847"><ele>454.5</ele><time>2026-04-07T15:18:22Z</time></trkpt><trkpt lat="45.50409357064182" lon="11.28270026489928"><ele>456.0</ele><time>2026-04-07T15:18:23Z</time></trkpt><trkpt lat="45.50423131874846" lon="11.282688590722023"><ele>456.0</ele><time>2026-04-07T15:18:24Z</time></trkpt><trkpt lat="45.504375631140896" lon="11.28267626184091"><ele>456.0</ele><time>2026-04-07T15:18:25Z</time></trkpt><trkpt lat="45.50449680571419" lon="11.282642662831144"><ele>456.0</ele><time>2026-04-07T15:18:26Z</time></trkpt><trkpt lat="45.504606824017436" lon="11.282819616546407"><ele>456.0</ele><time>2026-04-07T15:18:27Z</time></trkpt><trkpt lat="45.50466050509007" lon="11.282937768185908"><ele>458.25</ele><time>2026-04-07T15:18:28Z</time></trkpt><trkpt lat="45.50468845756613" lon="11.283103700853715"><ele>460.5</ele><time>2026-04-07T15:18:29Z</time></trkpt><trkpt lat="45.50471085348258" lon="11.283293382269969"><ele>462.75</ele><time>2026-04-07T15:18:30Z</time></trkpt><trkpt lat="45.50478356315665" lon="11.28348193881633"><ele>465.0</ele><time>2026-04-07T15:18:31Z</time></trkpt><trkpt lat="45.50490414152801" lon="11.283642618374861"><ele>465.0</ele><time>2026-04-07T15:18:32Z</time></trkpt><trkpt lat="45.505037161975615" lon="11.283755962664456"><ele>465.0</ele><time>2026-04-07T15:18:33Z</time></trkpt><trkpt lat="45.50513376108398" lon="11.283911290639217"><ele>465.0</ele><time>2026-04-07T15:18:34Z</time></trkpt><trkpt lat="45.50519201135856" lon="11.284112043969165"><ele>464.0</ele><time>2026-04-07T15:18:35Z</time></trkpt><trkpt lat="45.505236147109535" lon="11.284285851806718"><ele>463.0</ele><time>2026-04-07T15:18:36Z</time></trkpt><trkpt lat="45.505252065833545" lon="11.284408804770814"><ele>462.0</ele><time>2026-04-07T15:18:37Z</time></trkpt><trkpt lat="45.50521669501281" lon="11.284505670593918"><ele>461.0</ele><time>2026-04-07T15:18:38Z</time></trkpt><trkpt lat="45.50513107788979" lon="11.2845795620526"><ele>460.0</ele><time>2026-04-07T15:18:39Z</time></trkpt><trkpt lat="45.50502643112732" lon="11.284658888789252"><ele>461.25</ele><time>2026-04-07T15:18:40Z</time></trkpt><trkpt lat="45.5049480174076" lon="11.284788174626064"><ele>462.5</ele><time>2026-04-07T15:18:41Z</time></trkpt><trkpt lat="45.50489782803834" lon="11.284994062176906"><ele>463.75</ele><time>2026-04-07T15:18:42Z</time></trkpt><trkpt lat="45.504867118234536" lon="11.285224541001703"><ele>465.0</ele><time>2026-04-07T15:18:43Z</time></trkpt><trkpt lat="45.50483626781778" lon="11.28547511021324"><ele>466.0</ele><time>2026-04-07T15:18:44Z</time></trkpt><trkpt lat="45.50481951022362" lon="11.285718008501856"><ele>467.0</ele><time>2026-04-07T15:18:45Z</time></trkpt><trkpt lat="45.50480569686271" lon="11.285926320670585"><ele>468.0</ele><time>2026-04-07T15:18:46Z</time></trkpt><trkpt lat="45.504805706460374" lon="11.286095102598672"><ele>469.0</ele><time>2026-04-07T15:18:47Z</time></trkpt><trkpt lat="45.5048403349055" lon="11.28624422434886"><ele>469.0</ele><time>2026-04-07T15:18:48Z</time></trkpt><trkpt lat="45.50484949159202" lon="11.286390056242201"><ele>469.0</ele><time>2026-04-07T15:18:49Z</time></trkpt><trkpt lat="45.50483159802866" lon="11.286578355581195"><ele>469.0</ele><time>2026-04-07T15:18:50Z</time></trkpt><trkpt lat="45.504800639409744" lon="11.286795829633691"><ele>469.0</ele><time>2026-04-07T15:18:51Z</time></trkpt><trkpt lat="45.50475779287232" lon="11.287020270931311"><ele>469.6</ele><time>2026-04-07T15:18:52Z</time></trkpt><trkpt lat="45.5047368371217" lon="11.28720822865764"><ele>470.2</ele><time>2026-04-07T15:18:53Z</time></trkpt><trkpt lat="45.50473917639666" lon="11.287357466335887"><ele>470.80000000000007</ele><time>2026-04-07T15:18:54Z</time></trkpt><trkpt lat="45.504729411733706" lon="11.287467478119552"><ele>471.40000000000003</ele><time>2026-04-07T15:18:55Z</time></trkpt><trkpt lat="45.50466214350715" lon="11.2875632300429"><ele>472.0</ele><time>2026-04-07T15:18:56Z</time></trkpt><trkpt lat="45.504550036048165" lon="11.287627467959013"><ele>473.0</ele><time>2026-04-07T15:18:57Z</time></trkpt><trkpt lat="45.50441873981534" lon="11.287726111117626"><ele>474.0</ele><time>2026-04-07T15:18:57.999Z</time></trkpt><trkpt lat="45.50431377076177" lon="11.28788149767897"><ele>475.0</ele><time>2026-04-07T15:18:58.999Z</time></trkpt><trkpt lat="45.50420962387641" lon="11.28809697507324"><ele>475.0</ele><time>2026-04-07T15:18:59.999Z</time></trkpt><trkpt lat="45.50410924204728" lon="11.28836525370021"><ele>475.0</ele><time>2026-04-07T15:19:00.999Z</time></trkpt><trkpt lat="45.50400297253889" lon="11.288624805448052"><ele>475.0</ele><time>2026-04-07T15:19:01.999Z</time></trkpt><trkpt lat="45.50389365235873" lon="11.288873440692011"><ele>473.6666666666667</ele><time>2026-04-07T15:19:02.999Z</time></trkpt><trkpt lat="45.50375905965514" lon="11.289135261178245"><ele>472.33333333333337</ele><time>2026-04-07T15:19:03.999Z</time></trkpt><trkpt lat="45.50361275692774" lon="11.289348646455243"><ele>471.0</ele><time>2026-04-07T15:19:04.999Z</time></trkpt><trkpt lat="45.50344156067852" lon="11.289494646070342"><ele>471.0</ele><time>2026-04-07T15:19:05.999Z</time></trkpt><trkpt lat="45.503291365086525" lon="11.289644093130189"><ele>471.0</ele><time>2026-04-07T15:19:06.999Z</time></trkpt><trkpt lat="45.5031738989337" lon="11.289802176828468"><ele>471.0</ele><time>2026-04-07T15:19:07.999Z</time></trkpt><trkpt lat="45.50308135656316" lon="11.289972803651338"><ele>472.0</ele><time>2026-04-07T15:19:08.999Z</time></trkpt><trkpt lat="45.50300186483675" lon="11.290110833751546"><ele>473.0</ele><time>2026-04-07T15:19:09.999Z</time></trkpt><trkpt lat="45.50288274546447" lon="11.290216941510508"><ele>474.0</ele><time>2026-04-07T15:19:10.999Z</time></trkpt><trkpt lat="45.50276783562368" lon="11.290311128830758"><ele>475.0</ele><time>2026-04-07T15:19:11.999Z</time></trkpt><trkpt lat="45.5026948792398" lon="11.290425853771387"><ele>475.0</ele><time>2026-04-07T15:19:12.999Z</time></trkpt><trkpt lat="45.50264285397318" lon="11.29058478511368"><ele>475.0</ele><time>2026-04-07T15:19:13.999Z</time></trkpt><trkpt lat="45.502624872255254" lon="11.290745007965906"><ele>475.0</ele><time>2026-04-07T15:19:14.999Z</time></trkpt><trkpt lat="45.502662232004866" lon="11.290888104252412"><ele>475.0</ele><time>2026-04-07T15:19:15.999Z</time></trkpt><trkpt lat="45.5027443970091" lon="11.291034648652687"><ele>480.33333333333337</ele><time>2026-04-07T15:19:16.999Z</time></trkpt><trkpt lat="45.5028457871334" lon="11.291188969779041"><ele>485.66666666666663</ele><time>2026-04-07T15:19:17.999Z</time></trkpt><trkpt lat="45.50291297902654" lon="11.2914113827981"><ele>491.0</ele><time>2026-04-07T15:19:18.999Z</time></trkpt><trkpt lat="45.50293567238613" lon="11.291668366369425"><ele>498.0</ele><time>2026-04-07T15:19:19.999Z</time></trkpt><trkpt lat="45.50297743597785" lon="11.291935628475917"><ele>505.0</ele><time>2026-04-07T15:19:20.999Z</time></trkpt><trkpt lat="45.503068982825575" lon="11.292171867656242"><ele>512.0</ele><time>2026-04-07T15:19:21.999Z</time></trkpt><trkpt lat="45.50312812184676" lon="11.29239413267507"><ele>512.0</ele><time>2026-04-07T15:19:22.999Z</time></trkpt><trkpt lat="45.503130796558104" lon="11.292625754723803"><ele>512.0</ele><time>2026-04-07T15:19:23.999Z</time></trkpt><trkpt lat="45.503091741495226" lon="11.292861659824059"><ele>512.0</ele><time>2026-04-07T15:19:24.999Z</time></trkpt><trkpt lat="45.50305408848174" lon="11.293083153403387"><ele>513.6666666666666</ele><time>2026-04-07T15:19:25.999Z</time></trkpt><trkpt lat="45.503041840196" lon="11.2932957048053"><ele>515.3333333333334</ele><time>2026-04-07T15:19:26.999Z</time></trkpt><trkpt lat="45.50305926861421" lon="11.293524641912628"><ele>517.0</ele><time>2026-04-07T15:19:27.999Z</time></trkpt><trkpt lat="45.50311170471848" lon="11.293794044420288"><ele>516.0</ele><time>2026-04-07T15:19:28.999Z</time></trkpt><trkpt lat="45.50316428323083" lon="11.294057272345798"><ele>515.0</ele><time>2026-04-07T15:19:29.999Z</time></trkpt><trkpt lat="45.5031826171678" lon="11.294277555215716"><ele>514.0</ele><time>2026-04-07T15:19:30.999Z</time></trkpt><trkpt lat="45.50321992581898" lon="11.294462387659188"><ele>514.0</ele><time>2026-04-07T15:19:31.999Z</time></trkpt><trkpt lat="45.50331722329802" lon="11.294630192180934"><ele>514.0</ele><time>2026-04-07T15:19:32.999Z</time></trkpt><trkpt lat="45.50342691133395" lon="11.294833652600012"><ele>514.0</ele><time>2026-04-07T15:19:33.999Z</time></trkpt><trkpt lat="45.50353494698442" lon="11.29503663763289"><ele>515.25</ele><time>2026-04-07T15:19:34.999Z</time></trkpt><trkpt lat="45.50365710748152" lon="11.295163939646416"><ele>516.5</ele><time>2026-04-07T15:19:35.999Z</time></trkpt><trkpt lat="45.503762011053375" lon="11.295275676403358"><ele>517.75</ele><time>2026-04-07T15:19:36.999Z</time></trkpt><trkpt lat="45.50381367829485" lon="11.295425476434893"><ele>519.0</ele><time>2026-04-07T15:19:37.999Z</time></trkpt><trkpt lat="45.503821790138" lon="11.295614482104643"><ele>519.0</ele><time>2026-04-07T15:19:38.999Z</time></trkpt><trkpt lat="45.50380152237651" lon="11.295855867458325"><ele>519.0</ele><time>2026-04-07T15:19:39.999Z</time></trkpt><trkpt lat="45.50379953142974" lon="11.296122248732557"><ele>519.0</ele><time>2026-04-07T15:19:40.999Z</time></trkpt><trkpt lat="45.503849585129544" lon="11.296385975012301"><ele>518.6666666666666</ele><time>2026-04-07T15:19:41.999Z</time></trkpt><trkpt lat="45.503947362615484" lon="11.296636270092373"><ele>518.3333333333333</ele><time>2026-04-07T15:19:42.999Z</time></trkpt><trkpt lat="45.50405995078563" lon="11.296861441132783"><ele>518.0</ele><time>2026-04-07T15:19:43.999Z</time></trkpt><trkpt lat="45.50414659542652" lon="11.297063188612032"><ele>518.0</ele><time>2026-04-07T15:19:44.999Z</time></trkpt><trkpt lat="45.50420487647743" lon="11.297233894655989"><ele>518.0</ele><time>2026-04-07T15:19:45.999Z</time></trkpt><trkpt lat="45.50427128448908" lon="11.297388460245763"><ele>518.0</ele><time>2026-04-07T15:19:46.999Z</time></trkpt><trkpt lat="45.504364198025314" lon="11.297503894173726"><ele>518.0</ele><time>2026-04-07T15:19:47.999Z</time></trkpt><trkpt lat="45.504492876086395" lon="11.297573740026264"><ele>517.6666666666666</ele><time>2026-04-07T15:19:48.999Z</time></trkpt><trkpt lat="45.50468600695671" lon="11.297593520548233"><ele>517.3333333333334</ele><time>2026-04-07T15:19:49.999Z</time></trkpt><trkpt lat="45.50487099780762" lon="11.29764910383505"><ele>517.0</ele><time>2026-04-07T15:19:50.999Z</time></trkpt><trkpt lat="45.505060570807295" lon="11.297717140933742"><ele>517.0</ele><time>2026-04-07T15:19:51.999Z</time></trkpt><trkpt lat="45.50522968444933" lon="11.29778215934513"><ele>517.0</ele><time>2026-04-07T15:19:52.999Z</time></trkpt><trkpt lat="45.50538022466959" lon="11.297832935396913"><ele>517.0</ele><time>2026-04-07T15:19:53.999Z</time></trkpt><trkpt lat="45.505532634322385" lon="11.297805404689436"><ele>513.6666666666667</ele><time>2026-04-07T15:19:54.999Z</time></trkpt><trkpt lat="45.50566999669423" lon="11.297712174511064"><ele>510.33333333333337</ele><time>2026-04-07T15:19:55.999Z</time></trkpt><trkpt lat="45.50579916917629" lon="11.297565894244503"><ele>507.0</ele><time>2026-04-07T15:19:56.999Z</time></trkpt><trkpt lat="45.50591115912902" lon="11.297372113220291"><ele>511.0</ele><time>2026-04-07T15:19:57.999Z</time></trkpt><trkpt lat="45.505998471119504" lon="11.297141869776485"><ele>515.0</ele><time>2026-04-07T15:19:58.999Z</time></trkpt><trkpt lat="45.506096509285015" lon="11.296903784072287"><ele>519.0</ele><time>2026-04-07T15:19:59.999Z</time></trkpt><trkpt lat="45.506208322237576" lon="11.296687147507127"><ele>519.0</ele><time>2026-04-07T15:20:00.999Z</time></trkpt><trkpt lat="45.506319842991346" lon="11.296505689209049"><ele>519.0</ele><time>2026-04-07T15:20:01.999Z</time></trkpt><trkpt lat="45.50644659597471" lon="11.296363523457817"><ele>519.0</ele><time>2026-04-07T15:20:02.999Z</time></trkpt><trkpt lat="45.50660081762709" lon="11.296247283082668"><ele>519.0</ele><time>2026-04-07T15:20:03.998Z</time></trkpt><trkpt lat="45.50676123151021" lon="11.2961472133758"><ele>519.0</ele><time>2026-04-07T15:20:04.998Z</time></trkpt><trkpt lat="45.50691751273189" lon="11.296047419727298"><ele>519.0</ele><time>2026-04-07T15:20:05.998Z</time></trkpt><trkpt lat="45.507055276334" lon="11.295960491669481"><ele>511.75</ele><time>2026-04-07T15:20:06.998Z</time></trkpt><trkpt lat="45.507163088513764" lon="11.295883628709595"><ele>504.5</ele><time>2026-04-07T15:20:07.998Z</time></trkpt><trkpt lat="45.50726861600618" lon="11.295845920813981"><ele>497.25</ele><time>2026-04-07T15:20:08.998Z</time></trkpt><trkpt lat="45.50737915923527" lon="11.295869481458737"><ele>490.0</ele><time>2026-04-07T15:20:09.998Z</time></trkpt><trkpt lat="45.50747696939124" lon="11.295958283547026"><ele>490.0</ele><time>2026-04-07T15:20:11Z</time></trkpt><trkpt lat="45.50755667022403" lon="11.29612155444401"><ele>490.0</ele><time>2026-04-07T15:20:12Z</time></trkpt><trkpt lat="45.507596123567374" lon="11.296320412195769"><ele>490.0</ele><time>2026-04-07T15:20:13Z</time></trkpt><trkpt lat="45.50760535493051" lon="11.296524090188004"><ele>490.0</ele><time>2026-04-07T15:20:14Z</time></trkpt><trkpt lat="45.50759271787983" lon="11.296719464018635"><ele>486.33333333333337</ele><time>2026-04-07T15:20:15Z</time></trkpt><trkpt lat="45.50763059003744" lon="11.296902439968477"><ele>482.66666666666663</ele><time>2026-04-07T15:20:16Z</time></trkpt><trkpt lat="45.507707953234" lon="11.297089124773626"><ele>479.0</ele><time>2026-04-07T15:20:17Z</time></trkpt><trkpt lat="45.50779664921882" lon="11.29729563412121"><ele>475.3333333333333</ele><time>2026-04-07T15:20:18Z</time></trkpt><trkpt lat="45.50789400221314" lon="11.2974992328782"><ele>471.66666666666663</ele><time>2026-04-07T15:20:19Z</time></trkpt><trkpt lat="45.50801294015717" lon="11.297663699809505"><ele>468.0</ele><time>2026-04-07T15:20:20Z</time></trkpt><trkpt lat="45.50813510964718" lon="11.297816163838135"><ele>468.0</ele><time>2026-04-07T15:20:21Z</time></trkpt><trkpt lat="45.508257349878825" lon="11.297957612869586"><ele>468.0</ele><time>2026-04-07T15:20:22Z</time></trkpt><trkpt lat="45.50840445447482" lon="11.298043959343248"><ele>468.0</ele><time>2026-04-07T15:20:23Z</time></trkpt><trkpt lat="45.508570359404274" lon="11.298092224417676"><ele>464.75</ele><time>2026-04-07T15:20:24Z</time></trkpt><trkpt lat="45.5087289769785" lon="11.298155293777752"><ele>461.5</ele><time>2026-04-07T15:20:25Z</time></trkpt><trkpt lat="45.50886930976097" lon="11.298205066571784"><ele>458.25</ele><time>2026-04-07T15:20:26Z</time></trkpt><trkpt lat="45.50898504842921" lon="11.298286387847517"><ele>455.0</ele><time>2026-04-07T15:20:27Z</time></trkpt><trkpt lat="45.50907838207535" lon="11.298410886350911"><ele>453.75</ele><time>2026-04-07T15:20:28Z</time></trkpt><trkpt lat="45.50913255658361" lon="11.298571885287336"><ele>452.5</ele><time>2026-04-07T15:20:29Z</time></trkpt><trkpt lat="45.50914537435743" lon="11.298764380919154"><ele>451.25</ele><time>2026-04-07T15:20:30Z</time></trkpt><trkpt lat="45.50913301182041" lon="11.298997167855646"><ele>450.0</ele><time>2026-04-07T15:20:31Z</time></trkpt><trkpt lat="45.50911204729229" lon="11.299224803359232"><ele>446.33333333333337</ele><time>2026-04-07T15:20:32Z</time></trkpt><trkpt lat="45.50908268556161" lon="11.299428638202196"><ele>442.6666666666667</ele><time>2026-04-07T15:20:33Z</time></trkpt><trkpt lat="45.50902597443549" lon="11.299628115224627"><ele>439.0</ele><time>2026-04-07T15:20:34Z</time></trkpt><trkpt lat="45.50893634825369" lon="11.299805725872753"><ele>437.5</ele><time>2026-04-07T15:20:35Z</time></trkpt><trkpt lat="45.50883880499415" lon="11.299969658133639"><ele>436.0</ele><time>2026-04-07T15:20:36Z</time></trkpt><trkpt lat="45.508763743909064" lon="11.300145841904925"><ele>434.5</ele><time>2026-04-07T15:20:37Z</time></trkpt><trkpt lat="45.50873733279513" lon="11.300342412895667"><ele>433.0</ele><time>2026-04-07T15:20:38Z</time></trkpt><trkpt lat="45.508754143971956" lon="11.30055840536395"><ele>427.6666666666667</ele><time>2026-04-07T15:20:39Z</time></trkpt><trkpt lat="45.50881508523379" lon="11.300779973321621"><ele>422.33333333333337</ele><time>2026-04-07T15:20:40Z</time></trkpt><trkpt lat="45.50890983173024" lon="11.301005081706501"><ele>417.0</ele><time>2026-04-07T15:20:41Z</time></trkpt><trkpt lat="45.509025268614195" lon="11.301218594260412"><ele>413.0</ele><time>2026-04-07T15:20:42Z</time></trkpt><trkpt lat="45.50914049690062" lon="11.301419361732547"><ele>409.0</ele><time>2026-04-07T15:20:43Z</time></trkpt><trkpt lat="45.50924741821386" lon="11.301626449712826"><ele>405.0</ele><time>2026-04-07T15:20:44Z</time></trkpt><trkpt lat="45.50935089176534" lon="11.301834139449717"><ele>405.0</ele><time>2026-04-07T15:20:45Z</time></trkpt><trkpt lat="45.509452410104586" lon="11.302039148759734"><ele>405.0</ele><time>2026-04-07T15:20:46Z</time></trkpt><trkpt lat="45.50954006454965" lon="11.302216948809328"><ele>405.0</ele><time>2026-04-07T15:20:47Z</time></trkpt><trkpt lat="45.5096126960515" lon="11.302363011865063"><ele>404.0</ele><time>2026-04-07T15:20:48Z</time></trkpt><trkpt lat="45.509661228203186" lon="11.302509485453431"><ele>403.0</ele><time>2026-04-07T15:20:49Z</time></trkpt><trkpt lat="45.50966989141784" lon="11.30266291519551"><ele>402.0</ele><time>2026-04-07T15:20:50Z</time></trkpt><trkpt lat="45.509636587843296" lon="11.30283365624415"><ele>401.0</ele><time>2026-04-07T15:20:51Z</time></trkpt><trkpt lat="45.50957706567497" lon="11.303021962602873"><ele>396.0</ele><time>2026-04-07T15:20:52Z</time></trkpt><trkpt lat="45.50952501323225" lon="11.303247541254866"><ele>391.0</ele><time>2026-04-07T15:20:53Z</time></trkpt><trkpt lat="45.509505597536354" lon="11.303496769514775"><ele>386.0</ele><time>2026-04-07T15:20:54Z</time></trkpt><trkpt lat="45.5094955686674" lon="11.303763893406106"><ele>385.0</ele><time>2026-04-07T15:20:55Z</time></trkpt><trkpt lat="45.50947473998753" lon="11.304010224338196"><ele>384.0</ele><time>2026-04-07T15:20:56Z</time></trkpt><trkpt lat="45.50945818428372" lon="11.30424139846784"><ele>383.0</ele><time>2026-04-07T15:20:57Z</time></trkpt><trkpt lat="45.509445962645536" lon="11.30443264239206"><ele>383.0</ele><time>2026-04-07T15:20:58Z</time></trkpt><trkpt lat="45.50943709769886" lon="11.304573095126942"><ele>383.0</ele><time>2026-04-07T15:20:59Z</time></trkpt><trkpt lat="45.509409059410444" lon="11.304705750087418"><ele>383.0</ele><time>2026-04-07T15:21:00Z</time></trkpt><trkpt lat="45.509342436568886" lon="11.304816290495683"><ele>383.0</ele><time>2026-04-07T15:21:01Z</time></trkpt><trkpt lat="45.50922243770558" lon="11.304880515571048"><ele>383.0</ele><time>2026-04-07T15:21:02Z</time></trkpt><trkpt lat="45.50906807817037" lon="11.304920098017448"><ele>380.0</ele><time>2026-04-07T15:21:03Z</time></trkpt><trkpt lat="45.50891445937997" lon="11.304973848219085"><ele>377.0</ele><time>2026-04-07T15:21:04Z</time></trkpt><trkpt lat="45.50877941992806" lon="11.30503542846373"><ele>374.0</ele><time>2026-04-07T15:21:05Z</time></trkpt><trkpt lat="45.50865532783302" lon="11.305088298943978"><ele>371.0</ele><time>2026-04-07T15:21:05.999Z</time></trkpt><trkpt lat="45.508548147804404" lon="11.305129882920612"><ele>370.6666666666667</ele><time>2026-04-07T15:21:06.999Z</time></trkpt><trkpt lat="45.50846727127214" lon="11.305175381130859"><ele>370.33333333333337</ele><time>2026-04-07T15:21:07.999Z</time></trkpt><trkpt lat="45.50841820609022" lon="11.305236278954059"><ele>370.0</ele><time>2026-04-07T15:21:08.999Z</time></trkpt><trkpt lat="45.508404254784075" lon="11.30532902027386"><ele>369.6666666666667</ele><time>2026-04-07T15:21:09.999Z</time></trkpt><trkpt lat="45.5084400014684" lon="11.305432541700426"><ele>369.3333333333333</ele><time>2026-04-07T15:21:10.999Z</time></trkpt><trkpt lat="45.50852178036855" lon="11.305509379016932"><ele>369.0</ele><time>2026-04-07T15:21:11.999Z</time></trkpt><trkpt lat="45.50865616582156" lon="11.305530572943448"><ele>369.6666666666667</ele><time>2026-04-07T15:21:12.999Z</time></trkpt><trkpt lat="45.50881432494578" lon="11.305514150069339"><ele>370.33333333333337</ele><time>2026-04-07T15:21:13.999Z</time></trkpt><trkpt lat="45.50900033774867" lon="11.30549007940521"><ele>371.0</ele><time>2026-04-07T15:21:14.999Z</time></trkpt><trkpt lat="45.509201604674814" lon="11.305479535756362"><ele>371.0</ele><time>2026-04-07T15:21:15.999Z</time></trkpt><trkpt lat="45.50939234691462" lon="11.305467513822787"><ele>371.0</ele><time>2026-04-07T15:21:16.999Z</time></trkpt><trkpt lat="45.509573280630455" lon="11.30546853734294"><ele>371.0</ele><time>2026-04-07T15:21:17.999Z</time></trkpt><trkpt lat="45.5097452692147" lon="11.305468630201709"><ele>367.6666666666667</ele><time>2026-04-07T15:21:18.999Z</time></trkpt><trkpt lat="45.509913956605615" lon="11.305451150886745"><ele>364.3333333333333</ele><time>2026-04-07T15:21:19.999Z</time></trkpt><trkpt lat="45.51008566303959" lon="11.305396845759647"><ele>361.0</ele><time>2026-04-07T15:21:20.999Z</time></trkpt><trkpt lat="45.510261661486425" lon="11.305304704084476"><ele>354.3333333333333</ele><time>2026-04-07T15:21:21.999Z</time></trkpt><trkpt lat="45.510425086449786" lon="11.305217487218124"><ele>347.6666666666667</ele><time>2026-04-07T15:21:22.999Z</time></trkpt><trkpt lat="45.51057153247574" lon="11.30514822018871"><ele>341.0</ele><time>2026-04-07T15:21:23.999Z</time></trkpt><trkpt lat="45.510695431560656" lon="11.305091070094802"><ele>341.0</ele><time>2026-04-07T15:21:24.999Z</time></trkpt><trkpt lat="45.51079671188711" lon="11.305035842845365"><ele>341.0</ele><time>2026-04-07T15:21:25.999Z</time></trkpt><trkpt lat="45.51085861582647" lon="11.304942864777688"><ele>341.0</ele><time>2026-04-07T15:21:26.999Z</time></trkpt><trkpt lat="45.51088425818977" lon="11.304803785763989"><ele>341.0</ele><time>2026-04-07T15:21:27.999Z</time></trkpt><trkpt lat="45.510885747775" lon="11.304651607351715"><ele>341.0</ele><time>2026-04-07T15:21:28.999Z</time></trkpt><trkpt lat="45.51088949147607" lon="11.304531734140774"><ele>338.0</ele><time>2026-04-07T15:21:29.999Z</time></trkpt><trkpt lat="45.510936045384234" lon="11.304433980977386"><ele>335.0</ele><time>2026-04-07T15:21:30.999Z</time></trkpt><trkpt lat="45.51103992270168" lon="11.304389327314539"><ele>332.0</ele><time>2026-04-07T15:21:31.999Z</time></trkpt><trkpt lat="45.51118543489488" lon="11.304372386431096"><ele>329.0</ele><time>2026-04-07T15:21:32.999Z</time></trkpt><trkpt lat="45.511353044946965" lon="11.304366541404864"><ele>329.0</ele><time>2026-04-07T15:21:33.999Z</time></trkpt><trkpt lat="45.5115307886894" lon="11.304343711846766"><ele>329.0</ele><time>2026-04-07T15:21:34.999Z</time></trkpt><trkpt lat="45.51170657335847" lon="11.304304371765726"><ele>329.0</ele><time>2026-04-07T15:21:35.999Z</time></trkpt><trkpt lat="45.51186837024273" lon="11.304251946328144"><ele>329.0</ele><time>2026-04-07T15:21:36.999Z</time></trkpt><trkpt lat="45.512004245729344" lon="11.30419094529025"><ele>329.0</ele><time>2026-04-07T15:21:37.999Z</time></trkpt><trkpt lat="45.512114960192356" lon="11.30412553607945"><ele>329.0</ele><time>2026-04-07T15:21:38.999Z</time></trkpt><trkpt lat="45.51220842469388" lon="11.30401928825913"><ele>329.0</ele><time>2026-04-07T15:21:39.999Z</time></trkpt><trkpt lat="45.5122703200105" lon="11.303864424580912"><ele>324.0</ele><time>2026-04-07T15:21:40.999Z</time></trkpt><trkpt lat="45.51228888537597" lon="11.303674007605228"><ele>319.0</ele><time>2026-04-07T15:21:41.999Z</time></trkpt><trkpt lat="45.51226059143298" lon="11.3034642803451"><ele>314.0</ele><time>2026-04-07T15:21:42.999Z</time></trkpt><trkpt lat="45.51219867723024" lon="11.303247997719247"><ele>309.0</ele><time>2026-04-07T15:21:43.999Z</time></trkpt><trkpt lat="45.51218541729406" lon="11.303040533608147"><ele>309.0</ele><time>2026-04-07T15:21:44.999Z</time></trkpt><trkpt lat="45.512229337821275" lon="11.302843927650846"><ele>309.0</ele><time>2026-04-07T15:21:45.999Z</time></trkpt><trkpt lat="45.51232130275394" lon="11.302651075673646"><ele>309.0</ele><time>2026-04-07T15:21:46.999Z</time></trkpt><trkpt lat="45.51244349308932" lon="11.302454195621745"><ele>309.0</ele><time>2026-04-07T15:21:47.999Z</time></trkpt><trkpt lat="45.5125775101595" lon="11.302253961332756"><ele>309.0</ele><time>2026-04-07T15:21:48.999Z</time></trkpt><trkpt lat="45.512694841339204" lon="11.302085036278086"><ele>309.0</ele><time>2026-04-07T15:21:49.999Z</time></trkpt><trkpt lat="45.5127809517836" lon="11.301895571343017"><ele>310.0</ele><time>2026-04-07T15:21:50.999Z</time></trkpt><trkpt lat="45.512848392544136" lon="11.30171520506325"><ele>311.0</ele><time>2026-04-07T15:21:51.999Z</time></trkpt><trkpt lat="45.51293626194219" lon="11.301586439250725"><ele>312.0</ele><time>2026-04-07T15:21:52.999Z</time></trkpt><trkpt lat="45.513057234295566" lon="11.301516087740765"><ele>313.0</ele><time>2026-04-07T15:21:53.999Z</time></trkpt><trkpt lat="45.51320139326664" lon="11.301513428676826"><ele>309.3333333333333</ele><time>2026-04-07T15:21:54.999Z</time></trkpt><trkpt lat="45.513365563316846" lon="11.301555824472718"><ele>305.6666666666667</ele><time>2026-04-07T15:21:55.999Z</time></trkpt><trkpt lat="45.51354429396138" lon="11.301600699020517"><ele>302.0</ele><time>2026-04-07T15:21:56.999Z</time></trkpt><trkpt lat="45.513732749241875" lon="11.301624089061777"><ele>301.25</ele><time>2026-04-07T15:21:57.999Z</time></trkpt><trkpt lat="45.51389803155507" lon="11.301640948943158"><ele>300.5</ele><time>2026-04-07T15:21:58.999Z</time></trkpt><trkpt lat="45.51404161009715" lon="11.301654504240727"><ele>299.75</ele><time>2026-04-07T15:21:59.999Z</time></trkpt><trkpt lat="45.514165735644106" lon="11.301670158550637"><ele>299.0</ele><time>2026-04-07T15:22:00.999Z</time></trkpt><trkpt lat="45.514276437617625" lon="11.301720539913337"><ele>299.0</ele><time>2026-04-07T15:22:01.999Z</time></trkpt><trkpt lat="45.51436643463706" lon="11.301821421669327"><ele>299.0</ele><time>2026-04-07T15:22:02.999Z</time></trkpt><trkpt lat="45.51442859721594" lon="11.30196824113232"><ele>299.0</ele><time>2026-04-07T15:22:03.999Z</time></trkpt><trkpt lat="45.51446342725716" lon="11.302169844382119"><ele>299.0</ele><time>2026-04-07T15:22:04.999Z</time></trkpt><trkpt lat="45.51447868913163" lon="11.302400677380442"><ele>295.33333333333337</ele><time>2026-04-07T15:22:05.999Z</time></trkpt><trkpt lat="45.51448774932237" lon="11.30262406812649"><ele>291.6666666666667</ele><time>2026-04-07T15:22:06.999Z</time></trkpt><trkpt lat="45.51451700784152" lon="11.302836938583068"><ele>288.0</ele><time>2026-04-07T15:22:07.999Z</time></trkpt><trkpt lat="45.514576588314156" lon="11.303047302423664"><ele>286.0</ele><time>2026-04-07T15:22:08.998Z</time></trkpt><trkpt lat="45.51466192073704" lon="11.303247779356896"><ele>284.0</ele><time>2026-04-07T15:22:09.998Z</time></trkpt><trkpt lat="45.51476428180041" lon="11.303434682663392"><ele>282.0</ele><time>2026-04-07T15:22:10.998Z</time></trkpt><trkpt lat="45.514859776514086" lon="11.303614070942809"><ele>282.0</ele><time>2026-04-07T15:22:11.998Z</time></trkpt><trkpt lat="45.514947470268616" lon="11.303778190259449"><ele>282.0</ele><time>2026-04-07T15:22:12.998Z</time></trkpt><trkpt lat="45.51502461044028" lon="11.303939775480487"><ele>282.0</ele><time>2026-04-07T15:22:13.998Z</time></trkpt><trkpt lat="45.515087619077434" lon="11.304121047027913"><ele>282.0</ele><time>2026-04-07T15:22:14.998Z</time></trkpt><trkpt lat="45.51510638724152" lon="11.304340574720769"><ele>280.0</ele><time>2026-04-07T15:22:15.998Z</time></trkpt><trkpt lat="45.51514675014148" lon="11.304567800085499"><ele>278.0</ele><time>2026-04-07T15:22:17.001Z</time></trkpt><trkpt lat="45.51515760029213" lon="11.304784274469888"><ele>276.0</ele><time>2026-04-07T15:22:18.001Z</time></trkpt><trkpt lat="45.51518083347191" lon="11.304998809375961"><ele>273.5</ele><time>2026-04-07T15:22:19.001Z</time></trkpt><trkpt lat="45.51520183978085" lon="11.305202072033447"><ele>271.0</ele><time>2026-04-07T15:22:20.001Z</time></trkpt><trkpt lat="45.51522461448355" lon="11.30540725505757"><ele>268.5</ele><time>2026-04-07T15:22:21.001Z</time></trkpt><trkpt lat="45.515225358459" lon="11.305614200579377"><ele>266.0</ele><time>2026-04-07T15:22:22Z</time></trkpt><trkpt lat="45.51522568363936" lon="11.305839671709226"><ele>263.0</ele><time>2026-04-07T15:22:23Z</time></trkpt><trkpt lat="45.51522078638144" lon="11.306070864272286"><ele>260.0</ele><time>2026-04-07T15:22:24Z</time></trkpt><trkpt lat="45.51522878301228" lon="11.30630127746285"><ele>257.0</ele><time>2026-04-07T15:22:25Z</time></trkpt><trkpt lat="45.51522172400453" lon="11.306534306162535"><ele>254.0</ele><time>2026-04-07T15:22:26Z</time></trkpt><trkpt lat="45.51521856154698" lon="11.306769043201701"><ele>251.0</ele><time>2026-04-07T15:22:27Z</time></trkpt><trkpt lat="45.515196619638715" lon="11.307012023988888"><ele>248.0</ele><time>2026-04-07T15:22:28Z</time></trkpt><trkpt lat="45.51519211352414" lon="11.307259245495917"><ele>245.0</ele><time>2026-04-07T15:22:29Z</time></trkpt><trkpt lat="45.51518798117219" lon="11.307509728335464"><ele>242.0</ele><time>2026-04-07T15:22:30Z</time></trkpt><trkpt lat="45.51518305139157" lon="11.307737185839288"><ele>239.0</ele><time>2026-04-07T15:22:31Z</time></trkpt><trkpt lat="45.51517565984922" lon="11.307971909164841"><ele>236.33333333333334</ele><time>2026-04-07T15:22:32Z</time></trkpt><trkpt lat="45.515170638398196" lon="11.308216160490986"><ele>233.66666666666669</ele><time>2026-04-07T15:22:33Z</time></trkpt><trkpt lat="45.51516683792251" lon="11.308458203246943"><ele>231.0</ele><time>2026-04-07T15:22:34Z</time></trkpt><trkpt lat="45.515180124274245" lon="11.30867945396993"><ele>231.0</ele><time>2026-04-07T15:22:35Z</time></trkpt><trkpt lat="45.515183836774135" lon="11.308898594428396"><ele>231.0</ele><time>2026-04-07T15:22:36Z</time></trkpt><trkpt lat="45.51519718952193" lon="11.309118416640432"><ele>231.0</ele><time>2026-04-07T15:22:37Z</time></trkpt><trkpt lat="45.51523165884219" lon="11.30932945051358"><ele>228.0</ele><time>2026-04-07T15:22:38Z</time></trkpt><trkpt lat="45.515272773622286" lon="11.309534641182843"><ele>225.0</ele><time>2026-04-07T15:22:39Z</time></trkpt><trkpt lat="45.51531615643444" lon="11.30974375255049"><ele>222.0</ele><time>2026-04-07T15:22:40Z</time></trkpt><trkpt lat="45.515356263070245" lon="11.309954074066612"><ele>223.66666666666669</ele><time>2026-04-07T15:22:41Z</time></trkpt><trkpt lat="45.515399564980676" lon="11.310168461258804"><ele>225.33333333333334</ele><time>2026-04-07T15:22:42Z</time></trkpt><trkpt lat="45.515439707874755" lon="11.310384265071054"><ele>227.0</ele><time>2026-04-07T15:22:43Z</time></trkpt><trkpt lat="45.51546376524772" lon="11.310596081548104"><ele>227.0</ele><time>2026-04-07T15:22:44Z</time></trkpt><trkpt lat="45.515498738192825" lon="11.310784329191373"><ele>227.0</ele><time>2026-04-07T15:22:45Z</time></trkpt><trkpt lat="45.51554925736743" lon="11.310961537985113"><ele>227.0</ele><time>2026-04-07T15:22:46Z</time></trkpt><trkpt lat="45.51558576979786" lon="11.311155652108352"><ele>227.0</ele><time>2026-04-07T15:22:47Z</time></trkpt><trkpt lat="45.51562362083636" lon="11.311336978540128"><ele>220.75</ele><time>2026-04-07T15:22:48Z</time></trkpt><trkpt lat="45.51566948189782" lon="11.311489906481066"><ele>214.5</ele><time>2026-04-07T15:22:49Z</time></trkpt><trkpt lat="45.515742514691276" lon="11.311631861839878"><ele>208.25</ele><time>2026-04-07T15:22:50Z</time></trkpt><trkpt lat="45.5158397971562" lon="11.31175608837978"><ele>202.0</ele><time>2026-04-07T15:22:51Z</time></trkpt><trkpt lat="45.51595647128706" lon="11.31187477578383"><ele>202.0</ele><time>2026-04-07T15:22:52Z</time></trkpt><trkpt lat="45.51606182024684" lon="11.311991809499874"><ele>202.0</ele><time>2026-04-07T15:22:53Z</time></trkpt><trkpt lat="45.51614604369004" lon="11.312109552266177"><ele>202.0</ele><time>2026-04-07T15:22:54Z</time></trkpt><trkpt lat="45.51622065194108" lon="11.312240214988252"><ele>202.0</ele><time>2026-04-07T15:22:55Z</time></trkpt><trkpt lat="45.516299492982824" lon="11.312374141683566"><ele>200.75</ele><time>2026-04-07T15:22:56Z</time></trkpt><trkpt lat="45.516393062361715" lon="11.312501833579182"><ele>199.5</ele><time>2026-04-07T15:22:57Z</time></trkpt><trkpt lat="45.51648600886721" lon="11.312636633750218"><ele>198.25</ele><time>2026-04-07T15:22:58Z</time></trkpt><trkpt lat="45.516541619461805" lon="11.312797667683208"><ele>197.0</ele><time>2026-04-07T15:22:59Z</time></trkpt><trkpt lat="45.51661383188252" lon="11.312938832265715"><ele>193.6</ele><time>2026-04-07T15:23:00Z</time></trkpt><trkpt lat="45.516668101851884" lon="11.31307652197097"><ele>190.2</ele><time>2026-04-07T15:23:01Z</time></trkpt><trkpt lat="45.51672970311617" lon="11.313193703444275"><ele>186.8</ele><time>2026-04-07T15:23:02Z</time></trkpt><trkpt lat="45.51680292621474" lon="11.31329090092904"><ele>183.4</ele><time>2026-04-07T15:23:03Z</time></trkpt><trkpt lat="45.51688325411223" lon="11.313380121791939"><ele>180.0</ele><time>2026-04-07T15:23:04Z</time></trkpt><trkpt lat="45.51696796758569" lon="11.313462821538515"><ele>180.0</ele><time>2026-04-07T15:23:05Z</time></trkpt><trkpt lat="45.517056519431755" lon="11.31352967152673"><ele>180.0</ele><time>2026-04-07T15:23:06Z</time></trkpt><trkpt lat="45.517142618441454" lon="11.313563582049381"><ele>180.0</ele><time>2026-04-07T15:23:07Z</time></trkpt><trkpt lat="45.51722619475493" lon="11.3136088591652"><ele>180.0</ele><time>2026-04-07T15:23:08Z</time></trkpt><trkpt lat="45.51729304415803" lon="11.313673218088761"><ele>180.0</ele><time>2026-04-07T15:23:09Z</time></trkpt><trkpt lat="45.51734600941661" lon="11.313763255412047"><ele>180.0</ele><time>2026-04-07T15:23:10Z</time></trkpt><trkpt lat="45.5173659915827" lon="11.31385766065705"><ele>178.8</ele><time>2026-04-07T15:23:11Z</time></trkpt><trkpt lat="45.51739789588052" lon="11.313979119069257"><ele>177.6</ele><time>2026-04-07T15:23:12.999Z</time></trkpt><trkpt lat="45.51741021731264" lon="11.314173684735094"><ele>176.39999999999998</ele><time>2026-04-07T15:23:14.999Z</time></trkpt><trkpt lat="45.51741340155862" lon="11.314279783263345"><ele>175.2</ele><time>2026-04-07T15:23:15.999Z</time></trkpt><trkpt lat="45.517439085288466" lon="11.314399427775784"><ele>174.0</ele><time>2026-04-07T15:23:16.999Z</time></trkpt><trkpt lat="45.517465011017514" lon="11.314519871978996"><ele>174.0</ele><time>2026-04-07T15:23:17.999Z</time></trkpt><trkpt lat="45.517528624523706" lon="11.314627772931356"><ele>174.0</ele><time>2026-04-07T15:23:18.999Z</time></trkpt><trkpt lat="45.51760978492159" lon="11.314733288066051"><ele>174.0</ele><time>2026-04-07T15:23:19.999Z</time></trkpt><trkpt lat="45.517679864555305" lon="11.314842533991728"><ele>174.0</ele><time>2026-04-07T15:23:20.999Z</time></trkpt><trkpt lat="45.51772814205229" lon="11.314973653555626"><ele>174.0</ele><time>2026-04-07T15:23:21.999Z</time></trkpt><trkpt lat="45.51779792998127" lon="11.315082557517318"><ele>173.2</ele><time>2026-04-07T15:23:22.999Z</time></trkpt><trkpt lat="45.51785302782992" lon="11.31520380303876"><ele>172.39999999999998</ele><time>2026-04-07T15:23:23.999Z</time></trkpt><trkpt lat="45.517910603539015" lon="11.315329706121421"><ele>171.6</ele><time>2026-04-07T15:23:24.999Z</time></trkpt><trkpt lat="45.51798022988698" lon="11.315458675108022"><ele>170.8</ele><time>2026-04-07T15:23:25.999Z</time></trkpt><trkpt lat="45.51805807764958" lon="11.315583532179712"><ele>170.0</ele><time>2026-04-07T15:23:26.999Z</time></trkpt><trkpt lat="45.518154595345024" lon="11.315678772709175"><ele>168.16666666666666</ele><time>2026-04-07T15:23:27.999Z</time></trkpt><trkpt lat="45.51823574569905" lon="11.315763531982464"><ele>166.33333333333331</ele><time>2026-04-07T15:23:28.999Z</time></trkpt><trkpt lat="45.518293881740036" lon="11.315828583793145"><ele>164.5</ele><time>2026-04-07T15:23:29.999Z</time></trkpt><trkpt lat="45.518342092230085" lon="11.315892880363611"><ele>162.66666666666666</ele><time>2026-04-07T15:23:30.999Z</time></trkpt><trkpt lat="45.51838794820595" lon="11.315967638089665"><ele>160.83333333333334</ele><time>2026-04-07T15:23:31.999Z</time></trkpt><trkpt lat="45.51844603716566" lon="11.316073895079791"><ele>159.0</ele><time>2026-04-07T15:23:32.999Z</time></trkpt><trkpt lat="45.518505264912235" lon="11.31619144153246"><ele>159.0</ele><time>2026-04-07T15:23:33.999Z</time></trkpt><trkpt lat="45.51856043692652" lon="11.316312704260483"><ele>159.0</ele><time>2026-04-07T15:23:34.999Z</time></trkpt><trkpt lat="45.51861085509496" lon="11.316443184074906"><ele>159.0</ele><time>2026-04-07T15:23:35.999Z</time></trkpt><trkpt lat="45.51864620613719" lon="11.31657267732831"><ele>159.0</ele><time>2026-04-07T15:23:36.999Z</time></trkpt><trkpt lat="45.518677462218136" lon="11.316702609741242"><ele>159.0</ele><time>2026-04-07T15:23:37.999Z</time></trkpt><trkpt lat="45.51870132744681" lon="11.316821685594746"><ele>157.66666666666666</ele><time>2026-04-07T15:23:38.999Z</time></trkpt><trkpt lat="45.51872442724503" lon="11.316914029119433"><ele>156.33333333333334</ele><time>2026-04-07T15:23:39.999Z</time></trkpt><trkpt lat="45.51874658870593" lon="11.317000305148976"><ele>155.0</ele><time>2026-04-07T15:23:40.999Z</time></trkpt><trkpt lat="45.51877269506289" lon="11.31710476445248"><ele>153.66666666666669</ele><time>2026-04-07T15:23:42.999Z</time></trkpt><trkpt lat="45.51880687142069" lon="11.31721961981115"><ele>152.33333333333334</ele><time>2026-04-07T15:23:49.999Z</time></trkpt><trkpt lat="45.51883539135884" lon="11.31733666524143"><ele>151.0</ele><time>2026-04-07T15:23:51.999Z</time></trkpt><trkpt lat="45.51886249063707" lon="11.317436217804355"><ele>148.0</ele><time>2026-04-07T15:23:52.999Z</time></trkpt><trkpt lat="45.51889835176576" lon="11.317557012251855"><ele>145.0</ele><time>2026-04-07T15:23:53.999Z</time></trkpt><trkpt lat="45.51894010508795" lon="11.317692559173684"><ele>142.0</ele><time>2026-04-07T15:23:54.999Z</time></trkpt><trkpt lat="45.51899649357678" lon="11.317843600931662"><ele>139.0</ele><time>2026-04-07T15:23:55.999Z</time></trkpt><trkpt lat="45.51907560932553" lon="11.318003954878167"><ele>138.75</ele><time>2026-04-07T15:23:56.999Z</time></trkpt><trkpt lat="45.51916061062599" lon="11.318144292164327"><ele>138.5</ele><time>2026-04-07T15:23:57.999Z</time></trkpt><trkpt lat="45.51925439961774" lon="11.318279404555266"><ele>138.25</ele><time>2026-04-07T15:23:58.999Z</time></trkpt><trkpt lat="45.5193505398324" lon="11.318420814868166"><ele>138.0</ele><time>2026-04-07T15:23:59.999Z</time></trkpt><trkpt lat="45.519450565471466" lon="11.318579876134043"><ele>138.0</ele><time>2026-04-07T15:24:00.999Z</time></trkpt><trkpt lat="45.51955106945128" lon="11.318743198960158"><ele>138.0</ele><time>2026-04-07T15:24:01.999Z</time></trkpt><trkpt lat="45.519657410304305" lon="11.318906827515114"><ele>138.0</ele><time>2026-04-07T15:24:02.999Z</time></trkpt><trkpt lat="45.51976452362606" lon="11.319071639045072"><ele>136.66666666666666</ele><time>2026-04-07T15:24:03.999Z</time></trkpt><trkpt lat="45.51987248361056" lon="11.319242598708389"><ele>135.33333333333331</ele><time>2026-04-07T15:24:04.999Z</time></trkpt><trkpt lat="45.51997649764185" lon="11.319411522950581"><ele>134.0</ele><time>2026-04-07T15:24:05.999Z</time></trkpt><trkpt lat="45.52008198904111" lon="11.319579116208264"><ele>132.66666666666666</ele><time>2026-04-07T15:24:06.999Z</time></trkpt><trkpt lat="45.52018645943373" lon="11.319744749874287"><ele>131.33333333333334</ele><time>2026-04-07T15:24:07.999Z</time></trkpt><trkpt lat="45.52028988147574" lon="11.31991340602016"><ele>130.0</ele><time>2026-04-07T15:24:08.999Z</time></trkpt><trkpt lat="45.520394868773515" lon="11.320085657476104"><ele>129.33333333333334</ele><time>2026-04-07T15:24:09.998Z</time></trkpt><trkpt lat="45.52050006877996" lon="11.320255582831976"><ele>128.66666666666666</ele><time>2026-04-07T15:24:10.998Z</time></trkpt><trkpt lat="45.52060765273394" lon="11.32042213395602"><ele>128.0</ele><time>2026-04-07T15:24:11.998Z</time></trkpt><trkpt lat="45.52070838370829" lon="11.320578452287796"><ele>127.75</ele><time>2026-04-07T15:24:12.998Z</time></trkpt><trkpt lat="45.520806769872735" lon="11.320736016905984"><ele>127.5</ele><time>2026-04-07T15:24:13.998Z</time></trkpt><trkpt lat="45.52090452973103" lon="11.320885618624233"><ele>127.25</ele><time>2026-04-07T15:24:14.998Z</time></trkpt><trkpt lat="45.520993002304024" lon="11.321027795039258"><ele>127.0</ele><time>2026-04-07T15:24:15.998Z</time></trkpt><trkpt lat="45.52107317098326" lon="11.321156244904788"><ele>127.0</ele><time>2026-04-07T15:24:16.998Z</time></trkpt><trkpt lat="45.521155669101" lon="11.321279576838005"><ele>126.99999999999999</ele><time>2026-04-07T15:24:17.998Z</time></trkpt><trkpt lat="45.521234812007755" lon="11.321402616848845"><ele>126.99999999999999</ele><time>2026-04-07T15:24:18.998Z</time></trkpt><trkpt lat="45.521304351600186" lon="11.321518717562128"><ele>127.0</ele><time>2026-04-07T15:24:19.998Z</time></trkpt><trkpt lat="45.52136289122073" lon="11.321619291641118"><ele>127.0</ele><time>2026-04-07T15:24:20.998Z</time></trkpt><trkpt lat="45.52141589299327" lon="11.321706917330351"><ele>126.33333333333334</ele><time>2026-04-07T15:24:21.998Z</time></trkpt><trkpt lat="45.52147133369068" lon="11.321777778492942"><ele>125.66666666666667</ele><time>2026-04-07T15:24:23Z</time></trkpt><trkpt lat="45.52157800608063" lon="11.321799660860142"><ele>125.0</ele><time>2026-04-07T15:24:25Z</time></trkpt><trkpt lat="45.521634981577755" lon="11.321749467035586"><ele>124.33333333333334</ele><time>2026-04-07T15:24:26Z</time></trkpt><trkpt lat="45.52168755834777" lon="11.321674457050449"><ele>123.66666666666667</ele><time>2026-04-07T15:24:27Z</time></trkpt><trkpt lat="45.52177301990472" lon="11.321573384495462"><ele>123.0</ele><time>2026-04-07T15:24:29Z</time></trkpt><trkpt lat="45.52186978666822" lon="11.321452575984097"><ele>123.0</ele><time>2026-04-07T15:24:31Z</time></trkpt><trkpt lat="45.52191646280935" lon="11.321391201405229"><ele>123.00000000000001</ele><time>2026-04-07T15:24:32Z</time></trkpt><trkpt lat="45.521982691108896" lon="11.321295474660014"><ele>123.00000000000001</ele><time>2026-04-07T15:24:34Z</time></trkpt><trkpt lat="45.52204995330342" lon="11.321237716107083"><ele>123.0</ele><time>2026-04-07T15:24:36Z</time></trkpt><trkpt lat="45.52213863527288" lon="11.321300406149026"><ele>123.0</ele><time>2026-04-07T15:24:38Z</time></trkpt><trkpt lat="45.52223236289829" lon="11.32140284715443"><ele>123.0</ele><time>2026-04-07T15:24:40Z</time></trkpt><trkpt lat="45.522292682584016" lon="11.321477688881565"><ele>123.00000000000001</ele><time>2026-04-07T15:24:42Z</time></trkpt><trkpt lat="45.522325193358874" lon="11.321571365045342"><ele>123.00000000000001</ele><time>2026-04-07T15:24:44Z</time></trkpt><trkpt lat="45.522361427095056" lon="11.321683699568126"><ele>123.0</ele><time>2026-04-07T15:24:46Z</time></trkpt><trkpt lat="45.522308029157735" lon="11.321796847052925"><ele>123.0</ele><time>2026-04-07T15:24:47Z</time></trkpt><trkpt lat="45.52228866283209" lon="11.321961551631366"><ele>123.0</ele><time>2026-04-07T15:24:49Z</time></trkpt><trkpt lat="45.522347312446456" lon="11.322118392055053"><ele>123.00000000000001</ele><time>2026-04-07T15:24:51Z</time></trkpt><trkpt lat="45.52240923838307" lon="11.322162182750391"><ele>123.00000000000001</ele><time>2026-04-07T15:24:52Z</time></trkpt><trkpt lat="45.52254078929782" lon="11.32214619483013"><ele>123.0</ele><time>2026-04-07T15:24:54Z</time></trkpt><trkpt lat="45.5225992734272" lon="11.322098419744632"><ele>123.0</ele><time>2026-04-07T15:24:55Z</time></trkpt><trkpt lat="45.52269577000771" lon="11.32198470217403"><ele>123.0</ele><time>2026-04-07T15:24:57Z</time></trkpt><trkpt lat="45.52279924699557" lon="11.32201900434717"><ele>123.00000000000001</ele><time>2026-04-07T15:24:58Z</time></trkpt><trkpt lat="45.52288333022165" lon="11.322030740652668"><ele>123.00000000000001</ele><time>2026-04-07T15:24:59Z</time></trkpt><trkpt lat="45.522965832051476" lon="11.32206565507214"><ele>123.0</ele><time>2026-04-07T15:25:00Z</time></trkpt><trkpt lat="45.52304901971718" lon="11.322124571866981"><ele>123.0</ele><time>2026-04-07T15:25:01Z</time></trkpt><trkpt lat="45.52313052386008" lon="11.32219765251438"><ele>123.0</ele><time>2026-04-07T15:25:02Z</time></trkpt><trkpt lat="45.52321620034737" lon="11.322279092249111"><ele>123.00000000000001</ele><time>2026-04-07T15:25:03Z</time></trkpt><trkpt lat="45.523302187781695" lon="11.322356346738491"><ele>123.00000000000001</ele><time>2026-04-07T15:25:04Z</time></trkpt><trkpt lat="45.52338523069872" lon="11.322430827868073"><ele>123.0</ele><time>2026-04-07T15:25:05Z</time></trkpt><trkpt lat="45.523461942233894" lon="11.322499067661454"><ele>123.0</ele><time>2026-04-07T15:25:06Z</time></trkpt><trkpt lat="45.523533997310125" lon="11.322562307050939"><ele>123.0</ele><time>2026-04-07T15:25:07Z</time></trkpt><trkpt lat="45.52361622791635" lon="11.322637923874554"><ele>123.00000000000001</ele><time>2026-04-07T15:25:08Z</time></trkpt><trkpt lat="45.52369811313635" lon="11.322716236433982"><ele>123.00000000000001</ele><time>2026-04-07T15:25:09Z</time></trkpt><trkpt lat="45.523776510356505" lon="11.322799834782815"><ele>123.0</ele><time>2026-04-07T15:25:10Z</time></trkpt><trkpt lat="45.523857374687196" lon="11.322875442732117"><ele>123.0</ele><time>2026-04-07T15:25:11Z</time></trkpt><trkpt lat="45.52393345266776" lon="11.322949445144026"><ele>123.0</ele><time>2026-04-07T15:25:12Z</time></trkpt><trkpt lat="45.52399544075637" lon="11.323010391593483"><ele>123.0</ele><time>2026-04-07T15:25:13Z</time></trkpt><trkpt lat="45.52407519709648" lon="11.323056202220954"><ele>123.0</ele><time>2026-04-07T15:25:15Z</time></trkpt><trkpt lat="45.524141698826156" lon="11.323075256939639"><ele>123.0</ele><time>2026-04-07T15:25:17.999Z</time></trkpt><trkpt lat="45.52422620046073" lon="11.323125579018097"><ele>123.0</ele><time>2026-04-07T15:25:20.999Z</time></trkpt><trkpt lat="45.524301933203674" lon="11.323205485163752"><ele>123.0</ele><time>2026-04-07T15:25:22.999Z</time></trkpt><trkpt lat="45.524366732705374" lon="11.323236030771058"><ele>123.2857142857143</ele><time>2026-04-07T15:25:26.999Z</time></trkpt><trkpt lat="45.52443181389797" lon="11.323238366335286"><ele>123.57142857142858</ele><time>2026-04-07T15:25:28.999Z</time></trkpt><trkpt lat="45.52449309036152" lon="11.323161451353283"><ele>123.85714285714286</ele><time>2026-04-07T15:25:29.999Z</time></trkpt><trkpt lat="45.524569718566376" lon="11.32314606474322"><ele>124.14285714285715</ele><time>2026-04-07T15:25:30.999Z</time></trkpt><trkpt lat="45.52462859984518" lon="11.323080311144945"><ele>124.42857142857144</ele><time>2026-04-07T15:25:31.999Z</time></trkpt><trkpt lat="45.52469346941407" lon="11.323052766923745"><ele>124.71428571428571</ele><time>2026-04-07T15:25:32.999Z</time></trkpt><trkpt lat="45.524760636869665" lon="11.323015722101594"><ele>125.0</ele><time>2026-04-07T15:25:33.999Z</time></trkpt><trkpt lat="45.52482277405085" lon="11.322972596215829"><ele>124.99999999999999</ele><time>2026-04-07T15:25:34.999Z</time></trkpt><trkpt lat="45.5248840294168" lon="11.322951804582805"><ele>125.0</ele><time>2026-04-07T15:25:35.999Z</time></trkpt><trkpt lat="45.524984503164816" lon="11.322862924139287"><ele>125.0</ele><time>2026-04-07T15:25:37.999Z</time></trkpt><trkpt lat="45.525027565900864" lon="11.32279139637372"><ele>125.0</ele><time>2026-04-07T15:25:38.999Z</time></trkpt><trkpt lat="45.525086282805" lon="11.3227361186877"><ele>124.99999999999999</ele><time>2026-04-07T15:25:39.999Z</time></trkpt><trkpt lat="45.52514902298938" lon="11.322664958033862"><ele>125.0</ele><time>2026-04-07T15:25:40.999Z</time></trkpt><trkpt lat="45.52520909361553" lon="11.322578580817197"><ele>124.99999999999999</ele><time>2026-04-07T15:25:41.999Z</time></trkpt><trkpt lat="45.52526367937682" lon="11.322496846320387"><ele>125.0</ele><time>2026-04-07T15:25:42.999Z</time></trkpt><trkpt lat="45.5253189589644" lon="11.322409960488612"><ele>125.0</ele><time>2026-04-07T15:25:43.999Z</time></trkpt><trkpt lat="45.525375454569996" lon="11.322314428485544"><ele>125.0</ele><time>2026-04-07T15:25:44.999Z</time></trkpt><trkpt lat="45.525434957254554" lon="11.322215980717605"><ele>124.99999999999999</ele><time>2026-04-07T15:25:45.999Z</time></trkpt><trkpt lat="45.52549244981122" lon="11.322119331818303"><ele>125.0</ele><time>2026-04-07T15:25:46.999Z</time></trkpt><trkpt lat="45.525543818719136" lon="11.322046166935245"><ele>125.33333333333333</ele><time>2026-04-07T15:25:47.999Z</time></trkpt><trkpt lat="45.52561103463433" lon="11.321933931349413"><ele>125.66666666666666</ele><time>2026-04-07T15:25:49.999Z</time></trkpt><trkpt lat="45.52567260732951" lon="11.321820322263871"><ele>126.0</ele><time>2026-04-07T15:25:51.999Z</time></trkpt><trkpt lat="45.5257089971177" lon="11.321746976624208"><ele>126.33333333333334</ele><time>2026-04-07T15:25:52.999Z</time></trkpt><trkpt lat="45.52574695636802" lon="11.321658918665921"><ele>126.66666666666667</ele><time>2026-04-07T15:25:53.999Z</time></trkpt><trkpt lat="45.52579104261762" lon="11.321557595538168"><ele>127.0</ele><time>2026-04-07T15:25:54.999Z</time></trkpt><trkpt lat="45.52584343503019" lon="11.321459027300856"><ele>126.83333333333334</ele><time>2026-04-07T15:25:55.999Z</time></trkpt><trkpt lat="45.525895651511036" lon="11.321362779256706"><ele>126.66666666666667</ele><time>2026-04-07T15:25:56.999Z</time></trkpt><trkpt lat="45.525940242977384" lon="11.321277387058288"><ele>126.5</ele><time>2026-04-07T15:25:57.999Z</time></trkpt><trkpt lat="45.52598426188338" lon="11.321188041390508"><ele>126.33333333333334</ele><time>2026-04-07T15:25:58.999Z</time></trkpt><trkpt lat="45.52602818669646" lon="11.321100164731721"><ele>126.16666666666667</ele><time>2026-04-07T15:25:59.999Z</time></trkpt><trkpt lat="45.52607015064291" lon="11.321008042079805"><ele>126.0</ele><time>2026-04-07T15:26:00.999Z</time></trkpt><trkpt lat="45.52611424232241" lon="11.320920529794888"><ele>126.0</ele><time>2026-04-07T15:26:01.999Z</time></trkpt><trkpt lat="45.526155146928154" lon="11.320825357143738"><ele>126.0</ele><time>2026-04-07T15:26:02.999Z</time></trkpt><trkpt lat="45.52620043106426" lon="11.320713984174288"><ele>126.0</ele><time>2026-04-07T15:26:03.999Z</time></trkpt><trkpt lat="45.526246762787096" lon="11.320577379764709"><ele>126.0</ele><time>2026-04-07T15:26:04.999Z</time></trkpt><trkpt lat="45.526291040364505" lon="11.32044121434415"><ele>126.0</ele><time>2026-04-07T15:26:05.999Z</time></trkpt><trkpt lat="45.52633326383279" lon="11.320318660225112"><ele>126.19999999999999</ele><time>2026-04-07T15:26:06.999Z</time></trkpt><trkpt lat="45.52636795546493" lon="11.320204859041107"><ele>126.39999999999999</ele><time>2026-04-07T15:26:07.999Z</time></trkpt><trkpt lat="45.526399132004144" lon="11.320117038513544"><ele>126.6</ele><time>2026-04-07T15:26:08.999Z</time></trkpt><trkpt lat="45.52644866186731" lon="11.319977306543086"><ele>126.8</ele><time>2026-04-07T15:26:10.998Z</time></trkpt><trkpt lat="45.52650259501561" lon="11.319802659813785"><ele>127.0</ele><time>2026-04-07T15:26:12.998Z</time></trkpt><trkpt lat="45.526533821049576" lon="11.319697912403825"><ele>127.0</ele><time>2026-04-07T15:26:13.998Z</time></trkpt><trkpt lat="45.52656509116914" lon="11.319577610656363"><ele>126.99999999999999</ele><time>2026-04-07T15:26:14.998Z</time></trkpt><trkpt lat="45.52660070638418" lon="11.319447205789732"><ele>126.99999999999999</ele><time>2026-04-07T15:26:15.998Z</time></trkpt><trkpt lat="45.52664189320453" lon="11.3193144065557"><ele>127.0</ele><time>2026-04-07T15:26:16.998Z</time></trkpt><trkpt lat="45.52667631979426" lon="11.319173707581857"><ele>127.0</ele><time>2026-04-07T15:26:17.998Z</time></trkpt><trkpt lat="45.52672213715298" lon="11.319017424546924"><ele>127.0</ele><time>2026-04-07T15:26:18.998Z</time></trkpt><trkpt lat="45.52677059677449" lon="11.318853704461244"><ele>127.0</ele><time>2026-04-07T15:26:19.998Z</time></trkpt><trkpt lat="45.526824035398434" lon="11.318671937844138"><ele>127.0</ele><time>2026-04-07T15:26:20.998Z</time></trkpt><trkpt lat="45.526888715885576" lon="11.318478522375875"><ele>127.0</ele><time>2026-04-07T15:26:21.998Z</time></trkpt><trkpt lat="45.52695134275544" lon="11.318296050360244"><ele>127.0</ele><time>2026-04-07T15:26:22.998Z</time></trkpt><trkpt lat="45.527016280664064" lon="11.318132224130842"><ele>127.0</ele><time>2026-04-07T15:26:23.998Z</time></trkpt><trkpt lat="45.52707435727651" lon="11.317980255835243"><ele>127.0</ele><time>2026-04-07T15:26:24.998Z</time></trkpt><trkpt lat="45.52712905360043" lon="11.317842791569156"><ele>127.0</ele><time>2026-04-07T15:26:25.998Z</time></trkpt><trkpt lat="45.52718120098917" lon="11.317710387927113"><ele>127.19999999999999</ele><time>2026-04-07T15:26:26.998Z</time></trkpt><trkpt lat="45.52724662801032" lon="11.317596458279965"><ele>127.39999999999999</ele><time>2026-04-07T15:26:27.998Z</time></trkpt><trkpt lat="45.52730317826117" lon="11.317462234072002"><ele>127.60000000000001</ele><time>2026-04-07T15:26:29Z</time></trkpt><trkpt lat="45.527341859157154" lon="11.317326498056758"><ele>127.80000000000001</ele><time>2026-04-07T15:26:30Z</time></trkpt><trkpt lat="45.52739882741051" lon="11.317235207072972"><ele>128.0</ele><time>2026-04-07T15:26:31Z</time></trkpt><trkpt lat="45.52742774116975" lon="11.317128143178538"><ele>128.0</ele><time>2026-04-07T15:26:32Z</time></trkpt><trkpt lat="45.52748475824963" lon="11.317031247878006"><ele>128.0</ele><time>2026-04-07T15:26:33Z</time></trkpt><trkpt lat="45.52751764255193" lon="11.316908205853352"><ele>128.0</ele><time>2026-04-07T15:26:34Z</time></trkpt><trkpt lat="45.52756927346104" lon="11.316794802631273"><ele>128.0</ele><time>2026-04-07T15:26:35Z</time></trkpt><trkpt lat="45.52762130805882" lon="11.316684345663221"><ele>128.0</ele><time>2026-04-07T15:26:36Z</time></trkpt><trkpt lat="45.5276639781642" lon="11.316586306755537"><ele>127.99999999999999</ele><time>2026-04-07T15:26:37Z</time></trkpt><trkpt lat="45.52769894137842" lon="11.316501406670346"><ele>128.0</ele><time>2026-04-07T15:26:38Z</time></trkpt><trkpt lat="45.52775887921655" lon="11.316363064341346"><ele>128.0</ele><time>2026-04-07T15:26:40Z</time></trkpt><trkpt lat="45.527803823965066" lon="11.316262858985477"><ele>128.0</ele><time>2026-04-07T15:26:42Z</time></trkpt><trkpt lat="45.52785194088" lon="11.31615202651542"><ele>127.99999999999999</ele><time>2026-04-07T15:26:44Z</time></trkpt><trkpt lat="45.52788690966902" lon="11.316063800699283"><ele>128.0</ele><time>2026-04-07T15:26:45Z</time></trkpt><trkpt lat="45.527932021897996" lon="11.315958887393167"><ele>129.6</ele><time>2026-04-07T15:26:46Z</time></trkpt><trkpt lat="45.527980933838684" lon="11.315842601983817"><ele>131.20000000000002</ele><time>2026-04-07T15:26:47Z</time></trkpt><trkpt lat="45.52802784635787" lon="11.315723794712076"><ele>132.8</ele><time>2026-04-07T15:26:48Z</time></trkpt><trkpt lat="45.52807070187301" lon="11.315612161734293"><ele>134.4</ele><time>2026-04-07T15:26:49Z</time></trkpt><trkpt lat="45.52812616997281" lon="11.315467846923521"><ele>136.0</ele><time>2026-04-07T15:26:50Z</time></trkpt><trkpt lat="45.528180603662086" lon="11.31533665794721"><ele>136.0</ele><time>2026-04-07T15:26:51Z</time></trkpt><trkpt lat="45.528234363969084" lon="11.31521052259945"><ele>136.0</ele><time>2026-04-07T15:26:52Z</time></trkpt><trkpt lat="45.52828727773552" lon="11.315084515853105"><ele>136.0</ele><time>2026-04-07T15:26:53Z</time></trkpt><trkpt lat="45.52835278351305" lon="11.314965765512614"><ele>136.0</ele><time>2026-04-07T15:26:54Z</time></trkpt><trkpt lat="45.528396194897475" lon="11.314828199260866"><ele>136.0</ele><time>2026-04-07T15:26:55Z</time></trkpt><trkpt lat="45.5284546392741" lon="11.31468969435969"><ele>135.8</ele><time>2026-04-07T15:26:56Z</time></trkpt><trkpt lat="45.52851333915672" lon="11.31454959724878"><ele>135.6</ele><time>2026-04-07T15:26:57Z</time></trkpt><trkpt lat="45.52856256009694" lon="11.314425895508364"><ele>135.4</ele><time>2026-04-07T15:26:58Z</time></trkpt><trkpt lat="45.52861630343217" lon="11.314309665405274"><ele>135.2</ele><time>2026-04-07T15:26:59Z</time></trkpt><trkpt lat="45.52866396492111" lon="11.314191914709863"><ele>135.0</ele><time>2026-04-07T15:27:00Z</time></trkpt><trkpt lat="45.52870892372711" lon="11.31407704614074"><ele>136.0</ele><time>2026-04-07T15:27:01Z</time></trkpt><trkpt lat="45.52875985829958" lon="11.31399371386631"><ele>137.0</ele><time>2026-04-07T15:27:02Z</time></trkpt><trkpt lat="45.52879952729316" lon="11.31386117345883"><ele>138.0</ele><time>2026-04-07T15:27:03Z</time></trkpt><trkpt lat="45.52885813747015" lon="11.313728100187792"><ele>139.0</ele><time>2026-04-07T15:27:04Z</time></trkpt><trkpt lat="45.52891587904482" lon="11.313575912383559"><ele>140.0</ele><time>2026-04-07T15:27:05Z</time></trkpt><trkpt lat="45.528975449860916" lon="11.313442449665368"><ele>140.0</ele><time>2026-04-07T15:27:06Z</time></trkpt><trkpt lat="45.52902694489644" lon="11.313310566092927"><ele>140.0</ele><time>2026-04-07T15:27:07Z</time></trkpt><trkpt lat="45.529076753218945" lon="11.313173953969615"><ele>140.0</ele><time>2026-04-07T15:27:08Z</time></trkpt><trkpt lat="45.52912442556077" lon="11.313039121575446"><ele>140.0</ele><time>2026-04-07T15:27:09Z</time></trkpt><trkpt lat="45.52917516550462" lon="11.31290577113719"><ele>140.0</ele><time>2026-04-07T15:27:10Z</time></trkpt><trkpt lat="45.52922460956039" lon="11.312776204868621"><ele>139.2</ele><time>2026-04-07T15:27:11Z</time></trkpt><trkpt lat="45.52927163399212" lon="11.312649432924626"><ele>138.4</ele><time>2026-04-07T15:27:12Z</time></trkpt><trkpt lat="45.52931810612764" lon="11.312521503029721"><ele>137.6</ele><time>2026-04-07T15:27:13Z</time></trkpt><trkpt lat="45.52935579100249" lon="11.31241661329622"><ele>136.8</ele><time>2026-04-07T15:27:14Z</time></trkpt><trkpt lat="45.52940290908072" lon="11.31230009732588"><ele>136.0</ele><time>2026-04-07T15:27:14.999Z</time></trkpt><trkpt lat="45.52944618441193" lon="11.31218070009734"><ele>136.0</ele><time>2026-04-07T15:27:15.999Z</time></trkpt><trkpt lat="45.52948447340879" lon="11.312043478420037"><ele>136.0</ele><time>2026-04-07T15:27:16.999Z</time></trkpt><trkpt lat="45.52953403713158" lon="11.311925633901701"><ele>136.0</ele><time>2026-04-07T15:27:17.999Z</time></trkpt><trkpt lat="45.52958287652792" lon="11.31178135594944"><ele>136.0</ele><time>2026-04-07T15:27:18.999Z</time></trkpt><trkpt lat="45.52964957051452" lon="11.311647897648996"><ele>136.0</ele><time>2026-04-07T15:27:19.999Z</time></trkpt><trkpt lat="45.529707941538575" lon="11.311490824812457"><ele>136.4</ele><time>2026-04-07T15:27:20.999Z</time></trkpt><trkpt lat="45.52976458080085" lon="11.311338396104862"><ele>136.8</ele><time>2026-04-07T15:27:21.999Z</time></trkpt><trkpt lat="45.52981731067103" lon="11.311196483705077"><ele>137.20000000000002</ele><time>2026-04-07T15:27:22.999Z</time></trkpt><trkpt lat="45.52986829051431" lon="11.31105928244515"><ele>137.6</ele><time>2026-04-07T15:27:23.999Z</time></trkpt><trkpt lat="45.52991376826158" lon="11.310938374896564"><ele>138.0</ele><time>2026-04-07T15:27:24.999Z</time></trkpt><trkpt lat="45.52996158386658" lon="11.310808368142405"><ele>138.0</ele><time>2026-04-07T15:27:25.999Z</time></trkpt><trkpt lat="45.53001060433122" lon="11.310675085389331"><ele>138.0</ele><time>2026-04-07T15:27:26.999Z</time></trkpt><trkpt lat="45.530063036133875" lon="11.310532527504739"><ele>138.0</ele><time>2026-04-07T15:27:27.999Z</time></trkpt><trkpt lat="45.530114569399316" lon="11.310392412588277"><ele>138.0</ele><time>2026-04-07T15:27:28.999Z</time></trkpt><trkpt lat="45.530155206485944" lon="11.310237731733945"><ele>138.0</ele><time>2026-04-07T15:27:29.999Z</time></trkpt><trkpt lat="45.53021448019218" lon="11.310097736839014"><ele>138.0</ele><time>2026-04-07T15:27:30.999Z</time></trkpt><trkpt lat="45.530269188303066" lon="11.309962132643394"><ele>138.0</ele><time>2026-04-07T15:27:31.999Z</time></trkpt><trkpt lat="45.53032049103944" lon="11.30982126375528"><ele>138.0</ele><time>2026-04-07T15:27:32.999Z</time></trkpt><trkpt lat="45.53038829970298" lon="11.309686778947336"><ele>138.0</ele><time>2026-04-07T15:27:33.999Z</time></trkpt><trkpt lat="45.53043473625589" lon="11.309538370193437"><ele>138.0</ele><time>2026-04-07T15:27:34.999Z</time></trkpt><trkpt lat="45.53049219996896" lon="11.30939922770075"><ele>138.0</ele><time>2026-04-07T15:27:35.999Z</time></trkpt><trkpt lat="45.53055333319151" lon="11.309251669191989"><ele>138.0</ele><time>2026-04-07T15:27:36.999Z</time></trkpt><trkpt lat="45.5306285297154" lon="11.309100728652082"><ele>138.0</ele><time>2026-04-07T15:27:37.999Z</time></trkpt><trkpt lat="45.53069069434379" lon="11.30895773034821"><ele>137.66666666666666</ele><time>2026-04-07T15:27:38.999Z</time></trkpt><trkpt lat="45.530746237607964" lon="11.308834670454898"><ele>137.33333333333334</ele><time>2026-04-07T15:27:39.999Z</time></trkpt><trkpt lat="45.53080239568683" lon="11.308713085422156"><ele>137.0</ele><time>2026-04-07T15:27:40.999Z</time></trkpt><trkpt lat="45.530852181476234" lon="11.308606475910093"><ele>136.66666666666669</ele><time>2026-04-07T15:27:41.999Z</time></trkpt><trkpt lat="45.53088558360614" lon="11.308525345798401"><ele>136.33333333333334</ele><time>2026-04-07T15:27:42.999Z</time></trkpt><trkpt lat="45.53095359736858" lon="11.308446506926924"><ele>136.0</ele><time>2026-04-07T15:27:44.999Z</time></trkpt><trkpt lat="45.53101122896257" lon="11.308403379725615"><ele>136.0</ele><time>2026-04-07T15:27:45.999Z</time></trkpt><trkpt lat="45.531097835445976" lon="11.308365216338956"><ele>136.0</ele><time>2026-04-07T15:27:46.999Z</time></trkpt><trkpt lat="45.53119035695799" lon="11.308341501906956"><ele>136.0</ele><time>2026-04-07T15:27:47.999Z</time></trkpt><trkpt lat="45.53126386172098" lon="11.308276443248504"><ele>136.0</ele><time>2026-04-07T15:27:48.999Z</time></trkpt><trkpt lat="45.53130576908531" lon="11.308183317474239"><ele>136.0</ele><time>2026-04-07T15:27:49.999Z</time></trkpt><trkpt lat="45.531317567704605" lon="11.308061452816842"><ele>136.0</ele><time>2026-04-07T15:27:50.999Z</time></trkpt><trkpt lat="45.53130086082065" lon="11.307925769944976"><ele>136.4</ele><time>2026-04-07T15:27:51.999Z</time></trkpt><trkpt lat="45.53128256887993" lon="11.307808270717189"><ele>136.8</ele><time>2026-04-07T15:27:52.999Z</time></trkpt><trkpt lat="45.531239358736244" lon="11.307713786392965"><ele>137.20000000000002</ele><time>2026-04-07T15:27:53.999Z</time></trkpt><trkpt lat="45.53131062439367" lon="11.307567748104791"><ele>137.6</ele><time>2026-04-07T15:27:54.999Z</time></trkpt><trkpt lat="45.53137662568798" lon="11.307443906836978"><ele>138.0</ele><time>2026-04-07T15:27:55.999Z</time></trkpt><trkpt lat="45.53148564839793" lon="11.307301445890893"><ele>138.0</ele><time>2026-04-07T15:27:56.999Z</time></trkpt><trkpt lat="45.531579903975256" lon="11.307107268205126"><ele>138.0</ele><time>2026-04-07T15:27:57.999Z</time></trkpt><trkpt lat="45.531701753591705" lon="11.306911449265183"><ele>138.0</ele><time>2026-04-07T15:27:58.999Z</time></trkpt><trkpt lat="45.53182487942655" lon="11.306725051484765"><ele>138.0</ele><time>2026-04-07T15:27:59.999Z</time></trkpt><trkpt lat="45.5319326108536" lon="11.30655590233837"><ele>138.0</ele><time>2026-04-07T15:28:00.999Z</time></trkpt><trkpt lat="45.532019696938015" lon="11.30640556650247"><ele>138.0</ele><time>2026-04-07T15:28:01.999Z</time></trkpt><trkpt lat="45.53209938649394" lon="11.306273781917685"><ele>138.0</ele><time>2026-04-07T15:28:02.999Z</time></trkpt><trkpt lat="45.53218614786085" lon="11.306124340101615"><ele>138.25</ele><time>2026-04-07T15:28:03.999Z</time></trkpt><trkpt lat="45.53227504718795" lon="11.305971508664754"><ele>138.5</ele><time>2026-04-07T15:28:04.999Z</time></trkpt><trkpt lat="45.53235743375878" lon="11.305806408381573"><ele>138.75</ele><time>2026-04-07T15:28:05.999Z</time></trkpt><trkpt lat="45.532445438198295" lon="11.305623261953922"><ele>139.0</ele><time>2026-04-07T15:28:06.998Z</time></trkpt><trkpt lat="45.532551116297995" lon="11.30541932316134"><ele>139.66666666666669</ele><time>2026-04-07T15:28:07.998Z</time></trkpt><trkpt lat="45.5326630810682" lon="11.305176594485065"><ele>140.33333333333334</ele><time>2026-04-07T15:28:08.998Z</time></trkpt><trkpt lat="45.53276392795861" lon="11.30498318727061"><ele>141.0</ele><time>2026-04-07T15:28:09.998Z</time></trkpt><trkpt lat="45.53285707280311" lon="11.304791680500564"><ele>142.0</ele><time>2026-04-07T15:28:10.998Z</time></trkpt><trkpt lat="45.53294441236791" lon="11.30460549148629"><ele>143.0</ele><time>2026-04-07T15:28:11.998Z</time></trkpt><trkpt lat="45.53302509720333" lon="11.304427288613313"><ele>144.0</ele><time>2026-04-07T15:28:12.998Z</time></trkpt><trkpt lat="45.53310459414968" lon="11.304259289159475"><ele>145.0</ele><time>2026-04-07T15:28:13.998Z</time></trkpt><trkpt lat="45.533178721266005" lon="11.30410498757262"><ele>145.0</ele><time>2026-04-07T15:28:14.998Z</time></trkpt><trkpt lat="45.53325184464801" lon="11.303946600082954"><ele>145.0</ele><time>2026-04-07T15:28:15.998Z</time></trkpt><trkpt lat="45.53332804093386" lon="11.303781088335006"><ele>145.0</ele><time>2026-04-07T15:28:16.998Z</time></trkpt><trkpt lat="45.53340130571175" lon="11.303626929887532"><ele>145.0</ele><time>2026-04-07T15:28:17.998Z</time></trkpt><trkpt lat="45.53347548673389" lon="11.303474011526287"><ele>145.0</ele><time>2026-04-07T15:28:18.998Z</time></trkpt><trkpt lat="45.53354574868181" lon="11.303322040250176"><ele>145.0</ele><time>2026-04-07T15:28:19.998Z</time></trkpt><trkpt lat="45.53360888913236" lon="11.303186192423505"><ele>145.0</ele><time>2026-04-07T15:28:20.998Z</time></trkpt><trkpt lat="45.53366764897993" lon="11.303059013237956"><ele>145.0</ele><time>2026-04-07T15:28:21.998Z</time></trkpt><trkpt lat="45.533728931546" lon="11.30294096013801"><ele>145.25</ele><time>2026-04-07T15:28:22.998Z</time></trkpt><trkpt lat="45.5337852022368" lon="11.302834689077871"><ele>145.5</ele><time>2026-04-07T15:28:23.998Z</time></trkpt><trkpt lat="45.533852928888905" lon="11.302745376512304"><ele>145.75</ele><time>2026-04-07T15:28:24.998Z</time></trkpt><trkpt lat="45.53389850749042" lon="11.302654066743093"><ele>146.0</ele><time>2026-04-07T15:28:25.998Z</time></trkpt><trkpt lat="45.53412218698087" lon="11.302890484175514"><ele>146.0</ele><time>2026-04-07T15:28:26.998Z</time></trkpt><trkpt lat="45.53418370572672" lon="11.302682680099391"><ele>146.0</ele><time>2026-04-07T15:28:27.998Z</time></trkpt><trkpt lat="45.534303568886145" lon="11.30272114144781"><ele>146.0</ele><time>2026-04-07T15:28:28.998Z</time></trkpt><trkpt lat="45.534420744963434" lon="11.302782119369041"><ele>146.0</ele><time>2026-04-07T15:28:29.998Z</time></trkpt><trkpt lat="45.53454200655763" lon="11.302884195586426"><ele>147.33333333333331</ele><time>2026-04-07T15:28:30.998Z</time></trkpt><trkpt lat="45.53466826119208" lon="11.303018356514363"><ele>148.66666666666666</ele><time>2026-04-07T15:28:31.998Z</time></trkpt><trkpt lat="45.53480944187264" lon="11.303156177646118"><ele>150.0</ele><time>2026-04-07T15:28:32.998Z</time></trkpt><trkpt lat="45.5349329361277" lon="11.303271057896461"><ele>152.0</ele><time>2026-04-07T15:28:33.998Z</time></trkpt><trkpt lat="45.53506504201067" lon="11.303340108690142"><ele>154.0</ele><time>2026-04-07T15:28:35Z</time></trkpt><trkpt lat="45.53522148893714" lon="11.303332985834947"><ele>156.0</ele><time>2026-04-07T15:28:36Z</time></trkpt><trkpt lat="45.53539092325294" lon="11.303276154709133"><ele>158.33333333333334</ele><time>2026-04-07T15:28:37Z</time></trkpt><trkpt lat="45.535569990504165" lon="11.303200872203162"><ele>160.66666666666669</ele><time>2026-04-07T15:28:38Z</time></trkpt><trkpt lat="45.53572738357109" lon="11.303153653004589"><ele>163.0</ele><time>2026-04-07T15:28:39Z</time></trkpt><trkpt lat="45.535863077093424" lon="11.303156895234395"><ele>163.0</ele><time>2026-04-07T15:28:40Z</time></trkpt><trkpt lat="45.53596439712379" lon="11.303149341908862"><ele>163.0</ele><time>2026-04-07T15:28:41Z</time></trkpt><trkpt lat="45.53605101580926" lon="11.303220619052958"><ele>163.0</ele><time>2026-04-07T15:28:42Z</time></trkpt><trkpt lat="45.536105881043305" lon="11.303373756218082"><ele>163.0</ele><time>2026-04-07T15:28:43Z</time></trkpt><trkpt lat="45.53620574326901" lon="11.303510357703827"><ele>164.33333333333334</ele><time>2026-04-07T15:28:44Z</time></trkpt><trkpt lat="45.536316202641444" lon="11.303638163423978"><ele>165.66666666666666</ele><time>2026-04-07T15:28:45Z</time></trkpt><trkpt lat="45.5364601808458" lon="11.3037280342751"><ele>167.0</ele><time>2026-04-07T15:28:46Z</time></trkpt><trkpt lat="45.536609562908545" lon="11.303799475627159"><ele>167.0</ele><time>2026-04-07T15:28:47Z</time></trkpt><trkpt lat="45.536727881964715" lon="11.303872672839782"><ele>167.0</ele><time>2026-04-07T15:28:48Z</time></trkpt><trkpt lat="45.536804042739924" lon="11.30393438524749"><ele>167.0</ele><time>2026-04-07T15:28:49Z</time></trkpt><trkpt lat="45.53687864347034" lon="11.303983686968923"><ele>167.0</ele><time>2026-04-07T15:28:51Z</time></trkpt><trkpt lat="45.53679439123359" lon="11.30422796772225"><ele>168.75</ele><time>2026-04-07T15:28:52Z</time></trkpt><trkpt lat="45.53677517138474" lon="11.304384271343649"><ele>170.5</ele><time>2026-04-07T15:28:53Z</time></trkpt><trkpt lat="45.53675996704602" lon="11.304560557911955"><ele>172.25</ele><time>2026-04-07T15:28:54Z</time></trkpt><trkpt lat="45.536784506669605" lon="11.304741060663561"><ele>174.0</ele><time>2026-04-07T15:28:55Z</time></trkpt><trkpt lat="45.536837931578596" lon="11.304940635909759"><ele>175.0</ele><time>2026-04-07T15:28:56Z</time></trkpt><trkpt lat="45.53690079465488" lon="11.305153796761024"><ele>176.0</ele><time>2026-04-07T15:28:57Z</time></trkpt><trkpt lat="45.53695666284759" lon="11.30534320092905"><ele>177.0</ele><time>2026-04-07T15:28:58Z</time></trkpt><trkpt lat="45.53702869753783" lon="11.30550219988433"><ele>178.0</ele><time>2026-04-07T15:28:59Z</time></trkpt><trkpt lat="45.53710776030637" lon="11.305624112095408"><ele>178.8</ele><time>2026-04-07T15:29:00Z</time></trkpt><trkpt lat="45.53716598038898" lon="11.305718226467233"><ele>179.60000000000002</ele><time>2026-04-07T15:29:01Z</time></trkpt><trkpt lat="45.53720450597195" lon="11.305800767585461"><ele>180.39999999999998</ele><time>2026-04-07T15:29:03Z</time></trkpt><trkpt lat="45.5370876824392" lon="11.306018490117712"><ele>181.2</ele><time>2026-04-07T15:29:33.999Z</time></trkpt><trkpt lat="45.53703536195734" lon="11.306083329871774"><ele>182.0</ele><time>2026-04-07T15:29:36.999Z</time></trkpt><trkpt lat="45.53703636631205" lon="11.305986942749422"><ele>182.66666666666666</ele><time>2026-04-07T15:29:40.999Z</time></trkpt><trkpt lat="45.537099842759915" lon="11.305917440937101"><ele>183.33333333333331</ele><time>2026-04-07T15:40:19.999Z</time></trkpt><trkpt lat="45.537154421233" lon="11.305858872508981"><ele>184.0</ele><time>2026-04-07T15:40:20.999Z</time></trkpt><trkpt lat="45.537187674650504" lon="11.305777836543488"><ele>184.66666666666666</ele><time>2026-04-07T15:40:23.999Z</time></trkpt><trkpt lat="45.53716217932333" lon="11.305636857729779"><ele>185.33333333333334</ele><time>2026-04-07T15:40:27.999Z</time></trkpt><trkpt lat="45.537088405664534" lon="11.305529994384457"><ele>186.0</ele><time>2026-04-07T15:40:28.999Z</time></trkpt><trkpt lat="45.53701065057475" lon="11.30536339524404"><ele>183.33333333333334</ele><time>2026-04-07T15:40:29.999Z</time></trkpt><trkpt lat="45.53693997037176" lon="11.305141580747867"><ele>180.66666666666669</ele><time>2026-04-07T15:40:30.999Z</time></trkpt><trkpt lat="45.536877853775245" lon="11.304925074238076"><ele>178.0</ele><time>2026-04-07T15:40:31.999Z</time></trkpt><trkpt lat="45.536821764575855" lon="11.304740030195576"><ele>177.2</ele><time>2026-04-07T15:40:32.999Z</time></trkpt><trkpt lat="45.53680476198709" lon="11.304555714580786"><ele>176.4</ele><time>2026-04-07T15:40:33.999Z</time></trkpt><trkpt lat="45.53680574488144" lon="11.304384418431116"><ele>175.6</ele><time>2026-04-07T15:40:34.999Z</time></trkpt><trkpt lat="45.536827387492984" lon="11.304234388289215"><ele>174.79999999999998</ele><time>2026-04-07T15:40:35.999Z</time></trkpt><trkpt lat="45.53684877949221" lon="11.304118369634303"><ele>174.0</ele><time>2026-04-07T15:40:36.998Z</time></trkpt><trkpt lat="45.53687417717476" lon="11.303979861863878"><ele>172.25</ele><time>2026-04-07T15:40:38.998Z</time></trkpt><trkpt lat="45.53674023379321" lon="11.303831587463597"><ele>170.5</ele><time>2026-04-07T15:40:43.998Z</time></trkpt><trkpt lat="45.53663822402695" lon="11.303772231547855"><ele>168.75</ele><time>2026-04-07T15:40:44.998Z</time></trkpt><trkpt lat="45.53651730387389" lon="11.303692479587118"><ele>167.0</ele><time>2026-04-07T15:40:45.998Z</time></trkpt><trkpt lat="45.53638967878455" lon="11.303616983578367"><ele>167.0</ele><time>2026-04-07T15:40:46.998Z</time></trkpt><trkpt lat="45.5362778359532" lon="11.303549002722711"><ele>167.0</ele><time>2026-04-07T15:40:47.998Z</time></trkpt><trkpt lat="45.536190806052765" lon="11.303444817805328"><ele>167.0</ele><time>2026-04-07T15:40:48.998Z</time></trkpt><trkpt lat="45.536127430454044" lon="11.303349304082584"><ele>167.0</ele><time>2026-04-07T15:40:49.998Z</time></trkpt><trkpt lat="45.536076494910745" lon="11.30324694631791"><ele>167.0</ele><time>2026-04-07T15:40:50.998Z</time></trkpt><trkpt lat="45.536023079666094" lon="11.303163244746287"><ele>166.2</ele><time>2026-04-07T15:40:51.998Z</time></trkpt><trkpt lat="45.535961107787614" lon="11.303096675841461"><ele>165.39999999999998</ele><time>2026-04-07T15:40:52.998Z</time></trkpt><trkpt lat="45.53586489310104" lon="11.303090854521427"><ele>164.60000000000002</ele><time>2026-04-07T15:40:53.998Z</time></trkpt><trkpt lat="45.53574683287498" lon="11.303109585701579"><ele>163.8</ele><time>2026-04-07T15:40:54.998Z</time></trkpt><trkpt lat="45.53559928056399" lon="11.303145581888959"><ele>163.0</ele><time>2026-04-07T15:40:55.998Z</time></trkpt><trkpt lat="45.53543512136676" lon="11.303192548918192"><ele>161.25</ele><time>2026-04-07T15:40:56.998Z</time></trkpt><trkpt lat="45.535286377523676" lon="11.303250792663773"><ele>159.5</ele><time>2026-04-07T15:40:57.998Z</time></trkpt><trkpt lat="45.53513738636771" lon="11.303249322891299"><ele>157.75</ele><time>2026-04-07T15:40:58.998Z</time></trkpt><trkpt lat="45.53501609290293" lon="11.303277614456478"><ele>156.0</ele><time>2026-04-07T15:40:59.998Z</time></trkpt><trkpt lat="45.53491349490017" lon="11.30320479987253"><ele>156.0</ele><time>2026-04-07T15:41:00.998Z</time></trkpt><trkpt lat="45.534814342268845" lon="11.303112908499626"><ele>156.0</ele><time>2026-04-07T15:41:01.998Z</time></trkpt><trkpt lat="45.53470482415819" lon="11.303007346622888"><ele>156.0</ele><time>2026-04-07T15:41:02.998Z</time></trkpt><trkpt lat="45.53460016923526" lon="11.302906932924335"><ele>156.0</ele><time>2026-04-07T15:41:03.998Z</time></trkpt><trkpt lat="45.53450475420542" lon="11.302813601667545"><ele>154.0</ele><time>2026-04-07T15:41:04.998Z</time></trkpt><trkpt lat="45.53440703001313" lon="11.302728248744852"><ele>152.0</ele><time>2026-04-07T15:41:05.998Z</time></trkpt><trkpt lat="45.53430923265029" lon="11.302683047075398"><ele>150.0</ele><time>2026-04-07T15:41:06.998Z</time></trkpt><trkpt lat="45.53422608009983" lon="11.302650223115252"><ele>148.0</ele><time>2026-04-07T15:41:07.998Z</time></trkpt><trkpt lat="45.53415668011804" lon="11.302635480122582"><ele>146.0</ele><time>2026-04-07T15:41:08.998Z</time></trkpt><trkpt lat="45.53404073107831" lon="11.302577226124635"><ele>146.0</ele><time>2026-04-07T15:41:11Z</time></trkpt><trkpt lat="45.533971397077906" lon="11.30254179274248"><ele>146.0</ele><time>2026-04-07T15:41:13Z</time></trkpt><trkpt lat="45.53398629227418" lon="11.302322074915859"><ele>146.0</ele><time>2026-04-07T15:41:18Z</time></trkpt><trkpt lat="45.53404722054615" lon="11.302202387620458"><ele>146.0</ele><time>2026-04-07T15:41:19Z</time></trkpt><trkpt lat="45.53409266759171" lon="11.302109234378129"><ele>146.0</ele><time>2026-04-07T15:41:20Z</time></trkpt><trkpt lat="45.53413482834839" lon="11.302011634946984"><ele>146.0</ele><time>2026-04-07T15:41:21Z</time></trkpt><trkpt lat="45.534181769678916" lon="11.301896136528581"><ele>146.0</ele><time>2026-04-07T15:41:22Z</time></trkpt><trkpt lat="45.53423390802558" lon="11.30176823084036"><ele>146.0</ele><time>2026-04-07T15:41:23Z</time></trkpt><trkpt lat="45.534291908436316" lon="11.301629798270756"><ele>146.0</ele><time>2026-04-07T15:41:24Z</time></trkpt><trkpt lat="45.534352590260994" lon="11.301490633341016"><ele>146.0</ele><time>2026-04-07T15:41:25Z</time></trkpt><trkpt lat="45.5344150678754" lon="11.301354077428899"><ele>146.0</ele><time>2026-04-07T15:41:26Z</time></trkpt><trkpt lat="45.534474367250425" lon="11.301217634043942"><ele>146.0</ele><time>2026-04-07T15:41:27Z</time></trkpt><trkpt lat="45.53453210768051" lon="11.301085515068415"><ele>146.0</ele><time>2026-04-07T15:41:28Z</time></trkpt><trkpt lat="45.53459191188239" lon="11.300956081406511"><ele>146.0</ele><time>2026-04-07T15:41:29Z</time></trkpt><trkpt lat="45.5346542133752" lon="11.300825580124133"><ele>146.0</ele><time>2026-04-07T15:41:30Z</time></trkpt><trkpt lat="45.53471822485804" lon="11.300687533378161"><ele>146.5</ele><time>2026-04-07T15:41:31Z</time></trkpt><trkpt lat="45.53478300003515" lon="11.300543487116396"><ele>147.0</ele><time>2026-04-07T15:41:32Z</time></trkpt><trkpt lat="45.53484628238659" lon="11.300393788832551"><ele>147.5</ele><time>2026-04-07T15:41:33Z</time></trkpt><trkpt lat="45.5349101352126" lon="11.300251285096671"><ele>148.0</ele><time>2026-04-07T15:41:34Z</time></trkpt><trkpt lat="45.53497751113068" lon="11.300102773210936"><ele>148.0</ele><time>2026-04-07T15:41:35Z</time></trkpt><trkpt lat="45.53504493388736" lon="11.299952013146854"><ele>148.0</ele><time>2026-04-07T15:41:36Z</time></trkpt><trkpt lat="45.53511239818603" lon="11.299802575506027"><ele>148.0</ele><time>2026-04-07T15:41:37Z</time></trkpt><trkpt lat="45.53517933064505" lon="11.299648451647704"><ele>148.0</ele><time>2026-04-07T15:41:38Z</time></trkpt><trkpt lat="45.53524901489621" lon="11.29950096144661"><ele>148.25</ele><time>2026-04-07T15:41:39Z</time></trkpt><trkpt lat="45.535316161800196" lon="11.299355066822482"><ele>148.5</ele><time>2026-04-07T15:41:39.999Z</time></trkpt><trkpt lat="45.53538268375541" lon="11.299204150389194"><ele>148.75</ele><time>2026-04-07T15:41:40.999Z</time></trkpt><trkpt lat="45.53545011173231" lon="11.299047776692673"><ele>149.0</ele><time>2026-04-07T15:41:41.999Z</time></trkpt><trkpt lat="45.535519245273036" lon="11.298893193432717"><ele>149.0</ele><time>2026-04-07T15:41:42.999Z</time></trkpt><trkpt lat="45.535591698448734" lon="11.298728917605414"><ele>149.0</ele><time>2026-04-07T15:41:43.999Z</time></trkpt><trkpt lat="45.53566537914514" lon="11.298573435481615"><ele>149.0</ele><time>2026-04-07T15:41:44.999Z</time></trkpt><trkpt lat="45.53574168680478" lon="11.298409243836431"><ele>149.0</ele><time>2026-04-07T15:41:45.999Z</time></trkpt><trkpt lat="45.5358185664795" lon="11.298238760661558"><ele>148.8</ele><time>2026-04-07T15:41:46.999Z</time></trkpt><trkpt lat="45.535892629618004" lon="11.298074555907194"><ele>148.60000000000002</ele><time>2026-04-07T15:41:47.999Z</time></trkpt><trkpt lat="45.53595560868428" lon="11.297928041148102"><ele>148.4</ele><time>2026-04-07T15:41:48.999Z</time></trkpt><trkpt lat="45.53599875620712" lon="11.297816462615417"><ele>148.20000000000002</ele><time>2026-04-07T15:41:49.999Z</time></trkpt><trkpt lat="45.53606366701003" lon="11.297739891854674"><ele>148.0</ele><time>2026-04-07T15:41:51.999Z</time></trkpt><trkpt lat="45.53600894266065" lon="11.297570031340083"><ele>148.0</ele><time>2026-04-07T15:41:53.999Z</time></trkpt><trkpt lat="45.5358466970328" lon="11.297644923310754"><ele>148.0</ele><time>2026-04-07T15:41:55.999Z</time></trkpt><trkpt lat="45.53589333259743" lon="11.297764229575668"><ele>148.0</ele><time>2026-04-07T15:41:56.999Z</time></trkpt><trkpt lat="45.53586468773411" lon="11.297867375525199"><ele>148.0</ele><time>2026-04-07T15:41:58.999Z</time></trkpt><trkpt lat="45.535857502893975" lon="11.297972890314579"><ele>148.0</ele><time>2026-04-07T15:44:06.999Z</time></trkpt><trkpt lat="45.53581157913386" lon="11.298073164675026"><ele>148.0</ele><time>2026-04-07T15:44:08.999Z</time></trkpt><trkpt lat="45.53587337860229" lon="11.298095996466573"><ele>148.0</ele><time>2026-04-07T15:44:30.999Z</time></trkpt><trkpt lat="45.53593609947796" lon="11.298047902673886"><ele>148.0</ele><time>2026-04-07T15:44:31.999Z</time></trkpt><trkpt lat="45.536004437046344" lon="11.297914783162206"><ele>148.0</ele><time>2026-04-07T15:44:32.999Z</time></trkpt><trkpt lat="45.53607244089319" lon="11.297733849357202"><ele>148.0</ele><time>2026-04-07T15:44:33.999Z</time></trkpt><trkpt lat="45.536160052906" lon="11.297551418774678"><ele>148.25</ele><time>2026-04-07T15:44:34.999Z</time></trkpt><trkpt lat="45.53624376853701" lon="11.297379533318486"><ele>148.5</ele><time>2026-04-07T15:44:35.999Z</time></trkpt><trkpt lat="45.53632430909711" lon="11.29720864024048"><ele>148.75</ele><time>2026-04-07T15:44:36.999Z</time></trkpt><trkpt lat="45.536398316663984" lon="11.29704718812524"><ele>149.0</ele><time>2026-04-07T15:44:37.999Z</time></trkpt><trkpt lat="45.53647568769574" lon="11.296886827485702"><ele>149.0</ele><time>2026-04-07T15:44:38.999Z</time></trkpt><trkpt lat="45.53655099626706" lon="11.296732810560384"><ele>149.0</ele><time>2026-04-07T15:44:39.999Z</time></trkpt><trkpt lat="45.53662637253282" lon="11.296581876938518"><ele>149.0</ele><time>2026-04-07T15:44:40.999Z</time></trkpt><trkpt lat="45.53670139054661" lon="11.2964326621686"><ele>149.0</ele><time>2026-04-07T15:44:41.999Z</time></trkpt><trkpt lat="45.536777654121124" lon="11.296285292968616"><ele>149.75</ele><time>2026-04-07T15:44:42.999Z</time></trkpt><trkpt lat="45.53685305482792" lon="11.296139914065348"><ele>150.5</ele><time>2026-04-07T15:44:43.999Z</time></trkpt><trkpt lat="45.53693025168988" lon="11.295994674431336"><ele>151.25</ele><time>2026-04-07T15:44:44.999Z</time></trkpt><trkpt lat="45.537005984526544" lon="11.29584779192259"><ele>152.0</ele><time>2026-04-07T15:44:45.999Z</time></trkpt><trkpt lat="45.5370871766437" lon="11.29569846021358"><ele>152.5</ele><time>2026-04-07T15:44:46.999Z</time></trkpt><trkpt lat="45.537168355001114" lon="11.295536438252093"><ele>153.0</ele><time>2026-04-07T15:44:47.998Z</time></trkpt><trkpt lat="45.53725174257311" lon="11.295372468269022"><ele>153.5</ele><time>2026-04-07T15:44:48.998Z</time></trkpt><trkpt lat="45.53733195107614" lon="11.295216028706252"><ele>154.0</ele><time>2026-04-07T15:44:49.998Z</time></trkpt><trkpt lat="45.5374084088107" lon="11.2950633228277"><ele>154.0</ele><time>2026-04-07T15:44:50.998Z</time></trkpt><trkpt lat="45.53747104844473" lon="11.294930046356559"><ele>154.0</ele><time>2026-04-07T15:44:51.998Z</time></trkpt><trkpt lat="45.537524852904745" lon="11.294801989560549"><ele>154.0</ele><time>2026-04-07T15:44:52.998Z</time></trkpt><trkpt lat="45.53756792139631" lon="11.294689271786421"><ele>154.0</ele><time>2026-04-07T15:44:53.998Z</time></trkpt><trkpt lat="45.537608976124034" lon="11.294573914587243"><ele>154.0</ele><time>2026-04-07T15:44:54.998Z</time></trkpt><trkpt lat="45.53765293431943" lon="11.294443958779658"><ele>154.4</ele><time>2026-04-07T15:44:55.998Z</time></trkpt><trkpt lat="45.53769885494284" lon="11.294310611763883"><ele>154.8</ele><time>2026-04-07T15:44:56.998Z</time></trkpt><trkpt lat="45.53774214822548" lon="11.294183928658347"><ele>155.2</ele><time>2026-04-07T15:44:57.998Z</time></trkpt><trkpt lat="45.537786594899345" lon="11.294056532616262"><ele>155.6</ele><time>2026-04-07T15:44:58.998Z</time></trkpt><trkpt lat="45.53782860551519" lon="11.293932433422349"><ele>156.0</ele><time>2026-04-07T15:44:59.998Z</time></trkpt><trkpt lat="45.53787228245411" lon="11.293805025196407"><ele>156.6</ele><time>2026-04-07T15:45:00.998Z</time></trkpt><trkpt lat="45.53791169713137" lon="11.293676308866802"><ele>157.2</ele><time>2026-04-07T15:45:01.998Z</time></trkpt><trkpt lat="45.53794544365322" lon="11.293541786806717"><ele>157.8</ele><time>2026-04-07T15:45:02.998Z</time></trkpt><trkpt lat="45.5379945932192" lon="11.29344630157991"><ele>158.4</ele><time>2026-04-07T15:45:03.998Z</time></trkpt><trkpt lat="45.53800902158651" lon="11.293337171129306"><ele>159.0</ele><time>2026-04-07T15:45:04.998Z</time></trkpt><trkpt lat="45.53806083378437" lon="11.293211354735273"><ele>159.0</ele><time>2026-04-07T15:45:06.998Z</time></trkpt><trkpt lat="45.53809160766358" lon="11.293132920163307"><ele>159.0</ele><time>2026-04-07T15:45:10.998Z</time></trkpt><trkpt lat="45.538145852558685" lon="11.29306941117191"><ele>159.0</ele><time>2026-04-07T15:45:12.998Z</time></trkpt><trkpt lat="45.53798834099146" lon="11.292931078986898"><ele>159.0</ele><time>2026-04-07T15:45:13.998Z</time></trkpt><trkpt lat="45.537912678877845" lon="11.292875134329144"><ele>159.0</ele><time>2026-04-07T15:45:14.998Z</time></trkpt><trkpt lat="45.53784030053588" lon="11.29279430713234"><ele>158.5</ele><time>2026-04-07T15:45:15.998Z</time></trkpt><trkpt lat="45.53776958014932" lon="11.29272242411122"><ele>158.0</ele><time>2026-04-07T15:45:16.998Z</time></trkpt><trkpt lat="45.53769917297882" lon="11.292650849868943"><ele>157.5</ele><time>2026-04-07T15:45:17.998Z</time></trkpt><trkpt lat="45.537621013151075" lon="11.292572176874172"><ele>157.0</ele><time>2026-04-07T15:45:18.998Z</time></trkpt><trkpt lat="45.5375475904361" lon="11.292498260547353"><ele>156.5</ele><time>2026-04-07T15:45:19.998Z</time></trkpt><trkpt lat="45.53747620278994" lon="11.292433958085255"><ele>156.0</ele><time>2026-04-07T15:45:20.998Z</time></trkpt><trkpt lat="45.53740442311296" lon="11.2923754505495"><ele>156.0</ele><time>2026-04-07T15:45:21.998Z</time></trkpt><trkpt lat="45.53732374636427" lon="11.292315932326321"><ele>156.0</ele><time>2026-04-07T15:45:23Z</time></trkpt><trkpt lat="45.5372355209438" lon="11.292259873598328"><ele>156.0</ele><time>2026-04-07T15:45:24Z</time></trkpt><trkpt lat="45.53715240672994" lon="11.292216691199817"><ele>156.0</ele><time>2026-04-07T15:45:25Z</time></trkpt><trkpt lat="45.53706807759527" lon="11.292169932633351"><ele>156.0</ele><time>2026-04-07T15:45:26Z</time></trkpt><trkpt lat="45.536998867162986" lon="11.29212998371793"><ele>156.0</ele><time>2026-04-07T15:45:27Z</time></trkpt><trkpt lat="45.53689291007932" lon="11.292125023701464"><ele>156.0</ele><time>2026-04-07T15:45:29Z</time></trkpt><trkpt lat="45.536816480424065" lon="11.292208150955819"><ele>156.0</ele><time>2026-04-07T15:45:31Z</time></trkpt><trkpt lat="45.536883943471686" lon="11.292382534383748"><ele>156.0</ele><time>2026-04-07T15:45:32Z</time></trkpt><trkpt lat="45.537006576930494" lon="11.29241587027249"><ele>156.0</ele><time>2026-04-07T15:45:34Z</time></trkpt><trkpt lat="45.537098866416514" lon="11.292385869627479"><ele>156.0</ele><time>2026-04-07T15:45:35Z</time></trkpt><trkpt lat="45.53720745583913" lon="11.292353759967048"><ele>156.0</ele><time>2026-04-07T15:45:36Z</time></trkpt><trkpt lat="45.53731572494669" lon="11.292359492564154"><ele>156.0</ele><time>2026-04-07T15:45:37Z</time></trkpt><trkpt lat="45.537419839057584" lon="11.292419457998905"><ele>156.0</ele><time>2026-04-07T15:45:38Z</time></trkpt><trkpt lat="45.53752059134678" lon="11.292517520727372"><ele>156.0</ele><time>2026-04-07T15:45:39Z</time></trkpt><trkpt lat="45.53761277215401" lon="11.292621964035657"><ele>156.0</ele><time>2026-04-07T15:45:40Z</time></trkpt><trkpt lat="45.537687182811" lon="11.292705135873438"><ele>156.0</ele><time>2026-04-07T15:45:41Z</time></trkpt><trkpt lat="45.5377448329309" lon="11.292780765817886"><ele>156.0</ele><time>2026-04-07T15:45:42Z</time></trkpt><trkpt lat="45.53780666083116" lon="11.292868150516751"><ele>156.0</ele><time>2026-04-07T15:45:44Z</time></trkpt><trkpt lat="45.53788018773771" lon="11.29294331419126"><ele>156.2</ele><time>2026-04-07T15:45:47Z</time></trkpt><trkpt lat="45.53793991565964" lon="11.292995327470962"><ele>156.39999999999998</ele><time>2026-04-07T15:45:50Z</time></trkpt><trkpt lat="45.53799972619196" lon="11.293055693473393"><ele>156.6</ele><time>2026-04-07T15:45:53Z</time></trkpt><trkpt lat="45.53806731606473" lon="11.293123845447589"><ele>156.79999999999998</ele><time>2026-04-07T15:45:56Z</time></trkpt><trkpt lat="45.53799233553213" lon="11.29332737112374"><ele>157.0</ele><time>2026-04-07T15:45:57Z</time></trkpt><trkpt lat="45.537944371437305" lon="11.29345372943283"><ele>156.83333333333334</ele><time>2026-04-07T15:45:58Z</time></trkpt><trkpt lat="45.5378940623636" lon="11.29359450686775"><ele>156.66666666666669</ele><time>2026-04-07T15:45:59Z</time></trkpt><trkpt lat="45.53785010037396" lon="11.29371849541879"><ele>156.5</ele><time>2026-04-07T15:46:00Z</time></trkpt><trkpt lat="45.537818201493344" lon="11.29382908154242"><ele>156.33333333333334</ele><time>2026-04-07T15:46:01Z</time></trkpt><trkpt lat="45.537791898586995" lon="11.293939582858384"><ele>156.16666666666666</ele><time>2026-04-07T15:46:02Z</time></trkpt><trkpt lat="45.5377638889982" lon="11.29403398500256"><ele>156.0</ele><time>2026-04-07T15:46:03Z</time></trkpt><trkpt lat="45.53771775883407" lon="11.294175294806935"><ele>156.0</ele><time>2026-04-07T15:46:05Z</time></trkpt><trkpt lat="45.53767021282191" lon="11.294272881479424"><ele>156.0</ele><time>2026-04-07T15:46:17.999Z</time></trkpt><trkpt lat="45.537767813432694" lon="11.294381696537114"><ele>156.0</ele><time>2026-04-07T15:46:19.999Z</time></trkpt><trkpt lat="45.537871966212215" lon="11.294445695688179"><ele>156.0</ele><time>2026-04-07T15:46:21.999Z</time></trkpt><trkpt lat="45.537931460939014" lon="11.294495885532394"><ele>156.0</ele><time>2026-04-07T15:46:22.999Z</time></trkpt><trkpt lat="45.53799572380677" lon="11.29455004580703"><ele>156.0</ele><time>2026-04-07T15:46:23.999Z</time></trkpt><trkpt lat="45.53806793787292" lon="11.294610620300332"><ele>156.0</ele><time>2026-04-07T15:46:24.999Z</time></trkpt><trkpt lat="45.538148344646146" lon="11.294681245484822"><ele>156.0</ele><time>2026-04-07T15:46:25.999Z</time></trkpt><trkpt lat="45.53824100532126" lon="11.294767973117457"><ele>156.0</ele><time>2026-04-07T15:46:26.999Z</time></trkpt><trkpt lat="45.53831619572317" lon="11.29483449805224"><ele>156.0</ele><time>2026-04-07T15:46:27.999Z</time></trkpt><trkpt lat="45.53839547161658" lon="11.294908165591467"><ele>156.0</ele><time>2026-04-07T15:46:28.999Z</time></trkpt><trkpt lat="45.53847196114459" lon="11.294989312895053"><ele>156.0</ele><time>2026-04-07T15:46:29.999Z</time></trkpt><trkpt lat="45.53854908534363" lon="11.295093962366826"><ele>156.0</ele><time>2026-04-07T15:46:30.999Z</time></trkpt><trkpt lat="45.53862513797184" lon="11.29519144949599"><ele>156.0</ele><time>2026-04-07T15:46:31.999Z</time></trkpt><trkpt lat="45.538696616481026" lon="11.295279430703612"><ele>156.0</ele><time>2026-04-07T15:46:32.999Z</time></trkpt><trkpt lat="45.53876035380276" lon="11.295363778492565"><ele>157.2</ele><time>2026-04-07T15:46:33.999Z</time></trkpt><trkpt lat="45.53881087929188" lon="11.295441449623597"><ele>158.39999999999998</ele><time>2026-04-07T15:46:34.999Z</time></trkpt><trkpt lat="45.53884413955334" lon="11.295578001114055"><ele>159.6</ele><time>2026-04-07T15:46:36.999Z</time></trkpt><trkpt lat="45.538804677839416" lon="11.295722938267176"><ele>160.79999999999998</ele><time>2026-04-07T15:46:38.999Z</time></trkpt><trkpt lat="45.53876263680344" lon="11.295905745332846"><ele>162.0</ele><time>2026-04-07T15:46:40.999Z</time></trkpt><trkpt lat="45.538739719315444" lon="11.296005397226825"><ele>161.0</ele><time>2026-04-07T15:46:41.999Z</time></trkpt><trkpt lat="45.538717166994736" lon="11.296103461461957"><ele>160.0</ele><time>2026-04-07T15:46:42.999Z</time></trkpt><trkpt lat="45.53869243562012" lon="11.296212672497438"><ele>159.0</ele><time>2026-04-07T15:46:43.999Z</time></trkpt><trkpt lat="45.53866924764033" lon="11.296321597754874"><ele>158.0</ele><time>2026-04-07T15:46:44.999Z</time></trkpt><trkpt lat="45.538648153959606" lon="11.296420933091621"><ele>157.0</ele><time>2026-04-07T15:46:45.999Z</time></trkpt><trkpt lat="45.538624865619745" lon="11.29658469280934"><ele>156.0</ele><time>2026-04-07T15:46:47.999Z</time></trkpt><trkpt lat="45.53864247846452" lon="11.296742483226021"><ele>155.83333333333334</ele><time>2026-04-07T15:46:49.999Z</time></trkpt><trkpt lat="45.53864275858488" lon="11.296888252272254"><ele>155.66666666666666</ele><time>2026-04-07T15:46:51.999Z</time></trkpt><trkpt lat="45.538584343532705" lon="11.296934389424434"><ele>155.5</ele><time>2026-04-07T15:46:52.999Z</time></trkpt><trkpt lat="45.53854272705353" lon="11.297015520575055"><ele>155.33333333333331</ele><time>2026-04-07T15:46:53.999Z</time></trkpt><trkpt lat="45.53849773996505" lon="11.29710127264255"><ele>155.16666666666666</ele><time>2026-04-07T15:46:54.999Z</time></trkpt><trkpt lat="45.53844874450905" lon="11.29719466598315"><ele>155.0</ele><time>2026-04-07T15:46:55.999Z</time></trkpt><trkpt lat="45.53840602347678" lon="11.297292882630929"><ele>155.0</ele><time>2026-04-07T15:46:56.999Z</time></trkpt><trkpt lat="45.53836797435995" lon="11.29738166240521"><ele>155.0</ele><time>2026-04-07T15:46:57.999Z</time></trkpt><trkpt lat="45.538330019676415" lon="11.297457344561252"><ele>155.0</ele><time>2026-04-07T15:46:58.999Z</time></trkpt><trkpt lat="45.53827170884326" lon="11.297540598328414"><ele>155.0</ele><time>2026-04-07T15:47:02.999Z</time></trkpt><trkpt lat="45.53835353551686" lon="11.297728656739476"><ele>155.0</ele><time>2026-04-07T15:47:04.999Z</time></trkpt><trkpt lat="45.53840654615226" lon="11.297813824902992"><ele>155.0</ele><time>2026-04-07T15:47:05.998Z</time></trkpt><trkpt lat="45.538439307131945" lon="11.29789452720998"><ele>155.0</ele><time>2026-04-07T15:47:06.998Z</time></trkpt><trkpt lat="45.538475159120246" lon="11.29798765671053"><ele>155.0</ele><time>2026-04-07T15:47:07.998Z</time></trkpt><trkpt lat="45.538517234774005" lon="11.298094214348556"><ele>155.0</ele><time>2026-04-07T15:47:08.998Z</time></trkpt><trkpt lat="45.538560797894284" lon="11.298212084869357"><ele>155.0</ele><time>2026-04-07T15:47:09.998Z</time></trkpt><trkpt lat="45.53860346275137" lon="11.298323271888593"><ele>155.0</ele><time>2026-04-07T15:47:10.998Z</time></trkpt><trkpt lat="45.538637635072924" lon="11.298408782475965"><ele>155.2</ele><time>2026-04-07T15:47:11.998Z</time></trkpt><trkpt lat="45.538686397567076" lon="11.298533347135615"><ele>155.4</ele><time>2026-04-07T15:47:13.998Z</time></trkpt><trkpt lat="45.53872334553902" lon="11.298679049810703"><ele>155.6</ele><time>2026-04-07T15:47:15.998Z</time></trkpt><trkpt lat="45.538731176223585" lon="11.29880707608566"><ele>155.8</ele><time>2026-04-07T15:47:17.998Z</time></trkpt><trkpt lat="45.538712902921475" lon="11.298900640668705"><ele>156.0</ele><time>2026-04-07T15:47:19.998Z</time></trkpt><trkpt lat="45.53859727009217" lon="11.298915118481588"><ele>156.4</ele><time>2026-04-07T15:47:20.998Z</time></trkpt><trkpt lat="45.53849587877165" lon="11.299015486305024"><ele>156.8</ele><time>2026-04-07T15:47:22.998Z</time></trkpt><trkpt lat="45.538430122677156" lon="11.299115020028248"><ele>157.20000000000002</ele><time>2026-04-07T15:47:23.998Z</time></trkpt><trkpt lat="45.53838243791232" lon="11.299269303346192"><ele>157.6</ele><time>2026-04-07T15:47:24.998Z</time></trkpt><trkpt lat="45.53832634246079" lon="11.299404617188067"><ele>158.0</ele><time>2026-04-07T15:47:25.998Z</time></trkpt><trkpt lat="45.53826300609912" lon="11.299562423231261"><ele>158.0</ele><time>2026-04-07T15:47:26.998Z</time></trkpt><trkpt lat="45.53821532137549" lon="11.299738244630257"><ele>158.0</ele><time>2026-04-07T15:47:27.998Z</time></trkpt><trkpt lat="45.5381687620602" lon="11.299906461544028"><ele>158.0</ele><time>2026-04-07T15:47:29Z</time></trkpt><trkpt lat="45.538141297716564" lon="11.30006032567749"><ele>158.0</ele><time>2026-04-07T15:47:30Z</time></trkpt><trkpt lat="45.53813342951669" lon="11.300220940434585"><ele>158.5</ele><time>2026-04-07T15:47:31Z</time></trkpt><trkpt lat="45.53814096100305" lon="11.300387678430551"><ele>159.0</ele><time>2026-04-07T15:47:32Z</time></trkpt><trkpt lat="45.538160483150406" lon="11.30055128248423"><ele>159.5</ele><time>2026-04-07T15:47:33Z</time></trkpt><trkpt lat="45.53818431463643" lon="11.300726768407038"><ele>160.0</ele><time>2026-04-07T15:47:34Z</time></trkpt><trkpt lat="45.53820340831927" lon="11.300896664249725"><ele>160.4</ele><time>2026-04-07T15:47:35Z</time></trkpt><trkpt lat="45.53821374369887" lon="11.301056314684446"><ele>160.8</ele><time>2026-04-07T15:47:36Z</time></trkpt><trkpt lat="45.538212310847435" lon="11.301196145580091"><ele>161.2</ele><time>2026-04-07T15:47:37Z</time></trkpt><trkpt lat="45.53820544556082" lon="11.301330657351556"><ele>161.6</ele><time>2026-04-07T15:47:38Z</time></trkpt><trkpt lat="45.53819864629024" lon="11.301440765012256"><ele>162.0</ele><time>2026-04-07T15:47:39Z</time></trkpt><trkpt lat="45.538150884605685" lon="11.301569031010905"><ele>162.2</ele><time>2026-04-07T15:47:41Z</time></trkpt><trkpt lat="45.538088708257774" lon="11.301597160108207"><ele>162.39999999999998</ele><time>2026-04-07T15:47:42Z</time></trkpt><trkpt lat="45.53800085802747" lon="11.30157724573981"><ele>162.60000000000002</ele><time>2026-04-07T15:47:43Z</time></trkpt><trkpt lat="45.53789961274256" lon="11.301586406269053"><ele>162.8</ele><time>2026-04-07T15:47:44Z</time></trkpt><trkpt lat="45.53778349085845" lon="11.301612831086823"><ele>163.0</ele><time>2026-04-07T15:47:45Z</time></trkpt><trkpt lat="45.53765724932947" lon="11.301628329026947"><ele>162.0</ele><time>2026-04-07T15:47:46Z</time></trkpt><trkpt lat="45.53753507463912" lon="11.301652652795878"><ele>161.0</ele><time>2026-04-07T15:47:47Z</time></trkpt><trkpt lat="45.537418918820315" lon="11.30166398743327"><ele>160.0</ele><time>2026-04-07T15:47:48Z</time></trkpt><trkpt lat="45.53731207324251" lon="11.301672259601226"><ele>159.0</ele><time>2026-04-07T15:47:49Z</time></trkpt><trkpt lat="45.53721753637913" lon="11.301686181437622"><ele>158.0</ele><time>2026-04-07T15:47:50Z</time></trkpt><trkpt lat="45.53714248806696" lon="11.30169230682913"><ele>158.0</ele><time>2026-04-07T15:47:51Z</time></trkpt><trkpt lat="45.537075572892554" lon="11.301686235325464"><ele>158.0</ele><time>2026-04-07T15:47:52Z</time></trkpt><trkpt lat="45.53694825365649" lon="11.301666365872984"><ele>158.0</ele><time>2026-04-07T15:47:54Z</time></trkpt><trkpt lat="45.5368624339772" lon="11.301768574182034"><ele>158.0</ele><time>2026-04-07T15:47:55Z</time></trkpt><trkpt lat="45.53674674696606" lon="11.301825319269168"><ele>158.0</ele><time>2026-04-07T15:47:56Z</time></trkpt><trkpt lat="45.53662270399393" lon="11.301889485004788"><ele>157.25</ele><time>2026-04-07T15:47:57Z</time></trkpt><trkpt lat="45.53649289286181" lon="11.30194219646606"><ele>156.5</ele><time>2026-04-07T15:47:58Z</time></trkpt><trkpt lat="45.536362081102" lon="11.302000749847465"><ele>155.75</ele><time>2026-04-07T15:47:59Z</time></trkpt><trkpt lat="45.53624466282469" lon="11.302057049000542"><ele>155.0</ele><time>2026-04-07T15:48:00Z</time></trkpt><trkpt lat="45.536128354827426" lon="11.302108248632186"><ele>155.75</ele><time>2026-04-07T15:48:01Z</time></trkpt><trkpt lat="45.53601239421881" lon="11.302167609852685"><ele>156.5</ele><time>2026-04-07T15:48:02Z</time></trkpt><trkpt lat="45.535890876059725" lon="11.302220555729614"><ele>157.25</ele><time>2026-04-07T15:48:03Z</time></trkpt><trkpt lat="45.53577626211554" lon="11.302269701010797"><ele>158.0</ele><time>2026-04-07T15:48:04Z</time></trkpt><trkpt lat="45.53566901826162" lon="11.302333359774968"><ele>158.0</ele><time>2026-04-07T15:48:05Z</time></trkpt><trkpt lat="45.535560173686434" lon="11.302411116707818"><ele>158.0</ele><time>2026-04-07T15:48:06Z</time></trkpt><trkpt lat="45.5354680042498" lon="11.30251371417759"><ele>158.0</ele><time>2026-04-07T15:48:07Z</time></trkpt><trkpt lat="45.535390732417206" lon="11.302638951363623"><ele>158.0</ele><time>2026-04-07T15:48:07.999Z</time></trkpt><trkpt lat="45.53532553951538" lon="11.302776269272691"><ele>157.66666666666666</ele><time>2026-04-07T15:48:08.999Z</time></trkpt><trkpt lat="45.535261466292184" lon="11.302905728544527"><ele>157.33333333333331</ele><time>2026-04-07T15:48:09.999Z</time></trkpt><trkpt lat="45.53519307663086" lon="11.30300905052184"><ele>157.0</ele><time>2026-04-07T15:48:10.999Z</time></trkpt><trkpt lat="45.53514072830555" lon="11.303100149336387"><ele>156.66666666666666</ele><time>2026-04-07T15:48:11.999Z</time></trkpt><trkpt lat="45.53510404596532" lon="11.303174403104041"><ele>156.33333333333334</ele><time>2026-04-07T15:48:12.999Z</time></trkpt><trkpt lat="45.535062322931196" lon="11.303243093662807"><ele>156.0</ele><time>2026-04-07T15:48:15.999Z</time></trkpt><trkpt lat="45.534962038027196" lon="11.303232346036523"><ele>156.0</ele><time>2026-04-07T15:48:17.999Z</time></trkpt><trkpt lat="45.53487118458234" lon="11.303163426504293"><ele>156.0</ele><time>2026-04-07T15:48:18.999Z</time></trkpt><trkpt lat="45.53476591312541" lon="11.303092251140948"><ele>156.0</ele><time>2026-04-07T15:48:19.999Z</time></trkpt><trkpt lat="45.53468247155567" lon="11.30300111944322"><ele>156.0</ele><time>2026-04-07T15:48:20.999Z</time></trkpt><trkpt lat="45.5346032437779" lon="11.302930481810149"><ele>156.0</ele><time>2026-04-07T15:48:21.999Z</time></trkpt><trkpt lat="45.53452914396393" lon="11.302862455550985"><ele>154.0</ele><time>2026-04-07T15:48:22.999Z</time></trkpt><trkpt lat="45.53444454244888" lon="11.302784067225936"><ele>152.0</ele><time>2026-04-07T15:48:23.999Z</time></trkpt><trkpt lat="45.53434925276279" lon="11.302710380761335"><ele>150.0</ele><time>2026-04-07T15:48:24.999Z</time></trkpt><trkpt lat="45.534251871098895" lon="11.302660322291015"><ele>148.0</ele><time>2026-04-07T15:48:25.999Z</time></trkpt><trkpt lat="45.53416469541093" lon="11.302636131696135"><ele>146.0</ele><time>2026-04-07T15:48:26.999Z</time></trkpt><trkpt lat="45.53410027049612" lon="11.302604431392151"><ele>146.0</ele><time>2026-04-07T15:48:27.999Z</time></trkpt><trkpt lat="45.534038532866724" lon="11.302576130029978"><ele>146.0</ele><time>2026-04-07T15:48:28.999Z</time></trkpt><trkpt lat="45.53396149792688" lon="11.302535983196474"><ele>146.0</ele><time>2026-04-07T15:48:30.999Z</time></trkpt><trkpt lat="45.53398963355308" lon="11.302291639931614"><ele>146.0</ele><time>2026-04-07T15:48:32.999Z</time></trkpt><trkpt lat="45.534035473529464" lon="11.302168365464736"><ele>146.0</ele><time>2026-04-07T15:48:33.999Z</time></trkpt><trkpt lat="45.534098312808574" lon="11.302049231424451"><ele>145.8</ele><time>2026-04-07T15:48:34.999Z</time></trkpt><trkpt lat="45.5341434628829" lon="11.30194237708596"><ele>145.6</ele><time>2026-04-07T15:48:35.999Z</time></trkpt><trkpt lat="45.534184200449786" lon="11.301873655336717"><ele>145.4</ele><time>2026-04-07T15:48:36.999Z</time></trkpt><trkpt lat="45.534083873990106" lon="11.30172518721214"><ele>145.2</ele><time>2026-04-07T15:48:38.999Z</time></trkpt><trkpt lat="45.534008419441065" lon="11.301689726048787"><ele>145.0</ele><time>2026-04-07T15:48:39.999Z</time></trkpt><trkpt lat="45.53392519414142" lon="11.301645849461648"><ele>145.0</ele><time>2026-04-07T15:48:40.999Z</time></trkpt><trkpt lat="45.53383504372385" lon="11.30157965931391"><ele>145.0</ele><time>2026-04-07T15:48:41.999Z</time></trkpt><trkpt lat="45.533734015317826" lon="11.301496121679993"><ele>145.0</ele><time>2026-04-07T15:48:42.999Z</time></trkpt><trkpt lat="45.5336308531768" lon="11.301388215627792"><ele>145.0</ele><time>2026-04-07T15:48:43.999Z</time></trkpt><trkpt lat="45.53353198390657" lon="11.301257859223732"><ele>145.0</ele><time>2026-04-07T15:48:44.999Z</time></trkpt><trkpt lat="45.53342354268178" lon="11.301119917220323"><ele>145.0</ele><time>2026-04-07T15:48:45.999Z</time></trkpt><trkpt lat="45.533330653480384" lon="11.300994708238747"><ele>145.0</ele><time>2026-04-07T15:48:46.999Z</time></trkpt><trkpt lat="45.53324002947251" lon="11.300888380354822"><ele>145.0</ele><time>2026-04-07T15:48:47.999Z</time></trkpt><trkpt lat="45.53315287937678" lon="11.300791515248491"><ele>145.0</ele><time>2026-04-07T15:48:48.999Z</time></trkpt><trkpt lat="45.53307309567066" lon="11.300694080174262"><ele>145.0</ele><time>2026-04-07T15:48:49.999Z</time></trkpt><trkpt lat="45.53301685075318" lon="11.300617784882146"><ele>145.0</ele><time>2026-04-07T15:48:50.999Z</time></trkpt><trkpt lat="45.53299282360688" lon="11.300531077528674"><ele>145.0</ele><time>2026-04-07T15:48:52.999Z</time></trkpt><trkpt lat="45.53294002100526" lon="11.300462889742878"><ele>145.0</ele><time>2026-04-07T15:48:57.999Z</time></trkpt><trkpt lat="45.53306780585608" lon="11.300261742958622"><ele>145.2</ele><time>2026-04-07T15:48:58.999Z</time></trkpt><trkpt lat="45.53306856067322" lon="11.300118570898693"><ele>145.4</ele><time>2026-04-07T15:48:59.999Z</time></trkpt><trkpt lat="45.533041955555895" lon="11.299976135611542"><ele>145.6</ele><time>2026-04-07T15:49:00.999Z</time></trkpt><trkpt lat="45.53299023123414" lon="11.299840580654056"><ele>145.8</ele><time>2026-04-07T15:49:01.999Z</time></trkpt><trkpt lat="45.532911601479086" lon="11.299708896558991"><ele>146.0</ele><time>2026-04-07T15:49:02.999Z</time></trkpt><trkpt lat="45.532812006409856" lon="11.29959135177334"><ele>146.75</ele><time>2026-04-07T15:49:03.999Z</time></trkpt><trkpt lat="45.532703994879256" lon="11.299481742400637"><ele>147.5</ele><time>2026-04-07T15:49:04.999Z</time></trkpt><trkpt lat="45.53260407312095" lon="11.299365209560829"><ele>148.25</ele><time>2026-04-07T15:49:05.999Z</time></trkpt><trkpt lat="45.5325059367635" lon="11.29923413907582"><ele>149.0</ele><time>2026-04-07T15:49:06.998Z</time></trkpt><trkpt lat="45.53240655929293" lon="11.299107796406325"><ele>149.0</ele><time>2026-04-07T15:49:07.998Z</time></trkpt><trkpt lat="45.53230404072802" lon="11.298973185252287"><ele>149.0</ele><time>2026-04-07T15:49:08.998Z</time></trkpt><trkpt lat="45.53223257027471" lon="11.298850409307002"><ele>149.0</ele><time>2026-04-07T15:49:09.998Z</time></trkpt><trkpt lat="45.532191828030356" lon="11.298728917085423"><ele>149.0</ele><time>2026-04-07T15:49:10.998Z</time></trkpt><trkpt lat="45.532167297658155" lon="11.298610559848163"><ele>149.0</ele><time>2026-04-07T15:49:11.998Z</time></trkpt><trkpt lat="45.53215311796463" lon="11.298487940563705"><ele>148.6</ele><time>2026-04-07T15:49:12.998Z</time></trkpt><trkpt lat="45.532148196022675" lon="11.298353385917826"><ele>148.2</ele><time>2026-04-07T15:49:13.998Z</time></trkpt><trkpt lat="45.53214970867542" lon="11.298234359791458"><ele>147.79999999999998</ele><time>2026-04-07T15:49:14.998Z</time></trkpt><trkpt lat="45.532156114190514" lon="11.29810673946706"><ele>147.4</ele><time>2026-04-07T15:49:16.998Z</time></trkpt><trkpt lat="45.53216324163762" lon="11.297946665617447"><ele>147.0</ele><time>2026-04-07T15:49:20.998Z</time></trkpt><trkpt lat="45.532202770980994" lon="11.297845672840383"><ele>148.0</ele><time>2026-04-07T15:49:21.998Z</time></trkpt><trkpt lat="45.53228270479538" lon="11.297734126688702"><ele>149.0</ele><time>2026-04-07T15:49:22.998Z</time></trkpt><trkpt lat="45.53237664204344" lon="11.297654641169988"><ele>150.0</ele><time>2026-04-07T15:49:23.998Z</time></trkpt><trkpt lat="45.53249884595196" lon="11.297579736273201"><ele>151.0</ele><time>2026-04-07T15:49:24.998Z</time></trkpt><trkpt lat="45.53263236588447" lon="11.297504639097818"><ele>151.0</ele><time>2026-04-07T15:49:25.998Z</time></trkpt><trkpt lat="45.53276832157311" lon="11.297406862561452"><ele>151.0</ele><time>2026-04-07T15:49:26.998Z</time></trkpt><trkpt lat="45.53291019706773" lon="11.297287156004824"><ele>151.0</ele><time>2026-04-07T15:49:27.998Z</time></trkpt><trkpt lat="45.533059342546736" lon="11.297157433240105"><ele>150.33333333333334</ele><time>2026-04-07T15:49:28.998Z</time></trkpt><trkpt lat="45.533219967451465" lon="11.29702284307248"><ele>149.66666666666666</ele><time>2026-04-07T15:49:29.998Z</time></trkpt><trkpt lat="45.53338294739727" lon="11.29688131013734"><ele>149.0</ele><time>2026-04-07T15:49:30.998Z</time></trkpt><trkpt lat="45.533552693908085" lon="11.296734521973999"><ele>149.0</ele><time>2026-04-07T15:49:31.998Z</time></trkpt><trkpt lat="45.53372648838427" lon="11.296585126385692"><ele>149.0</ele><time>2026-04-07T15:49:32.998Z</time></trkpt><trkpt lat="45.53389686025361" lon="11.296432410757394"><ele>149.0</ele><time>2026-04-07T15:49:33.998Z</time></trkpt><trkpt lat="45.53407083890957" lon="11.296269579129763"><ele>149.66666666666666</ele><time>2026-04-07T15:49:34.999Z</time></trkpt><trkpt lat="45.534235446960935" lon="11.296108007892618"><ele>150.33333333333334</ele><time>2026-04-07T15:49:35.999Z</time></trkpt><trkpt lat="45.534401132981" lon="11.295948563414525"><ele>151.0</ele><time>2026-04-07T15:49:36.999Z</time></trkpt><trkpt lat="45.53456332373987" lon="11.29579741256344"><ele>151.0</ele><time>2026-04-07T15:49:37.999Z</time></trkpt><trkpt lat="45.53472159312758" lon="11.295648558792372"><ele>151.0</ele><time>2026-04-07T15:49:38.999Z</time></trkpt><trkpt lat="45.53487217102919" lon="11.295506751976323"><ele>151.0</ele><time>2026-04-07T15:49:39.999Z</time></trkpt><trkpt lat="45.535012758581864" lon="11.295374956006013"><ele>151.33333333333334</ele><time>2026-04-07T15:49:41Z</time></trkpt><trkpt lat="45.53514518007358" lon="11.29524679141855"><ele>151.66666666666666</ele><time>2026-04-07T15:49:42Z</time></trkpt><trkpt lat="45.535278635851434" lon="11.295112377944957"><ele>152.0</ele><time>2026-04-07T15:49:43Z</time></trkpt><trkpt lat="45.53540466100034" lon="11.29497784056991"><ele>152.5</ele><time>2026-04-07T15:49:44Z</time></trkpt><trkpt lat="45.53552123473875" lon="11.294855228508705"><ele>153.0</ele><time>2026-04-07T15:49:45Z</time></trkpt><trkpt lat="45.53562306857093" lon="11.294748109265802"><ele>153.5</ele><time>2026-04-07T15:49:46Z</time></trkpt><trkpt lat="45.535710139491904" lon="11.294653726603777"><ele>154.0</ele><time>2026-04-07T15:49:47Z</time></trkpt><trkpt lat="45.53579027948469" lon="11.29455567544164"><ele>154.25</ele><time>2026-04-07T15:49:48Z</time></trkpt><trkpt lat="45.53586857277398" lon="11.294450453188093"><ele>154.5</ele><time>2026-04-07T15:49:49Z</time></trkpt><trkpt lat="45.53595241423261" lon="11.294337850917445"><ele>154.75</ele><time>2026-04-07T15:49:50Z</time></trkpt><trkpt lat="45.53602336596606" lon="11.294205979770187"><ele>155.0</ele><time>2026-04-07T15:49:51Z</time></trkpt><trkpt lat="45.536095113263926" lon="11.294070486282154"><ele>155.0</ele><time>2026-04-07T15:49:52Z</time></trkpt><trkpt lat="45.53616474575905" lon="11.293926984368857"><ele>155.0</ele><time>2026-04-07T15:49:53Z</time></trkpt><trkpt lat="45.53622883725514" lon="11.293778292495166"><ele>155.0</ele><time>2026-04-07T15:49:54Z</time></trkpt><trkpt lat="45.53629173706516" lon="11.293621963038888"><ele>155.0</ele><time>2026-04-07T15:49:55Z</time></trkpt><trkpt lat="45.53635308225713" lon="11.293470275436139"><ele>155.0</ele><time>2026-04-07T15:49:56Z</time></trkpt><trkpt lat="45.53640862088106" lon="11.293328186793508"><ele>155.0</ele><time>2026-04-07T15:49:57Z</time></trkpt><trkpt lat="45.53646405149415" lon="11.293196122463295"><ele>155.0</ele><time>2026-04-07T15:49:58Z</time></trkpt><trkpt lat="45.53652275443478" lon="11.293069033069168"><ele>155.0</ele><time>2026-04-07T15:49:59Z</time></trkpt><trkpt lat="45.53657548506979" lon="11.292942188626897"><ele>155.0</ele><time>2026-04-07T15:50:00Z</time></trkpt><trkpt lat="45.53662312142369" lon="11.292827229515865"><ele>154.83333333333331</ele><time>2026-04-07T15:50:01Z</time></trkpt><trkpt lat="45.53666735133238" lon="11.292720995560853"><ele>154.66666666666666</ele><time>2026-04-07T15:50:02Z</time></trkpt><trkpt lat="45.536712526085196" lon="11.29261643197848"><ele>154.5</ele><time>2026-04-07T15:50:03Z</time></trkpt><trkpt lat="45.536752247301735" lon="11.292533907328952"><ele>154.33333333333334</ele><time>2026-04-07T15:50:03.999Z</time></trkpt><trkpt lat="45.53679911098207" lon="11.292472430659657"><ele>154.16666666666669</ele><time>2026-04-07T15:50:04.999Z</time></trkpt><trkpt lat="45.536864170932176" lon="11.292424215313652"><ele>154.0</ele><time>2026-04-07T15:50:05.999Z</time></trkpt><trkpt lat="45.536936838919345" lon="11.292408337434166"><ele>154.0</ele><time>2026-04-07T15:50:06.999Z</time></trkpt><trkpt lat="45.537000074136564" lon="11.29239719034225"><ele>154.0</ele><time>2026-04-07T15:50:07.999Z</time></trkpt><trkpt lat="45.53707680854713" lon="11.292288922558777"><ele>154.0</ele><time>2026-04-07T15:50:09.999Z</time></trkpt><trkpt lat="45.53705764463886" lon="11.292117720344752"><ele>154.0</ele><time>2026-04-07T15:50:11.999Z</time></trkpt><trkpt lat="45.53699056702936" lon="11.292055006835074"><ele>154.0</ele><time>2026-04-07T15:50:12.999Z</time></trkpt><trkpt lat="45.53692947058251" lon="11.291933577495248"><ele>154.0</ele><time>2026-04-07T15:50:14.999Z</time></trkpt><trkpt lat="45.53695613736304" lon="11.291756302105044"><ele>154.0</ele><time>2026-04-07T15:50:16.999Z</time></trkpt><trkpt lat="45.53698560195025" lon="11.291645232266045"><ele>154.0</ele><time>2026-04-07T15:50:17.999Z</time></trkpt><trkpt lat="45.53700976002282" lon="11.291523047507809"><ele>154.0</ele><time>2026-04-07T15:50:18.999Z</time></trkpt><trkpt lat="45.53702878756451" lon="11.291418730858213"><ele>154.0</ele><time>2026-04-07T15:50:19.999Z</time></trkpt><trkpt lat="45.53704488004242" lon="11.291323310914235"><ele>154.0</ele><time>2026-04-07T15:50:20.999Z</time></trkpt><trkpt lat="45.53707487916586" lon="11.291147312993626"><ele>154.4</ele><time>2026-04-07T15:50:22.999Z</time></trkpt><trkpt lat="45.53709436366294" lon="11.291046841419538"><ele>154.8</ele><time>2026-04-07T15:50:23.999Z</time></trkpt><trkpt lat="45.537129017106516" lon="11.2908951000828"><ele>155.2</ele><time>2026-04-07T15:50:25.999Z</time></trkpt><trkpt lat="45.537143936402614" lon="11.290789093130549"><ele>155.6</ele><time>2026-04-07T15:50:30.999Z</time></trkpt><trkpt lat="45.53717638089193" lon="11.290688193895411"><ele>156.0</ele><time>2026-04-07T15:50:32.999Z</time></trkpt><trkpt lat="45.53705717390561" lon="11.290640274010771"><ele>155.83333333333334</ele><time>2026-04-07T15:50:33.999Z</time></trkpt><trkpt lat="45.53698938106963" lon="11.290645194749962"><ele>155.66666666666666</ele><time>2026-04-07T15:50:34.999Z</time></trkpt><trkpt lat="45.53692757440184" lon="11.290609219630566"><ele>155.5</ele><time>2026-04-07T15:50:35.999Z</time></trkpt><trkpt lat="45.536863126601055" lon="11.290591163133207"><ele>155.33333333333331</ele><time>2026-04-07T15:50:36.999Z</time></trkpt><trkpt lat="45.53676439869027" lon="11.290567676254112"><ele>155.16666666666666</ele><time>2026-04-07T15:50:38.999Z</time></trkpt><trkpt lat="45.53669123941399" lon="11.290576864807814"><ele>155.0</ele><time>2026-04-07T15:50:40.999Z</time></trkpt><trkpt lat="45.53658318086768" lon="11.290574210928195"><ele>155.0</ele><time>2026-04-07T15:50:42.999Z</time></trkpt><trkpt lat="45.53648227107506" lon="11.290604039551166"><ele>155.0</ele><time>2026-04-07T15:50:44.999Z</time></trkpt><trkpt lat="45.53640426295208" lon="11.29059655344596"><ele>155.0</ele><time>2026-04-07T15:50:45.999Z</time></trkpt><trkpt lat="45.536330355479784" lon="11.290664412219973"><ele>155.0</ele><time>2026-04-07T15:50:46.999Z</time></trkpt><trkpt lat="45.53625388957514" lon="11.290717960660283"><ele>155.0</ele><time>2026-04-07T15:50:47.999Z</time></trkpt><trkpt lat="45.53617038138608" lon="11.290789474294495"><ele>155.2</ele><time>2026-04-07T15:50:48.999Z</time></trkpt><trkpt lat="45.53609064338157" lon="11.290860042547491"><ele>155.4</ele><time>2026-04-07T15:50:49.999Z</time></trkpt><trkpt lat="45.536012886206905" lon="11.290939210881074"><ele>155.6</ele><time>2026-04-07T15:50:50.999Z</time></trkpt><trkpt lat="45.53594109868866" lon="11.29103513521126"><ele>155.8</ele><time>2026-04-07T15:50:51.999Z</time></trkpt><trkpt lat="45.53587118066429" lon="11.291136697973219"><ele>156.0</ele><time>2026-04-07T15:50:52.999Z</time></trkpt><trkpt lat="45.53580067454929" lon="11.291238199577357"><ele>156.0</ele><time>2026-04-07T15:50:53.999Z</time></trkpt><trkpt lat="45.53573595089719" lon="11.291336655079911"><ele>156.0</ele><time>2026-04-07T15:50:54.999Z</time></trkpt><trkpt lat="45.53568503627381" lon="11.291424846326713"><ele>156.0</ele><time>2026-04-07T15:50:55.999Z</time></trkpt><trkpt lat="45.53564047749694" lon="11.291494518803677"><ele>156.0</ele><time>2026-04-07T15:50:56.999Z</time></trkpt><trkpt lat="45.53559424750696" lon="11.291558592963504"><ele>156.0</ele><time>2026-04-07T15:50:57.999Z</time></trkpt><trkpt lat="45.53551575467657" lon="11.291656220615108"><ele>156.0</ele><time>2026-04-07T15:50:59.999Z</time></trkpt><trkpt lat="45.53544615865589" lon="11.291722668825285"><ele>154.0</ele><time>2026-04-07T15:51:01.999Z</time></trkpt><trkpt lat="45.53539612158228" lon="11.291794911631776"><ele>154.0</ele><time>2026-04-07T15:51:19.998Z</time></trkpt><trkpt lat="45.53534226113901" lon="11.291848022531155"><ele>170.0</ele><time>2026-04-07T15:51:23.998Z</time></trkpt></trkseg></trk></gpx>